<?xml version="1.0" encoding="UTF-8" standalone="no" ?>
<gpx xmlns="http://www.topografix.com/GPX/1/1" creator="MapSource 6.15.6" version="1.1" xmlns:xsi="http://www.w3.org/2001/XMLSchema-instance" xsi:schemaLocation="http://www.topografix.com/GPX/1/1 http://www.topografix.com/GPX/1/1/gpx.xsd">

  <metadata>
    <link href="http://www.garmin.com">
      <text>Garmin International</text>
    </link>
    <time>2009-05-04T12:55:28Z</time>
    <bounds maxlat="44.0022000" maxlon="-89.5977480" minlat="42.6011190" minlon="-92.4868770"/>
  </metadata>

  <trk>
    <name>090501_Friday</name>
    <extensions>
      <gpxx:TrackExtension xmlns:gpxx="http://www.garmin.com/xmlschemas/GpxExtensions/v3">
        <gpxx:DisplayColor>White</gpxx:DisplayColor>
      </gpxx:TrackExtension>
    </extensions>
    <trkseg>
      <trkpt lat="44.0022000" lon="-92.4868230">
        <ele>313.0500000</ele>
        <time>2009-05-01T14:42:24Z</time>
      </trkpt>
      <trkpt lat="44.0019980" lon="-92.4868590">
        <ele>314.0100000</ele>
        <time>2009-05-01T14:42:29Z</time>
      </trkpt>
      <trkpt lat="44.0019450" lon="-92.4868640">
        <ele>314.0100000</ele>
        <time>2009-05-01T14:42:30Z</time>
      </trkpt>
      <trkpt lat="44.0019020" lon="-92.4868770">
        <ele>314.0100000</ele>
        <time>2009-05-01T14:42:31Z</time>
      </trkpt>
      <trkpt lat="44.0019400" lon="-92.4867080">
        <ele>314.4900000</ele>
        <time>2009-05-01T14:42:32Z</time>
      </trkpt>
      <trkpt lat="44.0019260" lon="-92.4866010">
        <ele>314.4900000</ele>
        <time>2009-05-01T14:42:33Z</time>
      </trkpt>
      <trkpt lat="44.0019090" lon="-92.4864790">
        <ele>314.9700000</ele>
        <time>2009-05-01T14:42:34Z</time>
      </trkpt>
      <trkpt lat="44.0018910" lon="-92.4863500">
        <ele>314.9700000</ele>
        <time>2009-05-01T14:42:35Z</time>
      </trkpt>
      <trkpt lat="44.0018160" lon="-92.4858030">
        <ele>315.9300000</ele>
        <time>2009-05-01T14:42:39Z</time>
      </trkpt>
      <trkpt lat="44.0016830" lon="-92.4856330">
        <ele>316.4100000</ele>
        <time>2009-05-01T14:42:40Z</time>
      </trkpt>
      <trkpt lat="44.0016090" lon="-92.4856450">
        <ele>316.4100000</ele>
        <time>2009-05-01T14:42:41Z</time>
      </trkpt>
      <trkpt lat="44.0015100" lon="-92.4856620">
        <ele>316.4100000</ele>
        <time>2009-05-01T14:42:42Z</time>
      </trkpt>
      <trkpt lat="44.0014020" lon="-92.4856790">
        <ele>316.4100000</ele>
        <time>2009-05-01T14:42:43Z</time>
      </trkpt>
      <trkpt lat="44.0012860" lon="-92.4856990">
        <ele>315.9300000</ele>
        <time>2009-05-01T14:42:44Z</time>
      </trkpt>
      <trkpt lat="44.0003220" lon="-92.4855030">
        <ele>314.4900000</ele>
        <time>2009-05-01T14:42:51Z</time>
      </trkpt>
      <trkpt lat="43.9985050" lon="-92.4849920">
        <ele>311.6000000</ele>
        <time>2009-05-01T14:43:06Z</time>
      </trkpt>
      <trkpt lat="43.9974980" lon="-92.4850570">
        <ele>311.6000000</ele>
        <time>2009-05-01T14:43:14Z</time>
      </trkpt>
      <trkpt lat="43.9956160" lon="-92.4849940">
        <ele>312.0900000</ele>
        <time>2009-05-01T14:43:22Z</time>
      </trkpt>
      <trkpt lat="43.9938940" lon="-92.4843320">
        <ele>314.9700000</ele>
        <time>2009-05-01T14:43:30Z</time>
      </trkpt>
      <trkpt lat="43.9924910" lon="-92.4830090">
        <ele>322.1800000</ele>
        <time>2009-05-01T14:43:38Z</time>
      </trkpt>
      <trkpt lat="43.9903920" lon="-92.4807560">
        <ele>332.2700000</ele>
        <time>2009-05-01T14:43:51Z</time>
      </trkpt>
      <trkpt lat="43.9884700" lon="-92.4794540">
        <ele>339.9600000</ele>
        <time>2009-05-01T14:44:01Z</time>
      </trkpt>
      <trkpt lat="43.9855820" lon="-92.4780840">
        <ele>349.5800000</ele>
        <time>2009-05-01T14:44:15Z</time>
      </trkpt>
      <trkpt lat="43.9835700" lon="-92.4764510">
        <ele>352.4600000</ele>
        <time>2009-05-01T14:44:25Z</time>
      </trkpt>
      <trkpt lat="43.9820680" lon="-92.4747620">
        <ele>350.5400000</ele>
        <time>2009-05-01T14:44:34Z</time>
      </trkpt>
      <trkpt lat="43.9795680" lon="-92.4708690">
        <ele>338.5200000</ele>
        <time>2009-05-01T14:44:51Z</time>
      </trkpt>
      <trkpt lat="43.9776150" lon="-92.4671700">
        <ele>331.3100000</ele>
        <time>2009-05-01T14:45:05Z</time>
      </trkpt>
      <trkpt lat="43.9769160" lon="-92.4642900">
        <ele>329.3900000</ele>
        <time>2009-05-01T14:45:14Z</time>
      </trkpt>
      <trkpt lat="43.9752670" lon="-92.4566340">
        <ele>322.1800000</ele>
        <time>2009-05-01T14:45:36Z</time>
      </trkpt>
      <trkpt lat="43.9737880" lon="-92.4489460">
        <ele>334.2000000</ele>
        <time>2009-05-01T14:45:58Z</time>
      </trkpt>
      <trkpt lat="43.9737520" lon="-92.4460500">
        <ele>335.1600000</ele>
        <time>2009-05-01T14:46:06Z</time>
      </trkpt>
      <trkpt lat="43.9743750" lon="-92.4370330">
        <ele>333.2300000</ele>
        <time>2009-05-01T14:46:31Z</time>
      </trkpt>
      <trkpt lat="43.9745060" lon="-92.4319880">
        <ele>344.7700000</ele>
        <time>2009-05-01T14:46:45Z</time>
      </trkpt>
      <trkpt lat="43.9739060" lon="-92.4266200">
        <ele>357.2700000</ele>
        <time>2009-05-01T14:47:00Z</time>
      </trkpt>
      <trkpt lat="43.9725430" lon="-92.4148070">
        <ele>351.9800000</ele>
        <time>2009-05-01T14:47:33Z</time>
      </trkpt>
      <trkpt lat="43.9712290" lon="-92.4046130">
        <ele>335.6400000</ele>
        <time>2009-05-01T14:48:02Z</time>
      </trkpt>
      <trkpt lat="43.9703350" lon="-92.4020500">
        <ele>333.7100000</ele>
        <time>2009-05-01T14:48:10Z</time>
      </trkpt>
      <trkpt lat="43.9689910" lon="-92.3994410">
        <ele>331.7900000</ele>
        <time>2009-05-01T14:48:19Z</time>
      </trkpt>
      <trkpt lat="43.9627160" lon="-92.3885670">
        <ele>340.4400000</ele>
        <time>2009-05-01T14:48:58Z</time>
      </trkpt>
      <trkpt lat="43.9603090" lon="-92.3839210">
        <ele>343.3300000</ele>
        <time>2009-05-01T14:49:14Z</time>
      </trkpt>
      <trkpt lat="43.9584630" lon="-92.3792050">
        <ele>342.8500000</ele>
        <time>2009-05-01T14:49:29Z</time>
      </trkpt>
      <trkpt lat="43.9560750" lon="-92.3724740">
        <ele>345.2500000</ele>
        <time>2009-05-01T14:49:50Z</time>
      </trkpt>
      <trkpt lat="43.9542100" lon="-92.3665690">
        <ele>346.2100000</ele>
        <time>2009-05-01T14:50:08Z</time>
      </trkpt>
      <trkpt lat="43.9519020" lon="-92.3597960">
        <ele>346.2100000</ele>
        <time>2009-05-01T14:50:29Z</time>
      </trkpt>
      <trkpt lat="43.9503910" lon="-92.3573700">
        <ele>347.6500000</ele>
        <time>2009-05-01T14:50:38Z</time>
      </trkpt>
      <trkpt lat="43.9484060" lon="-92.3540560">
        <ele>347.1700000</ele>
        <time>2009-05-01T14:50:51Z</time>
      </trkpt>
      <trkpt lat="43.9468340" lon="-92.3517470">
        <ele>347.1700000</ele>
        <time>2009-05-01T14:51:02Z</time>
      </trkpt>
      <trkpt lat="43.9453720" lon="-92.3509760">
        <ele>346.6900000</ele>
        <time>2009-05-01T14:51:10Z</time>
      </trkpt>
      <trkpt lat="43.9438020" lon="-92.3506400">
        <ele>345.2500000</ele>
        <time>2009-05-01T14:51:18Z</time>
      </trkpt>
      <trkpt lat="43.9420530" lon="-92.3502880">
        <ele>345.7300000</ele>
        <time>2009-05-01T14:51:27Z</time>
      </trkpt>
      <trkpt lat="43.9402840" lon="-92.3492310">
        <ele>351.5000000</ele>
        <time>2009-05-01T14:51:37Z</time>
      </trkpt>
      <trkpt lat="43.9387010" lon="-92.3477980">
        <ele>356.3100000</ele>
        <time>2009-05-01T14:51:46Z</time>
      </trkpt>
      <trkpt lat="43.9377900" lon="-92.3460920">
        <ele>357.2700000</ele>
        <time>2009-05-01T14:51:53Z</time>
      </trkpt>
      <trkpt lat="43.9366030" lon="-92.3423130">
        <ele>366.4000000</ele>
        <time>2009-05-01T14:52:07Z</time>
      </trkpt>
      <trkpt lat="43.9355420" lon="-92.3382600">
        <ele>378.4200000</ele>
        <time>2009-05-01T14:52:21Z</time>
      </trkpt>
      <trkpt lat="43.9345410" lon="-92.3329700">
        <ele>384.1800000</ele>
        <time>2009-05-01T14:52:39Z</time>
      </trkpt>
      <trkpt lat="43.9345090" lon="-92.3296190">
        <ele>381.3000000</ele>
        <time>2009-05-01T14:52:50Z</time>
      </trkpt>
      <trkpt lat="43.9344640" lon="-92.3210950">
        <ele>387.0700000</ele>
        <time>2009-05-01T14:53:18Z</time>
      </trkpt>
      <trkpt lat="43.9343270" lon="-92.3110340">
        <ele>388.0300000</ele>
        <time>2009-05-01T14:53:51Z</time>
      </trkpt>
      <trkpt lat="43.9343270" lon="-92.3017670">
        <ele>392.3600000</ele>
        <time>2009-05-01T14:54:21Z</time>
      </trkpt>
      <trkpt lat="43.9340460" lon="-92.2974970">
        <ele>397.6400000</ele>
        <time>2009-05-01T14:54:35Z</time>
      </trkpt>
      <trkpt lat="43.9333170" lon="-92.2959400">
        <ele>399.0800000</ele>
        <time>2009-05-01T14:54:41Z</time>
      </trkpt>
      <trkpt lat="43.9310950" lon="-92.2928000">
        <ele>399.5700000</ele>
        <time>2009-05-01T14:54:55Z</time>
      </trkpt>
      <trkpt lat="43.9257350" lon="-92.2852250">
        <ele>397.1600000</ele>
        <time>2009-05-01T14:55:29Z</time>
      </trkpt>
      <trkpt lat="43.9219090" lon="-92.2798870">
        <ele>400.0500000</ele>
        <time>2009-05-01T14:55:53Z</time>
      </trkpt>
      <trkpt lat="43.9169310" lon="-92.2729150">
        <ele>397.1600000</ele>
        <time>2009-05-01T14:56:24Z</time>
      </trkpt>
      <trkpt lat="43.9146740" lon="-92.2702670">
        <ele>396.2000000</ele>
        <time>2009-05-01T14:56:37Z</time>
      </trkpt>
      <trkpt lat="43.9117910" lon="-92.2666890">
        <ele>389.4700000</ele>
        <time>2009-05-01T14:56:54Z</time>
      </trkpt>
      <trkpt lat="43.9090550" lon="-92.2624570">
        <ele>382.7400000</ele>
        <time>2009-05-01T14:57:12Z</time>
      </trkpt>
      <trkpt lat="43.9063540" lon="-92.2568650">
        <ele>371.2100000</ele>
        <time>2009-05-01T14:57:33Z</time>
      </trkpt>
      <trkpt lat="43.9036110" lon="-92.2512740">
        <ele>356.7900000</ele>
        <time>2009-05-01T14:57:54Z</time>
      </trkpt>
      <trkpt lat="43.9010140" lon="-92.2471640">
        <ele>349.1000000</ele>
        <time>2009-05-01T14:58:11Z</time>
      </trkpt>
      <trkpt lat="43.9006750" lon="-92.2453380">
        <ele>345.7300000</ele>
        <time>2009-05-01T14:58:17Z</time>
      </trkpt>
      <trkpt lat="43.8995920" lon="-92.2398500">
        <ele>339.0000000</ele>
        <time>2009-05-01T14:58:35Z</time>
      </trkpt>
      <trkpt lat="43.8988710" lon="-92.2384510">
        <ele>337.0800000</ele>
        <time>2009-05-01T14:58:41Z</time>
      </trkpt>
      <trkpt lat="43.8978410" lon="-92.2366600">
        <ele>330.8300000</ele>
        <time>2009-05-01T14:58:52Z</time>
      </trkpt>
      <trkpt lat="43.8968200" lon="-92.2349950">
        <ele>327.4700000</ele>
        <time>2009-05-01T14:59:02Z</time>
      </trkpt>
      <trkpt lat="43.8953730" lon="-92.2326400">
        <ele>326.0200000</ele>
        <time>2009-05-01T14:59:13Z</time>
      </trkpt>
      <trkpt lat="43.8935970" lon="-92.2298970">
        <ele>323.6200000</ele>
        <time>2009-05-01T14:59:25Z</time>
      </trkpt>
      <trkpt lat="43.8922940" lon="-92.2284190">
        <ele>321.7000000</ele>
        <time>2009-05-01T14:59:33Z</time>
      </trkpt>
      <trkpt lat="43.8906000" lon="-92.2275800">
        <ele>319.7800000</ele>
        <time>2009-05-01T14:59:41Z</time>
      </trkpt>
      <trkpt lat="43.8864190" lon="-92.2259360">
        <ele>317.8500000</ele>
        <time>2009-05-01T15:00:00Z</time>
      </trkpt>
      <trkpt lat="43.8839310" lon="-92.2244190">
        <ele>318.3300000</ele>
        <time>2009-05-01T15:00:12Z</time>
      </trkpt>
      <trkpt lat="43.8822270" lon="-92.2223160">
        <ele>317.3700000</ele>
        <time>2009-05-01T15:00:22Z</time>
      </trkpt>
      <trkpt lat="43.8795550" lon="-92.2189370">
        <ele>316.8900000</ele>
        <time>2009-05-01T15:00:38Z</time>
      </trkpt>
      <trkpt lat="43.8768540" lon="-92.2153880">
        <ele>315.9300000</ele>
        <time>2009-05-01T15:00:54Z</time>
      </trkpt>
      <trkpt lat="43.8722300" lon="-92.2087620">
        <ele>316.4100000</ele>
        <time>2009-05-01T15:01:23Z</time>
      </trkpt>
      <trkpt lat="43.8685070" lon="-92.2034380">
        <ele>323.6200000</ele>
        <time>2009-05-01T15:01:46Z</time>
      </trkpt>
      <trkpt lat="43.8644270" lon="-92.1981370">
        <ele>312.5700000</ele>
        <time>2009-05-01T15:02:10Z</time>
      </trkpt>
      <trkpt lat="43.8628780" lon="-92.1967390">
        <ele>309.6800000</ele>
        <time>2009-05-01T15:02:18Z</time>
      </trkpt>
      <trkpt lat="43.8612780" lon="-92.1959320">
        <ele>308.7200000</ele>
        <time>2009-05-01T15:02:26Z</time>
      </trkpt>
      <trkpt lat="43.8592100" lon="-92.1950180">
        <ele>309.2000000</ele>
        <time>2009-05-01T15:02:38Z</time>
      </trkpt>
      <trkpt lat="43.8564990" lon="-92.1937990">
        <ele>306.3200000</ele>
        <time>2009-05-01T15:02:56Z</time>
      </trkpt>
      <trkpt lat="43.8545730" lon="-92.1929250">
        <ele>305.8400000</ele>
        <time>2009-05-01T15:03:10Z</time>
      </trkpt>
      <trkpt lat="43.8530710" lon="-92.1926750">
        <ele>303.9100000</ele>
        <time>2009-05-01T15:03:22Z</time>
      </trkpt>
      <trkpt lat="43.8500650" lon="-92.1925890">
        <ele>300.5500000</ele>
        <time>2009-05-01T15:03:45Z</time>
      </trkpt>
      <trkpt lat="43.8486190" lon="-92.1924540">
        <ele>301.5100000</ele>
        <time>2009-05-01T15:03:57Z</time>
      </trkpt>
      <trkpt lat="43.8485300" lon="-92.1923660">
        <ele>301.9900000</ele>
        <time>2009-05-01T15:03:58Z</time>
      </trkpt>
      <trkpt lat="43.8484430" lon="-92.1922780">
        <ele>302.4700000</ele>
        <time>2009-05-01T15:03:59Z</time>
      </trkpt>
      <trkpt lat="43.8483550" lon="-92.1921900">
        <ele>302.9500000</ele>
        <time>2009-05-01T15:04:00Z</time>
      </trkpt>
      <trkpt lat="43.8482680" lon="-92.1921030">
        <ele>303.9100000</ele>
        <time>2009-05-01T15:04:01Z</time>
      </trkpt>
      <trkpt lat="43.8481820" lon="-92.1920170">
        <ele>304.3900000</ele>
        <time>2009-05-01T15:04:02Z</time>
      </trkpt>
      <trkpt lat="43.8472970" lon="-92.1910070">
        <ele>310.6400000</ele>
        <time>2009-05-01T15:04:14Z</time>
      </trkpt>
      <trkpt lat="43.8461130" lon="-92.1895490">
        <ele>312.5700000</ele>
        <time>2009-05-01T15:04:32Z</time>
      </trkpt>
      <trkpt lat="43.8455340" lon="-92.1888400">
        <ele>314.0100000</ele>
        <time>2009-05-01T15:04:45Z</time>
      </trkpt>
      <trkpt lat="43.8452130" lon="-92.1884690">
        <ele>314.9700000</ele>
        <time>2009-05-01T15:04:55Z</time>
      </trkpt>
      <trkpt lat="43.8452130" lon="-92.1884690">
        <ele>318.3300000</ele>
        <time>2009-05-01T15:05:14Z</time>
      </trkpt>
      <trkpt lat="43.8449290" lon="-92.1881400">
        <ele>317.8500000</ele>
        <time>2009-05-01T15:05:25Z</time>
      </trkpt>
      <trkpt lat="43.8442190" lon="-92.1873070">
        <ele>315.9300000</ele>
        <time>2009-05-01T15:05:35Z</time>
      </trkpt>
      <trkpt lat="43.8425330" lon="-92.1852840">
        <ele>314.0100000</ele>
        <time>2009-05-01T15:05:55Z</time>
      </trkpt>
      <trkpt lat="43.8410090" lon="-92.1834110">
        <ele>312.5700000</ele>
        <time>2009-05-01T15:06:12Z</time>
      </trkpt>
      <trkpt lat="43.8390120" lon="-92.1808730">
        <ele>311.6000000</ele>
        <time>2009-05-01T15:06:33Z</time>
      </trkpt>
      <trkpt lat="43.8385400" lon="-92.1793710">
        <ele>312.5700000</ele>
        <time>2009-05-01T15:06:41Z</time>
      </trkpt>
      <trkpt lat="43.8384200" lon="-92.1773340">
        <ele>316.8900000</ele>
        <time>2009-05-01T15:06:49Z</time>
      </trkpt>
      <trkpt lat="43.8380370" lon="-92.1741540">
        <ele>315.9300000</ele>
        <time>2009-05-01T15:07:02Z</time>
      </trkpt>
      <trkpt lat="43.8373180" lon="-92.1724970">
        <ele>313.0500000</ele>
        <time>2009-05-01T15:07:09Z</time>
      </trkpt>
      <trkpt lat="43.8354040" lon="-92.1689000">
        <ele>319.7800000</ele>
        <time>2009-05-01T15:07:25Z</time>
      </trkpt>
      <trkpt lat="43.8335100" lon="-92.1648920">
        <ele>322.1800000</ele>
        <time>2009-05-01T15:07:43Z</time>
      </trkpt>
      <trkpt lat="43.8332610" lon="-92.1628990">
        <ele>324.1000000</ele>
        <time>2009-05-01T15:07:51Z</time>
      </trkpt>
      <trkpt lat="43.8332390" lon="-92.1588260">
        <ele>328.9100000</ele>
        <time>2009-05-01T15:08:06Z</time>
      </trkpt>
      <trkpt lat="43.8329540" lon="-92.1564770">
        <ele>332.7500000</ele>
        <time>2009-05-01T15:08:14Z</time>
      </trkpt>
      <trkpt lat="43.8321020" lon="-92.1542940">
        <ele>333.2300000</ele>
        <time>2009-05-01T15:08:22Z</time>
      </trkpt>
      <trkpt lat="43.8300970" lon="-92.1495780">
        <ele>319.3000000</ele>
        <time>2009-05-01T15:08:39Z</time>
      </trkpt>
      <trkpt lat="43.8278230" lon="-92.1441070">
        <ele>306.3200000</ele>
        <time>2009-05-01T15:08:59Z</time>
      </trkpt>
      <trkpt lat="43.8267300" lon="-92.1428850">
        <ele>305.3600000</ele>
        <time>2009-05-01T15:09:06Z</time>
      </trkpt>
      <trkpt lat="43.8252690" lon="-92.1422530">
        <ele>302.9500000</ele>
        <time>2009-05-01T15:09:14Z</time>
      </trkpt>
      <trkpt lat="43.8235540" lon="-92.1420370">
        <ele>297.6700000</ele>
        <time>2009-05-01T15:09:22Z</time>
      </trkpt>
      <trkpt lat="43.8220770" lon="-92.1414020">
        <ele>294.3000000</ele>
        <time>2009-05-01T15:09:29Z</time>
      </trkpt>
      <trkpt lat="43.8205460" lon="-92.1400330">
        <ele>291.9000000</ele>
        <time>2009-05-01T15:09:37Z</time>
      </trkpt>
      <trkpt lat="43.8190790" lon="-92.1395500">
        <ele>289.9700000</ele>
        <time>2009-05-01T15:09:44Z</time>
      </trkpt>
      <trkpt lat="43.8172940" lon="-92.1397610">
        <ele>288.0500000</ele>
        <time>2009-05-01T15:09:52Z</time>
      </trkpt>
      <trkpt lat="43.8145650" lon="-92.1398800">
        <ele>285.6500000</ele>
        <time>2009-05-01T15:10:04Z</time>
      </trkpt>
      <trkpt lat="43.8125750" lon="-92.1391160">
        <ele>288.5300000</ele>
        <time>2009-05-01T15:10:13Z</time>
      </trkpt>
      <trkpt lat="43.8108070" lon="-92.1376890">
        <ele>297.6700000</ele>
        <time>2009-05-01T15:10:22Z</time>
      </trkpt>
      <trkpt lat="43.8093250" lon="-92.1360750">
        <ele>307.2800000</ele>
        <time>2009-05-01T15:10:31Z</time>
      </trkpt>
      <trkpt lat="43.8089740" lon="-92.1358990">
        <ele>309.6800000</ele>
        <time>2009-05-01T15:10:33Z</time>
      </trkpt>
      <trkpt lat="43.8088010" lon="-92.1358120">
        <ele>310.6400000</ele>
        <time>2009-05-01T15:10:34Z</time>
      </trkpt>
      <trkpt lat="43.8068160" lon="-92.1351450">
        <ele>319.3000000</ele>
        <time>2009-05-01T15:10:45Z</time>
      </trkpt>
      <trkpt lat="43.8053230" lon="-92.1337880">
        <ele>319.7800000</ele>
        <time>2009-05-01T15:10:54Z</time>
      </trkpt>
      <trkpt lat="43.8046280" lon="-92.1325290">
        <ele>319.3000000</ele>
        <time>2009-05-01T15:11:00Z</time>
      </trkpt>
      <trkpt lat="43.8035040" lon="-92.1299010">
        <ele>318.8100000</ele>
        <time>2009-05-01T15:11:11Z</time>
      </trkpt>
      <trkpt lat="43.8025600" lon="-92.1290380">
        <ele>318.8100000</ele>
        <time>2009-05-01T15:11:17Z</time>
      </trkpt>
      <trkpt lat="43.8014360" lon="-92.1288200">
        <ele>317.8500000</ele>
        <time>2009-05-01T15:11:23Z</time>
      </trkpt>
      <trkpt lat="43.7984480" lon="-92.1290660">
        <ele>315.4500000</ele>
        <time>2009-05-01T15:11:38Z</time>
      </trkpt>
      <trkpt lat="43.7972560" lon="-92.1300500">
        <ele>312.0900000</ele>
        <time>2009-05-01T15:11:45Z</time>
      </trkpt>
      <trkpt lat="43.7957420" lon="-92.1318690">
        <ele>301.5100000</ele>
        <time>2009-05-01T15:11:55Z</time>
      </trkpt>
      <trkpt lat="43.7944130" lon="-92.1325390">
        <ele>298.1500000</ele>
        <time>2009-05-01T15:12:02Z</time>
      </trkpt>
      <trkpt lat="43.7910330" lon="-92.1337310">
        <ele>304.3900000</ele>
        <time>2009-05-01T15:12:18Z</time>
      </trkpt>
      <trkpt lat="43.7896490" lon="-92.1336090">
        <ele>312.0900000</ele>
        <time>2009-05-01T15:12:25Z</time>
      </trkpt>
      <trkpt lat="43.7860250" lon="-92.1328820">
        <ele>333.2300000</ele>
        <time>2009-05-01T15:12:44Z</time>
      </trkpt>
      <trkpt lat="43.7848500" lon="-92.1325210">
        <ele>340.4400000</ele>
        <time>2009-05-01T15:12:51Z</time>
      </trkpt>
      <trkpt lat="43.7846860" lon="-92.1325370">
        <ele>341.4100000</ele>
        <time>2009-05-01T15:12:52Z</time>
      </trkpt>
      <trkpt lat="43.7845290" lon="-92.1325610">
        <ele>342.3700000</ele>
        <time>2009-05-01T15:12:53Z</time>
      </trkpt>
      <trkpt lat="43.7843720" lon="-92.1326300">
        <ele>343.3300000</ele>
        <time>2009-05-01T15:12:54Z</time>
      </trkpt>
      <trkpt lat="43.7842140" lon="-92.1327010">
        <ele>343.8100000</ele>
        <time>2009-05-01T15:12:55Z</time>
      </trkpt>
      <trkpt lat="43.7827140" lon="-92.1330890">
        <ele>351.9800000</ele>
        <time>2009-05-01T15:13:04Z</time>
      </trkpt>
      <trkpt lat="43.7815450" lon="-92.1325480">
        <ele>357.2700000</ele>
        <time>2009-05-01T15:13:11Z</time>
      </trkpt>
      <trkpt lat="43.7803630" lon="-92.1312480">
        <ele>363.5200000</ele>
        <time>2009-05-01T15:13:19Z</time>
      </trkpt>
      <trkpt lat="43.7790860" lon="-92.1305260">
        <ele>369.7600000</ele>
        <time>2009-05-01T15:13:26Z</time>
      </trkpt>
      <trkpt lat="43.7778940" lon="-92.1305780">
        <ele>373.6100000</ele>
        <time>2009-05-01T15:13:32Z</time>
      </trkpt>
      <trkpt lat="43.7752080" lon="-92.1315200">
        <ele>378.4200000</ele>
        <time>2009-05-01T15:13:45Z</time>
      </trkpt>
      <trkpt lat="43.7713780" lon="-92.1328680">
        <ele>380.3400000</ele>
        <time>2009-05-01T15:14:04Z</time>
      </trkpt>
      <trkpt lat="43.7676640" lon="-92.1340570">
        <ele>381.7800000</ele>
        <time>2009-05-01T15:14:21Z</time>
      </trkpt>
      <trkpt lat="43.7655380" lon="-92.1341490">
        <ele>382.2600000</ele>
        <time>2009-05-01T15:14:31Z</time>
      </trkpt>
      <trkpt lat="43.7608810" lon="-92.1341810">
        <ele>387.5500000</ele>
        <time>2009-05-01T15:14:52Z</time>
      </trkpt>
      <trkpt lat="43.7548470" lon="-92.1342000">
        <ele>393.3200000</ele>
        <time>2009-05-01T15:15:19Z</time>
      </trkpt>
      <trkpt lat="43.7505080" lon="-92.1342140">
        <ele>389.4700000</ele>
        <time>2009-05-01T15:15:39Z</time>
      </trkpt>
      <trkpt lat="43.7485340" lon="-92.1342200">
        <ele>389.9500000</ele>
        <time>2009-05-01T15:15:50Z</time>
      </trkpt>
      <trkpt lat="43.7457850" lon="-92.1344670">
        <ele>392.8400000</ele>
        <time>2009-05-01T15:16:07Z</time>
      </trkpt>
      <trkpt lat="43.7447070" lon="-92.1354410">
        <ele>392.8400000</ele>
        <time>2009-05-01T15:16:15Z</time>
      </trkpt>
      <trkpt lat="43.7432240" lon="-92.1375240">
        <ele>395.7200000</ele>
        <time>2009-05-01T15:16:27Z</time>
      </trkpt>
      <trkpt lat="43.7419770" lon="-92.1389100">
        <ele>397.6400000</ele>
        <time>2009-05-01T15:16:36Z</time>
      </trkpt>
      <trkpt lat="43.7408470" lon="-92.1392880">
        <ele>398.1200000</ele>
        <time>2009-05-01T15:16:43Z</time>
      </trkpt>
      <trkpt lat="43.7385680" lon="-92.1392880">
        <ele>399.5700000</ele>
        <time>2009-05-01T15:16:55Z</time>
      </trkpt>
      <trkpt lat="43.7352660" lon="-92.1390100">
        <ele>392.8400000</ele>
        <time>2009-05-01T15:17:12Z</time>
      </trkpt>
      <trkpt lat="43.7337830" lon="-92.1380860">
        <ele>385.6300000</ele>
        <time>2009-05-01T15:17:20Z</time>
      </trkpt>
      <trkpt lat="43.7323510" lon="-92.1365830">
        <ele>377.9400000</ele>
        <time>2009-05-01T15:17:28Z</time>
      </trkpt>
      <trkpt lat="43.7293070" lon="-92.1333320">
        <ele>363.5200000</ele>
        <time>2009-05-01T15:17:44Z</time>
      </trkpt>
      <trkpt lat="43.7260780" lon="-92.1294090">
        <ele>349.1000000</ele>
        <time>2009-05-01T15:18:02Z</time>
      </trkpt>
      <trkpt lat="43.7242220" lon="-92.1279270">
        <ele>343.3300000</ele>
        <time>2009-05-01T15:18:11Z</time>
      </trkpt>
      <trkpt lat="43.7199690" lon="-92.1250150">
        <ele>337.5600000</ele>
        <time>2009-05-01T15:18:31Z</time>
      </trkpt>
      <trkpt lat="43.7170670" lon="-92.1222140">
        <ele>333.7100000</ele>
        <time>2009-05-01T15:18:46Z</time>
      </trkpt>
      <trkpt lat="43.7122790" lon="-92.1174230">
        <ele>332.2700000</ele>
        <time>2009-05-01T15:19:11Z</time>
      </trkpt>
      <trkpt lat="43.7106580" lon="-92.1150230">
        <ele>330.3500000</ele>
        <time>2009-05-01T15:19:21Z</time>
      </trkpt>
      <trkpt lat="43.7078810" lon="-92.1110290">
        <ele>332.7500000</ele>
        <time>2009-05-01T15:19:38Z</time>
      </trkpt>
      <trkpt lat="43.7029210" lon="-92.1055320">
        <ele>340.4400000</ele>
        <time>2009-05-01T15:20:05Z</time>
      </trkpt>
      <trkpt lat="43.7010300" lon="-92.1035930">
        <ele>337.5600000</ele>
        <time>2009-05-01T15:20:15Z</time>
      </trkpt>
      <trkpt lat="43.6978150" lon="-92.1015860">
        <ele>319.7800000</ele>
        <time>2009-05-01T15:20:30Z</time>
      </trkpt>
      <trkpt lat="43.6913840" lon="-92.0986250">
        <ele>330.3500000</ele>
        <time>2009-05-01T15:20:59Z</time>
      </trkpt>
      <trkpt lat="43.6872810" lon="-92.0961600">
        <ele>342.8500000</ele>
        <time>2009-05-01T15:21:18Z</time>
      </trkpt>
      <trkpt lat="43.6859980" lon="-92.0943850">
        <ele>343.8100000</ele>
        <time>2009-05-01T15:21:26Z</time>
      </trkpt>
      <trkpt lat="43.6846960" lon="-92.0924660">
        <ele>343.3300000</ele>
        <time>2009-05-01T15:21:36Z</time>
      </trkpt>
      <trkpt lat="43.6834740" lon="-92.0913590">
        <ele>342.3700000</ele>
        <time>2009-05-01T15:21:44Z</time>
      </trkpt>
      <trkpt lat="43.6822420" lon="-92.0911390">
        <ele>339.4800000</ele>
        <time>2009-05-01T15:21:51Z</time>
      </trkpt>
      <trkpt lat="43.6807190" lon="-92.0911940">
        <ele>332.2700000</ele>
        <time>2009-05-01T15:21:59Z</time>
      </trkpt>
      <trkpt lat="43.6794840" lon="-92.0905310">
        <ele>323.6200000</ele>
        <time>2009-05-01T15:22:06Z</time>
      </trkpt>
      <trkpt lat="43.6782780" lon="-92.0889660">
        <ele>313.5300000</ele>
        <time>2009-05-01T15:22:15Z</time>
      </trkpt>
      <trkpt lat="43.6769910" lon="-92.0872690">
        <ele>304.8800000</ele>
        <time>2009-05-01T15:22:26Z</time>
      </trkpt>
      <trkpt lat="43.6758020" lon="-92.0855190">
        <ele>302.4700000</ele>
        <time>2009-05-01T15:22:39Z</time>
      </trkpt>
      <trkpt lat="43.6755450" lon="-92.0842190">
        <ele>302.4700000</ele>
        <time>2009-05-01T15:22:47Z</time>
      </trkpt>
      <trkpt lat="43.6753740" lon="-92.0818940">
        <ele>309.2000000</ele>
        <time>2009-05-01T15:22:57Z</time>
      </trkpt>
      <trkpt lat="43.6748060" lon="-92.0789760">
        <ele>317.8500000</ele>
        <time>2009-05-01T15:23:09Z</time>
      </trkpt>
      <trkpt lat="43.6740460" lon="-92.0765930">
        <ele>319.3000000</ele>
        <time>2009-05-01T15:23:18Z</time>
      </trkpt>
      <trkpt lat="43.6737040" lon="-92.0733570">
        <ele>318.3300000</ele>
        <time>2009-05-01T15:23:28Z</time>
      </trkpt>
      <trkpt lat="43.6730070" lon="-92.0672050">
        <ele>303.4300000</ele>
        <time>2009-05-01T15:23:47Z</time>
      </trkpt>
      <trkpt lat="43.6723580" lon="-92.0654460">
        <ele>298.1500000</ele>
        <time>2009-05-01T15:23:53Z</time>
      </trkpt>
      <trkpt lat="43.6712160" lon="-92.0637840">
        <ele>296.2200000</ele>
        <time>2009-05-01T15:24:00Z</time>
      </trkpt>
      <trkpt lat="43.6683520" lon="-92.0594090">
        <ele>314.0100000</ele>
        <time>2009-05-01T15:24:18Z</time>
      </trkpt>
      <trkpt lat="43.6675630" lon="-92.0570020">
        <ele>326.0200000</ele>
        <time>2009-05-01T15:24:26Z</time>
      </trkpt>
      <trkpt lat="43.6664160" lon="-92.0516270">
        <ele>339.4800000</ele>
        <time>2009-05-01T15:24:43Z</time>
      </trkpt>
      <trkpt lat="43.6664060" lon="-92.0483460">
        <ele>349.1000000</ele>
        <time>2009-05-01T15:24:53Z</time>
      </trkpt>
      <trkpt lat="43.6662360" lon="-92.0421140">
        <ele>368.8000000</ele>
        <time>2009-05-01T15:25:12Z</time>
      </trkpt>
      <trkpt lat="43.6656010" lon="-92.0399920">
        <ele>369.2800000</ele>
        <time>2009-05-01T15:25:19Z</time>
      </trkpt>
      <trkpt lat="43.6637340" lon="-92.0357920">
        <ele>368.3200000</ele>
        <time>2009-05-01T15:25:34Z</time>
      </trkpt>
      <trkpt lat="43.6631550" lon="-92.0345110">
        <ele>369.2800000</ele>
        <time>2009-05-01T15:25:40Z</time>
      </trkpt>
      <trkpt lat="43.6629670" lon="-92.0340980">
        <ele>369.7600000</ele>
        <time>2009-05-01T15:25:43Z</time>
      </trkpt>
      <trkpt lat="43.6629370" lon="-92.0340310">
        <ele>369.7600000</ele>
        <time>2009-05-01T15:25:44Z</time>
      </trkpt>
      <trkpt lat="43.6635200" lon="-92.0339220">
        <ele>370.2400000</ele>
        <time>2009-05-01T15:25:45Z</time>
      </trkpt>
      <trkpt lat="43.6635240" lon="-92.0338230">
        <ele>370.2400000</ele>
        <time>2009-05-01T15:25:46Z</time>
      </trkpt>
      <trkpt lat="43.6633080" lon="-92.0338290">
        <ele>370.7300000</ele>
        <time>2009-05-01T15:25:47Z</time>
      </trkpt>
      <trkpt lat="43.6634370" lon="-92.0337400">
        <ele>371.2100000</ele>
        <time>2009-05-01T15:25:48Z</time>
      </trkpt>
      <trkpt lat="43.6635310" lon="-92.0336730">
        <ele>372.1700000</ele>
        <time>2009-05-01T15:25:49Z</time>
      </trkpt>
      <trkpt lat="43.6636380" lon="-92.0333070">
        <ele>373.1300000</ele>
        <time>2009-05-01T15:25:50Z</time>
      </trkpt>
      <trkpt lat="43.6636950" lon="-92.0331100">
        <ele>374.0900000</ele>
        <time>2009-05-01T15:25:51Z</time>
      </trkpt>
      <trkpt lat="43.6637550" lon="-92.0329040">
        <ele>375.0500000</ele>
        <time>2009-05-01T15:25:52Z</time>
      </trkpt>
      <trkpt lat="43.6638180" lon="-92.0326890">
        <ele>376.0100000</ele>
        <time>2009-05-01T15:25:53Z</time>
      </trkpt>
      <trkpt lat="43.6647550" lon="-92.0302640">
        <ele>378.4200000</ele>
        <time>2009-05-01T15:26:04Z</time>
      </trkpt>
      <trkpt lat="43.6656450" lon="-92.0284710">
        <ele>380.3400000</ele>
        <time>2009-05-01T15:26:14Z</time>
      </trkpt>
      <trkpt lat="43.6657760" lon="-92.0283560">
        <ele>380.8200000</ele>
        <time>2009-05-01T15:26:15Z</time>
      </trkpt>
      <trkpt lat="43.6659090" lon="-92.0282400">
        <ele>381.3000000</ele>
        <time>2009-05-01T15:26:16Z</time>
      </trkpt>
      <trkpt lat="43.6660420" lon="-92.0281390">
        <ele>381.3000000</ele>
        <time>2009-05-01T15:26:17Z</time>
      </trkpt>
      <trkpt lat="43.6661870" lon="-92.0280490">
        <ele>381.7800000</ele>
        <time>2009-05-01T15:26:18Z</time>
      </trkpt>
      <trkpt lat="43.6663270" lon="-92.0279640">
        <ele>382.2600000</ele>
        <time>2009-05-01T15:26:19Z</time>
      </trkpt>
      <trkpt lat="43.6664870" lon="-92.0279290">
        <ele>382.2600000</ele>
        <time>2009-05-01T15:26:20Z</time>
      </trkpt>
      <trkpt lat="43.6666500" lon="-92.0278930">
        <ele>382.2600000</ele>
        <time>2009-05-01T15:26:21Z</time>
      </trkpt>
      <trkpt lat="43.6684940" lon="-92.0274870">
        <ele>386.1100000</ele>
        <time>2009-05-01T15:26:31Z</time>
      </trkpt>
      <trkpt lat="43.6711120" lon="-92.0268140">
        <ele>394.7600000</ele>
        <time>2009-05-01T15:26:45Z</time>
      </trkpt>
      <trkpt lat="43.6724820" lon="-92.0258880">
        <ele>392.3600000</ele>
        <time>2009-05-01T15:26:53Z</time>
      </trkpt>
      <trkpt lat="43.6737540" lon="-92.0243430">
        <ele>393.8000000</ele>
        <time>2009-05-01T15:27:02Z</time>
      </trkpt>
      <trkpt lat="43.6758120" lon="-92.0215140">
        <ele>390.9100000</ele>
        <time>2009-05-01T15:27:16Z</time>
      </trkpt>
      <trkpt lat="43.6790870" lon="-92.0170140">
        <ele>395.2400000</ele>
        <time>2009-05-01T15:27:38Z</time>
      </trkpt>
      <trkpt lat="43.6812900" lon="-92.0137890">
        <ele>390.4300000</ele>
        <time>2009-05-01T15:27:54Z</time>
      </trkpt>
      <trkpt lat="43.6831330" lon="-92.0105590">
        <ele>388.5100000</ele>
        <time>2009-05-01T15:28:09Z</time>
      </trkpt>
      <trkpt lat="43.6865060" lon="-92.0046190">
        <ele>391.3900000</ele>
        <time>2009-05-01T15:28:35Z</time>
      </trkpt>
      <trkpt lat="43.6884530" lon="-92.0016750">
        <ele>389.4700000</ele>
        <time>2009-05-01T15:28:48Z</time>
      </trkpt>
      <trkpt lat="43.6901350" lon="-92.0004500">
        <ele>387.5500000</ele>
        <time>2009-05-01T15:28:57Z</time>
      </trkpt>
      <trkpt lat="43.6927500" lon="-91.9986470">
        <ele>372.6500000</ele>
        <time>2009-05-01T15:29:12Z</time>
      </trkpt>
      <trkpt lat="43.6935350" lon="-91.9979880">
        <ele>367.8400000</ele>
        <time>2009-05-01T15:29:18Z</time>
      </trkpt>
      <trkpt lat="43.6936220" lon="-91.9978530">
        <ele>366.8800000</ele>
        <time>2009-05-01T15:29:19Z</time>
      </trkpt>
      <trkpt lat="43.6936740" lon="-91.9976660">
        <ele>365.9200000</ele>
        <time>2009-05-01T15:29:20Z</time>
      </trkpt>
      <trkpt lat="43.6937260" lon="-91.9974740">
        <ele>364.9600000</ele>
        <time>2009-05-01T15:29:21Z</time>
      </trkpt>
      <trkpt lat="43.6937580" lon="-91.9972900">
        <ele>364.0000000</ele>
        <time>2009-05-01T15:29:22Z</time>
      </trkpt>
      <trkpt lat="43.6937830" lon="-91.9970920">
        <ele>363.0400000</ele>
        <time>2009-05-01T15:29:23Z</time>
      </trkpt>
      <trkpt lat="43.6937730" lon="-91.9969120">
        <ele>362.0700000</ele>
        <time>2009-05-01T15:29:24Z</time>
      </trkpt>
      <trkpt lat="43.6937580" lon="-91.9967230">
        <ele>361.1100000</ele>
        <time>2009-05-01T15:29:25Z</time>
      </trkpt>
      <trkpt lat="43.6937000" lon="-91.9956450">
        <ele>355.8300000</ele>
        <time>2009-05-01T15:29:31Z</time>
      </trkpt>
      <trkpt lat="43.6937190" lon="-91.9954700">
        <ele>354.8600000</ele>
        <time>2009-05-01T15:29:32Z</time>
      </trkpt>
      <trkpt lat="43.6937750" lon="-91.9953170">
        <ele>354.3800000</ele>
        <time>2009-05-01T15:29:33Z</time>
      </trkpt>
      <trkpt lat="43.6938310" lon="-91.9951620">
        <ele>353.4200000</ele>
        <time>2009-05-01T15:29:34Z</time>
      </trkpt>
      <trkpt lat="43.6938970" lon="-91.9950240">
        <ele>352.9400000</ele>
        <time>2009-05-01T15:29:35Z</time>
      </trkpt>
      <trkpt lat="43.6939990" lon="-91.9949220">
        <ele>352.4600000</ele>
        <time>2009-05-01T15:29:36Z</time>
      </trkpt>
      <trkpt lat="43.6941080" lon="-91.9948560">
        <ele>351.9800000</ele>
        <time>2009-05-01T15:29:37Z</time>
      </trkpt>
      <trkpt lat="43.6942300" lon="-91.9948160">
        <ele>351.5000000</ele>
        <time>2009-05-01T15:29:38Z</time>
      </trkpt>
      <trkpt lat="43.6943450" lon="-91.9948010">
        <ele>350.5400000</ele>
        <time>2009-05-01T15:29:39Z</time>
      </trkpt>
      <trkpt lat="43.6944680" lon="-91.9948260">
        <ele>350.0600000</ele>
        <time>2009-05-01T15:29:40Z</time>
      </trkpt>
      <trkpt lat="43.6945790" lon="-91.9948730">
        <ele>349.5800000</ele>
        <time>2009-05-01T15:29:41Z</time>
      </trkpt>
      <trkpt lat="43.6946990" lon="-91.9949450">
        <ele>348.6200000</ele>
        <time>2009-05-01T15:29:42Z</time>
      </trkpt>
      <trkpt lat="43.6947810" lon="-91.9950440">
        <ele>347.6500000</ele>
        <time>2009-05-01T15:29:43Z</time>
      </trkpt>
      <trkpt lat="43.6948650" lon="-91.9951790">
        <ele>346.2100000</ele>
        <time>2009-05-01T15:29:44Z</time>
      </trkpt>
      <trkpt lat="43.6949450" lon="-91.9953070">
        <ele>345.2500000</ele>
        <time>2009-05-01T15:29:45Z</time>
      </trkpt>
      <trkpt lat="43.6949690" lon="-91.9954620">
        <ele>343.8100000</ele>
        <time>2009-05-01T15:29:46Z</time>
      </trkpt>
      <trkpt lat="43.6949950" lon="-91.9956330">
        <ele>342.3700000</ele>
        <time>2009-05-01T15:29:47Z</time>
      </trkpt>
      <trkpt lat="43.6950220" lon="-91.9958100">
        <ele>340.9200000</ele>
        <time>2009-05-01T15:29:48Z</time>
      </trkpt>
      <trkpt lat="43.6950410" lon="-91.9959880">
        <ele>339.9600000</ele>
        <time>2009-05-01T15:29:49Z</time>
      </trkpt>
      <trkpt lat="43.6950580" lon="-91.9961840">
        <ele>338.5200000</ele>
        <time>2009-05-01T15:29:50Z</time>
      </trkpt>
      <trkpt lat="43.6952510" lon="-91.9980280">
        <ele>329.3900000</ele>
        <time>2009-05-01T15:29:59Z</time>
      </trkpt>
      <trkpt lat="43.6953130" lon="-91.9982150">
        <ele>328.4300000</ele>
        <time>2009-05-01T15:30:00Z</time>
      </trkpt>
      <trkpt lat="43.6954000" lon="-91.9983720">
        <ele>327.4700000</ele>
        <time>2009-05-01T15:30:01Z</time>
      </trkpt>
      <trkpt lat="43.6954960" lon="-91.9985160">
        <ele>326.9900000</ele>
        <time>2009-05-01T15:30:02Z</time>
      </trkpt>
      <trkpt lat="43.6956240" lon="-91.9985870">
        <ele>326.0200000</ele>
        <time>2009-05-01T15:30:03Z</time>
      </trkpt>
      <trkpt lat="43.6957550" lon="-91.9986520">
        <ele>324.5800000</ele>
        <time>2009-05-01T15:30:04Z</time>
      </trkpt>
      <trkpt lat="43.6958900" lon="-91.9986360">
        <ele>323.6200000</ele>
        <time>2009-05-01T15:30:05Z</time>
      </trkpt>
      <trkpt lat="43.6960290" lon="-91.9986160">
        <ele>323.1400000</ele>
        <time>2009-05-01T15:30:06Z</time>
      </trkpt>
      <trkpt lat="43.6961540" lon="-91.9985650">
        <ele>322.1800000</ele>
        <time>2009-05-01T15:30:07Z</time>
      </trkpt>
      <trkpt lat="43.6962850" lon="-91.9984990">
        <ele>321.7000000</ele>
        <time>2009-05-01T15:30:08Z</time>
      </trkpt>
      <trkpt lat="43.6963970" lon="-91.9984040">
        <ele>320.7400000</ele>
        <time>2009-05-01T15:30:09Z</time>
      </trkpt>
      <trkpt lat="43.6965070" lon="-91.9982930">
        <ele>319.7800000</ele>
        <time>2009-05-01T15:30:10Z</time>
      </trkpt>
      <trkpt lat="43.6979290" lon="-91.9971590">
        <ele>310.1600000</ele>
        <time>2009-05-01T15:30:21Z</time>
      </trkpt>
      <trkpt lat="43.6994270" lon="-91.9967420">
        <ele>304.8800000</ele>
        <time>2009-05-01T15:30:30Z</time>
      </trkpt>
      <trkpt lat="43.7013950" lon="-91.9960410">
        <ele>293.8200000</ele>
        <time>2009-05-01T15:30:42Z</time>
      </trkpt>
      <trkpt lat="43.7023520" lon="-91.9947730">
        <ele>286.1300000</ele>
        <time>2009-05-01T15:30:50Z</time>
      </trkpt>
      <trkpt lat="43.7033420" lon="-91.9925020">
        <ele>277.4800000</ele>
        <time>2009-05-01T15:31:01Z</time>
      </trkpt>
      <trkpt lat="43.7033780" lon="-91.9922570">
        <ele>276.5200000</ele>
        <time>2009-05-01T15:31:02Z</time>
      </trkpt>
      <trkpt lat="43.7034150" lon="-91.9920100">
        <ele>275.5600000</ele>
        <time>2009-05-01T15:31:03Z</time>
      </trkpt>
      <trkpt lat="43.7034420" lon="-91.9917700">
        <ele>275.0700000</ele>
        <time>2009-05-01T15:31:04Z</time>
      </trkpt>
      <trkpt lat="43.7034420" lon="-91.9915210">
        <ele>274.1100000</ele>
        <time>2009-05-01T15:31:05Z</time>
      </trkpt>
      <trkpt lat="43.7034420" lon="-91.9912740">
        <ele>273.6300000</ele>
        <time>2009-05-01T15:31:06Z</time>
      </trkpt>
      <trkpt lat="43.7036930" lon="-91.9886430">
        <ele>271.2300000</ele>
        <time>2009-05-01T15:31:17Z</time>
      </trkpt>
      <trkpt lat="43.7045460" lon="-91.9869280">
        <ele>270.7500000</ele>
        <time>2009-05-01T15:31:25Z</time>
      </trkpt>
      <trkpt lat="43.7062760" lon="-91.9837510">
        <ele>273.1500000</ele>
        <time>2009-05-01T15:31:40Z</time>
      </trkpt>
      <trkpt lat="43.7069250" lon="-91.9828980">
        <ele>275.5600000</ele>
        <time>2009-05-01T15:31:45Z</time>
      </trkpt>
      <trkpt lat="43.7070630" lon="-91.9827650">
        <ele>276.0400000</ele>
        <time>2009-05-01T15:31:46Z</time>
      </trkpt>
      <trkpt lat="43.7072200" lon="-91.9826600">
        <ele>275.5600000</ele>
        <time>2009-05-01T15:31:47Z</time>
      </trkpt>
      <trkpt lat="43.7073720" lon="-91.9825750">
        <ele>275.5600000</ele>
        <time>2009-05-01T15:31:48Z</time>
      </trkpt>
      <trkpt lat="43.7075300" lon="-91.9825070">
        <ele>275.5600000</ele>
        <time>2009-05-01T15:31:49Z</time>
      </trkpt>
      <trkpt lat="43.7076810" lon="-91.9824730">
        <ele>275.5600000</ele>
        <time>2009-05-01T15:31:50Z</time>
      </trkpt>
      <trkpt lat="43.7078460" lon="-91.9824680">
        <ele>275.5600000</ele>
        <time>2009-05-01T15:31:51Z</time>
      </trkpt>
      <trkpt lat="43.7080170" lon="-91.9824630">
        <ele>275.0700000</ele>
        <time>2009-05-01T15:31:52Z</time>
      </trkpt>
      <trkpt lat="43.7081910" lon="-91.9824580">
        <ele>274.5900000</ele>
        <time>2009-05-01T15:31:53Z</time>
      </trkpt>
      <trkpt lat="43.7090870" lon="-91.9824170">
        <ele>271.7100000</ele>
        <time>2009-05-01T15:31:58Z</time>
      </trkpt>
      <trkpt lat="43.7092430" lon="-91.9823130">
        <ele>271.7100000</ele>
        <time>2009-05-01T15:31:59Z</time>
      </trkpt>
      <trkpt lat="43.7093940" lon="-91.9822030">
        <ele>271.2300000</ele>
        <time>2009-05-01T15:32:00Z</time>
      </trkpt>
      <trkpt lat="43.7095420" lon="-91.9820840">
        <ele>270.7500000</ele>
        <time>2009-05-01T15:32:01Z</time>
      </trkpt>
      <trkpt lat="43.7096910" lon="-91.9819650">
        <ele>271.2300000</ele>
        <time>2009-05-01T15:32:02Z</time>
      </trkpt>
      <trkpt lat="43.7098330" lon="-91.9818430">
        <ele>270.7500000</ele>
        <time>2009-05-01T15:32:03Z</time>
      </trkpt>
      <trkpt lat="43.7106470" lon="-91.9811070">
        <ele>272.1900000</ele>
        <time>2009-05-01T15:32:09Z</time>
      </trkpt>
      <trkpt lat="43.7108070" lon="-91.9810800">
        <ele>273.1500000</ele>
        <time>2009-05-01T15:32:10Z</time>
      </trkpt>
      <trkpt lat="43.7109520" lon="-91.9810590">
        <ele>273.6300000</ele>
        <time>2009-05-01T15:32:11Z</time>
      </trkpt>
      <trkpt lat="43.7110940" lon="-91.9810970">
        <ele>273.6300000</ele>
        <time>2009-05-01T15:32:12Z</time>
      </trkpt>
      <trkpt lat="43.7112360" lon="-91.9811360">
        <ele>273.6300000</ele>
        <time>2009-05-01T15:32:13Z</time>
      </trkpt>
      <trkpt lat="43.7113770" lon="-91.9811740">
        <ele>274.1100000</ele>
        <time>2009-05-01T15:32:14Z</time>
      </trkpt>
      <trkpt lat="43.7115170" lon="-91.9812110">
        <ele>273.6300000</ele>
        <time>2009-05-01T15:32:15Z</time>
      </trkpt>
      <trkpt lat="43.7129340" lon="-91.9813410">
        <ele>273.1500000</ele>
        <time>2009-05-01T15:32:25Z</time>
      </trkpt>
      <trkpt lat="43.7135590" lon="-91.9812780">
        <ele>275.0700000</ele>
        <time>2009-05-01T15:32:30Z</time>
      </trkpt>
      <trkpt lat="43.7136500" lon="-91.9811940">
        <ele>275.5600000</ele>
        <time>2009-05-01T15:32:31Z</time>
      </trkpt>
      <trkpt lat="43.7137380" lon="-91.9811060">
        <ele>276.0400000</ele>
        <time>2009-05-01T15:32:32Z</time>
      </trkpt>
      <trkpt lat="43.7138280" lon="-91.9810160">
        <ele>276.0400000</ele>
        <time>2009-05-01T15:32:33Z</time>
      </trkpt>
      <trkpt lat="43.7138740" lon="-91.9809000">
        <ele>276.0400000</ele>
        <time>2009-05-01T15:32:34Z</time>
      </trkpt>
      <trkpt lat="43.7139190" lon="-91.9807700">
        <ele>276.0400000</ele>
        <time>2009-05-01T15:32:35Z</time>
      </trkpt>
      <trkpt lat="43.7139460" lon="-91.9806090">
        <ele>275.5600000</ele>
        <time>2009-05-01T15:32:36Z</time>
      </trkpt>
      <trkpt lat="43.7139610" lon="-91.9804530">
        <ele>275.5600000</ele>
        <time>2009-05-01T15:32:37Z</time>
      </trkpt>
      <trkpt lat="43.7139700" lon="-91.9802900">
        <ele>275.0700000</ele>
        <time>2009-05-01T15:32:38Z</time>
      </trkpt>
      <trkpt lat="43.7139990" lon="-91.9786270">
        <ele>271.2300000</ele>
        <time>2009-05-01T15:32:50Z</time>
      </trkpt>
      <trkpt lat="43.7139990" lon="-91.9769390">
        <ele>270.2700000</ele>
        <time>2009-05-01T15:33:05Z</time>
      </trkpt>
      <trkpt lat="43.7139990" lon="-91.9756610">
        <ele>273.1500000</ele>
        <time>2009-05-01T15:33:13Z</time>
      </trkpt>
      <trkpt lat="43.7139990" lon="-91.9724420">
        <ele>279.4000000</ele>
        <time>2009-05-01T15:33:30Z</time>
      </trkpt>
      <trkpt lat="43.7140700" lon="-91.9719410">
        <ele>282.2800000</ele>
        <time>2009-05-01T15:33:33Z</time>
      </trkpt>
      <trkpt lat="43.7141160" lon="-91.9717930">
        <ele>283.2500000</ele>
        <time>2009-05-01T15:33:34Z</time>
      </trkpt>
      <trkpt lat="43.7141720" lon="-91.9716420">
        <ele>283.7300000</ele>
        <time>2009-05-01T15:33:35Z</time>
      </trkpt>
      <trkpt lat="43.7142340" lon="-91.9715120">
        <ele>284.2100000</ele>
        <time>2009-05-01T15:33:36Z</time>
      </trkpt>
      <trkpt lat="43.7143350" lon="-91.9714110">
        <ele>284.6900000</ele>
        <time>2009-05-01T15:33:37Z</time>
      </trkpt>
      <trkpt lat="43.7144710" lon="-91.9712740">
        <ele>285.1700000</ele>
        <time>2009-05-01T15:33:38Z</time>
      </trkpt>
      <trkpt lat="43.7145430" lon="-91.9712540">
        <ele>285.1700000</ele>
        <time>2009-05-01T15:33:39Z</time>
      </trkpt>
      <trkpt lat="43.7146640" lon="-91.9712190">
        <ele>285.6500000</ele>
        <time>2009-05-01T15:33:40Z</time>
      </trkpt>
      <trkpt lat="43.7147830" lon="-91.9711880">
        <ele>286.1300000</ele>
        <time>2009-05-01T15:33:41Z</time>
      </trkpt>
      <trkpt lat="43.7149190" lon="-91.9711770">
        <ele>285.6500000</ele>
        <time>2009-05-01T15:33:42Z</time>
      </trkpt>
      <trkpt lat="43.7150610" lon="-91.9711650">
        <ele>285.1700000</ele>
        <time>2009-05-01T15:33:43Z</time>
      </trkpt>
      <trkpt lat="43.7169460" lon="-91.9711020">
        <ele>289.0100000</ele>
        <time>2009-05-01T15:33:56Z</time>
      </trkpt>
      <trkpt lat="43.7187440" lon="-91.9708360">
        <ele>284.2100000</ele>
        <time>2009-05-01T15:34:07Z</time>
      </trkpt>
      <trkpt lat="43.7199370" lon="-91.9697570">
        <ele>276.0400000</ele>
        <time>2009-05-01T15:34:15Z</time>
      </trkpt>
      <trkpt lat="43.7203620" lon="-91.9692980">
        <ele>273.1500000</ele>
        <time>2009-05-01T15:34:18Z</time>
      </trkpt>
      <trkpt lat="43.7204790" lon="-91.9691090">
        <ele>272.1900000</ele>
        <time>2009-05-01T15:34:19Z</time>
      </trkpt>
      <trkpt lat="43.7205940" lon="-91.9689220">
        <ele>271.2300000</ele>
        <time>2009-05-01T15:34:20Z</time>
      </trkpt>
      <trkpt lat="43.7206740" lon="-91.9686920">
        <ele>269.7900000</ele>
        <time>2009-05-01T15:34:21Z</time>
      </trkpt>
      <trkpt lat="43.7207140" lon="-91.9684530">
        <ele>268.8300000</ele>
        <time>2009-05-01T15:34:22Z</time>
      </trkpt>
      <trkpt lat="43.7207470" lon="-91.9682090">
        <ele>267.8600000</ele>
        <time>2009-05-01T15:34:23Z</time>
      </trkpt>
      <trkpt lat="43.7207730" lon="-91.9679570">
        <ele>267.3800000</ele>
        <time>2009-05-01T15:34:24Z</time>
      </trkpt>
      <trkpt lat="43.7207760" lon="-91.9677010">
        <ele>266.9000000</ele>
        <time>2009-05-01T15:34:25Z</time>
      </trkpt>
      <trkpt lat="43.7207710" lon="-91.9674410">
        <ele>265.9400000</ele>
        <time>2009-05-01T15:34:26Z</time>
      </trkpt>
      <trkpt lat="43.7207650" lon="-91.9671830">
        <ele>265.4600000</ele>
        <time>2009-05-01T15:34:27Z</time>
      </trkpt>
      <trkpt lat="43.7208180" lon="-91.9635430">
        <ele>262.1000000</ele>
        <time>2009-05-01T15:34:41Z</time>
      </trkpt>
      <trkpt lat="43.7212320" lon="-91.9618200">
        <ele>261.6200000</ele>
        <time>2009-05-01T15:34:47Z</time>
      </trkpt>
      <trkpt lat="43.7221400" lon="-91.9603960">
        <ele>254.4100000</ele>
        <time>2009-05-01T15:34:53Z</time>
      </trkpt>
      <trkpt lat="43.7234250" lon="-91.9596130">
        <ele>249.1200000</ele>
        <time>2009-05-01T15:34:59Z</time>
      </trkpt>
      <trkpt lat="43.7248090" lon="-91.9595910">
        <ele>250.5600000</ele>
        <time>2009-05-01T15:35:05Z</time>
      </trkpt>
      <trkpt lat="43.7261680" lon="-91.9601320">
        <ele>249.1200000</ele>
        <time>2009-05-01T15:35:11Z</time>
      </trkpt>
      <trkpt lat="43.7295160" lon="-91.9617420">
        <ele>251.0400000</ele>
        <time>2009-05-01T15:35:26Z</time>
      </trkpt>
      <trkpt lat="43.7306630" lon="-91.9616920">
        <ele>252.4800000</ele>
        <time>2009-05-01T15:35:31Z</time>
      </trkpt>
      <trkpt lat="43.7308920" lon="-91.9616230">
        <ele>252.4800000</ele>
        <time>2009-05-01T15:35:32Z</time>
      </trkpt>
      <trkpt lat="43.7310890" lon="-91.9614880">
        <ele>252.9600000</ele>
        <time>2009-05-01T15:35:33Z</time>
      </trkpt>
      <trkpt lat="43.7312960" lon="-91.9613380">
        <ele>253.4400000</ele>
        <time>2009-05-01T15:35:34Z</time>
      </trkpt>
      <trkpt lat="43.7315050" lon="-91.9611870">
        <ele>253.9300000</ele>
        <time>2009-05-01T15:35:35Z</time>
      </trkpt>
      <trkpt lat="43.7316980" lon="-91.9610390">
        <ele>253.9300000</ele>
        <time>2009-05-01T15:35:36Z</time>
      </trkpt>
      <trkpt lat="43.7318720" lon="-91.9608220">
        <ele>254.4100000</ele>
        <time>2009-05-01T15:35:37Z</time>
      </trkpt>
      <trkpt lat="43.7320390" lon="-91.9606070">
        <ele>254.8900000</ele>
        <time>2009-05-01T15:35:38Z</time>
      </trkpt>
      <trkpt lat="43.7321940" lon="-91.9603600">
        <ele>254.4100000</ele>
        <time>2009-05-01T15:35:39Z</time>
      </trkpt>
      <trkpt lat="43.7335920" lon="-91.9577280">
        <ele>252.4800000</ele>
        <time>2009-05-01T15:35:49Z</time>
      </trkpt>
      <trkpt lat="43.7343260" lon="-91.9549860">
        <ele>250.0800000</ele>
        <time>2009-05-01T15:35:58Z</time>
      </trkpt>
      <trkpt lat="43.7347160" lon="-91.9521190">
        <ele>247.2000000</ele>
        <time>2009-05-01T15:36:07Z</time>
      </trkpt>
      <trkpt lat="43.7353690" lon="-91.9464010">
        <ele>248.1600000</ele>
        <time>2009-05-01T15:36:25Z</time>
      </trkpt>
      <trkpt lat="43.7364050" lon="-91.9442090">
        <ele>247.6800000</ele>
        <time>2009-05-01T15:36:33Z</time>
      </trkpt>
      <trkpt lat="43.7369260" lon="-91.9436000">
        <ele>246.7200000</ele>
        <time>2009-05-01T15:36:36Z</time>
      </trkpt>
      <trkpt lat="43.7371340" lon="-91.9434570">
        <ele>247.2000000</ele>
        <time>2009-05-01T15:36:37Z</time>
      </trkpt>
      <trkpt lat="43.7373430" lon="-91.9433120">
        <ele>246.2300000</ele>
        <time>2009-05-01T15:36:38Z</time>
      </trkpt>
      <trkpt lat="43.7394880" lon="-91.9420880">
        <ele>245.7500000</ele>
        <time>2009-05-01T15:36:48Z</time>
      </trkpt>
      <trkpt lat="43.7413630" lon="-91.9419090">
        <ele>250.5600000</ele>
        <time>2009-05-01T15:36:56Z</time>
      </trkpt>
      <trkpt lat="43.7431950" lon="-91.9415830">
        <ele>252.0000000</ele>
        <time>2009-05-01T15:37:04Z</time>
      </trkpt>
      <trkpt lat="43.7434010" lon="-91.9414430">
        <ele>252.0000000</ele>
        <time>2009-05-01T15:37:05Z</time>
      </trkpt>
      <trkpt lat="43.7435880" lon="-91.9412350">
        <ele>252.4800000</ele>
        <time>2009-05-01T15:37:06Z</time>
      </trkpt>
      <trkpt lat="43.7437790" lon="-91.9410230">
        <ele>253.4400000</ele>
        <time>2009-05-01T15:37:07Z</time>
      </trkpt>
      <trkpt lat="43.7439210" lon="-91.9407650">
        <ele>253.9300000</ele>
        <time>2009-05-01T15:37:08Z</time>
      </trkpt>
      <trkpt lat="43.7440530" lon="-91.9405070">
        <ele>253.9300000</ele>
        <time>2009-05-01T15:37:09Z</time>
      </trkpt>
      <trkpt lat="43.7441420" lon="-91.9402080">
        <ele>253.9300000</ele>
        <time>2009-05-01T15:37:10Z</time>
      </trkpt>
      <trkpt lat="43.7442050" lon="-91.9398920">
        <ele>253.4400000</ele>
        <time>2009-05-01T15:37:11Z</time>
      </trkpt>
      <trkpt lat="43.7442700" lon="-91.9395700">
        <ele>252.4800000</ele>
        <time>2009-05-01T15:37:12Z</time>
      </trkpt>
      <trkpt lat="43.7442980" lon="-91.9392630">
        <ele>252.0000000</ele>
        <time>2009-05-01T15:37:13Z</time>
      </trkpt>
      <trkpt lat="43.7442980" lon="-91.9389330">
        <ele>251.5200000</ele>
        <time>2009-05-01T15:37:14Z</time>
      </trkpt>
      <trkpt lat="43.7442570" lon="-91.9386190">
        <ele>251.0400000</ele>
        <time>2009-05-01T15:37:15Z</time>
      </trkpt>
      <trkpt lat="43.7442080" lon="-91.9383030">
        <ele>250.0800000</ele>
        <time>2009-05-01T15:37:16Z</time>
      </trkpt>
      <trkpt lat="43.7441410" lon="-91.9379910">
        <ele>250.0800000</ele>
        <time>2009-05-01T15:37:17Z</time>
      </trkpt>
      <trkpt lat="43.7440210" lon="-91.9377040">
        <ele>249.6000000</ele>
        <time>2009-05-01T15:37:18Z</time>
      </trkpt>
      <trkpt lat="43.7438780" lon="-91.9374450">
        <ele>249.6000000</ele>
        <time>2009-05-01T15:37:19Z</time>
      </trkpt>
      <trkpt lat="43.7437040" lon="-91.9372210">
        <ele>249.1200000</ele>
        <time>2009-05-01T15:37:20Z</time>
      </trkpt>
      <trkpt lat="43.7435140" lon="-91.9370170">
        <ele>249.6000000</ele>
        <time>2009-05-01T15:37:21Z</time>
      </trkpt>
      <trkpt lat="43.7433210" lon="-91.9368240">
        <ele>248.6400000</ele>
        <time>2009-05-01T15:37:22Z</time>
      </trkpt>
      <trkpt lat="43.7431100" lon="-91.9366800">
        <ele>248.1600000</ele>
        <time>2009-05-01T15:37:23Z</time>
      </trkpt>
      <trkpt lat="43.7428960" lon="-91.9365470">
        <ele>247.2000000</ele>
        <time>2009-05-01T15:37:24Z</time>
      </trkpt>
      <trkpt lat="43.7426620" lon="-91.9364770">
        <ele>247.2000000</ele>
        <time>2009-05-01T15:37:25Z</time>
      </trkpt>
      <trkpt lat="43.7424280" lon="-91.9364190">
        <ele>246.7200000</ele>
        <time>2009-05-01T15:37:26Z</time>
      </trkpt>
      <trkpt lat="43.7421900" lon="-91.9363890">
        <ele>246.7200000</ele>
        <time>2009-05-01T15:37:27Z</time>
      </trkpt>
      <trkpt lat="43.7379700" lon="-91.9357630">
        <ele>251.5200000</ele>
        <time>2009-05-01T15:37:45Z</time>
      </trkpt>
      <trkpt lat="43.7369280" lon="-91.9351090">
        <ele>251.0400000</ele>
        <time>2009-05-01T15:37:50Z</time>
      </trkpt>
      <trkpt lat="43.7346220" lon="-91.9328170">
        <ele>252.4800000</ele>
        <time>2009-05-01T15:38:02Z</time>
      </trkpt>
      <trkpt lat="43.7323950" lon="-91.9310100">
        <ele>254.4100000</ele>
        <time>2009-05-01T15:38:13Z</time>
      </trkpt>
      <trkpt lat="43.7301480" lon="-91.9292790">
        <ele>251.5200000</ele>
        <time>2009-05-01T15:38:24Z</time>
      </trkpt>
      <trkpt lat="43.7299900" lon="-91.9290430">
        <ele>251.5200000</ele>
        <time>2009-05-01T15:38:25Z</time>
      </trkpt>
      <trkpt lat="43.7298570" lon="-91.9287900">
        <ele>251.5200000</ele>
        <time>2009-05-01T15:38:26Z</time>
      </trkpt>
      <trkpt lat="43.7297380" lon="-91.9285320">
        <ele>251.0400000</ele>
        <time>2009-05-01T15:38:27Z</time>
      </trkpt>
      <trkpt lat="43.7296560" lon="-91.9282310">
        <ele>251.5200000</ele>
        <time>2009-05-01T15:38:28Z</time>
      </trkpt>
      <trkpt lat="43.7295950" lon="-91.9279350">
        <ele>251.5200000</ele>
        <time>2009-05-01T15:38:29Z</time>
      </trkpt>
      <trkpt lat="43.7295430" lon="-91.9275980">
        <ele>252.0000000</ele>
        <time>2009-05-01T15:38:30Z</time>
      </trkpt>
      <trkpt lat="43.7295350" lon="-91.9272830">
        <ele>252.0000000</ele>
        <time>2009-05-01T15:38:31Z</time>
      </trkpt>
      <trkpt lat="43.7295560" lon="-91.9269790">
        <ele>251.5200000</ele>
        <time>2009-05-01T15:38:32Z</time>
      </trkpt>
      <trkpt lat="43.7296040" lon="-91.9266610">
        <ele>251.5200000</ele>
        <time>2009-05-01T15:38:33Z</time>
      </trkpt>
      <trkpt lat="43.7296700" lon="-91.9263590">
        <ele>252.0000000</ele>
        <time>2009-05-01T15:38:34Z</time>
      </trkpt>
      <trkpt lat="43.7297470" lon="-91.9260520">
        <ele>252.0000000</ele>
        <time>2009-05-01T15:38:35Z</time>
      </trkpt>
      <trkpt lat="43.7298720" lon="-91.9257710">
        <ele>252.0000000</ele>
        <time>2009-05-01T15:38:36Z</time>
      </trkpt>
      <trkpt lat="43.7300010" lon="-91.9254850">
        <ele>252.4800000</ele>
        <time>2009-05-01T15:38:37Z</time>
      </trkpt>
      <trkpt lat="43.7301280" lon="-91.9252030">
        <ele>252.4800000</ele>
        <time>2009-05-01T15:38:38Z</time>
      </trkpt>
      <trkpt lat="43.7308820" lon="-91.9228180">
        <ele>251.5200000</ele>
        <time>2009-05-01T15:38:46Z</time>
      </trkpt>
      <trkpt lat="43.7311610" lon="-91.9199590">
        <ele>251.5200000</ele>
        <time>2009-05-01T15:38:55Z</time>
      </trkpt>
      <trkpt lat="43.7315010" lon="-91.9161560">
        <ele>252.9600000</ele>
        <time>2009-05-01T15:39:07Z</time>
      </trkpt>
      <trkpt lat="43.7323220" lon="-91.9146230">
        <ele>255.8500000</ele>
        <time>2009-05-01T15:39:13Z</time>
      </trkpt>
      <trkpt lat="43.7335330" lon="-91.9137400">
        <ele>255.8500000</ele>
        <time>2009-05-01T15:39:19Z</time>
      </trkpt>
      <trkpt lat="43.7366670" lon="-91.9123810">
        <ele>254.4100000</ele>
        <time>2009-05-01T15:39:33Z</time>
      </trkpt>
      <trkpt lat="43.7388020" lon="-91.9109910">
        <ele>255.8500000</ele>
        <time>2009-05-01T15:39:43Z</time>
      </trkpt>
      <trkpt lat="43.7407770" lon="-91.9100300">
        <ele>255.8500000</ele>
        <time>2009-05-01T15:39:52Z</time>
      </trkpt>
      <trkpt lat="43.7421590" lon="-91.9102370">
        <ele>252.0000000</ele>
        <time>2009-05-01T15:39:58Z</time>
      </trkpt>
      <trkpt lat="43.7449100" lon="-91.9110490">
        <ele>247.6800000</ele>
        <time>2009-05-01T15:40:10Z</time>
      </trkpt>
      <trkpt lat="43.7474780" lon="-91.9114160">
        <ele>246.2300000</ele>
        <time>2009-05-01T15:40:21Z</time>
      </trkpt>
      <trkpt lat="43.7484080" lon="-91.9114980">
        <ele>247.2000000</ele>
        <time>2009-05-01T15:40:25Z</time>
      </trkpt>
      <trkpt lat="43.7486340" lon="-91.9114410">
        <ele>247.6800000</ele>
        <time>2009-05-01T15:40:26Z</time>
      </trkpt>
      <trkpt lat="43.7488660" lon="-91.9113720">
        <ele>248.1600000</ele>
        <time>2009-05-01T15:40:27Z</time>
      </trkpt>
      <trkpt lat="43.7490700" lon="-91.9112290">
        <ele>248.6400000</ele>
        <time>2009-05-01T15:40:28Z</time>
      </trkpt>
      <trkpt lat="43.7492700" lon="-91.9110660">
        <ele>249.6000000</ele>
        <time>2009-05-01T15:40:29Z</time>
      </trkpt>
      <trkpt lat="43.7494560" lon="-91.9108560">
        <ele>250.0800000</ele>
        <time>2009-05-01T15:40:30Z</time>
      </trkpt>
      <trkpt lat="43.7496260" lon="-91.9106370">
        <ele>250.5600000</ele>
        <time>2009-05-01T15:40:31Z</time>
      </trkpt>
      <trkpt lat="43.7497790" lon="-91.9103830">
        <ele>252.0000000</ele>
        <time>2009-05-01T15:40:32Z</time>
      </trkpt>
      <trkpt lat="43.7498990" lon="-91.9101120">
        <ele>252.4800000</ele>
        <time>2009-05-01T15:40:33Z</time>
      </trkpt>
      <trkpt lat="43.7500100" lon="-91.9097940">
        <ele>251.5200000</ele>
        <time>2009-05-01T15:40:34Z</time>
      </trkpt>
      <trkpt lat="43.7500710" lon="-91.9094790">
        <ele>251.0400000</ele>
        <time>2009-05-01T15:40:35Z</time>
      </trkpt>
      <trkpt lat="43.7501320" lon="-91.9091620">
        <ele>250.5600000</ele>
        <time>2009-05-01T15:40:36Z</time>
      </trkpt>
      <trkpt lat="43.7501930" lon="-91.9088450">
        <ele>250.0800000</ele>
        <time>2009-05-01T15:40:37Z</time>
      </trkpt>
      <trkpt lat="43.7501280" lon="-91.9069170">
        <ele>246.7200000</ele>
        <time>2009-05-01T15:40:43Z</time>
      </trkpt>
      <trkpt lat="43.7494830" lon="-91.9038170">
        <ele>242.8700000</ele>
        <time>2009-05-01T15:40:53Z</time>
      </trkpt>
      <trkpt lat="43.7476750" lon="-91.8985420">
        <ele>247.6800000</ele>
        <time>2009-05-01T15:41:11Z</time>
      </trkpt>
      <trkpt lat="43.7464650" lon="-91.8954380">
        <ele>246.2300000</ele>
        <time>2009-05-01T15:41:22Z</time>
      </trkpt>
      <trkpt lat="43.7459710" lon="-91.8916440">
        <ele>244.3100000</ele>
        <time>2009-05-01T15:41:34Z</time>
      </trkpt>
      <trkpt lat="43.7459780" lon="-91.8884040">
        <ele>244.3100000</ele>
        <time>2009-05-01T15:41:44Z</time>
      </trkpt>
      <trkpt lat="43.7463500" lon="-91.8852150">
        <ele>245.7500000</ele>
        <time>2009-05-01T15:41:54Z</time>
      </trkpt>
      <trkpt lat="43.7467770" lon="-91.8837650">
        <ele>246.7200000</ele>
        <time>2009-05-01T15:41:59Z</time>
      </trkpt>
      <trkpt lat="43.7469210" lon="-91.8835060">
        <ele>245.7500000</ele>
        <time>2009-05-01T15:42:00Z</time>
      </trkpt>
      <trkpt lat="43.7471160" lon="-91.8832840">
        <ele>245.2700000</ele>
        <time>2009-05-01T15:42:01Z</time>
      </trkpt>
      <trkpt lat="43.7473040" lon="-91.8830760">
        <ele>245.7500000</ele>
        <time>2009-05-01T15:42:02Z</time>
      </trkpt>
      <trkpt lat="43.7474940" lon="-91.8828740">
        <ele>245.7500000</ele>
        <time>2009-05-01T15:42:03Z</time>
      </trkpt>
      <trkpt lat="43.7493010" lon="-91.8814320">
        <ele>244.7900000</ele>
        <time>2009-05-01T15:42:12Z</time>
      </trkpt>
      <trkpt lat="43.7513180" lon="-91.8807600">
        <ele>241.9100000</ele>
        <time>2009-05-01T15:42:21Z</time>
      </trkpt>
      <trkpt lat="43.7527220" lon="-91.8809350">
        <ele>244.7900000</ele>
        <time>2009-05-01T15:42:27Z</time>
      </trkpt>
      <trkpt lat="43.7547130" lon="-91.8819300">
        <ele>245.2700000</ele>
        <time>2009-05-01T15:42:36Z</time>
      </trkpt>
      <trkpt lat="43.7579040" lon="-91.8838790">
        <ele>247.2000000</ele>
        <time>2009-05-01T15:42:51Z</time>
      </trkpt>
      <trkpt lat="43.7596700" lon="-91.8846810">
        <ele>254.8900000</ele>
        <time>2009-05-01T15:42:59Z</time>
      </trkpt>
      <trkpt lat="43.7599030" lon="-91.8847040">
        <ele>255.3700000</ele>
        <time>2009-05-01T15:43:00Z</time>
      </trkpt>
      <trkpt lat="43.7601230" lon="-91.8846880">
        <ele>255.8500000</ele>
        <time>2009-05-01T15:43:01Z</time>
      </trkpt>
      <trkpt lat="43.7603500" lon="-91.8846370">
        <ele>256.3300000</ele>
        <time>2009-05-01T15:43:02Z</time>
      </trkpt>
      <trkpt lat="43.7605890" lon="-91.8845400">
        <ele>257.2900000</ele>
        <time>2009-05-01T15:43:03Z</time>
      </trkpt>
      <trkpt lat="43.7608160" lon="-91.8844230">
        <ele>258.2500000</ele>
        <time>2009-05-01T15:43:04Z</time>
      </trkpt>
      <trkpt lat="43.7610200" lon="-91.8842440">
        <ele>259.2100000</ele>
        <time>2009-05-01T15:43:05Z</time>
      </trkpt>
      <trkpt lat="43.7612120" lon="-91.8840380">
        <ele>259.6900000</ele>
        <time>2009-05-01T15:43:06Z</time>
      </trkpt>
      <trkpt lat="43.7613910" lon="-91.8838080">
        <ele>260.6500000</ele>
        <time>2009-05-01T15:43:07Z</time>
      </trkpt>
      <trkpt lat="43.7615280" lon="-91.8835330">
        <ele>260.6500000</ele>
        <time>2009-05-01T15:43:08Z</time>
      </trkpt>
      <trkpt lat="43.7616520" lon="-91.8832520">
        <ele>261.1400000</ele>
        <time>2009-05-01T15:43:09Z</time>
      </trkpt>
      <trkpt lat="43.7617590" lon="-91.8829570">
        <ele>261.6200000</ele>
        <time>2009-05-01T15:43:10Z</time>
      </trkpt>
      <trkpt lat="43.7618210" lon="-91.8826440">
        <ele>262.1000000</ele>
        <time>2009-05-01T15:43:11Z</time>
      </trkpt>
      <trkpt lat="43.7618460" lon="-91.8823190">
        <ele>261.6200000</ele>
        <time>2009-05-01T15:43:12Z</time>
      </trkpt>
      <trkpt lat="43.7618500" lon="-91.8819960">
        <ele>261.6200000</ele>
        <time>2009-05-01T15:43:13Z</time>
      </trkpt>
      <trkpt lat="43.7618470" lon="-91.8816750">
        <ele>261.6200000</ele>
        <time>2009-05-01T15:43:14Z</time>
      </trkpt>
      <trkpt lat="43.7618170" lon="-91.8813480">
        <ele>261.6200000</ele>
        <time>2009-05-01T15:43:15Z</time>
      </trkpt>
      <trkpt lat="43.7617870" lon="-91.8810210">
        <ele>261.6200000</ele>
        <time>2009-05-01T15:43:16Z</time>
      </trkpt>
      <trkpt lat="43.7615010" lon="-91.8758260">
        <ele>254.4100000</ele>
        <time>2009-05-01T15:43:32Z</time>
      </trkpt>
      <trkpt lat="43.7620350" lon="-91.8740320">
        <ele>249.6000000</ele>
        <time>2009-05-01T15:43:38Z</time>
      </trkpt>
      <trkpt lat="43.7634200" lon="-91.8710850">
        <ele>241.9100000</ele>
        <time>2009-05-01T15:43:49Z</time>
      </trkpt>
      <trkpt lat="43.7646270" lon="-91.8702400">
        <ele>236.6200000</ele>
        <time>2009-05-01T15:43:55Z</time>
      </trkpt>
      <trkpt lat="43.7662420" lon="-91.8699080">
        <ele>239.9900000</ele>
        <time>2009-05-01T15:44:02Z</time>
      </trkpt>
      <trkpt lat="43.7688400" lon="-91.8701150">
        <ele>244.3100000</ele>
        <time>2009-05-01T15:44:13Z</time>
      </trkpt>
      <trkpt lat="43.7711590" lon="-91.8706460">
        <ele>245.2700000</ele>
        <time>2009-05-01T15:44:23Z</time>
      </trkpt>
      <trkpt lat="43.7734720" lon="-91.8709820">
        <ele>247.6800000</ele>
        <time>2009-05-01T15:44:33Z</time>
      </trkpt>
      <trkpt lat="43.7750640" lon="-91.8704340">
        <ele>253.4400000</ele>
        <time>2009-05-01T15:44:40Z</time>
      </trkpt>
      <trkpt lat="43.7769550" lon="-91.8692120">
        <ele>255.8500000</ele>
        <time>2009-05-01T15:44:49Z</time>
      </trkpt>
      <trkpt lat="43.7777620" lon="-91.8676490">
        <ele>255.3700000</ele>
        <time>2009-05-01T15:44:55Z</time>
      </trkpt>
      <trkpt lat="43.7780400" lon="-91.8657570">
        <ele>251.5200000</ele>
        <time>2009-05-01T15:45:01Z</time>
      </trkpt>
      <trkpt lat="43.7785110" lon="-91.8592580">
        <ele>241.4300000</ele>
        <time>2009-05-01T15:45:21Z</time>
      </trkpt>
      <trkpt lat="43.7782110" lon="-91.8580660">
        <ele>239.0200000</ele>
        <time>2009-05-01T15:45:25Z</time>
      </trkpt>
      <trkpt lat="43.7780930" lon="-91.8577860">
        <ele>238.5400000</ele>
        <time>2009-05-01T15:45:26Z</time>
      </trkpt>
      <trkpt lat="43.7779680" lon="-91.8575230">
        <ele>238.5400000</ele>
        <time>2009-05-01T15:45:27Z</time>
      </trkpt>
      <trkpt lat="43.7764560" lon="-91.8546280">
        <ele>236.6200000</ele>
        <time>2009-05-01T15:45:38Z</time>
      </trkpt>
      <trkpt lat="43.7744320" lon="-91.8498660">
        <ele>237.1000000</ele>
        <time>2009-05-01T15:45:55Z</time>
      </trkpt>
      <trkpt lat="43.7728600" lon="-91.8444610">
        <ele>238.5400000</ele>
        <time>2009-05-01T15:46:13Z</time>
      </trkpt>
      <trkpt lat="43.7728890" lon="-91.8425450">
        <ele>238.5400000</ele>
        <time>2009-05-01T15:46:19Z</time>
      </trkpt>
      <trkpt lat="43.7734700" lon="-91.8380700">
        <ele>240.9500000</ele>
        <time>2009-05-01T15:46:33Z</time>
      </trkpt>
      <trkpt lat="43.7742820" lon="-91.8361000">
        <ele>239.9900000</ele>
        <time>2009-05-01T15:46:40Z</time>
      </trkpt>
      <trkpt lat="43.7752660" lon="-91.8335320">
        <ele>239.9900000</ele>
        <time>2009-05-01T15:46:49Z</time>
      </trkpt>
      <trkpt lat="43.7764700" lon="-91.8297030">
        <ele>241.9100000</ele>
        <time>2009-05-01T15:47:02Z</time>
      </trkpt>
      <trkpt lat="43.7778760" lon="-91.8275340">
        <ele>242.8700000</ele>
        <time>2009-05-01T15:47:11Z</time>
      </trkpt>
      <trkpt lat="43.7796720" lon="-91.8250400">
        <ele>241.9100000</ele>
        <time>2009-05-01T15:47:22Z</time>
      </trkpt>
      <trkpt lat="43.7798680" lon="-91.8248690">
        <ele>241.9100000</ele>
        <time>2009-05-01T15:47:23Z</time>
      </trkpt>
      <trkpt lat="43.7800650" lon="-91.8246970">
        <ele>241.4300000</ele>
        <time>2009-05-01T15:47:24Z</time>
      </trkpt>
      <trkpt lat="43.7802870" lon="-91.8245860">
        <ele>241.4300000</ele>
        <time>2009-05-01T15:47:25Z</time>
      </trkpt>
      <trkpt lat="43.7805100" lon="-91.8244860">
        <ele>241.4300000</ele>
        <time>2009-05-01T15:47:26Z</time>
      </trkpt>
      <trkpt lat="43.7807330" lon="-91.8243850">
        <ele>241.4300000</ele>
        <time>2009-05-01T15:47:27Z</time>
      </trkpt>
      <trkpt lat="43.7818660" lon="-91.8240110">
        <ele>241.4300000</ele>
        <time>2009-05-01T15:47:32Z</time>
      </trkpt>
      <trkpt lat="43.7821010" lon="-91.8239980">
        <ele>240.9500000</ele>
        <time>2009-05-01T15:47:33Z</time>
      </trkpt>
      <trkpt lat="43.7823350" lon="-91.8240240">
        <ele>240.9500000</ele>
        <time>2009-05-01T15:47:34Z</time>
      </trkpt>
      <trkpt lat="43.7825610" lon="-91.8241010">
        <ele>240.9500000</ele>
        <time>2009-05-01T15:47:35Z</time>
      </trkpt>
      <trkpt lat="43.7827830" lon="-91.8242000">
        <ele>240.4700000</ele>
        <time>2009-05-01T15:47:36Z</time>
      </trkpt>
      <trkpt lat="43.7829800" lon="-91.8243710">
        <ele>239.9900000</ele>
        <time>2009-05-01T15:47:37Z</time>
      </trkpt>
      <trkpt lat="43.7831780" lon="-91.8245480">
        <ele>239.0200000</ele>
        <time>2009-05-01T15:47:38Z</time>
      </trkpt>
      <trkpt lat="43.7833770" lon="-91.8247260">
        <ele>238.5400000</ele>
        <time>2009-05-01T15:47:39Z</time>
      </trkpt>
      <trkpt lat="43.7835760" lon="-91.8249030">
        <ele>238.5400000</ele>
        <time>2009-05-01T15:47:40Z</time>
      </trkpt>
      <trkpt lat="43.7852550" lon="-91.8260350">
        <ele>237.1000000</ele>
        <time>2009-05-01T15:47:48Z</time>
      </trkpt>
      <trkpt lat="43.7868700" lon="-91.8262640">
        <ele>236.1400000</ele>
        <time>2009-05-01T15:47:55Z</time>
      </trkpt>
      <trkpt lat="43.7891980" lon="-91.8259590">
        <ele>235.1800000</ele>
        <time>2009-05-01T15:48:05Z</time>
      </trkpt>
      <trkpt lat="43.7894130" lon="-91.8258480">
        <ele>235.1800000</ele>
        <time>2009-05-01T15:48:06Z</time>
      </trkpt>
      <trkpt lat="43.7896190" lon="-91.8256930">
        <ele>234.7000000</ele>
        <time>2009-05-01T15:48:07Z</time>
      </trkpt>
      <trkpt lat="43.7898170" lon="-91.8255250">
        <ele>234.7000000</ele>
        <time>2009-05-01T15:48:08Z</time>
      </trkpt>
      <trkpt lat="43.7900070" lon="-91.8253560">
        <ele>234.2200000</ele>
        <time>2009-05-01T15:48:09Z</time>
      </trkpt>
      <trkpt lat="43.7901650" lon="-91.8251180">
        <ele>234.2200000</ele>
        <time>2009-05-01T15:48:10Z</time>
      </trkpt>
      <trkpt lat="43.7903060" lon="-91.8248760">
        <ele>234.7000000</ele>
        <time>2009-05-01T15:48:11Z</time>
      </trkpt>
      <trkpt lat="43.7904290" lon="-91.8246030">
        <ele>235.1800000</ele>
        <time>2009-05-01T15:48:12Z</time>
      </trkpt>
      <trkpt lat="43.7905290" lon="-91.8243260">
        <ele>234.7000000</ele>
        <time>2009-05-01T15:48:13Z</time>
      </trkpt>
      <trkpt lat="43.7906220" lon="-91.8240230">
        <ele>234.7000000</ele>
        <time>2009-05-01T15:48:14Z</time>
      </trkpt>
      <trkpt lat="43.7907160" lon="-91.8237210">
        <ele>235.1800000</ele>
        <time>2009-05-01T15:48:15Z</time>
      </trkpt>
      <trkpt lat="43.7908070" lon="-91.8234220">
        <ele>234.7000000</ele>
        <time>2009-05-01T15:48:16Z</time>
      </trkpt>
      <trkpt lat="43.7923640" lon="-91.8158860">
        <ele>232.3000000</ele>
        <time>2009-05-01T15:48:40Z</time>
      </trkpt>
      <trkpt lat="43.7925260" lon="-91.8133010">
        <ele>235.1800000</ele>
        <time>2009-05-01T15:48:48Z</time>
      </trkpt>
      <trkpt lat="43.7926370" lon="-91.8104040">
        <ele>234.2200000</ele>
        <time>2009-05-01T15:48:57Z</time>
      </trkpt>
      <trkpt lat="43.7927150" lon="-91.8101050">
        <ele>233.7400000</ele>
        <time>2009-05-01T15:48:58Z</time>
      </trkpt>
      <trkpt lat="43.7928260" lon="-91.8098190">
        <ele>233.7400000</ele>
        <time>2009-05-01T15:48:59Z</time>
      </trkpt>
      <trkpt lat="43.7929380" lon="-91.8095310">
        <ele>233.7400000</ele>
        <time>2009-05-01T15:49:00Z</time>
      </trkpt>
      <trkpt lat="43.7930600" lon="-91.8092750">
        <ele>233.2600000</ele>
        <time>2009-05-01T15:49:01Z</time>
      </trkpt>
      <trkpt lat="43.7932200" lon="-91.8090350">
        <ele>233.2600000</ele>
        <time>2009-05-01T15:49:02Z</time>
      </trkpt>
      <trkpt lat="43.7933810" lon="-91.8087940">
        <ele>233.2600000</ele>
        <time>2009-05-01T15:49:03Z</time>
      </trkpt>
      <trkpt lat="43.7935510" lon="-91.8085860">
        <ele>232.7800000</ele>
        <time>2009-05-01T15:49:04Z</time>
      </trkpt>
      <trkpt lat="43.7937390" lon="-91.8083830">
        <ele>232.7800000</ele>
        <time>2009-05-01T15:49:05Z</time>
      </trkpt>
      <trkpt lat="43.7987280" lon="-91.8029370">
        <ele>235.6600000</ele>
        <time>2009-05-01T15:49:32Z</time>
      </trkpt>
      <trkpt lat="43.7994430" lon="-91.8013060">
        <ele>234.7000000</ele>
        <time>2009-05-01T15:49:38Z</time>
      </trkpt>
      <trkpt lat="43.7998770" lon="-91.7987800">
        <ele>233.2600000</ele>
        <time>2009-05-01T15:49:46Z</time>
      </trkpt>
      <trkpt lat="43.8015020" lon="-91.7883180">
        <ele>229.4100000</ele>
        <time>2009-05-01T15:50:19Z</time>
      </trkpt>
      <trkpt lat="43.8031520" lon="-91.7778590">
        <ele>228.4500000</ele>
        <time>2009-05-01T15:50:52Z</time>
      </trkpt>
      <trkpt lat="43.8049050" lon="-91.7667690">
        <ele>226.5300000</ele>
        <time>2009-05-01T15:51:27Z</time>
      </trkpt>
      <trkpt lat="43.8056540" lon="-91.7619670">
        <ele>226.5300000</ele>
        <time>2009-05-01T15:51:43Z</time>
      </trkpt>
      <trkpt lat="43.8059670" lon="-91.7593900">
        <ele>227.0100000</ele>
        <time>2009-05-01T15:51:54Z</time>
      </trkpt>
      <trkpt lat="43.8059080" lon="-91.7573450">
        <ele>227.9700000</ele>
        <time>2009-05-01T15:52:05Z</time>
      </trkpt>
      <trkpt lat="43.8056770" lon="-91.7549210">
        <ele>228.4500000</ele>
        <time>2009-05-01T15:52:21Z</time>
      </trkpt>
      <trkpt lat="43.8056690" lon="-91.7548410">
        <ele>227.0100000</ele>
        <time>2009-05-01T15:52:22Z</time>
      </trkpt>
      <trkpt lat="43.8056640" lon="-91.7547830">
        <ele>226.0500000</ele>
        <time>2009-05-01T15:52:23Z</time>
      </trkpt>
      <trkpt lat="43.8056590" lon="-91.7547390">
        <ele>225.0900000</ele>
        <time>2009-05-01T15:52:24Z</time>
      </trkpt>
      <trkpt lat="43.8056550" lon="-91.7547000">
        <ele>224.1200000</ele>
        <time>2009-05-01T15:52:25Z</time>
      </trkpt>
      <trkpt lat="43.8056500" lon="-91.7546560">
        <ele>223.6400000</ele>
        <time>2009-05-01T15:52:26Z</time>
      </trkpt>
      <trkpt lat="43.8056450" lon="-91.7546070">
        <ele>224.1200000</ele>
        <time>2009-05-01T15:52:27Z</time>
      </trkpt>
      <trkpt lat="43.8056390" lon="-91.7545580">
        <ele>223.6400000</ele>
        <time>2009-05-01T15:52:28Z</time>
      </trkpt>
      <trkpt lat="43.8056340" lon="-91.7545120">
        <ele>224.1200000</ele>
        <time>2009-05-01T15:52:29Z</time>
      </trkpt>
      <trkpt lat="43.8056300" lon="-91.7544700">
        <ele>224.1200000</ele>
        <time>2009-05-01T15:52:30Z</time>
      </trkpt>
      <trkpt lat="43.8056260" lon="-91.7544320">
        <ele>224.6100000</ele>
        <time>2009-05-01T15:52:31Z</time>
      </trkpt>
      <trkpt lat="43.8056220" lon="-91.7543970">
        <ele>224.6100000</ele>
        <time>2009-05-01T15:52:32Z</time>
      </trkpt>
      <trkpt lat="43.8052010" lon="-91.7543440">
        <ele>221.7200000</ele>
        <time>2009-05-01T15:52:42Z</time>
      </trkpt>
      <trkpt lat="43.8051600" lon="-91.7543620">
        <ele>221.7200000</ele>
        <time>2009-05-01T15:52:43Z</time>
      </trkpt>
      <trkpt lat="43.8049810" lon="-91.7541090">
        <ele>221.7200000</ele>
        <time>2009-05-01T15:52:51Z</time>
      </trkpt>
      <trkpt lat="43.8050440" lon="-91.7539190">
        <ele>224.6100000</ele>
        <time>2009-05-01T15:53:02Z</time>
      </trkpt>
      <trkpt lat="43.8050620" lon="-91.7539780">
        <ele>224.6100000</ele>
        <time>2009-05-01T15:53:52Z</time>
      </trkpt>
      <trkpt lat="43.8055100" lon="-91.7542910">
        <ele>225.0900000</ele>
        <time>2009-05-01T16:11:11Z</time>
      </trkpt>
      <trkpt lat="43.8055100" lon="-91.7542490">
        <ele>224.1200000</ele>
        <time>2009-05-01T16:12:24Z</time>
      </trkpt>
      <trkpt lat="43.8055110" lon="-91.7542420">
        <ele>224.1200000</ele>
        <time>2009-05-01T16:12:42Z</time>
      </trkpt>
      <trkpt lat="43.8055880" lon="-91.7540850">
        <ele>223.1600000</ele>
        <time>2009-05-01T16:12:46Z</time>
      </trkpt>
      <trkpt lat="43.8055810" lon="-91.7540150">
        <ele>222.6800000</ele>
        <time>2009-05-01T16:12:47Z</time>
      </trkpt>
      <trkpt lat="43.8055720" lon="-91.7539390">
        <ele>222.6800000</ele>
        <time>2009-05-01T16:12:48Z</time>
      </trkpt>
      <trkpt lat="43.8054950" lon="-91.7532220">
        <ele>220.7600000</ele>
        <time>2009-05-01T16:13:00Z</time>
      </trkpt>
      <trkpt lat="43.8054970" lon="-91.7532380">
        <ele>220.7600000</ele>
        <time>2009-05-01T16:13:02Z</time>
      </trkpt>
      <trkpt lat="43.8053500" lon="-91.7532160">
        <ele>221.2400000</ele>
        <time>2009-05-01T16:13:03Z</time>
      </trkpt>
      <trkpt lat="43.8052800" lon="-91.7532130">
        <ele>221.2400000</ele>
        <time>2009-05-01T16:13:04Z</time>
      </trkpt>
      <trkpt lat="43.8052030" lon="-91.7532100">
        <ele>221.2400000</ele>
        <time>2009-05-01T16:13:05Z</time>
      </trkpt>
      <trkpt lat="43.8051190" lon="-91.7532060">
        <ele>221.7200000</ele>
        <time>2009-05-01T16:13:06Z</time>
      </trkpt>
      <trkpt lat="43.8050330" lon="-91.7532030">
        <ele>221.7200000</ele>
        <time>2009-05-01T16:13:07Z</time>
      </trkpt>
      <trkpt lat="43.8047030" lon="-91.7531890">
        <ele>222.2000000</ele>
        <time>2009-05-01T16:13:14Z</time>
      </trkpt>
      <trkpt lat="43.8041840" lon="-91.7531680">
        <ele>222.6800000</ele>
        <time>2009-05-01T16:13:20Z</time>
      </trkpt>
      <trkpt lat="43.8025350" lon="-91.7531010">
        <ele>223.6400000</ele>
        <time>2009-05-01T16:13:31Z</time>
      </trkpt>
      <trkpt lat="43.7994770" lon="-91.7529870">
        <ele>226.5300000</ele>
        <time>2009-05-01T16:13:49Z</time>
      </trkpt>
      <trkpt lat="43.7976990" lon="-91.7529250">
        <ele>227.0100000</ele>
        <time>2009-05-01T16:14:01Z</time>
      </trkpt>
      <trkpt lat="43.7976100" lon="-91.7529220">
        <ele>227.0100000</ele>
        <time>2009-05-01T16:14:02Z</time>
      </trkpt>
      <trkpt lat="43.7976090" lon="-91.7528550">
        <ele>226.5300000</ele>
        <time>2009-05-01T16:14:03Z</time>
      </trkpt>
      <trkpt lat="43.7976280" lon="-91.7527410">
        <ele>226.5300000</ele>
        <time>2009-05-01T16:14:04Z</time>
      </trkpt>
      <trkpt lat="43.7976480" lon="-91.7526220">
        <ele>226.0500000</ele>
        <time>2009-05-01T16:14:05Z</time>
      </trkpt>
      <trkpt lat="43.7976700" lon="-91.7524890">
        <ele>226.0500000</ele>
        <time>2009-05-01T16:14:06Z</time>
      </trkpt>
      <trkpt lat="43.7976940" lon="-91.7523440">
        <ele>225.5700000</ele>
        <time>2009-05-01T16:14:07Z</time>
      </trkpt>
      <trkpt lat="43.7980020" lon="-91.7503880">
        <ele>225.0900000</ele>
        <time>2009-05-01T16:14:18Z</time>
      </trkpt>
      <trkpt lat="43.7981540" lon="-91.7481320">
        <ele>225.0900000</ele>
        <time>2009-05-01T16:14:28Z</time>
      </trkpt>
      <trkpt lat="43.7981180" lon="-91.7449540">
        <ele>225.0900000</ele>
        <time>2009-05-01T16:14:39Z</time>
      </trkpt>
      <trkpt lat="43.7978610" lon="-91.7417600">
        <ele>224.6100000</ele>
        <time>2009-05-01T16:14:49Z</time>
      </trkpt>
      <trkpt lat="43.7971540" lon="-91.7394350">
        <ele>224.1200000</ele>
        <time>2009-05-01T16:14:57Z</time>
      </trkpt>
      <trkpt lat="43.7940610" lon="-91.7320280">
        <ele>226.0500000</ele>
        <time>2009-05-01T16:15:24Z</time>
      </trkpt>
      <trkpt lat="43.7919500" lon="-91.7283090">
        <ele>237.1000000</ele>
        <time>2009-05-01T16:15:39Z</time>
      </trkpt>
      <trkpt lat="43.7878860" lon="-91.7214310">
        <ele>249.6000000</ele>
        <time>2009-05-01T16:16:07Z</time>
      </trkpt>
      <trkpt lat="43.7852800" lon="-91.7166200">
        <ele>253.9300000</ele>
        <time>2009-05-01T16:16:26Z</time>
      </trkpt>
      <trkpt lat="43.7846670" lon="-91.7142470">
        <ele>252.0000000</ele>
        <time>2009-05-01T16:16:34Z</time>
      </trkpt>
      <trkpt lat="43.7844270" lon="-91.7114230">
        <ele>245.7500000</ele>
        <time>2009-05-01T16:16:43Z</time>
      </trkpt>
      <trkpt lat="43.7847110" lon="-91.7089370">
        <ele>239.0200000</ele>
        <time>2009-05-01T16:16:51Z</time>
      </trkpt>
      <trkpt lat="43.7854810" lon="-91.7059540">
        <ele>231.3300000</ele>
        <time>2009-05-01T16:17:01Z</time>
      </trkpt>
      <trkpt lat="43.7870190" lon="-91.7000050">
        <ele>219.3200000</ele>
        <time>2009-05-01T16:17:21Z</time>
      </trkpt>
      <trkpt lat="43.7869390" lon="-91.6978130">
        <ele>216.4300000</ele>
        <time>2009-05-01T16:17:28Z</time>
      </trkpt>
      <trkpt lat="43.7863360" lon="-91.6954530">
        <ele>215.4700000</ele>
        <time>2009-05-01T16:17:36Z</time>
      </trkpt>
      <trkpt lat="43.7854260" lon="-91.6936460">
        <ele>215.4700000</ele>
        <time>2009-05-01T16:17:43Z</time>
      </trkpt>
      <trkpt lat="43.7839770" lon="-91.6921020">
        <ele>214.9900000</ele>
        <time>2009-05-01T16:17:51Z</time>
      </trkpt>
      <trkpt lat="43.7797690" lon="-91.6887830">
        <ele>215.4700000</ele>
        <time>2009-05-01T16:18:12Z</time>
      </trkpt>
      <trkpt lat="43.7775330" lon="-91.6879770">
        <ele>216.4300000</ele>
        <time>2009-05-01T16:18:22Z</time>
      </trkpt>
      <trkpt lat="43.7710520" lon="-91.6857980">
        <ele>218.3600000</ele>
        <time>2009-05-01T16:18:51Z</time>
      </trkpt>
      <trkpt lat="43.7677920" lon="-91.6843790">
        <ele>218.3600000</ele>
        <time>2009-05-01T16:19:06Z</time>
      </trkpt>
      <trkpt lat="43.7661270" lon="-91.6827810">
        <ele>219.8000000</ele>
        <time>2009-05-01T16:19:15Z</time>
      </trkpt>
      <trkpt lat="43.7648050" lon="-91.6806430">
        <ele>216.4300000</ele>
        <time>2009-05-01T16:19:24Z</time>
      </trkpt>
      <trkpt lat="43.7639920" lon="-91.6783750">
        <ele>216.9100000</ele>
        <time>2009-05-01T16:19:32Z</time>
      </trkpt>
      <trkpt lat="43.7630160" lon="-91.6738290">
        <ele>214.5100000</ele>
        <time>2009-05-01T16:19:47Z</time>
      </trkpt>
      <trkpt lat="43.7613100" lon="-91.6649710">
        <ele>214.5100000</ele>
        <time>2009-05-01T16:20:16Z</time>
      </trkpt>
      <trkpt lat="43.7611640" lon="-91.6611930">
        <ele>215.4700000</ele>
        <time>2009-05-01T16:20:28Z</time>
      </trkpt>
      <trkpt lat="43.7615470" lon="-91.6574480">
        <ele>214.9900000</ele>
        <time>2009-05-01T16:20:40Z</time>
      </trkpt>
      <trkpt lat="43.7623100" lon="-91.6538100">
        <ele>215.9500000</ele>
        <time>2009-05-01T16:20:52Z</time>
      </trkpt>
      <trkpt lat="43.7644200" lon="-91.6458040">
        <ele>223.1600000</ele>
        <time>2009-05-01T16:21:19Z</time>
      </trkpt>
      <trkpt lat="43.7657940" lon="-91.6425360">
        <ele>232.7800000</ele>
        <time>2009-05-01T16:21:31Z</time>
      </trkpt>
      <trkpt lat="43.7675620" lon="-91.6396180">
        <ele>242.3900000</ele>
        <time>2009-05-01T16:21:43Z</time>
      </trkpt>
      <trkpt lat="43.7718480" lon="-91.6334170">
        <ele>250.5600000</ele>
        <time>2009-05-01T16:22:10Z</time>
      </trkpt>
      <trkpt lat="43.7742380" lon="-91.6295690">
        <ele>240.9500000</ele>
        <time>2009-05-01T16:22:26Z</time>
      </trkpt>
      <trkpt lat="43.7747760" lon="-91.6275150">
        <ele>237.5800000</ele>
        <time>2009-05-01T16:22:33Z</time>
      </trkpt>
      <trkpt lat="43.7749820" lon="-91.6250140">
        <ele>234.2200000</ele>
        <time>2009-05-01T16:22:41Z</time>
      </trkpt>
      <trkpt lat="43.7745990" lon="-91.6225510">
        <ele>222.6800000</ele>
        <time>2009-05-01T16:22:49Z</time>
      </trkpt>
      <trkpt lat="43.7734590" lon="-91.6184280">
        <ele>215.4700000</ele>
        <time>2009-05-01T16:23:03Z</time>
      </trkpt>
      <trkpt lat="43.7720080" lon="-91.6127690">
        <ele>214.5100000</ele>
        <time>2009-05-01T16:23:22Z</time>
      </trkpt>
      <trkpt lat="43.7706260" lon="-91.6054320">
        <ele>214.5100000</ele>
        <time>2009-05-01T16:23:46Z</time>
      </trkpt>
      <trkpt lat="43.7695330" lon="-91.6026520">
        <ele>215.9500000</ele>
        <time>2009-05-01T16:23:56Z</time>
      </trkpt>
      <trkpt lat="43.7668680" lon="-91.5978870">
        <ele>215.4700000</ele>
        <time>2009-05-01T16:24:15Z</time>
      </trkpt>
      <trkpt lat="43.7654660" lon="-91.5946400">
        <ele>214.5100000</ele>
        <time>2009-05-01T16:24:27Z</time>
      </trkpt>
      <trkpt lat="43.7640070" lon="-91.5896480">
        <ele>212.1100000</ele>
        <time>2009-05-01T16:24:44Z</time>
      </trkpt>
      <trkpt lat="43.7630190" lon="-91.5851300">
        <ele>209.2200000</ele>
        <time>2009-05-01T16:24:59Z</time>
      </trkpt>
      <trkpt lat="43.7629780" lon="-91.5824740">
        <ele>210.1900000</ele>
        <time>2009-05-01T16:25:08Z</time>
      </trkpt>
      <trkpt lat="43.7630320" lon="-91.5801220">
        <ele>211.6300000</ele>
        <time>2009-05-01T16:25:18Z</time>
      </trkpt>
      <trkpt lat="43.7631000" lon="-91.5772910">
        <ele>209.7000000</ele>
        <time>2009-05-01T16:25:33Z</time>
      </trkpt>
      <trkpt lat="43.7631940" lon="-91.5715350">
        <ele>212.1100000</ele>
        <time>2009-05-01T16:26:05Z</time>
      </trkpt>
      <trkpt lat="43.7632230" lon="-91.5681580">
        <ele>213.5500000</ele>
        <time>2009-05-01T16:26:25Z</time>
      </trkpt>
      <trkpt lat="43.7632660" lon="-91.5649050">
        <ele>214.0300000</ele>
        <time>2009-05-01T16:26:47Z</time>
      </trkpt>
      <trkpt lat="43.7633090" lon="-91.5608280">
        <ele>213.0700000</ele>
        <time>2009-05-01T16:27:12Z</time>
      </trkpt>
      <trkpt lat="43.7633090" lon="-91.5572810">
        <ele>214.9900000</ele>
        <time>2009-05-01T16:27:30Z</time>
      </trkpt>
      <trkpt lat="43.7633090" lon="-91.5532550">
        <ele>214.9900000</ele>
        <time>2009-05-01T16:27:46Z</time>
      </trkpt>
      <trkpt lat="43.7633090" lon="-91.5516210">
        <ele>214.9900000</ele>
        <time>2009-05-01T16:27:54Z</time>
      </trkpt>
      <trkpt lat="43.7631500" lon="-91.5515220">
        <ele>214.5100000</ele>
        <time>2009-05-01T16:27:55Z</time>
      </trkpt>
      <trkpt lat="43.7630440" lon="-91.5515230">
        <ele>214.0300000</ele>
        <time>2009-05-01T16:27:56Z</time>
      </trkpt>
      <trkpt lat="43.7629370" lon="-91.5515250">
        <ele>213.5500000</ele>
        <time>2009-05-01T16:27:57Z</time>
      </trkpt>
      <trkpt lat="43.7628150" lon="-91.5515270">
        <ele>213.5500000</ele>
        <time>2009-05-01T16:27:58Z</time>
      </trkpt>
      <trkpt lat="43.7626750" lon="-91.5515280">
        <ele>213.0700000</ele>
        <time>2009-05-01T16:27:59Z</time>
      </trkpt>
      <trkpt lat="43.7610290" lon="-91.5515510">
        <ele>212.5900000</ele>
        <time>2009-05-01T16:28:09Z</time>
      </trkpt>
      <trkpt lat="43.7594560" lon="-91.5516830">
        <ele>212.5900000</ele>
        <time>2009-05-01T16:28:19Z</time>
      </trkpt>
      <trkpt lat="43.7569850" lon="-91.5521920">
        <ele>215.9500000</ele>
        <time>2009-05-01T16:28:38Z</time>
      </trkpt>
      <trkpt lat="43.7557140" lon="-91.5527950">
        <ele>219.3200000</ele>
        <time>2009-05-01T16:28:49Z</time>
      </trkpt>
      <trkpt lat="43.7552910" lon="-91.5531650">
        <ele>221.7200000</ele>
        <time>2009-05-01T16:28:55Z</time>
      </trkpt>
      <trkpt lat="43.7552350" lon="-91.5532150">
        <ele>222.2000000</ele>
        <time>2009-05-01T16:28:56Z</time>
      </trkpt>
      <trkpt lat="43.7551820" lon="-91.5532610">
        <ele>222.6800000</ele>
        <time>2009-05-01T16:28:57Z</time>
      </trkpt>
      <trkpt lat="43.7551320" lon="-91.5533050">
        <ele>223.1600000</ele>
        <time>2009-05-01T16:28:58Z</time>
      </trkpt>
      <trkpt lat="43.7550860" lon="-91.5533530">
        <ele>223.6400000</ele>
        <time>2009-05-01T16:28:59Z</time>
      </trkpt>
      <trkpt lat="43.7550400" lon="-91.5534090">
        <ele>224.1200000</ele>
        <time>2009-05-01T16:29:00Z</time>
      </trkpt>
      <trkpt lat="43.7549930" lon="-91.5534650">
        <ele>224.6100000</ele>
        <time>2009-05-01T16:29:01Z</time>
      </trkpt>
      <trkpt lat="43.7549440" lon="-91.5535240">
        <ele>225.0900000</ele>
        <time>2009-05-01T16:29:02Z</time>
      </trkpt>
      <trkpt lat="43.7548950" lon="-91.5535830">
        <ele>225.5700000</ele>
        <time>2009-05-01T16:29:03Z</time>
      </trkpt>
      <trkpt lat="43.7548490" lon="-91.5536380">
        <ele>225.5700000</ele>
        <time>2009-05-01T16:29:04Z</time>
      </trkpt>
      <trkpt lat="43.7548080" lon="-91.5536870">
        <ele>225.5700000</ele>
        <time>2009-05-01T16:29:05Z</time>
      </trkpt>
      <trkpt lat="43.7547720" lon="-91.5537300">
        <ele>225.5700000</ele>
        <time>2009-05-01T16:29:06Z</time>
      </trkpt>
      <trkpt lat="43.7547390" lon="-91.5537700">
        <ele>226.0500000</ele>
        <time>2009-05-01T16:29:07Z</time>
      </trkpt>
      <trkpt lat="43.7547090" lon="-91.5538070">
        <ele>226.0500000</ele>
        <time>2009-05-01T16:29:08Z</time>
      </trkpt>
      <trkpt lat="43.7542410" lon="-91.5543670">
        <ele>226.5300000</ele>
        <time>2009-05-01T16:29:19Z</time>
      </trkpt>
      <trkpt lat="43.7533040" lon="-91.5554830">
        <ele>229.8900000</ele>
        <time>2009-05-01T16:29:32Z</time>
      </trkpt>
      <trkpt lat="43.7520980" lon="-91.5564770">
        <ele>228.9300000</ele>
        <time>2009-05-01T16:29:45Z</time>
      </trkpt>
      <trkpt lat="43.7509130" lon="-91.5569340">
        <ele>227.4900000</ele>
        <time>2009-05-01T16:29:58Z</time>
      </trkpt>
      <trkpt lat="43.7494150" lon="-91.5574610">
        <ele>228.4500000</ele>
        <time>2009-05-01T16:30:20Z</time>
      </trkpt>
      <trkpt lat="43.7482320" lon="-91.5578770">
        <ele>228.9300000</ele>
        <time>2009-05-01T16:30:39Z</time>
      </trkpt>
      <trkpt lat="43.7476030" lon="-91.5580980">
        <ele>228.9300000</ele>
        <time>2009-05-01T16:30:52Z</time>
      </trkpt>
      <trkpt lat="43.7470610" lon="-91.5583560">
        <ele>229.4100000</ele>
        <time>2009-05-01T16:31:05Z</time>
      </trkpt>
      <trkpt lat="43.7463600" lon="-91.5587280">
        <ele>230.3700000</ele>
        <time>2009-05-01T16:31:13Z</time>
      </trkpt>
      <trkpt lat="43.7450910" lon="-91.5596310">
        <ele>227.4900000</ele>
        <time>2009-05-01T16:31:21Z</time>
      </trkpt>
      <trkpt lat="43.7434480" lon="-91.5609840">
        <ele>221.2400000</ele>
        <time>2009-05-01T16:31:29Z</time>
      </trkpt>
      <trkpt lat="43.7413710" lon="-91.5622360">
        <ele>217.8800000</ele>
        <time>2009-05-01T16:31:39Z</time>
      </trkpt>
      <trkpt lat="43.7389970" lon="-91.5639710">
        <ele>217.4000000</ele>
        <time>2009-05-01T16:31:51Z</time>
      </trkpt>
      <trkpt lat="43.7354540" lon="-91.5669480">
        <ele>218.8400000</ele>
        <time>2009-05-01T16:32:09Z</time>
      </trkpt>
      <trkpt lat="43.7319320" lon="-91.5697140">
        <ele>228.4500000</ele>
        <time>2009-05-01T16:32:27Z</time>
      </trkpt>
      <trkpt lat="43.7299310" lon="-91.5702650">
        <ele>229.4100000</ele>
        <time>2009-05-01T16:32:36Z</time>
      </trkpt>
      <trkpt lat="43.7267990" lon="-91.5705710">
        <ele>227.4900000</ele>
        <time>2009-05-01T16:32:50Z</time>
      </trkpt>
      <trkpt lat="43.7256050" lon="-91.5697950">
        <ele>231.3300000</ele>
        <time>2009-05-01T16:32:56Z</time>
      </trkpt>
      <trkpt lat="43.7224530" lon="-91.5673420">
        <ele>230.3700000</ele>
        <time>2009-05-01T16:33:12Z</time>
      </trkpt>
      <trkpt lat="43.7203520" lon="-91.5655110">
        <ele>227.9700000</ele>
        <time>2009-05-01T16:33:23Z</time>
      </trkpt>
      <trkpt lat="43.7182280" lon="-91.5637340">
        <ele>227.9700000</ele>
        <time>2009-05-01T16:33:34Z</time>
      </trkpt>
      <trkpt lat="43.7141250" lon="-91.5610830">
        <ele>233.7400000</ele>
        <time>2009-05-01T16:33:54Z</time>
      </trkpt>
      <trkpt lat="43.7093650" lon="-91.5590470">
        <ele>236.1400000</ele>
        <time>2009-05-01T16:34:16Z</time>
      </trkpt>
      <trkpt lat="43.7075980" lon="-91.5589560">
        <ele>245.2700000</ele>
        <time>2009-05-01T16:34:24Z</time>
      </trkpt>
      <trkpt lat="43.7044780" lon="-91.5596470">
        <ele>256.8100000</ele>
        <time>2009-05-01T16:34:38Z</time>
      </trkpt>
      <trkpt lat="43.7036050" lon="-91.5598760">
        <ele>253.4400000</ele>
        <time>2009-05-01T16:34:42Z</time>
      </trkpt>
      <trkpt lat="43.7033770" lon="-91.5598480">
        <ele>252.4800000</ele>
        <time>2009-05-01T16:34:43Z</time>
      </trkpt>
      <trkpt lat="43.7031520" lon="-91.5597870">
        <ele>252.4800000</ele>
        <time>2009-05-01T16:34:44Z</time>
      </trkpt>
      <trkpt lat="43.7029640" lon="-91.5596570">
        <ele>252.0000000</ele>
        <time>2009-05-01T16:34:45Z</time>
      </trkpt>
      <trkpt lat="43.7027910" lon="-91.5594650">
        <ele>251.0400000</ele>
        <time>2009-05-01T16:34:46Z</time>
      </trkpt>
      <trkpt lat="43.7026540" lon="-91.5592990">
        <ele>251.0400000</ele>
        <time>2009-05-01T16:34:47Z</time>
      </trkpt>
      <trkpt lat="43.7025280" lon="-91.5590550">
        <ele>251.0400000</ele>
        <time>2009-05-01T16:34:48Z</time>
      </trkpt>
      <trkpt lat="43.7023980" lon="-91.5588010">
        <ele>252.0000000</ele>
        <time>2009-05-01T16:34:49Z</time>
      </trkpt>
      <trkpt lat="43.7022680" lon="-91.5585490">
        <ele>252.4800000</ele>
        <time>2009-05-01T16:34:50Z</time>
      </trkpt>
      <trkpt lat="43.7017020" lon="-91.5575740">
        <ele>252.0000000</ele>
        <time>2009-05-01T16:34:54Z</time>
      </trkpt>
      <trkpt lat="43.7015340" lon="-91.5573900">
        <ele>252.4800000</ele>
        <time>2009-05-01T16:34:55Z</time>
      </trkpt>
      <trkpt lat="43.7013670" lon="-91.5572060">
        <ele>252.4800000</ele>
        <time>2009-05-01T16:34:56Z</time>
      </trkpt>
      <trkpt lat="43.7010310" lon="-91.5568370">
        <ele>253.4400000</ele>
        <time>2009-05-01T16:34:58Z</time>
      </trkpt>
      <trkpt lat="43.7008950" lon="-91.5566160">
        <ele>253.4400000</ele>
        <time>2009-05-01T16:34:59Z</time>
      </trkpt>
      <trkpt lat="43.7007680" lon="-91.5563870">
        <ele>253.9300000</ele>
        <time>2009-05-01T16:35:00Z</time>
      </trkpt>
      <trkpt lat="43.6996700" lon="-91.5545730">
        <ele>256.8100000</ele>
        <time>2009-05-01T16:35:09Z</time>
      </trkpt>
      <trkpt lat="43.6986130" lon="-91.5537430">
        <ele>253.4400000</ele>
        <time>2009-05-01T16:35:16Z</time>
      </trkpt>
      <trkpt lat="43.6974270" lon="-91.5524950">
        <ele>250.0800000</ele>
        <time>2009-05-01T16:35:24Z</time>
      </trkpt>
      <trkpt lat="43.6951800" lon="-91.5497020">
        <ele>243.3500000</ele>
        <time>2009-05-01T16:35:40Z</time>
      </trkpt>
      <trkpt lat="43.6930790" lon="-91.5477570">
        <ele>247.6800000</ele>
        <time>2009-05-01T16:35:54Z</time>
      </trkpt>
      <trkpt lat="43.6913390" lon="-91.5470920">
        <ele>252.0000000</ele>
        <time>2009-05-01T16:36:05Z</time>
      </trkpt>
      <trkpt lat="43.6910150" lon="-91.5469790">
        <ele>252.4800000</ele>
        <time>2009-05-01T16:36:07Z</time>
      </trkpt>
      <trkpt lat="43.6908490" lon="-91.5469070">
        <ele>252.4800000</ele>
        <time>2009-05-01T16:36:08Z</time>
      </trkpt>
      <trkpt lat="43.6907200" lon="-91.5467700">
        <ele>252.4800000</ele>
        <time>2009-05-01T16:36:09Z</time>
      </trkpt>
      <trkpt lat="43.6897580" lon="-91.5456050">
        <ele>254.4100000</ele>
        <time>2009-05-01T16:36:17Z</time>
      </trkpt>
      <trkpt lat="43.6896660" lon="-91.5454260">
        <ele>254.8900000</ele>
        <time>2009-05-01T16:36:18Z</time>
      </trkpt>
      <trkpt lat="43.6896390" lon="-91.5452330">
        <ele>254.8900000</ele>
        <time>2009-05-01T16:36:19Z</time>
      </trkpt>
      <trkpt lat="43.6896020" lon="-91.5449730">
        <ele>255.3700000</ele>
        <time>2009-05-01T16:36:20Z</time>
      </trkpt>
      <trkpt lat="43.6895890" lon="-91.5447540">
        <ele>255.3700000</ele>
        <time>2009-05-01T16:36:21Z</time>
      </trkpt>
      <trkpt lat="43.6896180" lon="-91.5445250">
        <ele>255.8500000</ele>
        <time>2009-05-01T16:36:22Z</time>
      </trkpt>
      <trkpt lat="43.6897050" lon="-91.5442940">
        <ele>256.3300000</ele>
        <time>2009-05-01T16:36:23Z</time>
      </trkpt>
      <trkpt lat="43.6898010" lon="-91.5440760">
        <ele>257.2900000</ele>
        <time>2009-05-01T16:36:24Z</time>
      </trkpt>
      <trkpt lat="43.6898940" lon="-91.5438640">
        <ele>257.7700000</ele>
        <time>2009-05-01T16:36:25Z</time>
      </trkpt>
      <trkpt lat="43.6899420" lon="-91.5436350">
        <ele>258.7300000</ele>
        <time>2009-05-01T16:36:26Z</time>
      </trkpt>
      <trkpt lat="43.6899670" lon="-91.5434090">
        <ele>259.6900000</ele>
        <time>2009-05-01T16:36:27Z</time>
      </trkpt>
      <trkpt lat="43.6899030" lon="-91.5431940">
        <ele>259.6900000</ele>
        <time>2009-05-01T16:36:28Z</time>
      </trkpt>
      <trkpt lat="43.6897910" lon="-91.5429710">
        <ele>260.6500000</ele>
        <time>2009-05-01T16:36:29Z</time>
      </trkpt>
      <trkpt lat="43.6896530" lon="-91.5427520">
        <ele>261.6200000</ele>
        <time>2009-05-01T16:36:30Z</time>
      </trkpt>
      <trkpt lat="43.6895190" lon="-91.5425620">
        <ele>261.1400000</ele>
        <time>2009-05-01T16:36:31Z</time>
      </trkpt>
      <trkpt lat="43.6893810" lon="-91.5423660">
        <ele>261.6200000</ele>
        <time>2009-05-01T16:36:32Z</time>
      </trkpt>
      <trkpt lat="43.6887710" lon="-91.5414020">
        <ele>265.9400000</ele>
        <time>2009-05-01T16:36:37Z</time>
      </trkpt>
      <trkpt lat="43.6886760" lon="-91.5412060">
        <ele>266.9000000</ele>
        <time>2009-05-01T16:36:38Z</time>
      </trkpt>
      <trkpt lat="43.6886210" lon="-91.5409660">
        <ele>267.8600000</ele>
        <time>2009-05-01T16:36:39Z</time>
      </trkpt>
      <trkpt lat="43.6879610" lon="-91.5388460">
        <ele>276.0400000</ele>
        <time>2009-05-01T16:36:48Z</time>
      </trkpt>
      <trkpt lat="43.6872820" lon="-91.5375950">
        <ele>278.9200000</ele>
        <time>2009-05-01T16:36:55Z</time>
      </trkpt>
      <trkpt lat="43.6872400" lon="-91.5374040">
        <ele>278.9200000</ele>
        <time>2009-05-01T16:36:56Z</time>
      </trkpt>
      <trkpt lat="43.6872430" lon="-91.5372240">
        <ele>279.4000000</ele>
        <time>2009-05-01T16:36:57Z</time>
      </trkpt>
      <trkpt lat="43.6873010" lon="-91.5369920">
        <ele>279.4000000</ele>
        <time>2009-05-01T16:36:58Z</time>
      </trkpt>
      <trkpt lat="43.6873860" lon="-91.5368110">
        <ele>279.8800000</ele>
        <time>2009-05-01T16:36:59Z</time>
      </trkpt>
      <trkpt lat="43.6874960" lon="-91.5366640">
        <ele>280.3600000</ele>
        <time>2009-05-01T16:37:00Z</time>
      </trkpt>
      <trkpt lat="43.6876310" lon="-91.5365550">
        <ele>280.8400000</ele>
        <time>2009-05-01T16:37:01Z</time>
      </trkpt>
      <trkpt lat="43.6877660" lon="-91.5364450">
        <ele>281.3200000</ele>
        <time>2009-05-01T16:37:02Z</time>
      </trkpt>
      <trkpt lat="43.6879100" lon="-91.5363290">
        <ele>281.8000000</ele>
        <time>2009-05-01T16:37:03Z</time>
      </trkpt>
      <trkpt lat="43.6880560" lon="-91.5362100">
        <ele>282.7700000</ele>
        <time>2009-05-01T16:37:04Z</time>
      </trkpt>
      <trkpt lat="43.6883540" lon="-91.5359600">
        <ele>285.1700000</ele>
        <time>2009-05-01T16:37:06Z</time>
      </trkpt>
      <trkpt lat="43.6884690" lon="-91.5358010">
        <ele>286.1300000</ele>
        <time>2009-05-01T16:37:07Z</time>
      </trkpt>
      <trkpt lat="43.6885440" lon="-91.5356010">
        <ele>286.6100000</ele>
        <time>2009-05-01T16:37:08Z</time>
      </trkpt>
      <trkpt lat="43.6885930" lon="-91.5353900">
        <ele>287.5700000</ele>
        <time>2009-05-01T16:37:09Z</time>
      </trkpt>
      <trkpt lat="43.6885800" lon="-91.5351140">
        <ele>288.5300000</ele>
        <time>2009-05-01T16:37:10Z</time>
      </trkpt>
      <trkpt lat="43.6885450" lon="-91.5348710">
        <ele>289.9700000</ele>
        <time>2009-05-01T16:37:11Z</time>
      </trkpt>
      <trkpt lat="43.6885090" lon="-91.5346210">
        <ele>291.9000000</ele>
        <time>2009-05-01T16:37:12Z</time>
      </trkpt>
      <trkpt lat="43.6884730" lon="-91.5343700">
        <ele>292.8600000</ele>
        <time>2009-05-01T16:37:13Z</time>
      </trkpt>
      <trkpt lat="43.6884280" lon="-91.5341250">
        <ele>294.3000000</ele>
        <time>2009-05-01T16:37:14Z</time>
      </trkpt>
      <trkpt lat="43.6883780" lon="-91.5338790">
        <ele>295.2600000</ele>
        <time>2009-05-01T16:37:15Z</time>
      </trkpt>
      <trkpt lat="43.6882970" lon="-91.5336430">
        <ele>296.7000000</ele>
        <time>2009-05-01T16:37:16Z</time>
      </trkpt>
      <trkpt lat="43.6879030" lon="-91.5324930">
        <ele>302.9500000</ele>
        <time>2009-05-01T16:37:21Z</time>
      </trkpt>
      <trkpt lat="43.6878640" lon="-91.5322800">
        <ele>304.3900000</ele>
        <time>2009-05-01T16:37:22Z</time>
      </trkpt>
      <trkpt lat="43.6878640" lon="-91.5320430">
        <ele>305.3600000</ele>
        <time>2009-05-01T16:37:23Z</time>
      </trkpt>
      <trkpt lat="43.6879140" lon="-91.5318350">
        <ele>306.3200000</ele>
        <time>2009-05-01T16:37:24Z</time>
      </trkpt>
      <trkpt lat="43.6879750" lon="-91.5315920">
        <ele>307.2800000</ele>
        <time>2009-05-01T16:37:25Z</time>
      </trkpt>
      <trkpt lat="43.6880310" lon="-91.5313660">
        <ele>308.2400000</ele>
        <time>2009-05-01T16:37:26Z</time>
      </trkpt>
      <trkpt lat="43.6880780" lon="-91.5311640">
        <ele>309.2000000</ele>
        <time>2009-05-01T16:37:27Z</time>
      </trkpt>
      <trkpt lat="43.6880710" lon="-91.5309370">
        <ele>310.1600000</ele>
        <time>2009-05-01T16:37:28Z</time>
      </trkpt>
      <trkpt lat="43.6880650" lon="-91.5307150">
        <ele>310.1600000</ele>
        <time>2009-05-01T16:37:29Z</time>
      </trkpt>
      <trkpt lat="43.6880590" lon="-91.5304970">
        <ele>310.6400000</ele>
        <time>2009-05-01T16:37:30Z</time>
      </trkpt>
      <trkpt lat="43.6879660" lon="-91.5294510">
        <ele>312.5700000</ele>
        <time>2009-05-01T16:37:35Z</time>
      </trkpt>
      <trkpt lat="43.6879050" lon="-91.5292520">
        <ele>313.5300000</ele>
        <time>2009-05-01T16:37:36Z</time>
      </trkpt>
      <trkpt lat="43.6878370" lon="-91.5290610">
        <ele>314.0100000</ele>
        <time>2009-05-01T16:37:37Z</time>
      </trkpt>
      <trkpt lat="43.6877470" lon="-91.5288720">
        <ele>314.9700000</ele>
        <time>2009-05-01T16:37:38Z</time>
      </trkpt>
      <trkpt lat="43.6876570" lon="-91.5286810">
        <ele>315.9300000</ele>
        <time>2009-05-01T16:37:39Z</time>
      </trkpt>
      <trkpt lat="43.6875660" lon="-91.5284900">
        <ele>317.3700000</ele>
        <time>2009-05-01T16:37:40Z</time>
      </trkpt>
      <trkpt lat="43.6874250" lon="-91.5280810">
        <ele>318.8100000</ele>
        <time>2009-05-01T16:37:42Z</time>
      </trkpt>
      <trkpt lat="43.6873720" lon="-91.5278620">
        <ele>319.7800000</ele>
        <time>2009-05-01T16:37:43Z</time>
      </trkpt>
      <trkpt lat="43.6873190" lon="-91.5276400">
        <ele>320.7400000</ele>
        <time>2009-05-01T16:37:44Z</time>
      </trkpt>
      <trkpt lat="43.6872650" lon="-91.5274140">
        <ele>321.7000000</ele>
        <time>2009-05-01T16:37:45Z</time>
      </trkpt>
      <trkpt lat="43.6871840" lon="-91.5271780">
        <ele>322.1800000</ele>
        <time>2009-05-01T16:37:46Z</time>
      </trkpt>
      <trkpt lat="43.6870650" lon="-91.5270120">
        <ele>322.6600000</ele>
        <time>2009-05-01T16:37:47Z</time>
      </trkpt>
      <trkpt lat="43.6869560" lon="-91.5268000">
        <ele>323.6200000</ele>
        <time>2009-05-01T16:37:48Z</time>
      </trkpt>
      <trkpt lat="43.6868730" lon="-91.5265840">
        <ele>324.5800000</ele>
        <time>2009-05-01T16:37:49Z</time>
      </trkpt>
      <trkpt lat="43.6867910" lon="-91.5263710">
        <ele>325.5400000</ele>
        <time>2009-05-01T16:37:50Z</time>
      </trkpt>
      <trkpt lat="43.6867550" lon="-91.5261340">
        <ele>326.5000000</ele>
        <time>2009-05-01T16:37:51Z</time>
      </trkpt>
      <trkpt lat="43.6867200" lon="-91.5259080">
        <ele>326.9900000</ele>
        <time>2009-05-01T16:37:52Z</time>
      </trkpt>
      <trkpt lat="43.6866590" lon="-91.5256800">
        <ele>327.4700000</ele>
        <time>2009-05-01T16:37:53Z</time>
      </trkpt>
      <trkpt lat="43.6865870" lon="-91.5254770">
        <ele>328.9100000</ele>
        <time>2009-05-01T16:37:54Z</time>
      </trkpt>
      <trkpt lat="43.6865150" lon="-91.5252700">
        <ele>329.8700000</ele>
        <time>2009-05-01T16:37:55Z</time>
      </trkpt>
      <trkpt lat="43.6863840" lon="-91.5246030">
        <ele>333.2300000</ele>
        <time>2009-05-01T16:37:58Z</time>
      </trkpt>
      <trkpt lat="43.6863700" lon="-91.5243660">
        <ele>333.7100000</ele>
        <time>2009-05-01T16:37:59Z</time>
      </trkpt>
      <trkpt lat="43.6863240" lon="-91.5241260">
        <ele>334.6800000</ele>
        <time>2009-05-01T16:38:00Z</time>
      </trkpt>
      <trkpt lat="43.6862450" lon="-91.5239130">
        <ele>335.6400000</ele>
        <time>2009-05-01T16:38:01Z</time>
      </trkpt>
      <trkpt lat="43.6861630" lon="-91.5236950">
        <ele>336.6000000</ele>
        <time>2009-05-01T16:38:02Z</time>
      </trkpt>
      <trkpt lat="43.6861040" lon="-91.5234500">
        <ele>337.5600000</ele>
        <time>2009-05-01T16:38:03Z</time>
      </trkpt>
      <trkpt lat="43.6861500" lon="-91.5230180">
        <ele>339.0000000</ele>
        <time>2009-05-01T16:38:05Z</time>
      </trkpt>
      <trkpt lat="43.6861920" lon="-91.5227750">
        <ele>339.9600000</ele>
        <time>2009-05-01T16:38:06Z</time>
      </trkpt>
      <trkpt lat="43.6862320" lon="-91.5225450">
        <ele>339.9600000</ele>
        <time>2009-05-01T16:38:07Z</time>
      </trkpt>
      <trkpt lat="43.6862720" lon="-91.5223150">
        <ele>340.4400000</ele>
        <time>2009-05-01T16:38:08Z</time>
      </trkpt>
      <trkpt lat="43.6862510" lon="-91.5220930">
        <ele>341.4100000</ele>
        <time>2009-05-01T16:38:09Z</time>
      </trkpt>
      <trkpt lat="43.6861890" lon="-91.5218470">
        <ele>342.3700000</ele>
        <time>2009-05-01T16:38:10Z</time>
      </trkpt>
      <trkpt lat="43.6860830" lon="-91.5216090">
        <ele>342.3700000</ele>
        <time>2009-05-01T16:38:11Z</time>
      </trkpt>
      <trkpt lat="43.6859640" lon="-91.5213820">
        <ele>342.8500000</ele>
        <time>2009-05-01T16:38:12Z</time>
      </trkpt>
      <trkpt lat="43.6858480" lon="-91.5211610">
        <ele>343.3300000</ele>
        <time>2009-05-01T16:38:13Z</time>
      </trkpt>
      <trkpt lat="43.6857310" lon="-91.5209390">
        <ele>344.2900000</ele>
        <time>2009-05-01T16:38:14Z</time>
      </trkpt>
      <trkpt lat="43.6856260" lon="-91.5207030">
        <ele>344.2900000</ele>
        <time>2009-05-01T16:38:15Z</time>
      </trkpt>
      <trkpt lat="43.6855970" lon="-91.5204650">
        <ele>345.2500000</ele>
        <time>2009-05-01T16:38:16Z</time>
      </trkpt>
      <trkpt lat="43.6856110" lon="-91.5202130">
        <ele>345.2500000</ele>
        <time>2009-05-01T16:38:17Z</time>
      </trkpt>
      <trkpt lat="43.6856400" lon="-91.5199460">
        <ele>345.7300000</ele>
        <time>2009-05-01T16:38:18Z</time>
      </trkpt>
      <trkpt lat="43.6856700" lon="-91.5196780">
        <ele>346.2100000</ele>
        <time>2009-05-01T16:38:19Z</time>
      </trkpt>
      <trkpt lat="43.6857180" lon="-91.5191550">
        <ele>345.7300000</ele>
        <time>2009-05-01T16:38:21Z</time>
      </trkpt>
      <trkpt lat="43.6856780" lon="-91.5189130">
        <ele>345.7300000</ele>
        <time>2009-05-01T16:38:22Z</time>
      </trkpt>
      <trkpt lat="43.6855970" lon="-91.5186680">
        <ele>346.2100000</ele>
        <time>2009-05-01T16:38:23Z</time>
      </trkpt>
      <trkpt lat="43.6854880" lon="-91.5184440">
        <ele>347.1700000</ele>
        <time>2009-05-01T16:38:24Z</time>
      </trkpt>
      <trkpt lat="43.6853770" lon="-91.5182220">
        <ele>347.6500000</ele>
        <time>2009-05-01T16:38:25Z</time>
      </trkpt>
      <trkpt lat="43.6853340" lon="-91.5179540">
        <ele>348.1300000</ele>
        <time>2009-05-01T16:38:26Z</time>
      </trkpt>
      <trkpt lat="43.6852910" lon="-91.5176740">
        <ele>348.1300000</ele>
        <time>2009-05-01T16:38:27Z</time>
      </trkpt>
      <trkpt lat="43.6852790" lon="-91.5174270">
        <ele>349.1000000</ele>
        <time>2009-05-01T16:38:28Z</time>
      </trkpt>
      <trkpt lat="43.6852680" lon="-91.5171790">
        <ele>350.5400000</ele>
        <time>2009-05-01T16:38:29Z</time>
      </trkpt>
      <trkpt lat="43.6852580" lon="-91.5169370">
        <ele>351.5000000</ele>
        <time>2009-05-01T16:38:30Z</time>
      </trkpt>
      <trkpt lat="43.6854180" lon="-91.5152080">
        <ele>359.6700000</ele>
        <time>2009-05-01T16:38:38Z</time>
      </trkpt>
      <trkpt lat="43.6853980" lon="-91.5150120">
        <ele>360.1500000</ele>
        <time>2009-05-01T16:38:39Z</time>
      </trkpt>
      <trkpt lat="43.6853630" lon="-91.5148100">
        <ele>361.1100000</ele>
        <time>2009-05-01T16:38:40Z</time>
      </trkpt>
      <trkpt lat="43.6853280" lon="-91.5146080">
        <ele>361.5900000</ele>
        <time>2009-05-01T16:38:41Z</time>
      </trkpt>
      <trkpt lat="43.6852930" lon="-91.5144040">
        <ele>362.5500000</ele>
        <time>2009-05-01T16:38:42Z</time>
      </trkpt>
      <trkpt lat="43.6851600" lon="-91.5126570">
        <ele>368.8000000</ele>
        <time>2009-05-01T16:38:51Z</time>
      </trkpt>
      <trkpt lat="43.6851320" lon="-91.5117090">
        <ele>369.2800000</ele>
        <time>2009-05-01T16:38:57Z</time>
      </trkpt>
      <trkpt lat="43.6850550" lon="-91.5116090">
        <ele>368.8000000</ele>
        <time>2009-05-01T16:38:58Z</time>
      </trkpt>
      <trkpt lat="43.6849320" lon="-91.5115650">
        <ele>368.8000000</ele>
        <time>2009-05-01T16:38:59Z</time>
      </trkpt>
      <trkpt lat="43.6847850" lon="-91.5115650">
        <ele>368.3200000</ele>
        <time>2009-05-01T16:39:00Z</time>
      </trkpt>
      <trkpt lat="43.6846350" lon="-91.5115650">
        <ele>367.8400000</ele>
        <time>2009-05-01T16:39:01Z</time>
      </trkpt>
      <trkpt lat="43.6824560" lon="-91.5115650">
        <ele>369.2800000</ele>
        <time>2009-05-01T16:39:14Z</time>
      </trkpt>
      <trkpt lat="43.6801450" lon="-91.5115250">
        <ele>371.2100000</ele>
        <time>2009-05-01T16:39:27Z</time>
      </trkpt>
      <trkpt lat="43.6762120" lon="-91.5115220">
        <ele>372.6500000</ele>
        <time>2009-05-01T16:39:48Z</time>
      </trkpt>
      <trkpt lat="43.6725440" lon="-91.5115220">
        <ele>375.5300000</ele>
        <time>2009-05-01T16:40:08Z</time>
      </trkpt>
      <trkpt lat="43.6687960" lon="-91.5115220">
        <ele>374.5700000</ele>
        <time>2009-05-01T16:40:27Z</time>
      </trkpt>
      <trkpt lat="43.6658580" lon="-91.5115220">
        <ele>370.2400000</ele>
        <time>2009-05-01T16:40:40Z</time>
      </trkpt>
      <trkpt lat="43.6634890" lon="-91.5115220">
        <ele>370.7300000</ele>
        <time>2009-05-01T16:40:50Z</time>
      </trkpt>
      <trkpt lat="43.6613920" lon="-91.5115220">
        <ele>373.1300000</ele>
        <time>2009-05-01T16:40:59Z</time>
      </trkpt>
      <trkpt lat="43.6582380" lon="-91.5115180">
        <ele>381.3000000</ele>
        <time>2009-05-01T16:41:15Z</time>
      </trkpt>
      <trkpt lat="43.6546610" lon="-91.5115080">
        <ele>379.3800000</ele>
        <time>2009-05-01T16:41:32Z</time>
      </trkpt>
      <trkpt lat="43.6505310" lon="-91.5114950">
        <ele>371.2100000</ele>
        <time>2009-05-01T16:41:52Z</time>
      </trkpt>
      <trkpt lat="43.6469670" lon="-91.5114850">
        <ele>373.1300000</ele>
        <time>2009-05-01T16:42:10Z</time>
      </trkpt>
      <trkpt lat="43.6456290" lon="-91.5114810">
        <ele>372.1700000</ele>
        <time>2009-05-01T16:42:19Z</time>
      </trkpt>
      <trkpt lat="43.6453470" lon="-91.5114800">
        <ele>372.6500000</ele>
        <time>2009-05-01T16:42:26Z</time>
      </trkpt>
      <trkpt lat="43.6451210" lon="-91.5114240">
        <ele>372.6500000</ele>
        <time>2009-05-01T16:42:34Z</time>
      </trkpt>
      <trkpt lat="43.6451220" lon="-91.5113300">
        <ele>372.1700000</ele>
        <time>2009-05-01T16:42:35Z</time>
      </trkpt>
      <trkpt lat="43.6451230" lon="-91.5112320">
        <ele>370.7300000</ele>
        <time>2009-05-01T16:42:36Z</time>
      </trkpt>
      <trkpt lat="43.6451250" lon="-91.5111300">
        <ele>370.7300000</ele>
        <time>2009-05-01T16:42:37Z</time>
      </trkpt>
      <trkpt lat="43.6451270" lon="-91.5109970">
        <ele>371.2100000</ele>
        <time>2009-05-01T16:42:38Z</time>
      </trkpt>
      <trkpt lat="43.6451450" lon="-91.5096120">
        <ele>368.8000000</ele>
        <time>2009-05-01T16:42:45Z</time>
      </trkpt>
      <trkpt lat="43.6451860" lon="-91.5056730">
        <ele>368.3200000</ele>
        <time>2009-05-01T16:43:02Z</time>
      </trkpt>
      <trkpt lat="43.6451580" lon="-91.5015070">
        <ele>366.8800000</ele>
        <time>2009-05-01T16:43:21Z</time>
      </trkpt>
      <trkpt lat="43.6446040" lon="-91.5000930">
        <ele>361.5900000</ele>
        <time>2009-05-01T16:43:29Z</time>
      </trkpt>
      <trkpt lat="43.6434750" lon="-91.4978640">
        <ele>351.9800000</ele>
        <time>2009-05-01T16:43:44Z</time>
      </trkpt>
      <trkpt lat="43.6433540" lon="-91.4976370">
        <ele>351.5000000</ele>
        <time>2009-05-01T16:43:51Z</time>
      </trkpt>
      <trkpt lat="43.6431970" lon="-91.4975880">
        <ele>350.5400000</ele>
        <time>2009-05-01T16:44:09Z</time>
      </trkpt>
      <trkpt lat="43.6431640" lon="-91.4976300">
        <ele>351.0200000</ele>
        <time>2009-05-01T16:44:10Z</time>
      </trkpt>
      <trkpt lat="43.6431180" lon="-91.4976890">
        <ele>351.0200000</ele>
        <time>2009-05-01T16:44:11Z</time>
      </trkpt>
      <trkpt lat="43.6430650" lon="-91.4977560">
        <ele>351.5000000</ele>
        <time>2009-05-01T16:44:12Z</time>
      </trkpt>
      <trkpt lat="43.6430060" lon="-91.4978310">
        <ele>351.9800000</ele>
        <time>2009-05-01T16:44:13Z</time>
      </trkpt>
      <trkpt lat="43.6429370" lon="-91.4979190">
        <ele>352.4600000</ele>
        <time>2009-05-01T16:44:14Z</time>
      </trkpt>
      <trkpt lat="43.6421380" lon="-91.4989350">
        <ele>357.7500000</ele>
        <time>2009-05-01T16:44:22Z</time>
      </trkpt>
      <trkpt lat="43.6405580" lon="-91.5010170">
        <ele>366.4000000</ele>
        <time>2009-05-01T16:44:35Z</time>
      </trkpt>
      <trkpt lat="43.6391660" lon="-91.5027550">
        <ele>366.8800000</ele>
        <time>2009-05-01T16:44:47Z</time>
      </trkpt>
      <trkpt lat="43.6376700" lon="-91.5038750">
        <ele>362.0700000</ele>
        <time>2009-05-01T16:44:58Z</time>
      </trkpt>
      <trkpt lat="43.6356660" lon="-91.5046300">
        <ele>356.3100000</ele>
        <time>2009-05-01T16:45:11Z</time>
      </trkpt>
      <trkpt lat="43.6336120" lon="-91.5053080">
        <ele>356.7900000</ele>
        <time>2009-05-01T16:45:24Z</time>
      </trkpt>
      <trkpt lat="43.6300570" lon="-91.5064580">
        <ele>345.7300000</ele>
        <time>2009-05-01T16:45:44Z</time>
      </trkpt>
      <trkpt lat="43.6274650" lon="-91.5066760">
        <ele>344.2900000</ele>
        <time>2009-05-01T16:45:58Z</time>
      </trkpt>
      <trkpt lat="43.6243570" lon="-91.5067100">
        <ele>339.4800000</ele>
        <time>2009-05-01T16:46:13Z</time>
      </trkpt>
      <trkpt lat="43.6200150" lon="-91.5067160">
        <ele>349.5800000</ele>
        <time>2009-05-01T16:46:32Z</time>
      </trkpt>
      <trkpt lat="43.6152840" lon="-91.5066580">
        <ele>350.5400000</ele>
        <time>2009-05-01T16:46:53Z</time>
      </trkpt>
      <trkpt lat="43.6101920" lon="-91.5063490">
        <ele>349.1000000</ele>
        <time>2009-05-01T16:47:16Z</time>
      </trkpt>
      <trkpt lat="43.6057640" lon="-91.5063230">
        <ele>358.7100000</ele>
        <time>2009-05-01T16:47:36Z</time>
      </trkpt>
      <trkpt lat="43.6041260" lon="-91.5072700">
        <ele>358.7100000</ele>
        <time>2009-05-01T16:47:44Z</time>
      </trkpt>
      <trkpt lat="43.6029440" lon="-91.5086650">
        <ele>358.7100000</ele>
        <time>2009-05-01T16:47:51Z</time>
      </trkpt>
      <trkpt lat="43.6021670" lon="-91.5102960">
        <ele>358.7100000</ele>
        <time>2009-05-01T16:47:58Z</time>
      </trkpt>
      <trkpt lat="43.6018010" lon="-91.5116080">
        <ele>359.1900000</ele>
        <time>2009-05-01T16:48:05Z</time>
      </trkpt>
      <trkpt lat="43.6017320" lon="-91.5116080">
        <ele>359.6700000</ele>
        <time>2009-05-01T16:48:06Z</time>
      </trkpt>
      <trkpt lat="43.6016100" lon="-91.5116080">
        <ele>359.1900000</ele>
        <time>2009-05-01T16:48:07Z</time>
      </trkpt>
      <trkpt lat="43.6014700" lon="-91.5116080">
        <ele>359.1900000</ele>
        <time>2009-05-01T16:48:08Z</time>
      </trkpt>
      <trkpt lat="43.6013240" lon="-91.5116080">
        <ele>360.1500000</ele>
        <time>2009-05-01T16:48:09Z</time>
      </trkpt>
      <trkpt lat="43.5996280" lon="-91.5115960">
        <ele>361.5900000</ele>
        <time>2009-05-01T16:48:18Z</time>
      </trkpt>
      <trkpt lat="43.5961430" lon="-91.5115530">
        <ele>365.4400000</ele>
        <time>2009-05-01T16:48:35Z</time>
      </trkpt>
      <trkpt lat="43.5914000" lon="-91.5115250">
        <ele>364.0000000</ele>
        <time>2009-05-01T16:48:56Z</time>
      </trkpt>
      <trkpt lat="43.5859910" lon="-91.5117240">
        <ele>337.0800000</ele>
        <time>2009-05-01T16:49:20Z</time>
      </trkpt>
      <trkpt lat="43.5833280" lon="-91.5122830">
        <ele>325.5400000</ele>
        <time>2009-05-01T16:49:32Z</time>
      </trkpt>
      <trkpt lat="43.5808770" lon="-91.5121160">
        <ele>325.0600000</ele>
        <time>2009-05-01T16:49:43Z</time>
      </trkpt>
      <trkpt lat="43.5786630" lon="-91.5125070">
        <ele>338.0400000</ele>
        <time>2009-05-01T16:49:53Z</time>
      </trkpt>
      <trkpt lat="43.5730770" lon="-91.5135640">
        <ele>356.3100000</ele>
        <time>2009-05-01T16:50:18Z</time>
      </trkpt>
      <trkpt lat="43.5699310" lon="-91.5134580">
        <ele>344.2900000</ele>
        <time>2009-05-01T16:50:32Z</time>
      </trkpt>
      <trkpt lat="43.5646420" lon="-91.5130970">
        <ele>319.7800000</ele>
        <time>2009-05-01T16:50:56Z</time>
      </trkpt>
      <trkpt lat="43.5626810" lon="-91.5134640">
        <ele>314.0100000</ele>
        <time>2009-05-01T16:51:05Z</time>
      </trkpt>
      <trkpt lat="43.5602880" lon="-91.5137540">
        <ele>316.8900000</ele>
        <time>2009-05-01T16:51:16Z</time>
      </trkpt>
      <trkpt lat="43.5581350" lon="-91.5132740">
        <ele>327.9500000</ele>
        <time>2009-05-01T16:51:26Z</time>
      </trkpt>
      <trkpt lat="43.5516090" lon="-91.5115540">
        <ele>338.5200000</ele>
        <time>2009-05-01T16:51:56Z</time>
      </trkpt>
      <trkpt lat="43.5482200" lon="-91.5103410">
        <ele>338.0400000</ele>
        <time>2009-05-01T16:52:12Z</time>
      </trkpt>
      <trkpt lat="43.5465350" lon="-91.5089360">
        <ele>340.9200000</ele>
        <time>2009-05-01T16:52:21Z</time>
      </trkpt>
      <trkpt lat="43.5446450" lon="-91.5063970">
        <ele>345.2500000</ele>
        <time>2009-05-01T16:52:33Z</time>
      </trkpt>
      <trkpt lat="43.5399190" lon="-91.5000000">
        <ele>349.5800000</ele>
        <time>2009-05-01T16:53:03Z</time>
      </trkpt>
      <trkpt lat="43.5355460" lon="-91.4944420">
        <ele>351.5000000</ele>
        <time>2009-05-01T16:53:30Z</time>
      </trkpt>
      <trkpt lat="43.5334390" lon="-91.4927840">
        <ele>351.0200000</ele>
        <time>2009-05-01T16:53:41Z</time>
      </trkpt>
      <trkpt lat="43.5273140" lon="-91.4885930">
        <ele>347.1700000</ele>
        <time>2009-05-01T16:54:12Z</time>
      </trkpt>
      <trkpt lat="43.5200040" lon="-91.4835750">
        <ele>351.9800000</ele>
        <time>2009-05-01T16:54:49Z</time>
      </trkpt>
      <trkpt lat="43.5184420" lon="-91.4819210">
        <ele>353.4200000</ele>
        <time>2009-05-01T16:54:58Z</time>
      </trkpt>
      <trkpt lat="43.5144980" lon="-91.4766110">
        <ele>357.7500000</ele>
        <time>2009-05-01T16:55:23Z</time>
      </trkpt>
      <trkpt lat="43.5096290" lon="-91.4699720">
        <ele>350.0600000</ele>
        <time>2009-05-01T16:55:54Z</time>
      </trkpt>
      <trkpt lat="43.5060680" lon="-91.4654860">
        <ele>354.3800000</ele>
        <time>2009-05-01T16:56:16Z</time>
      </trkpt>
      <trkpt lat="43.5046170" lon="-91.4648280">
        <ele>354.3800000</ele>
        <time>2009-05-01T16:56:23Z</time>
      </trkpt>
      <trkpt lat="43.5030920" lon="-91.4648560">
        <ele>352.9400000</ele>
        <time>2009-05-01T16:56:30Z</time>
      </trkpt>
      <trkpt lat="43.5000260" lon="-91.4652980">
        <ele>354.8600000</ele>
        <time>2009-05-01T16:56:44Z</time>
      </trkpt>
      <trkpt lat="43.4942630" lon="-91.4652540">
        <ele>348.6200000</ele>
        <time>2009-05-01T16:57:10Z</time>
      </trkpt>
      <trkpt lat="43.4885120" lon="-91.4652090">
        <ele>348.6200000</ele>
        <time>2009-05-01T16:57:36Z</time>
      </trkpt>
      <trkpt lat="43.4832150" lon="-91.4651260">
        <ele>351.9800000</ele>
        <time>2009-05-01T16:58:00Z</time>
      </trkpt>
      <trkpt lat="43.4781410" lon="-91.4651290">
        <ele>345.2500000</ele>
        <time>2009-05-01T16:58:23Z</time>
      </trkpt>
      <trkpt lat="43.4767350" lon="-91.4659620">
        <ele>347.6500000</ele>
        <time>2009-05-01T16:58:30Z</time>
      </trkpt>
      <trkpt lat="43.4738970" lon="-91.4683400">
        <ele>334.2000000</ele>
        <time>2009-05-01T16:58:45Z</time>
      </trkpt>
      <trkpt lat="43.4730890" lon="-91.4701360">
        <ele>326.0200000</ele>
        <time>2009-05-01T16:58:52Z</time>
      </trkpt>
      <trkpt lat="43.4721750" lon="-91.4732480">
        <ele>318.3300000</ele>
        <time>2009-05-01T16:59:03Z</time>
      </trkpt>
      <trkpt lat="43.4701020" lon="-91.4779060">
        <ele>305.3600000</ele>
        <time>2009-05-01T16:59:21Z</time>
      </trkpt>
      <trkpt lat="43.4699540" lon="-91.4781140">
        <ele>303.9100000</ele>
        <time>2009-05-01T16:59:22Z</time>
      </trkpt>
      <trkpt lat="43.4697650" lon="-91.4782660">
        <ele>301.9900000</ele>
        <time>2009-05-01T16:59:23Z</time>
      </trkpt>
      <trkpt lat="43.4695730" lon="-91.4784190">
        <ele>300.5500000</ele>
        <time>2009-05-01T16:59:24Z</time>
      </trkpt>
      <trkpt lat="43.4693820" lon="-91.4785720">
        <ele>299.1100000</ele>
        <time>2009-05-01T16:59:25Z</time>
      </trkpt>
      <trkpt lat="43.4691860" lon="-91.4786890">
        <ele>297.1800000</ele>
        <time>2009-05-01T16:59:26Z</time>
      </trkpt>
      <trkpt lat="43.4672670" lon="-91.4801590">
        <ele>280.8400000</ele>
        <time>2009-05-01T16:59:36Z</time>
      </trkpt>
      <trkpt lat="43.4653720" lon="-91.4822390">
        <ele>269.3100000</ele>
        <time>2009-05-01T16:59:47Z</time>
      </trkpt>
      <trkpt lat="43.4652250" lon="-91.4824600">
        <ele>268.8300000</ele>
        <time>2009-05-01T16:59:48Z</time>
      </trkpt>
      <trkpt lat="43.4651310" lon="-91.4827490">
        <ele>267.8600000</ele>
        <time>2009-05-01T16:59:49Z</time>
      </trkpt>
      <trkpt lat="43.4650440" lon="-91.4830280">
        <ele>266.9000000</ele>
        <time>2009-05-01T16:59:50Z</time>
      </trkpt>
      <trkpt lat="43.4649960" lon="-91.4833310">
        <ele>265.9400000</ele>
        <time>2009-05-01T16:59:51Z</time>
      </trkpt>
      <trkpt lat="43.4649800" lon="-91.4836390">
        <ele>264.9800000</ele>
        <time>2009-05-01T16:59:52Z</time>
      </trkpt>
      <trkpt lat="43.4649650" lon="-91.4839480">
        <ele>263.5400000</ele>
        <time>2009-05-01T16:59:53Z</time>
      </trkpt>
      <trkpt lat="43.4646000" lon="-91.4860370">
        <ele>255.8500000</ele>
        <time>2009-05-01T17:00:00Z</time>
      </trkpt>
      <trkpt lat="43.4629770" lon="-91.4923430">
        <ele>239.5100000</ele>
        <time>2009-05-01T17:00:22Z</time>
      </trkpt>
      <trkpt lat="43.4628160" lon="-91.4950660">
        <ele>232.3000000</ele>
        <time>2009-05-01T17:00:31Z</time>
      </trkpt>
      <trkpt lat="43.4627520" lon="-91.4956680">
        <ele>230.8500000</ele>
        <time>2009-05-01T17:00:33Z</time>
      </trkpt>
      <trkpt lat="43.4626960" lon="-91.4959450">
        <ele>230.3700000</ele>
        <time>2009-05-01T17:00:34Z</time>
      </trkpt>
      <trkpt lat="43.4625940" lon="-91.4962090">
        <ele>229.8900000</ele>
        <time>2009-05-01T17:00:35Z</time>
      </trkpt>
      <trkpt lat="43.4624900" lon="-91.4964740">
        <ele>229.4100000</ele>
        <time>2009-05-01T17:00:36Z</time>
      </trkpt>
      <trkpt lat="43.4623740" lon="-91.4966990">
        <ele>228.4500000</ele>
        <time>2009-05-01T17:00:37Z</time>
      </trkpt>
      <trkpt lat="43.4622110" lon="-91.4968980">
        <ele>227.9700000</ele>
        <time>2009-05-01T17:00:38Z</time>
      </trkpt>
      <trkpt lat="43.4620480" lon="-91.4970970">
        <ele>227.4900000</ele>
        <time>2009-05-01T17:00:39Z</time>
      </trkpt>
      <trkpt lat="43.4618620" lon="-91.4972210">
        <ele>227.4900000</ele>
        <time>2009-05-01T17:00:40Z</time>
      </trkpt>
      <trkpt lat="43.4616650" lon="-91.4973480">
        <ele>227.4900000</ele>
        <time>2009-05-01T17:00:41Z</time>
      </trkpt>
      <trkpt lat="43.4614680" lon="-91.4974750">
        <ele>227.4900000</ele>
        <time>2009-05-01T17:00:42Z</time>
      </trkpt>
      <trkpt lat="43.4587470" lon="-91.4986520">
        <ele>226.5300000</ele>
        <time>2009-05-01T17:00:55Z</time>
      </trkpt>
      <trkpt lat="43.4546700" lon="-91.5000780">
        <ele>227.4900000</ele>
        <time>2009-05-01T17:01:14Z</time>
      </trkpt>
      <trkpt lat="43.4526030" lon="-91.5011360">
        <ele>227.0100000</ele>
        <time>2009-05-01T17:01:24Z</time>
      </trkpt>
      <trkpt lat="43.4524360" lon="-91.5013360">
        <ele>227.4900000</ele>
        <time>2009-05-01T17:01:25Z</time>
      </trkpt>
      <trkpt lat="43.4522680" lon="-91.5015370">
        <ele>227.0100000</ele>
        <time>2009-05-01T17:01:26Z</time>
      </trkpt>
      <trkpt lat="43.4521210" lon="-91.5017550">
        <ele>227.0100000</ele>
        <time>2009-05-01T17:01:27Z</time>
      </trkpt>
      <trkpt lat="43.4519960" lon="-91.5020060">
        <ele>226.5300000</ele>
        <time>2009-05-01T17:01:28Z</time>
      </trkpt>
      <trkpt lat="43.4518720" lon="-91.5022530">
        <ele>226.5300000</ele>
        <time>2009-05-01T17:01:29Z</time>
      </trkpt>
      <trkpt lat="43.4517810" lon="-91.5025300">
        <ele>227.0100000</ele>
        <time>2009-05-01T17:01:30Z</time>
      </trkpt>
      <trkpt lat="43.4516880" lon="-91.5028110">
        <ele>227.0100000</ele>
        <time>2009-05-01T17:01:31Z</time>
      </trkpt>
      <trkpt lat="43.4515960" lon="-91.5030910">
        <ele>227.0100000</ele>
        <time>2009-05-01T17:01:32Z</time>
      </trkpt>
      <trkpt lat="43.4500170" lon="-91.5074110">
        <ele>226.0500000</ele>
        <time>2009-05-01T17:01:48Z</time>
      </trkpt>
      <trkpt lat="43.4490100" lon="-91.5085180">
        <ele>224.1200000</ele>
        <time>2009-05-01T17:01:54Z</time>
      </trkpt>
      <trkpt lat="43.4468580" lon="-91.5099740">
        <ele>217.4000000</ele>
        <time>2009-05-01T17:02:05Z</time>
      </trkpt>
      <trkpt lat="43.4453630" lon="-91.5103830">
        <ele>215.4700000</ele>
        <time>2009-05-01T17:02:12Z</time>
      </trkpt>
      <trkpt lat="43.4427450" lon="-91.5107250">
        <ele>214.5100000</ele>
        <time>2009-05-01T17:02:24Z</time>
      </trkpt>
      <trkpt lat="43.4413810" lon="-91.5117320">
        <ele>213.5500000</ele>
        <time>2009-05-01T17:02:31Z</time>
      </trkpt>
      <trkpt lat="43.4404800" lon="-91.5126050">
        <ele>212.5900000</ele>
        <time>2009-05-01T17:02:36Z</time>
      </trkpt>
      <trkpt lat="43.4402720" lon="-91.5127090">
        <ele>212.5900000</ele>
        <time>2009-05-01T17:02:37Z</time>
      </trkpt>
      <trkpt lat="43.4400610" lon="-91.5127880">
        <ele>213.5500000</ele>
        <time>2009-05-01T17:02:38Z</time>
      </trkpt>
      <trkpt lat="43.4398410" lon="-91.5128350">
        <ele>214.5100000</ele>
        <time>2009-05-01T17:02:39Z</time>
      </trkpt>
      <trkpt lat="43.4396220" lon="-91.5128810">
        <ele>215.4700000</ele>
        <time>2009-05-01T17:02:40Z</time>
      </trkpt>
      <trkpt lat="43.4394030" lon="-91.5128540">
        <ele>216.4300000</ele>
        <time>2009-05-01T17:02:41Z</time>
      </trkpt>
      <trkpt lat="43.4391920" lon="-91.5127960">
        <ele>215.9500000</ele>
        <time>2009-05-01T17:02:42Z</time>
      </trkpt>
      <trkpt lat="43.4389880" lon="-91.5127180">
        <ele>214.9900000</ele>
        <time>2009-05-01T17:02:43Z</time>
      </trkpt>
      <trkpt lat="43.4387860" lon="-91.5126150">
        <ele>214.0300000</ele>
        <time>2009-05-01T17:02:44Z</time>
      </trkpt>
      <trkpt lat="43.4385850" lon="-91.5125120">
        <ele>213.5500000</ele>
        <time>2009-05-01T17:02:45Z</time>
      </trkpt>
      <trkpt lat="43.4369310" lon="-91.5117110">
        <ele>212.1100000</ele>
        <time>2009-05-01T17:02:53Z</time>
      </trkpt>
      <trkpt lat="43.4367200" lon="-91.5116610">
        <ele>212.5900000</ele>
        <time>2009-05-01T17:02:54Z</time>
      </trkpt>
      <trkpt lat="43.4365030" lon="-91.5117040">
        <ele>212.1100000</ele>
        <time>2009-05-01T17:02:55Z</time>
      </trkpt>
      <trkpt lat="43.4362830" lon="-91.5117480">
        <ele>212.1100000</ele>
        <time>2009-05-01T17:02:56Z</time>
      </trkpt>
      <trkpt lat="43.4360770" lon="-91.5118070">
        <ele>212.1100000</ele>
        <time>2009-05-01T17:02:57Z</time>
      </trkpt>
      <trkpt lat="43.4358670" lon="-91.5119330">
        <ele>211.1500000</ele>
        <time>2009-05-01T17:02:58Z</time>
      </trkpt>
      <trkpt lat="43.4356710" lon="-91.5120630">
        <ele>209.7000000</ele>
        <time>2009-05-01T17:02:59Z</time>
      </trkpt>
      <trkpt lat="43.4354970" lon="-91.5122660">
        <ele>209.2200000</ele>
        <time>2009-05-01T17:03:00Z</time>
      </trkpt>
      <trkpt lat="43.4353320" lon="-91.5124830">
        <ele>209.7000000</ele>
        <time>2009-05-01T17:03:01Z</time>
      </trkpt>
      <trkpt lat="43.4351930" lon="-91.5127230">
        <ele>208.2600000</ele>
        <time>2009-05-01T17:03:02Z</time>
      </trkpt>
      <trkpt lat="43.4350990" lon="-91.5130040">
        <ele>207.7800000</ele>
        <time>2009-05-01T17:03:03Z</time>
      </trkpt>
      <trkpt lat="43.4350160" lon="-91.5132910">
        <ele>207.3000000</ele>
        <time>2009-05-01T17:03:04Z</time>
      </trkpt>
      <trkpt lat="43.4349340" lon="-91.5135780">
        <ele>207.3000000</ele>
        <time>2009-05-01T17:03:05Z</time>
      </trkpt>
      <trkpt lat="43.4349040" lon="-91.5138800">
        <ele>206.8200000</ele>
        <time>2009-05-01T17:03:06Z</time>
      </trkpt>
      <trkpt lat="43.4348830" lon="-91.5141880">
        <ele>206.8200000</ele>
        <time>2009-05-01T17:03:07Z</time>
      </trkpt>
      <trkpt lat="43.4348930" lon="-91.5144960">
        <ele>206.8200000</ele>
        <time>2009-05-01T17:03:08Z</time>
      </trkpt>
      <trkpt lat="43.4349120" lon="-91.5148020">
        <ele>207.3000000</ele>
        <time>2009-05-01T17:03:09Z</time>
      </trkpt>
      <trkpt lat="43.4349790" lon="-91.5178240">
        <ele>209.7000000</ele>
        <time>2009-05-01T17:03:19Z</time>
      </trkpt>
      <trkpt lat="43.4348830" lon="-91.5180940">
        <ele>210.1900000</ele>
        <time>2009-05-01T17:03:20Z</time>
      </trkpt>
      <trkpt lat="43.4347860" lon="-91.5183700">
        <ele>210.6700000</ele>
        <time>2009-05-01T17:03:21Z</time>
      </trkpt>
      <trkpt lat="43.4346710" lon="-91.5185990">
        <ele>210.6700000</ele>
        <time>2009-05-01T17:03:22Z</time>
      </trkpt>
      <trkpt lat="43.4345350" lon="-91.5188180">
        <ele>210.6700000</ele>
        <time>2009-05-01T17:03:23Z</time>
      </trkpt>
      <trkpt lat="43.4343600" lon="-91.5190100">
        <ele>211.1500000</ele>
        <time>2009-05-01T17:03:24Z</time>
      </trkpt>
      <trkpt lat="43.4341820" lon="-91.5192060">
        <ele>211.6300000</ele>
        <time>2009-05-01T17:03:25Z</time>
      </trkpt>
      <trkpt lat="43.4339690" lon="-91.5193240">
        <ele>212.1100000</ele>
        <time>2009-05-01T17:03:26Z</time>
      </trkpt>
      <trkpt lat="43.4337510" lon="-91.5193790">
        <ele>212.5900000</ele>
        <time>2009-05-01T17:03:27Z</time>
      </trkpt>
      <trkpt lat="43.4335310" lon="-91.5194340">
        <ele>212.5900000</ele>
        <time>2009-05-01T17:03:28Z</time>
      </trkpt>
      <trkpt lat="43.4333060" lon="-91.5194430">
        <ele>213.0700000</ele>
        <time>2009-05-01T17:03:29Z</time>
      </trkpt>
      <trkpt lat="43.4330840" lon="-91.5194060">
        <ele>213.5500000</ele>
        <time>2009-05-01T17:03:30Z</time>
      </trkpt>
      <trkpt lat="43.4328640" lon="-91.5193690">
        <ele>214.0300000</ele>
        <time>2009-05-01T17:03:31Z</time>
      </trkpt>
      <trkpt lat="43.4317860" lon="-91.5190880">
        <ele>215.4700000</ele>
        <time>2009-05-01T17:03:36Z</time>
      </trkpt>
      <trkpt lat="43.4315730" lon="-91.5189900">
        <ele>215.4700000</ele>
        <time>2009-05-01T17:03:37Z</time>
      </trkpt>
      <trkpt lat="43.4313880" lon="-91.5188570">
        <ele>215.4700000</ele>
        <time>2009-05-01T17:03:38Z</time>
      </trkpt>
      <trkpt lat="43.4312130" lon="-91.5187090">
        <ele>214.9900000</ele>
        <time>2009-05-01T17:03:39Z</time>
      </trkpt>
      <trkpt lat="43.4310430" lon="-91.5185200">
        <ele>214.9900000</ele>
        <time>2009-05-01T17:03:40Z</time>
      </trkpt>
      <trkpt lat="43.4308750" lon="-91.5183320">
        <ele>214.9900000</ele>
        <time>2009-05-01T17:03:41Z</time>
      </trkpt>
      <trkpt lat="43.4307130" lon="-91.5181370">
        <ele>213.5500000</ele>
        <time>2009-05-01T17:03:42Z</time>
      </trkpt>
      <trkpt lat="43.4305900" lon="-91.5179100">
        <ele>213.5500000</ele>
        <time>2009-05-01T17:03:43Z</time>
      </trkpt>
      <trkpt lat="43.4304710" lon="-91.5176520">
        <ele>214.0300000</ele>
        <time>2009-05-01T17:03:44Z</time>
      </trkpt>
      <trkpt lat="43.4303750" lon="-91.5173920">
        <ele>214.0300000</ele>
        <time>2009-05-01T17:03:45Z</time>
      </trkpt>
      <trkpt lat="43.4302940" lon="-91.5171100">
        <ele>214.0300000</ele>
        <time>2009-05-01T17:03:46Z</time>
      </trkpt>
      <trkpt lat="43.4293570" lon="-91.5140110">
        <ele>213.5500000</ele>
        <time>2009-05-01T17:03:58Z</time>
      </trkpt>
      <trkpt lat="43.4287380" lon="-91.5126620">
        <ele>213.5500000</ele>
        <time>2009-05-01T17:04:05Z</time>
      </trkpt>
      <trkpt lat="43.4284410" lon="-91.5122950">
        <ele>214.0300000</ele>
        <time>2009-05-01T17:04:08Z</time>
      </trkpt>
      <trkpt lat="43.4284510" lon="-91.5122450">
        <ele>214.0300000</ele>
        <time>2009-05-01T17:04:09Z</time>
      </trkpt>
      <trkpt lat="43.4284680" lon="-91.5121600">
        <ele>214.0300000</ele>
        <time>2009-05-01T17:04:10Z</time>
      </trkpt>
      <trkpt lat="43.4284870" lon="-91.5120630">
        <ele>214.5100000</ele>
        <time>2009-05-01T17:04:11Z</time>
      </trkpt>
      <trkpt lat="43.4285120" lon="-91.5119380">
        <ele>213.5500000</ele>
        <time>2009-05-01T17:04:12Z</time>
      </trkpt>
      <trkpt lat="43.4285570" lon="-91.5108360">
        <ele>211.1500000</ele>
        <time>2009-05-01T17:04:18Z</time>
      </trkpt>
      <trkpt lat="43.4286300" lon="-91.5087180">
        <ele>209.2200000</ele>
        <time>2009-05-01T17:04:26Z</time>
      </trkpt>
      <trkpt lat="43.4289660" lon="-91.5055790">
        <ele>207.3000000</ele>
        <time>2009-05-01T17:04:37Z</time>
      </trkpt>
      <trkpt lat="43.4298060" lon="-91.5037600">
        <ele>207.3000000</ele>
        <time>2009-05-01T17:04:45Z</time>
      </trkpt>
      <trkpt lat="43.4314290" lon="-91.4998770">
        <ele>207.7800000</ele>
        <time>2009-05-01T17:05:02Z</time>
      </trkpt>
      <trkpt lat="43.4316590" lon="-91.4976450">
        <ele>207.7800000</ele>
        <time>2009-05-01T17:05:11Z</time>
      </trkpt>
      <trkpt lat="43.4314160" lon="-91.4954210">
        <ele>206.3400000</ele>
        <time>2009-05-01T17:05:20Z</time>
      </trkpt>
      <trkpt lat="43.4306800" lon="-91.4933350">
        <ele>205.8600000</ele>
        <time>2009-05-01T17:05:29Z</time>
      </trkpt>
      <trkpt lat="43.4289520" lon="-91.4893120">
        <ele>206.3400000</ele>
        <time>2009-05-01T17:05:47Z</time>
      </trkpt>
      <trkpt lat="43.4279720" lon="-91.4884780">
        <ele>206.8200000</ele>
        <time>2009-05-01T17:05:53Z</time>
      </trkpt>
      <trkpt lat="43.4262540" lon="-91.4879050">
        <ele>210.6700000</ele>
        <time>2009-05-01T17:06:02Z</time>
      </trkpt>
      <trkpt lat="43.4247290" lon="-91.4871190">
        <ele>214.5100000</ele>
        <time>2009-05-01T17:06:10Z</time>
      </trkpt>
      <trkpt lat="43.4239580" lon="-91.4858550">
        <ele>222.2000000</ele>
        <time>2009-05-01T17:06:16Z</time>
      </trkpt>
      <trkpt lat="43.4236950" lon="-91.4843390">
        <ele>231.8100000</ele>
        <time>2009-05-01T17:06:22Z</time>
      </trkpt>
      <trkpt lat="43.4234940" lon="-91.4803160">
        <ele>236.6200000</ele>
        <time>2009-05-01T17:06:36Z</time>
      </trkpt>
      <trkpt lat="43.4235630" lon="-91.4766790">
        <ele>226.0500000</ele>
        <time>2009-05-01T17:06:48Z</time>
      </trkpt>
      <trkpt lat="43.4240470" lon="-91.4740210">
        <ele>212.1100000</ele>
        <time>2009-05-01T17:06:57Z</time>
      </trkpt>
      <trkpt lat="43.4241560" lon="-91.4737550">
        <ele>211.1500000</ele>
        <time>2009-05-01T17:06:58Z</time>
      </trkpt>
      <trkpt lat="43.4242970" lon="-91.4735200">
        <ele>210.1900000</ele>
        <time>2009-05-01T17:06:59Z</time>
      </trkpt>
      <trkpt lat="43.4244660" lon="-91.4733270">
        <ele>209.7000000</ele>
        <time>2009-05-01T17:07:00Z</time>
      </trkpt>
      <trkpt lat="43.4246370" lon="-91.4731320">
        <ele>208.7400000</ele>
        <time>2009-05-01T17:07:01Z</time>
      </trkpt>
      <trkpt lat="43.4248070" lon="-91.4729380">
        <ele>208.2600000</ele>
        <time>2009-05-01T17:07:02Z</time>
      </trkpt>
      <trkpt lat="43.4249850" lon="-91.4727760">
        <ele>207.7800000</ele>
        <time>2009-05-01T17:07:03Z</time>
      </trkpt>
      <trkpt lat="43.4251800" lon="-91.4726300">
        <ele>207.3000000</ele>
        <time>2009-05-01T17:07:04Z</time>
      </trkpt>
      <trkpt lat="43.4253750" lon="-91.4724830">
        <ele>207.3000000</ele>
        <time>2009-05-01T17:07:05Z</time>
      </trkpt>
      <trkpt lat="43.4255870" lon="-91.4724210">
        <ele>207.3000000</ele>
        <time>2009-05-01T17:07:06Z</time>
      </trkpt>
      <trkpt lat="43.4258040" lon="-91.4723710">
        <ele>207.3000000</ele>
        <time>2009-05-01T17:07:07Z</time>
      </trkpt>
      <trkpt lat="43.4260230" lon="-91.4723280">
        <ele>207.3000000</ele>
        <time>2009-05-01T17:07:08Z</time>
      </trkpt>
      <trkpt lat="43.4262430" lon="-91.4722850">
        <ele>207.3000000</ele>
        <time>2009-05-01T17:07:09Z</time>
      </trkpt>
      <trkpt lat="43.4290850" lon="-91.4715750">
        <ele>206.8200000</ele>
        <time>2009-05-01T17:07:22Z</time>
      </trkpt>
      <trkpt lat="43.4310020" lon="-91.4708450">
        <ele>207.3000000</ele>
        <time>2009-05-01T17:07:31Z</time>
      </trkpt>
      <trkpt lat="43.4311760" lon="-91.4706540">
        <ele>207.3000000</ele>
        <time>2009-05-01T17:07:32Z</time>
      </trkpt>
      <trkpt lat="43.4313520" lon="-91.4704610">
        <ele>207.7800000</ele>
        <time>2009-05-01T17:07:33Z</time>
      </trkpt>
      <trkpt lat="43.4314930" lon="-91.4702390">
        <ele>207.7800000</ele>
        <time>2009-05-01T17:07:34Z</time>
      </trkpt>
      <trkpt lat="43.4316220" lon="-91.4700050">
        <ele>207.7800000</ele>
        <time>2009-05-01T17:07:35Z</time>
      </trkpt>
      <trkpt lat="43.4317420" lon="-91.4697480">
        <ele>207.7800000</ele>
        <time>2009-05-01T17:07:36Z</time>
      </trkpt>
      <trkpt lat="43.4318620" lon="-91.4694910">
        <ele>207.3000000</ele>
        <time>2009-05-01T17:07:37Z</time>
      </trkpt>
      <trkpt lat="43.4319410" lon="-91.4692240">
        <ele>207.7800000</ele>
        <time>2009-05-01T17:07:38Z</time>
      </trkpt>
      <trkpt lat="43.4320210" lon="-91.4689370">
        <ele>208.2600000</ele>
        <time>2009-05-01T17:07:39Z</time>
      </trkpt>
      <trkpt lat="43.4320880" lon="-91.4686620">
        <ele>208.7400000</ele>
        <time>2009-05-01T17:07:40Z</time>
      </trkpt>
      <trkpt lat="43.4320880" lon="-91.4683650">
        <ele>209.2200000</ele>
        <time>2009-05-01T17:07:41Z</time>
      </trkpt>
      <trkpt lat="43.4320880" lon="-91.4680720">
        <ele>208.7400000</ele>
        <time>2009-05-01T17:07:42Z</time>
      </trkpt>
      <trkpt lat="43.4320880" lon="-91.4677840">
        <ele>208.7400000</ele>
        <time>2009-05-01T17:07:43Z</time>
      </trkpt>
      <trkpt lat="43.4320730" lon="-91.4675240">
        <ele>208.2600000</ele>
        <time>2009-05-01T17:07:44Z</time>
      </trkpt>
      <trkpt lat="43.4320310" lon="-91.4672540">
        <ele>207.7800000</ele>
        <time>2009-05-01T17:07:45Z</time>
      </trkpt>
      <trkpt lat="43.4319880" lon="-91.4669860">
        <ele>207.3000000</ele>
        <time>2009-05-01T17:07:46Z</time>
      </trkpt>
      <trkpt lat="43.4319380" lon="-91.4667330">
        <ele>206.8200000</ele>
        <time>2009-05-01T17:07:47Z</time>
      </trkpt>
      <trkpt lat="43.4318620" lon="-91.4664790">
        <ele>206.3400000</ele>
        <time>2009-05-01T17:07:48Z</time>
      </trkpt>
      <trkpt lat="43.4317600" lon="-91.4662490">
        <ele>205.8600000</ele>
        <time>2009-05-01T17:07:49Z</time>
      </trkpt>
      <trkpt lat="43.4316390" lon="-91.4660340">
        <ele>205.3800000</ele>
        <time>2009-05-01T17:07:50Z</time>
      </trkpt>
      <trkpt lat="43.4315170" lon="-91.4658180">
        <ele>204.9000000</ele>
        <time>2009-05-01T17:07:51Z</time>
      </trkpt>
      <trkpt lat="43.4313800" lon="-91.4656240">
        <ele>204.4200000</ele>
        <time>2009-05-01T17:07:52Z</time>
      </trkpt>
      <trkpt lat="43.4312180" lon="-91.4654620">
        <ele>203.9400000</ele>
        <time>2009-05-01T17:07:53Z</time>
      </trkpt>
      <trkpt lat="43.4310540" lon="-91.4652990">
        <ele>203.4600000</ele>
        <time>2009-05-01T17:07:54Z</time>
      </trkpt>
      <trkpt lat="43.4308870" lon="-91.4651450">
        <ele>203.4600000</ele>
        <time>2009-05-01T17:07:55Z</time>
      </trkpt>
      <trkpt lat="43.4307110" lon="-91.4650000">
        <ele>202.9800000</ele>
        <time>2009-05-01T17:07:56Z</time>
      </trkpt>
      <trkpt lat="43.4305190" lon="-91.4649040">
        <ele>202.9800000</ele>
        <time>2009-05-01T17:07:57Z</time>
      </trkpt>
      <trkpt lat="43.4303270" lon="-91.4648080">
        <ele>202.9800000</ele>
        <time>2009-05-01T17:07:58Z</time>
      </trkpt>
      <trkpt lat="43.4288650" lon="-91.4638090">
        <ele>203.4600000</ele>
        <time>2009-05-01T17:08:06Z</time>
      </trkpt>
      <trkpt lat="43.4287170" lon="-91.4636110">
        <ele>203.4600000</ele>
        <time>2009-05-01T17:08:07Z</time>
      </trkpt>
      <trkpt lat="43.4285950" lon="-91.4633800">
        <ele>203.9400000</ele>
        <time>2009-05-01T17:08:08Z</time>
      </trkpt>
      <trkpt lat="43.4284760" lon="-91.4631420">
        <ele>204.4200000</ele>
        <time>2009-05-01T17:08:09Z</time>
      </trkpt>
      <trkpt lat="43.4283650" lon="-91.4628990">
        <ele>204.4200000</ele>
        <time>2009-05-01T17:08:10Z</time>
      </trkpt>
      <trkpt lat="43.4282680" lon="-91.4626380">
        <ele>204.4200000</ele>
        <time>2009-05-01T17:08:11Z</time>
      </trkpt>
      <trkpt lat="43.4281700" lon="-91.4623770">
        <ele>204.9000000</ele>
        <time>2009-05-01T17:08:12Z</time>
      </trkpt>
      <trkpt lat="43.4281150" lon="-91.4620960">
        <ele>204.9000000</ele>
        <time>2009-05-01T17:08:13Z</time>
      </trkpt>
      <trkpt lat="43.4280790" lon="-91.4618030">
        <ele>204.9000000</ele>
        <time>2009-05-01T17:08:14Z</time>
      </trkpt>
      <trkpt lat="43.4280440" lon="-91.4615060">
        <ele>204.9000000</ele>
        <time>2009-05-01T17:08:15Z</time>
      </trkpt>
      <trkpt lat="43.4280110" lon="-91.4612120">
        <ele>204.9000000</ele>
        <time>2009-05-01T17:08:16Z</time>
      </trkpt>
      <trkpt lat="43.4280030" lon="-91.4609110">
        <ele>204.9000000</ele>
        <time>2009-05-01T17:08:17Z</time>
      </trkpt>
      <trkpt lat="43.4277760" lon="-91.4574320">
        <ele>205.3800000</ele>
        <time>2009-05-01T17:08:29Z</time>
      </trkpt>
      <trkpt lat="43.4270290" lon="-91.4557120">
        <ele>205.3800000</ele>
        <time>2009-05-01T17:08:36Z</time>
      </trkpt>
      <trkpt lat="43.4252630" lon="-91.4519400">
        <ele>209.2200000</ele>
        <time>2009-05-01T17:08:52Z</time>
      </trkpt>
      <trkpt lat="43.4248140" lon="-91.4496860">
        <ele>208.2600000</ele>
        <time>2009-05-01T17:09:00Z</time>
      </trkpt>
      <trkpt lat="43.4246960" lon="-91.4464750">
        <ele>207.7800000</ele>
        <time>2009-05-01T17:09:11Z</time>
      </trkpt>
      <trkpt lat="43.4247610" lon="-91.4435390">
        <ele>205.8600000</ele>
        <time>2009-05-01T17:09:21Z</time>
      </trkpt>
      <trkpt lat="43.4249080" lon="-91.4411700">
        <ele>204.4200000</ele>
        <time>2009-05-01T17:09:29Z</time>
      </trkpt>
      <trkpt lat="43.4256580" lon="-91.4364230">
        <ele>204.9000000</ele>
        <time>2009-05-01T17:09:45Z</time>
      </trkpt>
      <trkpt lat="43.4268190" lon="-91.4327890">
        <ele>204.9000000</ele>
        <time>2009-05-01T17:09:58Z</time>
      </trkpt>
      <trkpt lat="43.4269560" lon="-91.4325480">
        <ele>204.9000000</ele>
        <time>2009-05-01T17:09:59Z</time>
      </trkpt>
      <trkpt lat="43.4271000" lon="-91.4323200">
        <ele>204.9000000</ele>
        <time>2009-05-01T17:10:00Z</time>
      </trkpt>
      <trkpt lat="43.4272540" lon="-91.4320980">
        <ele>204.9000000</ele>
        <time>2009-05-01T17:10:01Z</time>
      </trkpt>
      <trkpt lat="43.4274070" lon="-91.4318770">
        <ele>204.9000000</ele>
        <time>2009-05-01T17:10:02Z</time>
      </trkpt>
      <trkpt lat="43.4276020" lon="-91.4317390">
        <ele>204.9000000</ele>
        <time>2009-05-01T17:10:03Z</time>
      </trkpt>
      <trkpt lat="43.4278010" lon="-91.4316010">
        <ele>204.9000000</ele>
        <time>2009-05-01T17:10:04Z</time>
      </trkpt>
      <trkpt lat="43.4279990" lon="-91.4314690">
        <ele>205.3800000</ele>
        <time>2009-05-01T17:10:05Z</time>
      </trkpt>
      <trkpt lat="43.4282070" lon="-91.4313560">
        <ele>205.8600000</ele>
        <time>2009-05-01T17:10:06Z</time>
      </trkpt>
      <trkpt lat="43.4303840" lon="-91.4298260">
        <ele>212.1100000</ele>
        <time>2009-05-01T17:10:17Z</time>
      </trkpt>
      <trkpt lat="43.4321150" lon="-91.4278850">
        <ele>213.5500000</ele>
        <time>2009-05-01T17:10:27Z</time>
      </trkpt>
      <trkpt lat="43.4365920" lon="-91.4218860">
        <ele>202.4900000</ele>
        <time>2009-05-01T17:10:55Z</time>
      </trkpt>
      <trkpt lat="43.4373650" lon="-91.4200510">
        <ele>201.0500000</ele>
        <time>2009-05-01T17:11:02Z</time>
      </trkpt>
      <trkpt lat="43.4378410" lon="-91.4176970">
        <ele>202.0100000</ele>
        <time>2009-05-01T17:11:10Z</time>
      </trkpt>
      <trkpt lat="43.4387940" lon="-91.4113920">
        <ele>203.4600000</ele>
        <time>2009-05-01T17:11:31Z</time>
      </trkpt>
      <trkpt lat="43.4390230" lon="-91.4077680">
        <ele>203.9400000</ele>
        <time>2009-05-01T17:11:43Z</time>
      </trkpt>
      <trkpt lat="43.4384760" lon="-91.4061360">
        <ele>203.4600000</ele>
        <time>2009-05-01T17:11:49Z</time>
      </trkpt>
      <trkpt lat="43.4374610" lon="-91.4049850">
        <ele>203.4600000</ele>
        <time>2009-05-01T17:11:55Z</time>
      </trkpt>
      <trkpt lat="43.4357790" lon="-91.4040570">
        <ele>204.4200000</ele>
        <time>2009-05-01T17:12:03Z</time>
      </trkpt>
      <trkpt lat="43.4342610" lon="-91.4028180">
        <ele>205.8600000</ele>
        <time>2009-05-01T17:12:11Z</time>
      </trkpt>
      <trkpt lat="43.4310870" lon="-91.3998000">
        <ele>210.1900000</ele>
        <time>2009-05-01T17:12:29Z</time>
      </trkpt>
      <trkpt lat="43.4300580" lon="-91.3982810">
        <ele>212.5900000</ele>
        <time>2009-05-01T17:12:38Z</time>
      </trkpt>
      <trkpt lat="43.4295990" lon="-91.3968410">
        <ele>218.3600000</ele>
        <time>2009-05-01T17:12:48Z</time>
      </trkpt>
      <trkpt lat="43.4295990" lon="-91.3965100">
        <ele>219.8000000</ele>
        <time>2009-05-01T17:12:54Z</time>
      </trkpt>
      <trkpt lat="43.4295990" lon="-91.3962430">
        <ele>219.3200000</ele>
        <time>2009-05-01T17:13:07Z</time>
      </trkpt>
      <trkpt lat="43.4295990" lon="-91.3961620">
        <ele>214.0300000</ele>
        <time>2009-05-01T17:13:17Z</time>
      </trkpt>
      <trkpt lat="43.4296010" lon="-91.3961060">
        <ele>213.5500000</ele>
        <time>2009-05-01T17:13:18Z</time>
      </trkpt>
      <trkpt lat="43.4296130" lon="-91.3960040">
        <ele>213.0700000</ele>
        <time>2009-05-01T17:13:19Z</time>
      </trkpt>
      <trkpt lat="43.4298700" lon="-91.3948750">
        <ele>211.1500000</ele>
        <time>2009-05-01T17:13:26Z</time>
      </trkpt>
      <trkpt lat="43.4308160" lon="-91.3936390">
        <ele>209.2200000</ele>
        <time>2009-05-01T17:13:33Z</time>
      </trkpt>
      <trkpt lat="43.4319640" lon="-91.3931930">
        <ele>205.3800000</ele>
        <time>2009-05-01T17:13:39Z</time>
      </trkpt>
      <trkpt lat="43.4333950" lon="-91.3923270">
        <ele>204.4200000</ele>
        <time>2009-05-01T17:13:47Z</time>
      </trkpt>
      <trkpt lat="43.4348880" lon="-91.3906570">
        <ele>205.8600000</ele>
        <time>2009-05-01T17:13:56Z</time>
      </trkpt>
      <trkpt lat="43.4362470" lon="-91.3896240">
        <ele>208.7400000</ele>
        <time>2009-05-01T17:14:03Z</time>
      </trkpt>
      <trkpt lat="43.4379550" lon="-91.3889400">
        <ele>208.2600000</ele>
        <time>2009-05-01T17:14:11Z</time>
      </trkpt>
      <trkpt lat="43.4393410" lon="-91.3880270">
        <ele>208.2600000</ele>
        <time>2009-05-01T17:14:18Z</time>
      </trkpt>
      <trkpt lat="43.4403330" lon="-91.3864340">
        <ele>207.3000000</ele>
        <time>2009-05-01T17:14:25Z</time>
      </trkpt>
      <trkpt lat="43.4421280" lon="-91.3822360">
        <ele>202.9800000</ele>
        <time>2009-05-01T17:14:41Z</time>
      </trkpt>
      <trkpt lat="43.4421890" lon="-91.3819470">
        <ele>202.4900000</ele>
        <time>2009-05-01T17:14:42Z</time>
      </trkpt>
      <trkpt lat="43.4422200" lon="-91.3816460">
        <ele>202.0100000</ele>
        <time>2009-05-01T17:14:43Z</time>
      </trkpt>
      <trkpt lat="43.4422520" lon="-91.3813450">
        <ele>201.0500000</ele>
        <time>2009-05-01T17:14:44Z</time>
      </trkpt>
      <trkpt lat="43.4422570" lon="-91.3810480">
        <ele>200.5700000</ele>
        <time>2009-05-01T17:14:45Z</time>
      </trkpt>
      <trkpt lat="43.4422540" lon="-91.3807450">
        <ele>199.6100000</ele>
        <time>2009-05-01T17:14:46Z</time>
      </trkpt>
      <trkpt lat="43.4421570" lon="-91.3755970">
        <ele>197.2100000</ele>
        <time>2009-05-01T17:15:03Z</time>
      </trkpt>
      <trkpt lat="43.4416780" lon="-91.3729390">
        <ele>200.0900000</ele>
        <time>2009-05-01T17:15:12Z</time>
      </trkpt>
      <trkpt lat="43.4406860" lon="-91.3702160">
        <ele>202.4900000</ele>
        <time>2009-05-01T17:15:22Z</time>
      </trkpt>
      <trkpt lat="43.4396320" lon="-91.3691250">
        <ele>205.8600000</ele>
        <time>2009-05-01T17:15:28Z</time>
      </trkpt>
      <trkpt lat="43.4383370" lon="-91.3686510">
        <ele>210.6700000</ele>
        <time>2009-05-01T17:15:34Z</time>
      </trkpt>
      <trkpt lat="43.4367710" lon="-91.3680160">
        <ele>210.6700000</ele>
        <time>2009-05-01T17:15:42Z</time>
      </trkpt>
      <trkpt lat="43.4366280" lon="-91.3678750">
        <ele>211.6300000</ele>
        <time>2009-05-01T17:15:43Z</time>
      </trkpt>
      <trkpt lat="43.4365040" lon="-91.3677170">
        <ele>212.1100000</ele>
        <time>2009-05-01T17:15:44Z</time>
      </trkpt>
      <trkpt lat="43.4363880" lon="-91.3675180">
        <ele>212.5900000</ele>
        <time>2009-05-01T17:15:45Z</time>
      </trkpt>
      <trkpt lat="43.4362710" lon="-91.3673180">
        <ele>213.5500000</ele>
        <time>2009-05-01T17:15:46Z</time>
      </trkpt>
      <trkpt lat="43.4361860" lon="-91.3671100">
        <ele>214.0300000</ele>
        <time>2009-05-01T17:15:47Z</time>
      </trkpt>
      <trkpt lat="43.4361220" lon="-91.3668980">
        <ele>214.9900000</ele>
        <time>2009-05-01T17:15:48Z</time>
      </trkpt>
      <trkpt lat="43.4361240" lon="-91.3666540">
        <ele>217.4000000</ele>
        <time>2009-05-01T17:15:49Z</time>
      </trkpt>
      <trkpt lat="43.4361370" lon="-91.3664000">
        <ele>219.3200000</ele>
        <time>2009-05-01T17:15:50Z</time>
      </trkpt>
      <trkpt lat="43.4361500" lon="-91.3661270">
        <ele>218.8400000</ele>
        <time>2009-05-01T17:15:51Z</time>
      </trkpt>
      <trkpt lat="43.4361640" lon="-91.3658590">
        <ele>218.8400000</ele>
        <time>2009-05-01T17:15:52Z</time>
      </trkpt>
      <trkpt lat="43.4362420" lon="-91.3656500">
        <ele>219.3200000</ele>
        <time>2009-05-01T17:15:53Z</time>
      </trkpt>
      <trkpt lat="43.4363460" lon="-91.3654130">
        <ele>219.8000000</ele>
        <time>2009-05-01T17:15:54Z</time>
      </trkpt>
      <trkpt lat="43.4364520" lon="-91.3651710">
        <ele>219.8000000</ele>
        <time>2009-05-01T17:15:55Z</time>
      </trkpt>
      <trkpt lat="43.4365970" lon="-91.3650070">
        <ele>220.2800000</ele>
        <time>2009-05-01T17:15:56Z</time>
      </trkpt>
      <trkpt lat="43.4367690" lon="-91.3648360">
        <ele>220.7600000</ele>
        <time>2009-05-01T17:15:57Z</time>
      </trkpt>
      <trkpt lat="43.4369430" lon="-91.3646700">
        <ele>221.7200000</ele>
        <time>2009-05-01T17:15:58Z</time>
      </trkpt>
      <trkpt lat="43.4371350" lon="-91.3645160">
        <ele>222.2000000</ele>
        <time>2009-05-01T17:15:59Z</time>
      </trkpt>
      <trkpt lat="43.4400180" lon="-91.3621150">
        <ele>223.6400000</ele>
        <time>2009-05-01T17:16:14Z</time>
      </trkpt>
      <trkpt lat="43.4411000" lon="-91.3606070">
        <ele>222.6800000</ele>
        <time>2009-05-01T17:16:21Z</time>
      </trkpt>
      <trkpt lat="43.4429870" lon="-91.3575860">
        <ele>225.0900000</ele>
        <time>2009-05-01T17:16:34Z</time>
      </trkpt>
      <trkpt lat="43.4444370" lon="-91.3552590">
        <ele>218.8400000</ele>
        <time>2009-05-01T17:16:44Z</time>
      </trkpt>
      <trkpt lat="43.4467870" lon="-91.3504260">
        <ele>216.9100000</ele>
        <time>2009-05-01T17:17:03Z</time>
      </trkpt>
      <trkpt lat="43.4479760" lon="-91.3490530">
        <ele>208.2600000</ele>
        <time>2009-05-01T17:17:10Z</time>
      </trkpt>
      <trkpt lat="43.4507340" lon="-91.3464860">
        <ele>200.5700000</ele>
        <time>2009-05-01T17:17:25Z</time>
      </trkpt>
      <trkpt lat="43.4516740" lon="-91.3447980">
        <ele>197.6900000</ele>
        <time>2009-05-01T17:17:32Z</time>
      </trkpt>
      <trkpt lat="43.4526010" lon="-91.3423710">
        <ele>200.0900000</ele>
        <time>2009-05-01T17:17:41Z</time>
      </trkpt>
      <trkpt lat="43.4546960" lon="-91.3384320">
        <ele>197.2100000</ele>
        <time>2009-05-01T17:17:57Z</time>
      </trkpt>
      <trkpt lat="43.4560550" lon="-91.3364130">
        <ele>198.1700000</ele>
        <time>2009-05-01T17:18:06Z</time>
      </trkpt>
      <trkpt lat="43.4570660" lon="-91.3340360">
        <ele>199.1300000</ele>
        <time>2009-05-01T17:18:15Z</time>
      </trkpt>
      <trkpt lat="43.4580920" lon="-91.3328960">
        <ele>200.5700000</ele>
        <time>2009-05-01T17:18:21Z</time>
      </trkpt>
      <trkpt lat="43.4593580" lon="-91.3322860">
        <ele>202.9800000</ele>
        <time>2009-05-01T17:18:27Z</time>
      </trkpt>
      <trkpt lat="43.4620330" lon="-91.3308160">
        <ele>200.5700000</ele>
        <time>2009-05-01T17:18:40Z</time>
      </trkpt>
      <trkpt lat="43.4628970" lon="-91.3294630">
        <ele>202.4900000</ele>
        <time>2009-05-01T17:18:46Z</time>
      </trkpt>
      <trkpt lat="43.4647770" lon="-91.3253200">
        <ele>196.7300000</ele>
        <time>2009-05-01T17:19:02Z</time>
      </trkpt>
      <trkpt lat="43.4655750" lon="-91.3231560">
        <ele>198.6500000</ele>
        <time>2009-05-01T17:19:10Z</time>
      </trkpt>
      <trkpt lat="43.4667660" lon="-91.3218020">
        <ele>198.1700000</ele>
        <time>2009-05-01T17:19:17Z</time>
      </trkpt>
      <trkpt lat="43.4682380" lon="-91.3210530">
        <ele>196.7300000</ele>
        <time>2009-05-01T17:19:24Z</time>
      </trkpt>
      <trkpt lat="43.4688340" lon="-91.3206250">
        <ele>196.2500000</ele>
        <time>2009-05-01T17:19:27Z</time>
      </trkpt>
      <trkpt lat="43.4690150" lon="-91.3204440">
        <ele>196.2500000</ele>
        <time>2009-05-01T17:19:28Z</time>
      </trkpt>
      <trkpt lat="43.4691730" lon="-91.3202350">
        <ele>196.2500000</ele>
        <time>2009-05-01T17:19:29Z</time>
      </trkpt>
      <trkpt lat="43.4693300" lon="-91.3200180">
        <ele>196.2500000</ele>
        <time>2009-05-01T17:19:30Z</time>
      </trkpt>
      <trkpt lat="43.4694870" lon="-91.3198010">
        <ele>196.2500000</ele>
        <time>2009-05-01T17:19:31Z</time>
      </trkpt>
      <trkpt lat="43.4709230" lon="-91.3183720">
        <ele>195.7700000</ele>
        <time>2009-05-01T17:19:39Z</time>
      </trkpt>
      <trkpt lat="43.4724420" lon="-91.3178120">
        <ele>195.2800000</ele>
        <time>2009-05-01T17:19:46Z</time>
      </trkpt>
      <trkpt lat="43.4736310" lon="-91.3170260">
        <ele>194.8000000</ele>
        <time>2009-05-01T17:19:52Z</time>
      </trkpt>
      <trkpt lat="43.4744420" lon="-91.3156070">
        <ele>194.8000000</ele>
        <time>2009-05-01T17:19:58Z</time>
      </trkpt>
      <trkpt lat="43.4759540" lon="-91.3125870">
        <ele>194.3200000</ele>
        <time>2009-05-01T17:20:10Z</time>
      </trkpt>
      <trkpt lat="43.4766790" lon="-91.3103730">
        <ele>194.8000000</ele>
        <time>2009-05-01T17:20:18Z</time>
      </trkpt>
      <trkpt lat="43.4775000" lon="-91.3082120">
        <ele>195.2800000</ele>
        <time>2009-05-01T17:20:26Z</time>
      </trkpt>
      <trkpt lat="43.4787230" lon="-91.3060140">
        <ele>194.3200000</ele>
        <time>2009-05-01T17:20:36Z</time>
      </trkpt>
      <trkpt lat="43.4796560" lon="-91.3043380">
        <ele>193.8400000</ele>
        <time>2009-05-01T17:20:46Z</time>
      </trkpt>
      <trkpt lat="43.4797380" lon="-91.3041910">
        <ele>194.3200000</ele>
        <time>2009-05-01T17:20:48Z</time>
      </trkpt>
      <trkpt lat="43.4797470" lon="-91.3041750">
        <ele>194.3200000</ele>
        <time>2009-05-01T17:20:49Z</time>
      </trkpt>
      <trkpt lat="43.4798090" lon="-91.3039390">
        <ele>195.2800000</ele>
        <time>2009-05-01T17:20:57Z</time>
      </trkpt>
      <trkpt lat="43.4797800" lon="-91.3039100">
        <ele>195.2800000</ele>
        <time>2009-05-01T17:20:58Z</time>
      </trkpt>
      <trkpt lat="43.4797350" lon="-91.3038650">
        <ele>195.7700000</ele>
        <time>2009-05-01T17:20:59Z</time>
      </trkpt>
      <trkpt lat="43.4796770" lon="-91.3038080">
        <ele>195.7700000</ele>
        <time>2009-05-01T17:21:00Z</time>
      </trkpt>
      <trkpt lat="43.4796040" lon="-91.3037350">
        <ele>195.7700000</ele>
        <time>2009-05-01T17:21:01Z</time>
      </trkpt>
      <trkpt lat="43.4789990" lon="-91.3029830">
        <ele>195.7700000</ele>
        <time>2009-05-01T17:21:07Z</time>
      </trkpt>
      <trkpt lat="43.4779080" lon="-91.3009930">
        <ele>195.2800000</ele>
        <time>2009-05-01T17:21:17Z</time>
      </trkpt>
      <trkpt lat="43.4763380" lon="-91.2981260">
        <ele>194.3200000</ele>
        <time>2009-05-01T17:21:29Z</time>
      </trkpt>
      <trkpt lat="43.4737990" lon="-91.2936580">
        <ele>195.2800000</ele>
        <time>2009-05-01T17:21:46Z</time>
      </trkpt>
      <trkpt lat="43.4736290" lon="-91.2934360">
        <ele>195.2800000</ele>
        <time>2009-05-01T17:21:47Z</time>
      </trkpt>
      <trkpt lat="43.4734250" lon="-91.2932800">
        <ele>194.8000000</ele>
        <time>2009-05-01T17:21:48Z</time>
      </trkpt>
      <trkpt lat="43.4732210" lon="-91.2931240">
        <ele>195.2800000</ele>
        <time>2009-05-01T17:21:49Z</time>
      </trkpt>
      <trkpt lat="43.4730160" lon="-91.2929690">
        <ele>195.2800000</ele>
        <time>2009-05-01T17:21:50Z</time>
      </trkpt>
      <trkpt lat="43.4697690" lon="-91.2908080">
        <ele>198.6500000</ele>
        <time>2009-05-01T17:22:06Z</time>
      </trkpt>
      <trkpt lat="43.4656910" lon="-91.2882880">
        <ele>196.2500000</ele>
        <time>2009-05-01T17:22:26Z</time>
      </trkpt>
      <trkpt lat="43.4637710" lon="-91.2871510">
        <ele>196.2500000</ele>
        <time>2009-05-01T17:22:37Z</time>
      </trkpt>
      <trkpt lat="43.4621160" lon="-91.2858670">
        <ele>199.1300000</ele>
        <time>2009-05-01T17:22:48Z</time>
      </trkpt>
      <trkpt lat="43.4614800" lon="-91.2845860">
        <ele>200.0900000</ele>
        <time>2009-05-01T17:22:54Z</time>
      </trkpt>
      <trkpt lat="43.4598270" lon="-91.2807680">
        <ele>199.1300000</ele>
        <time>2009-05-01T17:23:09Z</time>
      </trkpt>
      <trkpt lat="43.4587770" lon="-91.2796990">
        <ele>199.6100000</ele>
        <time>2009-05-01T17:23:15Z</time>
      </trkpt>
      <trkpt lat="43.4554150" lon="-91.2772590">
        <ele>197.6900000</ele>
        <time>2009-05-01T17:23:32Z</time>
      </trkpt>
      <trkpt lat="43.4519270" lon="-91.2745330">
        <ele>201.5300000</ele>
        <time>2009-05-01T17:23:50Z</time>
      </trkpt>
      <trkpt lat="43.4487460" lon="-91.2722620">
        <ele>202.4900000</ele>
        <time>2009-05-01T17:24:06Z</time>
      </trkpt>
      <trkpt lat="43.4448120" lon="-91.2700920">
        <ele>204.9000000</ele>
        <time>2009-05-01T17:24:25Z</time>
      </trkpt>
      <trkpt lat="43.4391860" lon="-91.2681790">
        <ele>209.7000000</ele>
        <time>2009-05-01T17:24:51Z</time>
      </trkpt>
      <trkpt lat="43.4373830" lon="-91.2681070">
        <ele>216.4300000</ele>
        <time>2009-05-01T17:24:59Z</time>
      </trkpt>
      <trkpt lat="43.4358480" lon="-91.2677970">
        <ele>212.5900000</ele>
        <time>2009-05-01T17:25:06Z</time>
      </trkpt>
      <trkpt lat="43.4342520" lon="-91.2667540">
        <ele>207.7800000</ele>
        <time>2009-05-01T17:25:14Z</time>
      </trkpt>
      <trkpt lat="43.4304050" lon="-91.2643930">
        <ele>203.9400000</ele>
        <time>2009-05-01T17:25:33Z</time>
      </trkpt>
      <trkpt lat="43.4269840" lon="-91.2629860">
        <ele>202.0100000</ele>
        <time>2009-05-01T17:25:49Z</time>
      </trkpt>
      <trkpt lat="43.4249740" lon="-91.2626840">
        <ele>207.3000000</ele>
        <time>2009-05-01T17:25:58Z</time>
      </trkpt>
      <trkpt lat="43.4229870" lon="-91.2622710">
        <ele>210.1900000</ele>
        <time>2009-05-01T17:26:08Z</time>
      </trkpt>
      <trkpt lat="43.4211690" lon="-91.2612910">
        <ele>209.2200000</ele>
        <time>2009-05-01T17:26:18Z</time>
      </trkpt>
      <trkpt lat="43.4184060" lon="-91.2599410">
        <ele>209.7000000</ele>
        <time>2009-05-01T17:26:32Z</time>
      </trkpt>
      <trkpt lat="43.4163320" lon="-91.2595370">
        <ele>210.1900000</ele>
        <time>2009-05-01T17:26:42Z</time>
      </trkpt>
      <trkpt lat="43.4138170" lon="-91.2599010">
        <ele>212.1100000</ele>
        <time>2009-05-01T17:26:54Z</time>
      </trkpt>
      <trkpt lat="43.4108070" lon="-91.2603140">
        <ele>202.9800000</ele>
        <time>2009-05-01T17:27:08Z</time>
      </trkpt>
      <trkpt lat="43.4096590" lon="-91.2597450">
        <ele>201.5300000</ele>
        <time>2009-05-01T17:27:14Z</time>
      </trkpt>
      <trkpt lat="43.4094940" lon="-91.2595780">
        <ele>201.0500000</ele>
        <time>2009-05-01T17:27:15Z</time>
      </trkpt>
      <trkpt lat="43.4093290" lon="-91.2593960">
        <ele>200.5700000</ele>
        <time>2009-05-01T17:27:16Z</time>
      </trkpt>
      <trkpt lat="43.4091680" lon="-91.2592170">
        <ele>200.5700000</ele>
        <time>2009-05-01T17:27:17Z</time>
      </trkpt>
      <trkpt lat="43.4090190" lon="-91.2590090">
        <ele>201.0500000</ele>
        <time>2009-05-01T17:27:18Z</time>
      </trkpt>
      <trkpt lat="43.4070490" lon="-91.2563180">
        <ele>207.7800000</ele>
        <time>2009-05-01T17:27:31Z</time>
      </trkpt>
      <trkpt lat="43.4044750" lon="-91.2537030">
        <ele>205.8600000</ele>
        <time>2009-05-01T17:27:45Z</time>
      </trkpt>
      <trkpt lat="43.4034000" lon="-91.2529350">
        <ele>204.9000000</ele>
        <time>2009-05-01T17:27:52Z</time>
      </trkpt>
      <trkpt lat="43.4026000" lon="-91.2524090">
        <ele>203.9400000</ele>
        <time>2009-05-01T17:28:01Z</time>
      </trkpt>
      <trkpt lat="43.4016570" lon="-91.2517870">
        <ele>205.3800000</ele>
        <time>2009-05-01T17:28:16Z</time>
      </trkpt>
      <trkpt lat="43.4007540" lon="-91.2511920">
        <ele>206.8200000</ele>
        <time>2009-05-01T17:28:32Z</time>
      </trkpt>
      <trkpt lat="43.4000960" lon="-91.2506600">
        <ele>206.8200000</ele>
        <time>2009-05-01T17:28:41Z</time>
      </trkpt>
      <trkpt lat="43.3991740" lon="-91.2497040">
        <ele>209.2200000</ele>
        <time>2009-05-01T17:28:49Z</time>
      </trkpt>
      <trkpt lat="43.3973570" lon="-91.2476300">
        <ele>207.3000000</ele>
        <time>2009-05-01T17:29:04Z</time>
      </trkpt>
      <trkpt lat="43.3958270" lon="-91.2463450">
        <ele>204.4200000</ele>
        <time>2009-05-01T17:29:14Z</time>
      </trkpt>
      <trkpt lat="43.3936450" lon="-91.2453360">
        <ele>202.4900000</ele>
        <time>2009-05-01T17:29:26Z</time>
      </trkpt>
      <trkpt lat="43.3905740" lon="-91.2439460">
        <ele>198.1700000</ele>
        <time>2009-05-01T17:29:42Z</time>
      </trkpt>
      <trkpt lat="43.3896110" lon="-91.2429000">
        <ele>197.6900000</ele>
        <time>2009-05-01T17:29:48Z</time>
      </trkpt>
      <trkpt lat="43.3870740" lon="-91.2393950">
        <ele>196.2500000</ele>
        <time>2009-05-01T17:30:05Z</time>
      </trkpt>
      <trkpt lat="43.3855300" lon="-91.2382920">
        <ele>196.2500000</ele>
        <time>2009-05-01T17:30:13Z</time>
      </trkpt>
      <trkpt lat="43.3828620" lon="-91.2361960">
        <ele>197.2100000</ele>
        <time>2009-05-01T17:30:27Z</time>
      </trkpt>
      <trkpt lat="43.3806270" lon="-91.2332140">
        <ele>199.1300000</ele>
        <time>2009-05-01T17:30:41Z</time>
      </trkpt>
      <trkpt lat="43.3785850" lon="-91.2308620">
        <ele>199.1300000</ele>
        <time>2009-05-01T17:30:53Z</time>
      </trkpt>
      <trkpt lat="43.3760420" lon="-91.2279420">
        <ele>200.5700000</ele>
        <time>2009-05-01T17:31:08Z</time>
      </trkpt>
      <trkpt lat="43.3734480" lon="-91.2255140">
        <ele>203.9400000</ele>
        <time>2009-05-01T17:31:23Z</time>
      </trkpt>
      <trkpt lat="43.3716990" lon="-91.2238920">
        <ele>213.5500000</ele>
        <time>2009-05-01T17:31:35Z</time>
      </trkpt>
      <trkpt lat="43.3702130" lon="-91.2222460">
        <ele>216.4300000</ele>
        <time>2009-05-01T17:31:46Z</time>
      </trkpt>
      <trkpt lat="43.3690920" lon="-91.2211550">
        <ele>217.4000000</ele>
        <time>2009-05-01T17:31:55Z</time>
      </trkpt>
      <trkpt lat="43.3677800" lon="-91.2199180">
        <ele>214.9900000</ele>
        <time>2009-05-01T17:32:07Z</time>
      </trkpt>
      <trkpt lat="43.3660750" lon="-91.2183010">
        <ele>207.3000000</ele>
        <time>2009-05-01T17:32:22Z</time>
      </trkpt>
      <trkpt lat="43.3648070" lon="-91.2174290">
        <ele>203.9400000</ele>
        <time>2009-05-01T17:32:33Z</time>
      </trkpt>
      <trkpt lat="43.3637540" lon="-91.2167160">
        <ele>203.9400000</ele>
        <time>2009-05-01T17:32:44Z</time>
      </trkpt>
      <trkpt lat="43.3633820" lon="-91.2164370">
        <ele>203.9400000</ele>
        <time>2009-05-01T17:32:51Z</time>
      </trkpt>
      <trkpt lat="43.3629660" lon="-91.2161260">
        <ele>212.1100000</ele>
        <time>2009-05-01T17:33:06Z</time>
      </trkpt>
      <trkpt lat="43.3627230" lon="-91.2159480">
        <ele>219.8000000</ele>
        <time>2009-05-01T17:33:21Z</time>
      </trkpt>
      <trkpt lat="43.3623240" lon="-91.2156670">
        <ele>212.5900000</ele>
        <time>2009-05-01T17:33:41Z</time>
      </trkpt>
      <trkpt lat="43.3622080" lon="-91.2155850">
        <ele>217.4000000</ele>
        <time>2009-05-01T17:33:53Z</time>
      </trkpt>
      <trkpt lat="43.3619020" lon="-91.2153870">
        <ele>210.1900000</ele>
        <time>2009-05-01T17:34:03Z</time>
      </trkpt>
      <trkpt lat="43.3614670" lon="-91.2151130">
        <ele>206.8200000</ele>
        <time>2009-05-01T17:34:15Z</time>
      </trkpt>
      <trkpt lat="43.3613990" lon="-91.2150700">
        <ele>206.3400000</ele>
        <time>2009-05-01T17:34:28Z</time>
      </trkpt>
      <trkpt lat="43.3613120" lon="-91.2150120">
        <ele>204.4200000</ele>
        <time>2009-05-01T17:34:47Z</time>
      </trkpt>
      <trkpt lat="43.3613120" lon="-91.2150120">
        <ele>202.0100000</ele>
        <time>2009-05-01T17:34:50Z</time>
      </trkpt>
      <trkpt lat="43.3613290" lon="-91.2149980">
        <ele>201.0500000</ele>
        <time>2009-05-01T17:34:51Z</time>
      </trkpt>
      <trkpt lat="43.3613370" lon="-91.2149790">
        <ele>200.5700000</ele>
        <time>2009-05-01T17:34:52Z</time>
      </trkpt>
      <trkpt lat="43.3613460" lon="-91.2149530">
        <ele>200.0900000</ele>
        <time>2009-05-01T17:34:53Z</time>
      </trkpt>
      <trkpt lat="43.3613570" lon="-91.2149250">
        <ele>199.6100000</ele>
        <time>2009-05-01T17:34:54Z</time>
      </trkpt>
      <trkpt lat="43.3613680" lon="-91.2148940">
        <ele>199.1300000</ele>
        <time>2009-05-01T17:34:55Z</time>
      </trkpt>
      <trkpt lat="43.3615120" lon="-91.2142930">
        <ele>197.2100000</ele>
        <time>2009-05-01T17:35:10Z</time>
      </trkpt>
      <trkpt lat="43.3615080" lon="-91.2145210">
        <ele>196.7300000</ele>
        <time>2009-05-01T17:35:11Z</time>
      </trkpt>
      <trkpt lat="43.3615080" lon="-91.2145210">
        <ele>196.2500000</ele>
        <time>2009-05-01T17:35:25Z</time>
      </trkpt>
      <trkpt lat="43.3615080" lon="-91.2145210">
        <ele>197.2100000</ele>
        <time>2009-05-01T17:35:42Z</time>
      </trkpt>
      <trkpt lat="43.3611760" lon="-91.2146070">
        <ele>196.2500000</ele>
        <time>2009-05-01T17:35:57Z</time>
      </trkpt>
      <trkpt lat="43.3611050" lon="-91.2149510">
        <ele>195.7700000</ele>
        <time>2009-05-01T17:36:09Z</time>
      </trkpt>
      <trkpt lat="43.3610530" lon="-91.2148950">
        <ele>196.2500000</ele>
        <time>2009-05-01T17:36:16Z</time>
      </trkpt>
      <trkpt lat="43.3610790" lon="-91.2148520">
        <ele>197.2100000</ele>
        <time>2009-05-01T17:36:28Z</time>
      </trkpt>
      <trkpt lat="43.3610860" lon="-91.2148150">
        <ele>199.1300000</ele>
        <time>2009-05-01T17:46:33Z</time>
      </trkpt>
      <trkpt lat="43.3610950" lon="-91.2148130">
        <ele>198.6500000</ele>
        <time>2009-05-01T17:46:52Z</time>
      </trkpt>
      <trkpt lat="43.3611380" lon="-91.2147570">
        <ele>198.6500000</ele>
        <time>2009-05-01T17:46:56Z</time>
      </trkpt>
      <trkpt lat="43.3613400" lon="-91.2143410">
        <ele>196.7300000</ele>
        <time>2009-05-01T17:47:14Z</time>
      </trkpt>
      <trkpt lat="43.3613440" lon="-91.2142940">
        <ele>193.8400000</ele>
        <time>2009-05-01T17:47:28Z</time>
      </trkpt>
      <trkpt lat="43.3611920" lon="-91.2141470">
        <ele>191.4400000</ele>
        <time>2009-05-01T17:47:55Z</time>
      </trkpt>
      <trkpt lat="43.3607140" lon="-91.2138460">
        <ele>189.0400000</ele>
        <time>2009-05-01T17:48:03Z</time>
      </trkpt>
      <trkpt lat="43.3594250" lon="-91.2132070">
        <ele>190.4800000</ele>
        <time>2009-05-01T17:48:21Z</time>
      </trkpt>
      <trkpt lat="43.3580300" lon="-91.2125810">
        <ele>190.0000000</ele>
        <time>2009-05-01T17:48:38Z</time>
      </trkpt>
      <trkpt lat="43.3565010" lon="-91.2118570">
        <ele>189.5200000</ele>
        <time>2009-05-01T17:48:57Z</time>
      </trkpt>
      <trkpt lat="43.3550790" lon="-91.2110850">
        <ele>189.0400000</ele>
        <time>2009-05-01T17:49:11Z</time>
      </trkpt>
      <trkpt lat="43.3534890" lon="-91.2098670">
        <ele>190.9600000</ele>
        <time>2009-05-01T17:49:27Z</time>
      </trkpt>
      <trkpt lat="43.3519450" lon="-91.2089810">
        <ele>191.4400000</ele>
        <time>2009-05-01T17:49:42Z</time>
      </trkpt>
      <trkpt lat="43.3508250" lon="-91.2081530">
        <ele>189.5200000</ele>
        <time>2009-05-01T17:49:52Z</time>
      </trkpt>
      <trkpt lat="43.3493970" lon="-91.2066610">
        <ele>190.4800000</ele>
        <time>2009-05-01T17:50:03Z</time>
      </trkpt>
      <trkpt lat="43.3474730" lon="-91.2041050">
        <ele>191.9200000</ele>
        <time>2009-05-01T17:50:18Z</time>
      </trkpt>
      <trkpt lat="43.3471590" lon="-91.2024130">
        <ele>192.8800000</ele>
        <time>2009-05-01T17:50:25Z</time>
      </trkpt>
      <trkpt lat="43.3469130" lon="-91.1995570">
        <ele>192.4000000</ele>
        <time>2009-05-01T17:50:36Z</time>
      </trkpt>
      <trkpt lat="43.3464780" lon="-91.1973380">
        <ele>190.0000000</ele>
        <time>2009-05-01T17:50:45Z</time>
      </trkpt>
      <trkpt lat="43.3466400" lon="-91.1949550">
        <ele>189.5200000</ele>
        <time>2009-05-01T17:50:54Z</time>
      </trkpt>
      <trkpt lat="43.3467350" lon="-91.1918890">
        <ele>190.4800000</ele>
        <time>2009-05-01T17:51:05Z</time>
      </trkpt>
      <trkpt lat="43.3462720" lon="-91.1893610">
        <ele>191.9200000</ele>
        <time>2009-05-01T17:51:14Z</time>
      </trkpt>
      <trkpt lat="43.3448430" lon="-91.1842820">
        <ele>194.8000000</ele>
        <time>2009-05-01T17:51:32Z</time>
      </trkpt>
      <trkpt lat="43.3437070" lon="-91.1811880">
        <ele>190.4800000</ele>
        <time>2009-05-01T17:51:43Z</time>
      </trkpt>
      <trkpt lat="43.3418290" lon="-91.1784040">
        <ele>193.3600000</ele>
        <time>2009-05-01T17:51:55Z</time>
      </trkpt>
      <trkpt lat="43.3390790" lon="-91.1755940">
        <ele>191.9200000</ele>
        <time>2009-05-01T17:52:10Z</time>
      </trkpt>
      <trkpt lat="43.3369390" lon="-91.1737990">
        <ele>193.3600000</ele>
        <time>2009-05-01T17:52:21Z</time>
      </trkpt>
      <trkpt lat="43.3346140" lon="-91.1718120">
        <ele>195.7700000</ele>
        <time>2009-05-01T17:52:33Z</time>
      </trkpt>
      <trkpt lat="43.3326920" lon="-91.1700940">
        <ele>195.2800000</ele>
        <time>2009-05-01T17:52:43Z</time>
      </trkpt>
      <trkpt lat="43.3296170" lon="-91.1679780">
        <ele>195.2800000</ele>
        <time>2009-05-01T17:52:58Z</time>
      </trkpt>
      <trkpt lat="43.3285890" lon="-91.1663490">
        <ele>198.6500000</ele>
        <time>2009-05-01T17:53:05Z</time>
      </trkpt>
      <trkpt lat="43.3272550" lon="-91.1634290">
        <ele>207.7800000</ele>
        <time>2009-05-01T17:53:16Z</time>
      </trkpt>
      <trkpt lat="43.3259260" lon="-91.1612700">
        <ele>217.4000000</ele>
        <time>2009-05-01T17:53:25Z</time>
      </trkpt>
      <trkpt lat="43.3243780" lon="-91.1598950">
        <ele>224.1200000</ele>
        <time>2009-05-01T17:53:33Z</time>
      </trkpt>
      <trkpt lat="43.3220060" lon="-91.1586850">
        <ele>231.3300000</ele>
        <time>2009-05-01T17:53:44Z</time>
      </trkpt>
      <trkpt lat="43.3206430" lon="-91.1585150">
        <ele>233.2600000</ele>
        <time>2009-05-01T17:53:50Z</time>
      </trkpt>
      <trkpt lat="43.3190500" lon="-91.1583920">
        <ele>236.6200000</ele>
        <time>2009-05-01T17:53:57Z</time>
      </trkpt>
      <trkpt lat="43.3188400" lon="-91.1582770">
        <ele>237.1000000</ele>
        <time>2009-05-01T17:53:58Z</time>
      </trkpt>
      <trkpt lat="43.3186310" lon="-91.1581630">
        <ele>237.5800000</ele>
        <time>2009-05-01T17:53:59Z</time>
      </trkpt>
      <trkpt lat="43.3184420" lon="-91.1580110">
        <ele>238.0600000</ele>
        <time>2009-05-01T17:54:00Z</time>
      </trkpt>
      <trkpt lat="43.3182490" lon="-91.1578510">
        <ele>239.0200000</ele>
        <time>2009-05-01T17:54:01Z</time>
      </trkpt>
      <trkpt lat="43.3172110" lon="-91.1572050">
        <ele>242.3900000</ele>
        <time>2009-05-01T17:54:06Z</time>
      </trkpt>
      <trkpt lat="43.3169860" lon="-91.1571880">
        <ele>243.3500000</ele>
        <time>2009-05-01T17:54:07Z</time>
      </trkpt>
      <trkpt lat="43.3167580" lon="-91.1571720">
        <ele>243.8300000</ele>
        <time>2009-05-01T17:54:08Z</time>
      </trkpt>
      <trkpt lat="43.3165310" lon="-91.1571870">
        <ele>244.7900000</ele>
        <time>2009-05-01T17:54:09Z</time>
      </trkpt>
      <trkpt lat="43.3163010" lon="-91.1572060">
        <ele>245.7500000</ele>
        <time>2009-05-01T17:54:10Z</time>
      </trkpt>
      <trkpt lat="43.3160700" lon="-91.1572260">
        <ele>247.2000000</ele>
        <time>2009-05-01T17:54:11Z</time>
      </trkpt>
      <trkpt lat="43.3151860" lon="-91.1571490">
        <ele>252.4800000</ele>
        <time>2009-05-01T17:54:15Z</time>
      </trkpt>
      <trkpt lat="43.3149680" lon="-91.1570580">
        <ele>252.4800000</ele>
        <time>2009-05-01T17:54:16Z</time>
      </trkpt>
      <trkpt lat="43.3147650" lon="-91.1569150">
        <ele>252.9600000</ele>
        <time>2009-05-01T17:54:17Z</time>
      </trkpt>
      <trkpt lat="43.3145550" lon="-91.1567540">
        <ele>253.9300000</ele>
        <time>2009-05-01T17:54:18Z</time>
      </trkpt>
      <trkpt lat="43.3143550" lon="-91.1566010">
        <ele>254.8900000</ele>
        <time>2009-05-01T17:54:19Z</time>
      </trkpt>
      <trkpt lat="43.3141580" lon="-91.1564500">
        <ele>256.3300000</ele>
        <time>2009-05-01T17:54:20Z</time>
      </trkpt>
      <trkpt lat="43.3126600" lon="-91.1556830">
        <ele>262.1000000</ele>
        <time>2009-05-01T17:54:27Z</time>
      </trkpt>
      <trkpt lat="43.3112190" lon="-91.1548250">
        <ele>268.8300000</ele>
        <time>2009-05-01T17:54:34Z</time>
      </trkpt>
      <trkpt lat="43.3101060" lon="-91.1533050">
        <ele>281.8000000</ele>
        <time>2009-05-01T17:54:41Z</time>
      </trkpt>
      <trkpt lat="43.3097490" lon="-91.1529010">
        <ele>284.6900000</ele>
        <time>2009-05-01T17:54:43Z</time>
      </trkpt>
      <trkpt lat="43.3095590" lon="-91.1527240">
        <ele>286.6100000</ele>
        <time>2009-05-01T17:54:44Z</time>
      </trkpt>
      <trkpt lat="43.3093640" lon="-91.1525780">
        <ele>288.5300000</ele>
        <time>2009-05-01T17:54:45Z</time>
      </trkpt>
      <trkpt lat="43.3091610" lon="-91.1524250">
        <ele>290.4600000</ele>
        <time>2009-05-01T17:54:46Z</time>
      </trkpt>
      <trkpt lat="43.3089310" lon="-91.1523400">
        <ele>292.3800000</ele>
        <time>2009-05-01T17:54:47Z</time>
      </trkpt>
      <trkpt lat="43.3087070" lon="-91.1522670">
        <ele>292.8600000</ele>
        <time>2009-05-01T17:54:48Z</time>
      </trkpt>
      <trkpt lat="43.3084820" lon="-91.1521930">
        <ele>293.8200000</ele>
        <time>2009-05-01T17:54:49Z</time>
      </trkpt>
      <trkpt lat="43.3082580" lon="-91.1521200">
        <ele>294.3000000</ele>
        <time>2009-05-01T17:54:50Z</time>
      </trkpt>
      <trkpt lat="43.3054170" lon="-91.1508780">
        <ele>302.4700000</ele>
        <time>2009-05-01T17:55:03Z</time>
      </trkpt>
      <trkpt lat="43.3020920" lon="-91.1487810">
        <ele>317.8500000</ele>
        <time>2009-05-01T17:55:19Z</time>
      </trkpt>
      <trkpt lat="43.2994770" lon="-91.1467210">
        <ele>305.8400000</ele>
        <time>2009-05-01T17:55:32Z</time>
      </trkpt>
      <trkpt lat="43.2983910" lon="-91.1462320">
        <ele>298.1500000</ele>
        <time>2009-05-01T17:55:37Z</time>
      </trkpt>
      <trkpt lat="43.2981680" lon="-91.1462490">
        <ele>297.1800000</ele>
        <time>2009-05-01T17:55:38Z</time>
      </trkpt>
      <trkpt lat="43.2979400" lon="-91.1462660">
        <ele>296.7000000</ele>
        <time>2009-05-01T17:55:39Z</time>
      </trkpt>
      <trkpt lat="43.2977270" lon="-91.1463440">
        <ele>296.2200000</ele>
        <time>2009-05-01T17:55:40Z</time>
      </trkpt>
      <trkpt lat="43.2975050" lon="-91.1464420">
        <ele>295.2600000</ele>
        <time>2009-05-01T17:55:41Z</time>
      </trkpt>
      <trkpt lat="43.2972810" lon="-91.1465410">
        <ele>294.7800000</ele>
        <time>2009-05-01T17:55:42Z</time>
      </trkpt>
      <trkpt lat="43.2965910" lon="-91.1466860">
        <ele>292.8600000</ele>
        <time>2009-05-01T17:55:45Z</time>
      </trkpt>
      <trkpt lat="43.2963580" lon="-91.1466550">
        <ele>291.4200000</ele>
        <time>2009-05-01T17:55:46Z</time>
      </trkpt>
      <trkpt lat="43.2961350" lon="-91.1466250">
        <ele>289.4900000</ele>
        <time>2009-05-01T17:55:47Z</time>
      </trkpt>
      <trkpt lat="43.2959170" lon="-91.1465390">
        <ele>288.0500000</ele>
        <time>2009-05-01T17:55:48Z</time>
      </trkpt>
      <trkpt lat="43.2957130" lon="-91.1464130">
        <ele>286.6100000</ele>
        <time>2009-05-01T17:55:49Z</time>
      </trkpt>
      <trkpt lat="43.2955190" lon="-91.1462420">
        <ele>284.6900000</ele>
        <time>2009-05-01T17:55:50Z</time>
      </trkpt>
      <trkpt lat="43.2953240" lon="-91.1460720">
        <ele>283.2500000</ele>
        <time>2009-05-01T17:55:51Z</time>
      </trkpt>
      <trkpt lat="43.2951300" lon="-91.1459020">
        <ele>281.3200000</ele>
        <time>2009-05-01T17:55:52Z</time>
      </trkpt>
      <trkpt lat="43.2949440" lon="-91.1457210">
        <ele>279.8800000</ele>
        <time>2009-05-01T17:55:53Z</time>
      </trkpt>
      <trkpt lat="43.2930320" lon="-91.1434190">
        <ele>259.6900000</ele>
        <time>2009-05-01T17:56:04Z</time>
      </trkpt>
      <trkpt lat="43.2917150" lon="-91.1408750">
        <ele>255.8500000</ele>
        <time>2009-05-01T17:56:14Z</time>
      </trkpt>
      <trkpt lat="43.2904070" lon="-91.1387000">
        <ele>252.0000000</ele>
        <time>2009-05-01T17:56:23Z</time>
      </trkpt>
      <trkpt lat="43.2890500" lon="-91.1366000">
        <ele>243.8300000</ele>
        <time>2009-05-01T17:56:32Z</time>
      </trkpt>
      <trkpt lat="43.2885290" lon="-91.1345560">
        <ele>234.2200000</ele>
        <time>2009-05-01T17:56:39Z</time>
      </trkpt>
      <trkpt lat="43.2879590" lon="-91.1328720">
        <ele>228.4500000</ele>
        <time>2009-05-01T17:56:45Z</time>
      </trkpt>
      <trkpt lat="43.2878070" lon="-91.1326440">
        <ele>228.4500000</ele>
        <time>2009-05-01T17:56:46Z</time>
      </trkpt>
      <trkpt lat="43.2876360" lon="-91.1324310">
        <ele>227.9700000</ele>
        <time>2009-05-01T17:56:47Z</time>
      </trkpt>
      <trkpt lat="43.2874640" lon="-91.1322160">
        <ele>227.4900000</ele>
        <time>2009-05-01T17:56:48Z</time>
      </trkpt>
      <trkpt lat="43.2872820" lon="-91.1320260">
        <ele>227.0100000</ele>
        <time>2009-05-01T17:56:49Z</time>
      </trkpt>
      <trkpt lat="43.2870830" lon="-91.1318550">
        <ele>227.0100000</ele>
        <time>2009-05-01T17:56:50Z</time>
      </trkpt>
      <trkpt lat="43.2868590" lon="-91.1317570">
        <ele>227.0100000</ele>
        <time>2009-05-01T17:56:51Z</time>
      </trkpt>
      <trkpt lat="43.2866350" lon="-91.1316610">
        <ele>227.0100000</ele>
        <time>2009-05-01T17:56:52Z</time>
      </trkpt>
      <trkpt lat="43.2864120" lon="-91.1315790">
        <ele>226.0500000</ele>
        <time>2009-05-01T17:56:53Z</time>
      </trkpt>
      <trkpt lat="43.2861800" lon="-91.1315270">
        <ele>226.0500000</ele>
        <time>2009-05-01T17:56:54Z</time>
      </trkpt>
      <trkpt lat="43.2859520" lon="-91.1315170">
        <ele>225.5700000</ele>
        <time>2009-05-01T17:56:55Z</time>
      </trkpt>
      <trkpt lat="43.2857170" lon="-91.1315340">
        <ele>225.0900000</ele>
        <time>2009-05-01T17:56:56Z</time>
      </trkpt>
      <trkpt lat="43.2854900" lon="-91.1315500">
        <ele>225.0900000</ele>
        <time>2009-05-01T17:56:57Z</time>
      </trkpt>
      <trkpt lat="43.2852630" lon="-91.1316410">
        <ele>224.6100000</ele>
        <time>2009-05-01T17:56:58Z</time>
      </trkpt>
      <trkpt lat="43.2850370" lon="-91.1317310">
        <ele>224.6100000</ele>
        <time>2009-05-01T17:56:59Z</time>
      </trkpt>
      <trkpt lat="43.2848110" lon="-91.1318210">
        <ele>224.1200000</ele>
        <time>2009-05-01T17:57:00Z</time>
      </trkpt>
      <trkpt lat="43.2825760" lon="-91.1323640">
        <ele>223.1600000</ele>
        <time>2009-05-01T17:57:10Z</time>
      </trkpt>
      <trkpt lat="43.2800770" lon="-91.1328010">
        <ele>227.4900000</ele>
        <time>2009-05-01T17:57:21Z</time>
      </trkpt>
      <trkpt lat="43.2786160" lon="-91.1339580">
        <ele>222.6800000</ele>
        <time>2009-05-01T17:57:28Z</time>
      </trkpt>
      <trkpt lat="43.2779570" lon="-91.1343140">
        <ele>217.4000000</ele>
        <time>2009-05-01T17:57:31Z</time>
      </trkpt>
      <trkpt lat="43.2777380" lon="-91.1343620">
        <ele>215.9500000</ele>
        <time>2009-05-01T17:57:32Z</time>
      </trkpt>
      <trkpt lat="43.2775120" lon="-91.1343940">
        <ele>215.4700000</ele>
        <time>2009-05-01T17:57:33Z</time>
      </trkpt>
      <trkpt lat="43.2772990" lon="-91.1344250">
        <ele>214.9900000</ele>
        <time>2009-05-01T17:57:34Z</time>
      </trkpt>
      <trkpt lat="43.2770950" lon="-91.1344010">
        <ele>214.5100000</ele>
        <time>2009-05-01T17:57:35Z</time>
      </trkpt>
      <trkpt lat="43.2768920" lon="-91.1343570">
        <ele>213.5500000</ele>
        <time>2009-05-01T17:57:36Z</time>
      </trkpt>
      <trkpt lat="43.2766800" lon="-91.1342620">
        <ele>213.0700000</ele>
        <time>2009-05-01T17:57:37Z</time>
      </trkpt>
      <trkpt lat="43.2764670" lon="-91.1341680">
        <ele>212.1100000</ele>
        <time>2009-05-01T17:57:38Z</time>
      </trkpt>
      <trkpt lat="43.2762460" lon="-91.1340700">
        <ele>212.1100000</ele>
        <time>2009-05-01T17:57:39Z</time>
      </trkpt>
      <trkpt lat="43.2740070" lon="-91.1333650">
        <ele>202.9800000</ele>
        <time>2009-05-01T17:57:49Z</time>
      </trkpt>
      <trkpt lat="43.2717500" lon="-91.1331790">
        <ele>202.9800000</ele>
        <time>2009-05-01T17:57:59Z</time>
      </trkpt>
      <trkpt lat="43.2715290" lon="-91.1332750">
        <ele>203.4600000</ele>
        <time>2009-05-01T17:58:00Z</time>
      </trkpt>
      <trkpt lat="43.2713150" lon="-91.1333690">
        <ele>203.4600000</ele>
        <time>2009-05-01T17:58:01Z</time>
      </trkpt>
      <trkpt lat="43.2711000" lon="-91.1334740">
        <ele>204.4200000</ele>
        <time>2009-05-01T17:58:02Z</time>
      </trkpt>
      <trkpt lat="43.2708910" lon="-91.1336090">
        <ele>205.3800000</ele>
        <time>2009-05-01T17:58:03Z</time>
      </trkpt>
      <trkpt lat="43.2700460" lon="-91.1340660">
        <ele>210.1900000</ele>
        <time>2009-05-01T17:58:07Z</time>
      </trkpt>
      <trkpt lat="43.2698260" lon="-91.1341220">
        <ele>211.6300000</ele>
        <time>2009-05-01T17:58:08Z</time>
      </trkpt>
      <trkpt lat="43.2696000" lon="-91.1341070">
        <ele>212.5900000</ele>
        <time>2009-05-01T17:58:09Z</time>
      </trkpt>
      <trkpt lat="43.2693740" lon="-91.1340920">
        <ele>213.5500000</ele>
        <time>2009-05-01T17:58:10Z</time>
      </trkpt>
      <trkpt lat="43.2691510" lon="-91.1340670">
        <ele>214.5100000</ele>
        <time>2009-05-01T17:58:11Z</time>
      </trkpt>
      <trkpt lat="43.2689260" lon="-91.1340210">
        <ele>215.4700000</ele>
        <time>2009-05-01T17:58:12Z</time>
      </trkpt>
      <trkpt lat="43.2655260" lon="-91.1336610">
        <ele>229.8900000</ele>
        <time>2009-05-01T17:58:27Z</time>
      </trkpt>
      <trkpt lat="43.2637140" lon="-91.1343010">
        <ele>239.5100000</ele>
        <time>2009-05-01T17:58:35Z</time>
      </trkpt>
      <trkpt lat="43.2623960" lon="-91.1343230">
        <ele>252.4800000</ele>
        <time>2009-05-01T17:58:41Z</time>
      </trkpt>
      <trkpt lat="43.2595020" lon="-91.1336990">
        <ele>271.7100000</ele>
        <time>2009-05-01T17:58:54Z</time>
      </trkpt>
      <trkpt lat="43.2579550" lon="-91.1340200">
        <ele>288.5300000</ele>
        <time>2009-05-01T17:59:01Z</time>
      </trkpt>
      <trkpt lat="43.2536520" lon="-91.1353040">
        <ele>316.8900000</ele>
        <time>2009-05-01T17:59:20Z</time>
      </trkpt>
      <trkpt lat="43.2517820" lon="-91.1353940">
        <ele>306.8000000</ele>
        <time>2009-05-01T17:59:28Z</time>
      </trkpt>
      <trkpt lat="43.2502270" lon="-91.1348330">
        <ele>289.4900000</ele>
        <time>2009-05-01T17:59:35Z</time>
      </trkpt>
      <trkpt lat="43.2481250" lon="-91.1341410">
        <ele>268.3500000</ele>
        <time>2009-05-01T17:59:44Z</time>
      </trkpt>
      <trkpt lat="43.2463800" lon="-91.1344500">
        <ele>254.8900000</ele>
        <time>2009-05-01T17:59:51Z</time>
      </trkpt>
      <trkpt lat="43.2421710" lon="-91.1355070">
        <ele>225.5700000</ele>
        <time>2009-05-01T18:00:08Z</time>
      </trkpt>
      <trkpt lat="43.2400990" lon="-91.1359570">
        <ele>216.9100000</ele>
        <time>2009-05-01T18:00:17Z</time>
      </trkpt>
      <trkpt lat="43.2398910" lon="-91.1358650">
        <ele>216.4300000</ele>
        <time>2009-05-01T18:00:18Z</time>
      </trkpt>
      <trkpt lat="43.2396890" lon="-91.1357640">
        <ele>215.9500000</ele>
        <time>2009-05-01T18:00:19Z</time>
      </trkpt>
      <trkpt lat="43.2394910" lon="-91.1356310">
        <ele>215.4700000</ele>
        <time>2009-05-01T18:00:20Z</time>
      </trkpt>
      <trkpt lat="43.2393200" lon="-91.1354960">
        <ele>214.5100000</ele>
        <time>2009-05-01T18:00:21Z</time>
      </trkpt>
      <trkpt lat="43.2391580" lon="-91.1352910">
        <ele>214.0300000</ele>
        <time>2009-05-01T18:00:22Z</time>
      </trkpt>
      <trkpt lat="43.2389900" lon="-91.1350790">
        <ele>214.0300000</ele>
        <time>2009-05-01T18:00:23Z</time>
      </trkpt>
      <trkpt lat="43.2388210" lon="-91.1348640">
        <ele>214.0300000</ele>
        <time>2009-05-01T18:00:24Z</time>
      </trkpt>
      <trkpt lat="43.2386790" lon="-91.1346560">
        <ele>214.5100000</ele>
        <time>2009-05-01T18:00:25Z</time>
      </trkpt>
      <trkpt lat="43.2385550" lon="-91.1343920">
        <ele>214.5100000</ele>
        <time>2009-05-01T18:00:26Z</time>
      </trkpt>
      <trkpt lat="43.2384290" lon="-91.1341260">
        <ele>215.4700000</ele>
        <time>2009-05-01T18:00:27Z</time>
      </trkpt>
      <trkpt lat="43.2353150" lon="-91.1275130">
        <ele>215.9500000</ele>
        <time>2009-05-01T18:00:52Z</time>
      </trkpt>
      <trkpt lat="43.2343650" lon="-91.1257390">
        <ele>213.5500000</ele>
        <time>2009-05-01T18:00:59Z</time>
      </trkpt>
      <trkpt lat="43.2341910" lon="-91.1255360">
        <ele>213.0700000</ele>
        <time>2009-05-01T18:01:00Z</time>
      </trkpt>
      <trkpt lat="43.2339840" lon="-91.1253570">
        <ele>212.5900000</ele>
        <time>2009-05-01T18:01:01Z</time>
      </trkpt>
      <trkpt lat="43.2337560" lon="-91.1252310">
        <ele>212.1100000</ele>
        <time>2009-05-01T18:01:02Z</time>
      </trkpt>
      <trkpt lat="43.2335320" lon="-91.1251310">
        <ele>211.6300000</ele>
        <time>2009-05-01T18:01:03Z</time>
      </trkpt>
      <trkpt lat="43.2332990" lon="-91.1250530">
        <ele>210.6700000</ele>
        <time>2009-05-01T18:01:04Z</time>
      </trkpt>
      <trkpt lat="43.2330680" lon="-91.1250600">
        <ele>209.7000000</ele>
        <time>2009-05-01T18:01:05Z</time>
      </trkpt>
      <trkpt lat="43.2328340" lon="-91.1251120">
        <ele>208.2600000</ele>
        <time>2009-05-01T18:01:06Z</time>
      </trkpt>
      <trkpt lat="43.2326040" lon="-91.1251630">
        <ele>206.3400000</ele>
        <time>2009-05-01T18:01:07Z</time>
      </trkpt>
      <trkpt lat="43.2323830" lon="-91.1252390">
        <ele>204.4200000</ele>
        <time>2009-05-01T18:01:08Z</time>
      </trkpt>
      <trkpt lat="43.2321670" lon="-91.1253760">
        <ele>202.4900000</ele>
        <time>2009-05-01T18:01:09Z</time>
      </trkpt>
      <trkpt lat="43.2319640" lon="-91.1255100">
        <ele>200.5700000</ele>
        <time>2009-05-01T18:01:10Z</time>
      </trkpt>
      <trkpt lat="43.2317860" lon="-91.1257000">
        <ele>198.1700000</ele>
        <time>2009-05-01T18:01:11Z</time>
      </trkpt>
      <trkpt lat="43.2315970" lon="-91.1259010">
        <ele>196.7300000</ele>
        <time>2009-05-01T18:01:12Z</time>
      </trkpt>
      <trkpt lat="43.2285260" lon="-91.1291690">
        <ele>198.6500000</ele>
        <time>2009-05-01T18:01:29Z</time>
      </trkpt>
      <trkpt lat="43.2258950" lon="-91.1322530">
        <ele>193.8400000</ele>
        <time>2009-05-01T18:01:44Z</time>
      </trkpt>
      <trkpt lat="43.2231120" lon="-91.1359980">
        <ele>187.5900000</ele>
        <time>2009-05-01T18:02:01Z</time>
      </trkpt>
      <trkpt lat="43.2215550" lon="-91.1390620">
        <ele>194.8000000</ele>
        <time>2009-05-01T18:02:13Z</time>
      </trkpt>
      <trkpt lat="43.2202700" lon="-91.1403660">
        <ele>195.2800000</ele>
        <time>2009-05-01T18:02:20Z</time>
      </trkpt>
      <trkpt lat="43.2187580" lon="-91.1410370">
        <ele>193.8400000</ele>
        <time>2009-05-01T18:02:27Z</time>
      </trkpt>
      <trkpt lat="43.2169270" lon="-91.1411390">
        <ele>193.3600000</ele>
        <time>2009-05-01T18:02:35Z</time>
      </trkpt>
      <trkpt lat="43.2125680" lon="-91.1413750">
        <ele>194.3200000</ele>
        <time>2009-05-01T18:02:55Z</time>
      </trkpt>
      <trkpt lat="43.2116680" lon="-91.1422320">
        <ele>193.8400000</ele>
        <time>2009-05-01T18:03:01Z</time>
      </trkpt>
      <trkpt lat="43.2101920" lon="-91.1440340">
        <ele>194.3200000</ele>
        <time>2009-05-01T18:03:10Z</time>
      </trkpt>
      <trkpt lat="43.2080430" lon="-91.1469540">
        <ele>194.3200000</ele>
        <time>2009-05-01T18:03:24Z</time>
      </trkpt>
      <trkpt lat="43.2069750" lon="-91.1486390">
        <ele>194.3200000</ele>
        <time>2009-05-01T18:03:32Z</time>
      </trkpt>
      <trkpt lat="43.2057450" lon="-91.1502120">
        <ele>193.3600000</ele>
        <time>2009-05-01T18:03:44Z</time>
      </trkpt>
      <trkpt lat="43.2038950" lon="-91.1522390">
        <ele>192.8800000</ele>
        <time>2009-05-01T18:04:03Z</time>
      </trkpt>
      <trkpt lat="43.2020430" lon="-91.1542320">
        <ele>193.3600000</ele>
        <time>2009-05-01T18:04:23Z</time>
      </trkpt>
      <trkpt lat="43.2017430" lon="-91.1547810">
        <ele>191.9200000</ele>
        <time>2009-05-01T18:04:29Z</time>
      </trkpt>
      <trkpt lat="43.2015960" lon="-91.1552350">
        <ele>191.4400000</ele>
        <time>2009-05-01T18:04:36Z</time>
      </trkpt>
      <trkpt lat="43.2011890" lon="-91.1565240">
        <ele>190.4800000</ele>
        <time>2009-05-01T18:04:44Z</time>
      </trkpt>
      <trkpt lat="43.2003940" lon="-91.1575580">
        <ele>188.5600000</ele>
        <time>2009-05-01T18:04:51Z</time>
      </trkpt>
      <trkpt lat="43.1983490" lon="-91.1596590">
        <ele>190.4800000</ele>
        <time>2009-05-01T18:05:06Z</time>
      </trkpt>
      <trkpt lat="43.1964970" lon="-91.1611780">
        <ele>187.1100000</ele>
        <time>2009-05-01T18:05:16Z</time>
      </trkpt>
      <trkpt lat="43.1937860" lon="-91.1634010">
        <ele>183.2700000</ele>
        <time>2009-05-01T18:05:30Z</time>
      </trkpt>
      <trkpt lat="43.1890900" lon="-91.1672740">
        <ele>182.7900000</ele>
        <time>2009-05-01T18:05:54Z</time>
      </trkpt>
      <trkpt lat="43.1854570" lon="-91.1699270">
        <ele>185.6700000</ele>
        <time>2009-05-01T18:06:12Z</time>
      </trkpt>
      <trkpt lat="43.1817710" lon="-91.1724140">
        <ele>189.0400000</ele>
        <time>2009-05-01T18:06:30Z</time>
      </trkpt>
      <trkpt lat="43.1783160" lon="-91.1740490">
        <ele>189.5200000</ele>
        <time>2009-05-01T18:06:46Z</time>
      </trkpt>
      <trkpt lat="43.1737740" lon="-91.1762050">
        <ele>190.4800000</ele>
        <time>2009-05-01T18:07:07Z</time>
      </trkpt>
      <trkpt lat="43.1717300" lon="-91.1766550">
        <ele>193.3600000</ele>
        <time>2009-05-01T18:07:16Z</time>
      </trkpt>
      <trkpt lat="43.1683290" lon="-91.1773630">
        <ele>194.3200000</ele>
        <time>2009-05-01T18:07:31Z</time>
      </trkpt>
      <trkpt lat="43.1638640" lon="-91.1787540">
        <ele>189.0400000</ele>
        <time>2009-05-01T18:07:51Z</time>
      </trkpt>
      <trkpt lat="43.1608800" lon="-91.1803290">
        <ele>187.1100000</ele>
        <time>2009-05-01T18:08:05Z</time>
      </trkpt>
      <trkpt lat="43.1589180" lon="-91.1810400">
        <ele>185.6700000</ele>
        <time>2009-05-01T18:08:14Z</time>
      </trkpt>
      <trkpt lat="43.1555410" lon="-91.1817000">
        <ele>189.0400000</ele>
        <time>2009-05-01T18:08:29Z</time>
      </trkpt>
      <trkpt lat="43.1553370" lon="-91.1818460">
        <ele>188.5600000</ele>
        <time>2009-05-01T18:08:30Z</time>
      </trkpt>
      <trkpt lat="43.1551320" lon="-91.1819920">
        <ele>188.5600000</ele>
        <time>2009-05-01T18:08:31Z</time>
      </trkpt>
      <trkpt lat="43.1548550" lon="-91.1821900">
        <ele>188.0800000</ele>
        <time>2009-05-01T18:08:32Z</time>
      </trkpt>
      <trkpt lat="43.1547370" lon="-91.1822940">
        <ele>188.0800000</ele>
        <time>2009-05-01T18:08:33Z</time>
      </trkpt>
      <trkpt lat="43.1536840" lon="-91.1834600">
        <ele>188.5600000</ele>
        <time>2009-05-01T18:08:39Z</time>
      </trkpt>
      <trkpt lat="43.1535300" lon="-91.1837030">
        <ele>188.0800000</ele>
        <time>2009-05-01T18:08:40Z</time>
      </trkpt>
      <trkpt lat="43.1534340" lon="-91.1839710">
        <ele>188.5600000</ele>
        <time>2009-05-01T18:08:41Z</time>
      </trkpt>
      <trkpt lat="43.1533570" lon="-91.1842770">
        <ele>188.5600000</ele>
        <time>2009-05-01T18:08:42Z</time>
      </trkpt>
      <trkpt lat="43.1533240" lon="-91.1845740">
        <ele>189.0400000</ele>
        <time>2009-05-01T18:08:43Z</time>
      </trkpt>
      <trkpt lat="43.1532900" lon="-91.1849020">
        <ele>190.0000000</ele>
        <time>2009-05-01T18:08:44Z</time>
      </trkpt>
      <trkpt lat="43.1532570" lon="-91.1852250">
        <ele>191.9200000</ele>
        <time>2009-05-01T18:08:45Z</time>
      </trkpt>
      <trkpt lat="43.1532250" lon="-91.1855310">
        <ele>192.8800000</ele>
        <time>2009-05-01T18:08:46Z</time>
      </trkpt>
      <trkpt lat="43.1532060" lon="-91.1858340">
        <ele>192.4000000</ele>
        <time>2009-05-01T18:08:47Z</time>
      </trkpt>
      <trkpt lat="43.1527390" lon="-91.1910990">
        <ele>192.8800000</ele>
        <time>2009-05-01T18:09:04Z</time>
      </trkpt>
      <trkpt lat="43.1519170" lon="-91.1932830">
        <ele>194.8000000</ele>
        <time>2009-05-01T18:09:12Z</time>
      </trkpt>
      <trkpt lat="43.1503110" lon="-91.1967290">
        <ele>190.9600000</ele>
        <time>2009-05-01T18:09:25Z</time>
      </trkpt>
      <trkpt lat="43.1490270" lon="-91.1988760">
        <ele>205.8600000</ele>
        <time>2009-05-01T18:09:34Z</time>
      </trkpt>
      <trkpt lat="43.1478690" lon="-91.1998360">
        <ele>208.7400000</ele>
        <time>2009-05-01T18:09:40Z</time>
      </trkpt>
      <trkpt lat="43.1465340" lon="-91.2001260">
        <ele>211.6300000</ele>
        <time>2009-05-01T18:09:46Z</time>
      </trkpt>
      <trkpt lat="43.1433280" lon="-91.2004260">
        <ele>218.3600000</ele>
        <time>2009-05-01T18:10:00Z</time>
      </trkpt>
      <trkpt lat="43.1413470" lon="-91.2011710">
        <ele>220.7600000</ele>
        <time>2009-05-01T18:10:09Z</time>
      </trkpt>
      <trkpt lat="43.1382120" lon="-91.2029140">
        <ele>226.0500000</ele>
        <time>2009-05-01T18:10:24Z</time>
      </trkpt>
      <trkpt lat="43.1365640" lon="-91.2046500">
        <ele>227.4900000</ele>
        <time>2009-05-01T18:10:33Z</time>
      </trkpt>
      <trkpt lat="43.1352860" lon="-91.2051070">
        <ele>237.1000000</ele>
        <time>2009-05-01T18:10:39Z</time>
      </trkpt>
      <trkpt lat="43.1334760" lon="-91.2050440">
        <ele>255.3700000</ele>
        <time>2009-05-01T18:10:47Z</time>
      </trkpt>
      <trkpt lat="43.1310200" lon="-91.2052990">
        <ele>270.2700000</ele>
        <time>2009-05-01T18:10:58Z</time>
      </trkpt>
      <trkpt lat="43.1298240" lon="-91.2061900">
        <ele>278.9200000</ele>
        <time>2009-05-01T18:11:04Z</time>
      </trkpt>
      <trkpt lat="43.1287910" lon="-91.2078150">
        <ele>292.8600000</ele>
        <time>2009-05-01T18:11:11Z</time>
      </trkpt>
      <trkpt lat="43.1274980" lon="-91.2103200">
        <ele>311.6000000</ele>
        <time>2009-05-01T18:11:22Z</time>
      </trkpt>
      <trkpt lat="43.1271640" lon="-91.2109670">
        <ele>316.4100000</ele>
        <time>2009-05-01T18:11:28Z</time>
      </trkpt>
      <trkpt lat="43.1271020" lon="-91.2110020">
        <ele>315.4500000</ele>
        <time>2009-05-01T18:11:34Z</time>
      </trkpt>
      <trkpt lat="43.1270550" lon="-91.2109590">
        <ele>314.9700000</ele>
        <time>2009-05-01T18:11:35Z</time>
      </trkpt>
      <trkpt lat="43.1269900" lon="-91.2109000">
        <ele>314.4900000</ele>
        <time>2009-05-01T18:11:36Z</time>
      </trkpt>
      <trkpt lat="43.1269130" lon="-91.2108290">
        <ele>314.4900000</ele>
        <time>2009-05-01T18:11:37Z</time>
      </trkpt>
      <trkpt lat="43.1268190" lon="-91.2107440">
        <ele>314.0100000</ele>
        <time>2009-05-01T18:11:38Z</time>
      </trkpt>
      <trkpt lat="43.1260300" lon="-91.2100250">
        <ele>312.5700000</ele>
        <time>2009-05-01T18:11:44Z</time>
      </trkpt>
      <trkpt lat="43.1250300" lon="-91.2086690">
        <ele>311.1200000</ele>
        <time>2009-05-01T18:11:51Z</time>
      </trkpt>
      <trkpt lat="43.1223150" lon="-91.2039870">
        <ele>339.0000000</ele>
        <time>2009-05-01T18:12:11Z</time>
      </trkpt>
      <trkpt lat="43.1208360" lon="-91.2022370">
        <ele>351.0200000</ele>
        <time>2009-05-01T18:12:20Z</time>
      </trkpt>
      <trkpt lat="43.1192170" lon="-91.2010990">
        <ele>350.5400000</ele>
        <time>2009-05-01T18:12:28Z</time>
      </trkpt>
      <trkpt lat="43.1167870" lon="-91.2001190">
        <ele>342.3700000</ele>
        <time>2009-05-01T18:12:39Z</time>
      </trkpt>
      <trkpt lat="43.1151710" lon="-91.1999990">
        <ele>335.6400000</ele>
        <time>2009-05-01T18:12:46Z</time>
      </trkpt>
      <trkpt lat="43.1136420" lon="-91.2006010">
        <ele>324.5800000</ele>
        <time>2009-05-01T18:12:53Z</time>
      </trkpt>
      <trkpt lat="43.1121500" lon="-91.2013460">
        <ele>312.5700000</ele>
        <time>2009-05-01T18:13:00Z</time>
      </trkpt>
      <trkpt lat="43.1119380" lon="-91.2014160">
        <ele>310.6400000</ele>
        <time>2009-05-01T18:13:01Z</time>
      </trkpt>
      <trkpt lat="43.1117130" lon="-91.2014120">
        <ele>309.2000000</ele>
        <time>2009-05-01T18:13:02Z</time>
      </trkpt>
      <trkpt lat="43.1114860" lon="-91.2014080">
        <ele>307.2800000</ele>
        <time>2009-05-01T18:13:03Z</time>
      </trkpt>
      <trkpt lat="43.1112560" lon="-91.2014030">
        <ele>305.8400000</ele>
        <time>2009-05-01T18:13:04Z</time>
      </trkpt>
      <trkpt lat="43.1070620" lon="-91.2012670">
        <ele>271.7100000</ele>
        <time>2009-05-01T18:13:22Z</time>
      </trkpt>
      <trkpt lat="43.1068530" lon="-91.2011480">
        <ele>269.7900000</ele>
        <time>2009-05-01T18:13:23Z</time>
      </trkpt>
      <trkpt lat="43.1066610" lon="-91.2009770">
        <ele>267.8600000</ele>
        <time>2009-05-01T18:13:24Z</time>
      </trkpt>
      <trkpt lat="43.1064580" lon="-91.2007790">
        <ele>265.4600000</ele>
        <time>2009-05-01T18:13:25Z</time>
      </trkpt>
      <trkpt lat="43.1062610" lon="-91.2005760">
        <ele>263.5400000</ele>
        <time>2009-05-01T18:13:26Z</time>
      </trkpt>
      <trkpt lat="43.1060660" lon="-91.2003750">
        <ele>261.1400000</ele>
        <time>2009-05-01T18:13:27Z</time>
      </trkpt>
      <trkpt lat="43.1058760" lon="-91.2001780">
        <ele>259.2100000</ele>
        <time>2009-05-01T18:13:28Z</time>
      </trkpt>
      <trkpt lat="43.1044140" lon="-91.1991960">
        <ele>244.7900000</ele>
        <time>2009-05-01T18:13:35Z</time>
      </trkpt>
      <trkpt lat="43.1018700" lon="-91.1982370">
        <ele>227.9700000</ele>
        <time>2009-05-01T18:13:46Z</time>
      </trkpt>
      <trkpt lat="43.0992840" lon="-91.1978740">
        <ele>208.2600000</ele>
        <time>2009-05-01T18:13:57Z</time>
      </trkpt>
      <trkpt lat="43.0965740" lon="-91.1973810">
        <ele>196.2500000</ele>
        <time>2009-05-01T18:14:09Z</time>
      </trkpt>
      <trkpt lat="43.0933140" lon="-91.1961230">
        <ele>199.6100000</ele>
        <time>2009-05-01T18:14:24Z</time>
      </trkpt>
      <trkpt lat="43.0920130" lon="-91.1948840">
        <ele>214.0300000</ele>
        <time>2009-05-01T18:14:31Z</time>
      </trkpt>
      <trkpt lat="43.0899040" lon="-91.1928010">
        <ele>230.3700000</ele>
        <time>2009-05-01T18:14:42Z</time>
      </trkpt>
      <trkpt lat="43.0883600" lon="-91.1915560">
        <ele>229.4100000</ele>
        <time>2009-05-01T18:14:50Z</time>
      </trkpt>
      <trkpt lat="43.0882150" lon="-91.1913150">
        <ele>229.4100000</ele>
        <time>2009-05-01T18:14:51Z</time>
      </trkpt>
      <trkpt lat="43.0880940" lon="-91.1910810">
        <ele>229.4100000</ele>
        <time>2009-05-01T18:14:52Z</time>
      </trkpt>
      <trkpt lat="43.0879930" lon="-91.1908050">
        <ele>229.4100000</ele>
        <time>2009-05-01T18:14:53Z</time>
      </trkpt>
      <trkpt lat="43.0879130" lon="-91.1905200">
        <ele>228.9300000</ele>
        <time>2009-05-01T18:14:54Z</time>
      </trkpt>
      <trkpt lat="43.0878640" lon="-91.1902510">
        <ele>226.0500000</ele>
        <time>2009-05-01T18:14:55Z</time>
      </trkpt>
      <trkpt lat="43.0878640" lon="-91.1899440">
        <ele>224.1200000</ele>
        <time>2009-05-01T18:14:56Z</time>
      </trkpt>
      <trkpt lat="43.0878720" lon="-91.1896530">
        <ele>221.7200000</ele>
        <time>2009-05-01T18:14:57Z</time>
      </trkpt>
      <trkpt lat="43.0878910" lon="-91.1893350">
        <ele>218.3600000</ele>
        <time>2009-05-01T18:14:58Z</time>
      </trkpt>
      <trkpt lat="43.0879150" lon="-91.1890070">
        <ele>216.9100000</ele>
        <time>2009-05-01T18:14:59Z</time>
      </trkpt>
      <trkpt lat="43.0879620" lon="-91.1886860">
        <ele>215.9500000</ele>
        <time>2009-05-01T18:15:00Z</time>
      </trkpt>
      <trkpt lat="43.0880080" lon="-91.1883730">
        <ele>214.9900000</ele>
        <time>2009-05-01T18:15:01Z</time>
      </trkpt>
      <trkpt lat="43.0881020" lon="-91.1856530">
        <ele>206.8200000</ele>
        <time>2009-05-01T18:15:10Z</time>
      </trkpt>
      <trkpt lat="43.0880420" lon="-91.1853940">
        <ele>204.9000000</ele>
        <time>2009-05-01T18:15:11Z</time>
      </trkpt>
      <trkpt lat="43.0879380" lon="-91.1851120">
        <ele>202.9800000</ele>
        <time>2009-05-01T18:15:12Z</time>
      </trkpt>
      <trkpt lat="43.0878340" lon="-91.1848310">
        <ele>201.0500000</ele>
        <time>2009-05-01T18:15:13Z</time>
      </trkpt>
      <trkpt lat="43.0877310" lon="-91.1845600">
        <ele>199.1300000</ele>
        <time>2009-05-01T18:15:14Z</time>
      </trkpt>
      <trkpt lat="43.0876180" lon="-91.1842780">
        <ele>198.6500000</ele>
        <time>2009-05-01T18:15:15Z</time>
      </trkpt>
      <trkpt lat="43.0874690" lon="-91.1840610">
        <ele>198.6500000</ele>
        <time>2009-05-01T18:15:16Z</time>
      </trkpt>
      <trkpt lat="43.0873060" lon="-91.1838370">
        <ele>198.6500000</ele>
        <time>2009-05-01T18:15:17Z</time>
      </trkpt>
      <trkpt lat="43.0871390" lon="-91.1836300">
        <ele>199.1300000</ele>
        <time>2009-05-01T18:15:18Z</time>
      </trkpt>
      <trkpt lat="43.0851950" lon="-91.1813450">
        <ele>206.8200000</ele>
        <time>2009-05-01T18:15:29Z</time>
      </trkpt>
      <trkpt lat="43.0843690" lon="-91.1808110">
        <ele>208.2600000</ele>
        <time>2009-05-01T18:15:33Z</time>
      </trkpt>
      <trkpt lat="43.0841530" lon="-91.1807220">
        <ele>208.7400000</ele>
        <time>2009-05-01T18:15:34Z</time>
      </trkpt>
      <trkpt lat="43.0839130" lon="-91.1806890">
        <ele>208.7400000</ele>
        <time>2009-05-01T18:15:35Z</time>
      </trkpt>
      <trkpt lat="43.0836840" lon="-91.1806580">
        <ele>208.2600000</ele>
        <time>2009-05-01T18:15:36Z</time>
      </trkpt>
      <trkpt lat="43.0834600" lon="-91.1806280">
        <ele>208.2600000</ele>
        <time>2009-05-01T18:15:37Z</time>
      </trkpt>
      <trkpt lat="43.0832300" lon="-91.1806050">
        <ele>208.2600000</ele>
        <time>2009-05-01T18:15:38Z</time>
      </trkpt>
      <trkpt lat="43.0816350" lon="-91.1806060">
        <ele>207.3000000</ele>
        <time>2009-05-01T18:15:45Z</time>
      </trkpt>
      <trkpt lat="43.0791680" lon="-91.1800130">
        <ele>202.4900000</ele>
        <time>2009-05-01T18:15:56Z</time>
      </trkpt>
      <trkpt lat="43.0775610" lon="-91.1800190">
        <ele>200.5700000</ele>
        <time>2009-05-01T18:16:03Z</time>
      </trkpt>
      <trkpt lat="43.0743570" lon="-91.1800760">
        <ele>197.2100000</ele>
        <time>2009-05-01T18:16:17Z</time>
      </trkpt>
      <trkpt lat="43.0702320" lon="-91.1802590">
        <ele>192.4000000</ele>
        <time>2009-05-01T18:16:35Z</time>
      </trkpt>
      <trkpt lat="43.0672600" lon="-91.1802590">
        <ele>188.0800000</ele>
        <time>2009-05-01T18:16:48Z</time>
      </trkpt>
      <trkpt lat="43.0645500" lon="-91.1799020">
        <ele>187.1100000</ele>
        <time>2009-05-01T18:17:00Z</time>
      </trkpt>
      <trkpt lat="43.0611390" lon="-91.1792070">
        <ele>186.1500000</ele>
        <time>2009-05-01T18:17:15Z</time>
      </trkpt>
      <trkpt lat="43.0579340" lon="-91.1789230">
        <ele>186.6300000</ele>
        <time>2009-05-01T18:17:29Z</time>
      </trkpt>
      <trkpt lat="43.0549540" lon="-91.1788240">
        <ele>187.1100000</ele>
        <time>2009-05-01T18:17:42Z</time>
      </trkpt>
      <trkpt lat="43.0524620" lon="-91.1782370">
        <ele>187.1100000</ele>
        <time>2009-05-01T18:17:53Z</time>
      </trkpt>
      <trkpt lat="43.0495330" lon="-91.1777410">
        <ele>183.2700000</ele>
        <time>2009-05-01T18:18:07Z</time>
      </trkpt>
      <trkpt lat="43.0477290" lon="-91.1775040">
        <ele>183.2700000</ele>
        <time>2009-05-01T18:18:18Z</time>
      </trkpt>
      <trkpt lat="43.0456340" lon="-91.1773470">
        <ele>182.3100000</ele>
        <time>2009-05-01T18:18:33Z</time>
      </trkpt>
      <trkpt lat="43.0451210" lon="-91.1774260">
        <ele>182.3100000</ele>
        <time>2009-05-01T18:18:37Z</time>
      </trkpt>
      <trkpt lat="43.0451180" lon="-91.1774250">
        <ele>183.2700000</ele>
        <time>2009-05-01T18:18:38Z</time>
      </trkpt>
      <trkpt lat="43.0451020" lon="-91.1774170">
        <ele>182.7900000</ele>
        <time>2009-05-01T18:18:39Z</time>
      </trkpt>
      <trkpt lat="43.0451210" lon="-91.1774260">
        <ele>183.2700000</ele>
        <time>2009-05-01T18:18:40Z</time>
      </trkpt>
      <trkpt lat="43.0451030" lon="-91.1777250">
        <ele>183.7500000</ele>
        <time>2009-05-01T18:18:41Z</time>
      </trkpt>
      <trkpt lat="43.0450990" lon="-91.1778010">
        <ele>184.2300000</ele>
        <time>2009-05-01T18:18:42Z</time>
      </trkpt>
      <trkpt lat="43.0450960" lon="-91.1778520">
        <ele>184.2300000</ele>
        <time>2009-05-01T18:18:43Z</time>
      </trkpt>
      <trkpt lat="43.0450940" lon="-91.1778800">
        <ele>184.7100000</ele>
        <time>2009-05-01T18:18:44Z</time>
      </trkpt>
      <trkpt lat="43.0450930" lon="-91.1779030">
        <ele>184.7100000</ele>
        <time>2009-05-01T18:18:45Z</time>
      </trkpt>
      <trkpt lat="43.0450780" lon="-91.1784130">
        <ele>188.0800000</ele>
        <time>2009-05-01T18:18:53Z</time>
      </trkpt>
      <trkpt lat="43.0450780" lon="-91.1785240">
        <ele>188.5600000</ele>
        <time>2009-05-01T18:18:54Z</time>
      </trkpt>
      <trkpt lat="43.0450780" lon="-91.1786410">
        <ele>189.5200000</ele>
        <time>2009-05-01T18:18:55Z</time>
      </trkpt>
      <trkpt lat="43.0450780" lon="-91.1800490">
        <ele>193.8400000</ele>
        <time>2009-05-01T18:19:07Z</time>
      </trkpt>
      <trkpt lat="43.0450430" lon="-91.1803020">
        <ele>192.8800000</ele>
        <time>2009-05-01T18:19:10Z</time>
      </trkpt>
      <trkpt lat="43.0449980" lon="-91.1803020">
        <ele>192.4000000</ele>
        <time>2009-05-01T18:19:11Z</time>
      </trkpt>
      <trkpt lat="43.0449350" lon="-91.1803020">
        <ele>191.4400000</ele>
        <time>2009-05-01T18:19:12Z</time>
      </trkpt>
      <trkpt lat="43.0448610" lon="-91.1803020">
        <ele>190.4800000</ele>
        <time>2009-05-01T18:19:13Z</time>
      </trkpt>
      <trkpt lat="43.0447840" lon="-91.1803020">
        <ele>190.0000000</ele>
        <time>2009-05-01T18:19:14Z</time>
      </trkpt>
      <trkpt lat="43.0447060" lon="-91.1803020">
        <ele>189.0400000</ele>
        <time>2009-05-01T18:19:15Z</time>
      </trkpt>
      <trkpt lat="43.0445140" lon="-91.1804110">
        <ele>187.5900000</ele>
        <time>2009-05-01T18:19:21Z</time>
      </trkpt>
      <trkpt lat="43.0445110" lon="-91.1804790">
        <ele>188.5600000</ele>
        <time>2009-05-01T18:19:22Z</time>
      </trkpt>
      <trkpt lat="43.0444830" lon="-91.1810120">
        <ele>189.5200000</ele>
        <time>2009-05-01T18:19:28Z</time>
      </trkpt>
      <trkpt lat="43.0444790" lon="-91.1810800">
        <ele>189.0400000</ele>
        <time>2009-05-01T18:19:29Z</time>
      </trkpt>
      <trkpt lat="43.0444070" lon="-91.1811080">
        <ele>188.0800000</ele>
        <time>2009-05-01T18:19:30Z</time>
      </trkpt>
      <trkpt lat="43.0443480" lon="-91.1811010">
        <ele>187.5900000</ele>
        <time>2009-05-01T18:19:31Z</time>
      </trkpt>
      <trkpt lat="43.0442800" lon="-91.1810920">
        <ele>187.5900000</ele>
        <time>2009-05-01T18:19:32Z</time>
      </trkpt>
      <trkpt lat="43.0442060" lon="-91.1810830">
        <ele>187.5900000</ele>
        <time>2009-05-01T18:19:33Z</time>
      </trkpt>
      <trkpt lat="43.0438480" lon="-91.1810390">
        <ele>189.5200000</ele>
        <time>2009-05-01T18:19:41Z</time>
      </trkpt>
      <trkpt lat="43.0437790" lon="-91.1810270">
        <ele>190.4800000</ele>
        <time>2009-05-01T18:19:43Z</time>
      </trkpt>
      <trkpt lat="43.0437320" lon="-91.1810080">
        <ele>190.4800000</ele>
        <time>2009-05-01T18:19:44Z</time>
      </trkpt>
      <trkpt lat="43.0437900" lon="-91.1809020">
        <ele>190.4800000</ele>
        <time>2009-05-01T18:19:45Z</time>
      </trkpt>
      <trkpt lat="43.0437900" lon="-91.1808060">
        <ele>190.9600000</ele>
        <time>2009-05-01T18:19:46Z</time>
      </trkpt>
      <trkpt lat="43.0437900" lon="-91.1806930">
        <ele>191.4400000</ele>
        <time>2009-05-01T18:19:47Z</time>
      </trkpt>
      <trkpt lat="43.0437950" lon="-91.1805610">
        <ele>192.4000000</ele>
        <time>2009-05-01T18:19:48Z</time>
      </trkpt>
      <trkpt lat="43.0438520" lon="-91.1788780">
        <ele>198.6500000</ele>
        <time>2009-05-01T18:19:57Z</time>
      </trkpt>
      <trkpt lat="43.0440030" lon="-91.1755690">
        <ele>204.4200000</ele>
        <time>2009-05-01T18:20:12Z</time>
      </trkpt>
      <trkpt lat="43.0441430" lon="-91.1722960">
        <ele>200.0900000</ele>
        <time>2009-05-01T18:20:25Z</time>
      </trkpt>
      <trkpt lat="43.0443450" lon="-91.1675570">
        <ele>194.3200000</ele>
        <time>2009-05-01T18:20:41Z</time>
      </trkpt>
      <trkpt lat="43.0447580" lon="-91.1641750">
        <ele>196.2500000</ele>
        <time>2009-05-01T18:20:52Z</time>
      </trkpt>
      <trkpt lat="43.0455450" lon="-91.1620110">
        <ele>201.5300000</ele>
        <time>2009-05-01T18:21:00Z</time>
      </trkpt>
      <trkpt lat="43.0476050" lon="-91.1569420">
        <ele>209.2200000</ele>
        <time>2009-05-01T18:21:20Z</time>
      </trkpt>
      <trkpt lat="43.0487890" lon="-91.1535300">
        <ele>201.0500000</ele>
        <time>2009-05-01T18:21:33Z</time>
      </trkpt>
      <trkpt lat="43.0489460" lon="-91.1513920">
        <ele>196.2500000</ele>
        <time>2009-05-01T18:21:41Z</time>
      </trkpt>
      <trkpt lat="43.0489830" lon="-91.1486040">
        <ele>193.3600000</ele>
        <time>2009-05-01T18:21:53Z</time>
      </trkpt>
      <trkpt lat="43.0489830" lon="-91.1477970">
        <ele>195.2800000</ele>
        <time>2009-05-01T18:21:59Z</time>
      </trkpt>
      <trkpt lat="43.0489840" lon="-91.1477280">
        <ele>195.7700000</ele>
        <time>2009-05-01T18:22:00Z</time>
      </trkpt>
      <trkpt lat="43.0489860" lon="-91.1476770">
        <ele>196.2500000</ele>
        <time>2009-05-01T18:22:01Z</time>
      </trkpt>
      <trkpt lat="43.0491360" lon="-91.1477720">
        <ele>196.2500000</ele>
        <time>2009-05-01T18:22:02Z</time>
      </trkpt>
      <trkpt lat="43.0491990" lon="-91.1477720">
        <ele>196.7300000</ele>
        <time>2009-05-01T18:22:03Z</time>
      </trkpt>
      <trkpt lat="43.0492780" lon="-91.1477720">
        <ele>196.7300000</ele>
        <time>2009-05-01T18:22:04Z</time>
      </trkpt>
      <trkpt lat="43.0493610" lon="-91.1477720">
        <ele>196.7300000</ele>
        <time>2009-05-01T18:22:05Z</time>
      </trkpt>
      <trkpt lat="43.0494490" lon="-91.1477720">
        <ele>196.7300000</ele>
        <time>2009-05-01T18:22:06Z</time>
      </trkpt>
      <trkpt lat="43.0501650" lon="-91.1477720">
        <ele>196.2500000</ele>
        <time>2009-05-01T18:22:16Z</time>
      </trkpt>
      <trkpt lat="43.0501770" lon="-91.1477720">
        <ele>196.7300000</ele>
        <time>2009-05-01T18:22:29Z</time>
      </trkpt>
      <trkpt lat="43.0502100" lon="-91.1477720">
        <ele>196.7300000</ele>
        <time>2009-05-01T18:22:30Z</time>
      </trkpt>
      <trkpt lat="43.0502670" lon="-91.1479090">
        <ele>196.7300000</ele>
        <time>2009-05-01T18:22:31Z</time>
      </trkpt>
      <trkpt lat="43.0502650" lon="-91.1479890">
        <ele>196.7300000</ele>
        <time>2009-05-01T18:22:32Z</time>
      </trkpt>
      <trkpt lat="43.0502610" lon="-91.1481120">
        <ele>195.7700000</ele>
        <time>2009-05-01T18:22:33Z</time>
      </trkpt>
      <trkpt lat="43.0502570" lon="-91.1482520">
        <ele>195.2800000</ele>
        <time>2009-05-01T18:22:34Z</time>
      </trkpt>
      <trkpt lat="43.0502530" lon="-91.1484080">
        <ele>194.3200000</ele>
        <time>2009-05-01T18:22:35Z</time>
      </trkpt>
      <trkpt lat="43.0502310" lon="-91.1491930">
        <ele>193.3600000</ele>
        <time>2009-05-01T18:22:41Z</time>
      </trkpt>
      <trkpt lat="43.0502970" lon="-91.1493030">
        <ele>193.3600000</ele>
        <time>2009-05-01T18:22:42Z</time>
      </trkpt>
      <trkpt lat="43.0503470" lon="-91.1492940">
        <ele>193.3600000</ele>
        <time>2009-05-01T18:22:43Z</time>
      </trkpt>
      <trkpt lat="43.0504230" lon="-91.1492790">
        <ele>192.8800000</ele>
        <time>2009-05-01T18:22:44Z</time>
      </trkpt>
      <trkpt lat="43.0505060" lon="-91.1492630">
        <ele>192.4000000</ele>
        <time>2009-05-01T18:22:45Z</time>
      </trkpt>
      <trkpt lat="43.0505960" lon="-91.1492460">
        <ele>191.9200000</ele>
        <time>2009-05-01T18:22:46Z</time>
      </trkpt>
      <trkpt lat="43.0512510" lon="-91.1491190">
        <ele>193.8400000</ele>
        <time>2009-05-01T18:22:55Z</time>
      </trkpt>
      <trkpt lat="43.0513860" lon="-91.1490930">
        <ele>195.2800000</ele>
        <time>2009-05-01T18:23:07Z</time>
      </trkpt>
      <trkpt lat="43.0513860" lon="-91.1490930">
        <ele>196.7300000</ele>
        <time>2009-05-01T18:23:24Z</time>
      </trkpt>
      <trkpt lat="43.0515580" lon="-91.1490590">
        <ele>197.2100000</ele>
        <time>2009-05-01T18:23:43Z</time>
      </trkpt>
      <trkpt lat="43.0515620" lon="-91.1489930">
        <ele>196.7300000</ele>
        <time>2009-05-01T18:23:44Z</time>
      </trkpt>
      <trkpt lat="43.0515660" lon="-91.1489430">
        <ele>197.2100000</ele>
        <time>2009-05-01T18:23:45Z</time>
      </trkpt>
      <trkpt lat="43.0515700" lon="-91.1488730">
        <ele>197.2100000</ele>
        <time>2009-05-01T18:23:46Z</time>
      </trkpt>
      <trkpt lat="43.0515760" lon="-91.1487940">
        <ele>197.2100000</ele>
        <time>2009-05-01T18:23:47Z</time>
      </trkpt>
      <trkpt lat="43.0515800" lon="-91.1487290">
        <ele>197.2100000</ele>
        <time>2009-05-01T18:23:48Z</time>
      </trkpt>
      <trkpt lat="43.0515830" lon="-91.1486900">
        <ele>197.2100000</ele>
        <time>2009-05-01T18:23:49Z</time>
      </trkpt>
      <trkpt lat="43.0515540" lon="-91.1490600">
        <ele>197.2100000</ele>
        <time>2009-05-01T18:23:50Z</time>
      </trkpt>
      <trkpt lat="43.0515310" lon="-91.1490650">
        <ele>197.2100000</ele>
        <time>2009-05-01T18:23:51Z</time>
      </trkpt>
      <trkpt lat="43.0515040" lon="-91.1490700">
        <ele>196.7300000</ele>
        <time>2009-05-01T18:23:52Z</time>
      </trkpt>
      <trkpt lat="43.0515810" lon="-91.1487110">
        <ele>196.2500000</ele>
        <time>2009-05-01T18:23:53Z</time>
      </trkpt>
      <trkpt lat="43.0515790" lon="-91.1487400">
        <ele>195.7700000</ele>
        <time>2009-05-01T18:23:54Z</time>
      </trkpt>
      <trkpt lat="43.0515770" lon="-91.1487700">
        <ele>195.2800000</ele>
        <time>2009-05-01T18:23:55Z</time>
      </trkpt>
      <trkpt lat="43.0515750" lon="-91.1488010">
        <ele>195.2800000</ele>
        <time>2009-05-01T18:23:56Z</time>
      </trkpt>
      <trkpt lat="43.0515730" lon="-91.1488310">
        <ele>195.2800000</ele>
        <time>2009-05-01T18:23:57Z</time>
      </trkpt>
      <trkpt lat="43.0515710" lon="-91.1488610">
        <ele>194.8000000</ele>
        <time>2009-05-01T18:23:58Z</time>
      </trkpt>
      <trkpt lat="43.0515690" lon="-91.1488880">
        <ele>194.3200000</ele>
        <time>2009-05-01T18:23:59Z</time>
      </trkpt>
      <trkpt lat="43.0513600" lon="-91.1490980">
        <ele>193.8400000</ele>
        <time>2009-05-01T18:24:02Z</time>
      </trkpt>
      <trkpt lat="43.0513390" lon="-91.1491020">
        <ele>193.3600000</ele>
        <time>2009-05-01T18:24:03Z</time>
      </trkpt>
      <trkpt lat="43.0513420" lon="-91.1491010">
        <ele>192.8800000</ele>
        <time>2009-05-01T18:24:08Z</time>
      </trkpt>
      <trkpt lat="43.0513520" lon="-91.1490990">
        <ele>192.8800000</ele>
        <time>2009-05-01T18:24:09Z</time>
      </trkpt>
      <trkpt lat="43.0513520" lon="-91.1490990">
        <ele>190.4800000</ele>
        <time>2009-05-01T18:24:26Z</time>
      </trkpt>
      <trkpt lat="43.0513520" lon="-91.1490990">
        <ele>190.0000000</ele>
        <time>2009-05-01T18:24:38Z</time>
      </trkpt>
      <trkpt lat="43.0517470" lon="-91.1448310">
        <ele>187.5900000</ele>
        <time>2009-05-01T19:26:25Z</time>
      </trkpt>
      <trkpt lat="43.0518290" lon="-91.1433060">
        <ele>186.1500000</ele>
        <time>2009-05-01T19:26:41Z</time>
      </trkpt>
      <trkpt lat="43.0518870" lon="-91.1414500">
        <ele>185.6700000</ele>
        <time>2009-05-01T19:26:59Z</time>
      </trkpt>
      <trkpt lat="43.0518950" lon="-91.1412110">
        <ele>186.1500000</ele>
        <time>2009-05-01T19:27:06Z</time>
      </trkpt>
      <trkpt lat="43.0518410" lon="-91.1410320">
        <ele>188.0800000</ele>
        <time>2009-05-01T19:27:19Z</time>
      </trkpt>
      <trkpt lat="43.0517950" lon="-91.1410310">
        <ele>188.0800000</ele>
        <time>2009-05-01T19:27:20Z</time>
      </trkpt>
      <trkpt lat="43.0517420" lon="-91.1410300">
        <ele>188.0800000</ele>
        <time>2009-05-01T19:27:21Z</time>
      </trkpt>
      <trkpt lat="43.0509470" lon="-91.1410070">
        <ele>191.4400000</ele>
        <time>2009-05-01T19:27:31Z</time>
      </trkpt>
      <trkpt lat="43.0495790" lon="-91.1409640">
        <ele>192.8800000</ele>
        <time>2009-05-01T19:27:45Z</time>
      </trkpt>
      <trkpt lat="43.0483810" lon="-91.1409240">
        <ele>193.8400000</ele>
        <time>2009-05-01T19:27:59Z</time>
      </trkpt>
      <trkpt lat="43.0472420" lon="-91.1408850">
        <ele>195.7700000</ele>
        <time>2009-05-01T19:28:14Z</time>
      </trkpt>
      <trkpt lat="43.0468610" lon="-91.1408720">
        <ele>196.7300000</ele>
        <time>2009-05-01T19:28:22Z</time>
      </trkpt>
      <trkpt lat="43.0457290" lon="-91.1408630">
        <ele>194.8000000</ele>
        <time>2009-05-01T19:28:34Z</time>
      </trkpt>
      <trkpt lat="43.0440060" lon="-91.1408200">
        <ele>195.2800000</ele>
        <time>2009-05-01T19:28:51Z</time>
      </trkpt>
      <trkpt lat="43.0424970" lon="-91.1405170">
        <ele>194.3200000</ele>
        <time>2009-05-01T19:29:03Z</time>
      </trkpt>
      <trkpt lat="43.0410420" lon="-91.1400170">
        <ele>193.8400000</ele>
        <time>2009-05-01T19:29:16Z</time>
      </trkpt>
      <trkpt lat="43.0390230" lon="-91.1393440">
        <ele>194.8000000</ele>
        <time>2009-05-01T19:29:36Z</time>
      </trkpt>
      <trkpt lat="43.0360300" lon="-91.1383050">
        <ele>196.2500000</ele>
        <time>2009-05-01T19:30:03Z</time>
      </trkpt>
      <trkpt lat="43.0346640" lon="-91.1373920">
        <ele>197.6900000</ele>
        <time>2009-05-01T19:30:16Z</time>
      </trkpt>
      <trkpt lat="43.0336340" lon="-91.1358830">
        <ele>198.6500000</ele>
        <time>2009-05-01T19:30:28Z</time>
      </trkpt>
      <trkpt lat="43.0318410" lon="-91.1330990">
        <ele>194.3200000</ele>
        <time>2009-05-01T19:30:50Z</time>
      </trkpt>
      <trkpt lat="43.0297410" lon="-91.1297870">
        <ele>190.4800000</ele>
        <time>2009-05-01T19:31:15Z</time>
      </trkpt>
      <trkpt lat="43.0292090" lon="-91.1289410">
        <ele>194.3200000</ele>
        <time>2009-05-01T19:31:24Z</time>
      </trkpt>
      <trkpt lat="43.0286810" lon="-91.1281370">
        <ele>197.2100000</ele>
        <time>2009-05-01T19:31:34Z</time>
      </trkpt>
      <trkpt lat="43.0275640" lon="-91.1264360">
        <ele>199.1300000</ele>
        <time>2009-05-01T19:31:48Z</time>
      </trkpt>
      <trkpt lat="43.0259480" lon="-91.1240840">
        <ele>202.9800000</ele>
        <time>2009-05-01T19:32:08Z</time>
      </trkpt>
      <trkpt lat="43.0241850" lon="-91.1214610">
        <ele>208.2600000</ele>
        <time>2009-05-01T19:32:29Z</time>
      </trkpt>
      <trkpt lat="43.0220390" lon="-91.1182980">
        <ele>208.2600000</ele>
        <time>2009-05-01T19:32:53Z</time>
      </trkpt>
      <trkpt lat="43.0198650" lon="-91.1151550">
        <ele>206.3400000</ele>
        <time>2009-05-01T19:33:16Z</time>
      </trkpt>
      <trkpt lat="43.0183250" lon="-91.1128480">
        <ele>204.4200000</ele>
        <time>2009-05-01T19:33:34Z</time>
      </trkpt>
      <trkpt lat="43.0167620" lon="-91.1101470">
        <ele>205.3800000</ele>
        <time>2009-05-01T19:33:52Z</time>
      </trkpt>
      <trkpt lat="43.0157700" lon="-91.1073710">
        <ele>205.3800000</ele>
        <time>2009-05-01T19:34:06Z</time>
      </trkpt>
      <trkpt lat="43.0148060" lon="-91.1045830">
        <ele>206.3400000</ele>
        <time>2009-05-01T19:34:18Z</time>
      </trkpt>
      <trkpt lat="43.0144830" lon="-91.1024040">
        <ele>207.7800000</ele>
        <time>2009-05-01T19:34:26Z</time>
      </trkpt>
      <trkpt lat="43.0140450" lon="-91.0970710">
        <ele>214.0300000</ele>
        <time>2009-05-01T19:34:46Z</time>
      </trkpt>
      <trkpt lat="43.0135950" lon="-91.0914910">
        <ele>227.4900000</ele>
        <time>2009-05-01T19:35:07Z</time>
      </trkpt>
      <trkpt lat="43.0129930" lon="-91.0840090">
        <ele>237.5800000</ele>
        <time>2009-05-01T19:35:33Z</time>
      </trkpt>
      <trkpt lat="43.0121900" lon="-91.0750480">
        <ele>240.9500000</ele>
        <time>2009-05-01T19:36:04Z</time>
      </trkpt>
      <trkpt lat="43.0116150" lon="-91.0709510">
        <ele>238.0600000</ele>
        <time>2009-05-01T19:36:18Z</time>
      </trkpt>
      <trkpt lat="43.0100100" lon="-91.0612530">
        <ele>233.2600000</ele>
        <time>2009-05-01T19:36:51Z</time>
      </trkpt>
      <trkpt lat="43.0092850" lon="-91.0593990">
        <ele>233.7400000</ele>
        <time>2009-05-01T19:36:58Z</time>
      </trkpt>
      <trkpt lat="43.0081540" lon="-91.0579810">
        <ele>233.7400000</ele>
        <time>2009-05-01T19:37:05Z</time>
      </trkpt>
      <trkpt lat="43.0057730" lon="-91.0559540">
        <ele>228.9300000</ele>
        <time>2009-05-01T19:37:18Z</time>
      </trkpt>
      <trkpt lat="43.0027790" lon="-91.0534560">
        <ele>211.1500000</ele>
        <time>2009-05-01T19:37:34Z</time>
      </trkpt>
      <trkpt lat="42.9977110" lon="-91.0497040">
        <ele>194.8000000</ele>
        <time>2009-05-01T19:38:00Z</time>
      </trkpt>
      <trkpt lat="42.9930160" lon="-91.0468050">
        <ele>186.1500000</ele>
        <time>2009-05-01T19:38:23Z</time>
      </trkpt>
      <trkpt lat="42.9899930" lon="-91.0452590">
        <ele>189.5200000</ele>
        <time>2009-05-01T19:38:37Z</time>
      </trkpt>
      <trkpt lat="42.9883640" lon="-91.0453040">
        <ele>191.4400000</ele>
        <time>2009-05-01T19:38:44Z</time>
      </trkpt>
      <trkpt lat="42.9865240" lon="-91.0449500">
        <ele>192.8800000</ele>
        <time>2009-05-01T19:38:52Z</time>
      </trkpt>
      <trkpt lat="42.9851410" lon="-91.0438290">
        <ele>197.2100000</ele>
        <time>2009-05-01T19:38:59Z</time>
      </trkpt>
      <trkpt lat="42.9840750" lon="-91.0422000">
        <ele>199.6100000</ele>
        <time>2009-05-01T19:39:06Z</time>
      </trkpt>
      <trkpt lat="42.9803970" lon="-91.0358130">
        <ele>206.8200000</ele>
        <time>2009-05-01T19:39:32Z</time>
      </trkpt>
      <trkpt lat="42.9794080" lon="-91.0333840">
        <ele>210.6700000</ele>
        <time>2009-05-01T19:39:41Z</time>
      </trkpt>
      <trkpt lat="42.9791410" lon="-91.0309250">
        <ele>210.6700000</ele>
        <time>2009-05-01T19:39:49Z</time>
      </trkpt>
      <trkpt lat="42.9784170" lon="-91.0244620">
        <ele>214.5100000</ele>
        <time>2009-05-01T19:40:10Z</time>
      </trkpt>
      <trkpt lat="42.9775180" lon="-91.0219360">
        <ele>216.9100000</ele>
        <time>2009-05-01T19:40:19Z</time>
      </trkpt>
      <trkpt lat="42.9760950" lon="-91.0190800">
        <ele>218.3600000</ele>
        <time>2009-05-01T19:40:30Z</time>
      </trkpt>
      <trkpt lat="42.9756500" lon="-91.0170090">
        <ele>218.8400000</ele>
        <time>2009-05-01T19:40:37Z</time>
      </trkpt>
      <trkpt lat="42.9757050" lon="-91.0151660">
        <ele>220.2800000</ele>
        <time>2009-05-01T19:40:43Z</time>
      </trkpt>
      <trkpt lat="42.9762100" lon="-91.0131060">
        <ele>223.1600000</ele>
        <time>2009-05-01T19:40:50Z</time>
      </trkpt>
      <trkpt lat="42.9765420" lon="-91.0109850">
        <ele>225.0900000</ele>
        <time>2009-05-01T19:40:57Z</time>
      </trkpt>
      <trkpt lat="42.9764170" lon="-91.0084920">
        <ele>227.9700000</ele>
        <time>2009-05-01T19:41:05Z</time>
      </trkpt>
      <trkpt lat="42.9761670" lon="-91.0029000">
        <ele>233.2600000</ele>
        <time>2009-05-01T19:41:23Z</time>
      </trkpt>
      <trkpt lat="42.9766270" lon="-91.0001830">
        <ele>234.2200000</ele>
        <time>2009-05-01T19:41:32Z</time>
      </trkpt>
      <trkpt lat="42.9774000" lon="-90.9972520">
        <ele>236.6200000</ele>
        <time>2009-05-01T19:41:42Z</time>
      </trkpt>
      <trkpt lat="42.9772000" lon="-90.9954240">
        <ele>239.0200000</ele>
        <time>2009-05-01T19:41:48Z</time>
      </trkpt>
      <trkpt lat="42.9764880" lon="-90.9938480">
        <ele>240.9500000</ele>
        <time>2009-05-01T19:41:54Z</time>
      </trkpt>
      <trkpt lat="42.9763110" lon="-90.9936470">
        <ele>240.9500000</ele>
        <time>2009-05-01T19:41:55Z</time>
      </trkpt>
      <trkpt lat="42.9761320" lon="-90.9934440">
        <ele>241.4300000</ele>
        <time>2009-05-01T19:41:56Z</time>
      </trkpt>
      <trkpt lat="42.9759570" lon="-90.9932530">
        <ele>241.9100000</ele>
        <time>2009-05-01T19:41:57Z</time>
      </trkpt>
      <trkpt lat="42.9757610" lon="-90.9930820">
        <ele>242.8700000</ele>
        <time>2009-05-01T19:41:58Z</time>
      </trkpt>
      <trkpt lat="42.9755690" lon="-90.9929400">
        <ele>242.8700000</ele>
        <time>2009-05-01T19:41:59Z</time>
      </trkpt>
      <trkpt lat="42.9753520" lon="-90.9928320">
        <ele>243.3500000</ele>
        <time>2009-05-01T19:42:00Z</time>
      </trkpt>
      <trkpt lat="42.9751340" lon="-90.9927270">
        <ele>243.3500000</ele>
        <time>2009-05-01T19:42:01Z</time>
      </trkpt>
      <trkpt lat="42.9716060" lon="-90.9911230">
        <ele>246.2300000</ele>
        <time>2009-05-01T19:42:17Z</time>
      </trkpt>
      <trkpt lat="42.9693210" lon="-90.9896790">
        <ele>251.0400000</ele>
        <time>2009-05-01T19:42:28Z</time>
      </trkpt>
      <trkpt lat="42.9665490" lon="-90.9877110">
        <ele>261.1400000</ele>
        <time>2009-05-01T19:42:42Z</time>
      </trkpt>
      <trkpt lat="42.9642500" lon="-90.9868370">
        <ele>267.3800000</ele>
        <time>2009-05-01T19:42:53Z</time>
      </trkpt>
      <trkpt lat="42.9616050" lon="-90.9856650">
        <ele>274.1100000</ele>
        <time>2009-05-01T19:43:06Z</time>
      </trkpt>
      <trkpt lat="42.9593070" lon="-90.9839970">
        <ele>292.3800000</ele>
        <time>2009-05-01T19:43:18Z</time>
      </trkpt>
      <trkpt lat="42.9576190" lon="-90.9821490">
        <ele>308.7200000</ele>
        <time>2009-05-01T19:43:28Z</time>
      </trkpt>
      <trkpt lat="42.9537050" lon="-90.9770950">
        <ele>341.8900000</ele>
        <time>2009-05-01T19:43:53Z</time>
      </trkpt>
      <trkpt lat="42.9529720" lon="-90.9752930">
        <ele>348.1300000</ele>
        <time>2009-05-01T19:44:00Z</time>
      </trkpt>
      <trkpt lat="42.9526380" lon="-90.9729950">
        <ele>349.5800000</ele>
        <time>2009-05-01T19:44:08Z</time>
      </trkpt>
      <trkpt lat="42.9526550" lon="-90.9683550">
        <ele>346.2100000</ele>
        <time>2009-05-01T19:44:24Z</time>
      </trkpt>
      <trkpt lat="42.9526770" lon="-90.9655340">
        <ele>345.7300000</ele>
        <time>2009-05-01T19:44:35Z</time>
      </trkpt>
      <trkpt lat="42.9526560" lon="-90.9627650">
        <ele>347.6500000</ele>
        <time>2009-05-01T19:44:44Z</time>
      </trkpt>
      <trkpt lat="42.9527520" lon="-90.9583830">
        <ele>343.3300000</ele>
        <time>2009-05-01T19:44:58Z</time>
      </trkpt>
      <trkpt lat="42.9532880" lon="-90.9553640">
        <ele>340.9200000</ele>
        <time>2009-05-01T19:45:08Z</time>
      </trkpt>
      <trkpt lat="42.9543490" lon="-90.9526050">
        <ele>340.9200000</ele>
        <time>2009-05-01T19:45:18Z</time>
      </trkpt>
      <trkpt lat="42.9559090" lon="-90.9499180">
        <ele>341.8900000</ele>
        <time>2009-05-01T19:45:29Z</time>
      </trkpt>
      <trkpt lat="42.9592370" lon="-90.9443380">
        <ele>347.1700000</ele>
        <time>2009-05-01T19:45:52Z</time>
      </trkpt>
      <trkpt lat="42.9598940" lon="-90.9419870">
        <ele>347.1700000</ele>
        <time>2009-05-01T19:46:00Z</time>
      </trkpt>
      <trkpt lat="42.9600200" lon="-90.9394820">
        <ele>345.2500000</ele>
        <time>2009-05-01T19:46:08Z</time>
      </trkpt>
      <trkpt lat="42.9600100" lon="-90.9304300">
        <ele>344.2900000</ele>
        <time>2009-05-01T19:46:37Z</time>
      </trkpt>
      <trkpt lat="42.9599480" lon="-90.9201150">
        <ele>343.3300000</ele>
        <time>2009-05-01T19:47:10Z</time>
      </trkpt>
      <trkpt lat="42.9602400" lon="-90.9160900">
        <ele>345.7300000</ele>
        <time>2009-05-01T19:47:23Z</time>
      </trkpt>
      <trkpt lat="42.9610280" lon="-90.9138460">
        <ele>346.6900000</ele>
        <time>2009-05-01T19:47:31Z</time>
      </trkpt>
      <trkpt lat="42.9622640" lon="-90.9119650">
        <ele>344.2900000</ele>
        <time>2009-05-01T19:47:39Z</time>
      </trkpt>
      <trkpt lat="42.9637130" lon="-90.9094780">
        <ele>344.7700000</ele>
        <time>2009-05-01T19:47:49Z</time>
      </trkpt>
      <trkpt lat="42.9645520" lon="-90.9068330">
        <ele>346.2100000</ele>
        <time>2009-05-01T19:47:58Z</time>
      </trkpt>
      <trkpt lat="42.9651940" lon="-90.9030990">
        <ele>349.5800000</ele>
        <time>2009-05-01T19:48:10Z</time>
      </trkpt>
      <trkpt lat="42.9665630" lon="-90.8953420">
        <ele>349.5800000</ele>
        <time>2009-05-01T19:48:35Z</time>
      </trkpt>
      <trkpt lat="42.9680960" lon="-90.8899980">
        <ele>350.0600000</ele>
        <time>2009-05-01T19:48:53Z</time>
      </trkpt>
      <trkpt lat="42.9715610" lon="-90.8781810">
        <ele>351.0200000</ele>
        <time>2009-05-01T19:49:33Z</time>
      </trkpt>
      <trkpt lat="42.9739200" lon="-90.8698800">
        <ele>351.0200000</ele>
        <time>2009-05-01T19:50:01Z</time>
      </trkpt>
      <trkpt lat="42.9741820" lon="-90.8670520">
        <ele>348.6200000</ele>
        <time>2009-05-01T19:50:10Z</time>
      </trkpt>
      <trkpt lat="42.9741820" lon="-90.8616160">
        <ele>351.9800000</ele>
        <time>2009-05-01T19:50:27Z</time>
      </trkpt>
      <trkpt lat="42.9741820" lon="-90.8555390">
        <ele>348.1300000</ele>
        <time>2009-05-01T19:50:46Z</time>
      </trkpt>
      <trkpt lat="42.9741820" lon="-90.8466740">
        <ele>362.0700000</ele>
        <time>2009-05-01T19:51:14Z</time>
      </trkpt>
      <trkpt lat="42.9741820" lon="-90.8371360">
        <ele>356.7900000</ele>
        <time>2009-05-01T19:51:44Z</time>
      </trkpt>
      <trkpt lat="42.9741820" lon="-90.8278800">
        <ele>349.5800000</ele>
        <time>2009-05-01T19:52:13Z</time>
      </trkpt>
      <trkpt lat="42.9742200" lon="-90.8199240">
        <ele>352.4600000</ele>
        <time>2009-05-01T19:52:38Z</time>
      </trkpt>
      <trkpt lat="42.9747210" lon="-90.8145330">
        <ele>353.9000000</ele>
        <time>2009-05-01T19:52:55Z</time>
      </trkpt>
      <trkpt lat="42.9754830" lon="-90.8066310">
        <ele>354.3800000</ele>
        <time>2009-05-01T19:53:20Z</time>
      </trkpt>
      <trkpt lat="42.9754650" lon="-90.8021490">
        <ele>351.5000000</ele>
        <time>2009-05-01T19:53:34Z</time>
      </trkpt>
      <trkpt lat="42.9752400" lon="-90.7935660">
        <ele>351.0200000</ele>
        <time>2009-05-01T19:54:01Z</time>
      </trkpt>
      <trkpt lat="42.9747760" lon="-90.7888490">
        <ele>357.7500000</ele>
        <time>2009-05-01T19:54:16Z</time>
      </trkpt>
      <trkpt lat="42.9740190" lon="-90.7806350">
        <ele>361.1100000</ele>
        <time>2009-05-01T19:54:42Z</time>
      </trkpt>
      <trkpt lat="42.9740020" lon="-90.7761730">
        <ele>354.8600000</ele>
        <time>2009-05-01T19:54:56Z</time>
      </trkpt>
      <trkpt lat="42.9742390" lon="-90.7676060">
        <ele>361.1100000</ele>
        <time>2009-05-01T19:55:23Z</time>
      </trkpt>
      <trkpt lat="42.9739520" lon="-90.7650140">
        <ele>367.3600000</ele>
        <time>2009-05-01T19:55:32Z</time>
      </trkpt>
      <trkpt lat="42.9734120" lon="-90.7635370">
        <ele>370.2400000</ele>
        <time>2009-05-01T19:55:39Z</time>
      </trkpt>
      <trkpt lat="42.9724280" lon="-90.7620640">
        <ele>370.2400000</ele>
        <time>2009-05-01T19:55:48Z</time>
      </trkpt>
      <trkpt lat="42.9716400" lon="-90.7603820">
        <ele>369.7600000</ele>
        <time>2009-05-01T19:55:57Z</time>
      </trkpt>
      <trkpt lat="42.9713580" lon="-90.7585210">
        <ele>370.7300000</ele>
        <time>2009-05-01T19:56:05Z</time>
      </trkpt>
      <trkpt lat="42.9715620" lon="-90.7565830">
        <ele>374.0900000</ele>
        <time>2009-05-01T19:56:13Z</time>
      </trkpt>
      <trkpt lat="42.9722640" lon="-90.7546640">
        <ele>372.6500000</ele>
        <time>2009-05-01T19:56:21Z</time>
      </trkpt>
      <trkpt lat="42.9734930" lon="-90.7520830">
        <ele>367.8400000</ele>
        <time>2009-05-01T19:56:31Z</time>
      </trkpt>
      <trkpt lat="42.9738730" lon="-90.7499260">
        <ele>365.9200000</ele>
        <time>2009-05-01T19:56:38Z</time>
      </trkpt>
      <trkpt lat="42.9737600" lon="-90.7473620">
        <ele>360.6300000</ele>
        <time>2009-05-01T19:56:46Z</time>
      </trkpt>
      <trkpt lat="42.9740800" lon="-90.7451900">
        <ele>360.6300000</ele>
        <time>2009-05-01T19:56:53Z</time>
      </trkpt>
      <trkpt lat="42.9749950" lon="-90.7422770">
        <ele>365.4400000</ele>
        <time>2009-05-01T19:57:03Z</time>
      </trkpt>
      <trkpt lat="42.9767550" lon="-90.7378290">
        <ele>365.4400000</ele>
        <time>2009-05-01T19:57:19Z</time>
      </trkpt>
      <trkpt lat="42.9781770" lon="-90.7362150">
        <ele>365.9200000</ele>
        <time>2009-05-01T19:57:27Z</time>
      </trkpt>
      <trkpt lat="42.9796530" lon="-90.7341870">
        <ele>361.5900000</ele>
        <time>2009-05-01T19:57:36Z</time>
      </trkpt>
      <trkpt lat="42.9801770" lon="-90.7324160">
        <ele>356.3100000</ele>
        <time>2009-05-01T19:57:42Z</time>
      </trkpt>
      <trkpt lat="42.9806360" lon="-90.7286070">
        <ele>338.5200000</ele>
        <time>2009-05-01T19:57:54Z</time>
      </trkpt>
      <trkpt lat="42.9813260" lon="-90.7259540">
        <ele>336.6000000</ele>
        <time>2009-05-01T19:58:03Z</time>
      </trkpt>
      <trkpt lat="42.9824760" lon="-90.7236440">
        <ele>341.4100000</ele>
        <time>2009-05-01T19:58:12Z</time>
      </trkpt>
      <trkpt lat="42.9838380" lon="-90.7220090">
        <ele>342.3700000</ele>
        <time>2009-05-01T19:58:20Z</time>
      </trkpt>
      <trkpt lat="42.9876760" lon="-90.7180900">
        <ele>365.4400000</ele>
        <time>2009-05-01T19:58:41Z</time>
      </trkpt>
      <trkpt lat="42.9886350" lon="-90.7163480">
        <ele>366.4000000</ele>
        <time>2009-05-01T19:58:48Z</time>
      </trkpt>
      <trkpt lat="42.9891300" lon="-90.7142680">
        <ele>366.4000000</ele>
        <time>2009-05-01T19:58:55Z</time>
      </trkpt>
      <trkpt lat="42.9897940" lon="-90.7099890">
        <ele>370.7300000</ele>
        <time>2009-05-01T19:59:09Z</time>
      </trkpt>
      <trkpt lat="42.9910920" lon="-90.7066710">
        <ele>372.1700000</ele>
        <time>2009-05-01T19:59:21Z</time>
      </trkpt>
      <trkpt lat="42.9921570" lon="-90.7035440">
        <ele>365.4400000</ele>
        <time>2009-05-01T19:59:32Z</time>
      </trkpt>
      <trkpt lat="42.9922790" lon="-90.7013840">
        <ele>361.1100000</ele>
        <time>2009-05-01T19:59:39Z</time>
      </trkpt>
      <trkpt lat="42.9919260" lon="-90.6992770">
        <ele>362.0700000</ele>
        <time>2009-05-01T19:59:46Z</time>
      </trkpt>
      <trkpt lat="42.9905860" lon="-90.6949340">
        <ele>367.8400000</ele>
        <time>2009-05-01T20:00:01Z</time>
      </trkpt>
      <trkpt lat="42.9885340" lon="-90.6876230">
        <ele>371.6900000</ele>
        <time>2009-05-01T20:00:26Z</time>
      </trkpt>
      <trkpt lat="42.9884210" lon="-90.6848290">
        <ele>366.8800000</ele>
        <time>2009-05-01T20:00:35Z</time>
      </trkpt>
      <trkpt lat="42.9883870" lon="-90.6760750">
        <ele>360.6300000</ele>
        <time>2009-05-01T20:01:03Z</time>
      </trkpt>
      <trkpt lat="42.9884160" lon="-90.6682820">
        <ele>349.5800000</ele>
        <time>2009-05-01T20:01:28Z</time>
      </trkpt>
      <trkpt lat="42.9884280" lon="-90.6660140">
        <ele>352.4600000</ele>
        <time>2009-05-01T20:01:37Z</time>
      </trkpt>
      <trkpt lat="42.9884300" lon="-90.6629320">
        <ele>357.7500000</ele>
        <time>2009-05-01T20:01:51Z</time>
      </trkpt>
      <trkpt lat="42.9884300" lon="-90.6614650">
        <ele>361.1100000</ele>
        <time>2009-05-01T20:02:00Z</time>
      </trkpt>
      <trkpt lat="42.9884300" lon="-90.6590220">
        <ele>360.1500000</ele>
        <time>2009-05-01T20:02:17Z</time>
      </trkpt>
      <trkpt lat="42.9883870" lon="-90.6572670">
        <ele>360.1500000</ele>
        <time>2009-05-01T20:02:32Z</time>
      </trkpt>
      <trkpt lat="42.9883870" lon="-90.6569170">
        <ele>359.1900000</ele>
        <time>2009-05-01T20:02:38Z</time>
      </trkpt>
      <trkpt lat="42.9883870" lon="-90.6566050">
        <ele>358.2300000</ele>
        <time>2009-05-01T20:02:52Z</time>
      </trkpt>
      <trkpt lat="42.9883870" lon="-90.6558870">
        <ele>357.7500000</ele>
        <time>2009-05-01T20:03:02Z</time>
      </trkpt>
      <trkpt lat="42.9882790" lon="-90.6555760">
        <ele>360.6300000</ele>
        <time>2009-05-01T20:03:09Z</time>
      </trkpt>
      <trkpt lat="42.9882380" lon="-90.6555760">
        <ele>360.6300000</ele>
        <time>2009-05-01T20:03:10Z</time>
      </trkpt>
      <trkpt lat="42.9881830" lon="-90.6555760">
        <ele>361.1100000</ele>
        <time>2009-05-01T20:03:11Z</time>
      </trkpt>
      <trkpt lat="42.9881190" lon="-90.6555760">
        <ele>361.1100000</ele>
        <time>2009-05-01T20:03:12Z</time>
      </trkpt>
      <trkpt lat="42.9880460" lon="-90.6555760">
        <ele>361.1100000</ele>
        <time>2009-05-01T20:03:13Z</time>
      </trkpt>
      <trkpt lat="42.9869920" lon="-90.6555760">
        <ele>362.5500000</ele>
        <time>2009-05-01T20:03:25Z</time>
      </trkpt>
      <trkpt lat="42.9867280" lon="-90.6555760">
        <ele>362.5500000</ele>
        <time>2009-05-01T20:03:32Z</time>
      </trkpt>
      <trkpt lat="42.9863530" lon="-90.6555760">
        <ele>362.5500000</ele>
        <time>2009-05-01T20:03:39Z</time>
      </trkpt>
      <trkpt lat="42.9856190" lon="-90.6555760">
        <ele>363.0400000</ele>
        <time>2009-05-01T20:03:50Z</time>
      </trkpt>
      <trkpt lat="42.9856190" lon="-90.6555760">
        <ele>364.0000000</ele>
        <time>2009-05-01T20:04:26Z</time>
      </trkpt>
      <trkpt lat="42.9853260" lon="-90.6555760">
        <ele>364.4800000</ele>
        <time>2009-05-01T20:04:37Z</time>
      </trkpt>
      <trkpt lat="42.9843170" lon="-90.6555760">
        <ele>364.4800000</ele>
        <time>2009-05-01T20:04:50Z</time>
      </trkpt>
      <trkpt lat="42.9827560" lon="-90.6555760">
        <ele>361.5900000</ele>
        <time>2009-05-01T20:05:08Z</time>
      </trkpt>
      <trkpt lat="42.9818750" lon="-90.6555760">
        <ele>362.0700000</ele>
        <time>2009-05-01T20:05:22Z</time>
      </trkpt>
      <trkpt lat="42.9814790" lon="-90.6555760">
        <ele>363.5200000</ele>
        <time>2009-05-01T20:05:32Z</time>
      </trkpt>
      <trkpt lat="42.9811950" lon="-90.6555760">
        <ele>363.0400000</ele>
        <time>2009-05-01T20:05:41Z</time>
      </trkpt>
      <trkpt lat="42.9811340" lon="-90.6555750">
        <ele>363.5200000</ele>
        <time>2009-05-01T20:05:42Z</time>
      </trkpt>
      <trkpt lat="42.9811340" lon="-90.6554930">
        <ele>362.5500000</ele>
        <time>2009-05-01T20:05:43Z</time>
      </trkpt>
      <trkpt lat="42.9811340" lon="-90.6553940">
        <ele>362.5500000</ele>
        <time>2009-05-01T20:05:44Z</time>
      </trkpt>
      <trkpt lat="42.9811340" lon="-90.6552870">
        <ele>362.5500000</ele>
        <time>2009-05-01T20:05:45Z</time>
      </trkpt>
      <trkpt lat="42.9811340" lon="-90.6551820">
        <ele>362.5500000</ele>
        <time>2009-05-01T20:05:46Z</time>
      </trkpt>
      <trkpt lat="42.9811340" lon="-90.6536260">
        <ele>364.0000000</ele>
        <time>2009-05-01T20:05:59Z</time>
      </trkpt>
      <trkpt lat="42.9811340" lon="-90.6514080">
        <ele>358.2300000</ele>
        <time>2009-05-01T20:06:14Z</time>
      </trkpt>
      <trkpt lat="42.9811340" lon="-90.6488220">
        <ele>349.5800000</ele>
        <time>2009-05-01T20:06:29Z</time>
      </trkpt>
      <trkpt lat="42.9811300" lon="-90.6456880">
        <ele>348.1300000</ele>
        <time>2009-05-01T20:06:46Z</time>
      </trkpt>
      <trkpt lat="42.9808890" lon="-90.6427720">
        <ele>351.9800000</ele>
        <time>2009-05-01T20:07:00Z</time>
      </trkpt>
      <trkpt lat="42.9801490" lon="-90.6407390">
        <ele>355.8300000</ele>
        <time>2009-05-01T20:07:10Z</time>
      </trkpt>
      <trkpt lat="42.9775850" lon="-90.6361490">
        <ele>362.0700000</ele>
        <time>2009-05-01T20:07:35Z</time>
      </trkpt>
      <trkpt lat="42.9758600" lon="-90.6329000">
        <ele>361.5900000</ele>
        <time>2009-05-01T20:07:51Z</time>
      </trkpt>
      <trkpt lat="42.9748750" lon="-90.6302630">
        <ele>361.1100000</ele>
        <time>2009-05-01T20:08:02Z</time>
      </trkpt>
      <trkpt lat="42.9740390" lon="-90.6266520">
        <ele>357.7500000</ele>
        <time>2009-05-01T20:08:16Z</time>
      </trkpt>
      <trkpt lat="42.9739020" lon="-90.6237820">
        <ele>349.5800000</ele>
        <time>2009-05-01T20:08:26Z</time>
      </trkpt>
      <trkpt lat="42.9738700" lon="-90.6189050">
        <ele>346.2100000</ele>
        <time>2009-05-01T20:08:41Z</time>
      </trkpt>
      <trkpt lat="42.9738500" lon="-90.6125620">
        <ele>338.5200000</ele>
        <time>2009-05-01T20:09:01Z</time>
      </trkpt>
      <trkpt lat="42.9738940" lon="-90.6038020">
        <ele>334.6800000</ele>
        <time>2009-05-01T20:09:29Z</time>
      </trkpt>
      <trkpt lat="42.9738710" lon="-90.5969170">
        <ele>331.3100000</ele>
        <time>2009-05-01T20:09:51Z</time>
      </trkpt>
      <trkpt lat="42.9737260" lon="-90.5875300">
        <ele>333.7100000</ele>
        <time>2009-05-01T20:10:21Z</time>
      </trkpt>
      <trkpt lat="42.9736090" lon="-90.5756410">
        <ele>335.6400000</ele>
        <time>2009-05-01T20:10:59Z</time>
      </trkpt>
      <trkpt lat="42.9732800" lon="-90.5710150">
        <ele>340.9200000</ele>
        <time>2009-05-01T20:11:14Z</time>
      </trkpt>
      <trkpt lat="42.9725040" lon="-90.5683850">
        <ele>345.7300000</ele>
        <time>2009-05-01T20:11:23Z</time>
      </trkpt>
      <trkpt lat="42.9723790" lon="-90.5662250">
        <ele>346.2100000</ele>
        <time>2009-05-01T20:11:30Z</time>
      </trkpt>
      <trkpt lat="42.9725200" lon="-90.5580950">
        <ele>344.2900000</ele>
        <time>2009-05-01T20:11:56Z</time>
      </trkpt>
      <trkpt lat="42.9728160" lon="-90.5505840">
        <ele>335.1600000</ele>
        <time>2009-05-01T20:12:20Z</time>
      </trkpt>
      <trkpt lat="42.9735100" lon="-90.5418890">
        <ele>342.8500000</ele>
        <time>2009-05-01T20:12:48Z</time>
      </trkpt>
      <trkpt lat="42.9736220" lon="-90.5374970">
        <ele>338.5200000</ele>
        <time>2009-05-01T20:13:02Z</time>
      </trkpt>
      <trkpt lat="42.9736720" lon="-90.5296830">
        <ele>340.4400000</ele>
        <time>2009-05-01T20:13:27Z</time>
      </trkpt>
      <trkpt lat="42.9736590" lon="-90.5228000">
        <ele>341.4100000</ele>
        <time>2009-05-01T20:13:49Z</time>
      </trkpt>
      <trkpt lat="42.9735690" lon="-90.5112040">
        <ele>343.3300000</ele>
        <time>2009-05-01T20:14:26Z</time>
      </trkpt>
      <trkpt lat="42.9735360" lon="-90.5024260">
        <ele>334.2000000</ele>
        <time>2009-05-01T20:14:54Z</time>
      </trkpt>
      <trkpt lat="42.9735000" lon="-90.4920250">
        <ele>342.3700000</ele>
        <time>2009-05-01T20:15:27Z</time>
      </trkpt>
      <trkpt lat="42.9734950" lon="-90.4824690">
        <ele>337.5600000</ele>
        <time>2009-05-01T20:15:57Z</time>
      </trkpt>
      <trkpt lat="42.9734750" lon="-90.4738730">
        <ele>347.1700000</ele>
        <time>2009-05-01T20:16:24Z</time>
      </trkpt>
      <trkpt lat="42.9732750" lon="-90.4671980">
        <ele>344.7700000</ele>
        <time>2009-05-01T20:16:45Z</time>
      </trkpt>
      <trkpt lat="42.9724160" lon="-90.4638910">
        <ele>347.6500000</ele>
        <time>2009-05-01T20:16:56Z</time>
      </trkpt>
      <trkpt lat="42.9698690" lon="-90.4549480">
        <ele>340.4400000</ele>
        <time>2009-05-01T20:17:26Z</time>
      </trkpt>
      <trkpt lat="42.9673360" lon="-90.4460600">
        <ele>360.1500000</ele>
        <time>2009-05-01T20:17:56Z</time>
      </trkpt>
      <trkpt lat="42.9660810" lon="-90.4406070">
        <ele>360.1500000</ele>
        <time>2009-05-01T20:18:14Z</time>
      </trkpt>
      <trkpt lat="42.9660280" lon="-90.4378440">
        <ele>350.0600000</ele>
        <time>2009-05-01T20:18:23Z</time>
      </trkpt>
      <trkpt lat="42.9660280" lon="-90.4353350">
        <ele>348.1300000</ele>
        <time>2009-05-01T20:18:33Z</time>
      </trkpt>
      <trkpt lat="42.9660280" lon="-90.4334460">
        <ele>347.6500000</ele>
        <time>2009-05-01T20:18:43Z</time>
      </trkpt>
      <trkpt lat="42.9660320" lon="-90.4333240">
        <ele>347.6500000</ele>
        <time>2009-05-01T20:18:45Z</time>
      </trkpt>
      <trkpt lat="42.9660340" lon="-90.4332800">
        <ele>348.1300000</ele>
        <time>2009-05-01T20:18:46Z</time>
      </trkpt>
      <trkpt lat="42.9660280" lon="-90.4334460">
        <ele>348.1300000</ele>
        <time>2009-05-01T20:18:47Z</time>
      </trkpt>
      <trkpt lat="42.9660280" lon="-90.4334460">
        <ele>348.6200000</ele>
        <time>2009-05-01T20:18:48Z</time>
      </trkpt>
      <trkpt lat="42.9660280" lon="-90.4334460">
        <ele>348.6200000</ele>
        <time>2009-05-01T20:18:49Z</time>
      </trkpt>
      <trkpt lat="42.9660280" lon="-90.4334460">
        <ele>348.6200000</ele>
        <time>2009-05-01T20:18:50Z</time>
      </trkpt>
      <trkpt lat="42.9660280" lon="-90.4334460">
        <ele>349.1000000</ele>
        <time>2009-05-01T20:18:56Z</time>
      </trkpt>
      <trkpt lat="42.9660290" lon="-90.4334240">
        <ele>349.1000000</ele>
        <time>2009-05-01T20:18:57Z</time>
      </trkpt>
      <trkpt lat="42.9660280" lon="-90.4334460">
        <ele>349.1000000</ele>
        <time>2009-05-01T20:18:58Z</time>
      </trkpt>
      <trkpt lat="42.9660280" lon="-90.4334460">
        <ele>349.5800000</ele>
        <time>2009-05-01T20:18:59Z</time>
      </trkpt>
      <trkpt lat="42.9660280" lon="-90.4334460">
        <ele>350.0600000</ele>
        <time>2009-05-01T20:19:00Z</time>
      </trkpt>
      <trkpt lat="42.9660280" lon="-90.4336000">
        <ele>350.5400000</ele>
        <time>2009-05-01T20:19:02Z</time>
      </trkpt>
      <trkpt lat="42.9660280" lon="-90.4336000">
        <ele>351.9800000</ele>
        <time>2009-05-01T20:19:18Z</time>
      </trkpt>
      <trkpt lat="42.9660280" lon="-90.4336000">
        <ele>354.3800000</ele>
        <time>2009-05-01T20:19:42Z</time>
      </trkpt>
      <trkpt lat="42.9654000" lon="-90.4337290">
        <ele>327.4700000</ele>
        <time>2009-05-01T20:49:23Z</time>
      </trkpt>
      <trkpt lat="42.9656900" lon="-90.4336680">
        <ele>354.8600000</ele>
        <time>2009-05-01T20:51:47Z</time>
      </trkpt>
      <trkpt lat="42.9657130" lon="-90.4336560">
        <ele>356.3100000</ele>
        <time>2009-05-01T20:51:53Z</time>
      </trkpt>
      <trkpt lat="42.9658190" lon="-90.4334700">
        <ele>359.1900000</ele>
        <time>2009-05-01T20:52:08Z</time>
      </trkpt>
      <trkpt lat="42.9658580" lon="-90.4334310">
        <ele>359.1900000</ele>
        <time>2009-05-01T20:52:23Z</time>
      </trkpt>
      <trkpt lat="42.9660350" lon="-90.4332610">
        <ele>361.1100000</ele>
        <time>2009-05-01T20:52:30Z</time>
      </trkpt>
      <trkpt lat="42.9660380" lon="-90.4331790">
        <ele>360.6300000</ele>
        <time>2009-05-01T20:52:31Z</time>
      </trkpt>
      <trkpt lat="42.9660710" lon="-90.4320920">
        <ele>357.7500000</ele>
        <time>2009-05-01T20:52:39Z</time>
      </trkpt>
      <trkpt lat="42.9661420" lon="-90.4294440">
        <ele>353.4200000</ele>
        <time>2009-05-01T20:52:54Z</time>
      </trkpt>
      <trkpt lat="42.9661570" lon="-90.4263890">
        <ele>349.5800000</ele>
        <time>2009-05-01T20:53:09Z</time>
      </trkpt>
      <trkpt lat="42.9661760" lon="-90.4229680">
        <ele>351.0200000</ele>
        <time>2009-05-01T20:53:23Z</time>
      </trkpt>
      <trkpt lat="42.9662070" lon="-90.4192450">
        <ele>354.3800000</ele>
        <time>2009-05-01T20:53:35Z</time>
      </trkpt>
      <trkpt lat="42.9662440" lon="-90.4147380">
        <ele>338.5200000</ele>
        <time>2009-05-01T20:53:48Z</time>
      </trkpt>
      <trkpt lat="42.9662750" lon="-90.4109290">
        <ele>343.3300000</ele>
        <time>2009-05-01T20:54:00Z</time>
      </trkpt>
      <trkpt lat="42.9663680" lon="-90.4028560">
        <ele>361.1100000</ele>
        <time>2009-05-01T20:54:26Z</time>
      </trkpt>
      <trkpt lat="42.9664940" lon="-90.3972580">
        <ele>357.2700000</ele>
        <time>2009-05-01T20:54:44Z</time>
      </trkpt>
      <trkpt lat="42.9666100" lon="-90.3904320">
        <ele>352.9400000</ele>
        <time>2009-05-01T20:55:06Z</time>
      </trkpt>
      <trkpt lat="42.9667200" lon="-90.3823730">
        <ele>352.9400000</ele>
        <time>2009-05-01T20:55:32Z</time>
      </trkpt>
      <trkpt lat="42.9668340" lon="-90.3736720">
        <ele>348.6200000</ele>
        <time>2009-05-01T20:56:00Z</time>
      </trkpt>
      <trkpt lat="42.9669380" lon="-90.3655900">
        <ele>358.7100000</ele>
        <time>2009-05-01T20:56:26Z</time>
      </trkpt>
      <trkpt lat="42.9670590" lon="-90.3544030">
        <ele>353.4200000</ele>
        <time>2009-05-01T20:57:02Z</time>
      </trkpt>
      <trkpt lat="42.9671860" lon="-90.3426130">
        <ele>351.0200000</ele>
        <time>2009-05-01T20:57:40Z</time>
      </trkpt>
      <trkpt lat="42.9672280" lon="-90.3399480">
        <ele>346.6900000</ele>
        <time>2009-05-01T20:57:50Z</time>
      </trkpt>
      <trkpt lat="42.9672480" lon="-90.3381130">
        <ele>344.2900000</ele>
        <time>2009-05-01T20:58:00Z</time>
      </trkpt>
      <trkpt lat="42.9672910" lon="-90.3352050">
        <ele>355.8300000</ele>
        <time>2009-05-01T20:58:18Z</time>
      </trkpt>
      <trkpt lat="42.9673230" lon="-90.3322210">
        <ele>356.3100000</ele>
        <time>2009-05-01T20:58:36Z</time>
      </trkpt>
      <trkpt lat="42.9673730" lon="-90.3291320">
        <ele>352.4600000</ele>
        <time>2009-05-01T20:58:55Z</time>
      </trkpt>
      <trkpt lat="42.9674220" lon="-90.3264420">
        <ele>348.1300000</ele>
        <time>2009-05-01T20:59:09Z</time>
      </trkpt>
      <trkpt lat="42.9674730" lon="-90.3236350">
        <ele>355.8300000</ele>
        <time>2009-05-01T20:59:21Z</time>
      </trkpt>
      <trkpt lat="42.9675380" lon="-90.3191040">
        <ele>364.9600000</ele>
        <time>2009-05-01T20:59:37Z</time>
      </trkpt>
      <trkpt lat="42.9676160" lon="-90.3132120">
        <ele>368.3200000</ele>
        <time>2009-05-01T20:59:56Z</time>
      </trkpt>
      <trkpt lat="42.9676740" lon="-90.3023010">
        <ele>356.7900000</ele>
        <time>2009-05-01T21:00:31Z</time>
      </trkpt>
      <trkpt lat="42.9675750" lon="-90.2911330">
        <ele>352.4600000</ele>
        <time>2009-05-01T21:01:07Z</time>
      </trkpt>
      <trkpt lat="42.9675300" lon="-90.2808490">
        <ele>358.7100000</ele>
        <time>2009-05-01T21:01:40Z</time>
      </trkpt>
      <trkpt lat="42.9674890" lon="-90.2728130">
        <ele>362.0700000</ele>
        <time>2009-05-01T21:02:06Z</time>
      </trkpt>
      <trkpt lat="42.9674870" lon="-90.2709330">
        <ele>364.4800000</ele>
        <time>2009-05-01T21:02:14Z</time>
      </trkpt>
      <trkpt lat="42.9674870" lon="-90.2708430">
        <ele>364.4800000</ele>
        <time>2009-05-01T21:02:15Z</time>
      </trkpt>
      <trkpt lat="42.9673240" lon="-90.2708400">
        <ele>364.9600000</ele>
        <time>2009-05-01T21:02:16Z</time>
      </trkpt>
      <trkpt lat="42.9672500" lon="-90.2708400">
        <ele>363.0400000</ele>
        <time>2009-05-01T21:02:17Z</time>
      </trkpt>
      <trkpt lat="42.9671430" lon="-90.2708400">
        <ele>362.0700000</ele>
        <time>2009-05-01T21:02:18Z</time>
      </trkpt>
      <trkpt lat="42.9670190" lon="-90.2708400">
        <ele>360.6300000</ele>
        <time>2009-05-01T21:02:19Z</time>
      </trkpt>
      <trkpt lat="42.9668820" lon="-90.2708400">
        <ele>359.6700000</ele>
        <time>2009-05-01T21:02:20Z</time>
      </trkpt>
      <trkpt lat="42.9656640" lon="-90.2708400">
        <ele>354.3800000</ele>
        <time>2009-05-01T21:02:27Z</time>
      </trkpt>
      <trkpt lat="42.9626910" lon="-90.2708400">
        <ele>351.0200000</ele>
        <time>2009-05-01T21:02:41Z</time>
      </trkpt>
      <trkpt lat="42.9584370" lon="-90.2708210">
        <ele>349.5800000</ele>
        <time>2009-05-01T21:03:00Z</time>
      </trkpt>
      <trkpt lat="42.9517820" lon="-90.2708330">
        <ele>352.9400000</ele>
        <time>2009-05-01T21:03:29Z</time>
      </trkpt>
      <trkpt lat="42.9451670" lon="-90.2708770">
        <ele>352.9400000</ele>
        <time>2009-05-01T21:03:58Z</time>
      </trkpt>
      <trkpt lat="42.9387730" lon="-90.2707860">
        <ele>350.5400000</ele>
        <time>2009-05-01T21:04:26Z</time>
      </trkpt>
      <trkpt lat="42.9323700" lon="-90.2707270">
        <ele>343.8100000</ele>
        <time>2009-05-01T21:04:54Z</time>
      </trkpt>
      <trkpt lat="42.9308690" lon="-90.2714200">
        <ele>344.2900000</ele>
        <time>2009-05-01T21:05:01Z</time>
      </trkpt>
      <trkpt lat="42.9295530" lon="-90.2726390">
        <ele>345.2500000</ele>
        <time>2009-05-01T21:05:08Z</time>
      </trkpt>
      <trkpt lat="42.9277480" lon="-90.2745040">
        <ele>343.3300000</ele>
        <time>2009-05-01T21:05:18Z</time>
      </trkpt>
      <trkpt lat="42.9264270" lon="-90.2751290">
        <ele>341.4100000</ele>
        <time>2009-05-01T21:05:25Z</time>
      </trkpt>
      <trkpt lat="42.9249150" lon="-90.2753890">
        <ele>339.4800000</ele>
        <time>2009-05-01T21:05:34Z</time>
      </trkpt>
      <trkpt lat="42.9231420" lon="-90.2752710">
        <ele>338.0400000</ele>
        <time>2009-05-01T21:05:46Z</time>
      </trkpt>
      <trkpt lat="42.9218810" lon="-90.2746920">
        <ele>337.5600000</ele>
        <time>2009-05-01T21:05:56Z</time>
      </trkpt>
      <trkpt lat="42.9196500" lon="-90.2734880">
        <ele>332.7500000</ele>
        <time>2009-05-01T21:06:16Z</time>
      </trkpt>
      <trkpt lat="42.9182710" lon="-90.2733450">
        <ele>333.7100000</ele>
        <time>2009-05-01T21:06:29Z</time>
      </trkpt>
      <trkpt lat="42.9178770" lon="-90.2733290">
        <ele>333.2300000</ele>
        <time>2009-05-01T21:06:33Z</time>
      </trkpt>
      <trkpt lat="42.9178540" lon="-90.2732980">
        <ele>333.2300000</ele>
        <time>2009-05-01T21:06:34Z</time>
      </trkpt>
      <trkpt lat="42.9177780" lon="-90.2731940">
        <ele>332.7500000</ele>
        <time>2009-05-01T21:06:35Z</time>
      </trkpt>
      <trkpt lat="42.9177130" lon="-90.2731060">
        <ele>332.2700000</ele>
        <time>2009-05-01T21:06:36Z</time>
      </trkpt>
      <trkpt lat="42.9176440" lon="-90.2730120">
        <ele>331.3100000</ele>
        <time>2009-05-01T21:06:37Z</time>
      </trkpt>
      <trkpt lat="42.9165390" lon="-90.2715150">
        <ele>323.1400000</ele>
        <time>2009-05-01T21:06:50Z</time>
      </trkpt>
      <trkpt lat="42.9152180" lon="-90.2701100">
        <ele>314.0100000</ele>
        <time>2009-05-01T21:07:02Z</time>
      </trkpt>
      <trkpt lat="42.9144210" lon="-90.2690710">
        <ele>306.8000000</ele>
        <time>2009-05-01T21:07:09Z</time>
      </trkpt>
      <trkpt lat="42.9136840" lon="-90.2669560">
        <ele>296.2200000</ele>
        <time>2009-05-01T21:07:19Z</time>
      </trkpt>
      <trkpt lat="42.9131600" lon="-90.2644780">
        <ele>296.7000000</ele>
        <time>2009-05-01T21:07:29Z</time>
      </trkpt>
      <trkpt lat="42.9131820" lon="-90.2619960">
        <ele>302.9500000</ele>
        <time>2009-05-01T21:07:38Z</time>
      </trkpt>
      <trkpt lat="42.9130460" lon="-90.2591400">
        <ele>314.9700000</ele>
        <time>2009-05-01T21:07:49Z</time>
      </trkpt>
      <trkpt lat="42.9124530" lon="-90.2576940">
        <ele>323.1400000</ele>
        <time>2009-05-01T21:07:55Z</time>
      </trkpt>
      <trkpt lat="42.9105120" lon="-90.2540400">
        <ele>326.9900000</ele>
        <time>2009-05-01T21:08:10Z</time>
      </trkpt>
      <trkpt lat="42.9071540" lon="-90.2487310">
        <ele>298.6300000</ele>
        <time>2009-05-01T21:08:32Z</time>
      </trkpt>
      <trkpt lat="42.9066910" lon="-90.2470090">
        <ele>299.5900000</ele>
        <time>2009-05-01T21:08:38Z</time>
      </trkpt>
      <trkpt lat="42.9066020" lon="-90.2448540">
        <ele>301.9900000</ele>
        <time>2009-05-01T21:08:45Z</time>
      </trkpt>
      <trkpt lat="42.9064980" lon="-90.2386330">
        <ele>314.9700000</ele>
        <time>2009-05-01T21:09:05Z</time>
      </trkpt>
      <trkpt lat="42.9059200" lon="-90.2356240">
        <ele>321.2200000</ele>
        <time>2009-05-01T21:09:15Z</time>
      </trkpt>
      <trkpt lat="42.9047540" lon="-90.2322650">
        <ele>328.4300000</ele>
        <time>2009-05-01T21:09:27Z</time>
      </trkpt>
      <trkpt lat="42.9024070" lon="-90.2269970">
        <ele>344.2900000</ele>
        <time>2009-05-01T21:09:47Z</time>
      </trkpt>
      <trkpt lat="42.9012350" lon="-90.2261430">
        <ele>353.9000000</ele>
        <time>2009-05-01T21:09:53Z</time>
      </trkpt>
      <trkpt lat="42.8999130" lon="-90.2259500">
        <ele>362.0700000</ele>
        <time>2009-05-01T21:09:59Z</time>
      </trkpt>
      <trkpt lat="42.8946930" lon="-90.2259390">
        <ele>361.5900000</ele>
        <time>2009-05-01T21:10:22Z</time>
      </trkpt>
      <trkpt lat="42.8926160" lon="-90.2259320">
        <ele>352.9400000</ele>
        <time>2009-05-01T21:10:33Z</time>
      </trkpt>
      <trkpt lat="42.8905640" lon="-90.2259250">
        <ele>349.5800000</ele>
        <time>2009-05-01T21:10:48Z</time>
      </trkpt>
      <trkpt lat="42.8879490" lon="-90.2259160">
        <ele>350.0600000</ele>
        <time>2009-05-01T21:11:05Z</time>
      </trkpt>
      <trkpt lat="42.8869780" lon="-90.2259130">
        <ele>349.1000000</ele>
        <time>2009-05-01T21:11:14Z</time>
      </trkpt>
      <trkpt lat="42.8856000" lon="-90.2259080">
        <ele>343.8100000</ele>
        <time>2009-05-01T21:11:23Z</time>
      </trkpt>
      <trkpt lat="42.8843320" lon="-90.2256880">
        <ele>337.5600000</ele>
        <time>2009-05-01T21:11:31Z</time>
      </trkpt>
      <trkpt lat="42.8832480" lon="-90.2251950">
        <ele>331.3100000</ele>
        <time>2009-05-01T21:11:42Z</time>
      </trkpt>
      <trkpt lat="42.8821090" lon="-90.2240680">
        <ele>325.0600000</ele>
        <time>2009-05-01T21:11:55Z</time>
      </trkpt>
      <trkpt lat="42.8812410" lon="-90.2227000">
        <ele>318.3300000</ele>
        <time>2009-05-01T21:12:02Z</time>
      </trkpt>
      <trkpt lat="42.8804690" lon="-90.2207120">
        <ele>315.4500000</ele>
        <time>2009-05-01T21:12:08Z</time>
      </trkpt>
      <trkpt lat="42.8793060" lon="-90.2176140">
        <ele>310.6400000</ele>
        <time>2009-05-01T21:12:18Z</time>
      </trkpt>
      <trkpt lat="42.8779670" lon="-90.2140460">
        <ele>298.1500000</ele>
        <time>2009-05-01T21:12:31Z</time>
      </trkpt>
      <trkpt lat="42.8766610" lon="-90.2105680">
        <ele>289.9700000</ele>
        <time>2009-05-01T21:12:44Z</time>
      </trkpt>
      <trkpt lat="42.8754740" lon="-90.2079710">
        <ele>287.5700000</ele>
        <time>2009-05-01T21:12:55Z</time>
      </trkpt>
      <trkpt lat="42.8742070" lon="-90.2063700">
        <ele>282.2800000</ele>
        <time>2009-05-01T21:13:04Z</time>
      </trkpt>
      <trkpt lat="42.8724640" lon="-90.2051320">
        <ele>275.5600000</ele>
        <time>2009-05-01T21:13:14Z</time>
      </trkpt>
      <trkpt lat="42.8705530" lon="-90.2046050">
        <ele>274.5900000</ele>
        <time>2009-05-01T21:13:23Z</time>
      </trkpt>
      <trkpt lat="42.8682450" lon="-90.2046830">
        <ele>273.6300000</ele>
        <time>2009-05-01T21:13:33Z</time>
      </trkpt>
      <trkpt lat="42.8649890" lon="-90.2048610">
        <ele>276.5200000</ele>
        <time>2009-05-01T21:13:48Z</time>
      </trkpt>
      <trkpt lat="42.8634130" lon="-90.2045100">
        <ele>286.6100000</ele>
        <time>2009-05-01T21:13:57Z</time>
      </trkpt>
      <trkpt lat="42.8622780" lon="-90.2036100">
        <ele>289.4900000</ele>
        <time>2009-05-01T21:14:05Z</time>
      </trkpt>
      <trkpt lat="42.8612030" lon="-90.2020790">
        <ele>292.8600000</ele>
        <time>2009-05-01T21:14:15Z</time>
      </trkpt>
      <trkpt lat="42.8606930" lon="-90.2006760">
        <ele>295.2600000</ele>
        <time>2009-05-01T21:14:24Z</time>
      </trkpt>
      <trkpt lat="42.8604690" lon="-90.1989630">
        <ele>302.9500000</ele>
        <time>2009-05-01T21:14:36Z</time>
      </trkpt>
      <trkpt lat="42.8604880" lon="-90.1968690">
        <ele>316.4100000</ele>
        <time>2009-05-01T21:14:50Z</time>
      </trkpt>
      <trkpt lat="42.8605290" lon="-90.1945320">
        <ele>325.5400000</ele>
        <time>2009-05-01T21:15:06Z</time>
      </trkpt>
      <trkpt lat="42.8605700" lon="-90.1922220">
        <ele>335.6400000</ele>
        <time>2009-05-01T21:15:23Z</time>
      </trkpt>
      <trkpt lat="42.8605970" lon="-90.1907660">
        <ele>335.6400000</ele>
        <time>2009-05-01T21:15:38Z</time>
      </trkpt>
      <trkpt lat="42.8606120" lon="-90.1900170">
        <ele>336.6000000</ele>
        <time>2009-05-01T21:15:52Z</time>
      </trkpt>
      <trkpt lat="42.8606200" lon="-90.1895810">
        <ele>341.4100000</ele>
        <time>2009-05-01T21:16:04Z</time>
      </trkpt>
      <trkpt lat="42.8606230" lon="-90.1894580">
        <ele>342.3700000</ele>
        <time>2009-05-01T21:16:12Z</time>
      </trkpt>
      <trkpt lat="42.8606280" lon="-90.1890950">
        <ele>344.2900000</ele>
        <time>2009-05-01T21:16:24Z</time>
      </trkpt>
      <trkpt lat="42.8606280" lon="-90.1886340">
        <ele>347.1700000</ele>
        <time>2009-05-01T21:16:40Z</time>
      </trkpt>
      <trkpt lat="42.8606280" lon="-90.1882540">
        <ele>350.0600000</ele>
        <time>2009-05-01T21:16:54Z</time>
      </trkpt>
      <trkpt lat="42.8606770" lon="-90.1880460">
        <ele>349.5800000</ele>
        <time>2009-05-01T21:17:09Z</time>
      </trkpt>
      <trkpt lat="42.8607230" lon="-90.1880360">
        <ele>349.5800000</ele>
        <time>2009-05-01T21:17:10Z</time>
      </trkpt>
      <trkpt lat="42.8607810" lon="-90.1880240">
        <ele>349.1000000</ele>
        <time>2009-05-01T21:17:11Z</time>
      </trkpt>
      <trkpt lat="42.8615390" lon="-90.1878240">
        <ele>348.1300000</ele>
        <time>2009-05-01T21:17:20Z</time>
      </trkpt>
      <trkpt lat="42.8614480" lon="-90.1877460">
        <ele>348.6200000</ele>
        <time>2009-05-01T21:17:21Z</time>
      </trkpt>
      <trkpt lat="42.8630950" lon="-90.1867850">
        <ele>350.0600000</ele>
        <time>2009-05-01T21:17:39Z</time>
      </trkpt>
      <trkpt lat="42.8643020" lon="-90.1855210">
        <ele>347.6500000</ele>
        <time>2009-05-01T21:17:54Z</time>
      </trkpt>
      <trkpt lat="42.8655660" lon="-90.1840650">
        <ele>346.6900000</ele>
        <time>2009-05-01T21:18:10Z</time>
      </trkpt>
      <trkpt lat="42.8666380" lon="-90.1825160">
        <ele>347.6500000</ele>
        <time>2009-05-01T21:18:24Z</time>
      </trkpt>
      <trkpt lat="42.8675860" lon="-90.1803600">
        <ele>343.8100000</ele>
        <time>2009-05-01T21:18:38Z</time>
      </trkpt>
      <trkpt lat="42.8684840" lon="-90.1782130">
        <ele>347.6500000</ele>
        <time>2009-05-01T21:18:51Z</time>
      </trkpt>
      <trkpt lat="42.8687150" lon="-90.1776590">
        <ele>349.1000000</ele>
        <time>2009-05-01T21:18:56Z</time>
      </trkpt>
      <trkpt lat="42.8687420" lon="-90.1775940">
        <ele>349.5800000</ele>
        <time>2009-05-01T21:18:57Z</time>
      </trkpt>
      <trkpt lat="42.8686580" lon="-90.1774990">
        <ele>349.5800000</ele>
        <time>2009-05-01T21:18:58Z</time>
      </trkpt>
      <trkpt lat="42.8685930" lon="-90.1774990">
        <ele>349.5800000</ele>
        <time>2009-05-01T21:18:59Z</time>
      </trkpt>
      <trkpt lat="42.8685350" lon="-90.1774990">
        <ele>349.5800000</ele>
        <time>2009-05-01T21:19:00Z</time>
      </trkpt>
      <trkpt lat="42.8684510" lon="-90.1774990">
        <ele>349.5800000</ele>
        <time>2009-05-01T21:19:01Z</time>
      </trkpt>
      <trkpt lat="42.8683510" lon="-90.1774990">
        <ele>349.5800000</ele>
        <time>2009-05-01T21:19:02Z</time>
      </trkpt>
      <trkpt lat="42.8682470" lon="-90.1774990">
        <ele>349.5800000</ele>
        <time>2009-05-01T21:19:03Z</time>
      </trkpt>
      <trkpt lat="42.8670420" lon="-90.1774990">
        <ele>343.8100000</ele>
        <time>2009-05-01T21:19:12Z</time>
      </trkpt>
      <trkpt lat="42.8652000" lon="-90.1774680">
        <ele>338.5200000</ele>
        <time>2009-05-01T21:19:26Z</time>
      </trkpt>
      <trkpt lat="42.8624960" lon="-90.1773090">
        <ele>323.1400000</ele>
        <time>2009-05-01T21:19:45Z</time>
      </trkpt>
      <trkpt lat="42.8606330" lon="-90.1771830">
        <ele>309.2000000</ele>
        <time>2009-05-01T21:19:58Z</time>
      </trkpt>
      <trkpt lat="42.8602410" lon="-90.1771560">
        <ele>305.8400000</ele>
        <time>2009-05-01T21:20:03Z</time>
      </trkpt>
      <trkpt lat="42.8602340" lon="-90.1771080">
        <ele>304.3900000</ele>
        <time>2009-05-01T21:20:04Z</time>
      </trkpt>
      <trkpt lat="42.8602220" lon="-90.1770390">
        <ele>303.4300000</ele>
        <time>2009-05-01T21:20:05Z</time>
      </trkpt>
      <trkpt lat="42.8602080" lon="-90.1769570">
        <ele>301.9900000</ele>
        <time>2009-05-01T21:20:06Z</time>
      </trkpt>
      <trkpt lat="42.8601930" lon="-90.1768660">
        <ele>300.5500000</ele>
        <time>2009-05-01T21:20:07Z</time>
      </trkpt>
      <trkpt lat="42.8601760" lon="-90.1767640">
        <ele>299.1100000</ele>
        <time>2009-05-01T21:20:08Z</time>
      </trkpt>
      <trkpt lat="42.8599240" lon="-90.1755980">
        <ele>296.7000000</ele>
        <time>2009-05-01T21:20:16Z</time>
      </trkpt>
      <trkpt lat="42.8593230" lon="-90.1735800">
        <ele>308.2400000</ele>
        <time>2009-05-01T21:20:26Z</time>
      </trkpt>
      <trkpt lat="42.8583590" lon="-90.1713830">
        <ele>307.2800000</ele>
        <time>2009-05-01T21:20:37Z</time>
      </trkpt>
      <trkpt lat="42.8568160" lon="-90.1691000">
        <ele>306.3200000</ele>
        <time>2009-05-01T21:20:50Z</time>
      </trkpt>
      <trkpt lat="42.8546110" lon="-90.1663170">
        <ele>328.9100000</ele>
        <time>2009-05-01T21:21:08Z</time>
      </trkpt>
      <trkpt lat="42.8539960" lon="-90.1655280">
        <ele>336.1200000</ele>
        <time>2009-05-01T21:21:15Z</time>
      </trkpt>
      <trkpt lat="42.8539600" lon="-90.1654820">
        <ele>336.6000000</ele>
        <time>2009-05-01T21:21:16Z</time>
      </trkpt>
      <trkpt lat="42.8539160" lon="-90.1654270">
        <ele>337.0800000</ele>
        <time>2009-05-01T21:21:17Z</time>
      </trkpt>
      <trkpt lat="42.8541170" lon="-90.1652230">
        <ele>337.5600000</ele>
        <time>2009-05-01T21:21:18Z</time>
      </trkpt>
      <trkpt lat="42.8541370" lon="-90.1650850">
        <ele>337.0800000</ele>
        <time>2009-05-01T21:21:19Z</time>
      </trkpt>
      <trkpt lat="42.8541590" lon="-90.1649330">
        <ele>336.6000000</ele>
        <time>2009-05-01T21:21:20Z</time>
      </trkpt>
      <trkpt lat="42.8544440" lon="-90.1630260">
        <ele>341.8900000</ele>
        <time>2009-05-01T21:21:30Z</time>
      </trkpt>
      <trkpt lat="42.8548750" lon="-90.1599970">
        <ele>346.2100000</ele>
        <time>2009-05-01T21:21:43Z</time>
      </trkpt>
      <trkpt lat="42.8553720" lon="-90.1562090">
        <ele>348.6200000</ele>
        <time>2009-05-01T21:21:57Z</time>
      </trkpt>
      <trkpt lat="42.8562120" lon="-90.1502270">
        <ele>351.5000000</ele>
        <time>2009-05-01T21:22:17Z</time>
      </trkpt>
      <trkpt lat="42.8568430" lon="-90.1475850">
        <ele>351.0200000</ele>
        <time>2009-05-01T21:22:26Z</time>
      </trkpt>
      <trkpt lat="42.8570950" lon="-90.1470920">
        <ele>351.0200000</ele>
        <time>2009-05-01T21:22:28Z</time>
      </trkpt>
      <trkpt lat="42.8572470" lon="-90.1468650">
        <ele>351.0200000</ele>
        <time>2009-05-01T21:22:29Z</time>
      </trkpt>
      <trkpt lat="42.8573980" lon="-90.1466500">
        <ele>351.5000000</ele>
        <time>2009-05-01T21:22:30Z</time>
      </trkpt>
      <trkpt lat="42.8590110" lon="-90.1444530">
        <ele>352.4600000</ele>
        <time>2009-05-01T21:22:40Z</time>
      </trkpt>
      <trkpt lat="42.8622560" lon="-90.1392380">
        <ele>355.8300000</ele>
        <time>2009-05-01T21:23:02Z</time>
      </trkpt>
      <trkpt lat="42.8641870" lon="-90.1357790">
        <ele>357.7500000</ele>
        <time>2009-05-01T21:23:16Z</time>
      </trkpt>
      <trkpt lat="42.8677040" lon="-90.1289350">
        <ele>368.3200000</ele>
        <time>2009-05-01T21:23:43Z</time>
      </trkpt>
      <trkpt lat="42.8694240" lon="-90.1249280">
        <ele>374.5700000</ele>
        <time>2009-05-01T21:23:58Z</time>
      </trkpt>
      <trkpt lat="42.8702030" lon="-90.1218930">
        <ele>383.7000000</ele>
        <time>2009-05-01T21:24:09Z</time>
      </trkpt>
      <trkpt lat="42.8703800" lon="-90.1192310">
        <ele>394.7600000</ele>
        <time>2009-05-01T21:24:18Z</time>
      </trkpt>
      <trkpt lat="42.8709540" lon="-90.1173490">
        <ele>391.3900000</ele>
        <time>2009-05-01T21:24:25Z</time>
      </trkpt>
      <trkpt lat="42.8719970" lon="-90.1148550">
        <ele>385.1500000</ele>
        <time>2009-05-01T21:24:35Z</time>
      </trkpt>
      <trkpt lat="42.8739460" lon="-90.1118730">
        <ele>386.5900000</ele>
        <time>2009-05-01T21:24:49Z</time>
      </trkpt>
      <trkpt lat="42.8740200" lon="-90.1116080">
        <ele>387.0700000</ele>
        <time>2009-05-01T21:24:50Z</time>
      </trkpt>
      <trkpt lat="42.8740960" lon="-90.1113380">
        <ele>388.0300000</ele>
        <time>2009-05-01T21:24:51Z</time>
      </trkpt>
      <trkpt lat="42.8749650" lon="-90.1085710">
        <ele>393.8000000</ele>
        <time>2009-05-01T21:25:01Z</time>
      </trkpt>
      <trkpt lat="42.8763370" lon="-90.1049790">
        <ele>392.3600000</ele>
        <time>2009-05-01T21:25:15Z</time>
      </trkpt>
      <trkpt lat="42.8763790" lon="-90.1047000">
        <ele>392.8400000</ele>
        <time>2009-05-01T21:25:16Z</time>
      </trkpt>
      <trkpt lat="42.8763990" lon="-90.1044150">
        <ele>393.3200000</ele>
        <time>2009-05-01T21:25:17Z</time>
      </trkpt>
      <trkpt lat="42.8764190" lon="-90.1041310">
        <ele>393.3200000</ele>
        <time>2009-05-01T21:25:18Z</time>
      </trkpt>
      <trkpt lat="42.8763820" lon="-90.1038690">
        <ele>393.8000000</ele>
        <time>2009-05-01T21:25:19Z</time>
      </trkpt>
      <trkpt lat="42.8763370" lon="-90.1035860">
        <ele>394.2800000</ele>
        <time>2009-05-01T21:25:20Z</time>
      </trkpt>
      <trkpt lat="42.8762920" lon="-90.1032980">
        <ele>394.7600000</ele>
        <time>2009-05-01T21:25:21Z</time>
      </trkpt>
      <trkpt lat="42.8762260" lon="-90.1030370">
        <ele>395.2400000</ele>
        <time>2009-05-01T21:25:22Z</time>
      </trkpt>
      <trkpt lat="42.8761610" lon="-90.1027780">
        <ele>396.2000000</ele>
        <time>2009-05-01T21:25:23Z</time>
      </trkpt>
      <trkpt lat="42.8760460" lon="-90.1025260">
        <ele>396.6800000</ele>
        <time>2009-05-01T21:25:24Z</time>
      </trkpt>
      <trkpt lat="42.8759290" lon="-90.1022740">
        <ele>397.1600000</ele>
        <time>2009-05-01T21:25:25Z</time>
      </trkpt>
      <trkpt lat="42.8757960" lon="-90.1020220">
        <ele>397.6400000</ele>
        <time>2009-05-01T21:25:26Z</time>
      </trkpt>
      <trkpt lat="42.8756600" lon="-90.1017640">
        <ele>398.1200000</ele>
        <time>2009-05-01T21:25:27Z</time>
      </trkpt>
      <trkpt lat="42.8735100" lon="-90.0980440">
        <ele>395.7200000</ele>
        <time>2009-05-01T21:25:42Z</time>
      </trkpt>
      <trkpt lat="42.8725350" lon="-90.0964350">
        <ele>391.8700000</ele>
        <time>2009-05-01T21:25:49Z</time>
      </trkpt>
      <trkpt lat="42.8724640" lon="-90.0961800">
        <ele>392.3600000</ele>
        <time>2009-05-01T21:25:50Z</time>
      </trkpt>
      <trkpt lat="42.8724330" lon="-90.0958840">
        <ele>392.3600000</ele>
        <time>2009-05-01T21:25:51Z</time>
      </trkpt>
      <trkpt lat="42.8724000" lon="-90.0955770">
        <ele>392.8400000</ele>
        <time>2009-05-01T21:25:52Z</time>
      </trkpt>
      <trkpt lat="42.8723830" lon="-90.0952730">
        <ele>392.3600000</ele>
        <time>2009-05-01T21:25:53Z</time>
      </trkpt>
      <trkpt lat="42.8723770" lon="-90.0949490">
        <ele>391.8700000</ele>
        <time>2009-05-01T21:25:54Z</time>
      </trkpt>
      <trkpt lat="42.8722990" lon="-90.0890430">
        <ele>373.1300000</ele>
        <time>2009-05-01T21:26:13Z</time>
      </trkpt>
      <trkpt lat="42.8722500" lon="-90.0845310">
        <ele>372.6500000</ele>
        <time>2009-05-01T21:26:28Z</time>
      </trkpt>
      <trkpt lat="42.8721950" lon="-90.0794390">
        <ele>366.4000000</ele>
        <time>2009-05-01T21:26:45Z</time>
      </trkpt>
      <trkpt lat="42.8721120" lon="-90.0719480">
        <ele>346.6900000</ele>
        <time>2009-05-01T21:27:10Z</time>
      </trkpt>
      <trkpt lat="42.8723610" lon="-90.0672500">
        <ele>354.3800000</ele>
        <time>2009-05-01T21:27:26Z</time>
      </trkpt>
      <trkpt lat="42.8725760" lon="-90.0667440">
        <ele>353.9000000</ele>
        <time>2009-05-01T21:27:28Z</time>
      </trkpt>
      <trkpt lat="42.8727070" lon="-90.0665050">
        <ele>353.9000000</ele>
        <time>2009-05-01T21:27:29Z</time>
      </trkpt>
      <trkpt lat="42.8728360" lon="-90.0662730">
        <ele>353.4200000</ele>
        <time>2009-05-01T21:27:30Z</time>
      </trkpt>
      <trkpt lat="42.8729790" lon="-90.0660480">
        <ele>353.4200000</ele>
        <time>2009-05-01T21:27:31Z</time>
      </trkpt>
      <trkpt lat="42.8731160" lon="-90.0658330">
        <ele>352.9400000</ele>
        <time>2009-05-01T21:27:32Z</time>
      </trkpt>
      <trkpt lat="42.8732890" lon="-90.0656530">
        <ele>352.9400000</ele>
        <time>2009-05-01T21:27:33Z</time>
      </trkpt>
      <trkpt lat="42.8734640" lon="-90.0654690">
        <ele>352.9400000</ele>
        <time>2009-05-01T21:27:34Z</time>
      </trkpt>
      <trkpt lat="42.8749780" lon="-90.0633280">
        <ele>354.8600000</ele>
        <time>2009-05-01T21:27:44Z</time>
      </trkpt>
      <trkpt lat="42.8752960" lon="-90.0616210">
        <ele>356.7900000</ele>
        <time>2009-05-01T21:27:50Z</time>
      </trkpt>
      <trkpt lat="42.8751910" lon="-90.0598210">
        <ele>355.8300000</ele>
        <time>2009-05-01T21:27:56Z</time>
      </trkpt>
      <trkpt lat="42.8745100" lon="-90.0523720">
        <ele>351.5000000</ele>
        <time>2009-05-01T21:28:21Z</time>
      </trkpt>
      <trkpt lat="42.8738220" lon="-90.0452450">
        <ele>348.6200000</ele>
        <time>2009-05-01T21:28:45Z</time>
      </trkpt>
      <trkpt lat="42.8732850" lon="-90.0432970">
        <ele>346.2100000</ele>
        <time>2009-05-01T21:28:52Z</time>
      </trkpt>
      <trkpt lat="42.8715200" lon="-90.0378070">
        <ele>343.8100000</ele>
        <time>2009-05-01T21:29:12Z</time>
      </trkpt>
      <trkpt lat="42.8707540" lon="-90.0343770">
        <ele>345.2500000</ele>
        <time>2009-05-01T21:29:24Z</time>
      </trkpt>
      <trkpt lat="42.8705070" lon="-90.0307820">
        <ele>343.8100000</ele>
        <time>2009-05-01T21:29:36Z</time>
      </trkpt>
      <trkpt lat="42.8704280" lon="-90.0269020">
        <ele>347.6500000</ele>
        <time>2009-05-01T21:29:49Z</time>
      </trkpt>
      <trkpt lat="42.8700920" lon="-90.0236740">
        <ele>348.1300000</ele>
        <time>2009-05-01T21:30:00Z</time>
      </trkpt>
      <trkpt lat="42.8684020" lon="-90.0171940">
        <ele>339.9600000</ele>
        <time>2009-05-01T21:30:23Z</time>
      </trkpt>
      <trkpt lat="42.8675150" lon="-90.0128970">
        <ele>344.2900000</ele>
        <time>2009-05-01T21:30:38Z</time>
      </trkpt>
      <trkpt lat="42.8670810" lon="-90.0103910">
        <ele>342.8500000</ele>
        <time>2009-05-01T21:30:47Z</time>
      </trkpt>
      <trkpt lat="42.8661550" lon="-90.0084400">
        <ele>343.8100000</ele>
        <time>2009-05-01T21:30:55Z</time>
      </trkpt>
      <trkpt lat="42.8636740" lon="-90.0045410">
        <ele>340.9200000</ele>
        <time>2009-05-01T21:31:12Z</time>
      </trkpt>
      <trkpt lat="42.8628630" lon="-90.0031020">
        <ele>343.3300000</ele>
        <time>2009-05-01T21:31:18Z</time>
      </trkpt>
      <trkpt lat="42.8627700" lon="-90.0028230">
        <ele>343.3300000</ele>
        <time>2009-05-01T21:31:19Z</time>
      </trkpt>
      <trkpt lat="42.8627050" lon="-90.0025410">
        <ele>343.3300000</ele>
        <time>2009-05-01T21:31:20Z</time>
      </trkpt>
      <trkpt lat="42.8626590" lon="-90.0022380">
        <ele>343.3300000</ele>
        <time>2009-05-01T21:31:21Z</time>
      </trkpt>
      <trkpt lat="42.8626450" lon="-90.0019450">
        <ele>343.3300000</ele>
        <time>2009-05-01T21:31:22Z</time>
      </trkpt>
      <trkpt lat="42.8626450" lon="-90.0016360">
        <ele>343.8100000</ele>
        <time>2009-05-01T21:31:23Z</time>
      </trkpt>
      <trkpt lat="42.8626450" lon="-90.0013260">
        <ele>343.8100000</ele>
        <time>2009-05-01T21:31:24Z</time>
      </trkpt>
      <trkpt lat="42.8626830" lon="-90.0010340">
        <ele>343.8100000</ele>
        <time>2009-05-01T21:31:25Z</time>
      </trkpt>
      <trkpt lat="42.8627280" lon="-90.0007310">
        <ele>343.8100000</ele>
        <time>2009-05-01T21:31:26Z</time>
      </trkpt>
      <trkpt lat="42.8627730" lon="-90.0001040">
        <ele>343.8100000</ele>
        <time>2009-05-01T21:31:28Z</time>
      </trkpt>
      <trkpt lat="42.8627650" lon="-89.9997880">
        <ele>343.8100000</ele>
        <time>2009-05-01T21:31:29Z</time>
      </trkpt>
      <trkpt lat="42.8627070" lon="-89.9994960">
        <ele>343.8100000</ele>
        <time>2009-05-01T21:31:30Z</time>
      </trkpt>
      <trkpt lat="42.8626480" lon="-89.9992020">
        <ele>343.8100000</ele>
        <time>2009-05-01T21:31:31Z</time>
      </trkpt>
      <trkpt lat="42.8625880" lon="-89.9989080">
        <ele>343.3300000</ele>
        <time>2009-05-01T21:31:32Z</time>
      </trkpt>
      <trkpt lat="42.8625230" lon="-89.9986150">
        <ele>343.8100000</ele>
        <time>2009-05-01T21:31:33Z</time>
      </trkpt>
      <trkpt lat="42.8615720" lon="-89.9939330">
        <ele>345.2500000</ele>
        <time>2009-05-01T21:31:49Z</time>
      </trkpt>
      <trkpt lat="42.8615720" lon="-89.9936280">
        <ele>345.2500000</ele>
        <time>2009-05-01T21:31:50Z</time>
      </trkpt>
      <trkpt lat="42.8615770" lon="-89.9933320">
        <ele>345.2500000</ele>
        <time>2009-05-01T21:31:51Z</time>
      </trkpt>
      <trkpt lat="42.8616580" lon="-89.9930480">
        <ele>345.2500000</ele>
        <time>2009-05-01T21:31:52Z</time>
      </trkpt>
      <trkpt lat="42.8617400" lon="-89.9927620">
        <ele>344.7700000</ele>
        <time>2009-05-01T21:31:53Z</time>
      </trkpt>
      <trkpt lat="42.8618220" lon="-89.9924740">
        <ele>344.7700000</ele>
        <time>2009-05-01T21:31:54Z</time>
      </trkpt>
      <trkpt lat="42.8619040" lon="-89.9921850">
        <ele>344.7700000</ele>
        <time>2009-05-01T21:31:55Z</time>
      </trkpt>
      <trkpt lat="42.8633800" lon="-89.9880570">
        <ele>345.7300000</ele>
        <time>2009-05-01T21:32:10Z</time>
      </trkpt>
      <trkpt lat="42.8655330" lon="-89.9820110">
        <ele>341.8900000</ele>
        <time>2009-05-01T21:32:32Z</time>
      </trkpt>
      <trkpt lat="42.8664700" lon="-89.9785780">
        <ele>341.8900000</ele>
        <time>2009-05-01T21:32:44Z</time>
      </trkpt>
      <trkpt lat="42.8676040" lon="-89.9749400">
        <ele>345.7300000</ele>
        <time>2009-05-01T21:32:57Z</time>
      </trkpt>
      <trkpt lat="42.8680390" lon="-89.9735370">
        <ele>346.2100000</ele>
        <time>2009-05-01T21:33:02Z</time>
      </trkpt>
      <trkpt lat="42.8680550" lon="-89.9732440">
        <ele>346.2100000</ele>
        <time>2009-05-01T21:33:03Z</time>
      </trkpt>
      <trkpt lat="42.8680600" lon="-89.9729430">
        <ele>346.6900000</ele>
        <time>2009-05-01T21:33:04Z</time>
      </trkpt>
      <trkpt lat="42.8680650" lon="-89.9726420">
        <ele>347.1700000</ele>
        <time>2009-05-01T21:33:05Z</time>
      </trkpt>
      <trkpt lat="42.8680690" lon="-89.9723390">
        <ele>347.6500000</ele>
        <time>2009-05-01T21:33:06Z</time>
      </trkpt>
      <trkpt lat="42.8680680" lon="-89.9677460">
        <ele>346.6900000</ele>
        <time>2009-05-01T21:33:21Z</time>
      </trkpt>
      <trkpt lat="42.8679550" lon="-89.9656410">
        <ele>345.7300000</ele>
        <time>2009-05-01T21:33:28Z</time>
      </trkpt>
      <trkpt lat="42.8678840" lon="-89.9653600">
        <ele>345.2500000</ele>
        <time>2009-05-01T21:33:29Z</time>
      </trkpt>
      <trkpt lat="42.8678030" lon="-89.9650780">
        <ele>344.7700000</ele>
        <time>2009-05-01T21:33:30Z</time>
      </trkpt>
      <trkpt lat="42.8663420" lon="-89.9602880">
        <ele>335.1600000</ele>
        <time>2009-05-01T21:33:47Z</time>
      </trkpt>
      <trkpt lat="42.8657710" lon="-89.9567520">
        <ele>330.8300000</ele>
        <time>2009-05-01T21:33:59Z</time>
      </trkpt>
      <trkpt lat="42.8658200" lon="-89.9564640">
        <ele>330.8300000</ele>
        <time>2009-05-01T21:34:00Z</time>
      </trkpt>
      <trkpt lat="42.8658940" lon="-89.9561940">
        <ele>330.3500000</ele>
        <time>2009-05-01T21:34:01Z</time>
      </trkpt>
      <trkpt lat="42.8660010" lon="-89.9559250">
        <ele>330.3500000</ele>
        <time>2009-05-01T21:34:02Z</time>
      </trkpt>
      <trkpt lat="42.8661280" lon="-89.9556960">
        <ele>330.3500000</ele>
        <time>2009-05-01T21:34:03Z</time>
      </trkpt>
      <trkpt lat="42.8662760" lon="-89.9554660">
        <ele>330.3500000</ele>
        <time>2009-05-01T21:34:04Z</time>
      </trkpt>
      <trkpt lat="42.8664210" lon="-89.9552400">
        <ele>329.8700000</ele>
        <time>2009-05-01T21:34:05Z</time>
      </trkpt>
      <trkpt lat="42.8665940" lon="-89.9550570">
        <ele>329.8700000</ele>
        <time>2009-05-01T21:34:06Z</time>
      </trkpt>
      <trkpt lat="42.8694660" lon="-89.9520560">
        <ele>316.4100000</ele>
        <time>2009-05-01T21:34:22Z</time>
      </trkpt>
      <trkpt lat="42.8735800" lon="-89.9478340">
        <ele>309.2000000</ele>
        <time>2009-05-01T21:34:45Z</time>
      </trkpt>
      <trkpt lat="42.8740860" lon="-89.9468530">
        <ele>310.1600000</ele>
        <time>2009-05-01T21:34:49Z</time>
      </trkpt>
      <trkpt lat="42.8741600" lon="-89.9465600">
        <ele>310.1600000</ele>
        <time>2009-05-01T21:34:50Z</time>
      </trkpt>
      <trkpt lat="42.8742320" lon="-89.9462710">
        <ele>309.6800000</ele>
        <time>2009-05-01T21:34:51Z</time>
      </trkpt>
      <trkpt lat="42.8742800" lon="-89.9459820">
        <ele>308.7200000</ele>
        <time>2009-05-01T21:34:52Z</time>
      </trkpt>
      <trkpt lat="42.8743190" lon="-89.9456960">
        <ele>307.2800000</ele>
        <time>2009-05-01T21:34:53Z</time>
      </trkpt>
      <trkpt lat="42.8743270" lon="-89.9453850">
        <ele>306.3200000</ele>
        <time>2009-05-01T21:34:54Z</time>
      </trkpt>
      <trkpt lat="42.8743350" lon="-89.9450750">
        <ele>305.3600000</ele>
        <time>2009-05-01T21:34:55Z</time>
      </trkpt>
      <trkpt lat="42.8744400" lon="-89.9410300">
        <ele>290.4600000</ele>
        <time>2009-05-01T21:35:09Z</time>
      </trkpt>
      <trkpt lat="42.8744890" lon="-89.9386280">
        <ele>280.8400000</ele>
        <time>2009-05-01T21:35:20Z</time>
      </trkpt>
      <trkpt lat="42.8744890" lon="-89.9346660">
        <ele>265.9400000</ele>
        <time>2009-05-01T21:35:40Z</time>
      </trkpt>
      <trkpt lat="42.8742340" lon="-89.9327930">
        <ele>265.9400000</ele>
        <time>2009-05-01T21:35:50Z</time>
      </trkpt>
      <trkpt lat="42.8736320" lon="-89.9298170">
        <ele>256.8100000</ele>
        <time>2009-05-01T21:36:05Z</time>
      </trkpt>
      <trkpt lat="42.8731160" lon="-89.9273450">
        <ele>254.4100000</ele>
        <time>2009-05-01T21:36:14Z</time>
      </trkpt>
      <trkpt lat="42.8718550" lon="-89.9227830">
        <ele>252.9600000</ele>
        <time>2009-05-01T21:36:30Z</time>
      </trkpt>
      <trkpt lat="42.8702410" lon="-89.9164920">
        <ele>255.3700000</ele>
        <time>2009-05-01T21:36:52Z</time>
      </trkpt>
      <trkpt lat="42.8702450" lon="-89.9161980">
        <ele>256.3300000</ele>
        <time>2009-05-01T21:36:53Z</time>
      </trkpt>
      <trkpt lat="42.8702860" lon="-89.9158990">
        <ele>257.2900000</ele>
        <time>2009-05-01T21:36:54Z</time>
      </trkpt>
      <trkpt lat="42.8703270" lon="-89.9155980">
        <ele>258.2500000</ele>
        <time>2009-05-01T21:36:55Z</time>
      </trkpt>
      <trkpt lat="42.8703680" lon="-89.9152960">
        <ele>259.2100000</ele>
        <time>2009-05-01T21:36:56Z</time>
      </trkpt>
      <trkpt lat="42.8712630" lon="-89.9099220">
        <ele>266.9000000</ele>
        <time>2009-05-01T21:37:14Z</time>
      </trkpt>
      <trkpt lat="42.8721420" lon="-89.9064650">
        <ele>270.2700000</ele>
        <time>2009-05-01T21:37:26Z</time>
      </trkpt>
      <trkpt lat="42.8725890" lon="-89.9035010">
        <ele>276.5200000</ele>
        <time>2009-05-01T21:37:36Z</time>
      </trkpt>
      <trkpt lat="42.8732000" lon="-89.8999720">
        <ele>286.6100000</ele>
        <time>2009-05-01T21:37:48Z</time>
      </trkpt>
      <trkpt lat="42.8742210" lon="-89.8966200">
        <ele>300.0700000</ele>
        <time>2009-05-01T21:38:00Z</time>
      </trkpt>
      <trkpt lat="42.8747880" lon="-89.8924420">
        <ele>319.3000000</ele>
        <time>2009-05-01T21:38:14Z</time>
      </trkpt>
      <trkpt lat="42.8750670" lon="-89.8893830">
        <ele>334.6800000</ele>
        <time>2009-05-01T21:38:25Z</time>
      </trkpt>
      <trkpt lat="42.8750290" lon="-89.8891380">
        <ele>335.6400000</ele>
        <time>2009-05-01T21:38:26Z</time>
      </trkpt>
      <trkpt lat="42.8749830" lon="-89.8888850">
        <ele>336.1200000</ele>
        <time>2009-05-01T21:38:27Z</time>
      </trkpt>
      <trkpt lat="42.8749100" lon="-89.8886610">
        <ele>336.6000000</ele>
        <time>2009-05-01T21:38:28Z</time>
      </trkpt>
      <trkpt lat="42.8747970" lon="-89.8884360">
        <ele>336.6000000</ele>
        <time>2009-05-01T21:38:29Z</time>
      </trkpt>
      <trkpt lat="42.8746780" lon="-89.8881980">
        <ele>336.6000000</ele>
        <time>2009-05-01T21:38:30Z</time>
      </trkpt>
      <trkpt lat="42.8745480" lon="-89.8879880">
        <ele>337.0800000</ele>
        <time>2009-05-01T21:38:31Z</time>
      </trkpt>
      <trkpt lat="42.8743830" lon="-89.8877760">
        <ele>337.0800000</ele>
        <time>2009-05-01T21:38:32Z</time>
      </trkpt>
      <trkpt lat="42.8742160" lon="-89.8875610">
        <ele>337.0800000</ele>
        <time>2009-05-01T21:38:33Z</time>
      </trkpt>
      <trkpt lat="42.8740480" lon="-89.8873450">
        <ele>336.6000000</ele>
        <time>2009-05-01T21:38:34Z</time>
      </trkpt>
      <trkpt lat="42.8738660" lon="-89.8871590">
        <ele>335.6400000</ele>
        <time>2009-05-01T21:38:35Z</time>
      </trkpt>
      <trkpt lat="42.8721370" lon="-89.8852100">
        <ele>331.3100000</ele>
        <time>2009-05-01T21:38:45Z</time>
      </trkpt>
      <trkpt lat="42.8706280" lon="-89.8818240">
        <ele>325.0600000</ele>
        <time>2009-05-01T21:38:58Z</time>
      </trkpt>
      <trkpt lat="42.8685130" lon="-89.8771670">
        <ele>320.2600000</ele>
        <time>2009-05-01T21:39:16Z</time>
      </trkpt>
      <trkpt lat="42.8665610" lon="-89.8737840">
        <ele>320.2600000</ele>
        <time>2009-05-01T21:39:30Z</time>
      </trkpt>
      <trkpt lat="42.8640920" lon="-89.8694250">
        <ele>323.6200000</ele>
        <time>2009-05-01T21:39:48Z</time>
      </trkpt>
      <trkpt lat="42.8628280" lon="-89.8677300">
        <ele>317.3700000</ele>
        <time>2009-05-01T21:39:56Z</time>
      </trkpt>
      <trkpt lat="42.8616040" lon="-89.8669270">
        <ele>305.3600000</ele>
        <time>2009-05-01T21:40:02Z</time>
      </trkpt>
      <trkpt lat="42.8604040" lon="-89.8655350">
        <ele>291.9000000</ele>
        <time>2009-05-01T21:40:09Z</time>
      </trkpt>
      <trkpt lat="42.8591100" lon="-89.8643730">
        <ele>281.8000000</ele>
        <time>2009-05-01T21:40:16Z</time>
      </trkpt>
      <trkpt lat="42.8583430" lon="-89.8636790">
        <ele>277.9600000</ele>
        <time>2009-05-01T21:40:20Z</time>
      </trkpt>
      <trkpt lat="42.8582290" lon="-89.8634700">
        <ele>276.5200000</ele>
        <time>2009-05-01T21:40:21Z</time>
      </trkpt>
      <trkpt lat="42.8581360" lon="-89.8632180">
        <ele>276.0400000</ele>
        <time>2009-05-01T21:40:22Z</time>
      </trkpt>
      <trkpt lat="42.8580740" lon="-89.8629280">
        <ele>274.5900000</ele>
        <time>2009-05-01T21:40:23Z</time>
      </trkpt>
      <trkpt lat="42.8580100" lon="-89.8626320">
        <ele>273.6300000</ele>
        <time>2009-05-01T21:40:24Z</time>
      </trkpt>
      <trkpt lat="42.8580100" lon="-89.8623280">
        <ele>272.1900000</ele>
        <time>2009-05-01T21:40:25Z</time>
      </trkpt>
      <trkpt lat="42.8580280" lon="-89.8620160">
        <ele>270.7500000</ele>
        <time>2009-05-01T21:40:26Z</time>
      </trkpt>
      <trkpt lat="42.8580780" lon="-89.8617090">
        <ele>269.7900000</ele>
        <time>2009-05-01T21:40:27Z</time>
      </trkpt>
      <trkpt lat="42.8581860" lon="-89.8614410">
        <ele>268.3500000</ele>
        <time>2009-05-01T21:40:28Z</time>
      </trkpt>
      <trkpt lat="42.8582990" lon="-89.8611620">
        <ele>266.9000000</ele>
        <time>2009-05-01T21:40:29Z</time>
      </trkpt>
      <trkpt lat="42.8584130" lon="-89.8608810">
        <ele>265.4600000</ele>
        <time>2009-05-01T21:40:30Z</time>
      </trkpt>
      <trkpt lat="42.8585260" lon="-89.8606020">
        <ele>263.5400000</ele>
        <time>2009-05-01T21:40:31Z</time>
      </trkpt>
      <trkpt lat="42.8590210" lon="-89.8588330">
        <ele>254.4100000</ele>
        <time>2009-05-01T21:40:37Z</time>
      </trkpt>
      <trkpt lat="42.8590390" lon="-89.8585260">
        <ele>253.4400000</ele>
        <time>2009-05-01T21:40:38Z</time>
      </trkpt>
      <trkpt lat="42.8590240" lon="-89.8582330">
        <ele>252.9600000</ele>
        <time>2009-05-01T21:40:39Z</time>
      </trkpt>
      <trkpt lat="42.8590080" lon="-89.8579310">
        <ele>252.4800000</ele>
        <time>2009-05-01T21:40:40Z</time>
      </trkpt>
      <trkpt lat="42.8589690" lon="-89.8576580">
        <ele>251.5200000</ele>
        <time>2009-05-01T21:40:41Z</time>
      </trkpt>
      <trkpt lat="42.8588730" lon="-89.8573830">
        <ele>250.5600000</ele>
        <time>2009-05-01T21:40:42Z</time>
      </trkpt>
      <trkpt lat="42.8587760" lon="-89.8571070">
        <ele>250.0800000</ele>
        <time>2009-05-01T21:40:43Z</time>
      </trkpt>
      <trkpt lat="42.8586790" lon="-89.8568500">
        <ele>250.0800000</ele>
        <time>2009-05-01T21:40:44Z</time>
      </trkpt>
      <trkpt lat="42.8585360" lon="-89.8566110">
        <ele>250.0800000</ele>
        <time>2009-05-01T21:40:45Z</time>
      </trkpt>
      <trkpt lat="42.8583910" lon="-89.8563850">
        <ele>249.6000000</ele>
        <time>2009-05-01T21:40:46Z</time>
      </trkpt>
      <trkpt lat="42.8582270" lon="-89.8561670">
        <ele>249.1200000</ele>
        <time>2009-05-01T21:40:47Z</time>
      </trkpt>
      <trkpt lat="42.8580450" lon="-89.8560200">
        <ele>248.6400000</ele>
        <time>2009-05-01T21:40:48Z</time>
      </trkpt>
      <trkpt lat="42.8578340" lon="-89.8558900">
        <ele>247.6800000</ele>
        <time>2009-05-01T21:40:49Z</time>
      </trkpt>
      <trkpt lat="42.8576250" lon="-89.8557840">
        <ele>247.6800000</ele>
        <time>2009-05-01T21:40:50Z</time>
      </trkpt>
      <trkpt lat="42.8574120" lon="-89.8556920">
        <ele>247.2000000</ele>
        <time>2009-05-01T21:40:51Z</time>
      </trkpt>
      <trkpt lat="42.8571940" lon="-89.8556190">
        <ele>246.2300000</ele>
        <time>2009-05-01T21:40:52Z</time>
      </trkpt>
      <trkpt lat="42.8569760" lon="-89.8555470">
        <ele>245.7500000</ele>
        <time>2009-05-01T21:40:53Z</time>
      </trkpt>
      <trkpt lat="42.8551360" lon="-89.8545380">
        <ele>243.3500000</ele>
        <time>2009-05-01T21:41:02Z</time>
      </trkpt>
      <trkpt lat="42.8548500" lon="-89.8540770">
        <ele>245.2700000</ele>
        <time>2009-05-01T21:41:04Z</time>
      </trkpt>
      <trkpt lat="42.8547490" lon="-89.8538110">
        <ele>246.2300000</ele>
        <time>2009-05-01T21:41:05Z</time>
      </trkpt>
      <trkpt lat="42.8546550" lon="-89.8535430">
        <ele>246.7200000</ele>
        <time>2009-05-01T21:41:06Z</time>
      </trkpt>
      <trkpt lat="42.8545830" lon="-89.8532540">
        <ele>246.7200000</ele>
        <time>2009-05-01T21:41:07Z</time>
      </trkpt>
      <trkpt lat="42.8545270" lon="-89.8529750">
        <ele>247.2000000</ele>
        <time>2009-05-01T21:41:08Z</time>
      </trkpt>
      <trkpt lat="42.8545010" lon="-89.8526710">
        <ele>247.6800000</ele>
        <time>2009-05-01T21:41:09Z</time>
      </trkpt>
      <trkpt lat="42.8544760" lon="-89.8523650">
        <ele>248.6400000</ele>
        <time>2009-05-01T21:41:10Z</time>
      </trkpt>
      <trkpt lat="42.8544500" lon="-89.8520610">
        <ele>249.6000000</ele>
        <time>2009-05-01T21:41:11Z</time>
      </trkpt>
      <trkpt lat="42.8544480" lon="-89.8517600">
        <ele>250.5600000</ele>
        <time>2009-05-01T21:41:12Z</time>
      </trkpt>
      <trkpt lat="42.8544270" lon="-89.8462460">
        <ele>264.5000000</ele>
        <time>2009-05-01T21:41:30Z</time>
      </trkpt>
      <trkpt lat="42.8547460" lon="-89.8429990">
        <ele>266.4200000</ele>
        <time>2009-05-01T21:41:41Z</time>
      </trkpt>
      <trkpt lat="42.8555080" lon="-89.8390160">
        <ele>269.3100000</ele>
        <time>2009-05-01T21:41:55Z</time>
      </trkpt>
      <trkpt lat="42.8557110" lon="-89.8368030">
        <ele>274.1100000</ele>
        <time>2009-05-01T21:42:04Z</time>
      </trkpt>
      <trkpt lat="42.8553320" lon="-89.8349670">
        <ele>277.0000000</ele>
        <time>2009-05-01T21:42:12Z</time>
      </trkpt>
      <trkpt lat="42.8552500" lon="-89.8347450">
        <ele>277.4800000</ele>
        <time>2009-05-01T21:42:13Z</time>
      </trkpt>
      <trkpt lat="42.8545220" lon="-89.8325550">
        <ele>281.8000000</ele>
        <time>2009-05-01T21:42:22Z</time>
      </trkpt>
      <trkpt lat="42.8538090" lon="-89.8303180">
        <ele>292.8600000</ele>
        <time>2009-05-01T21:42:31Z</time>
      </trkpt>
      <trkpt lat="42.8537540" lon="-89.8285050">
        <ele>299.5900000</ele>
        <time>2009-05-01T21:42:37Z</time>
      </trkpt>
      <trkpt lat="42.8537390" lon="-89.8272420">
        <ele>303.4300000</ele>
        <time>2009-05-01T21:42:41Z</time>
      </trkpt>
      <trkpt lat="42.8536960" lon="-89.8269510">
        <ele>304.8800000</ele>
        <time>2009-05-01T21:42:42Z</time>
      </trkpt>
      <trkpt lat="42.8535980" lon="-89.8266930">
        <ele>305.8400000</ele>
        <time>2009-05-01T21:42:43Z</time>
      </trkpt>
      <trkpt lat="42.8534910" lon="-89.8264130">
        <ele>306.8000000</ele>
        <time>2009-05-01T21:42:44Z</time>
      </trkpt>
      <trkpt lat="42.8533750" lon="-89.8261080">
        <ele>307.7600000</ele>
        <time>2009-05-01T21:42:45Z</time>
      </trkpt>
      <trkpt lat="42.8532720" lon="-89.8258650">
        <ele>309.2000000</ele>
        <time>2009-05-01T21:42:46Z</time>
      </trkpt>
      <trkpt lat="42.8526370" lon="-89.8245390">
        <ele>317.8500000</ele>
        <time>2009-05-01T21:42:51Z</time>
      </trkpt>
      <trkpt lat="42.8524600" lon="-89.8243390">
        <ele>318.8100000</ele>
        <time>2009-05-01T21:42:52Z</time>
      </trkpt>
      <trkpt lat="42.8522450" lon="-89.8241960">
        <ele>321.2200000</ele>
        <time>2009-05-01T21:42:53Z</time>
      </trkpt>
      <trkpt lat="42.8520330" lon="-89.8240790">
        <ele>322.6600000</ele>
        <time>2009-05-01T21:42:54Z</time>
      </trkpt>
      <trkpt lat="42.8518160" lon="-89.8239630">
        <ele>324.1000000</ele>
        <time>2009-05-01T21:42:55Z</time>
      </trkpt>
      <trkpt lat="42.8515980" lon="-89.8238450">
        <ele>325.5400000</ele>
        <time>2009-05-01T21:42:56Z</time>
      </trkpt>
      <trkpt lat="42.8501960" lon="-89.8227120">
        <ele>332.2700000</ele>
        <time>2009-05-01T21:43:03Z</time>
      </trkpt>
      <trkpt lat="42.8487170" lon="-89.8209080">
        <ele>334.2000000</ele>
        <time>2009-05-01T21:43:12Z</time>
      </trkpt>
      <trkpt lat="42.8486150" lon="-89.8206660">
        <ele>333.2300000</ele>
        <time>2009-05-01T21:43:13Z</time>
      </trkpt>
      <trkpt lat="42.8485190" lon="-89.8204070">
        <ele>333.2300000</ele>
        <time>2009-05-01T21:43:14Z</time>
      </trkpt>
      <trkpt lat="42.8484650" lon="-89.8201110">
        <ele>333.2300000</ele>
        <time>2009-05-01T21:43:15Z</time>
      </trkpt>
      <trkpt lat="42.8484530" lon="-89.8198210">
        <ele>332.7500000</ele>
        <time>2009-05-01T21:43:16Z</time>
      </trkpt>
      <trkpt lat="42.8484820" lon="-89.8195060">
        <ele>332.7500000</ele>
        <time>2009-05-01T21:43:17Z</time>
      </trkpt>
      <trkpt lat="42.8485330" lon="-89.8192030">
        <ele>333.2300000</ele>
        <time>2009-05-01T21:43:18Z</time>
      </trkpt>
      <trkpt lat="42.8485850" lon="-89.8188930">
        <ele>333.7100000</ele>
        <time>2009-05-01T21:43:19Z</time>
      </trkpt>
      <trkpt lat="42.8490260" lon="-89.8155970">
        <ele>336.1200000</ele>
        <time>2009-05-01T21:43:30Z</time>
      </trkpt>
      <trkpt lat="42.8488240" lon="-89.8131270">
        <ele>338.5200000</ele>
        <time>2009-05-01T21:43:39Z</time>
      </trkpt>
      <trkpt lat="42.8486300" lon="-89.8118340">
        <ele>337.5600000</ele>
        <time>2009-05-01T21:43:44Z</time>
      </trkpt>
      <trkpt lat="42.8485610" lon="-89.8116050">
        <ele>337.5600000</ele>
        <time>2009-05-01T21:43:45Z</time>
      </trkpt>
      <trkpt lat="42.8484690" lon="-89.8113750">
        <ele>337.0800000</ele>
        <time>2009-05-01T21:43:46Z</time>
      </trkpt>
      <trkpt lat="42.8483620" lon="-89.8111780">
        <ele>336.6000000</ele>
        <time>2009-05-01T21:43:47Z</time>
      </trkpt>
      <trkpt lat="42.8482410" lon="-89.8109840">
        <ele>336.1200000</ele>
        <time>2009-05-01T21:43:48Z</time>
      </trkpt>
      <trkpt lat="42.8481050" lon="-89.8108390">
        <ele>336.1200000</ele>
        <time>2009-05-01T21:43:49Z</time>
      </trkpt>
      <trkpt lat="42.8479570" lon="-89.8106910">
        <ele>336.6000000</ele>
        <time>2009-05-01T21:43:50Z</time>
      </trkpt>
      <trkpt lat="42.8478130" lon="-89.8105470">
        <ele>337.0800000</ele>
        <time>2009-05-01T21:43:51Z</time>
      </trkpt>
      <trkpt lat="42.8476850" lon="-89.8104310">
        <ele>337.0800000</ele>
        <time>2009-05-01T21:43:52Z</time>
      </trkpt>
      <trkpt lat="42.8475310" lon="-89.8103540">
        <ele>336.6000000</ele>
        <time>2009-05-01T21:43:53Z</time>
      </trkpt>
      <trkpt lat="42.8473820" lon="-89.8102800">
        <ele>335.6400000</ele>
        <time>2009-05-01T21:43:54Z</time>
      </trkpt>
      <trkpt lat="42.8472400" lon="-89.8102170">
        <ele>335.1600000</ele>
        <time>2009-05-01T21:43:55Z</time>
      </trkpt>
      <trkpt lat="42.8470970" lon="-89.8101760">
        <ele>334.2000000</ele>
        <time>2009-05-01T21:43:56Z</time>
      </trkpt>
      <trkpt lat="42.8463830" lon="-89.8099670">
        <ele>326.9900000</ele>
        <time>2009-05-01T21:44:03Z</time>
      </trkpt>
      <trkpt lat="42.8462510" lon="-89.8099170">
        <ele>326.0200000</ele>
        <time>2009-05-01T21:44:08Z</time>
      </trkpt>
      <trkpt lat="42.8462480" lon="-89.8098510">
        <ele>325.5400000</ele>
        <time>2009-05-01T21:44:09Z</time>
      </trkpt>
      <trkpt lat="42.8462440" lon="-89.8097300">
        <ele>326.0200000</ele>
        <time>2009-05-01T21:44:10Z</time>
      </trkpt>
      <trkpt lat="42.8462390" lon="-89.8084630">
        <ele>329.8700000</ele>
        <time>2009-05-01T21:44:17Z</time>
      </trkpt>
      <trkpt lat="42.8466390" lon="-89.8068240">
        <ele>331.7900000</ele>
        <time>2009-05-01T21:44:24Z</time>
      </trkpt>
      <trkpt lat="42.8473330" lon="-89.8044460">
        <ele>334.2000000</ele>
        <time>2009-05-01T21:44:33Z</time>
      </trkpt>
      <trkpt lat="42.8473350" lon="-89.8022760">
        <ele>337.0800000</ele>
        <time>2009-05-01T21:44:40Z</time>
      </trkpt>
      <trkpt lat="42.8471970" lon="-89.7957930">
        <ele>345.2500000</ele>
        <time>2009-05-01T21:45:02Z</time>
      </trkpt>
      <trkpt lat="42.8471330" lon="-89.7955160">
        <ele>345.2500000</ele>
        <time>2009-05-01T21:45:03Z</time>
      </trkpt>
      <trkpt lat="42.8470660" lon="-89.7952520">
        <ele>344.7700000</ele>
        <time>2009-05-01T21:45:04Z</time>
      </trkpt>
      <trkpt lat="42.8469510" lon="-89.7950040">
        <ele>344.7700000</ele>
        <time>2009-05-01T21:45:05Z</time>
      </trkpt>
      <trkpt lat="42.8468350" lon="-89.7947560">
        <ele>344.2900000</ele>
        <time>2009-05-01T21:45:06Z</time>
      </trkpt>
      <trkpt lat="42.8467080" lon="-89.7945470">
        <ele>343.8100000</ele>
        <time>2009-05-01T21:45:07Z</time>
      </trkpt>
      <trkpt lat="42.8465360" lon="-89.7943660">
        <ele>343.3300000</ele>
        <time>2009-05-01T21:45:08Z</time>
      </trkpt>
      <trkpt lat="42.8463630" lon="-89.7941840">
        <ele>342.8500000</ele>
        <time>2009-05-01T21:45:09Z</time>
      </trkpt>
      <trkpt lat="42.8461900" lon="-89.7940020">
        <ele>342.8500000</ele>
        <time>2009-05-01T21:45:10Z</time>
      </trkpt>
      <trkpt lat="42.8430970" lon="-89.7908190">
        <ele>340.4400000</ele>
        <time>2009-05-01T21:45:28Z</time>
      </trkpt>
      <trkpt lat="42.8429470" lon="-89.7904880">
        <ele>341.4100000</ele>
        <time>2009-05-01T21:45:29Z</time>
      </trkpt>
      <trkpt lat="42.8428930" lon="-89.7903110">
        <ele>342.3700000</ele>
        <time>2009-05-01T21:45:30Z</time>
      </trkpt>
      <trkpt lat="42.8428180" lon="-89.7900430">
        <ele>342.8500000</ele>
        <time>2009-05-01T21:45:31Z</time>
      </trkpt>
      <trkpt lat="42.8428180" lon="-89.7897470">
        <ele>343.3300000</ele>
        <time>2009-05-01T21:45:32Z</time>
      </trkpt>
      <trkpt lat="42.8428180" lon="-89.7894480">
        <ele>343.8100000</ele>
        <time>2009-05-01T21:45:33Z</time>
      </trkpt>
      <trkpt lat="42.8428180" lon="-89.7891470">
        <ele>344.2900000</ele>
        <time>2009-05-01T21:45:34Z</time>
      </trkpt>
      <trkpt lat="42.8427530" lon="-89.7849790">
        <ele>339.9600000</ele>
        <time>2009-05-01T21:45:48Z</time>
      </trkpt>
      <trkpt lat="42.8427080" lon="-89.7805520">
        <ele>347.6500000</ele>
        <time>2009-05-01T21:46:03Z</time>
      </trkpt>
      <trkpt lat="42.8426130" lon="-89.7764540">
        <ele>349.5800000</ele>
        <time>2009-05-01T21:46:17Z</time>
      </trkpt>
      <trkpt lat="42.8425070" lon="-89.7756000">
        <ele>348.6200000</ele>
        <time>2009-05-01T21:46:20Z</time>
      </trkpt>
      <trkpt lat="42.8424350" lon="-89.7753230">
        <ele>348.1300000</ele>
        <time>2009-05-01T21:46:21Z</time>
      </trkpt>
      <trkpt lat="42.8422170" lon="-89.7741780">
        <ele>343.3300000</ele>
        <time>2009-05-01T21:46:25Z</time>
      </trkpt>
      <trkpt lat="42.8421880" lon="-89.7738860">
        <ele>342.3700000</ele>
        <time>2009-05-01T21:46:26Z</time>
      </trkpt>
      <trkpt lat="42.8422080" lon="-89.7736000">
        <ele>340.9200000</ele>
        <time>2009-05-01T21:46:27Z</time>
      </trkpt>
      <trkpt lat="42.8422700" lon="-89.7733190">
        <ele>339.4800000</ele>
        <time>2009-05-01T21:46:28Z</time>
      </trkpt>
      <trkpt lat="42.8423340" lon="-89.7730330">
        <ele>338.0400000</ele>
        <time>2009-05-01T21:46:29Z</time>
      </trkpt>
      <trkpt lat="42.8423980" lon="-89.7727460">
        <ele>336.6000000</ele>
        <time>2009-05-01T21:46:30Z</time>
      </trkpt>
      <trkpt lat="42.8424610" lon="-89.7724580">
        <ele>334.6800000</ele>
        <time>2009-05-01T21:46:31Z</time>
      </trkpt>
      <trkpt lat="42.8426030" lon="-89.7712750">
        <ele>329.3900000</ele>
        <time>2009-05-01T21:46:35Z</time>
      </trkpt>
      <trkpt lat="42.8426030" lon="-89.7677950">
        <ele>333.2300000</ele>
        <time>2009-05-01T21:46:47Z</time>
      </trkpt>
      <trkpt lat="42.8426280" lon="-89.7633790">
        <ele>340.9200000</ele>
        <time>2009-05-01T21:47:02Z</time>
      </trkpt>
      <trkpt lat="42.8427060" lon="-89.7586910">
        <ele>345.2500000</ele>
        <time>2009-05-01T21:47:18Z</time>
      </trkpt>
      <trkpt lat="42.8431800" lon="-89.7567410">
        <ele>347.6500000</ele>
        <time>2009-05-01T21:47:25Z</time>
      </trkpt>
      <trkpt lat="42.8451630" lon="-89.7495750">
        <ele>346.2100000</ele>
        <time>2009-05-01T21:47:51Z</time>
      </trkpt>
      <trkpt lat="42.8456970" lon="-89.7473690">
        <ele>350.5400000</ele>
        <time>2009-05-01T21:47:59Z</time>
      </trkpt>
      <trkpt lat="42.8457300" lon="-89.7470730">
        <ele>350.5400000</ele>
        <time>2009-05-01T21:48:00Z</time>
      </trkpt>
      <trkpt lat="42.8456990" lon="-89.7467910">
        <ele>350.5400000</ele>
        <time>2009-05-01T21:48:01Z</time>
      </trkpt>
      <trkpt lat="42.8456510" lon="-89.7465040">
        <ele>350.5400000</ele>
        <time>2009-05-01T21:48:02Z</time>
      </trkpt>
      <trkpt lat="42.8456030" lon="-89.7462300">
        <ele>350.0600000</ele>
        <time>2009-05-01T21:48:03Z</time>
      </trkpt>
      <trkpt lat="42.8455090" lon="-89.7459680">
        <ele>349.5800000</ele>
        <time>2009-05-01T21:48:04Z</time>
      </trkpt>
      <trkpt lat="42.8454150" lon="-89.7457040">
        <ele>349.1000000</ele>
        <time>2009-05-01T21:48:05Z</time>
      </trkpt>
      <trkpt lat="42.8440910" lon="-89.7417020">
        <ele>343.8100000</ele>
        <time>2009-05-01T21:48:20Z</time>
      </trkpt>
      <trkpt lat="42.8430540" lon="-89.7368960">
        <ele>343.3300000</ele>
        <time>2009-05-01T21:48:37Z</time>
      </trkpt>
      <trkpt lat="42.8421500" lon="-89.7342830">
        <ele>344.7700000</ele>
        <time>2009-05-01T21:48:47Z</time>
      </trkpt>
      <trkpt lat="42.8401780" lon="-89.7304290">
        <ele>348.6200000</ele>
        <time>2009-05-01T21:49:03Z</time>
      </trkpt>
      <trkpt lat="42.8385930" lon="-89.7280340">
        <ele>351.5000000</ele>
        <time>2009-05-01T21:49:14Z</time>
      </trkpt>
      <trkpt lat="42.8369800" lon="-89.7265470">
        <ele>348.1300000</ele>
        <time>2009-05-01T21:49:23Z</time>
      </trkpt>
      <trkpt lat="42.8351020" lon="-89.7245630">
        <ele>338.0400000</ele>
        <time>2009-05-01T21:49:34Z</time>
      </trkpt>
      <trkpt lat="42.8325560" lon="-89.7217530">
        <ele>327.4700000</ele>
        <time>2009-05-01T21:49:49Z</time>
      </trkpt>
      <trkpt lat="42.8301570" lon="-89.7201770">
        <ele>324.5800000</ele>
        <time>2009-05-01T21:50:01Z</time>
      </trkpt>
      <trkpt lat="42.8293790" lon="-89.7190780">
        <ele>325.5400000</ele>
        <time>2009-05-01T21:50:06Z</time>
      </trkpt>
      <trkpt lat="42.8288930" lon="-89.7173840">
        <ele>328.9100000</ele>
        <time>2009-05-01T21:50:12Z</time>
      </trkpt>
      <trkpt lat="42.8289020" lon="-89.7155620">
        <ele>335.6400000</ele>
        <time>2009-05-01T21:50:18Z</time>
      </trkpt>
      <trkpt lat="42.8290850" lon="-89.7097070">
        <ele>350.0600000</ele>
        <time>2009-05-01T21:50:37Z</time>
      </trkpt>
      <trkpt lat="42.8289400" lon="-89.7067070">
        <ele>352.9400000</ele>
        <time>2009-05-01T21:50:47Z</time>
      </trkpt>
      <trkpt lat="42.8288740" lon="-89.7064170">
        <ele>352.4600000</ele>
        <time>2009-05-01T21:50:48Z</time>
      </trkpt>
      <trkpt lat="42.8288070" lon="-89.7061270">
        <ele>352.4600000</ele>
        <time>2009-05-01T21:50:49Z</time>
      </trkpt>
      <trkpt lat="42.8275790" lon="-89.7025640">
        <ele>347.6500000</ele>
        <time>2009-05-01T21:51:02Z</time>
      </trkpt>
      <trkpt lat="42.8268830" lon="-89.6996890">
        <ele>346.2100000</ele>
        <time>2009-05-01T21:51:12Z</time>
      </trkpt>
      <trkpt lat="42.8266090" lon="-89.6963690">
        <ele>345.7300000</ele>
        <time>2009-05-01T21:51:23Z</time>
      </trkpt>
      <trkpt lat="42.8264700" lon="-89.6936370">
        <ele>344.7700000</ele>
        <time>2009-05-01T21:51:32Z</time>
      </trkpt>
      <trkpt lat="42.8258170" lon="-89.6879280">
        <ele>343.3300000</ele>
        <time>2009-05-01T21:51:51Z</time>
      </trkpt>
      <trkpt lat="42.8253940" lon="-89.6852640">
        <ele>342.8500000</ele>
        <time>2009-05-01T21:52:00Z</time>
      </trkpt>
      <trkpt lat="42.8239190" lon="-89.6791950">
        <ele>337.0800000</ele>
        <time>2009-05-01T21:52:21Z</time>
      </trkpt>
      <trkpt lat="42.8239120" lon="-89.6770560">
        <ele>336.6000000</ele>
        <time>2009-05-01T21:52:28Z</time>
      </trkpt>
      <trkpt lat="42.8239220" lon="-89.6746170">
        <ele>337.0800000</ele>
        <time>2009-05-01T21:52:36Z</time>
      </trkpt>
      <trkpt lat="42.8238400" lon="-89.6743420">
        <ele>336.6000000</ele>
        <time>2009-05-01T21:52:37Z</time>
      </trkpt>
      <trkpt lat="42.8237360" lon="-89.6740890">
        <ele>336.1200000</ele>
        <time>2009-05-01T21:52:38Z</time>
      </trkpt>
      <trkpt lat="42.8236040" lon="-89.6738520">
        <ele>336.1200000</ele>
        <time>2009-05-01T21:52:39Z</time>
      </trkpt>
      <trkpt lat="42.8234330" lon="-89.6736520">
        <ele>335.6400000</ele>
        <time>2009-05-01T21:52:40Z</time>
      </trkpt>
      <trkpt lat="42.8232500" lon="-89.6734900">
        <ele>335.1600000</ele>
        <time>2009-05-01T21:52:41Z</time>
      </trkpt>
      <trkpt lat="42.8230570" lon="-89.6733430">
        <ele>334.6800000</ele>
        <time>2009-05-01T21:52:42Z</time>
      </trkpt>
      <trkpt lat="42.8197840" lon="-89.6707930">
        <ele>332.7500000</ele>
        <time>2009-05-01T21:52:59Z</time>
      </trkpt>
      <trkpt lat="42.8186400" lon="-89.6693250">
        <ele>333.2300000</ele>
        <time>2009-05-01T21:53:06Z</time>
      </trkpt>
      <trkpt lat="42.8180540" lon="-89.6680160">
        <ele>330.3500000</ele>
        <time>2009-05-01T21:53:11Z</time>
      </trkpt>
      <trkpt lat="42.8172220" lon="-89.6644990">
        <ele>322.6600000</ele>
        <time>2009-05-01T21:53:23Z</time>
      </trkpt>
      <trkpt lat="42.8161820" lon="-89.6591880">
        <ele>317.3700000</ele>
        <time>2009-05-01T21:53:41Z</time>
      </trkpt>
      <trkpt lat="42.8153050" lon="-89.6544680">
        <ele>314.4900000</ele>
        <time>2009-05-01T21:53:57Z</time>
      </trkpt>
      <trkpt lat="42.8143660" lon="-89.6498530">
        <ele>312.5700000</ele>
        <time>2009-05-01T21:54:13Z</time>
      </trkpt>
      <trkpt lat="42.8144080" lon="-89.6475640">
        <ele>307.7600000</ele>
        <time>2009-05-01T21:54:22Z</time>
      </trkpt>
      <trkpt lat="42.8145450" lon="-89.6426120">
        <ele>291.9000000</ele>
        <time>2009-05-01T21:54:45Z</time>
      </trkpt>
      <trkpt lat="42.8144940" lon="-89.6388190">
        <ele>284.6900000</ele>
        <time>2009-05-01T21:55:05Z</time>
      </trkpt>
      <trkpt lat="42.8145090" lon="-89.6359140">
        <ele>278.4400000</ele>
        <time>2009-05-01T21:55:23Z</time>
      </trkpt>
      <trkpt lat="42.8145370" lon="-89.6347960">
        <ele>273.1500000</ele>
        <time>2009-05-01T21:55:33Z</time>
      </trkpt>
      <trkpt lat="42.8145370" lon="-89.6333170">
        <ele>263.5400000</ele>
        <time>2009-05-01T21:55:46Z</time>
      </trkpt>
      <trkpt lat="42.8145370" lon="-89.6322100">
        <ele>261.1400000</ele>
        <time>2009-05-01T21:55:58Z</time>
      </trkpt>
      <trkpt lat="42.8145370" lon="-89.6320330">
        <ele>261.6200000</ele>
        <time>2009-05-01T21:56:10Z</time>
      </trkpt>
      <trkpt lat="42.8145370" lon="-89.6317960">
        <ele>261.6200000</ele>
        <time>2009-05-01T21:56:19Z</time>
      </trkpt>
      <trkpt lat="42.8144110" lon="-89.6315190">
        <ele>259.6900000</ele>
        <time>2009-05-01T21:56:27Z</time>
      </trkpt>
      <trkpt lat="42.8143680" lon="-89.6315150">
        <ele>259.6900000</ele>
        <time>2009-05-01T21:56:28Z</time>
      </trkpt>
      <trkpt lat="42.8143220" lon="-89.6315110">
        <ele>259.6900000</ele>
        <time>2009-05-01T21:56:29Z</time>
      </trkpt>
      <trkpt lat="42.8136440" lon="-89.6314500">
        <ele>260.6500000</ele>
        <time>2009-05-01T21:56:44Z</time>
      </trkpt>
      <trkpt lat="42.8135340" lon="-89.6314400">
        <ele>260.6500000</ele>
        <time>2009-05-01T21:56:46Z</time>
      </trkpt>
      <trkpt lat="42.8134990" lon="-89.6314370">
        <ele>260.6500000</ele>
        <time>2009-05-01T21:56:47Z</time>
      </trkpt>
      <trkpt lat="42.8133990" lon="-89.6317180">
        <ele>259.2100000</ele>
        <time>2009-05-01T21:56:54Z</time>
      </trkpt>
      <trkpt lat="42.8133270" lon="-89.6317530">
        <ele>258.7300000</ele>
        <time>2009-05-01T21:56:57Z</time>
      </trkpt>
      <trkpt lat="42.8132270" lon="-89.6320550">
        <ele>258.2500000</ele>
        <time>2009-05-01T21:57:06Z</time>
      </trkpt>
      <trkpt lat="42.8131950" lon="-89.6320360">
        <ele>262.1000000</ele>
        <time>2009-05-01T21:57:17Z</time>
      </trkpt>
      <trkpt lat="42.8131750" lon="-89.6320740">
        <ele>253.9300000</ele>
        <time>2009-05-01T21:57:54Z</time>
      </trkpt>
    </trkseg>
  </trk>

  <trk>
    <name>090502_Saturday_1</name>
    <extensions>
      <gpxx:TrackExtension xmlns:gpxx="http://www.garmin.com/xmlschemas/GpxExtensions/v3">
        <gpxx:DisplayColor>White</gpxx:DisplayColor>
      </gpxx:TrackExtension>
    </extensions>
    <trkseg>
      <trkpt lat="42.8128560" lon="-89.6316690">
        <ele>265.4600000</ele>
        <time>2009-05-02T18:31:58Z</time>
      </trkpt>
      <trkpt lat="42.8128490" lon="-89.6316830">
        <ele>267.3800000</ele>
        <time>2009-05-02T18:32:26Z</time>
      </trkpt>
      <trkpt lat="42.8128470" lon="-89.6316840">
        <ele>267.8600000</ele>
        <time>2009-05-02T18:32:57Z</time>
      </trkpt>
      <trkpt lat="42.8128480" lon="-89.6316950">
        <ele>268.8300000</ele>
        <time>2009-05-02T18:33:33Z</time>
      </trkpt>
      <trkpt lat="42.8128470" lon="-89.6317020">
        <ele>269.7900000</ele>
        <time>2009-05-02T18:34:27Z</time>
      </trkpt>
      <trkpt lat="42.8128370" lon="-89.6316580">
        <ele>271.7100000</ele>
        <time>2009-05-02T18:34:44Z</time>
      </trkpt>
      <trkpt lat="42.8127820" lon="-89.6316680">
        <ele>272.6700000</ele>
        <time>2009-05-02T18:35:11Z</time>
      </trkpt>
      <trkpt lat="42.8127370" lon="-89.6316890">
        <ele>275.0700000</ele>
        <time>2009-05-02T18:35:38Z</time>
      </trkpt>
      <trkpt lat="42.8127430" lon="-89.6316820">
        <ele>276.0400000</ele>
        <time>2009-05-02T18:35:59Z</time>
      </trkpt>
      <trkpt lat="42.8127150" lon="-89.6317170">
        <ele>271.7100000</ele>
        <time>2009-05-02T18:36:19Z</time>
      </trkpt>
      <trkpt lat="42.8127520" lon="-89.6316670">
        <ele>275.5600000</ele>
        <time>2009-05-02T18:36:41Z</time>
      </trkpt>
      <trkpt lat="42.8125420" lon="-89.6316280">
        <ele>271.2300000</ele>
        <time>2009-05-02T18:36:54Z</time>
      </trkpt>
      <trkpt lat="42.8121670" lon="-89.6316050">
        <ele>269.7900000</ele>
        <time>2009-05-02T18:37:04Z</time>
      </trkpt>
      <trkpt lat="42.8121430" lon="-89.6319630">
        <ele>272.1900000</ele>
        <time>2009-05-02T18:37:14Z</time>
      </trkpt>
      <trkpt lat="42.8124040" lon="-89.6320240">
        <ele>274.5900000</ele>
        <time>2009-05-02T18:37:29Z</time>
      </trkpt>
      <trkpt lat="42.8125360" lon="-89.6320640">
        <ele>284.6900000</ele>
        <time>2009-05-02T18:37:42Z</time>
      </trkpt>
      <trkpt lat="42.8126950" lon="-89.6321470">
        <ele>271.7100000</ele>
        <time>2009-05-02T18:37:56Z</time>
      </trkpt>
      <trkpt lat="42.8130220" lon="-89.6322480">
        <ele>269.7900000</ele>
        <time>2009-05-02T18:38:06Z</time>
      </trkpt>
      <trkpt lat="42.8132180" lon="-89.6320080">
        <ele>267.3800000</ele>
        <time>2009-05-02T18:38:16Z</time>
      </trkpt>
      <trkpt lat="42.8132220" lon="-89.6318470">
        <ele>266.9000000</ele>
        <time>2009-05-02T18:38:20Z</time>
      </trkpt>
      <trkpt lat="42.8131610" lon="-89.6314070">
        <ele>266.4200000</ele>
        <time>2009-05-02T18:38:23Z</time>
      </trkpt>
      <trkpt lat="42.8131110" lon="-89.6314020">
        <ele>266.4200000</ele>
        <time>2009-05-02T18:38:24Z</time>
      </trkpt>
      <trkpt lat="42.8130540" lon="-89.6313970">
        <ele>266.4200000</ele>
        <time>2009-05-02T18:38:25Z</time>
      </trkpt>
      <trkpt lat="42.8129970" lon="-89.6313920">
        <ele>266.4200000</ele>
        <time>2009-05-02T18:38:26Z</time>
      </trkpt>
      <trkpt lat="42.8129440" lon="-89.6313880">
        <ele>265.9400000</ele>
        <time>2009-05-02T18:38:27Z</time>
      </trkpt>
      <trkpt lat="42.8128990" lon="-89.6313840">
        <ele>265.9400000</ele>
        <time>2009-05-02T18:38:28Z</time>
      </trkpt>
      <trkpt lat="42.8128690" lon="-89.6313810">
        <ele>265.4600000</ele>
        <time>2009-05-02T18:38:29Z</time>
      </trkpt>
      <trkpt lat="42.8128490" lon="-89.6315730">
        <ele>265.9400000</ele>
        <time>2009-05-02T18:38:30Z</time>
      </trkpt>
      <trkpt lat="42.8128450" lon="-89.6314810">
        <ele>265.9400000</ele>
        <time>2009-05-02T18:38:32Z</time>
      </trkpt>
      <trkpt lat="42.8127840" lon="-89.6313730">
        <ele>266.4200000</ele>
        <time>2009-05-02T18:38:34Z</time>
      </trkpt>
      <trkpt lat="42.8127170" lon="-89.6313670">
        <ele>266.9000000</ele>
        <time>2009-05-02T18:38:35Z</time>
      </trkpt>
      <trkpt lat="42.8120890" lon="-89.6313130">
        <ele>267.3800000</ele>
        <time>2009-05-02T18:38:40Z</time>
      </trkpt>
      <trkpt lat="42.8100220" lon="-89.6312710">
        <ele>265.9400000</ele>
        <time>2009-05-02T18:38:53Z</time>
      </trkpt>
      <trkpt lat="42.8075530" lon="-89.6314610">
        <ele>265.9400000</ele>
        <time>2009-05-02T18:39:10Z</time>
      </trkpt>
      <trkpt lat="42.8056970" lon="-89.6317830">
        <ele>266.4200000</ele>
        <time>2009-05-02T18:39:23Z</time>
      </trkpt>
      <trkpt lat="42.8028610" lon="-89.6323100">
        <ele>266.4200000</ele>
        <time>2009-05-02T18:39:40Z</time>
      </trkpt>
      <trkpt lat="42.7996980" lon="-89.6326890">
        <ele>266.4200000</ele>
        <time>2009-05-02T18:39:58Z</time>
      </trkpt>
      <trkpt lat="42.7974160" lon="-89.6325330">
        <ele>269.7900000</ele>
        <time>2009-05-02T18:40:12Z</time>
      </trkpt>
      <trkpt lat="42.7954240" lon="-89.6320010">
        <ele>280.8400000</ele>
        <time>2009-05-02T18:40:24Z</time>
      </trkpt>
      <trkpt lat="42.7931110" lon="-89.6309110">
        <ele>300.0700000</ele>
        <time>2009-05-02T18:40:39Z</time>
      </trkpt>
      <trkpt lat="42.7907300" lon="-89.6295150">
        <ele>311.1200000</ele>
        <time>2009-05-02T18:40:53Z</time>
      </trkpt>
      <trkpt lat="42.7886450" lon="-89.6285500">
        <ele>321.7000000</ele>
        <time>2009-05-02T18:41:03Z</time>
      </trkpt>
      <trkpt lat="42.7861210" lon="-89.6279530">
        <ele>328.4300000</ele>
        <time>2009-05-02T18:41:14Z</time>
      </trkpt>
      <trkpt lat="42.7834310" lon="-89.6279140">
        <ele>318.8100000</ele>
        <time>2009-05-02T18:41:25Z</time>
      </trkpt>
      <trkpt lat="42.7795040" lon="-89.6279900">
        <ele>300.5500000</ele>
        <time>2009-05-02T18:41:40Z</time>
      </trkpt>
      <trkpt lat="42.7767050" lon="-89.6280440">
        <ele>289.0100000</ele>
        <time>2009-05-02T18:41:52Z</time>
      </trkpt>
      <trkpt lat="42.7726230" lon="-89.6278960">
        <ele>278.9200000</ele>
        <time>2009-05-02T18:42:10Z</time>
      </trkpt>
      <trkpt lat="42.7709380" lon="-89.6269740">
        <ele>275.0700000</ele>
        <time>2009-05-02T18:42:18Z</time>
      </trkpt>
      <trkpt lat="42.7694750" lon="-89.6255080">
        <ele>271.7100000</ele>
        <time>2009-05-02T18:42:26Z</time>
      </trkpt>
      <trkpt lat="42.7642080" lon="-89.6196630">
        <ele>273.6300000</ele>
        <time>2009-05-02T18:42:56Z</time>
      </trkpt>
      <trkpt lat="42.7637070" lon="-89.6191070">
        <ele>273.6300000</ele>
        <time>2009-05-02T18:43:00Z</time>
      </trkpt>
      <trkpt lat="42.7636640" lon="-89.6192400">
        <ele>274.1100000</ele>
        <time>2009-05-02T18:43:01Z</time>
      </trkpt>
      <trkpt lat="42.7635940" lon="-89.6193700">
        <ele>274.5900000</ele>
        <time>2009-05-02T18:43:02Z</time>
      </trkpt>
      <trkpt lat="42.7635120" lon="-89.6195230">
        <ele>275.0700000</ele>
        <time>2009-05-02T18:43:03Z</time>
      </trkpt>
      <trkpt lat="42.7634350" lon="-89.6196650">
        <ele>275.0700000</ele>
        <time>2009-05-02T18:43:04Z</time>
      </trkpt>
      <trkpt lat="42.7634200" lon="-89.6197480">
        <ele>276.0400000</ele>
        <time>2009-05-02T18:43:05Z</time>
      </trkpt>
      <trkpt lat="42.7634060" lon="-89.6199680">
        <ele>276.5200000</ele>
        <time>2009-05-02T18:43:06Z</time>
      </trkpt>
      <trkpt lat="42.7633880" lon="-89.6202320">
        <ele>276.5200000</ele>
        <time>2009-05-02T18:43:07Z</time>
      </trkpt>
      <trkpt lat="42.7633820" lon="-89.6204420">
        <ele>277.0000000</ele>
        <time>2009-05-02T18:43:08Z</time>
      </trkpt>
      <trkpt lat="42.7633820" lon="-89.6206490">
        <ele>277.9600000</ele>
        <time>2009-05-02T18:43:09Z</time>
      </trkpt>
      <trkpt lat="42.7633820" lon="-89.6211310">
        <ele>280.8400000</ele>
        <time>2009-05-02T18:43:13Z</time>
      </trkpt>
      <trkpt lat="42.7633810" lon="-89.6221230">
        <ele>286.6100000</ele>
        <time>2009-05-02T18:43:21Z</time>
      </trkpt>
      <trkpt lat="42.7633480" lon="-89.6241720">
        <ele>299.5900000</ele>
        <time>2009-05-02T18:43:33Z</time>
      </trkpt>
      <trkpt lat="42.7633420" lon="-89.6252660">
        <ele>299.5900000</ele>
        <time>2009-05-02T18:43:39Z</time>
      </trkpt>
      <trkpt lat="42.7633570" lon="-89.6276650">
        <ele>308.2400000</ele>
        <time>2009-05-02T18:43:52Z</time>
      </trkpt>
      <trkpt lat="42.7633730" lon="-89.6300210">
        <ele>324.1000000</ele>
        <time>2009-05-02T18:44:03Z</time>
      </trkpt>
      <trkpt lat="42.7633820" lon="-89.6318120">
        <ele>321.7000000</ele>
        <time>2009-05-02T18:44:10Z</time>
      </trkpt>
      <trkpt lat="42.7633820" lon="-89.6329070">
        <ele>311.1200000</ele>
        <time>2009-05-02T18:44:17Z</time>
      </trkpt>
      <trkpt lat="42.7633820" lon="-89.6347360">
        <ele>300.0700000</ele>
        <time>2009-05-02T18:44:26Z</time>
      </trkpt>
      <trkpt lat="42.7633820" lon="-89.6364950">
        <ele>291.4200000</ele>
        <time>2009-05-02T18:44:32Z</time>
      </trkpt>
      <trkpt lat="42.7633820" lon="-89.6386130">
        <ele>286.1300000</ele>
        <time>2009-05-02T18:44:41Z</time>
      </trkpt>
      <trkpt lat="42.7634020" lon="-89.6420880">
        <ele>279.8800000</ele>
        <time>2009-05-02T18:44:56Z</time>
      </trkpt>
      <trkpt lat="42.7633730" lon="-89.6446370">
        <ele>293.8200000</ele>
        <time>2009-05-02T18:45:07Z</time>
      </trkpt>
      <trkpt lat="42.7633520" lon="-89.6477180">
        <ele>305.8400000</ele>
        <time>2009-05-02T18:45:21Z</time>
      </trkpt>
      <trkpt lat="42.7633330" lon="-89.6504190">
        <ele>307.7600000</ele>
        <time>2009-05-02T18:45:33Z</time>
      </trkpt>
      <trkpt lat="42.7633140" lon="-89.6532570">
        <ele>314.9700000</ele>
        <time>2009-05-02T18:45:45Z</time>
      </trkpt>
      <trkpt lat="42.7633010" lon="-89.6551420">
        <ele>321.7000000</ele>
        <time>2009-05-02T18:45:55Z</time>
      </trkpt>
      <trkpt lat="42.7633000" lon="-89.6553650">
        <ele>322.6600000</ele>
        <time>2009-05-02T18:45:58Z</time>
      </trkpt>
      <trkpt lat="42.7633000" lon="-89.6554270">
        <ele>323.1400000</ele>
        <time>2009-05-02T18:45:59Z</time>
      </trkpt>
      <trkpt lat="42.7632990" lon="-89.6554740">
        <ele>323.6200000</ele>
        <time>2009-05-02T18:46:00Z</time>
      </trkpt>
      <trkpt lat="42.7632990" lon="-89.6555360">
        <ele>324.1000000</ele>
        <time>2009-05-02T18:46:01Z</time>
      </trkpt>
      <trkpt lat="42.7632980" lon="-89.6555970">
        <ele>324.5800000</ele>
        <time>2009-05-02T18:46:02Z</time>
      </trkpt>
      <trkpt lat="42.7632940" lon="-89.6560450">
        <ele>333.7100000</ele>
        <time>2009-05-02T18:46:13Z</time>
      </trkpt>
      <trkpt lat="42.7632730" lon="-89.6565540">
        <ele>338.0400000</ele>
        <time>2009-05-02T18:46:24Z</time>
      </trkpt>
      <trkpt lat="42.7632600" lon="-89.6568870">
        <ele>336.6000000</ele>
        <time>2009-05-02T18:46:31Z</time>
      </trkpt>
      <trkpt lat="42.7632460" lon="-89.6577500">
        <ele>333.7100000</ele>
        <time>2009-05-02T18:46:37Z</time>
      </trkpt>
      <trkpt lat="42.7632300" lon="-89.6594950">
        <ele>327.4700000</ele>
        <time>2009-05-02T18:46:45Z</time>
      </trkpt>
      <trkpt lat="42.7631190" lon="-89.6625160">
        <ele>308.7200000</ele>
        <time>2009-05-02T18:46:59Z</time>
      </trkpt>
      <trkpt lat="42.7629380" lon="-89.6650690">
        <ele>285.1700000</ele>
        <time>2009-05-02T18:47:09Z</time>
      </trkpt>
      <trkpt lat="42.7627470" lon="-89.6684390">
        <ele>265.9400000</ele>
        <time>2009-05-02T18:47:22Z</time>
      </trkpt>
      <trkpt lat="42.7628060" lon="-89.6688630">
        <ele>263.5400000</ele>
        <time>2009-05-02T18:47:24Z</time>
      </trkpt>
      <trkpt lat="42.7628640" lon="-89.6690800">
        <ele>262.1000000</ele>
        <time>2009-05-02T18:47:25Z</time>
      </trkpt>
      <trkpt lat="42.7629240" lon="-89.6692820">
        <ele>261.6200000</ele>
        <time>2009-05-02T18:47:26Z</time>
      </trkpt>
      <trkpt lat="42.7630130" lon="-89.6694710">
        <ele>261.1400000</ele>
        <time>2009-05-02T18:47:27Z</time>
      </trkpt>
      <trkpt lat="42.7630890" lon="-89.6696330">
        <ele>261.1400000</ele>
        <time>2009-05-02T18:47:28Z</time>
      </trkpt>
      <trkpt lat="42.7636570" lon="-89.6708340">
        <ele>263.5400000</ele>
        <time>2009-05-02T18:47:37Z</time>
      </trkpt>
      <trkpt lat="42.7640560" lon="-89.6716280">
        <ele>264.0200000</ele>
        <time>2009-05-02T18:47:43Z</time>
      </trkpt>
      <trkpt lat="42.7641410" lon="-89.6716710">
        <ele>264.0200000</ele>
        <time>2009-05-02T18:47:44Z</time>
      </trkpt>
      <trkpt lat="42.7642150" lon="-89.6717010">
        <ele>264.0200000</ele>
        <time>2009-05-02T18:47:45Z</time>
      </trkpt>
      <trkpt lat="42.7643100" lon="-89.6717150">
        <ele>264.5000000</ele>
        <time>2009-05-02T18:47:46Z</time>
      </trkpt>
      <trkpt lat="42.7643990" lon="-89.6717270">
        <ele>265.4600000</ele>
        <time>2009-05-02T18:47:47Z</time>
      </trkpt>
      <trkpt lat="42.7644790" lon="-89.6717390">
        <ele>265.9400000</ele>
        <time>2009-05-02T18:47:48Z</time>
      </trkpt>
      <trkpt lat="42.7653170" lon="-89.6718320">
        <ele>270.7500000</ele>
        <time>2009-05-02T18:47:57Z</time>
      </trkpt>
      <trkpt lat="42.7668160" lon="-89.6719680">
        <ele>267.8600000</ele>
        <time>2009-05-02T18:48:08Z</time>
      </trkpt>
      <trkpt lat="42.7688830" lon="-89.6721050">
        <ele>266.9000000</ele>
        <time>2009-05-02T18:48:21Z</time>
      </trkpt>
      <trkpt lat="42.7714410" lon="-89.6723080">
        <ele>268.3500000</ele>
        <time>2009-05-02T18:48:37Z</time>
      </trkpt>
      <trkpt lat="42.7731220" lon="-89.6726370">
        <ele>269.7900000</ele>
        <time>2009-05-02T18:48:48Z</time>
      </trkpt>
      <trkpt lat="42.7746330" lon="-89.6724900">
        <ele>268.8300000</ele>
        <time>2009-05-02T18:48:58Z</time>
      </trkpt>
      <trkpt lat="42.7747770" lon="-89.6724870">
        <ele>268.8300000</ele>
        <time>2009-05-02T18:48:59Z</time>
      </trkpt>
      <trkpt lat="42.7749290" lon="-89.6725220">
        <ele>268.8300000</ele>
        <time>2009-05-02T18:49:00Z</time>
      </trkpt>
      <trkpt lat="42.7750820" lon="-89.6725580">
        <ele>268.3500000</ele>
        <time>2009-05-02T18:49:01Z</time>
      </trkpt>
      <trkpt lat="42.7762410" lon="-89.6726610">
        <ele>268.3500000</ele>
        <time>2009-05-02T18:49:09Z</time>
      </trkpt>
      <trkpt lat="42.7774440" lon="-89.6727550">
        <ele>268.8300000</ele>
        <time>2009-05-02T18:49:17Z</time>
      </trkpt>
      <trkpt lat="42.7775580" lon="-89.6728430">
        <ele>269.3100000</ele>
        <time>2009-05-02T18:49:18Z</time>
      </trkpt>
      <trkpt lat="42.7776460" lon="-89.6730190">
        <ele>269.3100000</ele>
        <time>2009-05-02T18:49:19Z</time>
      </trkpt>
      <trkpt lat="42.7777070" lon="-89.6731770">
        <ele>269.3100000</ele>
        <time>2009-05-02T18:49:20Z</time>
      </trkpt>
      <trkpt lat="42.7777160" lon="-89.6732820">
        <ele>268.8300000</ele>
        <time>2009-05-02T18:49:21Z</time>
      </trkpt>
      <trkpt lat="42.7777190" lon="-89.6734620">
        <ele>269.3100000</ele>
        <time>2009-05-02T18:49:22Z</time>
      </trkpt>
      <trkpt lat="42.7777230" lon="-89.6736980">
        <ele>269.3100000</ele>
        <time>2009-05-02T18:49:23Z</time>
      </trkpt>
      <trkpt lat="42.7777270" lon="-89.6739600">
        <ele>269.7900000</ele>
        <time>2009-05-02T18:49:24Z</time>
      </trkpt>
      <trkpt lat="42.7777310" lon="-89.6742200">
        <ele>269.3100000</ele>
        <time>2009-05-02T18:49:25Z</time>
      </trkpt>
      <trkpt lat="42.7777350" lon="-89.6745230">
        <ele>269.7900000</ele>
        <time>2009-05-02T18:49:26Z</time>
      </trkpt>
      <trkpt lat="42.7777390" lon="-89.6747810">
        <ele>269.7900000</ele>
        <time>2009-05-02T18:49:27Z</time>
      </trkpt>
      <trkpt lat="42.7777580" lon="-89.6760330">
        <ele>268.3500000</ele>
        <time>2009-05-02T18:49:33Z</time>
      </trkpt>
      <trkpt lat="42.7778870" lon="-89.6760500">
        <ele>268.3500000</ele>
        <time>2009-05-02T18:49:34Z</time>
      </trkpt>
      <trkpt lat="42.7777470" lon="-89.6762560">
        <ele>267.8600000</ele>
        <time>2009-05-02T18:49:35Z</time>
      </trkpt>
      <trkpt lat="42.7784820" lon="-89.6761560">
        <ele>270.2700000</ele>
        <time>2009-05-02T18:49:38Z</time>
      </trkpt>
      <trkpt lat="42.7786330" lon="-89.6762270">
        <ele>271.2300000</ele>
        <time>2009-05-02T18:49:39Z</time>
      </trkpt>
      <trkpt lat="42.7797020" lon="-89.6770150">
        <ele>274.5900000</ele>
        <time>2009-05-02T18:49:47Z</time>
      </trkpt>
      <trkpt lat="42.7810820" lon="-89.6786860">
        <ele>278.9200000</ele>
        <time>2009-05-02T18:50:00Z</time>
      </trkpt>
      <trkpt lat="42.7823280" lon="-89.6803030">
        <ele>284.6900000</ele>
        <time>2009-05-02T18:50:13Z</time>
      </trkpt>
      <trkpt lat="42.7836290" lon="-89.6812150">
        <ele>283.2500000</ele>
        <time>2009-05-02T18:50:25Z</time>
      </trkpt>
      <trkpt lat="42.7849020" lon="-89.6819240">
        <ele>279.4000000</ele>
        <time>2009-05-02T18:50:36Z</time>
      </trkpt>
      <trkpt lat="42.7850150" lon="-89.6819550">
        <ele>278.9200000</ele>
        <time>2009-05-02T18:50:37Z</time>
      </trkpt>
      <trkpt lat="42.7851240" lon="-89.6819380">
        <ele>278.4400000</ele>
        <time>2009-05-02T18:50:38Z</time>
      </trkpt>
      <trkpt lat="42.7852320" lon="-89.6819220">
        <ele>278.4400000</ele>
        <time>2009-05-02T18:50:39Z</time>
      </trkpt>
      <trkpt lat="42.7853380" lon="-89.6819050">
        <ele>277.9600000</ele>
        <time>2009-05-02T18:50:40Z</time>
      </trkpt>
      <trkpt lat="42.7864330" lon="-89.6818700">
        <ele>275.0700000</ele>
        <time>2009-05-02T18:50:49Z</time>
      </trkpt>
      <trkpt lat="42.7870950" lon="-89.6818700">
        <ele>274.1100000</ele>
        <time>2009-05-02T18:50:55Z</time>
      </trkpt>
      <trkpt lat="42.7871650" lon="-89.6818700">
        <ele>274.1100000</ele>
        <time>2009-05-02T18:50:56Z</time>
      </trkpt>
      <trkpt lat="42.7871980" lon="-89.6818700">
        <ele>273.1500000</ele>
        <time>2009-05-02T18:50:57Z</time>
      </trkpt>
      <trkpt lat="42.7871710" lon="-89.6815780">
        <ele>272.6700000</ele>
        <time>2009-05-02T18:50:58Z</time>
      </trkpt>
      <trkpt lat="42.7870880" lon="-89.6814230">
        <ele>272.1900000</ele>
        <time>2009-05-02T18:50:59Z</time>
      </trkpt>
      <trkpt lat="42.7870180" lon="-89.6812480">
        <ele>271.7100000</ele>
        <time>2009-05-02T18:51:00Z</time>
      </trkpt>
      <trkpt lat="42.7869890" lon="-89.6810580">
        <ele>271.2300000</ele>
        <time>2009-05-02T18:51:01Z</time>
      </trkpt>
      <trkpt lat="42.7869600" lon="-89.6808680">
        <ele>270.7500000</ele>
        <time>2009-05-02T18:51:02Z</time>
      </trkpt>
      <trkpt lat="42.7869480" lon="-89.6806900">
        <ele>270.7500000</ele>
        <time>2009-05-02T18:51:03Z</time>
      </trkpt>
      <trkpt lat="42.7869670" lon="-89.6805020">
        <ele>270.2700000</ele>
        <time>2009-05-02T18:51:04Z</time>
      </trkpt>
      <trkpt lat="42.7869850" lon="-89.6803250">
        <ele>270.2700000</ele>
        <time>2009-05-02T18:51:05Z</time>
      </trkpt>
      <trkpt lat="42.7870340" lon="-89.6801530">
        <ele>270.2700000</ele>
        <time>2009-05-02T18:51:06Z</time>
      </trkpt>
      <trkpt lat="42.7870850" lon="-89.6800050">
        <ele>269.7900000</ele>
        <time>2009-05-02T18:51:07Z</time>
      </trkpt>
      <trkpt lat="42.7871750" lon="-89.6798790">
        <ele>269.7900000</ele>
        <time>2009-05-02T18:51:08Z</time>
      </trkpt>
      <trkpt lat="42.7872710" lon="-89.6797440">
        <ele>269.7900000</ele>
        <time>2009-05-02T18:51:09Z</time>
      </trkpt>
      <trkpt lat="42.7873830" lon="-89.6796480">
        <ele>270.2700000</ele>
        <time>2009-05-02T18:51:10Z</time>
      </trkpt>
      <trkpt lat="42.7875030" lon="-89.6795550">
        <ele>270.7500000</ele>
        <time>2009-05-02T18:51:11Z</time>
      </trkpt>
      <trkpt lat="42.7876230" lon="-89.6794610">
        <ele>270.7500000</ele>
        <time>2009-05-02T18:51:12Z</time>
      </trkpt>
      <trkpt lat="42.7877570" lon="-89.6794090">
        <ele>271.7100000</ele>
        <time>2009-05-02T18:51:13Z</time>
      </trkpt>
      <trkpt lat="42.7879040" lon="-89.6793850">
        <ele>272.1900000</ele>
        <time>2009-05-02T18:51:14Z</time>
      </trkpt>
      <trkpt lat="42.7880480" lon="-89.6793810">
        <ele>273.1500000</ele>
        <time>2009-05-02T18:51:15Z</time>
      </trkpt>
      <trkpt lat="42.7882010" lon="-89.6793810">
        <ele>273.6300000</ele>
        <time>2009-05-02T18:51:16Z</time>
      </trkpt>
      <trkpt lat="42.7883540" lon="-89.6793810">
        <ele>274.1100000</ele>
        <time>2009-05-02T18:51:17Z</time>
      </trkpt>
      <trkpt lat="42.7910690" lon="-89.6794060">
        <ele>278.4400000</ele>
        <time>2009-05-02T18:51:34Z</time>
      </trkpt>
      <trkpt lat="42.7925080" lon="-89.6793440">
        <ele>287.0900000</ele>
        <time>2009-05-02T18:51:43Z</time>
      </trkpt>
      <trkpt lat="42.7926320" lon="-89.6792730">
        <ele>287.0900000</ele>
        <time>2009-05-02T18:51:44Z</time>
      </trkpt>
      <trkpt lat="42.7927490" lon="-89.6791690">
        <ele>286.6100000</ele>
        <time>2009-05-02T18:51:45Z</time>
      </trkpt>
      <trkpt lat="42.7928660" lon="-89.6790640">
        <ele>286.1300000</ele>
        <time>2009-05-02T18:51:46Z</time>
      </trkpt>
      <trkpt lat="42.7929800" lon="-89.6789630">
        <ele>286.1300000</ele>
        <time>2009-05-02T18:51:47Z</time>
      </trkpt>
      <trkpt lat="42.7930620" lon="-89.6787980">
        <ele>286.6100000</ele>
        <time>2009-05-02T18:51:48Z</time>
      </trkpt>
      <trkpt lat="42.7931400" lon="-89.6786240">
        <ele>287.5700000</ele>
        <time>2009-05-02T18:51:49Z</time>
      </trkpt>
      <trkpt lat="42.7932210" lon="-89.6784440">
        <ele>288.0500000</ele>
        <time>2009-05-02T18:51:50Z</time>
      </trkpt>
      <trkpt lat="42.7941450" lon="-89.6768940">
        <ele>297.6700000</ele>
        <time>2009-05-02T18:51:59Z</time>
      </trkpt>
      <trkpt lat="42.7961780" lon="-89.6748020">
        <ele>314.9700000</ele>
        <time>2009-05-02T18:52:15Z</time>
      </trkpt>
      <trkpt lat="42.7987550" lon="-89.6721270">
        <ele>333.2300000</ele>
        <time>2009-05-02T18:52:36Z</time>
      </trkpt>
      <trkpt lat="42.7993500" lon="-89.6714040">
        <ele>337.0800000</ele>
        <time>2009-05-02T18:52:41Z</time>
      </trkpt>
      <trkpt lat="42.7994420" lon="-89.6712350">
        <ele>337.5600000</ele>
        <time>2009-05-02T18:52:42Z</time>
      </trkpt>
      <trkpt lat="42.7995080" lon="-89.6710370">
        <ele>338.0400000</ele>
        <time>2009-05-02T18:52:43Z</time>
      </trkpt>
      <trkpt lat="42.7995750" lon="-89.6708360">
        <ele>338.0400000</ele>
        <time>2009-05-02T18:52:44Z</time>
      </trkpt>
      <trkpt lat="42.7996420" lon="-89.6706340">
        <ele>338.0400000</ele>
        <time>2009-05-02T18:52:45Z</time>
      </trkpt>
      <trkpt lat="42.7996700" lon="-89.6704250">
        <ele>338.0400000</ele>
        <time>2009-05-02T18:52:46Z</time>
      </trkpt>
      <trkpt lat="42.7996980" lon="-89.6701990">
        <ele>338.0400000</ele>
        <time>2009-05-02T18:52:47Z</time>
      </trkpt>
      <trkpt lat="42.7997270" lon="-89.6699700">
        <ele>338.0400000</ele>
        <time>2009-05-02T18:52:48Z</time>
      </trkpt>
      <trkpt lat="42.7997140" lon="-89.6697450">
        <ele>337.5600000</ele>
        <time>2009-05-02T18:52:49Z</time>
      </trkpt>
      <trkpt lat="42.7996530" lon="-89.6690390">
        <ele>338.5200000</ele>
        <time>2009-05-02T18:52:52Z</time>
      </trkpt>
      <trkpt lat="42.7995990" lon="-89.6688320">
        <ele>338.5200000</ele>
        <time>2009-05-02T18:52:53Z</time>
      </trkpt>
      <trkpt lat="42.7995190" lon="-89.6686260">
        <ele>338.5200000</ele>
        <time>2009-05-02T18:52:54Z</time>
      </trkpt>
      <trkpt lat="42.7994400" lon="-89.6684200">
        <ele>339.0000000</ele>
        <time>2009-05-02T18:52:55Z</time>
      </trkpt>
      <trkpt lat="42.7993490" lon="-89.6682260">
        <ele>339.0000000</ele>
        <time>2009-05-02T18:52:56Z</time>
      </trkpt>
      <trkpt lat="42.7992530" lon="-89.6680290">
        <ele>338.5200000</ele>
        <time>2009-05-02T18:52:57Z</time>
      </trkpt>
      <trkpt lat="42.7972080" lon="-89.6640300">
        <ele>335.1600000</ele>
        <time>2009-05-02T18:53:17Z</time>
      </trkpt>
      <trkpt lat="42.7959140" lon="-89.6617390">
        <ele>333.7100000</ele>
        <time>2009-05-02T18:53:29Z</time>
      </trkpt>
      <trkpt lat="42.7952680" lon="-89.6596390">
        <ele>333.7100000</ele>
        <time>2009-05-02T18:53:38Z</time>
      </trkpt>
      <trkpt lat="42.7952150" lon="-89.6586180">
        <ele>331.3100000</ele>
        <time>2009-05-02T18:53:42Z</time>
      </trkpt>
      <trkpt lat="42.7952410" lon="-89.6583590">
        <ele>330.8300000</ele>
        <time>2009-05-02T18:53:43Z</time>
      </trkpt>
      <trkpt lat="42.7952680" lon="-89.6580940">
        <ele>329.8700000</ele>
        <time>2009-05-02T18:53:44Z</time>
      </trkpt>
      <trkpt lat="42.7953240" lon="-89.6578540">
        <ele>329.3900000</ele>
        <time>2009-05-02T18:53:45Z</time>
      </trkpt>
      <trkpt lat="42.7953830" lon="-89.6576030">
        <ele>328.9100000</ele>
        <time>2009-05-02T18:53:46Z</time>
      </trkpt>
      <trkpt lat="42.7959480" lon="-89.6549120">
        <ele>322.6600000</ele>
        <time>2009-05-02T18:53:57Z</time>
      </trkpt>
      <trkpt lat="42.7959320" lon="-89.6546640">
        <ele>321.2200000</ele>
        <time>2009-05-02T18:53:58Z</time>
      </trkpt>
      <trkpt lat="42.7959150" lon="-89.6544090">
        <ele>319.3000000</ele>
        <time>2009-05-02T18:53:59Z</time>
      </trkpt>
      <trkpt lat="42.7958510" lon="-89.6541770">
        <ele>317.8500000</ele>
        <time>2009-05-02T18:54:00Z</time>
      </trkpt>
      <trkpt lat="42.7957720" lon="-89.6539370">
        <ele>315.9300000</ele>
        <time>2009-05-02T18:54:01Z</time>
      </trkpt>
      <trkpt lat="42.7946820" lon="-89.6504320">
        <ele>295.2600000</ele>
        <time>2009-05-02T18:54:15Z</time>
      </trkpt>
      <trkpt lat="42.7946710" lon="-89.6501730">
        <ele>293.3400000</ele>
        <time>2009-05-02T18:54:16Z</time>
      </trkpt>
      <trkpt lat="42.7946820" lon="-89.6499040">
        <ele>292.3800000</ele>
        <time>2009-05-02T18:54:17Z</time>
      </trkpt>
      <trkpt lat="42.7948070" lon="-89.6468190">
        <ele>283.7300000</ele>
        <time>2009-05-02T18:54:29Z</time>
      </trkpt>
      <trkpt lat="42.7951530" lon="-89.6439110">
        <ele>275.5600000</ele>
        <time>2009-05-02T18:54:41Z</time>
      </trkpt>
      <trkpt lat="42.7959240" lon="-89.6417900">
        <ele>274.5900000</ele>
        <time>2009-05-02T18:54:50Z</time>
      </trkpt>
      <trkpt lat="42.7966770" lon="-89.6393630">
        <ele>273.6300000</ele>
        <time>2009-05-02T18:55:00Z</time>
      </trkpt>
      <trkpt lat="42.7968100" lon="-89.6391530">
        <ele>273.6300000</ele>
        <time>2009-05-02T18:55:01Z</time>
      </trkpt>
      <trkpt lat="42.7979120" lon="-89.6373120">
        <ele>270.2700000</ele>
        <time>2009-05-02T18:55:10Z</time>
      </trkpt>
      <trkpt lat="42.7983190" lon="-89.6365470">
        <ele>269.3100000</ele>
        <time>2009-05-02T18:55:14Z</time>
      </trkpt>
      <trkpt lat="42.7984530" lon="-89.6364120">
        <ele>269.3100000</ele>
        <time>2009-05-02T18:55:15Z</time>
      </trkpt>
      <trkpt lat="42.7985880" lon="-89.6362780">
        <ele>269.3100000</ele>
        <time>2009-05-02T18:55:16Z</time>
      </trkpt>
      <trkpt lat="42.7992840" lon="-89.6355040">
        <ele>267.8600000</ele>
        <time>2009-05-02T18:55:23Z</time>
      </trkpt>
      <trkpt lat="42.7996710" lon="-89.6347820">
        <ele>265.9400000</ele>
        <time>2009-05-02T18:55:31Z</time>
      </trkpt>
      <trkpt lat="42.7997200" lon="-89.6346840">
        <ele>264.9800000</ele>
        <time>2009-05-02T18:55:38Z</time>
      </trkpt>
      <trkpt lat="42.7998530" lon="-89.6340540">
        <ele>264.0200000</ele>
        <time>2009-05-02T18:55:49Z</time>
      </trkpt>
      <trkpt lat="42.7999150" lon="-89.6336400">
        <ele>264.0200000</ele>
        <time>2009-05-02T18:56:00Z</time>
      </trkpt>
      <trkpt lat="42.7999450" lon="-89.6332540">
        <ele>264.0200000</ele>
        <time>2009-05-02T18:56:11Z</time>
      </trkpt>
      <trkpt lat="42.7999770" lon="-89.6328370">
        <ele>265.4600000</ele>
        <time>2009-05-02T18:56:19Z</time>
      </trkpt>
      <trkpt lat="42.7999880" lon="-89.6326890">
        <ele>265.4600000</ele>
        <time>2009-05-02T18:56:20Z</time>
      </trkpt>
      <trkpt lat="42.8000510" lon="-89.6326830">
        <ele>265.4600000</ele>
        <time>2009-05-02T18:56:21Z</time>
      </trkpt>
      <trkpt lat="42.8001540" lon="-89.6326730">
        <ele>265.4600000</ele>
        <time>2009-05-02T18:56:22Z</time>
      </trkpt>
      <trkpt lat="42.8002770" lon="-89.6326610">
        <ele>264.9800000</ele>
        <time>2009-05-02T18:56:23Z</time>
      </trkpt>
      <trkpt lat="42.8004070" lon="-89.6326480">
        <ele>264.5000000</ele>
        <time>2009-05-02T18:56:24Z</time>
      </trkpt>
      <trkpt lat="42.8016490" lon="-89.6325270">
        <ele>262.1000000</ele>
        <time>2009-05-02T18:56:34Z</time>
      </trkpt>
      <trkpt lat="42.8019070" lon="-89.6324880">
        <ele>260.1700000</ele>
        <time>2009-05-02T18:56:41Z</time>
      </trkpt>
      <trkpt lat="42.8023040" lon="-89.6324140">
        <ele>258.2500000</ele>
        <time>2009-05-02T18:56:53Z</time>
      </trkpt>
      <trkpt lat="42.8031620" lon="-89.6322540">
        <ele>257.7700000</ele>
        <time>2009-05-02T18:57:00Z</time>
      </trkpt>
      <trkpt lat="42.8054780" lon="-89.6318230">
        <ele>256.8100000</ele>
        <time>2009-05-02T18:57:15Z</time>
      </trkpt>
      <trkpt lat="42.8072430" lon="-89.6315110">
        <ele>255.3700000</ele>
        <time>2009-05-02T18:57:29Z</time>
      </trkpt>
      <trkpt lat="42.8084220" lon="-89.6313780">
        <ele>254.4100000</ele>
        <time>2009-05-02T18:57:41Z</time>
      </trkpt>
      <trkpt lat="42.8100390" lon="-89.6312700">
        <ele>254.8900000</ele>
        <time>2009-05-02T18:57:57Z</time>
      </trkpt>
      <trkpt lat="42.8117380" lon="-89.6312910">
        <ele>255.3700000</ele>
        <time>2009-05-02T18:58:12Z</time>
      </trkpt>
      <trkpt lat="42.8135920" lon="-89.6314450">
        <ele>256.8100000</ele>
        <time>2009-05-02T18:58:29Z</time>
      </trkpt>
      <trkpt lat="42.8141910" lon="-89.6314990">
        <ele>257.2900000</ele>
        <time>2009-05-02T18:58:38Z</time>
      </trkpt>
      <trkpt lat="42.8142870" lon="-89.6315070">
        <ele>257.2900000</ele>
        <time>2009-05-02T18:58:56Z</time>
      </trkpt>
      <trkpt lat="42.8144430" lon="-89.6315210">
        <ele>257.7700000</ele>
        <time>2009-05-02T18:59:16Z</time>
      </trkpt>
      <trkpt lat="42.8145370" lon="-89.6316640">
        <ele>258.2500000</ele>
        <time>2009-05-02T18:59:17Z</time>
      </trkpt>
      <trkpt lat="42.8145370" lon="-89.6317710">
        <ele>258.2500000</ele>
        <time>2009-05-02T18:59:18Z</time>
      </trkpt>
      <trkpt lat="42.8145370" lon="-89.6318680">
        <ele>258.2500000</ele>
        <time>2009-05-02T18:59:19Z</time>
      </trkpt>
      <trkpt lat="42.8145370" lon="-89.6319830">
        <ele>258.2500000</ele>
        <time>2009-05-02T18:59:20Z</time>
      </trkpt>
      <trkpt lat="42.8145370" lon="-89.6321050">
        <ele>258.7300000</ele>
        <time>2009-05-02T18:59:21Z</time>
      </trkpt>
      <trkpt lat="42.8145370" lon="-89.6322190">
        <ele>258.7300000</ele>
        <time>2009-05-02T18:59:22Z</time>
      </trkpt>
      <trkpt lat="42.8145370" lon="-89.6324900">
        <ele>259.6900000</ele>
        <time>2009-05-02T18:59:28Z</time>
      </trkpt>
      <trkpt lat="42.8145370" lon="-89.6328680">
        <ele>261.6200000</ele>
        <time>2009-05-02T18:59:37Z</time>
      </trkpt>
      <trkpt lat="42.8145370" lon="-89.6338390">
        <ele>266.9000000</ele>
        <time>2009-05-02T18:59:46Z</time>
      </trkpt>
      <trkpt lat="42.8145370" lon="-89.6351350">
        <ele>271.2300000</ele>
        <time>2009-05-02T19:00:00Z</time>
      </trkpt>
      <trkpt lat="42.8145360" lon="-89.6351520">
        <ele>271.7100000</ele>
        <time>2009-05-02T19:00:01Z</time>
      </trkpt>
      <trkpt lat="42.8145370" lon="-89.6351350">
        <ele>272.1900000</ele>
        <time>2009-05-02T19:00:02Z</time>
      </trkpt>
      <trkpt lat="42.8146650" lon="-89.6351350">
        <ele>272.1900000</ele>
        <time>2009-05-02T19:00:03Z</time>
      </trkpt>
      <trkpt lat="42.8147320" lon="-89.6351350">
        <ele>271.7100000</ele>
        <time>2009-05-02T19:00:04Z</time>
      </trkpt>
      <trkpt lat="42.8153170" lon="-89.6351350">
        <ele>268.3500000</ele>
        <time>2009-05-02T19:00:14Z</time>
      </trkpt>
      <trkpt lat="42.8156080" lon="-89.6351350">
        <ele>267.3800000</ele>
        <time>2009-05-02T19:00:22Z</time>
      </trkpt>
      <trkpt lat="42.8165170" lon="-89.6351480">
        <ele>264.5000000</ele>
        <time>2009-05-02T19:00:35Z</time>
      </trkpt>
      <trkpt lat="42.8166910" lon="-89.6351580">
        <ele>264.0200000</ele>
        <time>2009-05-02T19:00:38Z</time>
      </trkpt>
      <trkpt lat="42.8170740" lon="-89.6351780">
        <ele>263.0600000</ele>
        <time>2009-05-02T19:00:49Z</time>
      </trkpt>
      <trkpt lat="42.8170740" lon="-89.6351780">
        <ele>260.6500000</ele>
        <time>2009-05-02T19:01:11Z</time>
      </trkpt>
      <trkpt lat="42.8173840" lon="-89.6351780">
        <ele>262.5800000</ele>
        <time>2009-05-02T19:01:17Z</time>
      </trkpt>
      <trkpt lat="42.8176350" lon="-89.6351780">
        <ele>263.0600000</ele>
        <time>2009-05-02T19:01:20Z</time>
      </trkpt>
      <trkpt lat="42.8187690" lon="-89.6352090">
        <ele>264.9800000</ele>
        <time>2009-05-02T19:01:31Z</time>
      </trkpt>
      <trkpt lat="42.8189880" lon="-89.6352200">
        <ele>265.4600000</ele>
        <time>2009-05-02T19:01:33Z</time>
      </trkpt>
      <trkpt lat="42.8190950" lon="-89.6352620">
        <ele>265.9400000</ele>
        <time>2009-05-02T19:01:34Z</time>
      </trkpt>
      <trkpt lat="42.8191990" lon="-89.6353060">
        <ele>265.9400000</ele>
        <time>2009-05-02T19:01:35Z</time>
      </trkpt>
      <trkpt lat="42.8193160" lon="-89.6353640">
        <ele>266.4200000</ele>
        <time>2009-05-02T19:01:36Z</time>
      </trkpt>
      <trkpt lat="42.8194120" lon="-89.6354520">
        <ele>266.9000000</ele>
        <time>2009-05-02T19:01:37Z</time>
      </trkpt>
      <trkpt lat="42.8208720" lon="-89.6369370">
        <ele>266.9000000</ele>
        <time>2009-05-02T19:01:52Z</time>
      </trkpt>
      <trkpt lat="42.8222750" lon="-89.6380420">
        <ele>266.4200000</ele>
        <time>2009-05-02T19:02:05Z</time>
      </trkpt>
      <trkpt lat="42.8240990" lon="-89.6393130">
        <ele>265.4600000</ele>
        <time>2009-05-02T19:02:20Z</time>
      </trkpt>
      <trkpt lat="42.8258170" lon="-89.6403080">
        <ele>264.9800000</ele>
        <time>2009-05-02T19:02:32Z</time>
      </trkpt>
      <trkpt lat="42.8266780" lon="-89.6407740">
        <ele>264.9800000</ele>
        <time>2009-05-02T19:02:37Z</time>
      </trkpt>
      <trkpt lat="42.8268680" lon="-89.6407760">
        <ele>264.9800000</ele>
        <time>2009-05-02T19:02:38Z</time>
      </trkpt>
      <trkpt lat="42.8270580" lon="-89.6407440">
        <ele>264.5000000</ele>
        <time>2009-05-02T19:02:39Z</time>
      </trkpt>
      <trkpt lat="42.8272520" lon="-89.6407090">
        <ele>264.5000000</ele>
        <time>2009-05-02T19:02:40Z</time>
      </trkpt>
      <trkpt lat="42.8274410" lon="-89.6406240">
        <ele>264.5000000</ele>
        <time>2009-05-02T19:02:41Z</time>
      </trkpt>
      <trkpt lat="42.8276370" lon="-89.6405390">
        <ele>264.9800000</ele>
        <time>2009-05-02T19:02:42Z</time>
      </trkpt>
      <trkpt lat="42.8282880" lon="-89.6404130">
        <ele>265.9400000</ele>
        <time>2009-05-02T19:02:45Z</time>
      </trkpt>
      <trkpt lat="42.8284950" lon="-89.6404130">
        <ele>265.9400000</ele>
        <time>2009-05-02T19:02:46Z</time>
      </trkpt>
      <trkpt lat="42.8287000" lon="-89.6404330">
        <ele>265.4600000</ele>
        <time>2009-05-02T19:02:47Z</time>
      </trkpt>
      <trkpt lat="42.8289050" lon="-89.6404780">
        <ele>264.9800000</ele>
        <time>2009-05-02T19:02:48Z</time>
      </trkpt>
      <trkpt lat="42.8290980" lon="-89.6405490">
        <ele>264.5000000</ele>
        <time>2009-05-02T19:02:49Z</time>
      </trkpt>
      <trkpt lat="42.8292900" lon="-89.6406450">
        <ele>264.5000000</ele>
        <time>2009-05-02T19:02:50Z</time>
      </trkpt>
      <trkpt lat="42.8294790" lon="-89.6407390">
        <ele>264.0200000</ele>
        <time>2009-05-02T19:02:51Z</time>
      </trkpt>
      <trkpt lat="42.8309370" lon="-89.6415790">
        <ele>264.0200000</ele>
        <time>2009-05-02T19:02:59Z</time>
      </trkpt>
      <trkpt lat="42.8310810" lon="-89.6417520">
        <ele>264.0200000</ele>
        <time>2009-05-02T19:03:00Z</time>
      </trkpt>
      <trkpt lat="42.8312160" lon="-89.6419470">
        <ele>264.0200000</ele>
        <time>2009-05-02T19:03:01Z</time>
      </trkpt>
      <trkpt lat="42.8313510" lon="-89.6421420">
        <ele>264.0200000</ele>
        <time>2009-05-02T19:03:02Z</time>
      </trkpt>
      <trkpt lat="42.8314630" lon="-89.6423610">
        <ele>264.5000000</ele>
        <time>2009-05-02T19:03:03Z</time>
      </trkpt>
      <trkpt lat="42.8318480" lon="-89.6435780">
        <ele>264.0200000</ele>
        <time>2009-05-02T19:03:08Z</time>
      </trkpt>
      <trkpt lat="42.8323240" lon="-89.6456890">
        <ele>265.4600000</ele>
        <time>2009-05-02T19:03:17Z</time>
      </trkpt>
      <trkpt lat="42.8326470" lon="-89.6467270">
        <ele>268.3500000</ele>
        <time>2009-05-02T19:03:22Z</time>
      </trkpt>
      <trkpt lat="42.8326470" lon="-89.6469510">
        <ele>268.8300000</ele>
        <time>2009-05-02T19:03:23Z</time>
      </trkpt>
      <trkpt lat="42.8326470" lon="-89.6471760">
        <ele>268.8300000</ele>
        <time>2009-05-02T19:03:24Z</time>
      </trkpt>
      <trkpt lat="42.8326470" lon="-89.6474080">
        <ele>269.3100000</ele>
        <time>2009-05-02T19:03:25Z</time>
      </trkpt>
      <trkpt lat="42.8326470" lon="-89.6476450">
        <ele>270.2700000</ele>
        <time>2009-05-02T19:03:26Z</time>
      </trkpt>
      <trkpt lat="42.8327100" lon="-89.6497300">
        <ele>275.0700000</ele>
        <time>2009-05-02T19:03:35Z</time>
      </trkpt>
      <trkpt lat="42.8327830" lon="-89.6499360">
        <ele>274.5900000</ele>
        <time>2009-05-02T19:03:36Z</time>
      </trkpt>
      <trkpt lat="42.8328560" lon="-89.6501400">
        <ele>273.6300000</ele>
        <time>2009-05-02T19:03:37Z</time>
      </trkpt>
      <trkpt lat="42.8329610" lon="-89.6502760">
        <ele>273.1500000</ele>
        <time>2009-05-02T19:03:38Z</time>
      </trkpt>
      <trkpt lat="42.8330870" lon="-89.6504290">
        <ele>272.6700000</ele>
        <time>2009-05-02T19:03:39Z</time>
      </trkpt>
      <trkpt lat="42.8332150" lon="-89.6505850">
        <ele>272.1900000</ele>
        <time>2009-05-02T19:03:40Z</time>
      </trkpt>
      <trkpt lat="42.8333460" lon="-89.6507430">
        <ele>271.7100000</ele>
        <time>2009-05-02T19:03:41Z</time>
      </trkpt>
      <trkpt lat="42.8351730" lon="-89.6525520">
        <ele>276.0400000</ele>
        <time>2009-05-02T19:03:54Z</time>
      </trkpt>
      <trkpt lat="42.8362430" lon="-89.6531720">
        <ele>276.0400000</ele>
        <time>2009-05-02T19:04:03Z</time>
      </trkpt>
      <trkpt lat="42.8362970" lon="-89.6531930">
        <ele>275.5600000</ele>
        <time>2009-05-02T19:04:04Z</time>
      </trkpt>
      <trkpt lat="42.8363360" lon="-89.6532080">
        <ele>275.5600000</ele>
        <time>2009-05-02T19:04:05Z</time>
      </trkpt>
      <trkpt lat="42.8362030" lon="-89.6535380">
        <ele>275.5600000</ele>
        <time>2009-05-02T19:04:06Z</time>
      </trkpt>
      <trkpt lat="42.8362010" lon="-89.6536890">
        <ele>275.5600000</ele>
        <time>2009-05-02T19:04:07Z</time>
      </trkpt>
      <trkpt lat="42.8361980" lon="-89.6538490">
        <ele>275.5600000</ele>
        <time>2009-05-02T19:04:08Z</time>
      </trkpt>
      <trkpt lat="42.8361700" lon="-89.6557370">
        <ele>276.5200000</ele>
        <time>2009-05-02T19:04:18Z</time>
      </trkpt>
      <trkpt lat="42.8361670" lon="-89.6559160">
        <ele>276.5200000</ele>
        <time>2009-05-02T19:04:19Z</time>
      </trkpt>
      <trkpt lat="42.8362330" lon="-89.6560810">
        <ele>277.0000000</ele>
        <time>2009-05-02T19:04:20Z</time>
      </trkpt>
      <trkpt lat="42.8363260" lon="-89.6561950">
        <ele>277.0000000</ele>
        <time>2009-05-02T19:04:21Z</time>
      </trkpt>
      <trkpt lat="42.8364380" lon="-89.6563070">
        <ele>277.0000000</ele>
        <time>2009-05-02T19:04:22Z</time>
      </trkpt>
      <trkpt lat="42.8365560" lon="-89.6563860">
        <ele>277.0000000</ele>
        <time>2009-05-02T19:04:23Z</time>
      </trkpt>
      <trkpt lat="42.8366960" lon="-89.6564660">
        <ele>276.5200000</ele>
        <time>2009-05-02T19:04:24Z</time>
      </trkpt>
      <trkpt lat="42.8368360" lon="-89.6565460">
        <ele>276.0400000</ele>
        <time>2009-05-02T19:04:25Z</time>
      </trkpt>
      <trkpt lat="42.8369700" lon="-89.6566230">
        <ele>275.5600000</ele>
        <time>2009-05-02T19:04:26Z</time>
      </trkpt>
      <trkpt lat="42.8374960" lon="-89.6574940">
        <ele>274.5900000</ele>
        <time>2009-05-02T19:04:32Z</time>
      </trkpt>
      <trkpt lat="42.8374960" lon="-89.6577080">
        <ele>274.5900000</ele>
        <time>2009-05-02T19:04:33Z</time>
      </trkpt>
      <trkpt lat="42.8374710" lon="-89.6579090">
        <ele>275.0700000</ele>
        <time>2009-05-02T19:04:34Z</time>
      </trkpt>
      <trkpt lat="42.8374450" lon="-89.6581180">
        <ele>275.0700000</ele>
        <time>2009-05-02T19:04:35Z</time>
      </trkpt>
      <trkpt lat="42.8374160" lon="-89.6583510">
        <ele>275.0700000</ele>
        <time>2009-05-02T19:04:36Z</time>
      </trkpt>
      <trkpt lat="42.8373870" lon="-89.6585830">
        <ele>274.5900000</ele>
        <time>2009-05-02T19:04:37Z</time>
      </trkpt>
      <trkpt lat="42.8369750" lon="-89.6618320">
        <ele>272.1900000</ele>
        <time>2009-05-02T19:04:52Z</time>
      </trkpt>
      <trkpt lat="42.8369040" lon="-89.6620200">
        <ele>272.1900000</ele>
        <time>2009-05-02T19:04:53Z</time>
      </trkpt>
      <trkpt lat="42.8367980" lon="-89.6621730">
        <ele>272.6700000</ele>
        <time>2009-05-02T19:04:54Z</time>
      </trkpt>
      <trkpt lat="42.8366820" lon="-89.6623270">
        <ele>273.1500000</ele>
        <time>2009-05-02T19:04:55Z</time>
      </trkpt>
      <trkpt lat="42.8365650" lon="-89.6624830">
        <ele>273.1500000</ele>
        <time>2009-05-02T19:04:56Z</time>
      </trkpt>
      <trkpt lat="42.8364490" lon="-89.6626380">
        <ele>272.6700000</ele>
        <time>2009-05-02T19:04:57Z</time>
      </trkpt>
      <trkpt lat="42.8363430" lon="-89.6627980">
        <ele>271.7100000</ele>
        <time>2009-05-02T19:04:58Z</time>
      </trkpt>
      <trkpt lat="42.8362530" lon="-89.6629640">
        <ele>271.2300000</ele>
        <time>2009-05-02T19:04:59Z</time>
      </trkpt>
      <trkpt lat="42.8361550" lon="-89.6631440">
        <ele>269.7900000</ele>
        <time>2009-05-02T19:05:00Z</time>
      </trkpt>
      <trkpt lat="42.8361080" lon="-89.6633250">
        <ele>268.8300000</ele>
        <time>2009-05-02T19:05:01Z</time>
      </trkpt>
      <trkpt lat="42.8360800" lon="-89.6635470">
        <ele>269.3100000</ele>
        <time>2009-05-02T19:05:02Z</time>
      </trkpt>
      <trkpt lat="42.8360800" lon="-89.6637840">
        <ele>270.2700000</ele>
        <time>2009-05-02T19:05:03Z</time>
      </trkpt>
      <trkpt lat="42.8360800" lon="-89.6640100">
        <ele>270.2700000</ele>
        <time>2009-05-02T19:05:04Z</time>
      </trkpt>
      <trkpt lat="42.8360910" lon="-89.6651130">
        <ele>274.1100000</ele>
        <time>2009-05-02T19:05:09Z</time>
      </trkpt>
      <trkpt lat="42.8361710" lon="-89.6652860">
        <ele>274.5900000</ele>
        <time>2009-05-02T19:05:10Z</time>
      </trkpt>
      <trkpt lat="42.8362570" lon="-89.6654710">
        <ele>275.0700000</ele>
        <time>2009-05-02T19:05:11Z</time>
      </trkpt>
      <trkpt lat="42.8363410" lon="-89.6656510">
        <ele>274.5900000</ele>
        <time>2009-05-02T19:05:12Z</time>
      </trkpt>
      <trkpt lat="42.8364370" lon="-89.6658590">
        <ele>275.5600000</ele>
        <time>2009-05-02T19:05:13Z</time>
      </trkpt>
      <trkpt lat="42.8372510" lon="-89.6675150">
        <ele>274.1100000</ele>
        <time>2009-05-02T19:05:21Z</time>
      </trkpt>
      <trkpt lat="42.8383370" lon="-89.6704670">
        <ele>279.8800000</ele>
        <time>2009-05-02T19:05:35Z</time>
      </trkpt>
      <trkpt lat="42.8388700" lon="-89.6723850">
        <ele>283.2500000</ele>
        <time>2009-05-02T19:05:45Z</time>
      </trkpt>
      <trkpt lat="42.8388700" lon="-89.6725850">
        <ele>283.2500000</ele>
        <time>2009-05-02T19:05:46Z</time>
      </trkpt>
      <trkpt lat="42.8388700" lon="-89.6746400">
        <ele>284.2100000</ele>
        <time>2009-05-02T19:05:55Z</time>
      </trkpt>
      <trkpt lat="42.8388810" lon="-89.6750660">
        <ele>284.2100000</ele>
        <time>2009-05-02T19:05:57Z</time>
      </trkpt>
      <trkpt lat="42.8389210" lon="-89.6752750">
        <ele>284.6900000</ele>
        <time>2009-05-02T19:05:58Z</time>
      </trkpt>
      <trkpt lat="42.8389660" lon="-89.6755190">
        <ele>285.6500000</ele>
        <time>2009-05-02T19:05:59Z</time>
      </trkpt>
      <trkpt lat="42.8393850" lon="-89.6780260">
        <ele>287.5700000</ele>
        <time>2009-05-02T19:06:10Z</time>
      </trkpt>
      <trkpt lat="42.8395690" lon="-89.6801230">
        <ele>291.9000000</ele>
        <time>2009-05-02T19:06:20Z</time>
      </trkpt>
      <trkpt lat="42.8396350" lon="-89.6826370">
        <ele>299.1100000</ele>
        <time>2009-05-02T19:06:33Z</time>
      </trkpt>
      <trkpt lat="42.8396730" lon="-89.6828120">
        <ele>299.5900000</ele>
        <time>2009-05-02T19:06:34Z</time>
      </trkpt>
      <trkpt lat="42.8397380" lon="-89.6829910">
        <ele>300.0700000</ele>
        <time>2009-05-02T19:06:35Z</time>
      </trkpt>
      <trkpt lat="42.8398030" lon="-89.6831700">
        <ele>300.5500000</ele>
        <time>2009-05-02T19:06:36Z</time>
      </trkpt>
      <trkpt lat="42.8398660" lon="-89.6833430">
        <ele>300.5500000</ele>
        <time>2009-05-02T19:06:37Z</time>
      </trkpt>
      <trkpt lat="42.8399290" lon="-89.6835170">
        <ele>300.0700000</ele>
        <time>2009-05-02T19:06:38Z</time>
      </trkpt>
      <trkpt lat="42.8404670" lon="-89.6856310">
        <ele>299.5900000</ele>
        <time>2009-05-02T19:06:49Z</time>
      </trkpt>
      <trkpt lat="42.8407050" lon="-89.6871300">
        <ele>307.2800000</ele>
        <time>2009-05-02T19:06:57Z</time>
      </trkpt>
      <trkpt lat="42.8406430" lon="-89.6872770">
        <ele>307.7600000</ele>
        <time>2009-05-02T19:06:58Z</time>
      </trkpt>
      <trkpt lat="42.8405930" lon="-89.6873990">
        <ele>308.7200000</ele>
        <time>2009-05-02T19:06:59Z</time>
      </trkpt>
      <trkpt lat="42.8405330" lon="-89.6875410">
        <ele>309.6800000</ele>
        <time>2009-05-02T19:07:00Z</time>
      </trkpt>
      <trkpt lat="42.8404690" lon="-89.6876860">
        <ele>310.6400000</ele>
        <time>2009-05-02T19:07:01Z</time>
      </trkpt>
      <trkpt lat="42.8398350" lon="-89.6892790">
        <ele>319.3000000</ele>
        <time>2009-05-02T19:07:11Z</time>
      </trkpt>
      <trkpt lat="42.8398150" lon="-89.6894490">
        <ele>319.3000000</ele>
        <time>2009-05-02T19:07:12Z</time>
      </trkpt>
      <trkpt lat="42.8398180" lon="-89.6896410">
        <ele>320.2600000</ele>
        <time>2009-05-02T19:07:13Z</time>
      </trkpt>
      <trkpt lat="42.8398210" lon="-89.6898510">
        <ele>321.2200000</ele>
        <time>2009-05-02T19:07:14Z</time>
      </trkpt>
      <trkpt lat="42.8398240" lon="-89.6900560">
        <ele>323.1400000</ele>
        <time>2009-05-02T19:07:15Z</time>
      </trkpt>
      <trkpt lat="42.8398620" lon="-89.6927170">
        <ele>335.6400000</ele>
        <time>2009-05-02T19:07:28Z</time>
      </trkpt>
      <trkpt lat="42.8399050" lon="-89.6956980">
        <ele>344.2900000</ele>
        <time>2009-05-02T19:07:40Z</time>
      </trkpt>
      <trkpt lat="42.8399540" lon="-89.6990970">
        <ele>345.2500000</ele>
        <time>2009-05-02T19:07:53Z</time>
      </trkpt>
      <trkpt lat="42.8399780" lon="-89.7016800">
        <ele>352.4600000</ele>
        <time>2009-05-02T19:08:04Z</time>
      </trkpt>
      <trkpt lat="42.8399220" lon="-89.7046430">
        <ele>353.9000000</ele>
        <time>2009-05-02T19:08:16Z</time>
      </trkpt>
      <trkpt lat="42.8398850" lon="-89.7068280">
        <ele>354.8600000</ele>
        <time>2009-05-02T19:08:24Z</time>
      </trkpt>
      <trkpt lat="42.8399520" lon="-89.7090390">
        <ele>352.4600000</ele>
        <time>2009-05-02T19:08:34Z</time>
      </trkpt>
      <trkpt lat="42.8401300" lon="-89.7094260">
        <ele>350.5400000</ele>
        <time>2009-05-02T19:08:36Z</time>
      </trkpt>
      <trkpt lat="42.8402380" lon="-89.7096150">
        <ele>349.5800000</ele>
        <time>2009-05-02T19:08:37Z</time>
      </trkpt>
      <trkpt lat="42.8403460" lon="-89.7098030">
        <ele>348.6200000</ele>
        <time>2009-05-02T19:08:38Z</time>
      </trkpt>
      <trkpt lat="42.8404520" lon="-89.7099880">
        <ele>346.6900000</ele>
        <time>2009-05-02T19:08:39Z</time>
      </trkpt>
      <trkpt lat="42.8405610" lon="-89.7101760">
        <ele>344.7700000</ele>
        <time>2009-05-02T19:08:40Z</time>
      </trkpt>
      <trkpt lat="42.8415430" lon="-89.7116790">
        <ele>332.7500000</ele>
        <time>2009-05-02T19:08:49Z</time>
      </trkpt>
      <trkpt lat="42.8430220" lon="-89.7130700">
        <ele>322.6600000</ele>
        <time>2009-05-02T19:09:00Z</time>
      </trkpt>
      <trkpt lat="42.8432590" lon="-89.7134990">
        <ele>321.2200000</ele>
        <time>2009-05-02T19:09:03Z</time>
      </trkpt>
      <trkpt lat="42.8432830" lon="-89.7136640">
        <ele>321.7000000</ele>
        <time>2009-05-02T19:09:04Z</time>
      </trkpt>
      <trkpt lat="42.8432900" lon="-89.7137130">
        <ele>321.7000000</ele>
        <time>2009-05-02T19:09:05Z</time>
      </trkpt>
      <trkpt lat="42.8432840" lon="-89.7139750">
        <ele>321.7000000</ele>
        <time>2009-05-02T19:09:06Z</time>
      </trkpt>
      <trkpt lat="42.8432790" lon="-89.7141640">
        <ele>322.1800000</ele>
        <time>2009-05-02T19:09:07Z</time>
      </trkpt>
      <trkpt lat="42.8432750" lon="-89.7143380">
        <ele>322.6600000</ele>
        <time>2009-05-02T19:09:08Z</time>
      </trkpt>
      <trkpt lat="42.8432280" lon="-89.7163710">
        <ele>336.1200000</ele>
        <time>2009-05-02T19:09:19Z</time>
      </trkpt>
      <trkpt lat="42.8431690" lon="-89.7189130">
        <ele>347.6500000</ele>
        <time>2009-05-02T19:09:31Z</time>
      </trkpt>
      <trkpt lat="42.8430790" lon="-89.7228220">
        <ele>351.0200000</ele>
        <time>2009-05-02T19:09:48Z</time>
      </trkpt>
      <trkpt lat="42.8430390" lon="-89.7245460">
        <ele>353.4200000</ele>
        <time>2009-05-02T19:09:57Z</time>
      </trkpt>
      <trkpt lat="42.8430120" lon="-89.7248280">
        <ele>353.4200000</ele>
        <time>2009-05-02T19:10:03Z</time>
      </trkpt>
      <trkpt lat="42.8429520" lon="-89.7248280">
        <ele>352.9400000</ele>
        <time>2009-05-02T19:10:04Z</time>
      </trkpt>
      <trkpt lat="42.8428720" lon="-89.7248280">
        <ele>352.9400000</ele>
        <time>2009-05-02T19:10:05Z</time>
      </trkpt>
      <trkpt lat="42.8427800" lon="-89.7248280">
        <ele>352.9400000</ele>
        <time>2009-05-02T19:10:06Z</time>
      </trkpt>
      <trkpt lat="42.8426750" lon="-89.7248280">
        <ele>352.4600000</ele>
        <time>2009-05-02T19:10:07Z</time>
      </trkpt>
      <trkpt lat="42.8416260" lon="-89.7248590">
        <ele>353.9000000</ele>
        <time>2009-05-02T19:10:14Z</time>
      </trkpt>
      <trkpt lat="42.8409260" lon="-89.7249720">
        <ele>354.3800000</ele>
        <time>2009-05-02T19:10:18Z</time>
      </trkpt>
      <trkpt lat="42.8407680" lon="-89.7250760">
        <ele>354.3800000</ele>
        <time>2009-05-02T19:10:19Z</time>
      </trkpt>
      <trkpt lat="42.8406130" lon="-89.7252300">
        <ele>354.3800000</ele>
        <time>2009-05-02T19:10:20Z</time>
      </trkpt>
      <trkpt lat="42.8404620" lon="-89.7253810">
        <ele>354.3800000</ele>
        <time>2009-05-02T19:10:21Z</time>
      </trkpt>
      <trkpt lat="42.8403330" lon="-89.7255400">
        <ele>353.9000000</ele>
        <time>2009-05-02T19:10:22Z</time>
      </trkpt>
      <trkpt lat="42.8402250" lon="-89.7257340">
        <ele>353.9000000</ele>
        <time>2009-05-02T19:10:23Z</time>
      </trkpt>
      <trkpt lat="42.8401170" lon="-89.7259270">
        <ele>353.4200000</ele>
        <time>2009-05-02T19:10:24Z</time>
      </trkpt>
      <trkpt lat="42.8391680" lon="-89.7275650">
        <ele>354.8600000</ele>
        <time>2009-05-02T19:10:34Z</time>
      </trkpt>
      <trkpt lat="42.8387680" lon="-89.7281360">
        <ele>355.8300000</ele>
        <time>2009-05-02T19:10:41Z</time>
      </trkpt>
      <trkpt lat="42.8384350" lon="-89.7284730">
        <ele>356.7900000</ele>
        <time>2009-05-02T19:10:48Z</time>
      </trkpt>
      <trkpt lat="42.8375040" lon="-89.7293800">
        <ele>355.3400000</ele>
        <time>2009-05-02T19:10:56Z</time>
      </trkpt>
      <trkpt lat="42.8349400" lon="-89.7318990">
        <ele>353.4200000</ele>
        <time>2009-05-02T19:11:15Z</time>
      </trkpt>
      <trkpt lat="42.8322240" lon="-89.7345720">
        <ele>350.5400000</ele>
        <time>2009-05-02T19:11:34Z</time>
      </trkpt>
      <trkpt lat="42.8320540" lon="-89.7346430">
        <ele>350.5400000</ele>
        <time>2009-05-02T19:11:35Z</time>
      </trkpt>
      <trkpt lat="42.8318720" lon="-89.7346880">
        <ele>350.5400000</ele>
        <time>2009-05-02T19:11:36Z</time>
      </trkpt>
      <trkpt lat="42.8316870" lon="-89.7347350">
        <ele>350.5400000</ele>
        <time>2009-05-02T19:11:37Z</time>
      </trkpt>
      <trkpt lat="42.8315010" lon="-89.7347810">
        <ele>350.5400000</ele>
        <time>2009-05-02T19:11:38Z</time>
      </trkpt>
      <trkpt lat="42.8313200" lon="-89.7347820">
        <ele>350.0600000</ele>
        <time>2009-05-02T19:11:39Z</time>
      </trkpt>
      <trkpt lat="42.8311320" lon="-89.7347810">
        <ele>350.0600000</ele>
        <time>2009-05-02T19:11:40Z</time>
      </trkpt>
      <trkpt lat="42.8283280" lon="-89.7347530">
        <ele>348.1300000</ele>
        <time>2009-05-02T19:11:54Z</time>
      </trkpt>
      <trkpt lat="42.8243990" lon="-89.7347150">
        <ele>346.6900000</ele>
        <time>2009-05-02T19:12:13Z</time>
      </trkpt>
      <trkpt lat="42.8215040" lon="-89.7346930">
        <ele>344.2900000</ele>
        <time>2009-05-02T19:12:27Z</time>
      </trkpt>
      <trkpt lat="42.8167680" lon="-89.7346690">
        <ele>345.2500000</ele>
        <time>2009-05-02T19:12:50Z</time>
      </trkpt>
      <trkpt lat="42.8118570" lon="-89.7347160">
        <ele>344.2900000</ele>
        <time>2009-05-02T19:13:13Z</time>
      </trkpt>
      <trkpt lat="42.8067840" lon="-89.7348350">
        <ele>345.2500000</ele>
        <time>2009-05-02T19:13:36Z</time>
      </trkpt>
      <trkpt lat="42.8021540" lon="-89.7348670">
        <ele>332.7500000</ele>
        <time>2009-05-02T19:13:57Z</time>
      </trkpt>
      <trkpt lat="42.7990880" lon="-89.7345250">
        <ele>333.7100000</ele>
        <time>2009-05-02T19:14:11Z</time>
      </trkpt>
      <trkpt lat="42.7975200" lon="-89.7334870">
        <ele>335.6400000</ele>
        <time>2009-05-02T19:14:19Z</time>
      </trkpt>
      <trkpt lat="42.7941890" lon="-89.7305690">
        <ele>327.4700000</ele>
        <time>2009-05-02T19:14:37Z</time>
      </trkpt>
      <trkpt lat="42.7931040" lon="-89.7287080">
        <ele>329.8700000</ele>
        <time>2009-05-02T19:14:45Z</time>
      </trkpt>
      <trkpt lat="42.7923540" lon="-89.7276380">
        <ele>330.3500000</ele>
        <time>2009-05-02T19:14:50Z</time>
      </trkpt>
      <trkpt lat="42.7921350" lon="-89.7274460">
        <ele>330.3500000</ele>
        <time>2009-05-02T19:14:51Z</time>
      </trkpt>
      <trkpt lat="42.7919780" lon="-89.7273740">
        <ele>330.3500000</ele>
        <time>2009-05-02T19:14:52Z</time>
      </trkpt>
      <trkpt lat="42.7917680" lon="-89.7272770">
        <ele>329.8700000</ele>
        <time>2009-05-02T19:14:53Z</time>
      </trkpt>
      <trkpt lat="42.7915580" lon="-89.7271810">
        <ele>329.8700000</ele>
        <time>2009-05-02T19:14:54Z</time>
      </trkpt>
      <trkpt lat="42.7913480" lon="-89.7270840">
        <ele>329.8700000</ele>
        <time>2009-05-02T19:14:55Z</time>
      </trkpt>
      <trkpt lat="42.7863210" lon="-89.7247770">
        <ele>329.8700000</ele>
        <time>2009-05-02T19:15:19Z</time>
      </trkpt>
      <trkpt lat="42.7848320" lon="-89.7242080">
        <ele>330.3500000</ele>
        <time>2009-05-02T19:15:26Z</time>
      </trkpt>
      <trkpt lat="42.7846130" lon="-89.7242050">
        <ele>330.3500000</ele>
        <time>2009-05-02T19:15:27Z</time>
      </trkpt>
      <trkpt lat="42.7843900" lon="-89.7242880">
        <ele>330.3500000</ele>
        <time>2009-05-02T19:15:28Z</time>
      </trkpt>
      <trkpt lat="42.7841890" lon="-89.7244190">
        <ele>329.8700000</ele>
        <time>2009-05-02T19:15:29Z</time>
      </trkpt>
      <trkpt lat="42.7839960" lon="-89.7245700">
        <ele>330.3500000</ele>
        <time>2009-05-02T19:15:30Z</time>
      </trkpt>
      <trkpt lat="42.7838050" lon="-89.7247190">
        <ele>330.8300000</ele>
        <time>2009-05-02T19:15:31Z</time>
      </trkpt>
      <trkpt lat="42.7836140" lon="-89.7248690">
        <ele>331.7900000</ele>
        <time>2009-05-02T19:15:32Z</time>
      </trkpt>
      <trkpt lat="42.7825670" lon="-89.7253210">
        <ele>330.8300000</ele>
        <time>2009-05-02T19:15:37Z</time>
      </trkpt>
      <trkpt lat="42.7803610" lon="-89.7254330">
        <ele>325.0600000</ele>
        <time>2009-05-02T19:15:47Z</time>
      </trkpt>
      <trkpt lat="42.7757350" lon="-89.7255690">
        <ele>326.0200000</ele>
        <time>2009-05-02T19:16:08Z</time>
      </trkpt>
      <trkpt lat="42.7717610" lon="-89.7256000">
        <ele>324.1000000</ele>
        <time>2009-05-02T19:16:26Z</time>
      </trkpt>
      <trkpt lat="42.7673470" lon="-89.7256000">
        <ele>329.8700000</ele>
        <time>2009-05-02T19:16:46Z</time>
      </trkpt>
      <trkpt lat="42.7658800" lon="-89.7250750">
        <ele>332.2700000</ele>
        <time>2009-05-02T19:16:53Z</time>
      </trkpt>
      <trkpt lat="42.7630460" lon="-89.7237340">
        <ele>339.4800000</ele>
        <time>2009-05-02T19:17:07Z</time>
      </trkpt>
      <trkpt lat="42.7613500" lon="-89.7234320">
        <ele>345.2500000</ele>
        <time>2009-05-02T19:17:15Z</time>
      </trkpt>
      <trkpt lat="42.7611380" lon="-89.7233640">
        <ele>344.2900000</ele>
        <time>2009-05-02T19:17:16Z</time>
      </trkpt>
      <trkpt lat="42.7609330" lon="-89.7232640">
        <ele>344.2900000</ele>
        <time>2009-05-02T19:17:17Z</time>
      </trkpt>
      <trkpt lat="42.7589360" lon="-89.7223620">
        <ele>348.1300000</ele>
        <time>2009-05-02T19:17:27Z</time>
      </trkpt>
      <trkpt lat="42.7570090" lon="-89.7221320">
        <ele>344.2900000</ele>
        <time>2009-05-02T19:17:36Z</time>
      </trkpt>
      <trkpt lat="42.7544780" lon="-89.7218160">
        <ele>343.8100000</ele>
        <time>2009-05-02T19:17:48Z</time>
      </trkpt>
      <trkpt lat="42.7520570" lon="-89.7215130">
        <ele>345.2500000</ele>
        <time>2009-05-02T19:18:00Z</time>
      </trkpt>
      <trkpt lat="42.7505830" lon="-89.7211990">
        <ele>345.7300000</ele>
        <time>2009-05-02T19:18:08Z</time>
      </trkpt>
      <trkpt lat="42.7489940" lon="-89.7209180">
        <ele>344.7700000</ele>
        <time>2009-05-02T19:18:19Z</time>
      </trkpt>
      <trkpt lat="42.7488760" lon="-89.7209650">
        <ele>344.2900000</ele>
        <time>2009-05-02T19:18:20Z</time>
      </trkpt>
      <trkpt lat="42.7487460" lon="-89.7210690">
        <ele>343.3300000</ele>
        <time>2009-05-02T19:18:21Z</time>
      </trkpt>
      <trkpt lat="42.7486390" lon="-89.7212190">
        <ele>341.8900000</ele>
        <time>2009-05-02T19:18:22Z</time>
      </trkpt>
      <trkpt lat="42.7485810" lon="-89.7214320">
        <ele>340.9200000</ele>
        <time>2009-05-02T19:18:23Z</time>
      </trkpt>
      <trkpt lat="42.7485350" lon="-89.7217180">
        <ele>339.4800000</ele>
        <time>2009-05-02T19:18:24Z</time>
      </trkpt>
      <trkpt lat="42.7485410" lon="-89.7220020">
        <ele>338.5200000</ele>
        <time>2009-05-02T19:18:25Z</time>
      </trkpt>
      <trkpt lat="42.7485460" lon="-89.7222900">
        <ele>337.5600000</ele>
        <time>2009-05-02T19:18:26Z</time>
      </trkpt>
      <trkpt lat="42.7485290" lon="-89.7241090">
        <ele>333.7100000</ele>
        <time>2009-05-02T19:18:33Z</time>
      </trkpt>
      <trkpt lat="42.7484490" lon="-89.7243210">
        <ele>331.7900000</ele>
        <time>2009-05-02T19:18:34Z</time>
      </trkpt>
      <trkpt lat="42.7483470" lon="-89.7244860">
        <ele>330.3500000</ele>
        <time>2009-05-02T19:18:35Z</time>
      </trkpt>
      <trkpt lat="42.7481910" lon="-89.7246070">
        <ele>328.9100000</ele>
        <time>2009-05-02T19:18:36Z</time>
      </trkpt>
      <trkpt lat="42.7480220" lon="-89.7247390">
        <ele>328.4300000</ele>
        <time>2009-05-02T19:18:37Z</time>
      </trkpt>
      <trkpt lat="42.7478350" lon="-89.7248030">
        <ele>327.9500000</ele>
        <time>2009-05-02T19:18:38Z</time>
      </trkpt>
      <trkpt lat="42.7476320" lon="-89.7248710">
        <ele>328.4300000</ele>
        <time>2009-05-02T19:18:39Z</time>
      </trkpt>
      <trkpt lat="42.7474300" lon="-89.7249240">
        <ele>329.3900000</ele>
        <time>2009-05-02T19:18:40Z</time>
      </trkpt>
      <trkpt lat="42.7457420" lon="-89.7250850">
        <ele>325.5400000</ele>
        <time>2009-05-02T19:18:49Z</time>
      </trkpt>
      <trkpt lat="42.7435690" lon="-89.7250650">
        <ele>322.6600000</ele>
        <time>2009-05-02T19:19:01Z</time>
      </trkpt>
      <trkpt lat="42.7415540" lon="-89.7249660">
        <ele>334.2000000</ele>
        <time>2009-05-02T19:19:14Z</time>
      </trkpt>
      <trkpt lat="42.7384740" lon="-89.7248900">
        <ele>329.8700000</ele>
        <time>2009-05-02T19:19:31Z</time>
      </trkpt>
      <trkpt lat="42.7361470" lon="-89.7248530">
        <ele>330.8300000</ele>
        <time>2009-05-02T19:19:43Z</time>
      </trkpt>
      <trkpt lat="42.7333640" lon="-89.7248200">
        <ele>339.9600000</ele>
        <time>2009-05-02T19:19:58Z</time>
      </trkpt>
      <trkpt lat="42.7299770" lon="-89.7247790">
        <ele>347.1700000</ele>
        <time>2009-05-02T19:20:16Z</time>
      </trkpt>
      <trkpt lat="42.7271490" lon="-89.7247450">
        <ele>353.9000000</ele>
        <time>2009-05-02T19:20:30Z</time>
      </trkpt>
      <trkpt lat="42.7237230" lon="-89.7247170">
        <ele>353.9000000</ele>
        <time>2009-05-02T19:20:46Z</time>
      </trkpt>
      <trkpt lat="42.7205060" lon="-89.7247630">
        <ele>351.5000000</ele>
        <time>2009-05-02T19:21:01Z</time>
      </trkpt>
      <trkpt lat="42.7164520" lon="-89.7247550">
        <ele>336.6000000</ele>
        <time>2009-05-02T19:21:20Z</time>
      </trkpt>
      <trkpt lat="42.7127250" lon="-89.7247090">
        <ele>334.6800000</ele>
        <time>2009-05-02T19:21:38Z</time>
      </trkpt>
      <trkpt lat="42.7098250" lon="-89.7244640">
        <ele>330.8300000</ele>
        <time>2009-05-02T19:21:52Z</time>
      </trkpt>
      <trkpt lat="42.7096290" lon="-89.7243840">
        <ele>331.7900000</ele>
        <time>2009-05-02T19:21:53Z</time>
      </trkpt>
      <trkpt lat="42.7094420" lon="-89.7242590">
        <ele>332.2700000</ele>
        <time>2009-05-02T19:21:54Z</time>
      </trkpt>
      <trkpt lat="42.7092630" lon="-89.7241390">
        <ele>333.7100000</ele>
        <time>2009-05-02T19:21:55Z</time>
      </trkpt>
      <trkpt lat="42.7091050" lon="-89.7239460">
        <ele>335.1600000</ele>
        <time>2009-05-02T19:21:56Z</time>
      </trkpt>
      <trkpt lat="42.7089450" lon="-89.7237500">
        <ele>336.1200000</ele>
        <time>2009-05-02T19:21:57Z</time>
      </trkpt>
      <trkpt lat="42.7088130" lon="-89.7235450">
        <ele>337.0800000</ele>
        <time>2009-05-02T19:21:58Z</time>
      </trkpt>
      <trkpt lat="42.7086890" lon="-89.7233130">
        <ele>337.5600000</ele>
        <time>2009-05-02T19:21:59Z</time>
      </trkpt>
      <trkpt lat="42.7085650" lon="-89.7230800">
        <ele>337.5600000</ele>
        <time>2009-05-02T19:22:00Z</time>
      </trkpt>
      <trkpt lat="42.7084520" lon="-89.7228420">
        <ele>338.0400000</ele>
        <time>2009-05-02T19:22:01Z</time>
      </trkpt>
      <trkpt lat="42.7061530" lon="-89.7180460">
        <ele>336.6000000</ele>
        <time>2009-05-02T19:22:21Z</time>
      </trkpt>
      <trkpt lat="42.7047410" lon="-89.7159710">
        <ele>335.6400000</ele>
        <time>2009-05-02T19:22:31Z</time>
      </trkpt>
      <trkpt lat="42.7045450" lon="-89.7158590">
        <ele>335.6400000</ele>
        <time>2009-05-02T19:22:32Z</time>
      </trkpt>
      <trkpt lat="42.7043420" lon="-89.7158120">
        <ele>335.1600000</ele>
        <time>2009-05-02T19:22:33Z</time>
      </trkpt>
      <trkpt lat="42.7041300" lon="-89.7157630">
        <ele>335.1600000</ele>
        <time>2009-05-02T19:22:34Z</time>
      </trkpt>
      <trkpt lat="42.7039230" lon="-89.7157280">
        <ele>334.6800000</ele>
        <time>2009-05-02T19:22:35Z</time>
      </trkpt>
      <trkpt lat="42.7037120" lon="-89.7157240">
        <ele>334.2000000</ele>
        <time>2009-05-02T19:22:36Z</time>
      </trkpt>
      <trkpt lat="42.6994850" lon="-89.7157160">
        <ele>331.3100000</ele>
        <time>2009-05-02T19:22:56Z</time>
      </trkpt>
      <trkpt lat="42.6972060" lon="-89.7153610">
        <ele>330.8300000</ele>
        <time>2009-05-02T19:23:07Z</time>
      </trkpt>
      <trkpt lat="42.6958040" lon="-89.7140880">
        <ele>327.9500000</ele>
        <time>2009-05-02T19:23:15Z</time>
      </trkpt>
      <trkpt lat="42.6942280" lon="-89.7121910">
        <ele>323.6200000</ele>
        <time>2009-05-02T19:23:25Z</time>
      </trkpt>
      <trkpt lat="42.6923600" lon="-89.7099170">
        <ele>318.3300000</ele>
        <time>2009-05-02T19:23:37Z</time>
      </trkpt>
      <trkpt lat="42.6921640" lon="-89.7098180">
        <ele>317.8500000</ele>
        <time>2009-05-02T19:23:38Z</time>
      </trkpt>
      <trkpt lat="42.6919660" lon="-89.7097190">
        <ele>317.8500000</ele>
        <time>2009-05-02T19:23:39Z</time>
      </trkpt>
      <trkpt lat="42.6917680" lon="-89.7096440">
        <ele>317.3700000</ele>
        <time>2009-05-02T19:23:40Z</time>
      </trkpt>
      <trkpt lat="42.6915610" lon="-89.7095810">
        <ele>316.8900000</ele>
        <time>2009-05-02T19:23:41Z</time>
      </trkpt>
      <trkpt lat="42.6913560" lon="-89.7095410">
        <ele>316.4100000</ele>
        <time>2009-05-02T19:23:42Z</time>
      </trkpt>
      <trkpt lat="42.6892500" lon="-89.7093530">
        <ele>313.0500000</ele>
        <time>2009-05-02T19:23:52Z</time>
      </trkpt>
      <trkpt lat="42.6876420" lon="-89.7086630">
        <ele>313.0500000</ele>
        <time>2009-05-02T19:24:00Z</time>
      </trkpt>
      <trkpt lat="42.6857930" lon="-89.7072430">
        <ele>315.4500000</ele>
        <time>2009-05-02T19:24:10Z</time>
      </trkpt>
      <trkpt lat="42.6839950" lon="-89.7056450">
        <ele>315.4500000</ele>
        <time>2009-05-02T19:24:20Z</time>
      </trkpt>
      <trkpt lat="42.6827070" lon="-89.7046050">
        <ele>314.0100000</ele>
        <time>2009-05-02T19:24:27Z</time>
      </trkpt>
      <trkpt lat="42.6817510" lon="-89.7030450">
        <ele>310.6400000</ele>
        <time>2009-05-02T19:24:34Z</time>
      </trkpt>
      <trkpt lat="42.6805910" lon="-89.7013560">
        <ele>308.2400000</ele>
        <time>2009-05-02T19:24:42Z</time>
      </trkpt>
      <trkpt lat="42.6792790" lon="-89.7004050">
        <ele>306.8000000</ele>
        <time>2009-05-02T19:24:49Z</time>
      </trkpt>
      <trkpt lat="42.6780050" lon="-89.7002340">
        <ele>304.3900000</ele>
        <time>2009-05-02T19:24:55Z</time>
      </trkpt>
      <trkpt lat="42.6752350" lon="-89.6998090">
        <ele>292.8600000</ele>
        <time>2009-05-02T19:25:08Z</time>
      </trkpt>
      <trkpt lat="42.6738770" lon="-89.6987780">
        <ele>278.9200000</ele>
        <time>2009-05-02T19:25:15Z</time>
      </trkpt>
      <trkpt lat="42.6722440" lon="-89.6975880">
        <ele>262.1000000</ele>
        <time>2009-05-02T19:25:23Z</time>
      </trkpt>
      <trkpt lat="42.6706940" lon="-89.6971920">
        <ele>257.7700000</ele>
        <time>2009-05-02T19:25:30Z</time>
      </trkpt>
      <trkpt lat="42.6682700" lon="-89.6963750">
        <ele>274.5900000</ele>
        <time>2009-05-02T19:25:42Z</time>
      </trkpt>
      <trkpt lat="42.6668250" lon="-89.6951320">
        <ele>287.0900000</ele>
        <time>2009-05-02T19:25:50Z</time>
      </trkpt>
      <trkpt lat="42.6654270" lon="-89.6943870">
        <ele>289.0100000</ele>
        <time>2009-05-02T19:25:57Z</time>
      </trkpt>
      <trkpt lat="42.6639140" lon="-89.6942290">
        <ele>280.3600000</ele>
        <time>2009-05-02T19:26:04Z</time>
      </trkpt>
      <trkpt lat="42.6612080" lon="-89.6939400">
        <ele>257.2900000</ele>
        <time>2009-05-02T19:26:16Z</time>
      </trkpt>
      <trkpt lat="42.6590990" lon="-89.6929990">
        <ele>256.3300000</ele>
        <time>2009-05-02T19:26:26Z</time>
      </trkpt>
      <trkpt lat="42.6564950" lon="-89.6913500">
        <ele>258.7300000</ele>
        <time>2009-05-02T19:26:39Z</time>
      </trkpt>
      <trkpt lat="42.6537540" lon="-89.6888430">
        <ele>263.5400000</ele>
        <time>2009-05-02T19:26:54Z</time>
      </trkpt>
      <trkpt lat="42.6520920" lon="-89.6868460">
        <ele>266.4200000</ele>
        <time>2009-05-02T19:27:04Z</time>
      </trkpt>
      <trkpt lat="42.6493280" lon="-89.6838090">
        <ele>271.7100000</ele>
        <time>2009-05-02T19:27:20Z</time>
      </trkpt>
      <trkpt lat="42.6465160" lon="-89.6808780">
        <ele>275.5600000</ele>
        <time>2009-05-02T19:27:36Z</time>
      </trkpt>
      <trkpt lat="42.6430740" lon="-89.6785970">
        <ele>282.2800000</ele>
        <time>2009-05-02T19:27:53Z</time>
      </trkpt>
      <trkpt lat="42.6417310" lon="-89.6784710">
        <ele>281.3200000</ele>
        <time>2009-05-02T19:27:59Z</time>
      </trkpt>
      <trkpt lat="42.6396400" lon="-89.6786300">
        <ele>285.1700000</ele>
        <time>2009-05-02T19:28:09Z</time>
      </trkpt>
      <trkpt lat="42.6386830" lon="-89.6787470">
        <ele>288.5300000</ele>
        <time>2009-05-02T19:28:16Z</time>
      </trkpt>
      <trkpt lat="42.6383910" lon="-89.6788330">
        <ele>289.0100000</ele>
        <time>2009-05-02T19:28:24Z</time>
      </trkpt>
      <trkpt lat="42.6380240" lon="-89.6791320">
        <ele>289.0100000</ele>
        <time>2009-05-02T19:28:36Z</time>
      </trkpt>
      <trkpt lat="42.6378760" lon="-89.6793090">
        <ele>289.0100000</ele>
        <time>2009-05-02T19:28:43Z</time>
      </trkpt>
      <trkpt lat="42.6377250" lon="-89.6795090">
        <ele>291.4200000</ele>
        <time>2009-05-02T19:28:48Z</time>
      </trkpt>
      <trkpt lat="42.6376940" lon="-89.6794780">
        <ele>291.4200000</ele>
        <time>2009-05-02T19:28:49Z</time>
      </trkpt>
      <trkpt lat="42.6376440" lon="-89.6794280">
        <ele>291.4200000</ele>
        <time>2009-05-02T19:28:50Z</time>
      </trkpt>
      <trkpt lat="42.6375660" lon="-89.6793500">
        <ele>290.9400000</ele>
        <time>2009-05-02T19:28:51Z</time>
      </trkpt>
      <trkpt lat="42.6374890" lon="-89.6792720">
        <ele>291.4200000</ele>
        <time>2009-05-02T19:28:52Z</time>
      </trkpt>
      <trkpt lat="42.6373920" lon="-89.6791750">
        <ele>291.9000000</ele>
        <time>2009-05-02T19:28:53Z</time>
      </trkpt>
      <trkpt lat="42.6364240" lon="-89.6783900">
        <ele>298.1500000</ele>
        <time>2009-05-02T19:29:00Z</time>
      </trkpt>
      <trkpt lat="42.6344550" lon="-89.6768870">
        <ele>311.6000000</ele>
        <time>2009-05-02T19:29:11Z</time>
      </trkpt>
      <trkpt lat="42.6308540" lon="-89.6741630">
        <ele>325.0600000</ele>
        <time>2009-05-02T19:29:31Z</time>
      </trkpt>
      <trkpt lat="42.6275200" lon="-89.6713640">
        <ele>326.9900000</ele>
        <time>2009-05-02T19:29:50Z</time>
      </trkpt>
      <trkpt lat="42.6249260" lon="-89.6680420">
        <ele>324.1000000</ele>
        <time>2009-05-02T19:30:08Z</time>
      </trkpt>
      <trkpt lat="42.6234400" lon="-89.6655500">
        <ele>326.5000000</ele>
        <time>2009-05-02T19:30:19Z</time>
      </trkpt>
      <trkpt lat="42.6208560" lon="-89.6601040">
        <ele>331.7900000</ele>
        <time>2009-05-02T19:30:40Z</time>
      </trkpt>
      <trkpt lat="42.6183710" lon="-89.6553400">
        <ele>314.0100000</ele>
        <time>2009-05-02T19:30:59Z</time>
      </trkpt>
      <trkpt lat="42.6172820" lon="-89.6539310">
        <ele>315.4500000</ele>
        <time>2009-05-02T19:31:06Z</time>
      </trkpt>
      <trkpt lat="42.6161220" lon="-89.6531820">
        <ele>319.3000000</ele>
        <time>2009-05-02T19:31:13Z</time>
      </trkpt>
      <trkpt lat="42.6143960" lon="-89.6527850">
        <ele>324.1000000</ele>
        <time>2009-05-02T19:31:23Z</time>
      </trkpt>
      <trkpt lat="42.6107060" lon="-89.6521320">
        <ele>324.5800000</ele>
        <time>2009-05-02T19:31:44Z</time>
      </trkpt>
      <trkpt lat="42.6087410" lon="-89.6519580">
        <ele>318.3300000</ele>
        <time>2009-05-02T19:31:57Z</time>
      </trkpt>
      <trkpt lat="42.6085380" lon="-89.6519580">
        <ele>317.8500000</ele>
        <time>2009-05-02T19:32:02Z</time>
      </trkpt>
      <trkpt lat="42.6083340" lon="-89.6519580">
        <ele>317.3700000</ele>
        <time>2009-05-02T19:32:12Z</time>
      </trkpt>
      <trkpt lat="42.6076140" lon="-89.6519580">
        <ele>314.9700000</ele>
        <time>2009-05-02T19:32:19Z</time>
      </trkpt>
      <trkpt lat="42.6060410" lon="-89.6519580">
        <ele>310.1600000</ele>
        <time>2009-05-02T19:32:31Z</time>
      </trkpt>
      <trkpt lat="42.6053400" lon="-89.6519580">
        <ele>308.7200000</ele>
        <time>2009-05-02T19:32:41Z</time>
      </trkpt>
      <trkpt lat="42.6050490" lon="-89.6519580">
        <ele>309.6800000</ele>
        <time>2009-05-02T19:32:55Z</time>
      </trkpt>
      <trkpt lat="42.6047530" lon="-89.6519530">
        <ele>310.1600000</ele>
        <time>2009-05-02T19:33:19Z</time>
      </trkpt>
      <trkpt lat="42.6043160" lon="-89.6519150">
        <ele>309.6800000</ele>
        <time>2009-05-02T19:33:30Z</time>
      </trkpt>
      <trkpt lat="42.6043160" lon="-89.6519150">
        <ele>309.2000000</ele>
        <time>2009-05-02T19:34:06Z</time>
      </trkpt>
      <trkpt lat="42.6042680" lon="-89.6519110">
        <ele>308.2400000</ele>
        <time>2009-05-02T19:34:22Z</time>
      </trkpt>
      <trkpt lat="42.6039510" lon="-89.6518830">
        <ele>308.7200000</ele>
        <time>2009-05-02T19:34:28Z</time>
      </trkpt>
      <trkpt lat="42.6037240" lon="-89.6518720">
        <ele>308.7200000</ele>
        <time>2009-05-02T19:34:35Z</time>
      </trkpt>
      <trkpt lat="42.6035220" lon="-89.6518720">
        <ele>309.6800000</ele>
        <time>2009-05-02T19:34:42Z</time>
      </trkpt>
      <trkpt lat="42.6035220" lon="-89.6517760">
        <ele>309.6800000</ele>
        <time>2009-05-02T19:34:43Z</time>
      </trkpt>
      <trkpt lat="42.6035220" lon="-89.6516790">
        <ele>309.6800000</ele>
        <time>2009-05-02T19:34:44Z</time>
      </trkpt>
      <trkpt lat="42.6035220" lon="-89.6515790">
        <ele>309.6800000</ele>
        <time>2009-05-02T19:34:45Z</time>
      </trkpt>
      <trkpt lat="42.6035220" lon="-89.6514800">
        <ele>310.1600000</ele>
        <time>2009-05-02T19:34:46Z</time>
      </trkpt>
      <trkpt lat="42.6035220" lon="-89.6513940">
        <ele>310.1600000</ele>
        <time>2009-05-02T19:34:47Z</time>
      </trkpt>
      <trkpt lat="42.6035220" lon="-89.6498880">
        <ele>309.6800000</ele>
        <time>2009-05-02T19:35:02Z</time>
      </trkpt>
      <trkpt lat="42.6035030" lon="-89.6485020">
        <ele>304.8800000</ele>
        <time>2009-05-02T19:35:12Z</time>
      </trkpt>
      <trkpt lat="42.6034890" lon="-89.6466920">
        <ele>302.4700000</ele>
        <time>2009-05-02T19:35:25Z</time>
      </trkpt>
      <trkpt lat="42.6034750" lon="-89.6463800">
        <ele>302.9500000</ele>
        <time>2009-05-02T19:35:27Z</time>
      </trkpt>
      <trkpt lat="42.6034410" lon="-89.6462290">
        <ele>305.3600000</ele>
        <time>2009-05-02T19:35:28Z</time>
      </trkpt>
      <trkpt lat="42.6033730" lon="-89.6460800">
        <ele>307.7600000</ele>
        <time>2009-05-02T19:35:29Z</time>
      </trkpt>
      <trkpt lat="42.6033160" lon="-89.6459660">
        <ele>308.2400000</ele>
        <time>2009-05-02T19:35:30Z</time>
      </trkpt>
      <trkpt lat="42.6032640" lon="-89.6458630">
        <ele>308.7200000</ele>
        <time>2009-05-02T19:35:31Z</time>
      </trkpt>
      <trkpt lat="42.6032070" lon="-89.6457600">
        <ele>309.2000000</ele>
        <time>2009-05-02T19:35:32Z</time>
      </trkpt>
      <trkpt lat="42.6030500" lon="-89.6455630">
        <ele>314.0100000</ele>
        <time>2009-05-02T19:35:39Z</time>
      </trkpt>
      <trkpt lat="42.6030360" lon="-89.6452470">
        <ele>316.8900000</ele>
        <time>2009-05-02T19:35:48Z</time>
      </trkpt>
      <trkpt lat="42.6030070" lon="-89.6442300">
        <ele>317.8500000</ele>
        <time>2009-05-02T19:36:05Z</time>
      </trkpt>
      <trkpt lat="42.6030070" lon="-89.6442300">
        <ele>321.7000000</ele>
        <time>2009-05-02T19:36:19Z</time>
      </trkpt>
      <trkpt lat="42.6030070" lon="-89.6438180">
        <ele>317.8500000</ele>
        <time>2009-05-02T19:36:27Z</time>
      </trkpt>
      <trkpt lat="42.6030070" lon="-89.6426040">
        <ele>314.9700000</ele>
        <time>2009-05-02T19:36:38Z</time>
      </trkpt>
      <trkpt lat="42.6030070" lon="-89.6414280">
        <ele>316.8900000</ele>
        <time>2009-05-02T19:36:51Z</time>
      </trkpt>
      <trkpt lat="42.6030070" lon="-89.6411100">
        <ele>315.4500000</ele>
        <time>2009-05-02T19:37:04Z</time>
      </trkpt>
      <trkpt lat="42.6029810" lon="-89.6403120">
        <ele>319.3000000</ele>
        <time>2009-05-02T19:37:15Z</time>
      </trkpt>
      <trkpt lat="42.6029790" lon="-89.6402680">
        <ele>328.4300000</ele>
        <time>2009-05-02T19:37:23Z</time>
      </trkpt>
      <trkpt lat="42.6029570" lon="-89.6398560">
        <ele>328.4300000</ele>
        <time>2009-05-02T19:37:33Z</time>
      </trkpt>
      <trkpt lat="42.6029640" lon="-89.6398550">
        <ele>328.4300000</ele>
        <time>2009-05-02T19:37:34Z</time>
      </trkpt>
      <trkpt lat="42.6029640" lon="-89.6398550">
        <ele>328.4300000</ele>
        <time>2009-05-02T19:37:35Z</time>
      </trkpt>
      <trkpt lat="42.6029640" lon="-89.6398550">
        <ele>329.8700000</ele>
        <time>2009-05-02T19:37:36Z</time>
      </trkpt>
      <trkpt lat="42.6027960" lon="-89.6398640">
        <ele>330.8300000</ele>
        <time>2009-05-02T19:37:37Z</time>
      </trkpt>
      <trkpt lat="42.6023760" lon="-89.6398860">
        <ele>329.8700000</ele>
        <time>2009-05-02T19:37:52Z</time>
      </trkpt>
      <trkpt lat="42.6022860" lon="-89.6398910">
        <ele>326.9900000</ele>
        <time>2009-05-02T19:38:04Z</time>
      </trkpt>
      <trkpt lat="42.6022220" lon="-89.6398940">
        <ele>329.8700000</ele>
        <time>2009-05-02T19:38:20Z</time>
      </trkpt>
      <trkpt lat="42.6018320" lon="-89.6398980">
        <ele>330.3500000</ele>
        <time>2009-05-02T19:38:30Z</time>
      </trkpt>
      <trkpt lat="42.6011660" lon="-89.6398980">
        <ele>331.7900000</ele>
        <time>2009-05-02T19:38:45Z</time>
      </trkpt>
      <trkpt lat="42.6011190" lon="-89.6394220">
        <ele>326.5000000</ele>
        <time>2009-05-02T19:38:54Z</time>
      </trkpt>
      <trkpt lat="42.6011190" lon="-89.6386070">
        <ele>323.1400000</ele>
        <time>2009-05-02T19:39:06Z</time>
      </trkpt>
      <trkpt lat="42.6011990" lon="-89.6385680">
        <ele>323.1400000</ele>
        <time>2009-05-02T19:39:07Z</time>
      </trkpt>
      <trkpt lat="42.6012320" lon="-89.6385680">
        <ele>322.6600000</ele>
        <time>2009-05-02T19:39:08Z</time>
      </trkpt>
      <trkpt lat="42.6016350" lon="-89.6385680">
        <ele>325.0600000</ele>
        <time>2009-05-02T19:39:23Z</time>
      </trkpt>
      <trkpt lat="42.6019770" lon="-89.6385680">
        <ele>326.9900000</ele>
        <time>2009-05-02T19:39:39Z</time>
      </trkpt>
      <trkpt lat="42.6021070" lon="-89.6386070">
        <ele>326.9900000</ele>
        <time>2009-05-02T19:39:40Z</time>
      </trkpt>
      <trkpt lat="42.6021080" lon="-89.6386530">
        <ele>326.5000000</ele>
        <time>2009-05-02T19:39:41Z</time>
      </trkpt>
      <trkpt lat="42.6021100" lon="-89.6387040">
        <ele>326.5000000</ele>
        <time>2009-05-02T19:39:42Z</time>
      </trkpt>
      <trkpt lat="42.6021120" lon="-89.6387590">
        <ele>326.0200000</ele>
        <time>2009-05-02T19:39:43Z</time>
      </trkpt>
      <trkpt lat="42.6021300" lon="-89.6393350">
        <ele>326.5000000</ele>
        <time>2009-05-02T19:39:55Z</time>
      </trkpt>
    </trkseg>
  </trk>

  <trk>
    <name>090502_Saturday_2</name>
    <extensions>
      <gpxx:TrackExtension xmlns:gpxx="http://www.garmin.com/xmlschemas/GpxExtensions/v3">
        <gpxx:DisplayColor>White</gpxx:DisplayColor>
      </gpxx:TrackExtension>
    </extensions>
    <trkseg>
      <trkpt lat="42.6013280" lon="-89.6387170">
        <ele>304.8800000</ele>
        <time>2009-05-02T20:49:40Z</time>
      </trkpt>
      <trkpt lat="42.6013130" lon="-89.6386990">
        <ele>306.8000000</ele>
        <time>2009-05-02T20:50:30Z</time>
      </trkpt>
      <trkpt lat="42.6014010" lon="-89.6385680">
        <ele>307.2800000</ele>
        <time>2009-05-02T20:50:36Z</time>
      </trkpt>
      <trkpt lat="42.6014450" lon="-89.6385680">
        <ele>308.2400000</ele>
        <time>2009-05-02T20:50:37Z</time>
      </trkpt>
      <trkpt lat="42.6015010" lon="-89.6385680">
        <ele>308.7200000</ele>
        <time>2009-05-02T20:50:38Z</time>
      </trkpt>
      <trkpt lat="42.6022890" lon="-89.6385590">
        <ele>316.8900000</ele>
        <time>2009-05-02T20:50:50Z</time>
      </trkpt>
      <trkpt lat="42.6025760" lon="-89.6385450">
        <ele>321.2200000</ele>
        <time>2009-05-02T20:50:59Z</time>
      </trkpt>
      <trkpt lat="42.6027140" lon="-89.6385380">
        <ele>323.1400000</ele>
        <time>2009-05-02T20:51:08Z</time>
      </trkpt>
      <trkpt lat="42.6028870" lon="-89.6385290">
        <ele>324.1000000</ele>
        <time>2009-05-02T20:51:21Z</time>
      </trkpt>
      <trkpt lat="42.6029640" lon="-89.6385710">
        <ele>324.5800000</ele>
        <time>2009-05-02T20:51:22Z</time>
      </trkpt>
      <trkpt lat="42.6029640" lon="-89.6386240">
        <ele>324.5800000</ele>
        <time>2009-05-02T20:51:23Z</time>
      </trkpt>
      <trkpt lat="42.6029640" lon="-89.6386940">
        <ele>324.1000000</ele>
        <time>2009-05-02T20:51:24Z</time>
      </trkpt>
      <trkpt lat="42.6029640" lon="-89.6387800">
        <ele>324.1000000</ele>
        <time>2009-05-02T20:51:25Z</time>
      </trkpt>
      <trkpt lat="42.6029640" lon="-89.6388740">
        <ele>324.5800000</ele>
        <time>2009-05-02T20:51:26Z</time>
      </trkpt>
      <trkpt lat="42.6029640" lon="-89.6394200">
        <ele>324.5800000</ele>
        <time>2009-05-02T20:51:35Z</time>
      </trkpt>
      <trkpt lat="42.6029640" lon="-89.6397650">
        <ele>326.0200000</ele>
        <time>2009-05-02T20:51:47Z</time>
      </trkpt>
      <trkpt lat="42.6030070" lon="-89.6411450">
        <ele>328.4300000</ele>
        <time>2009-05-02T20:51:58Z</time>
      </trkpt>
      <trkpt lat="42.6030070" lon="-89.6421550">
        <ele>329.3900000</ele>
        <time>2009-05-02T20:52:08Z</time>
      </trkpt>
      <trkpt lat="42.6030070" lon="-89.6423680">
        <ele>330.8300000</ele>
        <time>2009-05-02T20:52:17Z</time>
      </trkpt>
      <trkpt lat="42.6030070" lon="-89.6427910">
        <ele>334.6800000</ele>
        <time>2009-05-02T20:52:32Z</time>
      </trkpt>
      <trkpt lat="42.6030070" lon="-89.6439350">
        <ele>333.7100000</ele>
        <time>2009-05-02T20:52:44Z</time>
      </trkpt>
      <trkpt lat="42.6030070" lon="-89.6439350">
        <ele>331.3100000</ele>
        <time>2009-05-02T20:52:55Z</time>
      </trkpt>
      <trkpt lat="42.6030070" lon="-89.6441360">
        <ele>330.8300000</ele>
        <time>2009-05-02T20:53:09Z</time>
      </trkpt>
      <trkpt lat="42.6030290" lon="-89.6450960">
        <ele>330.3500000</ele>
        <time>2009-05-02T20:53:17Z</time>
      </trkpt>
      <trkpt lat="42.6030500" lon="-89.6455630">
        <ele>328.4300000</ele>
        <time>2009-05-02T20:53:20Z</time>
      </trkpt>
      <trkpt lat="42.6030850" lon="-89.6456070">
        <ele>328.9100000</ele>
        <time>2009-05-02T20:53:21Z</time>
      </trkpt>
      <trkpt lat="42.6031430" lon="-89.6456790">
        <ele>328.4300000</ele>
        <time>2009-05-02T20:53:22Z</time>
      </trkpt>
      <trkpt lat="42.6032070" lon="-89.6457600">
        <ele>327.9500000</ele>
        <time>2009-05-02T20:53:23Z</time>
      </trkpt>
      <trkpt lat="42.6032630" lon="-89.6458610">
        <ele>327.4700000</ele>
        <time>2009-05-02T20:53:24Z</time>
      </trkpt>
      <trkpt lat="42.6033680" lon="-89.6460720">
        <ele>326.9900000</ele>
        <time>2009-05-02T20:53:26Z</time>
      </trkpt>
      <trkpt lat="42.6034150" lon="-89.6461650">
        <ele>326.5000000</ele>
        <time>2009-05-02T20:53:27Z</time>
      </trkpt>
      <trkpt lat="42.6034540" lon="-89.6462880">
        <ele>326.0200000</ele>
        <time>2009-05-02T20:53:28Z</time>
      </trkpt>
      <trkpt lat="42.6034810" lon="-89.6464100">
        <ele>325.5400000</ele>
        <time>2009-05-02T20:53:29Z</time>
      </trkpt>
      <trkpt lat="42.6035070" lon="-89.6465270">
        <ele>325.5400000</ele>
        <time>2009-05-02T20:53:30Z</time>
      </trkpt>
      <trkpt lat="42.6035030" lon="-89.6466480">
        <ele>325.5400000</ele>
        <time>2009-05-02T20:53:31Z</time>
      </trkpt>
      <trkpt lat="42.6034800" lon="-89.6467830">
        <ele>325.0600000</ele>
        <time>2009-05-02T20:53:32Z</time>
      </trkpt>
      <trkpt lat="42.6035050" lon="-89.6486560">
        <ele>319.3000000</ele>
        <time>2009-05-02T20:53:44Z</time>
      </trkpt>
      <trkpt lat="42.6035180" lon="-89.6496210">
        <ele>315.4500000</ele>
        <time>2009-05-02T20:53:52Z</time>
      </trkpt>
      <trkpt lat="42.6035220" lon="-89.6505820">
        <ele>313.5300000</ele>
        <time>2009-05-02T20:54:04Z</time>
      </trkpt>
      <trkpt lat="42.6035220" lon="-89.6509250">
        <ele>313.0500000</ele>
        <time>2009-05-02T20:54:13Z</time>
      </trkpt>
      <trkpt lat="42.6035220" lon="-89.6510900">
        <ele>312.0900000</ele>
        <time>2009-05-02T20:54:27Z</time>
      </trkpt>
      <trkpt lat="42.6035220" lon="-89.6514750">
        <ele>311.1200000</ele>
        <time>2009-05-02T20:55:00Z</time>
      </trkpt>
      <trkpt lat="42.6035220" lon="-89.6517050">
        <ele>311.1200000</ele>
        <time>2009-05-02T20:55:02Z</time>
      </trkpt>
      <trkpt lat="42.6035880" lon="-89.6518720">
        <ele>310.6400000</ele>
        <time>2009-05-02T20:55:03Z</time>
      </trkpt>
      <trkpt lat="42.6036730" lon="-89.6518720">
        <ele>310.6400000</ele>
        <time>2009-05-02T20:55:04Z</time>
      </trkpt>
      <trkpt lat="42.6037800" lon="-89.6518720">
        <ele>310.1600000</ele>
        <time>2009-05-02T20:55:05Z</time>
      </trkpt>
      <trkpt lat="42.6039130" lon="-89.6518640">
        <ele>310.1600000</ele>
        <time>2009-05-02T20:55:06Z</time>
      </trkpt>
      <trkpt lat="42.6040410" lon="-89.6518530">
        <ele>310.1600000</ele>
        <time>2009-05-02T20:55:07Z</time>
      </trkpt>
      <trkpt lat="42.6056250" lon="-89.6517860">
        <ele>310.6400000</ele>
        <time>2009-05-02T20:55:20Z</time>
      </trkpt>
      <trkpt lat="42.6059730" lon="-89.6517860">
        <ele>310.6400000</ele>
        <time>2009-05-02T20:55:28Z</time>
      </trkpt>
      <trkpt lat="42.6061310" lon="-89.6517860">
        <ele>310.6400000</ele>
        <time>2009-05-02T20:55:39Z</time>
      </trkpt>
      <trkpt lat="42.6069330" lon="-89.6517940">
        <ele>312.5700000</ele>
        <time>2009-05-02T20:55:48Z</time>
      </trkpt>
      <trkpt lat="42.6087570" lon="-89.6518370">
        <ele>318.8100000</ele>
        <time>2009-05-02T20:56:03Z</time>
      </trkpt>
      <trkpt lat="42.6109030" lon="-89.6519450">
        <ele>325.5400000</ele>
        <time>2009-05-02T20:56:19Z</time>
      </trkpt>
      <trkpt lat="42.6145990" lon="-89.6525880">
        <ele>327.4700000</ele>
        <time>2009-05-02T20:56:47Z</time>
      </trkpt>
      <trkpt lat="42.6168170" lon="-89.6533260">
        <ele>325.5400000</ele>
        <time>2009-05-02T20:57:03Z</time>
      </trkpt>
      <trkpt lat="42.6179630" lon="-89.6543720">
        <ele>323.1400000</ele>
        <time>2009-05-02T20:57:12Z</time>
      </trkpt>
      <trkpt lat="42.6189520" lon="-89.6560860">
        <ele>322.1800000</ele>
        <time>2009-05-02T20:57:22Z</time>
      </trkpt>
      <trkpt lat="42.6203750" lon="-89.6591430">
        <ele>336.1200000</ele>
        <time>2009-05-02T20:57:38Z</time>
      </trkpt>
      <trkpt lat="42.6218870" lon="-89.6622480">
        <ele>342.3700000</ele>
        <time>2009-05-02T20:57:54Z</time>
      </trkpt>
      <trkpt lat="42.6230060" lon="-89.6646280">
        <ele>340.4400000</ele>
        <time>2009-05-02T20:58:07Z</time>
      </trkpt>
      <trkpt lat="42.6232920" lon="-89.6652370">
        <ele>339.4800000</ele>
        <time>2009-05-02T20:58:15Z</time>
      </trkpt>
      <trkpt lat="42.6234910" lon="-89.6656610">
        <ele>338.5200000</ele>
        <time>2009-05-02T20:58:28Z</time>
      </trkpt>
      <trkpt lat="42.6236910" lon="-89.6660530">
        <ele>338.5200000</ele>
        <time>2009-05-02T20:58:43Z</time>
      </trkpt>
      <trkpt lat="42.6240860" lon="-89.6667440">
        <ele>339.4800000</ele>
        <time>2009-05-02T20:58:49Z</time>
      </trkpt>
      <trkpt lat="42.6249000" lon="-89.6680050">
        <ele>339.0000000</ele>
        <time>2009-05-02T20:58:56Z</time>
      </trkpt>
      <trkpt lat="42.6264530" lon="-89.6700430">
        <ele>336.6000000</ele>
        <time>2009-05-02T20:59:06Z</time>
      </trkpt>
      <trkpt lat="42.6286610" lon="-89.6724600">
        <ele>334.6800000</ele>
        <time>2009-05-02T20:59:19Z</time>
      </trkpt>
      <trkpt lat="42.6313520" lon="-89.6745360">
        <ele>331.3100000</ele>
        <time>2009-05-02T20:59:33Z</time>
      </trkpt>
      <trkpt lat="42.6347600" lon="-89.6771180">
        <ele>319.3000000</ele>
        <time>2009-05-02T20:59:51Z</time>
      </trkpt>
      <trkpt lat="42.6375970" lon="-89.6793810">
        <ele>300.0700000</ele>
        <time>2009-05-02T21:00:07Z</time>
      </trkpt>
      <trkpt lat="42.6377640" lon="-89.6794570">
        <ele>299.5900000</ele>
        <time>2009-05-02T21:00:08Z</time>
      </trkpt>
      <trkpt lat="42.6378160" lon="-89.6793880">
        <ele>299.1100000</ele>
        <time>2009-05-02T21:00:09Z</time>
      </trkpt>
      <trkpt lat="42.6378930" lon="-89.6792860">
        <ele>298.6300000</ele>
        <time>2009-05-02T21:00:10Z</time>
      </trkpt>
      <trkpt lat="42.6379780" lon="-89.6791720">
        <ele>298.6300000</ele>
        <time>2009-05-02T21:00:11Z</time>
      </trkpt>
      <trkpt lat="42.6380930" lon="-89.6790760">
        <ele>298.1500000</ele>
        <time>2009-05-02T21:00:12Z</time>
      </trkpt>
      <trkpt lat="42.6382140" lon="-89.6789770">
        <ele>298.1500000</ele>
        <time>2009-05-02T21:00:13Z</time>
      </trkpt>
      <trkpt lat="42.6383440" lon="-89.6788700">
        <ele>297.1800000</ele>
        <time>2009-05-02T21:00:14Z</time>
      </trkpt>
      <trkpt lat="42.6384880" lon="-89.6787750">
        <ele>296.7000000</ele>
        <time>2009-05-02T21:00:15Z</time>
      </trkpt>
      <trkpt lat="42.6386570" lon="-89.6787510">
        <ele>295.2600000</ele>
        <time>2009-05-02T21:00:16Z</time>
      </trkpt>
      <trkpt lat="42.6388310" lon="-89.6787260">
        <ele>294.3000000</ele>
        <time>2009-05-02T21:00:17Z</time>
      </trkpt>
      <trkpt lat="42.6390050" lon="-89.6787010">
        <ele>293.3400000</ele>
        <time>2009-05-02T21:00:18Z</time>
      </trkpt>
      <trkpt lat="42.6391810" lon="-89.6786760">
        <ele>292.3800000</ele>
        <time>2009-05-02T21:00:19Z</time>
      </trkpt>
      <trkpt lat="42.6418160" lon="-89.6784650">
        <ele>284.2100000</ele>
        <time>2009-05-02T21:00:33Z</time>
      </trkpt>
      <trkpt lat="42.6432330" lon="-89.6786560">
        <ele>284.2100000</ele>
        <time>2009-05-02T21:00:40Z</time>
      </trkpt>
      <trkpt lat="42.6448040" lon="-89.6796150">
        <ele>281.3200000</ele>
        <time>2009-05-02T21:00:48Z</time>
      </trkpt>
      <trkpt lat="42.6476790" lon="-89.6819070">
        <ele>275.0700000</ele>
        <time>2009-05-02T21:01:03Z</time>
      </trkpt>
      <trkpt lat="42.6512760" lon="-89.6860000">
        <ele>265.4600000</ele>
        <time>2009-05-02T21:01:24Z</time>
      </trkpt>
      <trkpt lat="42.6535140" lon="-89.6885010">
        <ele>261.6200000</ele>
        <time>2009-05-02T21:01:37Z</time>
      </trkpt>
      <trkpt lat="42.6550530" lon="-89.6902330">
        <ele>257.2900000</ele>
        <time>2009-05-02T21:01:46Z</time>
      </trkpt>
      <trkpt lat="42.6586160" lon="-89.6927590">
        <ele>255.8500000</ele>
        <time>2009-05-02T21:02:04Z</time>
      </trkpt>
      <trkpt lat="42.6620170" lon="-89.6941880">
        <ele>261.1400000</ele>
        <time>2009-05-02T21:02:20Z</time>
      </trkpt>
      <trkpt lat="42.6639890" lon="-89.6942290">
        <ele>278.4400000</ele>
        <time>2009-05-02T21:02:29Z</time>
      </trkpt>
      <trkpt lat="42.6659650" lon="-89.6945870">
        <ele>292.8600000</ele>
        <time>2009-05-02T21:02:38Z</time>
      </trkpt>
      <trkpt lat="42.6673540" lon="-89.6955930">
        <ele>291.9000000</ele>
        <time>2009-05-02T21:02:45Z</time>
      </trkpt>
      <trkpt lat="42.6689410" lon="-89.6967540">
        <ele>276.5200000</ele>
        <time>2009-05-02T21:02:53Z</time>
      </trkpt>
      <trkpt lat="42.6707390" lon="-89.6972010">
        <ele>264.9800000</ele>
        <time>2009-05-02T21:03:01Z</time>
      </trkpt>
      <trkpt lat="42.6728720" lon="-89.6979550">
        <ele>270.7500000</ele>
        <time>2009-05-02T21:03:11Z</time>
      </trkpt>
      <trkpt lat="42.6743470" lon="-89.6992030">
        <ele>286.1300000</ele>
        <time>2009-05-02T21:03:19Z</time>
      </trkpt>
      <trkpt lat="42.6757550" lon="-89.7000140">
        <ele>300.0700000</ele>
        <time>2009-05-02T21:03:26Z</time>
      </trkpt>
      <trkpt lat="42.6773250" lon="-89.7002010">
        <ele>309.2000000</ele>
        <time>2009-05-02T21:03:33Z</time>
      </trkpt>
      <trkpt lat="42.6797460" lon="-89.7006280">
        <ele>314.0100000</ele>
        <time>2009-05-02T21:03:44Z</time>
      </trkpt>
      <trkpt lat="42.6808520" lon="-89.7016280">
        <ele>315.4500000</ele>
        <time>2009-05-02T21:03:50Z</time>
      </trkpt>
      <trkpt lat="42.6818520" lon="-89.7032360">
        <ele>314.9700000</ele>
        <time>2009-05-02T21:03:57Z</time>
      </trkpt>
      <trkpt lat="42.6830630" lon="-89.7049970">
        <ele>317.8500000</ele>
        <time>2009-05-02T21:04:05Z</time>
      </trkpt>
      <trkpt lat="42.6842390" lon="-89.7058800">
        <ele>319.7800000</ele>
        <time>2009-05-02T21:04:11Z</time>
      </trkpt>
      <trkpt lat="42.6861300" lon="-89.7075100">
        <ele>320.2600000</ele>
        <time>2009-05-02T21:04:21Z</time>
      </trkpt>
      <trkpt lat="42.6885300" lon="-89.7091110">
        <ele>319.3000000</ele>
        <time>2009-05-02T21:04:33Z</time>
      </trkpt>
      <trkpt lat="42.6902940" lon="-89.7094460">
        <ele>322.6600000</ele>
        <time>2009-05-02T21:04:41Z</time>
      </trkpt>
      <trkpt lat="42.6922700" lon="-89.7098720">
        <ele>326.5000000</ele>
        <time>2009-05-02T21:04:50Z</time>
      </trkpt>
      <trkpt lat="42.6924800" lon="-89.7099760">
        <ele>326.9900000</ele>
        <time>2009-05-02T21:04:51Z</time>
      </trkpt>
      <trkpt lat="42.6926490" lon="-89.7101530">
        <ele>327.4700000</ele>
        <time>2009-05-02T21:04:52Z</time>
      </trkpt>
      <trkpt lat="42.6928250" lon="-89.7103400">
        <ele>327.9500000</ele>
        <time>2009-05-02T21:04:53Z</time>
      </trkpt>
      <trkpt lat="42.6944140" lon="-89.7124540">
        <ele>329.3900000</ele>
        <time>2009-05-02T21:05:03Z</time>
      </trkpt>
      <trkpt lat="42.6963120" lon="-89.7145620">
        <ele>333.2300000</ele>
        <time>2009-05-02T21:05:14Z</time>
      </trkpt>
      <trkpt lat="42.6981010" lon="-89.7157100">
        <ele>335.6400000</ele>
        <time>2009-05-02T21:05:23Z</time>
      </trkpt>
      <trkpt lat="42.6983220" lon="-89.7157300">
        <ele>336.1200000</ele>
        <time>2009-05-02T21:05:24Z</time>
      </trkpt>
      <trkpt lat="42.6985490" lon="-89.7157270">
        <ele>336.1200000</ele>
        <time>2009-05-02T21:05:25Z</time>
      </trkpt>
      <trkpt lat="42.7019370" lon="-89.7156890">
        <ele>334.2000000</ele>
        <time>2009-05-02T21:05:40Z</time>
      </trkpt>
      <trkpt lat="42.7043900" lon="-89.7158230">
        <ele>340.4400000</ele>
        <time>2009-05-02T21:05:51Z</time>
      </trkpt>
      <trkpt lat="42.7046020" lon="-89.7158910">
        <ele>340.9200000</ele>
        <time>2009-05-02T21:05:52Z</time>
      </trkpt>
      <trkpt lat="42.7048450" lon="-89.7160300">
        <ele>341.4100000</ele>
        <time>2009-05-02T21:05:53Z</time>
      </trkpt>
      <trkpt lat="42.7049920" lon="-89.7162020">
        <ele>341.4100000</ele>
        <time>2009-05-02T21:05:54Z</time>
      </trkpt>
      <trkpt lat="42.7051610" lon="-89.7163990">
        <ele>341.4100000</ele>
        <time>2009-05-02T21:05:55Z</time>
      </trkpt>
      <trkpt lat="42.7053300" lon="-89.7165960">
        <ele>340.9200000</ele>
        <time>2009-05-02T21:05:56Z</time>
      </trkpt>
      <trkpt lat="42.7054780" lon="-89.7168190">
        <ele>340.4400000</ele>
        <time>2009-05-02T21:05:57Z</time>
      </trkpt>
      <trkpt lat="42.7067790" lon="-89.7192970">
        <ele>337.5600000</ele>
        <time>2009-05-02T21:06:07Z</time>
      </trkpt>
      <trkpt lat="42.7087190" lon="-89.7233690">
        <ele>337.5600000</ele>
        <time>2009-05-02T21:06:23Z</time>
      </trkpt>
      <trkpt lat="42.7090040" lon="-89.7238220">
        <ele>336.6000000</ele>
        <time>2009-05-02T21:06:25Z</time>
      </trkpt>
      <trkpt lat="42.7091710" lon="-89.7240260">
        <ele>336.1200000</ele>
        <time>2009-05-02T21:06:26Z</time>
      </trkpt>
      <trkpt lat="42.7093430" lon="-89.7241930">
        <ele>335.1600000</ele>
        <time>2009-05-02T21:06:27Z</time>
      </trkpt>
      <trkpt lat="42.7095450" lon="-89.7243280">
        <ele>334.2000000</ele>
        <time>2009-05-02T21:06:28Z</time>
      </trkpt>
      <trkpt lat="42.7097450" lon="-89.7244340">
        <ele>332.7500000</ele>
        <time>2009-05-02T21:06:29Z</time>
      </trkpt>
      <trkpt lat="42.7099660" lon="-89.7245160">
        <ele>331.3100000</ele>
        <time>2009-05-02T21:06:30Z</time>
      </trkpt>
      <trkpt lat="42.7101810" lon="-89.7245380">
        <ele>329.8700000</ele>
        <time>2009-05-02T21:06:31Z</time>
      </trkpt>
      <trkpt lat="42.7104120" lon="-89.7245510">
        <ele>328.4300000</ele>
        <time>2009-05-02T21:06:32Z</time>
      </trkpt>
      <trkpt lat="42.7106410" lon="-89.7245630">
        <ele>326.9900000</ele>
        <time>2009-05-02T21:06:33Z</time>
      </trkpt>
      <trkpt lat="42.7139910" lon="-89.7248090">
        <ele>332.7500000</ele>
        <time>2009-05-02T21:06:48Z</time>
      </trkpt>
      <trkpt lat="42.7169230" lon="-89.7247600">
        <ele>333.7100000</ele>
        <time>2009-05-02T21:07:01Z</time>
      </trkpt>
      <trkpt lat="42.7211750" lon="-89.7247500">
        <ele>347.1700000</ele>
        <time>2009-05-02T21:07:20Z</time>
      </trkpt>
      <trkpt lat="42.7271560" lon="-89.7247460">
        <ele>350.0600000</ele>
        <time>2009-05-02T21:07:47Z</time>
      </trkpt>
      <trkpt lat="42.7304090" lon="-89.7247840">
        <ele>340.9200000</ele>
        <time>2009-05-02T21:08:02Z</time>
      </trkpt>
      <trkpt lat="42.7335700" lon="-89.7248220">
        <ele>337.5600000</ele>
        <time>2009-05-02T21:08:16Z</time>
      </trkpt>
      <trkpt lat="42.7362890" lon="-89.7248550">
        <ele>333.7100000</ele>
        <time>2009-05-02T21:08:28Z</time>
      </trkpt>
      <trkpt lat="42.7398250" lon="-89.7249210">
        <ele>337.0800000</ele>
        <time>2009-05-02T21:08:44Z</time>
      </trkpt>
      <trkpt lat="42.7424510" lon="-89.7250100">
        <ele>341.8900000</ele>
        <time>2009-05-02T21:08:56Z</time>
      </trkpt>
      <trkpt lat="42.7454330" lon="-89.7250850">
        <ele>328.9100000</ele>
        <time>2009-05-02T21:09:09Z</time>
      </trkpt>
      <trkpt lat="42.7474840" lon="-89.7249170">
        <ele>334.6800000</ele>
        <time>2009-05-02T21:09:19Z</time>
      </trkpt>
      <trkpt lat="42.7482100" lon="-89.7245920">
        <ele>332.7500000</ele>
        <time>2009-05-02T21:09:23Z</time>
      </trkpt>
      <trkpt lat="42.7483600" lon="-89.7244760">
        <ele>332.2700000</ele>
        <time>2009-05-02T21:09:24Z</time>
      </trkpt>
      <trkpt lat="42.7484600" lon="-89.7242930">
        <ele>332.7500000</ele>
        <time>2009-05-02T21:09:25Z</time>
      </trkpt>
      <trkpt lat="42.7485330" lon="-89.7240980">
        <ele>332.2700000</ele>
        <time>2009-05-02T21:09:26Z</time>
      </trkpt>
      <trkpt lat="42.7485600" lon="-89.7238800">
        <ele>332.2700000</ele>
        <time>2009-05-02T21:09:27Z</time>
      </trkpt>
      <trkpt lat="42.7485740" lon="-89.7236500">
        <ele>332.7500000</ele>
        <time>2009-05-02T21:09:28Z</time>
      </trkpt>
      <trkpt lat="42.7485680" lon="-89.7233790">
        <ele>333.2300000</ele>
        <time>2009-05-02T21:09:29Z</time>
      </trkpt>
      <trkpt lat="42.7485620" lon="-89.7230790">
        <ele>333.7100000</ele>
        <time>2009-05-02T21:09:30Z</time>
      </trkpt>
      <trkpt lat="42.7485560" lon="-89.7227770">
        <ele>334.6800000</ele>
        <time>2009-05-02T21:09:31Z</time>
      </trkpt>
      <trkpt lat="42.7485900" lon="-89.7213990">
        <ele>338.5200000</ele>
        <time>2009-05-02T21:09:36Z</time>
      </trkpt>
      <trkpt lat="42.7486460" lon="-89.7211950">
        <ele>339.0000000</ele>
        <time>2009-05-02T21:09:37Z</time>
      </trkpt>
      <trkpt lat="42.7487480" lon="-89.7210680">
        <ele>339.9600000</ele>
        <time>2009-05-02T21:09:38Z</time>
      </trkpt>
      <trkpt lat="42.7488700" lon="-89.7209710">
        <ele>340.4400000</ele>
        <time>2009-05-02T21:09:39Z</time>
      </trkpt>
      <trkpt lat="42.7489990" lon="-89.7209160">
        <ele>340.9200000</ele>
        <time>2009-05-02T21:09:40Z</time>
      </trkpt>
      <trkpt lat="42.7492090" lon="-89.7208960">
        <ele>343.8100000</ele>
        <time>2009-05-02T21:09:41Z</time>
      </trkpt>
      <trkpt lat="42.7494160" lon="-89.7209280">
        <ele>345.2500000</ele>
        <time>2009-05-02T21:09:42Z</time>
      </trkpt>
      <trkpt lat="42.7496430" lon="-89.7209810">
        <ele>346.6900000</ele>
        <time>2009-05-02T21:09:43Z</time>
      </trkpt>
      <trkpt lat="42.7498520" lon="-89.7210300">
        <ele>346.2100000</ele>
        <time>2009-05-02T21:09:44Z</time>
      </trkpt>
      <trkpt lat="42.7525640" lon="-89.7215770">
        <ele>347.1700000</ele>
        <time>2009-05-02T21:09:58Z</time>
      </trkpt>
      <trkpt lat="42.7548000" lon="-89.7218560">
        <ele>344.2900000</ele>
        <time>2009-05-02T21:10:10Z</time>
      </trkpt>
      <trkpt lat="42.7573400" lon="-89.7221730">
        <ele>343.8100000</ele>
        <time>2009-05-02T21:10:23Z</time>
      </trkpt>
      <trkpt lat="42.7596780" lon="-89.7226490">
        <ele>348.6200000</ele>
        <time>2009-05-02T21:10:35Z</time>
      </trkpt>
      <trkpt lat="42.7615590" lon="-89.7234690">
        <ele>342.8500000</ele>
        <time>2009-05-02T21:10:44Z</time>
      </trkpt>
      <trkpt lat="42.7617890" lon="-89.7235100">
        <ele>343.8100000</ele>
        <time>2009-05-02T21:10:45Z</time>
      </trkpt>
      <trkpt lat="42.7637110" lon="-89.7240060">
        <ele>339.9600000</ele>
        <time>2009-05-02T21:10:54Z</time>
      </trkpt>
      <trkpt lat="42.7664020" lon="-89.7253320">
        <ele>336.1200000</ele>
        <time>2009-05-02T21:11:08Z</time>
      </trkpt>
      <trkpt lat="42.7678730" lon="-89.7256000">
        <ele>334.2000000</ele>
        <time>2009-05-02T21:11:15Z</time>
      </trkpt>
      <trkpt lat="42.7715090" lon="-89.7256000">
        <ele>327.4700000</ele>
        <time>2009-05-02T21:11:32Z</time>
      </trkpt>
      <trkpt lat="42.7763820" lon="-89.7255500">
        <ele>328.9100000</ele>
        <time>2009-05-02T21:11:55Z</time>
      </trkpt>
      <trkpt lat="42.7812480" lon="-89.7254090">
        <ele>329.3900000</ele>
        <time>2009-05-02T21:12:18Z</time>
      </trkpt>
      <trkpt lat="42.7833270" lon="-89.7250900">
        <ele>335.1600000</ele>
        <time>2009-05-02T21:12:28Z</time>
      </trkpt>
      <trkpt lat="42.7835030" lon="-89.7249560">
        <ele>335.6400000</ele>
        <time>2009-05-02T21:12:29Z</time>
      </trkpt>
      <trkpt lat="42.7836860" lon="-89.7248120">
        <ele>335.6400000</ele>
        <time>2009-05-02T21:12:30Z</time>
      </trkpt>
      <trkpt lat="42.7838720" lon="-89.7246670">
        <ele>335.6400000</ele>
        <time>2009-05-02T21:12:31Z</time>
      </trkpt>
      <trkpt lat="42.7840570" lon="-89.7245220">
        <ele>335.1600000</ele>
        <time>2009-05-02T21:12:32Z</time>
      </trkpt>
      <trkpt lat="42.7844420" lon="-89.7242690">
        <ele>335.1600000</ele>
        <time>2009-05-02T21:12:34Z</time>
      </trkpt>
      <trkpt lat="42.7846400" lon="-89.7241940">
        <ele>335.1600000</ele>
        <time>2009-05-02T21:12:35Z</time>
      </trkpt>
      <trkpt lat="42.7848550" lon="-89.7242110">
        <ele>335.1600000</ele>
        <time>2009-05-02T21:12:36Z</time>
      </trkpt>
      <trkpt lat="42.7850480" lon="-89.7242580">
        <ele>335.6400000</ele>
        <time>2009-05-02T21:12:37Z</time>
      </trkpt>
      <trkpt lat="42.7852290" lon="-89.7243270">
        <ele>336.1200000</ele>
        <time>2009-05-02T21:12:38Z</time>
      </trkpt>
      <trkpt lat="42.7854270" lon="-89.7244020">
        <ele>336.6000000</ele>
        <time>2009-05-02T21:12:39Z</time>
      </trkpt>
      <trkpt lat="42.7856290" lon="-89.7244790">
        <ele>336.6000000</ele>
        <time>2009-05-02T21:12:40Z</time>
      </trkpt>
      <trkpt lat="42.7906380" lon="-89.7267590">
        <ele>336.6000000</ele>
        <time>2009-05-02T21:13:05Z</time>
      </trkpt>
      <trkpt lat="42.7919320" lon="-89.7273530">
        <ele>335.6400000</ele>
        <time>2009-05-02T21:13:13Z</time>
      </trkpt>
      <trkpt lat="42.7920310" lon="-89.7273980">
        <ele>336.1200000</ele>
        <time>2009-05-02T21:13:14Z</time>
      </trkpt>
      <trkpt lat="42.7920990" lon="-89.7274290">
        <ele>335.6400000</ele>
        <time>2009-05-02T21:13:15Z</time>
      </trkpt>
      <trkpt lat="42.7921570" lon="-89.7273120">
        <ele>335.6400000</ele>
        <time>2009-05-02T21:13:16Z</time>
      </trkpt>
      <trkpt lat="42.7921750" lon="-89.7272020">
        <ele>335.6400000</ele>
        <time>2009-05-02T21:13:17Z</time>
      </trkpt>
      <trkpt lat="42.7921960" lon="-89.7270760">
        <ele>335.6400000</ele>
        <time>2009-05-02T21:13:18Z</time>
      </trkpt>
      <trkpt lat="42.7922190" lon="-89.7269390">
        <ele>335.1600000</ele>
        <time>2009-05-02T21:13:19Z</time>
      </trkpt>
      <trkpt lat="42.7922270" lon="-89.7267860">
        <ele>334.2000000</ele>
        <time>2009-05-02T21:13:20Z</time>
      </trkpt>
      <trkpt lat="42.7922360" lon="-89.7266000">
        <ele>333.7100000</ele>
        <time>2009-05-02T21:13:21Z</time>
      </trkpt>
      <trkpt lat="42.7922770" lon="-89.7245200">
        <ele>330.3500000</ele>
        <time>2009-05-02T21:13:30Z</time>
      </trkpt>
      <trkpt lat="42.7923110" lon="-89.7206240">
        <ele>319.3000000</ele>
        <time>2009-05-02T21:13:44Z</time>
      </trkpt>
      <trkpt lat="42.7923450" lon="-89.7167800">
        <ele>303.9100000</ele>
        <time>2009-05-02T21:13:57Z</time>
      </trkpt>
      <trkpt lat="42.7924580" lon="-89.7156270">
        <ele>300.5500000</ele>
        <time>2009-05-02T21:14:01Z</time>
      </trkpt>
      <trkpt lat="42.7925320" lon="-89.7153990">
        <ele>300.0700000</ele>
        <time>2009-05-02T21:14:02Z</time>
      </trkpt>
      <trkpt lat="42.7926390" lon="-89.7151660">
        <ele>300.5500000</ele>
        <time>2009-05-02T21:14:03Z</time>
      </trkpt>
      <trkpt lat="42.7927480" lon="-89.7149360">
        <ele>301.0300000</ele>
        <time>2009-05-02T21:14:04Z</time>
      </trkpt>
      <trkpt lat="42.7928770" lon="-89.7147060">
        <ele>301.0300000</ele>
        <time>2009-05-02T21:14:05Z</time>
      </trkpt>
      <trkpt lat="42.7936580" lon="-89.7130590">
        <ele>297.1800000</ele>
        <time>2009-05-02T21:14:12Z</time>
      </trkpt>
      <trkpt lat="42.7936800" lon="-89.7128130">
        <ele>296.2200000</ele>
        <time>2009-05-02T21:14:13Z</time>
      </trkpt>
      <trkpt lat="42.7936620" lon="-89.7126010">
        <ele>295.2600000</ele>
        <time>2009-05-02T21:14:14Z</time>
      </trkpt>
      <trkpt lat="42.7936130" lon="-89.7123830">
        <ele>294.7800000</ele>
        <time>2009-05-02T21:14:15Z</time>
      </trkpt>
      <trkpt lat="42.7935580" lon="-89.7122270">
        <ele>293.8200000</ele>
        <time>2009-05-02T21:14:16Z</time>
      </trkpt>
      <trkpt lat="42.7934400" lon="-89.7120030">
        <ele>292.3800000</ele>
        <time>2009-05-02T21:14:17Z</time>
      </trkpt>
      <trkpt lat="42.7933200" lon="-89.7117750">
        <ele>291.4200000</ele>
        <time>2009-05-02T21:14:18Z</time>
      </trkpt>
      <trkpt lat="42.7931940" lon="-89.7115350">
        <ele>290.4600000</ele>
        <time>2009-05-02T21:14:19Z</time>
      </trkpt>
      <trkpt lat="42.7930720" lon="-89.7113020">
        <ele>289.9700000</ele>
        <time>2009-05-02T21:14:20Z</time>
      </trkpt>
      <trkpt lat="42.7925170" lon="-89.7101610">
        <ele>288.5300000</ele>
        <time>2009-05-02T21:14:25Z</time>
      </trkpt>
      <trkpt lat="42.7924890" lon="-89.7099050">
        <ele>287.0900000</ele>
        <time>2009-05-02T21:14:26Z</time>
      </trkpt>
      <trkpt lat="42.7924630" lon="-89.7096510">
        <ele>286.1300000</ele>
        <time>2009-05-02T21:14:27Z</time>
      </trkpt>
      <trkpt lat="42.7924370" lon="-89.7093940">
        <ele>285.1700000</ele>
        <time>2009-05-02T21:14:28Z</time>
      </trkpt>
      <trkpt lat="42.7924430" lon="-89.7091390">
        <ele>285.1700000</ele>
        <time>2009-05-02T21:14:29Z</time>
      </trkpt>
      <trkpt lat="42.7924520" lon="-89.7088570">
        <ele>284.6900000</ele>
        <time>2009-05-02T21:14:30Z</time>
      </trkpt>
      <trkpt lat="42.7924580" lon="-89.7054130">
        <ele>286.1300000</ele>
        <time>2009-05-02T21:14:42Z</time>
      </trkpt>
      <trkpt lat="42.7923860" lon="-89.7051530">
        <ele>285.6500000</ele>
        <time>2009-05-02T21:14:43Z</time>
      </trkpt>
      <trkpt lat="42.7922990" lon="-89.7048920">
        <ele>285.6500000</ele>
        <time>2009-05-02T21:14:44Z</time>
      </trkpt>
      <trkpt lat="42.7922120" lon="-89.7046370">
        <ele>285.1700000</ele>
        <time>2009-05-02T21:14:45Z</time>
      </trkpt>
      <trkpt lat="42.7921060" lon="-89.7043870">
        <ele>284.6900000</ele>
        <time>2009-05-02T21:14:46Z</time>
      </trkpt>
      <trkpt lat="42.7912570" lon="-89.7020430">
        <ele>284.6900000</ele>
        <time>2009-05-02T21:14:55Z</time>
      </trkpt>
      <trkpt lat="42.7910740" lon="-89.6994750">
        <ele>280.8400000</ele>
        <time>2009-05-02T21:15:04Z</time>
      </trkpt>
      <trkpt lat="42.7913620" lon="-89.6963220">
        <ele>278.9200000</ele>
        <time>2009-05-02T21:15:15Z</time>
      </trkpt>
      <trkpt lat="42.7912550" lon="-89.6946040">
        <ele>278.9200000</ele>
        <time>2009-05-02T21:15:21Z</time>
      </trkpt>
      <trkpt lat="42.7908650" lon="-89.6911930">
        <ele>278.4400000</ele>
        <time>2009-05-02T21:15:33Z</time>
      </trkpt>
      <trkpt lat="42.7902230" lon="-89.6890950">
        <ele>278.4400000</ele>
        <time>2009-05-02T21:15:41Z</time>
      </trkpt>
      <trkpt lat="42.7891850" lon="-89.6859450">
        <ele>274.1100000</ele>
        <time>2009-05-02T21:15:53Z</time>
      </trkpt>
      <trkpt lat="42.7880700" lon="-89.6831870">
        <ele>274.1100000</ele>
        <time>2009-05-02T21:16:04Z</time>
      </trkpt>
      <trkpt lat="42.7870120" lon="-89.6812060">
        <ele>278.9200000</ele>
        <time>2009-05-02T21:16:13Z</time>
      </trkpt>
      <trkpt lat="42.7869720" lon="-89.6809490">
        <ele>277.9600000</ele>
        <time>2009-05-02T21:16:14Z</time>
      </trkpt>
      <trkpt lat="42.7869420" lon="-89.6807540">
        <ele>277.0000000</ele>
        <time>2009-05-02T21:16:15Z</time>
      </trkpt>
      <trkpt lat="42.7869660" lon="-89.6805120">
        <ele>276.5200000</ele>
        <time>2009-05-02T21:16:16Z</time>
      </trkpt>
      <trkpt lat="42.7869910" lon="-89.6803030">
        <ele>276.0400000</ele>
        <time>2009-05-02T21:16:17Z</time>
      </trkpt>
      <trkpt lat="42.7870530" lon="-89.6800880">
        <ele>275.5600000</ele>
        <time>2009-05-02T21:16:18Z</time>
      </trkpt>
      <trkpt lat="42.7871440" lon="-89.6799220">
        <ele>274.5900000</ele>
        <time>2009-05-02T21:16:19Z</time>
      </trkpt>
      <trkpt lat="42.7872700" lon="-89.6797460">
        <ele>274.5900000</ele>
        <time>2009-05-02T21:16:20Z</time>
      </trkpt>
      <trkpt lat="42.7874140" lon="-89.6796240">
        <ele>275.0700000</ele>
        <time>2009-05-02T21:16:21Z</time>
      </trkpt>
      <trkpt lat="42.7875820" lon="-89.6794930">
        <ele>275.5600000</ele>
        <time>2009-05-02T21:16:22Z</time>
      </trkpt>
      <trkpt lat="42.7877340" lon="-89.6794130">
        <ele>275.5600000</ele>
        <time>2009-05-02T21:16:23Z</time>
      </trkpt>
      <trkpt lat="42.7879460" lon="-89.6793810">
        <ele>275.5600000</ele>
        <time>2009-05-02T21:16:24Z</time>
      </trkpt>
      <trkpt lat="42.7881530" lon="-89.6793810">
        <ele>275.0700000</ele>
        <time>2009-05-02T21:16:25Z</time>
      </trkpt>
      <trkpt lat="42.7883530" lon="-89.6793810">
        <ele>274.5900000</ele>
        <time>2009-05-02T21:16:26Z</time>
      </trkpt>
      <trkpt lat="42.7885440" lon="-89.6793810">
        <ele>273.6300000</ele>
        <time>2009-05-02T21:16:27Z</time>
      </trkpt>
      <trkpt lat="42.7916540" lon="-89.6794160">
        <ele>276.5200000</ele>
        <time>2009-05-02T21:16:43Z</time>
      </trkpt>
      <trkpt lat="42.7925420" lon="-89.6793270">
        <ele>280.3600000</ele>
        <time>2009-05-02T21:16:48Z</time>
      </trkpt>
      <trkpt lat="42.7926750" lon="-89.6792340">
        <ele>280.8400000</ele>
        <time>2009-05-02T21:16:49Z</time>
      </trkpt>
      <trkpt lat="42.7928050" lon="-89.6791190">
        <ele>281.8000000</ele>
        <time>2009-05-02T21:16:50Z</time>
      </trkpt>
      <trkpt lat="42.7929110" lon="-89.6790250">
        <ele>282.2800000</ele>
        <time>2009-05-02T21:16:51Z</time>
      </trkpt>
      <trkpt lat="42.7930060" lon="-89.6789230">
        <ele>282.2800000</ele>
        <time>2009-05-02T21:16:52Z</time>
      </trkpt>
      <trkpt lat="42.7930720" lon="-89.6787760">
        <ele>282.7700000</ele>
        <time>2009-05-02T21:16:53Z</time>
      </trkpt>
      <trkpt lat="42.7931420" lon="-89.6786190">
        <ele>283.7300000</ele>
        <time>2009-05-02T21:16:54Z</time>
      </trkpt>
      <trkpt lat="42.7932160" lon="-89.6784550">
        <ele>284.6900000</ele>
        <time>2009-05-02T21:16:55Z</time>
      </trkpt>
      <trkpt lat="42.7939840" lon="-89.6770590">
        <ele>293.3400000</ele>
        <time>2009-05-02T21:17:03Z</time>
      </trkpt>
      <trkpt lat="42.7945290" lon="-89.6765010">
        <ele>298.1500000</ele>
        <time>2009-05-02T21:17:09Z</time>
      </trkpt>
      <trkpt lat="42.7946100" lon="-89.6764180">
        <ele>300.0700000</ele>
        <time>2009-05-02T21:17:12Z</time>
      </trkpt>
      <trkpt lat="42.7946120" lon="-89.6764240">
        <ele>299.5900000</ele>
        <time>2009-05-02T21:17:16Z</time>
      </trkpt>
      <trkpt lat="42.7945990" lon="-89.6764080">
        <ele>298.6300000</ele>
        <time>2009-05-02T21:17:18Z</time>
      </trkpt>
      <trkpt lat="42.7945240" lon="-89.6765060">
        <ele>297.1800000</ele>
        <time>2009-05-02T21:17:21Z</time>
      </trkpt>
      <trkpt lat="42.7939500" lon="-89.6771080">
        <ele>290.4600000</ele>
        <time>2009-05-02T21:17:30Z</time>
      </trkpt>
      <trkpt lat="42.7932320" lon="-89.6784190">
        <ele>282.2800000</ele>
        <time>2009-05-02T21:17:42Z</time>
      </trkpt>
      <trkpt lat="42.7929370" lon="-89.6790010">
        <ele>279.8800000</ele>
        <time>2009-05-02T21:17:47Z</time>
      </trkpt>
      <trkpt lat="42.7928490" lon="-89.6790790">
        <ele>279.4000000</ele>
        <time>2009-05-02T21:17:48Z</time>
      </trkpt>
      <trkpt lat="42.7927580" lon="-89.6791610">
        <ele>279.8800000</ele>
        <time>2009-05-02T21:17:49Z</time>
      </trkpt>
      <trkpt lat="42.7926630" lon="-89.6792450">
        <ele>279.8800000</ele>
        <time>2009-05-02T21:17:50Z</time>
      </trkpt>
      <trkpt lat="42.7925630" lon="-89.6793160">
        <ele>279.8800000</ele>
        <time>2009-05-02T21:17:51Z</time>
      </trkpt>
      <trkpt lat="42.7924550" lon="-89.6793710">
        <ele>279.8800000</ele>
        <time>2009-05-02T21:17:52Z</time>
      </trkpt>
      <trkpt lat="42.7923440" lon="-89.6794230">
        <ele>279.8800000</ele>
        <time>2009-05-02T21:17:53Z</time>
      </trkpt>
      <trkpt lat="42.7922290" lon="-89.6794230">
        <ele>279.4000000</ele>
        <time>2009-05-02T21:17:54Z</time>
      </trkpt>
      <trkpt lat="42.7921100" lon="-89.6794230">
        <ele>278.9200000</ele>
        <time>2009-05-02T21:17:55Z</time>
      </trkpt>
      <trkpt lat="42.7919840" lon="-89.6794220">
        <ele>278.9200000</ele>
        <time>2009-05-02T21:17:56Z</time>
      </trkpt>
      <trkpt lat="42.7903160" lon="-89.6793920">
        <ele>272.1900000</ele>
        <time>2009-05-02T21:18:08Z</time>
      </trkpt>
      <trkpt lat="42.7885750" lon="-89.6793810">
        <ele>273.1500000</ele>
        <time>2009-05-02T21:18:21Z</time>
      </trkpt>
      <trkpt lat="42.7876670" lon="-89.6794270">
        <ele>273.6300000</ele>
        <time>2009-05-02T21:18:27Z</time>
      </trkpt>
      <trkpt lat="42.7875440" lon="-89.6795220">
        <ele>273.1500000</ele>
        <time>2009-05-02T21:18:28Z</time>
      </trkpt>
      <trkpt lat="42.7874190" lon="-89.6796200">
        <ele>272.6700000</ele>
        <time>2009-05-02T21:18:29Z</time>
      </trkpt>
      <trkpt lat="42.7872940" lon="-89.6797170">
        <ele>272.1900000</ele>
        <time>2009-05-02T21:18:30Z</time>
      </trkpt>
      <trkpt lat="42.7871970" lon="-89.6798470">
        <ele>271.2300000</ele>
        <time>2009-05-02T21:18:31Z</time>
      </trkpt>
      <trkpt lat="42.7870930" lon="-89.6799920">
        <ele>271.2300000</ele>
        <time>2009-05-02T21:18:32Z</time>
      </trkpt>
      <trkpt lat="42.7870310" lon="-89.6801650">
        <ele>270.2700000</ele>
        <time>2009-05-02T21:18:33Z</time>
      </trkpt>
      <trkpt lat="42.7869830" lon="-89.6803410">
        <ele>269.7900000</ele>
        <time>2009-05-02T21:18:34Z</time>
      </trkpt>
      <trkpt lat="42.7869640" lon="-89.6805360">
        <ele>269.3100000</ele>
        <time>2009-05-02T21:18:35Z</time>
      </trkpt>
      <trkpt lat="42.7869430" lon="-89.6807420">
        <ele>269.3100000</ele>
        <time>2009-05-02T21:18:36Z</time>
      </trkpt>
      <trkpt lat="42.7869680" lon="-89.6809220">
        <ele>269.3100000</ele>
        <time>2009-05-02T21:18:37Z</time>
      </trkpt>
      <trkpt lat="42.7869980" lon="-89.6811160">
        <ele>269.3100000</ele>
        <time>2009-05-02T21:18:38Z</time>
      </trkpt>
      <trkpt lat="42.7870260" lon="-89.6813000">
        <ele>269.3100000</ele>
        <time>2009-05-02T21:18:39Z</time>
      </trkpt>
      <trkpt lat="42.7870950" lon="-89.6814370">
        <ele>269.3100000</ele>
        <time>2009-05-02T21:18:40Z</time>
      </trkpt>
      <trkpt lat="42.7871620" lon="-89.6815610">
        <ele>270.2700000</ele>
        <time>2009-05-02T21:18:41Z</time>
      </trkpt>
      <trkpt lat="42.7872180" lon="-89.6816640">
        <ele>270.2700000</ele>
        <time>2009-05-02T21:18:42Z</time>
      </trkpt>
      <trkpt lat="42.7872630" lon="-89.6817490">
        <ele>270.7500000</ele>
        <time>2009-05-02T21:18:43Z</time>
      </trkpt>
      <trkpt lat="42.7872920" lon="-89.6818020">
        <ele>271.2300000</ele>
        <time>2009-05-02T21:18:44Z</time>
      </trkpt>
      <trkpt lat="42.7871900" lon="-89.6818700">
        <ele>270.7500000</ele>
        <time>2009-05-02T21:18:45Z</time>
      </trkpt>
      <trkpt lat="42.7871070" lon="-89.6818700">
        <ele>270.7500000</ele>
        <time>2009-05-02T21:18:46Z</time>
      </trkpt>
      <trkpt lat="42.7869970" lon="-89.6818700">
        <ele>269.7900000</ele>
        <time>2009-05-02T21:18:47Z</time>
      </trkpt>
      <trkpt lat="42.7868750" lon="-89.6818700">
        <ele>269.7900000</ele>
        <time>2009-05-02T21:18:48Z</time>
      </trkpt>
      <trkpt lat="42.7867480" lon="-89.6818700">
        <ele>269.3100000</ele>
        <time>2009-05-02T21:18:49Z</time>
      </trkpt>
      <trkpt lat="42.7859800" lon="-89.6818700">
        <ele>269.7900000</ele>
        <time>2009-05-02T21:18:57Z</time>
      </trkpt>
      <trkpt lat="42.7850940" lon="-89.6819430">
        <ele>270.2700000</ele>
        <time>2009-05-02T21:19:04Z</time>
      </trkpt>
      <trkpt lat="42.7849410" lon="-89.6819360">
        <ele>270.2700000</ele>
        <time>2009-05-02T21:19:05Z</time>
      </trkpt>
      <trkpt lat="42.7847910" lon="-89.6818930">
        <ele>270.2700000</ele>
        <time>2009-05-02T21:19:06Z</time>
      </trkpt>
      <trkpt lat="42.7846450" lon="-89.6818300">
        <ele>270.2700000</ele>
        <time>2009-05-02T21:19:07Z</time>
      </trkpt>
      <trkpt lat="42.7844990" lon="-89.6817410">
        <ele>269.7900000</ele>
        <time>2009-05-02T21:19:08Z</time>
      </trkpt>
      <trkpt lat="42.7843430" lon="-89.6816470">
        <ele>270.2700000</ele>
        <time>2009-05-02T21:19:09Z</time>
      </trkpt>
      <trkpt lat="42.7823480" lon="-89.6803220">
        <ele>275.0700000</ele>
        <time>2009-05-02T21:19:22Z</time>
      </trkpt>
      <trkpt lat="42.7812170" lon="-89.6788960">
        <ele>278.9200000</ele>
        <time>2009-05-02T21:19:31Z</time>
      </trkpt>
      <trkpt lat="42.7799640" lon="-89.6773130">
        <ele>281.8000000</ele>
        <time>2009-05-02T21:19:41Z</time>
      </trkpt>
      <trkpt lat="42.7787040" lon="-89.6762600">
        <ele>276.0400000</ele>
        <time>2009-05-02T21:19:50Z</time>
      </trkpt>
      <trkpt lat="42.7780800" lon="-89.6760760">
        <ele>266.9000000</ele>
        <time>2009-05-02T21:19:56Z</time>
      </trkpt>
      <trkpt lat="42.7779380" lon="-89.6760570">
        <ele>266.4200000</ele>
        <time>2009-05-02T21:19:58Z</time>
      </trkpt>
      <trkpt lat="42.7778880" lon="-89.6760500">
        <ele>266.4200000</ele>
        <time>2009-05-02T21:19:59Z</time>
      </trkpt>
      <trkpt lat="42.7778440" lon="-89.6760450">
        <ele>266.4200000</ele>
        <time>2009-05-02T21:20:00Z</time>
      </trkpt>
      <trkpt lat="42.7778080" lon="-89.6760400">
        <ele>266.9000000</ele>
        <time>2009-05-02T21:20:01Z</time>
      </trkpt>
      <trkpt lat="42.7778140" lon="-89.6760400">
        <ele>266.4200000</ele>
        <time>2009-05-02T21:20:02Z</time>
      </trkpt>
      <trkpt lat="42.7777560" lon="-89.6760690">
        <ele>265.9400000</ele>
        <time>2009-05-02T21:20:03Z</time>
      </trkpt>
      <trkpt lat="42.7777570" lon="-89.6760510">
        <ele>264.9800000</ele>
        <time>2009-05-02T21:20:04Z</time>
      </trkpt>
      <trkpt lat="42.7781150" lon="-89.6760810">
        <ele>265.4600000</ele>
        <time>2009-05-02T21:20:06Z</time>
      </trkpt>
      <trkpt lat="42.7782280" lon="-89.6760960">
        <ele>266.4200000</ele>
        <time>2009-05-02T21:20:07Z</time>
      </trkpt>
      <trkpt lat="42.7790830" lon="-89.6764500">
        <ele>270.7500000</ele>
        <time>2009-05-02T21:20:13Z</time>
      </trkpt>
      <trkpt lat="42.7800860" lon="-89.6774510">
        <ele>269.7900000</ele>
        <time>2009-05-02T21:20:21Z</time>
      </trkpt>
      <trkpt lat="42.7804520" lon="-89.6778670">
        <ele>270.7500000</ele>
        <time>2009-05-02T21:20:25Z</time>
      </trkpt>
      <trkpt lat="42.7804800" lon="-89.6779020">
        <ele>271.7100000</ele>
        <time>2009-05-02T21:20:26Z</time>
      </trkpt>
      <trkpt lat="42.7805910" lon="-89.6777280">
        <ele>272.6700000</ele>
        <time>2009-05-02T21:20:27Z</time>
      </trkpt>
      <trkpt lat="42.7806510" lon="-89.6776580">
        <ele>273.1500000</ele>
        <time>2009-05-02T21:20:28Z</time>
      </trkpt>
      <trkpt lat="42.7807190" lon="-89.6775790">
        <ele>274.1100000</ele>
        <time>2009-05-02T21:20:29Z</time>
      </trkpt>
      <trkpt lat="42.7807770" lon="-89.6774820">
        <ele>274.5900000</ele>
        <time>2009-05-02T21:20:30Z</time>
      </trkpt>
      <trkpt lat="42.7808460" lon="-89.6773660">
        <ele>275.0700000</ele>
        <time>2009-05-02T21:20:31Z</time>
      </trkpt>
      <trkpt lat="42.7815060" lon="-89.6762620">
        <ele>277.0000000</ele>
        <time>2009-05-02T21:20:38Z</time>
      </trkpt>
      <trkpt lat="42.7828480" lon="-89.6740170">
        <ele>281.3200000</ele>
        <time>2009-05-02T21:20:51Z</time>
      </trkpt>
      <trkpt lat="42.7830550" lon="-89.6735310">
        <ele>282.7700000</ele>
        <time>2009-05-02T21:20:54Z</time>
      </trkpt>
      <trkpt lat="42.7833150" lon="-89.6729120">
        <ele>286.6100000</ele>
        <time>2009-05-02T21:20:58Z</time>
      </trkpt>
      <trkpt lat="42.7837280" lon="-89.6722820">
        <ele>290.4600000</ele>
        <time>2009-05-02T21:21:03Z</time>
      </trkpt>
      <trkpt lat="42.7838330" lon="-89.6721690">
        <ele>291.4200000</ele>
        <time>2009-05-02T21:21:04Z</time>
      </trkpt>
      <trkpt lat="42.7849310" lon="-89.6709110">
        <ele>300.5500000</ele>
        <time>2009-05-02T21:21:14Z</time>
      </trkpt>
      <trkpt lat="42.7850200" lon="-89.6707580">
        <ele>301.9900000</ele>
        <time>2009-05-02T21:21:15Z</time>
      </trkpt>
      <trkpt lat="42.7850590" lon="-89.6705810">
        <ele>303.4300000</ele>
        <time>2009-05-02T21:21:16Z</time>
      </trkpt>
      <trkpt lat="42.7850970" lon="-89.6704090">
        <ele>304.3900000</ele>
        <time>2009-05-02T21:21:17Z</time>
      </trkpt>
      <trkpt lat="42.7850970" lon="-89.6702210">
        <ele>305.3600000</ele>
        <time>2009-05-02T21:21:18Z</time>
      </trkpt>
      <trkpt lat="42.7850970" lon="-89.6700330">
        <ele>306.3200000</ele>
        <time>2009-05-02T21:21:19Z</time>
      </trkpt>
      <trkpt lat="42.7850970" lon="-89.6698460">
        <ele>307.7600000</ele>
        <time>2009-05-02T21:21:20Z</time>
      </trkpt>
      <trkpt lat="42.7850970" lon="-89.6696590">
        <ele>308.7200000</ele>
        <time>2009-05-02T21:21:21Z</time>
      </trkpt>
      <trkpt lat="42.7850970" lon="-89.6694710">
        <ele>309.6800000</ele>
        <time>2009-05-02T21:21:22Z</time>
      </trkpt>
      <trkpt lat="42.7850970" lon="-89.6672780">
        <ele>316.8900000</ele>
        <time>2009-05-02T21:21:32Z</time>
      </trkpt>
      <trkpt lat="42.7851880" lon="-89.6668220">
        <ele>316.4100000</ele>
        <time>2009-05-02T21:21:34Z</time>
      </trkpt>
      <trkpt lat="42.7852350" lon="-89.6665840">
        <ele>315.9300000</ele>
        <time>2009-05-02T21:21:35Z</time>
      </trkpt>
      <trkpt lat="42.7852810" lon="-89.6663570">
        <ele>316.8900000</ele>
        <time>2009-05-02T21:21:36Z</time>
      </trkpt>
      <trkpt lat="42.7853300" lon="-89.6661650">
        <ele>317.3700000</ele>
        <time>2009-05-02T21:21:37Z</time>
      </trkpt>
      <trkpt lat="42.7854140" lon="-89.6659800">
        <ele>317.3700000</ele>
        <time>2009-05-02T21:21:38Z</time>
      </trkpt>
      <trkpt lat="42.7854980" lon="-89.6657950">
        <ele>316.8900000</ele>
        <time>2009-05-02T21:21:39Z</time>
      </trkpt>
      <trkpt lat="42.7855870" lon="-89.6656000">
        <ele>315.9300000</ele>
        <time>2009-05-02T21:21:40Z</time>
      </trkpt>
      <trkpt lat="42.7862110" lon="-89.6640190">
        <ele>304.8800000</ele>
        <time>2009-05-02T21:21:47Z</time>
      </trkpt>
      <trkpt lat="42.7863350" lon="-89.6638540">
        <ele>302.9500000</ele>
        <time>2009-05-02T21:21:48Z</time>
      </trkpt>
      <trkpt lat="42.7864670" lon="-89.6637290">
        <ele>301.5100000</ele>
        <time>2009-05-02T21:21:49Z</time>
      </trkpt>
      <trkpt lat="42.7866040" lon="-89.6636000">
        <ele>299.5900000</ele>
        <time>2009-05-02T21:21:50Z</time>
      </trkpt>
      <trkpt lat="42.7877260" lon="-89.6627070">
        <ele>308.2400000</ele>
        <time>2009-05-02T21:21:58Z</time>
      </trkpt>
      <trkpt lat="42.7884630" lon="-89.6621890">
        <ele>312.5700000</ele>
        <time>2009-05-02T21:22:03Z</time>
      </trkpt>
      <trkpt lat="42.7885460" lon="-89.6620540">
        <ele>312.0900000</ele>
        <time>2009-05-02T21:22:04Z</time>
      </trkpt>
      <trkpt lat="42.7885990" lon="-89.6618660">
        <ele>312.0900000</ele>
        <time>2009-05-02T21:22:05Z</time>
      </trkpt>
      <trkpt lat="42.7886410" lon="-89.6616570">
        <ele>312.0900000</ele>
        <time>2009-05-02T21:22:06Z</time>
      </trkpt>
      <trkpt lat="42.7886600" lon="-89.6614470">
        <ele>312.5700000</ele>
        <time>2009-05-02T21:22:07Z</time>
      </trkpt>
      <trkpt lat="42.7886620" lon="-89.6612190">
        <ele>313.0500000</ele>
        <time>2009-05-02T21:22:08Z</time>
      </trkpt>
      <trkpt lat="42.7886650" lon="-89.6609860">
        <ele>314.4900000</ele>
        <time>2009-05-02T21:22:09Z</time>
      </trkpt>
      <trkpt lat="42.7886960" lon="-89.6581670">
        <ele>329.3900000</ele>
        <time>2009-05-02T21:22:21Z</time>
      </trkpt>
      <trkpt lat="42.7887690" lon="-89.6575730">
        <ele>330.8300000</ele>
        <time>2009-05-02T21:22:24Z</time>
      </trkpt>
      <trkpt lat="42.7888570" lon="-89.6574170">
        <ele>330.8300000</ele>
        <time>2009-05-02T21:22:25Z</time>
      </trkpt>
      <trkpt lat="42.7889520" lon="-89.6572530">
        <ele>331.3100000</ele>
        <time>2009-05-02T21:22:26Z</time>
      </trkpt>
      <trkpt lat="42.7890510" lon="-89.6570830">
        <ele>331.7900000</ele>
        <time>2009-05-02T21:22:27Z</time>
      </trkpt>
      <trkpt lat="42.7891500" lon="-89.6569120">
        <ele>333.2300000</ele>
        <time>2009-05-02T21:22:28Z</time>
      </trkpt>
      <trkpt lat="42.7895600" lon="-89.6562060">
        <ele>336.1200000</ele>
        <time>2009-05-02T21:22:34Z</time>
      </trkpt>
      <trkpt lat="42.7895490" lon="-89.6561960">
        <ele>336.6000000</ele>
        <time>2009-05-02T21:22:35Z</time>
      </trkpt>
      <trkpt lat="42.7895020" lon="-89.6561480">
        <ele>336.6000000</ele>
        <time>2009-05-02T21:22:36Z</time>
      </trkpt>
      <trkpt lat="42.7894360" lon="-89.6560830">
        <ele>337.0800000</ele>
        <time>2009-05-02T21:22:37Z</time>
      </trkpt>
      <trkpt lat="42.7893390" lon="-89.6559710">
        <ele>336.1200000</ele>
        <time>2009-05-02T21:22:38Z</time>
      </trkpt>
      <trkpt lat="42.7892470" lon="-89.6558520">
        <ele>335.6400000</ele>
        <time>2009-05-02T21:22:39Z</time>
      </trkpt>
      <trkpt lat="42.7883210" lon="-89.6546570">
        <ele>330.3500000</ele>
        <time>2009-05-02T21:22:47Z</time>
      </trkpt>
      <trkpt lat="42.7867240" lon="-89.6527260">
        <ele>337.5600000</ele>
        <time>2009-05-02T21:22:59Z</time>
      </trkpt>
      <trkpt lat="42.7864920" lon="-89.6525480">
        <ele>339.0000000</ele>
        <time>2009-05-02T21:23:01Z</time>
      </trkpt>
      <trkpt lat="42.7863440" lon="-89.6524320">
        <ele>339.0000000</ele>
        <time>2009-05-02T21:23:02Z</time>
      </trkpt>
      <trkpt lat="42.7863500" lon="-89.6523650">
        <ele>339.0000000</ele>
        <time>2009-05-02T21:23:03Z</time>
      </trkpt>
      <trkpt lat="42.7863570" lon="-89.6522770">
        <ele>338.5200000</ele>
        <time>2009-05-02T21:23:04Z</time>
      </trkpt>
      <trkpt lat="42.7863660" lon="-89.6521650">
        <ele>338.5200000</ele>
        <time>2009-05-02T21:23:05Z</time>
      </trkpt>
      <trkpt lat="42.7863760" lon="-89.6520360">
        <ele>339.0000000</ele>
        <time>2009-05-02T21:23:06Z</time>
      </trkpt>
      <trkpt lat="42.7863870" lon="-89.6518930">
        <ele>339.0000000</ele>
        <time>2009-05-02T21:23:07Z</time>
      </trkpt>
      <trkpt lat="42.7864790" lon="-89.6505260">
        <ele>337.5600000</ele>
        <time>2009-05-02T21:23:14Z</time>
      </trkpt>
      <trkpt lat="42.7865750" lon="-89.6472740">
        <ele>339.0000000</ele>
        <time>2009-05-02T21:23:27Z</time>
      </trkpt>
      <trkpt lat="42.7865690" lon="-89.6459650">
        <ele>339.0000000</ele>
        <time>2009-05-02T21:23:32Z</time>
      </trkpt>
      <trkpt lat="42.7865070" lon="-89.6457350">
        <ele>338.0400000</ele>
        <time>2009-05-02T21:23:33Z</time>
      </trkpt>
      <trkpt lat="42.7864460" lon="-89.6455050">
        <ele>337.5600000</ele>
        <time>2009-05-02T21:23:34Z</time>
      </trkpt>
      <trkpt lat="42.7863790" lon="-89.6452830">
        <ele>337.0800000</ele>
        <time>2009-05-02T21:23:35Z</time>
      </trkpt>
      <trkpt lat="42.7863080" lon="-89.6450590">
        <ele>337.0800000</ele>
        <time>2009-05-02T21:23:36Z</time>
      </trkpt>
      <trkpt lat="42.7857770" lon="-89.6423070">
        <ele>334.6800000</ele>
        <time>2009-05-02T21:23:47Z</time>
      </trkpt>
      <trkpt lat="42.7857170" lon="-89.6373950">
        <ele>333.7100000</ele>
        <time>2009-05-02T21:24:04Z</time>
      </trkpt>
      <trkpt lat="42.7857770" lon="-89.6351680">
        <ele>337.5600000</ele>
        <time>2009-05-02T21:24:13Z</time>
      </trkpt>
      <trkpt lat="42.7858470" lon="-89.6348410">
        <ele>339.0000000</ele>
        <time>2009-05-02T21:24:15Z</time>
      </trkpt>
      <trkpt lat="42.7858940" lon="-89.6346900">
        <ele>339.4800000</ele>
        <time>2009-05-02T21:24:16Z</time>
      </trkpt>
      <trkpt lat="42.7859390" lon="-89.6345420">
        <ele>339.0000000</ele>
        <time>2009-05-02T21:24:17Z</time>
      </trkpt>
      <trkpt lat="42.7862010" lon="-89.6340160">
        <ele>338.0400000</ele>
        <time>2009-05-02T21:24:21Z</time>
      </trkpt>
      <trkpt lat="42.7866980" lon="-89.6329140">
        <ele>334.6800000</ele>
        <time>2009-05-02T21:24:29Z</time>
      </trkpt>
      <trkpt lat="42.7869200" lon="-89.6312770">
        <ele>332.7500000</ele>
        <time>2009-05-02T21:24:40Z</time>
      </trkpt>
      <trkpt lat="42.7869850" lon="-89.6297890">
        <ele>330.3500000</ele>
        <time>2009-05-02T21:24:50Z</time>
      </trkpt>
      <trkpt lat="42.7869720" lon="-89.6296450">
        <ele>329.8700000</ele>
        <time>2009-05-02T21:24:51Z</time>
      </trkpt>
      <trkpt lat="42.7868040" lon="-89.6292540">
        <ele>327.9500000</ele>
        <time>2009-05-02T21:24:54Z</time>
      </trkpt>
      <trkpt lat="42.7867290" lon="-89.6291180">
        <ele>326.9900000</ele>
        <time>2009-05-02T21:24:55Z</time>
      </trkpt>
      <trkpt lat="42.7866500" lon="-89.6289750">
        <ele>326.9900000</ele>
        <time>2009-05-02T21:24:56Z</time>
      </trkpt>
      <trkpt lat="42.7863680" lon="-89.6281530">
        <ele>327.9500000</ele>
        <time>2009-05-02T21:25:02Z</time>
      </trkpt>
      <trkpt lat="42.7863560" lon="-89.6280700">
        <ele>327.4700000</ele>
        <time>2009-05-02T21:25:03Z</time>
      </trkpt>
      <trkpt lat="42.7863490" lon="-89.6280200">
        <ele>327.4700000</ele>
        <time>2009-05-02T21:25:04Z</time>
      </trkpt>
      <trkpt lat="42.7863490" lon="-89.6280200">
        <ele>323.1400000</ele>
        <time>2009-05-02T21:25:13Z</time>
      </trkpt>
      <trkpt lat="42.7863420" lon="-89.6279710">
        <ele>322.6600000</ele>
        <time>2009-05-02T21:25:18Z</time>
      </trkpt>
      <trkpt lat="42.7863700" lon="-89.6279740">
        <ele>322.6600000</ele>
        <time>2009-05-02T21:25:19Z</time>
      </trkpt>
      <trkpt lat="42.7864360" lon="-89.6279890">
        <ele>323.1400000</ele>
        <time>2009-05-02T21:25:20Z</time>
      </trkpt>
      <trkpt lat="42.7865250" lon="-89.6280090">
        <ele>322.1800000</ele>
        <time>2009-05-02T21:25:21Z</time>
      </trkpt>
      <trkpt lat="42.7866290" lon="-89.6280320">
        <ele>322.6600000</ele>
        <time>2009-05-02T21:25:22Z</time>
      </trkpt>
      <trkpt lat="42.7867400" lon="-89.6280560">
        <ele>322.6600000</ele>
        <time>2009-05-02T21:25:23Z</time>
      </trkpt>
      <trkpt lat="42.7875670" lon="-89.6282420">
        <ele>322.6600000</ele>
        <time>2009-05-02T21:25:28Z</time>
      </trkpt>
      <trkpt lat="42.7899400" lon="-89.6290840">
        <ele>312.5700000</ele>
        <time>2009-05-02T21:25:40Z</time>
      </trkpt>
      <trkpt lat="42.7930540" lon="-89.6308800">
        <ele>294.3000000</ele>
        <time>2009-05-02T21:25:55Z</time>
      </trkpt>
      <trkpt lat="42.7957280" lon="-89.6321060">
        <ele>274.1100000</ele>
        <time>2009-05-02T21:26:08Z</time>
      </trkpt>
      <trkpt lat="42.7983870" lon="-89.6326630">
        <ele>265.9400000</ele>
        <time>2009-05-02T21:26:20Z</time>
      </trkpt>
      <trkpt lat="42.8010780" lon="-89.6325820">
        <ele>263.5400000</ele>
        <time>2009-05-02T21:26:32Z</time>
      </trkpt>
      <trkpt lat="42.8046070" lon="-89.6319850">
        <ele>263.5400000</ele>
        <time>2009-05-02T21:26:48Z</time>
      </trkpt>
      <trkpt lat="42.8063810" lon="-89.6316590">
        <ele>263.0600000</ele>
        <time>2009-05-02T21:26:58Z</time>
      </trkpt>
      <trkpt lat="42.8086700" lon="-89.6313530">
        <ele>261.6200000</ele>
        <time>2009-05-02T21:27:13Z</time>
      </trkpt>
      <trkpt lat="42.8114830" lon="-89.6312750">
        <ele>261.6200000</ele>
        <time>2009-05-02T21:27:32Z</time>
      </trkpt>
      <trkpt lat="42.8136310" lon="-89.6313660">
        <ele>263.0600000</ele>
        <time>2009-05-02T21:27:49Z</time>
      </trkpt>
      <trkpt lat="42.8144660" lon="-89.6313490">
        <ele>262.5800000</ele>
        <time>2009-05-02T21:27:58Z</time>
      </trkpt>
      <trkpt lat="42.8145110" lon="-89.6313140">
        <ele>262.1000000</ele>
        <time>2009-05-02T21:27:59Z</time>
      </trkpt>
      <trkpt lat="42.8145510" lon="-89.6312530">
        <ele>262.5800000</ele>
        <time>2009-05-02T21:28:00Z</time>
      </trkpt>
      <trkpt lat="42.8145680" lon="-89.6311700">
        <ele>262.1000000</ele>
        <time>2009-05-02T21:28:01Z</time>
      </trkpt>
      <trkpt lat="42.8145730" lon="-89.6310660">
        <ele>261.6200000</ele>
        <time>2009-05-02T21:28:02Z</time>
      </trkpt>
      <trkpt lat="42.8145740" lon="-89.6309480">
        <ele>261.1400000</ele>
        <time>2009-05-02T21:28:03Z</time>
      </trkpt>
      <trkpt lat="42.8145670" lon="-89.6304370">
        <ele>260.6500000</ele>
        <time>2009-05-02T21:28:07Z</time>
      </trkpt>
      <trkpt lat="42.8145470" lon="-89.6303200">
        <ele>260.1700000</ele>
        <time>2009-05-02T21:28:08Z</time>
      </trkpt>
      <trkpt lat="42.8145120" lon="-89.6302150">
        <ele>260.1700000</ele>
        <time>2009-05-02T21:28:09Z</time>
      </trkpt>
      <trkpt lat="42.8144410" lon="-89.6301310">
        <ele>259.6900000</ele>
        <time>2009-05-02T21:28:10Z</time>
      </trkpt>
      <trkpt lat="42.8143600" lon="-89.6300690">
        <ele>259.2100000</ele>
        <time>2009-05-02T21:28:11Z</time>
      </trkpt>
      <trkpt lat="42.8142700" lon="-89.6300070">
        <ele>259.2100000</ele>
        <time>2009-05-02T21:28:12Z</time>
      </trkpt>
      <trkpt lat="42.8129730" lon="-89.6291030">
        <ele>259.2100000</ele>
        <time>2009-05-02T21:28:25Z</time>
      </trkpt>
      <trkpt lat="42.8128940" lon="-89.6290670">
        <ele>260.6500000</ele>
        <time>2009-05-02T21:28:26Z</time>
      </trkpt>
      <trkpt lat="42.8128460" lon="-89.6290000">
        <ele>261.6200000</ele>
        <time>2009-05-02T21:28:27Z</time>
      </trkpt>
      <trkpt lat="42.8128430" lon="-89.6289700">
        <ele>262.5800000</ele>
        <time>2009-05-02T21:28:28Z</time>
      </trkpt>
      <trkpt lat="42.8128890" lon="-89.6290180">
        <ele>263.0600000</ele>
        <time>2009-05-02T21:28:29Z</time>
      </trkpt>
      <trkpt lat="42.8130070" lon="-89.6290770">
        <ele>264.0200000</ele>
        <time>2009-05-02T21:28:31Z</time>
      </trkpt>
      <trkpt lat="42.8131000" lon="-89.6291390">
        <ele>263.5400000</ele>
        <time>2009-05-02T21:28:32Z</time>
      </trkpt>
      <trkpt lat="42.8132010" lon="-89.6292080">
        <ele>263.5400000</ele>
        <time>2009-05-02T21:28:33Z</time>
      </trkpt>
      <trkpt lat="42.8141330" lon="-89.6299320">
        <ele>262.1000000</ele>
        <time>2009-05-02T21:28:41Z</time>
      </trkpt>
      <trkpt lat="42.8145130" lon="-89.6301490">
        <ele>264.5000000</ele>
        <time>2009-05-02T21:28:46Z</time>
      </trkpt>
      <trkpt lat="42.8145510" lon="-89.6301400">
        <ele>264.5000000</ele>
        <time>2009-05-02T21:28:47Z</time>
      </trkpt>
      <trkpt lat="42.8145690" lon="-89.6300590">
        <ele>264.5000000</ele>
        <time>2009-05-02T21:28:48Z</time>
      </trkpt>
      <trkpt lat="42.8145990" lon="-89.6299530">
        <ele>264.5000000</ele>
        <time>2009-05-02T21:28:49Z</time>
      </trkpt>
      <trkpt lat="42.8146270" lon="-89.6298390">
        <ele>265.4600000</ele>
        <time>2009-05-02T21:28:50Z</time>
      </trkpt>
      <trkpt lat="42.8146430" lon="-89.6297050">
        <ele>266.4200000</ele>
        <time>2009-05-02T21:28:51Z</time>
      </trkpt>
      <trkpt lat="42.8146420" lon="-89.6295610">
        <ele>267.3800000</ele>
        <time>2009-05-02T21:28:52Z</time>
      </trkpt>
      <trkpt lat="42.8146220" lon="-89.6294030">
        <ele>268.3500000</ele>
        <time>2009-05-02T21:28:53Z</time>
      </trkpt>
      <trkpt lat="42.8145850" lon="-89.6292300">
        <ele>269.3100000</ele>
        <time>2009-05-02T21:28:54Z</time>
      </trkpt>
      <trkpt lat="42.8145300" lon="-89.6290540">
        <ele>270.2700000</ele>
        <time>2009-05-02T21:28:55Z</time>
      </trkpt>
      <trkpt lat="42.8143680" lon="-89.6287130">
        <ele>272.1900000</ele>
        <time>2009-05-02T21:28:57Z</time>
      </trkpt>
      <trkpt lat="42.8142130" lon="-89.6283770">
        <ele>275.0700000</ele>
        <time>2009-05-02T21:28:59Z</time>
      </trkpt>
      <trkpt lat="42.8141580" lon="-89.6281970">
        <ele>277.0000000</ele>
        <time>2009-05-02T21:29:00Z</time>
      </trkpt>
      <trkpt lat="42.8141160" lon="-89.6280080">
        <ele>278.4400000</ele>
        <time>2009-05-02T21:29:01Z</time>
      </trkpt>
      <trkpt lat="42.8140910" lon="-89.6278110">
        <ele>280.3600000</ele>
        <time>2009-05-02T21:29:02Z</time>
      </trkpt>
      <trkpt lat="42.8140780" lon="-89.6276140">
        <ele>282.2800000</ele>
        <time>2009-05-02T21:29:03Z</time>
      </trkpt>
      <trkpt lat="42.8140810" lon="-89.6274170">
        <ele>283.7300000</ele>
        <time>2009-05-02T21:29:04Z</time>
      </trkpt>
      <trkpt lat="42.8140960" lon="-89.6272190">
        <ele>286.1300000</ele>
        <time>2009-05-02T21:29:05Z</time>
      </trkpt>
      <trkpt lat="42.8141510" lon="-89.6270230">
        <ele>288.5300000</ele>
        <time>2009-05-02T21:29:06Z</time>
      </trkpt>
      <trkpt lat="42.8142270" lon="-89.6268370">
        <ele>289.9700000</ele>
        <time>2009-05-02T21:29:07Z</time>
      </trkpt>
      <trkpt lat="42.8143270" lon="-89.6266540">
        <ele>291.4200000</ele>
        <time>2009-05-02T21:29:08Z</time>
      </trkpt>
      <trkpt lat="42.8144150" lon="-89.6264520">
        <ele>292.8600000</ele>
        <time>2009-05-02T21:29:09Z</time>
      </trkpt>
      <trkpt lat="42.8145020" lon="-89.6262320">
        <ele>294.3000000</ele>
        <time>2009-05-02T21:29:10Z</time>
      </trkpt>
      <trkpt lat="42.8148570" lon="-89.6242590">
        <ele>302.9500000</ele>
        <time>2009-05-02T21:29:18Z</time>
      </trkpt>
      <trkpt lat="42.8148180" lon="-89.6240200">
        <ele>301.9900000</ele>
        <time>2009-05-02T21:29:19Z</time>
      </trkpt>
      <trkpt lat="42.8147900" lon="-89.6237730">
        <ele>302.4700000</ele>
        <time>2009-05-02T21:29:20Z</time>
      </trkpt>
      <trkpt lat="42.8147510" lon="-89.6235310">
        <ele>304.3900000</ele>
        <time>2009-05-02T21:29:21Z</time>
      </trkpt>
      <trkpt lat="42.8146240" lon="-89.6210810">
        <ele>321.7000000</ele>
        <time>2009-05-02T21:29:31Z</time>
      </trkpt>
      <trkpt lat="42.8144340" lon="-89.6179310">
        <ele>317.8500000</ele>
        <time>2009-05-02T21:29:43Z</time>
      </trkpt>
      <trkpt lat="42.8143800" lon="-89.6158320">
        <ele>304.8800000</ele>
        <time>2009-05-02T21:29:51Z</time>
      </trkpt>
      <trkpt lat="42.8142370" lon="-89.6141070">
        <ele>289.0100000</ele>
        <time>2009-05-02T21:29:58Z</time>
      </trkpt>
      <trkpt lat="42.8141010" lon="-89.6116550">
        <ele>275.5600000</ele>
        <time>2009-05-02T21:30:07Z</time>
      </trkpt>
      <trkpt lat="42.8138460" lon="-89.6055220">
        <ele>269.3100000</ele>
        <time>2009-05-02T21:30:30Z</time>
      </trkpt>
      <trkpt lat="42.8137960" lon="-89.6027380">
        <ele>283.2500000</ele>
        <time>2009-05-02T21:30:42Z</time>
      </trkpt>
      <trkpt lat="42.8137840" lon="-89.6025710">
        <ele>285.1700000</ele>
        <time>2009-05-02T21:30:44Z</time>
      </trkpt>
      <trkpt lat="42.8137610" lon="-89.6025020">
        <ele>285.6500000</ele>
        <time>2009-05-02T21:30:45Z</time>
      </trkpt>
      <trkpt lat="42.8137110" lon="-89.6024430">
        <ele>286.6100000</ele>
        <time>2009-05-02T21:30:46Z</time>
      </trkpt>
      <trkpt lat="42.8136410" lon="-89.6024020">
        <ele>287.5700000</ele>
        <time>2009-05-02T21:30:47Z</time>
      </trkpt>
      <trkpt lat="42.8135500" lon="-89.6023680">
        <ele>288.0500000</ele>
        <time>2009-05-02T21:30:48Z</time>
      </trkpt>
      <trkpt lat="42.8134440" lon="-89.6023320">
        <ele>288.5300000</ele>
        <time>2009-05-02T21:30:49Z</time>
      </trkpt>
      <trkpt lat="42.8125440" lon="-89.6017230">
        <ele>280.8400000</ele>
        <time>2009-05-02T21:30:56Z</time>
      </trkpt>
      <trkpt lat="42.8106430" lon="-89.6003620">
        <ele>273.6300000</ele>
        <time>2009-05-02T21:31:08Z</time>
      </trkpt>
      <trkpt lat="42.8091610" lon="-89.5993740">
        <ele>276.5200000</ele>
        <time>2009-05-02T21:31:17Z</time>
      </trkpt>
      <trkpt lat="42.8090460" lon="-89.5993050">
        <ele>276.5200000</ele>
        <time>2009-05-02T21:31:18Z</time>
      </trkpt>
      <trkpt lat="42.8084260" lon="-89.5985950">
        <ele>276.0400000</ele>
        <time>2009-05-02T21:31:24Z</time>
      </trkpt>
      <trkpt lat="42.8083710" lon="-89.5984630">
        <ele>276.5200000</ele>
        <time>2009-05-02T21:31:25Z</time>
      </trkpt>
      <trkpt lat="42.8083300" lon="-89.5983360">
        <ele>276.0400000</ele>
        <time>2009-05-02T21:31:26Z</time>
      </trkpt>
      <trkpt lat="42.8081300" lon="-89.5977530">
        <ele>271.7100000</ele>
        <time>2009-05-02T21:31:32Z</time>
      </trkpt>
      <trkpt lat="42.8080900" lon="-89.5977480">
        <ele>271.2300000</ele>
        <time>2009-05-02T21:31:33Z</time>
      </trkpt>
      <trkpt lat="42.8080480" lon="-89.5978060">
        <ele>270.2700000</ele>
        <time>2009-05-02T21:31:34Z</time>
      </trkpt>
      <trkpt lat="42.8080110" lon="-89.5979080">
        <ele>268.8300000</ele>
        <time>2009-05-02T21:31:35Z</time>
      </trkpt>
      <trkpt lat="42.8079730" lon="-89.5980510">
        <ele>268.3500000</ele>
        <time>2009-05-02T21:31:36Z</time>
      </trkpt>
      <trkpt lat="42.8079050" lon="-89.5981960">
        <ele>267.3800000</ele>
        <time>2009-05-02T21:31:37Z</time>
      </trkpt>
      <trkpt lat="42.8072420" lon="-89.5996350">
        <ele>258.7300000</ele>
        <time>2009-05-02T21:31:46Z</time>
      </trkpt>
      <trkpt lat="42.8071310" lon="-89.5997770">
        <ele>257.7700000</ele>
        <time>2009-05-02T21:31:47Z</time>
      </trkpt>
      <trkpt lat="42.8062020" lon="-89.6010010">
        <ele>253.9300000</ele>
        <time>2009-05-02T21:31:55Z</time>
      </trkpt>
      <trkpt lat="42.8051680" lon="-89.6025290">
        <ele>254.4100000</ele>
        <time>2009-05-02T21:32:05Z</time>
      </trkpt>
      <trkpt lat="42.8050290" lon="-89.6026230">
        <ele>255.3700000</ele>
        <time>2009-05-02T21:32:06Z</time>
      </trkpt>
      <trkpt lat="42.8048790" lon="-89.6026650">
        <ele>255.8500000</ele>
        <time>2009-05-02T21:32:07Z</time>
      </trkpt>
      <trkpt lat="42.8047110" lon="-89.6026730">
        <ele>256.8100000</ele>
        <time>2009-05-02T21:32:08Z</time>
      </trkpt>
      <trkpt lat="42.8045430" lon="-89.6026670">
        <ele>257.7700000</ele>
        <time>2009-05-02T21:32:09Z</time>
      </trkpt>
      <trkpt lat="42.8033300" lon="-89.6027040">
        <ele>260.1700000</ele>
        <time>2009-05-02T21:32:17Z</time>
      </trkpt>
      <trkpt lat="42.8032010" lon="-89.6027590">
        <ele>260.6500000</ele>
        <time>2009-05-02T21:32:18Z</time>
      </trkpt>
      <trkpt lat="42.8031050" lon="-89.6028590">
        <ele>260.1700000</ele>
        <time>2009-05-02T21:32:19Z</time>
      </trkpt>
      <trkpt lat="42.8030320" lon="-89.6029970">
        <ele>260.1700000</ele>
        <time>2009-05-02T21:32:20Z</time>
      </trkpt>
      <trkpt lat="42.8029610" lon="-89.6031690">
        <ele>260.1700000</ele>
        <time>2009-05-02T21:32:21Z</time>
      </trkpt>
      <trkpt lat="42.8029260" lon="-89.6033430">
        <ele>260.1700000</ele>
        <time>2009-05-02T21:32:22Z</time>
      </trkpt>
      <trkpt lat="42.8029080" lon="-89.6035270">
        <ele>260.6500000</ele>
        <time>2009-05-02T21:32:23Z</time>
      </trkpt>
      <trkpt lat="42.8029060" lon="-89.6037300">
        <ele>260.6500000</ele>
        <time>2009-05-02T21:32:24Z</time>
      </trkpt>
      <trkpt lat="42.8029170" lon="-89.6039660">
        <ele>260.6500000</ele>
        <time>2009-05-02T21:32:25Z</time>
      </trkpt>
      <trkpt lat="42.8029400" lon="-89.6042050">
        <ele>260.6500000</ele>
        <time>2009-05-02T21:32:26Z</time>
      </trkpt>
      <trkpt lat="42.8032090" lon="-89.6079550">
        <ele>259.6900000</ele>
        <time>2009-05-02T21:32:43Z</time>
      </trkpt>
      <trkpt lat="42.8032540" lon="-89.6125330">
        <ele>256.8100000</ele>
        <time>2009-05-02T21:33:03Z</time>
      </trkpt>
      <trkpt lat="42.8031970" lon="-89.6143450">
        <ele>259.6900000</ele>
        <time>2009-05-02T21:33:11Z</time>
      </trkpt>
      <trkpt lat="42.8031490" lon="-89.6145580">
        <ele>259.6900000</ele>
        <time>2009-05-02T21:33:12Z</time>
      </trkpt>
      <trkpt lat="42.8029470" lon="-89.6154370">
        <ele>260.6500000</ele>
        <time>2009-05-02T21:33:16Z</time>
      </trkpt>
      <trkpt lat="42.8029560" lon="-89.6156660">
        <ele>260.6500000</ele>
        <time>2009-05-02T21:33:17Z</time>
      </trkpt>
      <trkpt lat="42.8029950" lon="-89.6158930">
        <ele>260.1700000</ele>
        <time>2009-05-02T21:33:18Z</time>
      </trkpt>
      <trkpt lat="42.8030510" lon="-89.6160950">
        <ele>260.6500000</ele>
        <time>2009-05-02T21:33:19Z</time>
      </trkpt>
      <trkpt lat="42.8031130" lon="-89.6162360">
        <ele>260.1700000</ele>
        <time>2009-05-02T21:33:20Z</time>
      </trkpt>
      <trkpt lat="42.8033290" lon="-89.6167600">
        <ele>255.8500000</ele>
        <time>2009-05-02T21:33:26Z</time>
      </trkpt>
      <trkpt lat="42.8034380" lon="-89.6177020">
        <ele>254.4100000</ele>
        <time>2009-05-02T21:33:35Z</time>
      </trkpt>
      <trkpt lat="42.8034990" lon="-89.6190200">
        <ele>255.3700000</ele>
        <time>2009-05-02T21:33:41Z</time>
      </trkpt>
      <trkpt lat="42.8035860" lon="-89.6217200">
        <ele>257.2900000</ele>
        <time>2009-05-02T21:33:52Z</time>
      </trkpt>
      <trkpt lat="42.8036120" lon="-89.6224050">
        <ele>256.3300000</ele>
        <time>2009-05-02T21:33:58Z</time>
      </trkpt>
      <trkpt lat="42.8036460" lon="-89.6225090">
        <ele>255.8500000</ele>
        <time>2009-05-02T21:34:02Z</time>
      </trkpt>
      <trkpt lat="42.8036940" lon="-89.6225430">
        <ele>255.8500000</ele>
        <time>2009-05-02T21:34:03Z</time>
      </trkpt>
      <trkpt lat="42.8037650" lon="-89.6225680">
        <ele>256.3300000</ele>
        <time>2009-05-02T21:34:04Z</time>
      </trkpt>
      <trkpt lat="42.8038560" lon="-89.6225810">
        <ele>256.3300000</ele>
        <time>2009-05-02T21:34:05Z</time>
      </trkpt>
      <trkpt lat="42.8039610" lon="-89.6225830">
        <ele>256.8100000</ele>
        <time>2009-05-02T21:34:06Z</time>
      </trkpt>
      <trkpt lat="42.8040770" lon="-89.6225800">
        <ele>257.2900000</ele>
        <time>2009-05-02T21:34:07Z</time>
      </trkpt>
      <trkpt lat="42.8055190" lon="-89.6225690">
        <ele>265.4600000</ele>
        <time>2009-05-02T21:34:17Z</time>
      </trkpt>
      <trkpt lat="42.8070600" lon="-89.6224880">
        <ele>269.7900000</ele>
        <time>2009-05-02T21:34:28Z</time>
      </trkpt>
      <trkpt lat="42.8071550" lon="-89.6225240">
        <ele>269.7900000</ele>
        <time>2009-05-02T21:34:29Z</time>
      </trkpt>
      <trkpt lat="42.8072370" lon="-89.6226020">
        <ele>269.7900000</ele>
        <time>2009-05-02T21:34:30Z</time>
      </trkpt>
      <trkpt lat="42.8072990" lon="-89.6227440">
        <ele>269.7900000</ele>
        <time>2009-05-02T21:34:31Z</time>
      </trkpt>
      <trkpt lat="42.8073160" lon="-89.6229150">
        <ele>269.3100000</ele>
        <time>2009-05-02T21:34:32Z</time>
      </trkpt>
      <trkpt lat="42.8073210" lon="-89.6231050">
        <ele>268.8300000</ele>
        <time>2009-05-02T21:34:33Z</time>
      </trkpt>
      <trkpt lat="42.8073140" lon="-89.6233170">
        <ele>268.8300000</ele>
        <time>2009-05-02T21:34:34Z</time>
      </trkpt>
      <trkpt lat="42.8073070" lon="-89.6235190">
        <ele>269.3100000</ele>
        <time>2009-05-02T21:34:35Z</time>
      </trkpt>
      <trkpt lat="42.8073000" lon="-89.6251360">
        <ele>273.1500000</ele>
        <time>2009-05-02T21:34:45Z</time>
      </trkpt>
      <trkpt lat="42.8073970" lon="-89.6258630">
        <ele>271.7100000</ele>
        <time>2009-05-02T21:34:50Z</time>
      </trkpt>
      <trkpt lat="42.8074420" lon="-89.6259950">
        <ele>271.2300000</ele>
        <time>2009-05-02T21:34:51Z</time>
      </trkpt>
      <trkpt lat="42.8074980" lon="-89.6261150">
        <ele>271.2300000</ele>
        <time>2009-05-02T21:34:52Z</time>
      </trkpt>
      <trkpt lat="42.8075640" lon="-89.6262290">
        <ele>270.7500000</ele>
        <time>2009-05-02T21:34:53Z</time>
      </trkpt>
      <trkpt lat="42.8076400" lon="-89.6263280">
        <ele>270.2700000</ele>
        <time>2009-05-02T21:34:54Z</time>
      </trkpt>
      <trkpt lat="42.8077260" lon="-89.6264160">
        <ele>269.7900000</ele>
        <time>2009-05-02T21:34:55Z</time>
      </trkpt>
      <trkpt lat="42.8078340" lon="-89.6264860">
        <ele>269.7900000</ele>
        <time>2009-05-02T21:34:56Z</time>
      </trkpt>
      <trkpt lat="42.8079380" lon="-89.6265530">
        <ele>269.3100000</ele>
        <time>2009-05-02T21:34:57Z</time>
      </trkpt>
      <trkpt lat="42.8092820" lon="-89.6275870">
        <ele>265.9400000</ele>
        <time>2009-05-02T21:35:09Z</time>
      </trkpt>
    </trkseg>
  </trk>

  <trk>
    <name>090503_Sunday_1</name>
    <extensions>
      <gpxx:TrackExtension xmlns:gpxx="http://www.garmin.com/xmlschemas/GpxExtensions/v3">
        <gpxx:DisplayColor>White</gpxx:DisplayColor>
      </gpxx:TrackExtension>
    </extensions>
    <trkseg>
      <trkpt lat="42.8128580" lon="-89.6314920">
        <ele>266.9000000</ele>
        <time>2009-05-03T14:17:21Z</time>
      </trkpt>
      <trkpt lat="42.8128960" lon="-89.6315330">
        <ele>266.4200000</ele>
        <time>2009-05-03T14:32:53Z</time>
      </trkpt>
      <trkpt lat="42.8129200" lon="-89.6313860">
        <ele>266.9000000</ele>
        <time>2009-05-03T14:32:56Z</time>
      </trkpt>
      <trkpt lat="42.8129600" lon="-89.6313890">
        <ele>266.9000000</ele>
        <time>2009-05-03T14:32:57Z</time>
      </trkpt>
      <trkpt lat="42.8130250" lon="-89.6313950">
        <ele>266.4200000</ele>
        <time>2009-05-03T14:32:58Z</time>
      </trkpt>
      <trkpt lat="42.8131060" lon="-89.6314020">
        <ele>266.9000000</ele>
        <time>2009-05-03T14:32:59Z</time>
      </trkpt>
      <trkpt lat="42.8131950" lon="-89.6314100">
        <ele>266.9000000</ele>
        <time>2009-05-03T14:33:00Z</time>
      </trkpt>
      <trkpt lat="42.8140590" lon="-89.6314870">
        <ele>267.8600000</ele>
        <time>2009-05-03T14:33:08Z</time>
      </trkpt>
      <trkpt lat="42.8144520" lon="-89.6315220">
        <ele>268.3500000</ele>
        <time>2009-05-03T14:33:16Z</time>
      </trkpt>
      <trkpt lat="42.8145450" lon="-89.6315320">
        <ele>268.8300000</ele>
        <time>2009-05-03T14:33:20Z</time>
      </trkpt>
      <trkpt lat="42.8145370" lon="-89.6317130">
        <ele>268.3500000</ele>
        <time>2009-05-03T14:33:21Z</time>
      </trkpt>
      <trkpt lat="42.8145370" lon="-89.6318050">
        <ele>268.3500000</ele>
        <time>2009-05-03T14:33:22Z</time>
      </trkpt>
      <trkpt lat="42.8145370" lon="-89.6333210">
        <ele>271.2300000</ele>
        <time>2009-05-03T14:33:35Z</time>
      </trkpt>
      <trkpt lat="42.8145160" lon="-89.6357130">
        <ele>287.5700000</ele>
        <time>2009-05-03T14:33:55Z</time>
      </trkpt>
      <trkpt lat="42.8144940" lon="-89.6379060">
        <ele>294.3000000</ele>
        <time>2009-05-03T14:34:10Z</time>
      </trkpt>
      <trkpt lat="42.8144940" lon="-89.6409120">
        <ele>301.9900000</ele>
        <time>2009-05-03T14:34:29Z</time>
      </trkpt>
      <trkpt lat="42.8144700" lon="-89.6440130">
        <ele>308.2400000</ele>
        <time>2009-05-03T14:34:45Z</time>
      </trkpt>
      <trkpt lat="42.8144080" lon="-89.6477350">
        <ele>319.3000000</ele>
        <time>2009-05-03T14:35:02Z</time>
      </trkpt>
      <trkpt lat="42.8144630" lon="-89.6506600">
        <ele>326.9900000</ele>
        <time>2009-05-03T14:35:13Z</time>
      </trkpt>
      <trkpt lat="42.8150520" lon="-89.6533230">
        <ele>327.9500000</ele>
        <time>2009-05-03T14:35:22Z</time>
      </trkpt>
      <trkpt lat="42.8158800" lon="-89.6574690">
        <ele>329.8700000</ele>
        <time>2009-05-03T14:35:35Z</time>
      </trkpt>
      <trkpt lat="42.8168840" lon="-89.6629610">
        <ele>333.2300000</ele>
        <time>2009-05-03T14:35:52Z</time>
      </trkpt>
      <trkpt lat="42.8182620" lon="-89.6686350">
        <ele>340.4400000</ele>
        <time>2009-05-03T14:36:10Z</time>
      </trkpt>
      <trkpt lat="42.8183990" lon="-89.6689100">
        <ele>340.9200000</ele>
        <time>2009-05-03T14:36:11Z</time>
      </trkpt>
      <trkpt lat="42.8185460" lon="-89.6691690">
        <ele>341.8900000</ele>
        <time>2009-05-03T14:36:12Z</time>
      </trkpt>
      <trkpt lat="42.8186990" lon="-89.6694240">
        <ele>342.3700000</ele>
        <time>2009-05-03T14:36:13Z</time>
      </trkpt>
      <trkpt lat="42.8201870" lon="-89.6711460">
        <ele>343.3300000</ele>
        <time>2009-05-03T14:36:21Z</time>
      </trkpt>
      <trkpt lat="42.8234050" lon="-89.6736200">
        <ele>348.1300000</ele>
        <time>2009-05-03T14:36:36Z</time>
      </trkpt>
      <trkpt lat="42.8235900" lon="-89.6738350">
        <ele>348.1300000</ele>
        <time>2009-05-03T14:36:37Z</time>
      </trkpt>
      <trkpt lat="42.8237400" lon="-89.6740980">
        <ele>348.1300000</ele>
        <time>2009-05-03T14:36:38Z</time>
      </trkpt>
      <trkpt lat="42.8238550" lon="-89.6743940">
        <ele>348.1300000</ele>
        <time>2009-05-03T14:36:39Z</time>
      </trkpt>
      <trkpt lat="42.8239350" lon="-89.6746820">
        <ele>347.6500000</ele>
        <time>2009-05-03T14:36:40Z</time>
      </trkpt>
      <trkpt lat="42.8239350" lon="-89.6750140">
        <ele>347.1700000</ele>
        <time>2009-05-03T14:36:41Z</time>
      </trkpt>
      <trkpt lat="42.8239330" lon="-89.6753570">
        <ele>347.1700000</ele>
        <time>2009-05-03T14:36:42Z</time>
      </trkpt>
      <trkpt lat="42.8239290" lon="-89.6757030">
        <ele>346.6900000</ele>
        <time>2009-05-03T14:36:43Z</time>
      </trkpt>
      <trkpt lat="42.8239240" lon="-89.6760440">
        <ele>346.6900000</ele>
        <time>2009-05-03T14:36:44Z</time>
      </trkpt>
      <trkpt lat="42.8241420" lon="-89.6803370">
        <ele>348.6200000</ele>
        <time>2009-05-03T14:36:57Z</time>
      </trkpt>
      <trkpt lat="42.8251690" lon="-89.6844260">
        <ele>352.4600000</ele>
        <time>2009-05-03T14:37:10Z</time>
      </trkpt>
      <trkpt lat="42.8258170" lon="-89.6879210">
        <ele>352.4600000</ele>
        <time>2009-05-03T14:37:21Z</time>
      </trkpt>
      <trkpt lat="42.8262160" lon="-89.6917790">
        <ele>353.4200000</ele>
        <time>2009-05-03T14:37:33Z</time>
      </trkpt>
      <trkpt lat="42.8266130" lon="-89.6961490">
        <ele>355.3400000</ele>
        <time>2009-05-03T14:37:47Z</time>
      </trkpt>
      <trkpt lat="42.8268160" lon="-89.6992870">
        <ele>357.2700000</ele>
        <time>2009-05-03T14:37:57Z</time>
      </trkpt>
      <trkpt lat="42.8275890" lon="-89.7025950">
        <ele>356.3100000</ele>
        <time>2009-05-03T14:38:08Z</time>
      </trkpt>
      <trkpt lat="42.8290450" lon="-89.7072270">
        <ele>358.7100000</ele>
        <time>2009-05-03T14:38:24Z</time>
      </trkpt>
      <trkpt lat="42.8290580" lon="-89.7075370">
        <ele>359.1900000</ele>
        <time>2009-05-03T14:38:25Z</time>
      </trkpt>
      <trkpt lat="42.8290710" lon="-89.7078500">
        <ele>359.1900000</ele>
        <time>2009-05-03T14:38:26Z</time>
      </trkpt>
      <trkpt lat="42.8290850" lon="-89.7116130">
        <ele>357.2700000</ele>
        <time>2009-05-03T14:38:38Z</time>
      </trkpt>
      <trkpt lat="42.8289410" lon="-89.7147810">
        <ele>352.4600000</ele>
        <time>2009-05-03T14:38:48Z</time>
      </trkpt>
      <trkpt lat="42.8290680" lon="-89.7182290">
        <ele>340.4400000</ele>
        <time>2009-05-03T14:38:59Z</time>
      </trkpt>
      <trkpt lat="42.8296450" lon="-89.7195610">
        <ele>340.9200000</ele>
        <time>2009-05-03T14:39:04Z</time>
      </trkpt>
      <trkpt lat="42.8298090" lon="-89.7197720">
        <ele>340.9200000</ele>
        <time>2009-05-03T14:39:05Z</time>
      </trkpt>
      <trkpt lat="42.8299880" lon="-89.7199800">
        <ele>340.4400000</ele>
        <time>2009-05-03T14:39:06Z</time>
      </trkpt>
      <trkpt lat="42.8301700" lon="-89.7201920">
        <ele>340.9200000</ele>
        <time>2009-05-03T14:39:07Z</time>
      </trkpt>
      <trkpt lat="42.8303570" lon="-89.7203600">
        <ele>340.9200000</ele>
        <time>2009-05-03T14:39:08Z</time>
      </trkpt>
      <trkpt lat="42.8305680" lon="-89.7205130">
        <ele>340.9200000</ele>
        <time>2009-05-03T14:39:09Z</time>
      </trkpt>
      <trkpt lat="42.8307800" lon="-89.7206660">
        <ele>340.9200000</ele>
        <time>2009-05-03T14:39:10Z</time>
      </trkpt>
      <trkpt lat="42.8334620" lon="-89.7225720">
        <ele>343.3300000</ele>
        <time>2009-05-03T14:39:23Z</time>
      </trkpt>
      <trkpt lat="42.8364440" lon="-89.7260760">
        <ele>350.5400000</ele>
        <time>2009-05-03T14:39:40Z</time>
      </trkpt>
      <trkpt lat="42.8387520" lon="-89.7281890">
        <ele>362.0700000</ele>
        <time>2009-05-03T14:39:52Z</time>
      </trkpt>
      <trkpt lat="42.8399940" lon="-89.7300700">
        <ele>362.5500000</ele>
        <time>2009-05-03T14:40:00Z</time>
      </trkpt>
      <trkpt lat="42.8422500" lon="-89.7344770">
        <ele>356.7900000</ele>
        <time>2009-05-03T14:40:17Z</time>
      </trkpt>
      <trkpt lat="42.8429580" lon="-89.7364520">
        <ele>352.4600000</ele>
        <time>2009-05-03T14:40:24Z</time>
      </trkpt>
      <trkpt lat="42.8443910" lon="-89.7427970">
        <ele>352.9400000</ele>
        <time>2009-05-03T14:40:45Z</time>
      </trkpt>
      <trkpt lat="42.8455980" lon="-89.7462180">
        <ele>354.3800000</ele>
        <time>2009-05-03T14:40:57Z</time>
      </trkpt>
      <trkpt lat="42.8457060" lon="-89.7468350">
        <ele>354.3800000</ele>
        <time>2009-05-03T14:40:59Z</time>
      </trkpt>
      <trkpt lat="42.8457230" lon="-89.7471350">
        <ele>354.8600000</ele>
        <time>2009-05-03T14:41:00Z</time>
      </trkpt>
      <trkpt lat="42.8456890" lon="-89.7474420">
        <ele>355.3400000</ele>
        <time>2009-05-03T14:41:01Z</time>
      </trkpt>
      <trkpt lat="42.8456540" lon="-89.7477520">
        <ele>355.8300000</ele>
        <time>2009-05-03T14:41:02Z</time>
      </trkpt>
      <trkpt lat="42.8455840" lon="-89.7480300">
        <ele>356.3100000</ele>
        <time>2009-05-03T14:41:03Z</time>
      </trkpt>
      <trkpt lat="42.8455030" lon="-89.7483280">
        <ele>355.3400000</ele>
        <time>2009-05-03T14:41:04Z</time>
      </trkpt>
      <trkpt lat="42.8454210" lon="-89.7486300">
        <ele>354.8600000</ele>
        <time>2009-05-03T14:41:05Z</time>
      </trkpt>
      <trkpt lat="42.8440400" lon="-89.7536740">
        <ele>351.9800000</ele>
        <time>2009-05-03T14:41:22Z</time>
      </trkpt>
      <trkpt lat="42.8426460" lon="-89.7593790">
        <ele>350.5400000</ele>
        <time>2009-05-03T14:41:41Z</time>
      </trkpt>
      <trkpt lat="42.8426290" lon="-89.7632010">
        <ele>344.7700000</ele>
        <time>2009-05-03T14:41:53Z</time>
      </trkpt>
      <trkpt lat="42.8426060" lon="-89.7673330">
        <ele>344.7700000</ele>
        <time>2009-05-03T14:42:06Z</time>
      </trkpt>
      <trkpt lat="42.8426030" lon="-89.7717670">
        <ele>334.6800000</ele>
        <time>2009-05-03T14:42:20Z</time>
      </trkpt>
      <trkpt lat="42.8424870" lon="-89.7723430">
        <ele>335.1600000</ele>
        <time>2009-05-03T14:42:22Z</time>
      </trkpt>
      <trkpt lat="42.8424230" lon="-89.7726310">
        <ele>336.1200000</ele>
        <time>2009-05-03T14:42:23Z</time>
      </trkpt>
      <trkpt lat="42.8421820" lon="-89.7738320">
        <ele>342.3700000</ele>
        <time>2009-05-03T14:42:27Z</time>
      </trkpt>
      <trkpt lat="42.8422120" lon="-89.7741340">
        <ele>343.8100000</ele>
        <time>2009-05-03T14:42:28Z</time>
      </trkpt>
      <trkpt lat="42.8422420" lon="-89.7744550">
        <ele>345.7300000</ele>
        <time>2009-05-03T14:42:29Z</time>
      </trkpt>
      <trkpt lat="42.8422860" lon="-89.7747540">
        <ele>347.1700000</ele>
        <time>2009-05-03T14:42:30Z</time>
      </trkpt>
      <trkpt lat="42.8423640" lon="-89.7750520">
        <ele>348.6200000</ele>
        <time>2009-05-03T14:42:31Z</time>
      </trkpt>
      <trkpt lat="42.8424430" lon="-89.7753530">
        <ele>350.0600000</ele>
        <time>2009-05-03T14:42:32Z</time>
      </trkpt>
      <trkpt lat="42.8425720" lon="-89.7759690">
        <ele>351.9800000</ele>
        <time>2009-05-03T14:42:34Z</time>
      </trkpt>
      <trkpt lat="42.8426080" lon="-89.7762840">
        <ele>352.4600000</ele>
        <time>2009-05-03T14:42:35Z</time>
      </trkpt>
      <trkpt lat="42.8426190" lon="-89.7766050">
        <ele>352.9400000</ele>
        <time>2009-05-03T14:42:36Z</time>
      </trkpt>
      <trkpt lat="42.8427160" lon="-89.7813820">
        <ele>351.5000000</ele>
        <time>2009-05-03T14:42:51Z</time>
      </trkpt>
      <trkpt lat="42.8427550" lon="-89.7851890">
        <ele>346.6900000</ele>
        <time>2009-05-03T14:43:03Z</time>
      </trkpt>
      <trkpt lat="42.8428180" lon="-89.7899060">
        <ele>349.1000000</ele>
        <time>2009-05-03T14:43:18Z</time>
      </trkpt>
      <trkpt lat="42.8428660" lon="-89.7902190">
        <ele>349.5800000</ele>
        <time>2009-05-03T14:43:19Z</time>
      </trkpt>
      <trkpt lat="42.8429540" lon="-89.7905050">
        <ele>349.5800000</ele>
        <time>2009-05-03T14:43:20Z</time>
      </trkpt>
      <trkpt lat="42.8430770" lon="-89.7907750">
        <ele>349.1000000</ele>
        <time>2009-05-03T14:43:21Z</time>
      </trkpt>
      <trkpt lat="42.8432050" lon="-89.7910270">
        <ele>349.1000000</ele>
        <time>2009-05-03T14:43:22Z</time>
      </trkpt>
      <trkpt lat="42.8433640" lon="-89.7912650">
        <ele>348.1300000</ele>
        <time>2009-05-03T14:43:23Z</time>
      </trkpt>
      <trkpt lat="42.8435390" lon="-89.7914610">
        <ele>347.6500000</ele>
        <time>2009-05-03T14:43:24Z</time>
      </trkpt>
      <trkpt lat="42.8437490" lon="-89.7916600">
        <ele>347.6500000</ele>
        <time>2009-05-03T14:43:25Z</time>
      </trkpt>
      <trkpt lat="42.8439480" lon="-89.7918490">
        <ele>347.6500000</ele>
        <time>2009-05-03T14:43:26Z</time>
      </trkpt>
      <trkpt lat="42.8469080" lon="-89.7949120">
        <ele>352.9400000</ele>
        <time>2009-05-03T14:43:42Z</time>
      </trkpt>
      <trkpt lat="42.8470450" lon="-89.7952060">
        <ele>352.9400000</ele>
        <time>2009-05-03T14:43:43Z</time>
      </trkpt>
      <trkpt lat="42.8471300" lon="-89.7955040">
        <ele>352.9400000</ele>
        <time>2009-05-03T14:43:44Z</time>
      </trkpt>
      <trkpt lat="42.8471970" lon="-89.7957960">
        <ele>352.9400000</ele>
        <time>2009-05-03T14:43:45Z</time>
      </trkpt>
      <trkpt lat="42.8472220" lon="-89.7961090">
        <ele>352.4600000</ele>
        <time>2009-05-03T14:43:46Z</time>
      </trkpt>
      <trkpt lat="42.8472400" lon="-89.7964250">
        <ele>352.9400000</ele>
        <time>2009-05-03T14:43:47Z</time>
      </trkpt>
      <trkpt lat="42.8472440" lon="-89.7967440">
        <ele>352.9400000</ele>
        <time>2009-05-03T14:43:48Z</time>
      </trkpt>
      <trkpt lat="42.8473500" lon="-89.8030820">
        <ele>345.7300000</ele>
        <time>2009-05-03T14:44:08Z</time>
      </trkpt>
      <trkpt lat="42.8471750" lon="-89.8052700">
        <ele>343.8100000</ele>
        <time>2009-05-03T14:44:16Z</time>
      </trkpt>
      <trkpt lat="42.8465860" lon="-89.8069510">
        <ele>340.9200000</ele>
        <time>2009-05-03T14:44:23Z</time>
      </trkpt>
      <trkpt lat="42.8462090" lon="-89.8087430">
        <ele>338.0400000</ele>
        <time>2009-05-03T14:44:30Z</time>
      </trkpt>
      <trkpt lat="42.8462170" lon="-89.8089850">
        <ele>337.5600000</ele>
        <time>2009-05-03T14:44:31Z</time>
      </trkpt>
      <trkpt lat="42.8462490" lon="-89.8098680">
        <ele>336.1200000</ele>
        <time>2009-05-03T14:44:36Z</time>
      </trkpt>
      <trkpt lat="42.8462940" lon="-89.8099420">
        <ele>335.6400000</ele>
        <time>2009-05-03T14:44:37Z</time>
      </trkpt>
      <trkpt lat="42.8463640" lon="-89.8099620">
        <ele>335.6400000</ele>
        <time>2009-05-03T14:44:38Z</time>
      </trkpt>
      <trkpt lat="42.8464650" lon="-89.8099910">
        <ele>336.1200000</ele>
        <time>2009-05-03T14:44:39Z</time>
      </trkpt>
      <trkpt lat="42.8465870" lon="-89.8100270">
        <ele>336.6000000</ele>
        <time>2009-05-03T14:44:40Z</time>
      </trkpt>
      <trkpt lat="42.8467290" lon="-89.8100680">
        <ele>337.5600000</ele>
        <time>2009-05-03T14:44:41Z</time>
      </trkpt>
      <trkpt lat="42.8476800" lon="-89.8104290">
        <ele>341.4100000</ele>
        <time>2009-05-03T14:44:47Z</time>
      </trkpt>
      <trkpt lat="42.8478350" lon="-89.8105690">
        <ele>341.4100000</ele>
        <time>2009-05-03T14:44:48Z</time>
      </trkpt>
      <trkpt lat="42.8479910" lon="-89.8107250">
        <ele>341.4100000</ele>
        <time>2009-05-03T14:44:49Z</time>
      </trkpt>
      <trkpt lat="42.8481510" lon="-89.8108850">
        <ele>341.4100000</ele>
        <time>2009-05-03T14:44:50Z</time>
      </trkpt>
      <trkpt lat="42.8482920" lon="-89.8110660">
        <ele>341.4100000</ele>
        <time>2009-05-03T14:44:51Z</time>
      </trkpt>
      <trkpt lat="42.8484220" lon="-89.8112740">
        <ele>341.4100000</ele>
        <time>2009-05-03T14:44:52Z</time>
      </trkpt>
      <trkpt lat="42.8485240" lon="-89.8115120">
        <ele>340.9200000</ele>
        <time>2009-05-03T14:44:53Z</time>
      </trkpt>
      <trkpt lat="42.8486160" lon="-89.8117590">
        <ele>340.9200000</ele>
        <time>2009-05-03T14:44:54Z</time>
      </trkpt>
      <trkpt lat="42.8486680" lon="-89.8120420">
        <ele>340.4400000</ele>
        <time>2009-05-03T14:44:55Z</time>
      </trkpt>
      <trkpt lat="42.8487200" lon="-89.8123290">
        <ele>340.4400000</ele>
        <time>2009-05-03T14:44:56Z</time>
      </trkpt>
      <trkpt lat="42.8487720" lon="-89.8126160">
        <ele>339.9600000</ele>
        <time>2009-05-03T14:44:57Z</time>
      </trkpt>
      <trkpt lat="42.8488030" lon="-89.8129000">
        <ele>339.4800000</ele>
        <time>2009-05-03T14:44:58Z</time>
      </trkpt>
      <trkpt lat="42.8490260" lon="-89.8160810">
        <ele>336.1200000</ele>
        <time>2009-05-03T14:45:09Z</time>
      </trkpt>
      <trkpt lat="42.8487610" lon="-89.8178520">
        <ele>336.1200000</ele>
        <time>2009-05-03T14:45:15Z</time>
      </trkpt>
      <trkpt lat="42.8484470" lon="-89.8198910">
        <ele>336.1200000</ele>
        <time>2009-05-03T14:45:22Z</time>
      </trkpt>
      <trkpt lat="42.8484770" lon="-89.8201740">
        <ele>336.1200000</ele>
        <time>2009-05-03T14:45:23Z</time>
      </trkpt>
      <trkpt lat="42.8485260" lon="-89.8204430">
        <ele>336.6000000</ele>
        <time>2009-05-03T14:45:24Z</time>
      </trkpt>
      <trkpt lat="42.8486260" lon="-89.8206950">
        <ele>337.0800000</ele>
        <time>2009-05-03T14:45:25Z</time>
      </trkpt>
      <trkpt lat="42.8487300" lon="-89.8209320">
        <ele>337.5600000</ele>
        <time>2009-05-03T14:45:26Z</time>
      </trkpt>
      <trkpt lat="42.8488610" lon="-89.8211680">
        <ele>337.5600000</ele>
        <time>2009-05-03T14:45:27Z</time>
      </trkpt>
      <trkpt lat="42.8490000" lon="-89.8213760">
        <ele>337.5600000</ele>
        <time>2009-05-03T14:45:28Z</time>
      </trkpt>
      <trkpt lat="42.8491590" lon="-89.8215880">
        <ele>337.0800000</ele>
        <time>2009-05-03T14:45:29Z</time>
      </trkpt>
      <trkpt lat="42.8493310" lon="-89.8217770">
        <ele>336.6000000</ele>
        <time>2009-05-03T14:45:30Z</time>
      </trkpt>
      <trkpt lat="42.8513490" lon="-89.8237120">
        <ele>336.1200000</ele>
        <time>2009-05-03T14:45:41Z</time>
      </trkpt>
      <trkpt lat="42.8524310" lon="-89.8243200">
        <ele>331.3100000</ele>
        <time>2009-05-03T14:45:46Z</time>
      </trkpt>
      <trkpt lat="42.8526090" lon="-89.8245060">
        <ele>329.8700000</ele>
        <time>2009-05-03T14:45:47Z</time>
      </trkpt>
      <trkpt lat="42.8527630" lon="-89.8247120">
        <ele>328.4300000</ele>
        <time>2009-05-03T14:45:48Z</time>
      </trkpt>
      <trkpt lat="42.8528910" lon="-89.8249680">
        <ele>326.9900000</ele>
        <time>2009-05-03T14:45:49Z</time>
      </trkpt>
      <trkpt lat="42.8530050" lon="-89.8252340">
        <ele>325.5400000</ele>
        <time>2009-05-03T14:45:50Z</time>
      </trkpt>
      <trkpt lat="42.8531240" lon="-89.8255160">
        <ele>323.6200000</ele>
        <time>2009-05-03T14:45:51Z</time>
      </trkpt>
      <trkpt lat="42.8537030" lon="-89.8269700">
        <ele>316.4100000</ele>
        <time>2009-05-03T14:45:56Z</time>
      </trkpt>
      <trkpt lat="42.8537410" lon="-89.8272600">
        <ele>314.4900000</ele>
        <time>2009-05-03T14:45:57Z</time>
      </trkpt>
      <trkpt lat="42.8537610" lon="-89.8275710">
        <ele>312.5700000</ele>
        <time>2009-05-03T14:45:58Z</time>
      </trkpt>
      <trkpt lat="42.8537610" lon="-89.8278960">
        <ele>310.6400000</ele>
        <time>2009-05-03T14:45:59Z</time>
      </trkpt>
      <trkpt lat="42.8537610" lon="-89.8282200">
        <ele>309.6800000</ele>
        <time>2009-05-03T14:46:00Z</time>
      </trkpt>
      <trkpt lat="42.8537530" lon="-89.8285380">
        <ele>308.7200000</ele>
        <time>2009-05-03T14:46:01Z</time>
      </trkpt>
      <trkpt lat="42.8539080" lon="-89.8308300">
        <ele>301.5100000</ele>
        <time>2009-05-03T14:46:08Z</time>
      </trkpt>
      <trkpt lat="42.8540150" lon="-89.8311300">
        <ele>300.0700000</ele>
        <time>2009-05-03T14:46:09Z</time>
      </trkpt>
      <trkpt lat="42.8541230" lon="-89.8314340">
        <ele>298.1500000</ele>
        <time>2009-05-03T14:46:10Z</time>
      </trkpt>
      <trkpt lat="42.8550320" lon="-89.8341540">
        <ele>285.6500000</ele>
        <time>2009-05-03T14:46:19Z</time>
      </trkpt>
      <trkpt lat="42.8556050" lon="-89.8359060">
        <ele>281.3200000</ele>
        <time>2009-05-03T14:46:25Z</time>
      </trkpt>
      <trkpt lat="42.8556460" lon="-89.8362220">
        <ele>280.3600000</ele>
        <time>2009-05-03T14:46:26Z</time>
      </trkpt>
      <trkpt lat="42.8556870" lon="-89.8365400">
        <ele>279.8800000</ele>
        <time>2009-05-03T14:46:27Z</time>
      </trkpt>
      <trkpt lat="42.8556190" lon="-89.8384530">
        <ele>275.5600000</ele>
        <time>2009-05-03T14:46:33Z</time>
      </trkpt>
      <trkpt lat="42.8548890" lon="-89.8421910">
        <ele>266.4200000</ele>
        <time>2009-05-03T14:46:45Z</time>
      </trkpt>
      <trkpt lat="42.8544430" lon="-89.8459330">
        <ele>265.9400000</ele>
        <time>2009-05-03T14:46:57Z</time>
      </trkpt>
      <trkpt lat="42.8544250" lon="-89.8478020">
        <ele>266.9000000</ele>
        <time>2009-05-03T14:47:04Z</time>
      </trkpt>
      <trkpt lat="42.8544460" lon="-89.8489230">
        <ele>269.7900000</ele>
        <time>2009-05-03T14:47:12Z</time>
      </trkpt>
      <trkpt lat="42.8544480" lon="-89.8494720">
        <ele>270.2700000</ele>
        <time>2009-05-03T14:47:21Z</time>
      </trkpt>
      <trkpt lat="42.8544480" lon="-89.8494720">
        <ele>270.7500000</ele>
        <time>2009-05-03T14:47:41Z</time>
      </trkpt>
      <trkpt lat="42.8544480" lon="-89.8498530">
        <ele>271.7100000</ele>
        <time>2009-05-03T14:51:23Z</time>
      </trkpt>
      <trkpt lat="42.8544480" lon="-89.8507690">
        <ele>267.8600000</ele>
        <time>2009-05-03T14:51:28Z</time>
      </trkpt>
      <trkpt lat="42.8545620" lon="-89.8531720">
        <ele>261.1400000</ele>
        <time>2009-05-03T14:51:37Z</time>
      </trkpt>
      <trkpt lat="42.8546290" lon="-89.8534410">
        <ele>261.6200000</ele>
        <time>2009-05-03T14:51:38Z</time>
      </trkpt>
      <trkpt lat="42.8547080" lon="-89.8536980">
        <ele>261.6200000</ele>
        <time>2009-05-03T14:51:39Z</time>
      </trkpt>
      <trkpt lat="42.8548010" lon="-89.8539550">
        <ele>261.6200000</ele>
        <time>2009-05-03T14:51:40Z</time>
      </trkpt>
      <trkpt lat="42.8549110" lon="-89.8542000">
        <ele>262.1000000</ele>
        <time>2009-05-03T14:51:41Z</time>
      </trkpt>
      <trkpt lat="42.8550400" lon="-89.8544290">
        <ele>262.1000000</ele>
        <time>2009-05-03T14:51:42Z</time>
      </trkpt>
      <trkpt lat="42.8552040" lon="-89.8546160">
        <ele>262.1000000</ele>
        <time>2009-05-03T14:51:43Z</time>
      </trkpt>
      <trkpt lat="42.8553830" lon="-89.8547970">
        <ele>261.6200000</ele>
        <time>2009-05-03T14:51:44Z</time>
      </trkpt>
      <trkpt lat="42.8557800" lon="-89.8551270">
        <ele>261.1400000</ele>
        <time>2009-05-03T14:51:46Z</time>
      </trkpt>
      <trkpt lat="42.8560060" lon="-89.8552230">
        <ele>261.1400000</ele>
        <time>2009-05-03T14:51:47Z</time>
      </trkpt>
      <trkpt lat="42.8562400" lon="-89.8553010">
        <ele>260.6500000</ele>
        <time>2009-05-03T14:51:48Z</time>
      </trkpt>
      <trkpt lat="42.8577900" lon="-89.8558670">
        <ele>259.2100000</ele>
        <time>2009-05-03T14:51:55Z</time>
      </trkpt>
      <trkpt lat="42.8579830" lon="-89.8559820">
        <ele>258.7300000</ele>
        <time>2009-05-03T14:51:56Z</time>
      </trkpt>
      <trkpt lat="42.8581800" lon="-89.8561050">
        <ele>258.7300000</ele>
        <time>2009-05-03T14:51:57Z</time>
      </trkpt>
      <trkpt lat="42.8583230" lon="-89.8562940">
        <ele>258.2500000</ele>
        <time>2009-05-03T14:51:58Z</time>
      </trkpt>
      <trkpt lat="42.8584660" lon="-89.8564940">
        <ele>258.2500000</ele>
        <time>2009-05-03T14:51:59Z</time>
      </trkpt>
      <trkpt lat="42.8586010" lon="-89.8567200">
        <ele>257.7700000</ele>
        <time>2009-05-03T14:52:00Z</time>
      </trkpt>
      <trkpt lat="42.8587120" lon="-89.8569230">
        <ele>257.2900000</ele>
        <time>2009-05-03T14:52:01Z</time>
      </trkpt>
      <trkpt lat="42.8587990" lon="-89.8571700">
        <ele>256.3300000</ele>
        <time>2009-05-03T14:52:02Z</time>
      </trkpt>
      <trkpt lat="42.8588860" lon="-89.8574210">
        <ele>256.3300000</ele>
        <time>2009-05-03T14:52:03Z</time>
      </trkpt>
      <trkpt lat="42.8589740" lon="-89.8576720">
        <ele>256.8100000</ele>
        <time>2009-05-03T14:52:04Z</time>
      </trkpt>
      <trkpt lat="42.8590070" lon="-89.8579130">
        <ele>256.8100000</ele>
        <time>2009-05-03T14:52:05Z</time>
      </trkpt>
      <trkpt lat="42.8590220" lon="-89.8581980">
        <ele>256.8100000</ele>
        <time>2009-05-03T14:52:06Z</time>
      </trkpt>
      <trkpt lat="42.8590380" lon="-89.8584830">
        <ele>256.8100000</ele>
        <time>2009-05-03T14:52:07Z</time>
      </trkpt>
      <trkpt lat="42.8590250" lon="-89.8587570">
        <ele>256.8100000</ele>
        <time>2009-05-03T14:52:08Z</time>
      </trkpt>
      <trkpt lat="42.8590080" lon="-89.8590480">
        <ele>256.8100000</ele>
        <time>2009-05-03T14:52:09Z</time>
      </trkpt>
      <trkpt lat="42.8589680" lon="-89.8593370">
        <ele>256.8100000</ele>
        <time>2009-05-03T14:52:10Z</time>
      </trkpt>
      <trkpt lat="42.8588840" lon="-89.8596230">
        <ele>257.2900000</ele>
        <time>2009-05-03T14:52:11Z</time>
      </trkpt>
      <trkpt lat="42.8588010" lon="-89.8599060">
        <ele>257.7700000</ele>
        <time>2009-05-03T14:52:12Z</time>
      </trkpt>
      <trkpt lat="42.8587000" lon="-89.8601720">
        <ele>260.1700000</ele>
        <time>2009-05-03T14:52:13Z</time>
      </trkpt>
      <trkpt lat="42.8580200" lon="-89.8621020">
        <ele>275.0700000</ele>
        <time>2009-05-03T14:52:20Z</time>
      </trkpt>
      <trkpt lat="42.8580100" lon="-89.8623960">
        <ele>277.0000000</ele>
        <time>2009-05-03T14:52:21Z</time>
      </trkpt>
      <trkpt lat="42.8580260" lon="-89.8627030">
        <ele>278.4400000</ele>
        <time>2009-05-03T14:52:22Z</time>
      </trkpt>
      <trkpt lat="42.8580880" lon="-89.8629940">
        <ele>280.3600000</ele>
        <time>2009-05-03T14:52:23Z</time>
      </trkpt>
      <trkpt lat="42.8581540" lon="-89.8632700">
        <ele>281.8000000</ele>
        <time>2009-05-03T14:52:24Z</time>
      </trkpt>
      <trkpt lat="42.8582570" lon="-89.8635460">
        <ele>282.7700000</ele>
        <time>2009-05-03T14:52:25Z</time>
      </trkpt>
      <trkpt lat="42.8584010" lon="-89.8637610">
        <ele>283.7300000</ele>
        <time>2009-05-03T14:52:26Z</time>
      </trkpt>
      <trkpt lat="42.8585600" lon="-89.8639380">
        <ele>284.6900000</ele>
        <time>2009-05-03T14:52:27Z</time>
      </trkpt>
      <trkpt lat="42.8587610" lon="-89.8641020">
        <ele>285.1700000</ele>
        <time>2009-05-03T14:52:28Z</time>
      </trkpt>
      <trkpt lat="42.8589540" lon="-89.8642600">
        <ele>285.6500000</ele>
        <time>2009-05-03T14:52:29Z</time>
      </trkpt>
      <trkpt lat="42.8591560" lon="-89.8644070">
        <ele>286.1300000</ele>
        <time>2009-05-03T14:52:30Z</time>
      </trkpt>
      <trkpt lat="42.8606350" lon="-89.8658100">
        <ele>291.9000000</ele>
        <time>2009-05-03T14:52:38Z</time>
      </trkpt>
      <trkpt lat="42.8622270" lon="-89.8673350">
        <ele>302.9500000</ele>
        <time>2009-05-03T14:52:47Z</time>
      </trkpt>
      <trkpt lat="42.8636080" lon="-89.8685580">
        <ele>315.9300000</ele>
        <time>2009-05-03T14:52:55Z</time>
      </trkpt>
      <trkpt lat="42.8646630" lon="-89.8704970">
        <ele>317.3700000</ele>
        <time>2009-05-03T14:53:03Z</time>
      </trkpt>
      <trkpt lat="42.8665510" lon="-89.8737670">
        <ele>317.3700000</ele>
        <time>2009-05-03T14:53:16Z</time>
      </trkpt>
      <trkpt lat="42.8689580" lon="-89.8780780">
        <ele>320.7400000</ele>
        <time>2009-05-03T14:53:33Z</time>
      </trkpt>
      <trkpt lat="42.8706500" lon="-89.8818740">
        <ele>325.0600000</ele>
        <time>2009-05-03T14:53:47Z</time>
      </trkpt>
      <trkpt lat="42.8727420" lon="-89.8860640">
        <ele>331.7900000</ele>
        <time>2009-05-03T14:54:03Z</time>
      </trkpt>
      <trkpt lat="42.8742290" lon="-89.8875780">
        <ele>337.5600000</ele>
        <time>2009-05-03T14:54:11Z</time>
      </trkpt>
      <trkpt lat="42.8745710" lon="-89.8880170">
        <ele>338.5200000</ele>
        <time>2009-05-03T14:54:13Z</time>
      </trkpt>
      <trkpt lat="42.8747090" lon="-89.8882600">
        <ele>338.5200000</ele>
        <time>2009-05-03T14:54:14Z</time>
      </trkpt>
      <trkpt lat="42.8748420" lon="-89.8885250">
        <ele>338.5200000</ele>
        <time>2009-05-03T14:54:15Z</time>
      </trkpt>
      <trkpt lat="42.8749640" lon="-89.8887800">
        <ele>338.5200000</ele>
        <time>2009-05-03T14:54:16Z</time>
      </trkpt>
      <trkpt lat="42.8750180" lon="-89.8890770">
        <ele>338.0400000</ele>
        <time>2009-05-03T14:54:17Z</time>
      </trkpt>
      <trkpt lat="42.8750630" lon="-89.8893520">
        <ele>337.5600000</ele>
        <time>2009-05-03T14:54:18Z</time>
      </trkpt>
      <trkpt lat="42.8750970" lon="-89.8896090">
        <ele>336.1200000</ele>
        <time>2009-05-03T14:54:19Z</time>
      </trkpt>
      <trkpt lat="42.8751290" lon="-89.8898530">
        <ele>334.6800000</ele>
        <time>2009-05-03T14:54:20Z</time>
      </trkpt>
      <trkpt lat="42.8751060" lon="-89.8900790">
        <ele>333.2300000</ele>
        <time>2009-05-03T14:54:21Z</time>
      </trkpt>
      <trkpt lat="42.8750740" lon="-89.8903200">
        <ele>332.2700000</ele>
        <time>2009-05-03T14:54:22Z</time>
      </trkpt>
      <trkpt lat="42.8750410" lon="-89.8905640">
        <ele>330.8300000</ele>
        <time>2009-05-03T14:54:23Z</time>
      </trkpt>
      <trkpt lat="42.8750080" lon="-89.8908090">
        <ele>329.8700000</ele>
        <time>2009-05-03T14:54:24Z</time>
      </trkpt>
      <trkpt lat="42.8745350" lon="-89.8943240">
        <ele>313.0500000</ele>
        <time>2009-05-03T14:54:37Z</time>
      </trkpt>
      <trkpt lat="42.8738620" lon="-89.8980230">
        <ele>296.7000000</ele>
        <time>2009-05-03T14:54:49Z</time>
      </trkpt>
      <trkpt lat="42.8728580" lon="-89.9013080">
        <ele>282.7700000</ele>
        <time>2009-05-03T14:55:00Z</time>
      </trkpt>
      <trkpt lat="42.8724630" lon="-89.9045230">
        <ele>276.0400000</ele>
        <time>2009-05-03T14:55:10Z</time>
      </trkpt>
      <trkpt lat="42.8718360" lon="-89.9076670">
        <ele>270.2700000</ele>
        <time>2009-05-03T14:55:20Z</time>
      </trkpt>
      <trkpt lat="42.8709540" lon="-89.9117070">
        <ele>266.4200000</ele>
        <time>2009-05-03T14:55:33Z</time>
      </trkpt>
      <trkpt lat="42.8702660" lon="-89.9167730">
        <ele>263.0600000</ele>
        <time>2009-05-03T14:55:49Z</time>
      </trkpt>
      <trkpt lat="42.8703060" lon="-89.9170930">
        <ele>262.5800000</ele>
        <time>2009-05-03T14:55:50Z</time>
      </trkpt>
      <trkpt lat="42.8703510" lon="-89.9174080">
        <ele>262.1000000</ele>
        <time>2009-05-03T14:55:51Z</time>
      </trkpt>
      <trkpt lat="42.8704040" lon="-89.9177260">
        <ele>262.1000000</ele>
        <time>2009-05-03T14:55:52Z</time>
      </trkpt>
      <trkpt lat="42.8704840" lon="-89.9180230">
        <ele>262.1000000</ele>
        <time>2009-05-03T14:55:53Z</time>
      </trkpt>
      <trkpt lat="42.8724470" lon="-89.9249260">
        <ele>267.8600000</ele>
        <time>2009-05-03T14:56:16Z</time>
      </trkpt>
      <trkpt lat="42.8733520" lon="-89.9284340">
        <ele>268.8300000</ele>
        <time>2009-05-03T14:56:29Z</time>
      </trkpt>
      <trkpt lat="42.8737690" lon="-89.9304950">
        <ele>269.7900000</ele>
        <time>2009-05-03T14:56:39Z</time>
      </trkpt>
      <trkpt lat="42.8744890" lon="-89.9341800">
        <ele>276.0400000</ele>
        <time>2009-05-03T14:56:59Z</time>
      </trkpt>
      <trkpt lat="42.8745100" lon="-89.9356800">
        <ele>276.5200000</ele>
        <time>2009-05-03T14:57:09Z</time>
      </trkpt>
      <trkpt lat="42.8744950" lon="-89.9358920">
        <ele>277.0000000</ele>
        <time>2009-05-03T14:57:11Z</time>
      </trkpt>
      <trkpt lat="42.8745440" lon="-89.9359710">
        <ele>277.0000000</ele>
        <time>2009-05-03T14:57:12Z</time>
      </trkpt>
      <trkpt lat="42.8745730" lon="-89.9359710">
        <ele>277.0000000</ele>
        <time>2009-05-03T14:57:13Z</time>
      </trkpt>
      <trkpt lat="42.8746210" lon="-89.9359710">
        <ele>277.0000000</ele>
        <time>2009-05-03T14:57:14Z</time>
      </trkpt>
      <trkpt lat="42.8746780" lon="-89.9359710">
        <ele>276.0400000</ele>
        <time>2009-05-03T14:57:15Z</time>
      </trkpt>
      <trkpt lat="42.8747430" lon="-89.9359710">
        <ele>276.0400000</ele>
        <time>2009-05-03T14:57:16Z</time>
      </trkpt>
      <trkpt lat="42.8753480" lon="-89.9359710">
        <ele>274.5900000</ele>
        <time>2009-05-03T14:57:24Z</time>
      </trkpt>
      <trkpt lat="42.8754130" lon="-89.9359390">
        <ele>274.1100000</ele>
        <time>2009-05-03T14:57:25Z</time>
      </trkpt>
      <trkpt lat="42.8754810" lon="-89.9359050">
        <ele>274.1100000</ele>
        <time>2009-05-03T14:57:26Z</time>
      </trkpt>
      <trkpt lat="42.8755440" lon="-89.9358670">
        <ele>273.6300000</ele>
        <time>2009-05-03T14:57:27Z</time>
      </trkpt>
      <trkpt lat="42.8756080" lon="-89.9358160">
        <ele>273.6300000</ele>
        <time>2009-05-03T14:57:28Z</time>
      </trkpt>
      <trkpt lat="42.8761880" lon="-89.9353650">
        <ele>273.1500000</ele>
        <time>2009-05-03T14:57:40Z</time>
      </trkpt>
      <trkpt lat="42.8765120" lon="-89.9351010">
        <ele>273.1500000</ele>
        <time>2009-05-03T14:57:49Z</time>
      </trkpt>
      <trkpt lat="42.8768360" lon="-89.9348310">
        <ele>276.0400000</ele>
        <time>2009-05-03T14:58:00Z</time>
      </trkpt>
      <trkpt lat="42.8770690" lon="-89.9346530">
        <ele>277.4800000</ele>
        <time>2009-05-03T14:58:08Z</time>
      </trkpt>
      <trkpt lat="42.8770830" lon="-89.9346880">
        <ele>277.4800000</ele>
        <time>2009-05-03T14:58:09Z</time>
      </trkpt>
      <trkpt lat="42.8771080" lon="-89.9347490">
        <ele>277.0000000</ele>
        <time>2009-05-03T14:58:10Z</time>
      </trkpt>
      <trkpt lat="42.8771360" lon="-89.9348210">
        <ele>277.0000000</ele>
        <time>2009-05-03T14:58:11Z</time>
      </trkpt>
      <trkpt lat="42.8771680" lon="-89.9348990">
        <ele>276.5200000</ele>
        <time>2009-05-03T14:58:12Z</time>
      </trkpt>
      <trkpt lat="42.8772020" lon="-89.9349850">
        <ele>276.5200000</ele>
        <time>2009-05-03T14:58:13Z</time>
      </trkpt>
      <trkpt lat="42.8777350" lon="-89.9362720">
        <ele>273.6300000</ele>
        <time>2009-05-03T14:58:24Z</time>
      </trkpt>
      <trkpt lat="42.8786010" lon="-89.9382460">
        <ele>268.8300000</ele>
        <time>2009-05-03T14:58:38Z</time>
      </trkpt>
      <trkpt lat="42.8786980" lon="-89.9383500">
        <ele>268.3500000</ele>
        <time>2009-05-03T14:58:39Z</time>
      </trkpt>
      <trkpt lat="42.8788240" lon="-89.9384010">
        <ele>267.8600000</ele>
        <time>2009-05-03T14:58:40Z</time>
      </trkpt>
      <trkpt lat="42.8789630" lon="-89.9384150">
        <ele>267.3800000</ele>
        <time>2009-05-03T14:58:41Z</time>
      </trkpt>
      <trkpt lat="42.8791040" lon="-89.9384110">
        <ele>266.9000000</ele>
        <time>2009-05-03T14:58:42Z</time>
      </trkpt>
      <trkpt lat="42.8792310" lon="-89.9384070">
        <ele>266.4200000</ele>
        <time>2009-05-03T14:58:43Z</time>
      </trkpt>
      <trkpt lat="42.8806290" lon="-89.9383780">
        <ele>265.9400000</ele>
        <time>2009-05-03T14:58:54Z</time>
      </trkpt>
      <trkpt lat="42.8807050" lon="-89.9384530">
        <ele>265.9400000</ele>
        <time>2009-05-03T14:58:55Z</time>
      </trkpt>
      <trkpt lat="42.8807550" lon="-89.9385030">
        <ele>265.9400000</ele>
        <time>2009-05-03T14:58:56Z</time>
      </trkpt>
      <trkpt lat="42.8807940" lon="-89.9386200">
        <ele>265.9400000</ele>
        <time>2009-05-03T14:58:57Z</time>
      </trkpt>
      <trkpt lat="42.8808380" lon="-89.9387510">
        <ele>265.9400000</ele>
        <time>2009-05-03T14:58:58Z</time>
      </trkpt>
      <trkpt lat="42.8808410" lon="-89.9388600">
        <ele>266.4200000</ele>
        <time>2009-05-03T14:58:59Z</time>
      </trkpt>
      <trkpt lat="42.8808410" lon="-89.9390180">
        <ele>267.3800000</ele>
        <time>2009-05-03T14:59:00Z</time>
      </trkpt>
      <trkpt lat="42.8808410" lon="-89.9391730">
        <ele>267.8600000</ele>
        <time>2009-05-03T14:59:01Z</time>
      </trkpt>
      <trkpt lat="42.8808700" lon="-89.9412990">
        <ele>275.0700000</ele>
        <time>2009-05-03T14:59:14Z</time>
      </trkpt>
      <trkpt lat="42.8809320" lon="-89.9414390">
        <ele>275.0700000</ele>
        <time>2009-05-03T14:59:15Z</time>
      </trkpt>
      <trkpt lat="42.8810120" lon="-89.9415400">
        <ele>274.5900000</ele>
        <time>2009-05-03T14:59:16Z</time>
      </trkpt>
      <trkpt lat="42.8810980" lon="-89.9416270">
        <ele>274.1100000</ele>
        <time>2009-05-03T14:59:17Z</time>
      </trkpt>
      <trkpt lat="42.8812030" lon="-89.9417080">
        <ele>273.6300000</ele>
        <time>2009-05-03T14:59:18Z</time>
      </trkpt>
      <trkpt lat="42.8813150" lon="-89.9417950">
        <ele>273.1500000</ele>
        <time>2009-05-03T14:59:19Z</time>
      </trkpt>
      <trkpt lat="42.8814330" lon="-89.9418870">
        <ele>272.6700000</ele>
        <time>2009-05-03T14:59:20Z</time>
      </trkpt>
      <trkpt lat="42.8829150" lon="-89.9428620">
        <ele>271.2300000</ele>
        <time>2009-05-03T14:59:30Z</time>
      </trkpt>
      <trkpt lat="42.8848780" lon="-89.9442870">
        <ele>267.8600000</ele>
        <time>2009-05-03T14:59:41Z</time>
      </trkpt>
      <trkpt lat="42.8850300" lon="-89.9444900">
        <ele>267.8600000</ele>
        <time>2009-05-03T14:59:42Z</time>
      </trkpt>
      <trkpt lat="42.8851670" lon="-89.9447160">
        <ele>267.8600000</ele>
        <time>2009-05-03T14:59:43Z</time>
      </trkpt>
      <trkpt lat="42.8862080" lon="-89.9468020">
        <ele>266.9000000</ele>
        <time>2009-05-03T14:59:51Z</time>
      </trkpt>
      <trkpt lat="42.8886290" lon="-89.9521040">
        <ele>267.3800000</ele>
        <time>2009-05-03T15:00:10Z</time>
      </trkpt>
      <trkpt lat="42.8909440" lon="-89.9565490">
        <ele>271.2300000</ele>
        <time>2009-05-03T15:00:27Z</time>
      </trkpt>
      <trkpt lat="42.8923180" lon="-89.9578450">
        <ele>268.8300000</ele>
        <time>2009-05-03T15:00:34Z</time>
      </trkpt>
      <trkpt lat="42.8931700" lon="-89.9583850">
        <ele>269.7900000</ele>
        <time>2009-05-03T15:00:38Z</time>
      </trkpt>
      <trkpt lat="42.8934040" lon="-89.9584350">
        <ele>270.2700000</ele>
        <time>2009-05-03T15:00:39Z</time>
      </trkpt>
      <trkpt lat="42.8936390" lon="-89.9584850">
        <ele>270.7500000</ele>
        <time>2009-05-03T15:00:40Z</time>
      </trkpt>
      <trkpt lat="42.8945900" lon="-89.9587330">
        <ele>270.2700000</ele>
        <time>2009-05-03T15:00:44Z</time>
      </trkpt>
      <trkpt lat="42.8947970" lon="-89.9588880">
        <ele>270.2700000</ele>
        <time>2009-05-03T15:00:45Z</time>
      </trkpt>
      <trkpt lat="42.8949920" lon="-89.9590690">
        <ele>269.7900000</ele>
        <time>2009-05-03T15:00:46Z</time>
      </trkpt>
      <trkpt lat="42.8951880" lon="-89.9592520">
        <ele>270.2700000</ele>
        <time>2009-05-03T15:00:47Z</time>
      </trkpt>
      <trkpt lat="42.8953720" lon="-89.9594430">
        <ele>270.2700000</ele>
        <time>2009-05-03T15:00:48Z</time>
      </trkpt>
      <trkpt lat="42.8955510" lon="-89.9596590">
        <ele>269.7900000</ele>
        <time>2009-05-03T15:00:49Z</time>
      </trkpt>
      <trkpt lat="42.8977530" lon="-89.9629440">
        <ele>268.3500000</ele>
        <time>2009-05-03T15:01:03Z</time>
      </trkpt>
      <trkpt lat="42.8978100" lon="-89.9632550">
        <ele>268.3500000</ele>
        <time>2009-05-03T15:01:04Z</time>
      </trkpt>
      <trkpt lat="42.8978680" lon="-89.9635690">
        <ele>268.3500000</ele>
        <time>2009-05-03T15:01:05Z</time>
      </trkpt>
      <trkpt lat="42.8985920" lon="-89.9669870">
        <ele>272.1900000</ele>
        <time>2009-05-03T15:01:16Z</time>
      </trkpt>
      <trkpt lat="42.9000260" lon="-89.9725000">
        <ele>289.4900000</ele>
        <time>2009-05-03T15:01:34Z</time>
      </trkpt>
      <trkpt lat="42.9005370" lon="-89.9753400">
        <ele>292.8600000</ele>
        <time>2009-05-03T15:01:43Z</time>
      </trkpt>
      <trkpt lat="42.9013040" lon="-89.9797480">
        <ele>274.5900000</ele>
        <time>2009-05-03T15:01:57Z</time>
      </trkpt>
      <trkpt lat="42.9014050" lon="-89.9800160">
        <ele>274.5900000</ele>
        <time>2009-05-03T15:01:58Z</time>
      </trkpt>
      <trkpt lat="42.9015130" lon="-89.9802770">
        <ele>274.1100000</ele>
        <time>2009-05-03T15:01:59Z</time>
      </trkpt>
      <trkpt lat="42.9016140" lon="-89.9805210">
        <ele>274.1100000</ele>
        <time>2009-05-03T15:02:00Z</time>
      </trkpt>
      <trkpt lat="42.9017570" lon="-89.9807400">
        <ele>274.1100000</ele>
        <time>2009-05-03T15:02:01Z</time>
      </trkpt>
      <trkpt lat="42.9019030" lon="-89.9809650">
        <ele>274.1100000</ele>
        <time>2009-05-03T15:02:02Z</time>
      </trkpt>
      <trkpt lat="42.9031260" lon="-89.9823820">
        <ele>274.5900000</ele>
        <time>2009-05-03T15:02:09Z</time>
      </trkpt>
      <trkpt lat="42.9044660" lon="-89.9841950">
        <ele>276.5200000</ele>
        <time>2009-05-03T15:02:17Z</time>
      </trkpt>
      <trkpt lat="42.9068150" lon="-89.9876970">
        <ele>275.0700000</ele>
        <time>2009-05-03T15:02:32Z</time>
      </trkpt>
      <trkpt lat="42.9080230" lon="-89.9895660">
        <ele>276.0400000</ele>
        <time>2009-05-03T15:02:40Z</time>
      </trkpt>
      <trkpt lat="42.9089990" lon="-89.9920520">
        <ele>277.0000000</ele>
        <time>2009-05-03T15:02:49Z</time>
      </trkpt>
      <trkpt lat="42.9100520" lon="-89.9937070">
        <ele>278.4400000</ele>
        <time>2009-05-03T15:02:56Z</time>
      </trkpt>
      <trkpt lat="42.9106470" lon="-89.9945310">
        <ele>278.4400000</ele>
        <time>2009-05-03T15:03:00Z</time>
      </trkpt>
      <trkpt lat="42.9107960" lon="-89.9946800">
        <ele>278.4400000</ele>
        <time>2009-05-03T15:03:01Z</time>
      </trkpt>
      <trkpt lat="42.9109870" lon="-89.9947220">
        <ele>278.4400000</ele>
        <time>2009-05-03T15:03:02Z</time>
      </trkpt>
      <trkpt lat="42.9111820" lon="-89.9947650">
        <ele>278.9200000</ele>
        <time>2009-05-03T15:03:03Z</time>
      </trkpt>
      <trkpt lat="42.9113710" lon="-89.9947200">
        <ele>279.8800000</ele>
        <time>2009-05-03T15:03:04Z</time>
      </trkpt>
      <trkpt lat="42.9115710" lon="-89.9946720">
        <ele>280.8400000</ele>
        <time>2009-05-03T15:03:05Z</time>
      </trkpt>
      <trkpt lat="42.9117720" lon="-89.9946240">
        <ele>281.3200000</ele>
        <time>2009-05-03T15:03:06Z</time>
      </trkpt>
      <trkpt lat="42.9134560" lon="-89.9944010">
        <ele>281.8000000</ele>
        <time>2009-05-03T15:03:14Z</time>
      </trkpt>
      <trkpt lat="42.9163770" lon="-89.9947330">
        <ele>282.7700000</ele>
        <time>2009-05-03T15:03:28Z</time>
      </trkpt>
      <trkpt lat="42.9167230" lon="-89.9948990">
        <ele>283.2500000</ele>
        <time>2009-05-03T15:03:30Z</time>
      </trkpt>
      <trkpt lat="42.9168830" lon="-89.9950590">
        <ele>283.2500000</ele>
        <time>2009-05-03T15:03:31Z</time>
      </trkpt>
      <trkpt lat="42.9170460" lon="-89.9952220">
        <ele>283.2500000</ele>
        <time>2009-05-03T15:03:32Z</time>
      </trkpt>
      <trkpt lat="42.9171810" lon="-89.9953980">
        <ele>282.2800000</ele>
        <time>2009-05-03T15:03:33Z</time>
      </trkpt>
      <trkpt lat="42.9173210" lon="-89.9956110">
        <ele>282.2800000</ele>
        <time>2009-05-03T15:03:34Z</time>
      </trkpt>
      <trkpt lat="42.9193680" lon="-89.9986510">
        <ele>287.5700000</ele>
        <time>2009-05-03T15:03:48Z</time>
      </trkpt>
      <trkpt lat="42.9195600" lon="-89.9987940">
        <ele>287.5700000</ele>
        <time>2009-05-03T15:03:49Z</time>
      </trkpt>
      <trkpt lat="42.9197590" lon="-89.9989410">
        <ele>287.5700000</ele>
        <time>2009-05-03T15:03:50Z</time>
      </trkpt>
      <trkpt lat="42.9219030" lon="-90.0007770">
        <ele>285.1700000</ele>
        <time>2009-05-03T15:04:01Z</time>
      </trkpt>
      <trkpt lat="42.9227980" lon="-90.0021510">
        <ele>284.2100000</ele>
        <time>2009-05-03T15:04:07Z</time>
      </trkpt>
      <trkpt lat="42.9237600" lon="-90.0042740">
        <ele>284.6900000</ele>
        <time>2009-05-03T15:04:15Z</time>
      </trkpt>
      <trkpt lat="42.9248550" lon="-90.0053940">
        <ele>287.5700000</ele>
        <time>2009-05-03T15:04:21Z</time>
      </trkpt>
      <trkpt lat="42.9262370" lon="-90.0070620">
        <ele>289.9700000</ele>
        <time>2009-05-03T15:04:29Z</time>
      </trkpt>
      <trkpt lat="42.9275640" lon="-90.0087790">
        <ele>289.4900000</ele>
        <time>2009-05-03T15:04:37Z</time>
      </trkpt>
      <trkpt lat="42.9301100" lon="-90.0110250">
        <ele>292.8600000</ele>
        <time>2009-05-03T15:04:50Z</time>
      </trkpt>
      <trkpt lat="42.9309970" lon="-90.0125020">
        <ele>295.7400000</ele>
        <time>2009-05-03T15:04:56Z</time>
      </trkpt>
      <trkpt lat="42.9313020" lon="-90.0130090">
        <ele>295.2600000</ele>
        <time>2009-05-03T15:04:58Z</time>
      </trkpt>
      <trkpt lat="42.9314820" lon="-90.0132140">
        <ele>294.7800000</ele>
        <time>2009-05-03T15:04:59Z</time>
      </trkpt>
      <trkpt lat="42.9316760" lon="-90.0133900">
        <ele>294.3000000</ele>
        <time>2009-05-03T15:05:00Z</time>
      </trkpt>
      <trkpt lat="42.9333630" lon="-90.0144690">
        <ele>296.2200000</ele>
        <time>2009-05-03T15:05:08Z</time>
      </trkpt>
      <trkpt lat="42.9354970" lon="-90.0157330">
        <ele>297.1800000</ele>
        <time>2009-05-03T15:05:18Z</time>
      </trkpt>
      <trkpt lat="42.9356710" lon="-90.0159310">
        <ele>297.1800000</ele>
        <time>2009-05-03T15:05:19Z</time>
      </trkpt>
      <trkpt lat="42.9358370" lon="-90.0161530">
        <ele>297.1800000</ele>
        <time>2009-05-03T15:05:20Z</time>
      </trkpt>
      <trkpt lat="42.9359960" lon="-90.0163690">
        <ele>297.1800000</ele>
        <time>2009-05-03T15:05:21Z</time>
      </trkpt>
      <trkpt lat="42.9361300" lon="-90.0166290">
        <ele>297.1800000</ele>
        <time>2009-05-03T15:05:22Z</time>
      </trkpt>
      <trkpt lat="42.9362650" lon="-90.0168880">
        <ele>297.6700000</ele>
        <time>2009-05-03T15:05:23Z</time>
      </trkpt>
      <trkpt lat="42.9381380" lon="-90.0201330">
        <ele>297.6700000</ele>
        <time>2009-05-03T15:05:36Z</time>
      </trkpt>
      <trkpt lat="42.9414280" lon="-90.0246900">
        <ele>299.5900000</ele>
        <time>2009-05-03T15:05:56Z</time>
      </trkpt>
      <trkpt lat="42.9438100" lon="-90.0277190">
        <ele>303.9100000</ele>
        <time>2009-05-03T15:06:10Z</time>
      </trkpt>
      <trkpt lat="42.9442620" lon="-90.0283690">
        <ele>306.3200000</ele>
        <time>2009-05-03T15:06:13Z</time>
      </trkpt>
      <trkpt lat="42.9443540" lon="-90.0286040">
        <ele>307.2800000</ele>
        <time>2009-05-03T15:06:14Z</time>
      </trkpt>
      <trkpt lat="42.9444220" lon="-90.0288560">
        <ele>308.2400000</ele>
        <time>2009-05-03T15:06:15Z</time>
      </trkpt>
      <trkpt lat="42.9444560" lon="-90.0291000">
        <ele>309.2000000</ele>
        <time>2009-05-03T15:06:16Z</time>
      </trkpt>
      <trkpt lat="42.9444780" lon="-90.0293670">
        <ele>310.1600000</ele>
        <time>2009-05-03T15:06:17Z</time>
      </trkpt>
      <trkpt lat="42.9445010" lon="-90.0296420">
        <ele>311.1200000</ele>
        <time>2009-05-03T15:06:18Z</time>
      </trkpt>
      <trkpt lat="42.9445240" lon="-90.0299220">
        <ele>311.6000000</ele>
        <time>2009-05-03T15:06:19Z</time>
      </trkpt>
      <trkpt lat="42.9445380" lon="-90.0302060">
        <ele>312.5700000</ele>
        <time>2009-05-03T15:06:20Z</time>
      </trkpt>
      <trkpt lat="42.9447050" lon="-90.0345450">
        <ele>323.1400000</ele>
        <time>2009-05-03T15:06:34Z</time>
      </trkpt>
      <trkpt lat="42.9448160" lon="-90.0390440">
        <ele>336.6000000</ele>
        <time>2009-05-03T15:06:49Z</time>
      </trkpt>
      <trkpt lat="42.9448820" lon="-90.0431830">
        <ele>339.0000000</ele>
        <time>2009-05-03T15:07:02Z</time>
      </trkpt>
      <trkpt lat="42.9449220" lon="-90.0459710">
        <ele>347.1700000</ele>
        <time>2009-05-03T15:07:12Z</time>
      </trkpt>
      <trkpt lat="42.9449480" lon="-90.0484440">
        <ele>353.4200000</ele>
        <time>2009-05-03T15:07:23Z</time>
      </trkpt>
      <trkpt lat="42.9449810" lon="-90.0515810">
        <ele>360.1500000</ele>
        <time>2009-05-03T15:07:34Z</time>
      </trkpt>
      <trkpt lat="42.9449130" lon="-90.0562720">
        <ele>352.4600000</ele>
        <time>2009-05-03T15:07:49Z</time>
      </trkpt>
      <trkpt lat="42.9450340" lon="-90.0577790">
        <ele>344.2900000</ele>
        <time>2009-05-03T15:07:54Z</time>
      </trkpt>
      <trkpt lat="42.9451150" lon="-90.0580450">
        <ele>343.3300000</ele>
        <time>2009-05-03T15:07:55Z</time>
      </trkpt>
      <trkpt lat="42.9452200" lon="-90.0582930">
        <ele>341.8900000</ele>
        <time>2009-05-03T15:07:56Z</time>
      </trkpt>
      <trkpt lat="42.9453420" lon="-90.0585360">
        <ele>340.4400000</ele>
        <time>2009-05-03T15:07:57Z</time>
      </trkpt>
      <trkpt lat="42.9455040" lon="-90.0586750">
        <ele>339.4800000</ele>
        <time>2009-05-03T15:07:58Z</time>
      </trkpt>
      <trkpt lat="42.9456830" lon="-90.0588280">
        <ele>338.0400000</ele>
        <time>2009-05-03T15:07:59Z</time>
      </trkpt>
      <trkpt lat="42.9458620" lon="-90.0589810">
        <ele>336.6000000</ele>
        <time>2009-05-03T15:08:00Z</time>
      </trkpt>
      <trkpt lat="42.9460400" lon="-90.0591330">
        <ele>335.1600000</ele>
        <time>2009-05-03T15:08:01Z</time>
      </trkpt>
      <trkpt lat="42.9477190" lon="-90.0609230">
        <ele>323.1400000</ele>
        <time>2009-05-03T15:08:11Z</time>
      </trkpt>
      <trkpt lat="42.9486690" lon="-90.0625060">
        <ele>319.3000000</ele>
        <time>2009-05-03T15:08:18Z</time>
      </trkpt>
      <trkpt lat="42.9498190" lon="-90.0645000">
        <ele>315.9300000</ele>
        <time>2009-05-03T15:08:27Z</time>
      </trkpt>
      <trkpt lat="42.9499610" lon="-90.0650280">
        <ele>315.4500000</ele>
        <time>2009-05-03T15:08:29Z</time>
      </trkpt>
      <trkpt lat="42.9500030" lon="-90.0653200">
        <ele>315.4500000</ele>
        <time>2009-05-03T15:08:30Z</time>
      </trkpt>
      <trkpt lat="42.9504770" lon="-90.0677470">
        <ele>315.4500000</ele>
        <time>2009-05-03T15:08:38Z</time>
      </trkpt>
      <trkpt lat="42.9519040" lon="-90.0731160">
        <ele>326.5000000</ele>
        <time>2009-05-03T15:08:56Z</time>
      </trkpt>
      <trkpt lat="42.9523440" lon="-90.0765380">
        <ele>343.8100000</ele>
        <time>2009-05-03T15:09:07Z</time>
      </trkpt>
      <trkpt lat="42.9523620" lon="-90.0794000">
        <ele>352.9400000</ele>
        <time>2009-05-03T15:09:16Z</time>
      </trkpt>
      <trkpt lat="42.9524080" lon="-90.0828640">
        <ele>363.0400000</ele>
        <time>2009-05-03T15:09:27Z</time>
      </trkpt>
      <trkpt lat="42.9524880" lon="-90.0854330">
        <ele>361.1100000</ele>
        <time>2009-05-03T15:09:35Z</time>
      </trkpt>
      <trkpt lat="42.9523900" lon="-90.0876150">
        <ele>348.6200000</ele>
        <time>2009-05-03T15:09:42Z</time>
      </trkpt>
      <trkpt lat="42.9522700" lon="-90.0878290">
        <ele>346.6900000</ele>
        <time>2009-05-03T15:09:43Z</time>
      </trkpt>
      <trkpt lat="42.9521320" lon="-90.0879580">
        <ele>344.2900000</ele>
        <time>2009-05-03T15:09:44Z</time>
      </trkpt>
      <trkpt lat="42.9519830" lon="-90.0880970">
        <ele>341.8900000</ele>
        <time>2009-05-03T15:09:45Z</time>
      </trkpt>
      <trkpt lat="42.9518180" lon="-90.0882510">
        <ele>340.9200000</ele>
        <time>2009-05-03T15:09:46Z</time>
      </trkpt>
      <trkpt lat="42.9516500" lon="-90.0884080">
        <ele>339.9600000</ele>
        <time>2009-05-03T15:09:47Z</time>
      </trkpt>
      <trkpt lat="42.9499540" lon="-90.0901400">
        <ele>324.5800000</ele>
        <time>2009-05-03T15:09:57Z</time>
      </trkpt>
      <trkpt lat="42.9498820" lon="-90.0903770">
        <ele>322.6600000</ele>
        <time>2009-05-03T15:09:58Z</time>
      </trkpt>
      <trkpt lat="42.9498310" lon="-90.0906540">
        <ele>321.7000000</ele>
        <time>2009-05-03T15:09:59Z</time>
      </trkpt>
      <trkpt lat="42.9498080" lon="-90.0908670">
        <ele>320.2600000</ele>
        <time>2009-05-03T15:10:00Z</time>
      </trkpt>
      <trkpt lat="42.9498490" lon="-90.0911170">
        <ele>318.8100000</ele>
        <time>2009-05-03T15:10:01Z</time>
      </trkpt>
      <trkpt lat="42.9498900" lon="-90.0913670">
        <ele>317.3700000</ele>
        <time>2009-05-03T15:10:02Z</time>
      </trkpt>
      <trkpt lat="42.9499320" lon="-90.0916270">
        <ele>315.4500000</ele>
        <time>2009-05-03T15:10:03Z</time>
      </trkpt>
      <trkpt lat="42.9504420" lon="-90.0945640">
        <ele>309.6800000</ele>
        <time>2009-05-03T15:10:13Z</time>
      </trkpt>
      <trkpt lat="42.9512790" lon="-90.0985500">
        <ele>315.4500000</ele>
        <time>2009-05-03T15:10:26Z</time>
      </trkpt>
      <trkpt lat="42.9516860" lon="-90.1010450">
        <ele>319.3000000</ele>
        <time>2009-05-03T15:10:34Z</time>
      </trkpt>
      <trkpt lat="42.9525830" lon="-90.1039500">
        <ele>327.9500000</ele>
        <time>2009-05-03T15:10:44Z</time>
      </trkpt>
      <trkpt lat="42.9543580" lon="-90.1069550">
        <ele>326.5000000</ele>
        <time>2009-05-03T15:10:56Z</time>
      </trkpt>
      <trkpt lat="42.9561630" lon="-90.1094330">
        <ele>335.6400000</ele>
        <time>2009-05-03T15:11:07Z</time>
      </trkpt>
      <trkpt lat="42.9583000" lon="-90.1116400">
        <ele>336.6000000</ele>
        <time>2009-05-03T15:11:19Z</time>
      </trkpt>
      <trkpt lat="42.9596160" lon="-90.1126480">
        <ele>341.4100000</ele>
        <time>2009-05-03T15:11:28Z</time>
      </trkpt>
      <trkpt lat="42.9598770" lon="-90.1128520">
        <ele>340.9200000</ele>
        <time>2009-05-03T15:11:31Z</time>
      </trkpt>
      <trkpt lat="42.9599350" lon="-90.1129050">
        <ele>340.9200000</ele>
        <time>2009-05-03T15:11:32Z</time>
      </trkpt>
      <trkpt lat="42.9599860" lon="-90.1129520">
        <ele>340.9200000</ele>
        <time>2009-05-03T15:11:33Z</time>
      </trkpt>
      <trkpt lat="42.9600320" lon="-90.1129940">
        <ele>340.4400000</ele>
        <time>2009-05-03T15:11:34Z</time>
      </trkpt>
      <trkpt lat="42.9598910" lon="-90.1132350">
        <ele>340.4400000</ele>
        <time>2009-05-03T15:11:35Z</time>
      </trkpt>
      <trkpt lat="42.9598930" lon="-90.1133740">
        <ele>339.9600000</ele>
        <time>2009-05-03T15:11:36Z</time>
      </trkpt>
      <trkpt lat="42.9598940" lon="-90.1135320">
        <ele>339.4800000</ele>
        <time>2009-05-03T15:11:37Z</time>
      </trkpt>
      <trkpt lat="42.9599120" lon="-90.1153340">
        <ele>340.9200000</ele>
        <time>2009-05-03T15:11:46Z</time>
      </trkpt>
      <trkpt lat="42.9599340" lon="-90.1185130">
        <ele>358.7100000</ele>
        <time>2009-05-03T15:12:02Z</time>
      </trkpt>
      <trkpt lat="42.9599770" lon="-90.1221020">
        <ele>370.2400000</ele>
        <time>2009-05-03T15:12:22Z</time>
      </trkpt>
      <trkpt lat="42.9599770" lon="-90.1245890">
        <ele>366.4000000</ele>
        <time>2009-05-03T15:12:37Z</time>
      </trkpt>
      <trkpt lat="42.9599770" lon="-90.1273840">
        <ele>366.4000000</ele>
        <time>2009-05-03T15:12:56Z</time>
      </trkpt>
      <trkpt lat="42.9599770" lon="-90.1291210">
        <ele>367.3600000</ele>
        <time>2009-05-03T15:13:10Z</time>
      </trkpt>
      <trkpt lat="42.9599770" lon="-90.1292720">
        <ele>367.3600000</ele>
        <time>2009-05-03T15:13:12Z</time>
      </trkpt>
      <trkpt lat="42.9599770" lon="-90.1293110">
        <ele>366.8800000</ele>
        <time>2009-05-03T15:13:13Z</time>
      </trkpt>
      <trkpt lat="42.9599770" lon="-90.1293110">
        <ele>366.4000000</ele>
        <time>2009-05-03T15:13:23Z</time>
      </trkpt>
      <trkpt lat="42.9599770" lon="-90.1293110">
        <ele>367.3600000</ele>
        <time>2009-05-03T15:14:03Z</time>
      </trkpt>
      <trkpt lat="42.9600530" lon="-90.1300240">
        <ele>372.1700000</ele>
        <time>2009-05-03T15:24:55Z</time>
      </trkpt>
      <trkpt lat="42.9600490" lon="-90.1302320">
        <ele>374.0900000</ele>
        <time>2009-05-03T15:25:03Z</time>
      </trkpt>
      <trkpt lat="42.9600590" lon="-90.1303410">
        <ele>374.5700000</ele>
        <time>2009-05-03T15:25:18Z</time>
      </trkpt>
      <trkpt lat="42.9601190" lon="-90.1303780">
        <ele>375.0500000</ele>
        <time>2009-05-03T15:25:20Z</time>
      </trkpt>
      <trkpt lat="42.9601770" lon="-90.1303780">
        <ele>375.0500000</ele>
        <time>2009-05-03T15:25:21Z</time>
      </trkpt>
      <trkpt lat="42.9610760" lon="-90.1303700">
        <ele>380.8200000</ele>
        <time>2009-05-03T15:25:33Z</time>
      </trkpt>
      <trkpt lat="42.9627140" lon="-90.1303070">
        <ele>372.6500000</ele>
        <time>2009-05-03T15:25:52Z</time>
      </trkpt>
      <trkpt lat="42.9638130" lon="-90.1308570">
        <ele>363.0400000</ele>
        <time>2009-05-03T15:26:04Z</time>
      </trkpt>
      <trkpt lat="42.9652560" lon="-90.1322700">
        <ele>360.6300000</ele>
        <time>2009-05-03T15:26:20Z</time>
      </trkpt>
      <trkpt lat="42.9664010" lon="-90.1327430">
        <ele>366.4000000</ele>
        <time>2009-05-03T15:26:30Z</time>
      </trkpt>
      <trkpt lat="42.9682000" lon="-90.1328060">
        <ele>378.4200000</ele>
        <time>2009-05-03T15:26:44Z</time>
      </trkpt>
      <trkpt lat="42.9708940" lon="-90.1327950">
        <ele>380.3400000</ele>
        <time>2009-05-03T15:27:05Z</time>
      </trkpt>
      <trkpt lat="42.9714880" lon="-90.1328150">
        <ele>377.9400000</ele>
        <time>2009-05-03T15:27:13Z</time>
      </trkpt>
      <trkpt lat="42.9714880" lon="-90.1328150">
        <ele>377.9400000</ele>
        <time>2009-05-03T15:27:24Z</time>
      </trkpt>
    </trkseg>
  </trk>

  <trk>
    <name>090503_Sunday_2</name>
    <extensions>
      <gpxx:TrackExtension xmlns:gpxx="http://www.garmin.com/xmlschemas/GpxExtensions/v3">
        <gpxx:DisplayColor>White</gpxx:DisplayColor>
      </gpxx:TrackExtension>
    </extensions>
    <trkseg>
      <trkpt lat="42.9714880" lon="-90.1328150">
        <ele>378.4200000</ele>
        <time>2009-05-03T15:27:31Z</time>
      </trkpt>
      <trkpt lat="42.9716910" lon="-90.1328210">
        <ele>377.9400000</ele>
        <time>2009-05-03T15:27:42Z</time>
      </trkpt>
      <trkpt lat="42.9719400" lon="-90.1328240">
        <ele>376.0100000</ele>
        <time>2009-05-03T15:27:51Z</time>
      </trkpt>
      <trkpt lat="42.9728620" lon="-90.1328240">
        <ele>376.0100000</ele>
        <time>2009-05-03T15:28:00Z</time>
      </trkpt>
      <trkpt lat="42.9743370" lon="-90.1328240">
        <ele>380.8200000</ele>
        <time>2009-05-03T15:28:14Z</time>
      </trkpt>
      <trkpt lat="42.9757510" lon="-90.1328000">
        <ele>385.6300000</ele>
        <time>2009-05-03T15:28:28Z</time>
      </trkpt>
      <trkpt lat="42.9771230" lon="-90.1328780">
        <ele>387.0700000</ele>
        <time>2009-05-03T15:28:37Z</time>
      </trkpt>
      <trkpt lat="42.9784690" lon="-90.1334470">
        <ele>387.0700000</ele>
        <time>2009-05-03T15:28:45Z</time>
      </trkpt>
      <trkpt lat="42.9797250" lon="-90.1344960">
        <ele>385.1500000</ele>
        <time>2009-05-03T15:28:54Z</time>
      </trkpt>
      <trkpt lat="42.9812610" lon="-90.1362350">
        <ele>378.9000000</ele>
        <time>2009-05-03T15:29:05Z</time>
      </trkpt>
      <trkpt lat="42.9833850" lon="-90.1382040">
        <ele>377.4500000</ele>
        <time>2009-05-03T15:29:18Z</time>
      </trkpt>
      <trkpt lat="42.9848370" lon="-90.1390690">
        <ele>375.5300000</ele>
        <time>2009-05-03T15:29:27Z</time>
      </trkpt>
      <trkpt lat="42.9866400" lon="-90.1398190">
        <ele>375.5300000</ele>
        <time>2009-05-03T15:29:37Z</time>
      </trkpt>
      <trkpt lat="42.9886850" lon="-90.1402050">
        <ele>377.9400000</ele>
        <time>2009-05-03T15:29:48Z</time>
      </trkpt>
      <trkpt lat="42.9910630" lon="-90.1400130">
        <ele>378.9000000</ele>
        <time>2009-05-03T15:30:01Z</time>
      </trkpt>
      <trkpt lat="42.9938830" lon="-90.1395760">
        <ele>380.3400000</ele>
        <time>2009-05-03T15:30:16Z</time>
      </trkpt>
      <trkpt lat="42.9972100" lon="-90.1389760">
        <ele>380.8200000</ele>
        <time>2009-05-03T15:30:31Z</time>
      </trkpt>
      <trkpt lat="43.0025940" lon="-90.1380520">
        <ele>379.8600000</ele>
        <time>2009-05-03T15:30:54Z</time>
      </trkpt>
      <trkpt lat="43.0071740" lon="-90.1375020">
        <ele>385.1500000</ele>
        <time>2009-05-03T15:31:13Z</time>
      </trkpt>
      <trkpt lat="43.0096180" lon="-90.1379670">
        <ele>383.2200000</ele>
        <time>2009-05-03T15:31:23Z</time>
      </trkpt>
      <trkpt lat="43.0119510" lon="-90.1391000">
        <ele>382.7400000</ele>
        <time>2009-05-03T15:31:33Z</time>
      </trkpt>
      <trkpt lat="43.0148680" lon="-90.1409550">
        <ele>381.7800000</ele>
        <time>2009-05-03T15:31:46Z</time>
      </trkpt>
      <trkpt lat="43.0171990" lon="-90.1417580">
        <ele>380.3400000</ele>
        <time>2009-05-03T15:31:56Z</time>
      </trkpt>
      <trkpt lat="43.0195590" lon="-90.1419780">
        <ele>375.0500000</ele>
        <time>2009-05-03T15:32:06Z</time>
      </trkpt>
      <trkpt lat="43.0221980" lon="-90.1417430">
        <ele>378.9000000</ele>
        <time>2009-05-03T15:32:17Z</time>
      </trkpt>
      <trkpt lat="43.0271230" lon="-90.1411600">
        <ele>369.2800000</ele>
        <time>2009-05-03T15:32:37Z</time>
      </trkpt>
      <trkpt lat="43.0314790" lon="-90.1407400">
        <ele>375.5300000</ele>
        <time>2009-05-03T15:32:55Z</time>
      </trkpt>
      <trkpt lat="43.0339110" lon="-90.1411310">
        <ele>374.0900000</ele>
        <time>2009-05-03T15:33:05Z</time>
      </trkpt>
      <trkpt lat="43.0379810" lon="-90.1424040">
        <ele>374.0900000</ele>
        <time>2009-05-03T15:33:23Z</time>
      </trkpt>
      <trkpt lat="43.0418970" lon="-90.1434360">
        <ele>374.0900000</ele>
        <time>2009-05-03T15:33:40Z</time>
      </trkpt>
      <trkpt lat="43.0441940" lon="-90.1433930">
        <ele>372.1700000</ele>
        <time>2009-05-03T15:33:50Z</time>
      </trkpt>
      <trkpt lat="43.0479160" lon="-90.1427970">
        <ele>362.0700000</ele>
        <time>2009-05-03T15:34:07Z</time>
      </trkpt>
      <trkpt lat="43.0508390" lon="-90.1423400">
        <ele>347.1700000</ele>
        <time>2009-05-03T15:34:21Z</time>
      </trkpt>
      <trkpt lat="43.0515190" lon="-90.1422330">
        <ele>344.7700000</ele>
        <time>2009-05-03T15:34:27Z</time>
      </trkpt>
      <trkpt lat="43.0518610" lon="-90.1421920">
        <ele>344.7700000</ele>
        <time>2009-05-03T15:34:31Z</time>
      </trkpt>
      <trkpt lat="43.0518830" lon="-90.1422910">
        <ele>345.2500000</ele>
        <time>2009-05-03T15:34:32Z</time>
      </trkpt>
      <trkpt lat="43.0519150" lon="-90.1424360">
        <ele>345.7300000</ele>
        <time>2009-05-03T15:34:33Z</time>
      </trkpt>
      <trkpt lat="43.0519440" lon="-90.1425720">
        <ele>345.7300000</ele>
        <time>2009-05-03T15:34:34Z</time>
      </trkpt>
      <trkpt lat="43.0519790" lon="-90.1427290">
        <ele>345.2500000</ele>
        <time>2009-05-03T15:34:35Z</time>
      </trkpt>
      <trkpt lat="43.0523330" lon="-90.1443500">
        <ele>339.9600000</ele>
        <time>2009-05-03T15:34:43Z</time>
      </trkpt>
      <trkpt lat="43.0528450" lon="-90.1470120">
        <ele>338.5200000</ele>
        <time>2009-05-03T15:34:54Z</time>
      </trkpt>
      <trkpt lat="43.0530540" lon="-90.1501160">
        <ele>334.2000000</ele>
        <time>2009-05-03T15:35:06Z</time>
      </trkpt>
      <trkpt lat="43.0532680" lon="-90.1528760">
        <ele>337.5600000</ele>
        <time>2009-05-03T15:35:18Z</time>
      </trkpt>
      <trkpt lat="43.0537410" lon="-90.1542970">
        <ele>346.2100000</ele>
        <time>2009-05-03T15:35:26Z</time>
      </trkpt>
      <trkpt lat="43.0545020" lon="-90.1564490">
        <ele>361.5900000</ele>
        <time>2009-05-03T15:35:38Z</time>
      </trkpt>
      <trkpt lat="43.0553140" lon="-90.1584750">
        <ele>373.6100000</ele>
        <time>2009-05-03T15:35:48Z</time>
      </trkpt>
      <trkpt lat="43.0564040" lon="-90.1594810">
        <ele>376.9700000</ele>
        <time>2009-05-03T15:35:55Z</time>
      </trkpt>
      <trkpt lat="43.0581290" lon="-90.1602260">
        <ele>380.3400000</ele>
        <time>2009-05-03T15:36:04Z</time>
      </trkpt>
      <trkpt lat="43.0605110" lon="-90.1614760">
        <ele>388.5100000</ele>
        <time>2009-05-03T15:36:16Z</time>
      </trkpt>
      <trkpt lat="43.0606450" lon="-90.1616750">
        <ele>388.9900000</ele>
        <time>2009-05-03T15:36:17Z</time>
      </trkpt>
      <trkpt lat="43.0607800" lon="-90.1618850">
        <ele>389.4700000</ele>
        <time>2009-05-03T15:36:18Z</time>
      </trkpt>
      <trkpt lat="43.0609140" lon="-90.1620920">
        <ele>389.4700000</ele>
        <time>2009-05-03T15:36:19Z</time>
      </trkpt>
      <trkpt lat="43.0610140" lon="-90.1623180">
        <ele>388.9900000</ele>
        <time>2009-05-03T15:36:20Z</time>
      </trkpt>
      <trkpt lat="43.0611070" lon="-90.1625530">
        <ele>388.5100000</ele>
        <time>2009-05-03T15:36:21Z</time>
      </trkpt>
      <trkpt lat="43.0611840" lon="-90.1628140">
        <ele>388.0300000</ele>
        <time>2009-05-03T15:36:22Z</time>
      </trkpt>
      <trkpt lat="43.0612600" lon="-90.1630740">
        <ele>386.5900000</ele>
        <time>2009-05-03T15:36:23Z</time>
      </trkpt>
      <trkpt lat="43.0613100" lon="-90.1633340">
        <ele>385.6300000</ele>
        <time>2009-05-03T15:36:24Z</time>
      </trkpt>
      <trkpt lat="43.0613320" lon="-90.1636130">
        <ele>384.1800000</ele>
        <time>2009-05-03T15:36:25Z</time>
      </trkpt>
      <trkpt lat="43.0613550" lon="-90.1638930">
        <ele>382.7400000</ele>
        <time>2009-05-03T15:36:26Z</time>
      </trkpt>
      <trkpt lat="43.0616640" lon="-90.1676200">
        <ele>374.5700000</ele>
        <time>2009-05-03T15:36:40Z</time>
      </trkpt>
      <trkpt lat="43.0620810" lon="-90.1704490">
        <ele>364.0000000</ele>
        <time>2009-05-03T15:36:51Z</time>
      </trkpt>
      <trkpt lat="43.0627680" lon="-90.1717150">
        <ele>355.8300000</ele>
        <time>2009-05-03T15:36:57Z</time>
      </trkpt>
      <trkpt lat="43.0639510" lon="-90.1726650">
        <ele>347.1700000</ele>
        <time>2009-05-03T15:37:04Z</time>
      </trkpt>
      <trkpt lat="43.0665260" lon="-90.1740420">
        <ele>347.6500000</ele>
        <time>2009-05-03T15:37:18Z</time>
      </trkpt>
      <trkpt lat="43.0681530" lon="-90.1745780">
        <ele>358.2300000</ele>
        <time>2009-05-03T15:37:27Z</time>
      </trkpt>
      <trkpt lat="43.0705320" lon="-90.1747990">
        <ele>375.0500000</ele>
        <time>2009-05-03T15:37:39Z</time>
      </trkpt>
      <trkpt lat="43.0721610" lon="-90.1752700">
        <ele>378.9000000</ele>
        <time>2009-05-03T15:37:47Z</time>
      </trkpt>
      <trkpt lat="43.0731800" lon="-90.1763820">
        <ele>380.3400000</ele>
        <time>2009-05-03T15:37:53Z</time>
      </trkpt>
      <trkpt lat="43.0736340" lon="-90.1773430">
        <ele>378.4200000</ele>
        <time>2009-05-03T15:37:57Z</time>
      </trkpt>
      <trkpt lat="43.0737040" lon="-90.1775970">
        <ele>377.9400000</ele>
        <time>2009-05-03T15:37:58Z</time>
      </trkpt>
      <trkpt lat="43.0745230" lon="-90.1808770">
        <ele>377.4500000</ele>
        <time>2009-05-03T15:38:11Z</time>
      </trkpt>
      <trkpt lat="43.0751190" lon="-90.1827200">
        <ele>373.1300000</ele>
        <time>2009-05-03T15:38:18Z</time>
      </trkpt>
      <trkpt lat="43.0752620" lon="-90.1829410">
        <ele>373.1300000</ele>
        <time>2009-05-03T15:38:19Z</time>
      </trkpt>
      <trkpt lat="43.0754050" lon="-90.1831610">
        <ele>373.6100000</ele>
        <time>2009-05-03T15:38:20Z</time>
      </trkpt>
      <trkpt lat="43.0755620" lon="-90.1833370">
        <ele>373.6100000</ele>
        <time>2009-05-03T15:38:21Z</time>
      </trkpt>
      <trkpt lat="43.0757430" lon="-90.1834980">
        <ele>374.5700000</ele>
        <time>2009-05-03T15:38:22Z</time>
      </trkpt>
      <trkpt lat="43.0759250" lon="-90.1836570">
        <ele>374.5700000</ele>
        <time>2009-05-03T15:38:23Z</time>
      </trkpt>
      <trkpt lat="43.0783560" lon="-90.1857610">
        <ele>376.0100000</ele>
        <time>2009-05-03T15:38:36Z</time>
      </trkpt>
      <trkpt lat="43.0800570" lon="-90.1868660">
        <ele>373.1300000</ele>
        <time>2009-05-03T15:38:45Z</time>
      </trkpt>
      <trkpt lat="43.0826380" lon="-90.1878340">
        <ele>373.1300000</ele>
        <time>2009-05-03T15:38:58Z</time>
      </trkpt>
      <trkpt lat="43.0840770" lon="-90.1880050">
        <ele>368.8000000</ele>
        <time>2009-05-03T15:39:05Z</time>
      </trkpt>
      <trkpt lat="43.0855830" lon="-90.1874470">
        <ele>370.2400000</ele>
        <time>2009-05-03T15:39:12Z</time>
      </trkpt>
      <trkpt lat="43.0888050" lon="-90.1860450">
        <ele>361.1100000</ele>
        <time>2009-05-03T15:39:28Z</time>
      </trkpt>
      <trkpt lat="43.0908630" lon="-90.1851970">
        <ele>352.9400000</ele>
        <time>2009-05-03T15:39:39Z</time>
      </trkpt>
      <trkpt lat="43.0910220" lon="-90.1852030">
        <ele>352.4600000</ele>
        <time>2009-05-03T15:39:40Z</time>
      </trkpt>
      <trkpt lat="43.0911710" lon="-90.1852750">
        <ele>351.9800000</ele>
        <time>2009-05-03T15:39:41Z</time>
      </trkpt>
      <trkpt lat="43.0913000" lon="-90.1854220">
        <ele>351.0200000</ele>
        <time>2009-05-03T15:39:42Z</time>
      </trkpt>
      <trkpt lat="43.0914260" lon="-90.1855670">
        <ele>351.0200000</ele>
        <time>2009-05-03T15:39:43Z</time>
      </trkpt>
      <trkpt lat="43.0915290" lon="-90.1857730">
        <ele>349.5800000</ele>
        <time>2009-05-03T15:39:44Z</time>
      </trkpt>
      <trkpt lat="43.0916250" lon="-90.1859640">
        <ele>348.6200000</ele>
        <time>2009-05-03T15:39:45Z</time>
      </trkpt>
      <trkpt lat="43.0917180" lon="-90.1861500">
        <ele>347.6500000</ele>
        <time>2009-05-03T15:39:46Z</time>
      </trkpt>
      <trkpt lat="43.0918230" lon="-90.1863200">
        <ele>346.6900000</ele>
        <time>2009-05-03T15:39:47Z</time>
      </trkpt>
      <trkpt lat="43.0919440" lon="-90.1864720">
        <ele>346.2100000</ele>
        <time>2009-05-03T15:39:48Z</time>
      </trkpt>
      <trkpt lat="43.0920670" lon="-90.1866250">
        <ele>345.2500000</ele>
        <time>2009-05-03T15:39:49Z</time>
      </trkpt>
      <trkpt lat="43.0922190" lon="-90.1867250">
        <ele>344.7700000</ele>
        <time>2009-05-03T15:39:50Z</time>
      </trkpt>
      <trkpt lat="43.0923960" lon="-90.1867960">
        <ele>344.2900000</ele>
        <time>2009-05-03T15:39:51Z</time>
      </trkpt>
      <trkpt lat="43.0925710" lon="-90.1868660">
        <ele>343.8100000</ele>
        <time>2009-05-03T15:39:52Z</time>
      </trkpt>
      <trkpt lat="43.0927500" lon="-90.1869380">
        <ele>342.8500000</ele>
        <time>2009-05-03T15:39:53Z</time>
      </trkpt>
      <trkpt lat="43.0931060" lon="-90.1871310">
        <ele>341.4100000</ele>
        <time>2009-05-03T15:39:55Z</time>
      </trkpt>
      <trkpt lat="43.0932840" lon="-90.1872440">
        <ele>340.4400000</ele>
        <time>2009-05-03T15:39:56Z</time>
      </trkpt>
      <trkpt lat="43.0939820" lon="-90.1876980">
        <ele>335.1600000</ele>
        <time>2009-05-03T15:40:00Z</time>
      </trkpt>
      <trkpt lat="43.0941680" lon="-90.1877780">
        <ele>333.2300000</ele>
        <time>2009-05-03T15:40:01Z</time>
      </trkpt>
      <trkpt lat="43.0943610" lon="-90.1877990">
        <ele>331.7900000</ele>
        <time>2009-05-03T15:40:02Z</time>
      </trkpt>
      <trkpt lat="43.0945530" lon="-90.1877830">
        <ele>329.8700000</ele>
        <time>2009-05-03T15:40:03Z</time>
      </trkpt>
      <trkpt lat="43.0947470" lon="-90.1877000">
        <ele>328.4300000</ele>
        <time>2009-05-03T15:40:04Z</time>
      </trkpt>
      <trkpt lat="43.0949280" lon="-90.1875590">
        <ele>326.5000000</ele>
        <time>2009-05-03T15:40:05Z</time>
      </trkpt>
      <trkpt lat="43.0950910" lon="-90.1873960">
        <ele>326.0200000</ele>
        <time>2009-05-03T15:40:06Z</time>
      </trkpt>
      <trkpt lat="43.0952220" lon="-90.1871860">
        <ele>325.5400000</ele>
        <time>2009-05-03T15:40:07Z</time>
      </trkpt>
      <trkpt lat="43.0953310" lon="-90.1869510">
        <ele>324.5800000</ele>
        <time>2009-05-03T15:40:08Z</time>
      </trkpt>
      <trkpt lat="43.0954190" lon="-90.1867010">
        <ele>323.6200000</ele>
        <time>2009-05-03T15:40:09Z</time>
      </trkpt>
      <trkpt lat="43.0955070" lon="-90.1864520">
        <ele>322.1800000</ele>
        <time>2009-05-03T15:40:10Z</time>
      </trkpt>
      <trkpt lat="43.0960320" lon="-90.1849890">
        <ele>314.0100000</ele>
        <time>2009-05-03T15:40:16Z</time>
      </trkpt>
      <trkpt lat="43.0961600" lon="-90.1847970">
        <ele>312.5700000</ele>
        <time>2009-05-03T15:40:17Z</time>
      </trkpt>
      <trkpt lat="43.0963200" lon="-90.1846510">
        <ele>311.1200000</ele>
        <time>2009-05-03T15:40:18Z</time>
      </trkpt>
      <trkpt lat="43.0964820" lon="-90.1845250">
        <ele>309.2000000</ele>
        <time>2009-05-03T15:40:19Z</time>
      </trkpt>
      <trkpt lat="43.0966390" lon="-90.1843630">
        <ele>306.3200000</ele>
        <time>2009-05-03T15:40:20Z</time>
      </trkpt>
      <trkpt lat="43.0967760" lon="-90.1841720">
        <ele>304.3900000</ele>
        <time>2009-05-03T15:40:21Z</time>
      </trkpt>
      <trkpt lat="43.0968130" lon="-90.1839720">
        <ele>302.4700000</ele>
        <time>2009-05-03T15:40:22Z</time>
      </trkpt>
      <trkpt lat="43.0968340" lon="-90.1837520">
        <ele>300.5500000</ele>
        <time>2009-05-03T15:40:23Z</time>
      </trkpt>
      <trkpt lat="43.0968340" lon="-90.1835040">
        <ele>298.6300000</ele>
        <time>2009-05-03T15:40:24Z</time>
      </trkpt>
      <trkpt lat="43.0968340" lon="-90.1832540">
        <ele>297.1800000</ele>
        <time>2009-05-03T15:40:25Z</time>
      </trkpt>
      <trkpt lat="43.0968840" lon="-90.1829800">
        <ele>297.6700000</ele>
        <time>2009-05-03T15:40:26Z</time>
      </trkpt>
      <trkpt lat="43.0969450" lon="-90.1827560">
        <ele>296.2200000</ele>
        <time>2009-05-03T15:40:27Z</time>
      </trkpt>
      <trkpt lat="43.0970250" lon="-90.1825450">
        <ele>295.2600000</ele>
        <time>2009-05-03T15:40:28Z</time>
      </trkpt>
      <trkpt lat="43.0971220" lon="-90.1823600">
        <ele>294.7800000</ele>
        <time>2009-05-03T15:40:29Z</time>
      </trkpt>
      <trkpt lat="43.0972610" lon="-90.1822220">
        <ele>293.8200000</ele>
        <time>2009-05-03T15:40:30Z</time>
      </trkpt>
      <trkpt lat="43.0974190" lon="-90.1821260">
        <ele>293.8200000</ele>
        <time>2009-05-03T15:40:31Z</time>
      </trkpt>
      <trkpt lat="43.0975630" lon="-90.1820770">
        <ele>292.3800000</ele>
        <time>2009-05-03T15:40:32Z</time>
      </trkpt>
      <trkpt lat="43.0977170" lon="-90.1820510">
        <ele>290.9400000</ele>
        <time>2009-05-03T15:40:33Z</time>
      </trkpt>
      <trkpt lat="43.0978710" lon="-90.1820250">
        <ele>289.4900000</ele>
        <time>2009-05-03T15:40:34Z</time>
      </trkpt>
      <trkpt lat="43.0980380" lon="-90.1820120">
        <ele>288.0500000</ele>
        <time>2009-05-03T15:40:35Z</time>
      </trkpt>
      <trkpt lat="43.0981990" lon="-90.1820390">
        <ele>286.6100000</ele>
        <time>2009-05-03T15:40:36Z</time>
      </trkpt>
      <trkpt lat="43.0983600" lon="-90.1820660">
        <ele>285.1700000</ele>
        <time>2009-05-03T15:40:37Z</time>
      </trkpt>
      <trkpt lat="43.0985190" lon="-90.1820940">
        <ele>284.2100000</ele>
        <time>2009-05-03T15:40:38Z</time>
      </trkpt>
      <trkpt lat="43.0986730" lon="-90.1821440">
        <ele>282.7700000</ele>
        <time>2009-05-03T15:40:39Z</time>
      </trkpt>
      <trkpt lat="43.0997810" lon="-90.1825560">
        <ele>274.1100000</ele>
        <time>2009-05-03T15:40:46Z</time>
      </trkpt>
      <trkpt lat="43.0999190" lon="-90.1826630">
        <ele>274.5900000</ele>
        <time>2009-05-03T15:40:47Z</time>
      </trkpt>
      <trkpt lat="43.1000300" lon="-90.1828300">
        <ele>275.0700000</ele>
        <time>2009-05-03T15:40:48Z</time>
      </trkpt>
      <trkpt lat="43.1001150" lon="-90.1830080">
        <ele>274.1100000</ele>
        <time>2009-05-03T15:40:49Z</time>
      </trkpt>
      <trkpt lat="43.1002010" lon="-90.1832100">
        <ele>272.6700000</ele>
        <time>2009-05-03T15:40:50Z</time>
      </trkpt>
      <trkpt lat="43.1002890" lon="-90.1834160">
        <ele>271.7100000</ele>
        <time>2009-05-03T15:40:51Z</time>
      </trkpt>
      <trkpt lat="43.1003790" lon="-90.1836270">
        <ele>270.2700000</ele>
        <time>2009-05-03T15:40:52Z</time>
      </trkpt>
      <trkpt lat="43.1005630" lon="-90.1840550">
        <ele>268.3500000</ele>
        <time>2009-05-03T15:40:54Z</time>
      </trkpt>
      <trkpt lat="43.1007000" lon="-90.1842240">
        <ele>267.3800000</ele>
        <time>2009-05-03T15:40:55Z</time>
      </trkpt>
      <trkpt lat="43.1008440" lon="-90.1843640">
        <ele>265.9400000</ele>
        <time>2009-05-03T15:40:56Z</time>
      </trkpt>
      <trkpt lat="43.1010050" lon="-90.1844710">
        <ele>264.9800000</ele>
        <time>2009-05-03T15:40:57Z</time>
      </trkpt>
      <trkpt lat="43.1011620" lon="-90.1846160">
        <ele>264.5000000</ele>
        <time>2009-05-03T15:40:58Z</time>
      </trkpt>
      <trkpt lat="43.1015480" lon="-90.1851410">
        <ele>261.1400000</ele>
        <time>2009-05-03T15:41:01Z</time>
      </trkpt>
      <trkpt lat="43.1016580" lon="-90.1853450">
        <ele>260.1700000</ele>
        <time>2009-05-03T15:41:02Z</time>
      </trkpt>
      <trkpt lat="43.1017680" lon="-90.1855640">
        <ele>259.2100000</ele>
        <time>2009-05-03T15:41:03Z</time>
      </trkpt>
      <trkpt lat="43.1018790" lon="-90.1857880">
        <ele>257.2900000</ele>
        <time>2009-05-03T15:41:04Z</time>
      </trkpt>
      <trkpt lat="43.1019870" lon="-90.1860260">
        <ele>255.8500000</ele>
        <time>2009-05-03T15:41:05Z</time>
      </trkpt>
      <trkpt lat="43.1029310" lon="-90.1875830">
        <ele>249.1200000</ele>
        <time>2009-05-03T15:41:12Z</time>
      </trkpt>
      <trkpt lat="43.1038840" lon="-90.1889490">
        <ele>246.7200000</ele>
        <time>2009-05-03T15:41:19Z</time>
      </trkpt>
      <trkpt lat="43.1049660" lon="-90.1906960">
        <ele>242.8700000</ele>
        <time>2009-05-03T15:41:28Z</time>
      </trkpt>
      <trkpt lat="43.1072940" lon="-90.1938800">
        <ele>233.2600000</ele>
        <time>2009-05-03T15:41:45Z</time>
      </trkpt>
      <trkpt lat="43.1091020" lon="-90.1963430">
        <ele>230.8500000</ele>
        <time>2009-05-03T15:41:58Z</time>
      </trkpt>
      <trkpt lat="43.1106630" lon="-90.1984690">
        <ele>228.9300000</ele>
        <time>2009-05-03T15:42:08Z</time>
      </trkpt>
      <trkpt lat="43.1141480" lon="-90.2032170">
        <ele>222.6800000</ele>
        <time>2009-05-03T15:42:30Z</time>
      </trkpt>
      <trkpt lat="43.1165260" lon="-90.2067410">
        <ele>220.2800000</ele>
        <time>2009-05-03T15:42:46Z</time>
      </trkpt>
      <trkpt lat="43.1191850" lon="-90.2116670">
        <ele>214.9900000</ele>
        <time>2009-05-03T15:43:06Z</time>
      </trkpt>
      <trkpt lat="43.1193800" lon="-90.2118360">
        <ele>215.9500000</ele>
        <time>2009-05-03T15:43:07Z</time>
      </trkpt>
      <trkpt lat="43.1195770" lon="-90.2120070">
        <ele>216.4300000</ele>
        <time>2009-05-03T15:43:08Z</time>
      </trkpt>
      <trkpt lat="43.1197830" lon="-90.2121340">
        <ele>216.9100000</ele>
        <time>2009-05-03T15:43:09Z</time>
      </trkpt>
      <trkpt lat="43.1200050" lon="-90.2122550">
        <ele>217.4000000</ele>
        <time>2009-05-03T15:43:10Z</time>
      </trkpt>
      <trkpt lat="43.1240020" lon="-90.2144070">
        <ele>213.5500000</ele>
        <time>2009-05-03T15:43:29Z</time>
      </trkpt>
      <trkpt lat="43.1271360" lon="-90.2160460">
        <ele>211.6300000</ele>
        <time>2009-05-03T15:43:45Z</time>
      </trkpt>
      <trkpt lat="43.1289120" lon="-90.2165780">
        <ele>212.5900000</ele>
        <time>2009-05-03T15:43:54Z</time>
      </trkpt>
      <trkpt lat="43.1321180" lon="-90.2166460">
        <ele>210.6700000</ele>
        <time>2009-05-03T15:44:09Z</time>
      </trkpt>
      <trkpt lat="43.1349330" lon="-90.2166670">
        <ele>216.4300000</ele>
        <time>2009-05-03T15:44:23Z</time>
      </trkpt>
      <trkpt lat="43.1381710" lon="-90.2167060">
        <ele>220.7600000</ele>
        <time>2009-05-03T15:44:41Z</time>
      </trkpt>
      <trkpt lat="43.1395110" lon="-90.2166500">
        <ele>220.7600000</ele>
        <time>2009-05-03T15:44:48Z</time>
      </trkpt>
      <trkpt lat="43.1396800" lon="-90.2165760">
        <ele>220.2800000</ele>
        <time>2009-05-03T15:44:49Z</time>
      </trkpt>
      <trkpt lat="43.1398490" lon="-90.2164750">
        <ele>219.8000000</ele>
        <time>2009-05-03T15:44:50Z</time>
      </trkpt>
      <trkpt lat="43.1400120" lon="-90.2163760">
        <ele>219.3200000</ele>
        <time>2009-05-03T15:44:51Z</time>
      </trkpt>
      <trkpt lat="43.1401710" lon="-90.2162490">
        <ele>218.8400000</ele>
        <time>2009-05-03T15:44:52Z</time>
      </trkpt>
      <trkpt lat="43.1402890" lon="-90.2160850">
        <ele>218.3600000</ele>
        <time>2009-05-03T15:44:53Z</time>
      </trkpt>
      <trkpt lat="43.1404000" lon="-90.2158800">
        <ele>218.3600000</ele>
        <time>2009-05-03T15:44:54Z</time>
      </trkpt>
      <trkpt lat="43.1404980" lon="-90.2156780">
        <ele>217.8800000</ele>
        <time>2009-05-03T15:44:55Z</time>
      </trkpt>
      <trkpt lat="43.1405790" lon="-90.2154360">
        <ele>217.4000000</ele>
        <time>2009-05-03T15:44:56Z</time>
      </trkpt>
      <trkpt lat="43.1406510" lon="-90.2152070">
        <ele>216.4300000</ele>
        <time>2009-05-03T15:44:57Z</time>
      </trkpt>
      <trkpt lat="43.1406710" lon="-90.2149360">
        <ele>215.9500000</ele>
        <time>2009-05-03T15:44:58Z</time>
      </trkpt>
      <trkpt lat="43.1406900" lon="-90.2146610">
        <ele>215.4700000</ele>
        <time>2009-05-03T15:44:59Z</time>
      </trkpt>
      <trkpt lat="43.1406930" lon="-90.2143910">
        <ele>215.4700000</ele>
        <time>2009-05-03T15:45:00Z</time>
      </trkpt>
      <trkpt lat="43.1407760" lon="-90.2133060">
        <ele>214.0300000</ele>
        <time>2009-05-03T15:45:04Z</time>
      </trkpt>
      <trkpt lat="43.1408460" lon="-90.2130580">
        <ele>213.5500000</ele>
        <time>2009-05-03T15:45:05Z</time>
      </trkpt>
      <trkpt lat="43.1409380" lon="-90.2128290">
        <ele>213.5500000</ele>
        <time>2009-05-03T15:45:06Z</time>
      </trkpt>
      <trkpt lat="43.1410370" lon="-90.2126110">
        <ele>213.5500000</ele>
        <time>2009-05-03T15:45:07Z</time>
      </trkpt>
      <trkpt lat="43.1411620" lon="-90.2124230">
        <ele>213.5500000</ele>
        <time>2009-05-03T15:45:08Z</time>
      </trkpt>
      <trkpt lat="43.1413050" lon="-90.2122610">
        <ele>213.5500000</ele>
        <time>2009-05-03T15:45:09Z</time>
      </trkpt>
      <trkpt lat="43.1414580" lon="-90.2121330">
        <ele>213.5500000</ele>
        <time>2009-05-03T15:45:10Z</time>
      </trkpt>
      <trkpt lat="43.1416320" lon="-90.2120390">
        <ele>213.5500000</ele>
        <time>2009-05-03T15:45:11Z</time>
      </trkpt>
      <trkpt lat="43.1418090" lon="-90.2119440">
        <ele>214.0300000</ele>
        <time>2009-05-03T15:45:12Z</time>
      </trkpt>
      <trkpt lat="43.1419810" lon="-90.2118740">
        <ele>214.5100000</ele>
        <time>2009-05-03T15:45:13Z</time>
      </trkpt>
      <trkpt lat="43.1421730" lon="-90.2118740">
        <ele>214.5100000</ele>
        <time>2009-05-03T15:45:14Z</time>
      </trkpt>
      <trkpt lat="43.1423720" lon="-90.2118740">
        <ele>214.9900000</ele>
        <time>2009-05-03T15:45:15Z</time>
      </trkpt>
      <trkpt lat="43.1446980" lon="-90.2117490">
        <ele>215.4700000</ele>
        <time>2009-05-03T15:45:26Z</time>
      </trkpt>
      <trkpt lat="43.1449140" lon="-90.2116820">
        <ele>215.4700000</ele>
        <time>2009-05-03T15:45:27Z</time>
      </trkpt>
      <trkpt lat="43.1451140" lon="-90.2115520">
        <ele>215.9500000</ele>
        <time>2009-05-03T15:45:28Z</time>
      </trkpt>
      <trkpt lat="43.1452880" lon="-90.2113760">
        <ele>215.9500000</ele>
        <time>2009-05-03T15:45:29Z</time>
      </trkpt>
      <trkpt lat="43.1454380" lon="-90.2111510">
        <ele>215.9500000</ele>
        <time>2009-05-03T15:45:30Z</time>
      </trkpt>
      <trkpt lat="43.1455600" lon="-90.2109120">
        <ele>215.9500000</ele>
        <time>2009-05-03T15:45:31Z</time>
      </trkpt>
      <trkpt lat="43.1456710" lon="-90.2106410">
        <ele>215.9500000</ele>
        <time>2009-05-03T15:45:32Z</time>
      </trkpt>
      <trkpt lat="43.1457820" lon="-90.2103720">
        <ele>215.9500000</ele>
        <time>2009-05-03T15:45:33Z</time>
      </trkpt>
      <trkpt lat="43.1475740" lon="-90.2063870">
        <ele>215.4700000</ele>
        <time>2009-05-03T15:45:48Z</time>
      </trkpt>
      <trkpt lat="43.1486490" lon="-90.2036790">
        <ele>214.0300000</ele>
        <time>2009-05-03T15:45:58Z</time>
      </trkpt>
      <trkpt lat="43.1495720" lon="-90.2021000">
        <ele>212.5900000</ele>
        <time>2009-05-03T15:46:05Z</time>
      </trkpt>
      <trkpt lat="43.1519890" lon="-90.1985670">
        <ele>211.1500000</ele>
        <time>2009-05-03T15:46:21Z</time>
      </trkpt>
      <trkpt lat="43.1536610" lon="-90.1958620">
        <ele>211.6300000</ele>
        <time>2009-05-03T15:46:33Z</time>
      </trkpt>
      <trkpt lat="43.1546240" lon="-90.1937960">
        <ele>209.7000000</ele>
        <time>2009-05-03T15:46:42Z</time>
      </trkpt>
      <trkpt lat="43.1554620" lon="-90.1912670">
        <ele>210.1900000</ele>
        <time>2009-05-03T15:46:52Z</time>
      </trkpt>
      <trkpt lat="43.1563990" lon="-90.1901820">
        <ele>207.7800000</ele>
        <time>2009-05-03T15:46:58Z</time>
      </trkpt>
      <trkpt lat="43.1577780" lon="-90.1894290">
        <ele>207.3000000</ele>
        <time>2009-05-03T15:47:05Z</time>
      </trkpt>
      <trkpt lat="43.1602450" lon="-90.1883750">
        <ele>208.2600000</ele>
        <time>2009-05-03T15:47:17Z</time>
      </trkpt>
      <trkpt lat="43.1604510" lon="-90.1884260">
        <ele>208.7400000</ele>
        <time>2009-05-03T15:47:18Z</time>
      </trkpt>
      <trkpt lat="43.1606520" lon="-90.1885150">
        <ele>208.7400000</ele>
        <time>2009-05-03T15:47:19Z</time>
      </trkpt>
      <trkpt lat="43.1608290" lon="-90.1886220">
        <ele>209.2200000</ele>
        <time>2009-05-03T15:47:20Z</time>
      </trkpt>
      <trkpt lat="43.1610020" lon="-90.1887950">
        <ele>209.2200000</ele>
        <time>2009-05-03T15:47:21Z</time>
      </trkpt>
      <trkpt lat="43.1611700" lon="-90.1889640">
        <ele>209.7000000</ele>
        <time>2009-05-03T15:47:22Z</time>
      </trkpt>
      <trkpt lat="43.1612950" lon="-90.1891370">
        <ele>210.1900000</ele>
        <time>2009-05-03T15:47:23Z</time>
      </trkpt>
      <trkpt lat="43.1614020" lon="-90.1893620">
        <ele>210.6700000</ele>
        <time>2009-05-03T15:47:24Z</time>
      </trkpt>
      <trkpt lat="43.1615060" lon="-90.1895810">
        <ele>210.1900000</ele>
        <time>2009-05-03T15:47:25Z</time>
      </trkpt>
      <trkpt lat="43.1616080" lon="-90.1897940">
        <ele>210.1900000</ele>
        <time>2009-05-03T15:47:26Z</time>
      </trkpt>
      <trkpt lat="43.1627420" lon="-90.1923110">
        <ele>209.2200000</ele>
        <time>2009-05-03T15:47:39Z</time>
      </trkpt>
      <trkpt lat="43.1633150" lon="-90.1939090">
        <ele>212.5900000</ele>
        <time>2009-05-03T15:47:49Z</time>
      </trkpt>
      <trkpt lat="43.1635100" lon="-90.1944530">
        <ele>213.0700000</ele>
        <time>2009-05-03T15:47:54Z</time>
      </trkpt>
      <trkpt lat="43.1635770" lon="-90.1944550">
        <ele>212.5900000</ele>
        <time>2009-05-03T15:47:55Z</time>
      </trkpt>
      <trkpt lat="43.1636120" lon="-90.1944290">
        <ele>212.5900000</ele>
        <time>2009-05-03T15:47:56Z</time>
      </trkpt>
      <trkpt lat="43.1636550" lon="-90.1943990">
        <ele>211.6300000</ele>
        <time>2009-05-03T15:47:57Z</time>
      </trkpt>
      <trkpt lat="43.1636990" lon="-90.1943670">
        <ele>211.6300000</ele>
        <time>2009-05-03T15:47:58Z</time>
      </trkpt>
      <trkpt lat="43.1637500" lon="-90.1943290">
        <ele>211.6300000</ele>
        <time>2009-05-03T15:47:59Z</time>
      </trkpt>
      <trkpt lat="43.1643870" lon="-90.1938660">
        <ele>209.7000000</ele>
        <time>2009-05-03T15:48:06Z</time>
      </trkpt>
      <trkpt lat="43.1653470" lon="-90.1932210">
        <ele>208.2600000</ele>
        <time>2009-05-03T15:48:13Z</time>
      </trkpt>
      <trkpt lat="43.1667930" lon="-90.1925350">
        <ele>210.1900000</ele>
        <time>2009-05-03T15:48:21Z</time>
      </trkpt>
      <trkpt lat="43.1684330" lon="-90.1924420">
        <ele>211.1500000</ele>
        <time>2009-05-03T15:48:29Z</time>
      </trkpt>
      <trkpt lat="43.1712060" lon="-90.1924620">
        <ele>209.2200000</ele>
        <time>2009-05-03T15:48:44Z</time>
      </trkpt>
      <trkpt lat="43.1736480" lon="-90.1924900">
        <ele>208.7400000</ele>
        <time>2009-05-03T15:48:58Z</time>
      </trkpt>
      <trkpt lat="43.1765030" lon="-90.1925190">
        <ele>208.7400000</ele>
        <time>2009-05-03T15:49:15Z</time>
      </trkpt>
      <trkpt lat="43.1771300" lon="-90.1926340">
        <ele>208.7400000</ele>
        <time>2009-05-03T15:49:19Z</time>
      </trkpt>
      <trkpt lat="43.1772570" lon="-90.1927120">
        <ele>209.2200000</ele>
        <time>2009-05-03T15:49:20Z</time>
      </trkpt>
      <trkpt lat="43.1773990" lon="-90.1928190">
        <ele>209.2200000</ele>
        <time>2009-05-03T15:49:21Z</time>
      </trkpt>
      <trkpt lat="43.1775150" lon="-90.1929060">
        <ele>209.7000000</ele>
        <time>2009-05-03T15:49:22Z</time>
      </trkpt>
      <trkpt lat="43.1776030" lon="-90.1930650">
        <ele>209.7000000</ele>
        <time>2009-05-03T15:49:23Z</time>
      </trkpt>
      <trkpt lat="43.1777010" lon="-90.1932410">
        <ele>209.7000000</ele>
        <time>2009-05-03T15:49:24Z</time>
      </trkpt>
      <trkpt lat="43.1777390" lon="-90.1933690">
        <ele>209.7000000</ele>
        <time>2009-05-03T15:49:25Z</time>
      </trkpt>
      <trkpt lat="43.1777670" lon="-90.1935780">
        <ele>209.7000000</ele>
        <time>2009-05-03T15:49:26Z</time>
      </trkpt>
      <trkpt lat="43.1777960" lon="-90.1937900">
        <ele>209.7000000</ele>
        <time>2009-05-03T15:49:27Z</time>
      </trkpt>
      <trkpt lat="43.1778160" lon="-90.1939820">
        <ele>209.7000000</ele>
        <time>2009-05-03T15:49:28Z</time>
      </trkpt>
      <trkpt lat="43.1778240" lon="-90.1942010">
        <ele>209.7000000</ele>
        <time>2009-05-03T15:49:29Z</time>
      </trkpt>
      <trkpt lat="43.1780230" lon="-90.1964290">
        <ele>210.6700000</ele>
        <time>2009-05-03T15:49:39Z</time>
      </trkpt>
      <trkpt lat="43.1780880" lon="-90.1966700">
        <ele>210.6700000</ele>
        <time>2009-05-03T15:49:40Z</time>
      </trkpt>
      <trkpt lat="43.1781830" lon="-90.1968600">
        <ele>211.1500000</ele>
        <time>2009-05-03T15:49:41Z</time>
      </trkpt>
      <trkpt lat="43.1782770" lon="-90.1970490">
        <ele>211.1500000</ele>
        <time>2009-05-03T15:49:42Z</time>
      </trkpt>
      <trkpt lat="43.1783710" lon="-90.1972360">
        <ele>211.1500000</ele>
        <time>2009-05-03T15:49:43Z</time>
      </trkpt>
      <trkpt lat="43.1784910" lon="-90.1973680">
        <ele>211.1500000</ele>
        <time>2009-05-03T15:49:44Z</time>
      </trkpt>
      <trkpt lat="43.1786220" lon="-90.1975090">
        <ele>211.1500000</ele>
        <time>2009-05-03T15:49:45Z</time>
      </trkpt>
      <trkpt lat="43.1787510" lon="-90.1976500">
        <ele>211.1500000</ele>
        <time>2009-05-03T15:49:46Z</time>
      </trkpt>
      <trkpt lat="43.1788800" lon="-90.1977890">
        <ele>211.1500000</ele>
        <time>2009-05-03T15:49:47Z</time>
      </trkpt>
      <trkpt lat="43.1790160" lon="-90.1978830">
        <ele>211.1500000</ele>
        <time>2009-05-03T15:49:48Z</time>
      </trkpt>
      <trkpt lat="43.1791560" lon="-90.1979720">
        <ele>210.6700000</ele>
        <time>2009-05-03T15:49:49Z</time>
      </trkpt>
      <trkpt lat="43.1793080" lon="-90.1980160">
        <ele>211.1500000</ele>
        <time>2009-05-03T15:49:50Z</time>
      </trkpt>
      <trkpt lat="43.1794560" lon="-90.1980570">
        <ele>211.1500000</ele>
        <time>2009-05-03T15:49:51Z</time>
      </trkpt>
      <trkpt lat="43.1796020" lon="-90.1980860">
        <ele>211.6300000</ele>
        <time>2009-05-03T15:49:52Z</time>
      </trkpt>
      <trkpt lat="43.1797480" lon="-90.1981160">
        <ele>211.6300000</ele>
        <time>2009-05-03T15:49:53Z</time>
      </trkpt>
      <trkpt lat="43.1798840" lon="-90.1981410">
        <ele>211.1500000</ele>
        <time>2009-05-03T15:49:54Z</time>
      </trkpt>
      <trkpt lat="43.1800180" lon="-90.1981410">
        <ele>210.6700000</ele>
        <time>2009-05-03T15:49:55Z</time>
      </trkpt>
      <trkpt lat="43.1812490" lon="-90.1981410">
        <ele>209.2200000</ele>
        <time>2009-05-03T15:50:06Z</time>
      </trkpt>
      <trkpt lat="43.1821140" lon="-90.1981410">
        <ele>210.1900000</ele>
        <time>2009-05-03T15:50:18Z</time>
      </trkpt>
      <trkpt lat="43.1839160" lon="-90.1981410">
        <ele>209.7000000</ele>
        <time>2009-05-03T15:50:35Z</time>
      </trkpt>
      <trkpt lat="43.1840380" lon="-90.1981840">
        <ele>210.1900000</ele>
        <time>2009-05-03T15:50:36Z</time>
      </trkpt>
      <trkpt lat="43.1841020" lon="-90.1982300">
        <ele>210.1900000</ele>
        <time>2009-05-03T15:50:37Z</time>
      </trkpt>
      <trkpt lat="43.1841960" lon="-90.1982960">
        <ele>209.7000000</ele>
        <time>2009-05-03T15:50:38Z</time>
      </trkpt>
      <trkpt lat="43.1842930" lon="-90.1983640">
        <ele>209.7000000</ele>
        <time>2009-05-03T15:50:39Z</time>
      </trkpt>
      <trkpt lat="43.1843930" lon="-90.1984350">
        <ele>209.7000000</ele>
        <time>2009-05-03T15:50:40Z</time>
      </trkpt>
      <trkpt lat="43.1850350" lon="-90.1987900">
        <ele>210.6700000</ele>
        <time>2009-05-03T15:50:46Z</time>
      </trkpt>
      <trkpt lat="43.1851510" lon="-90.1987950">
        <ele>210.6700000</ele>
        <time>2009-05-03T15:50:47Z</time>
      </trkpt>
      <trkpt lat="43.1852700" lon="-90.1988010">
        <ele>210.6700000</ele>
        <time>2009-05-03T15:50:48Z</time>
      </trkpt>
      <trkpt lat="43.1876520" lon="-90.1988300">
        <ele>211.1500000</ele>
        <time>2009-05-03T15:51:08Z</time>
      </trkpt>
      <trkpt lat="43.1900910" lon="-90.1989080">
        <ele>214.9900000</ele>
        <time>2009-05-03T15:51:29Z</time>
      </trkpt>
      <trkpt lat="43.1904080" lon="-90.1988980">
        <ele>214.9900000</ele>
        <time>2009-05-03T15:51:35Z</time>
      </trkpt>
      <trkpt lat="43.1906760" lon="-90.1988900">
        <ele>214.9900000</ele>
        <time>2009-05-03T15:51:43Z</time>
      </trkpt>
      <trkpt lat="43.1908320" lon="-90.1988850">
        <ele>215.4700000</ele>
        <time>2009-05-03T15:52:00Z</time>
      </trkpt>
      <trkpt lat="43.1909210" lon="-90.1988820">
        <ele>215.9500000</ele>
        <time>2009-05-03T15:52:10Z</time>
      </trkpt>
      <trkpt lat="43.1912920" lon="-90.1989830">
        <ele>215.9500000</ele>
        <time>2009-05-03T15:52:17Z</time>
      </trkpt>
      <trkpt lat="43.1912940" lon="-90.1990920">
        <ele>215.9500000</ele>
        <time>2009-05-03T15:52:18Z</time>
      </trkpt>
      <trkpt lat="43.1912960" lon="-90.1992200">
        <ele>215.9500000</ele>
        <time>2009-05-03T15:52:19Z</time>
      </trkpt>
      <trkpt lat="43.1912980" lon="-90.1993830">
        <ele>216.4300000</ele>
        <time>2009-05-03T15:52:20Z</time>
      </trkpt>
      <trkpt lat="43.1913010" lon="-90.1995690">
        <ele>216.4300000</ele>
        <time>2009-05-03T15:52:21Z</time>
      </trkpt>
      <trkpt lat="43.1913240" lon="-90.2011170">
        <ele>216.4300000</ele>
        <time>2009-05-03T15:52:27Z</time>
      </trkpt>
      <trkpt lat="43.1913760" lon="-90.2060550">
        <ele>216.4300000</ele>
        <time>2009-05-03T15:52:44Z</time>
      </trkpt>
      <trkpt lat="43.1914190" lon="-90.2097860">
        <ele>216.4300000</ele>
        <time>2009-05-03T15:52:58Z</time>
      </trkpt>
      <trkpt lat="43.1914620" lon="-90.2151950">
        <ele>215.9500000</ele>
        <time>2009-05-03T15:53:17Z</time>
      </trkpt>
      <trkpt lat="43.1916300" lon="-90.2190360">
        <ele>214.9900000</ele>
        <time>2009-05-03T15:53:29Z</time>
      </trkpt>
      <trkpt lat="43.1922680" lon="-90.2225790">
        <ele>215.4700000</ele>
        <time>2009-05-03T15:53:40Z</time>
      </trkpt>
      <trkpt lat="43.1932600" lon="-90.2258610">
        <ele>216.9100000</ele>
        <time>2009-05-03T15:53:51Z</time>
      </trkpt>
      <trkpt lat="43.1949800" lon="-90.2301190">
        <ele>217.4000000</ele>
        <time>2009-05-03T15:54:06Z</time>
      </trkpt>
      <trkpt lat="43.1973440" lon="-90.2359240">
        <ele>217.8800000</ele>
        <time>2009-05-03T15:54:26Z</time>
      </trkpt>
      <trkpt lat="43.2002740" lon="-90.2431480">
        <ele>216.4300000</ele>
        <time>2009-05-03T15:54:51Z</time>
      </trkpt>
      <trkpt lat="43.2028910" lon="-90.2495990">
        <ele>216.4300000</ele>
        <time>2009-05-03T15:55:13Z</time>
      </trkpt>
      <trkpt lat="43.2054540" lon="-90.2558500">
        <ele>219.3200000</ele>
        <time>2009-05-03T15:55:35Z</time>
      </trkpt>
      <trkpt lat="43.2075040" lon="-90.2610830">
        <ele>218.3600000</ele>
        <time>2009-05-03T15:55:53Z</time>
      </trkpt>
      <trkpt lat="43.2104220" lon="-90.2690770">
        <ele>218.3600000</ele>
        <time>2009-05-03T15:56:21Z</time>
      </trkpt>
      <trkpt lat="43.2123770" lon="-90.2743840">
        <ele>218.3600000</ele>
        <time>2009-05-03T15:56:39Z</time>
      </trkpt>
      <trkpt lat="43.2144640" lon="-90.2801210">
        <ele>218.3600000</ele>
        <time>2009-05-03T15:56:59Z</time>
      </trkpt>
      <trkpt lat="43.2177350" lon="-90.2887020">
        <ele>216.9100000</ele>
        <time>2009-05-03T15:57:29Z</time>
      </trkpt>
      <trkpt lat="43.2189380" lon="-90.2903240">
        <ele>215.9500000</ele>
        <time>2009-05-03T15:57:36Z</time>
      </trkpt>
      <trkpt lat="43.2203020" lon="-90.2912280">
        <ele>217.8800000</ele>
        <time>2009-05-03T15:57:43Z</time>
      </trkpt>
      <trkpt lat="43.2214370" lon="-90.2915450">
        <ele>218.8400000</ele>
        <time>2009-05-03T15:57:50Z</time>
      </trkpt>
      <trkpt lat="43.2226760" lon="-90.2915680">
        <ele>218.8400000</ele>
        <time>2009-05-03T15:58:00Z</time>
      </trkpt>
      <trkpt lat="43.2241210" lon="-90.2915680">
        <ele>220.7600000</ele>
        <time>2009-05-03T15:58:13Z</time>
      </trkpt>
      <trkpt lat="43.2258280" lon="-90.2915090">
        <ele>221.7200000</ele>
        <time>2009-05-03T15:58:25Z</time>
      </trkpt>
      <trkpt lat="43.2275420" lon="-90.2914790">
        <ele>221.7200000</ele>
        <time>2009-05-03T15:58:35Z</time>
      </trkpt>
      <trkpt lat="43.2296670" lon="-90.2914410">
        <ele>222.6800000</ele>
        <time>2009-05-03T15:58:45Z</time>
      </trkpt>
      <trkpt lat="43.2345030" lon="-90.2914390">
        <ele>218.3600000</ele>
        <time>2009-05-03T15:59:07Z</time>
      </trkpt>
      <trkpt lat="43.2396040" lon="-90.2914370">
        <ele>220.2800000</ele>
        <time>2009-05-03T15:59:29Z</time>
      </trkpt>
      <trkpt lat="43.2448590" lon="-90.2914040">
        <ele>224.1200000</ele>
        <time>2009-05-03T15:59:52Z</time>
      </trkpt>
      <trkpt lat="43.2481520" lon="-90.2913960">
        <ele>228.4500000</ele>
        <time>2009-05-03T16:00:06Z</time>
      </trkpt>
      <trkpt lat="43.2511260" lon="-90.2915920">
        <ele>230.8500000</ele>
        <time>2009-05-03T16:00:19Z</time>
      </trkpt>
      <trkpt lat="43.2531710" lon="-90.2924300">
        <ele>228.9300000</ele>
        <time>2009-05-03T16:00:28Z</time>
      </trkpt>
      <trkpt lat="43.2551540" lon="-90.2929410">
        <ele>221.7200000</ele>
        <time>2009-05-03T16:00:36Z</time>
      </trkpt>
      <trkpt lat="43.2571670" lon="-90.2927340">
        <ele>217.4000000</ele>
        <time>2009-05-03T16:00:44Z</time>
      </trkpt>
      <trkpt lat="43.2611520" lon="-90.2920930">
        <ele>214.5100000</ele>
        <time>2009-05-03T16:01:00Z</time>
      </trkpt>
      <trkpt lat="43.2630710" lon="-90.2924980">
        <ele>214.5100000</ele>
        <time>2009-05-03T16:01:08Z</time>
      </trkpt>
      <trkpt lat="43.2663790" lon="-90.2934180">
        <ele>215.9500000</ele>
        <time>2009-05-03T16:01:23Z</time>
      </trkpt>
      <trkpt lat="43.2680350" lon="-90.2938790">
        <ele>216.9100000</ele>
        <time>2009-05-03T16:01:33Z</time>
      </trkpt>
      <trkpt lat="43.2711680" lon="-90.2948730">
        <ele>220.7600000</ele>
        <time>2009-05-03T16:01:50Z</time>
      </trkpt>
      <trkpt lat="43.2732540" lon="-90.2961560">
        <ele>219.3200000</ele>
        <time>2009-05-03T16:02:01Z</time>
      </trkpt>
      <trkpt lat="43.2749140" lon="-90.2978770">
        <ele>217.8800000</ele>
        <time>2009-05-03T16:02:10Z</time>
      </trkpt>
      <trkpt lat="43.2767500" lon="-90.3004530">
        <ele>214.5100000</ele>
        <time>2009-05-03T16:02:21Z</time>
      </trkpt>
      <trkpt lat="43.2782520" lon="-90.3027040">
        <ele>213.0700000</ele>
        <time>2009-05-03T16:02:32Z</time>
      </trkpt>
      <trkpt lat="43.2800740" lon="-90.3054250">
        <ele>212.5900000</ele>
        <time>2009-05-03T16:02:44Z</time>
      </trkpt>
      <trkpt lat="43.2845850" lon="-90.3121530">
        <ele>215.4700000</ele>
        <time>2009-05-03T16:03:12Z</time>
      </trkpt>
      <trkpt lat="43.2888080" lon="-90.3184480">
        <ele>214.9900000</ele>
        <time>2009-05-03T16:03:37Z</time>
      </trkpt>
      <trkpt lat="43.2917080" lon="-90.3224410">
        <ele>215.9500000</ele>
        <time>2009-05-03T16:03:54Z</time>
      </trkpt>
      <trkpt lat="43.2933270" lon="-90.3236270">
        <ele>216.4300000</ele>
        <time>2009-05-03T16:04:02Z</time>
      </trkpt>
      <trkpt lat="43.2962020" lon="-90.3251260">
        <ele>215.9500000</ele>
        <time>2009-05-03T16:04:15Z</time>
      </trkpt>
      <trkpt lat="43.2994670" lon="-90.3269270">
        <ele>217.8800000</ele>
        <time>2009-05-03T16:04:30Z</time>
      </trkpt>
      <trkpt lat="43.3017740" lon="-90.3290130">
        <ele>217.8800000</ele>
        <time>2009-05-03T16:04:42Z</time>
      </trkpt>
      <trkpt lat="43.3051490" lon="-90.3327550">
        <ele>224.1200000</ele>
        <time>2009-05-03T16:05:01Z</time>
      </trkpt>
      <trkpt lat="43.3080580" lon="-90.3366020">
        <ele>222.2000000</ele>
        <time>2009-05-03T16:05:18Z</time>
      </trkpt>
      <trkpt lat="43.3108430" lon="-90.3407110">
        <ele>223.1600000</ele>
        <time>2009-05-03T16:05:35Z</time>
      </trkpt>
      <trkpt lat="43.3126420" lon="-90.3440770">
        <ele>222.6800000</ele>
        <time>2009-05-03T16:05:49Z</time>
      </trkpt>
      <trkpt lat="43.3136900" lon="-90.3464200">
        <ele>224.6100000</ele>
        <time>2009-05-03T16:06:00Z</time>
      </trkpt>
      <trkpt lat="43.3151580" lon="-90.3502050">
        <ele>223.6400000</ele>
        <time>2009-05-03T16:06:17Z</time>
      </trkpt>
      <trkpt lat="43.3165550" lon="-90.3545410">
        <ele>222.2000000</ele>
        <time>2009-05-03T16:06:35Z</time>
      </trkpt>
      <trkpt lat="43.3172810" lon="-90.3570720">
        <ele>221.2400000</ele>
        <time>2009-05-03T16:06:47Z</time>
      </trkpt>
      <trkpt lat="43.3179880" lon="-90.3599930">
        <ele>222.2000000</ele>
        <time>2009-05-03T16:07:01Z</time>
      </trkpt>
      <trkpt lat="43.3188490" lon="-90.3639330">
        <ele>222.2000000</ele>
        <time>2009-05-03T16:07:20Z</time>
      </trkpt>
      <trkpt lat="43.3193830" lon="-90.3668320">
        <ele>220.2800000</ele>
        <time>2009-05-03T16:07:34Z</time>
      </trkpt>
      <trkpt lat="43.3201280" lon="-90.3711240">
        <ele>222.2000000</ele>
        <time>2009-05-03T16:07:52Z</time>
      </trkpt>
      <trkpt lat="43.3209320" lon="-90.3755670">
        <ele>227.4900000</ele>
        <time>2009-05-03T16:08:12Z</time>
      </trkpt>
      <trkpt lat="43.3215260" lon="-90.3774460">
        <ele>228.9300000</ele>
        <time>2009-05-03T16:08:22Z</time>
      </trkpt>
      <trkpt lat="43.3218990" lon="-90.3781250">
        <ele>227.4900000</ele>
        <time>2009-05-03T16:08:29Z</time>
      </trkpt>
      <trkpt lat="43.3220910" lon="-90.3784060">
        <ele>226.0500000</ele>
        <time>2009-05-03T16:08:36Z</time>
      </trkpt>
      <trkpt lat="43.3226570" lon="-90.3791090">
        <ele>226.5300000</ele>
        <time>2009-05-03T16:08:44Z</time>
      </trkpt>
      <trkpt lat="43.3240280" lon="-90.3803170">
        <ele>227.9700000</ele>
        <time>2009-05-03T16:08:57Z</time>
      </trkpt>
      <trkpt lat="43.3245860" lon="-90.3813930">
        <ele>226.5300000</ele>
        <time>2009-05-03T16:09:06Z</time>
      </trkpt>
      <trkpt lat="43.3248620" lon="-90.3827010">
        <ele>222.6800000</ele>
        <time>2009-05-03T16:09:13Z</time>
      </trkpt>
      <trkpt lat="43.3249250" lon="-90.3829150">
        <ele>222.2000000</ele>
        <time>2009-05-03T16:09:14Z</time>
      </trkpt>
      <trkpt lat="43.3249900" lon="-90.3831350">
        <ele>221.2400000</ele>
        <time>2009-05-03T16:09:15Z</time>
      </trkpt>
      <trkpt lat="43.3250620" lon="-90.3833690">
        <ele>221.2400000</ele>
        <time>2009-05-03T16:09:16Z</time>
      </trkpt>
      <trkpt lat="43.3251900" lon="-90.3835360">
        <ele>220.7600000</ele>
        <time>2009-05-03T16:09:17Z</time>
      </trkpt>
      <trkpt lat="43.3253190" lon="-90.3837040">
        <ele>220.7600000</ele>
        <time>2009-05-03T16:09:18Z</time>
      </trkpt>
      <trkpt lat="43.3254500" lon="-90.3838740">
        <ele>220.7600000</ele>
        <time>2009-05-03T16:09:19Z</time>
      </trkpt>
      <trkpt lat="43.3255920" lon="-90.3840030">
        <ele>220.7600000</ele>
        <time>2009-05-03T16:09:20Z</time>
      </trkpt>
      <trkpt lat="43.3257420" lon="-90.3841210">
        <ele>220.7600000</ele>
        <time>2009-05-03T16:09:21Z</time>
      </trkpt>
      <trkpt lat="43.3258910" lon="-90.3842310">
        <ele>220.7600000</ele>
        <time>2009-05-03T16:09:22Z</time>
      </trkpt>
      <trkpt lat="43.3260490" lon="-90.3843150">
        <ele>221.2400000</ele>
        <time>2009-05-03T16:09:23Z</time>
      </trkpt>
      <trkpt lat="43.3279180" lon="-90.3854210">
        <ele>222.2000000</ele>
        <time>2009-05-03T16:09:36Z</time>
      </trkpt>
      <trkpt lat="43.3284710" lon="-90.3859250">
        <ele>223.1600000</ele>
        <time>2009-05-03T16:09:43Z</time>
      </trkpt>
      <trkpt lat="43.3288200" lon="-90.3861960">
        <ele>225.0900000</ele>
        <time>2009-05-03T16:09:55Z</time>
      </trkpt>
      <trkpt lat="43.3289160" lon="-90.3862680">
        <ele>225.5700000</ele>
        <time>2009-05-03T16:10:10Z</time>
      </trkpt>
      <trkpt lat="43.3291900" lon="-90.3864740">
        <ele>225.5700000</ele>
        <time>2009-05-03T16:10:16Z</time>
      </trkpt>
      <trkpt lat="43.3301490" lon="-90.3874900">
        <ele>224.6100000</ele>
        <time>2009-05-03T16:10:27Z</time>
      </trkpt>
      <trkpt lat="43.3310280" lon="-90.3878700">
        <ele>224.1200000</ele>
        <time>2009-05-03T16:10:36Z</time>
      </trkpt>
      <trkpt lat="43.3320370" lon="-90.3879090">
        <ele>223.1600000</ele>
        <time>2009-05-03T16:10:47Z</time>
      </trkpt>
      <trkpt lat="43.3328420" lon="-90.3883500">
        <ele>221.7200000</ele>
        <time>2009-05-03T16:10:56Z</time>
      </trkpt>
      <trkpt lat="43.3336470" lon="-90.3888650">
        <ele>222.2000000</ele>
        <time>2009-05-03T16:11:09Z</time>
      </trkpt>
      <trkpt lat="43.3338700" lon="-90.3889850">
        <ele>222.2000000</ele>
        <time>2009-05-03T16:11:18Z</time>
      </trkpt>
      <trkpt lat="43.3341550" lon="-90.3891030">
        <ele>222.6800000</ele>
        <time>2009-05-03T16:11:26Z</time>
      </trkpt>
      <trkpt lat="43.3351630" lon="-90.3891770">
        <ele>222.6800000</ele>
        <time>2009-05-03T16:11:37Z</time>
      </trkpt>
      <trkpt lat="43.3362990" lon="-90.3891230">
        <ele>222.2000000</ele>
        <time>2009-05-03T16:11:50Z</time>
      </trkpt>
      <trkpt lat="43.3378460" lon="-90.3890720">
        <ele>223.6400000</ele>
        <time>2009-05-03T16:12:08Z</time>
      </trkpt>
      <trkpt lat="43.3395710" lon="-90.3890550">
        <ele>222.6800000</ele>
        <time>2009-05-03T16:12:27Z</time>
      </trkpt>
      <trkpt lat="43.3409590" lon="-90.3890290">
        <ele>225.5700000</ele>
        <time>2009-05-03T16:12:43Z</time>
      </trkpt>
      <trkpt lat="43.3410040" lon="-90.3890290">
        <ele>225.0900000</ele>
        <time>2009-05-03T16:12:44Z</time>
      </trkpt>
      <trkpt lat="43.3410300" lon="-90.3890290">
        <ele>225.0900000</ele>
        <time>2009-05-03T16:12:45Z</time>
      </trkpt>
      <trkpt lat="43.3410160" lon="-90.3888350">
        <ele>225.0900000</ele>
        <time>2009-05-03T16:12:46Z</time>
      </trkpt>
      <trkpt lat="43.3410120" lon="-90.3887400">
        <ele>225.5700000</ele>
        <time>2009-05-03T16:12:47Z</time>
      </trkpt>
      <trkpt lat="43.3410090" lon="-90.3886350">
        <ele>225.0900000</ele>
        <time>2009-05-03T16:12:48Z</time>
      </trkpt>
      <trkpt lat="43.3410050" lon="-90.3885260">
        <ele>225.0900000</ele>
        <time>2009-05-03T16:12:49Z</time>
      </trkpt>
      <trkpt lat="43.3409790" lon="-90.3871470">
        <ele>224.1200000</ele>
        <time>2009-05-03T16:13:04Z</time>
      </trkpt>
      <trkpt lat="43.3409790" lon="-90.3870860">
        <ele>223.6400000</ele>
        <time>2009-05-03T16:13:13Z</time>
      </trkpt>
      <trkpt lat="43.3409790" lon="-90.3868570">
        <ele>221.2400000</ele>
        <time>2009-05-03T16:13:22Z</time>
      </trkpt>
      <trkpt lat="43.3409960" lon="-90.3865400">
        <ele>220.2800000</ele>
        <time>2009-05-03T16:13:28Z</time>
      </trkpt>
      <trkpt lat="43.3410640" lon="-90.3865400">
        <ele>220.2800000</ele>
        <time>2009-05-03T16:13:29Z</time>
      </trkpt>
      <trkpt lat="43.3411390" lon="-90.3865400">
        <ele>219.8000000</ele>
        <time>2009-05-03T16:13:30Z</time>
      </trkpt>
      <trkpt lat="43.3420510" lon="-90.3865400">
        <ele>221.2400000</ele>
        <time>2009-05-03T16:13:39Z</time>
      </trkpt>
      <trkpt lat="43.3445700" lon="-90.3864970">
        <ele>222.2000000</ele>
        <time>2009-05-03T16:13:59Z</time>
      </trkpt>
      <trkpt lat="43.3461780" lon="-90.3866250">
        <ele>226.0500000</ele>
        <time>2009-05-03T16:14:11Z</time>
      </trkpt>
      <trkpt lat="43.3486800" lon="-90.3865480">
        <ele>225.5700000</ele>
        <time>2009-05-03T16:14:27Z</time>
      </trkpt>
      <trkpt lat="43.3499760" lon="-90.3869700">
        <ele>223.6400000</ele>
        <time>2009-05-03T16:14:35Z</time>
      </trkpt>
      <trkpt lat="43.3521370" lon="-90.3879990">
        <ele>224.1200000</ele>
        <time>2009-05-03T16:14:50Z</time>
      </trkpt>
      <trkpt lat="43.3541100" lon="-90.3886320">
        <ele>225.5700000</ele>
        <time>2009-05-03T16:15:04Z</time>
      </trkpt>
      <trkpt lat="43.3559550" lon="-90.3885940">
        <ele>225.0900000</ele>
        <time>2009-05-03T16:15:15Z</time>
      </trkpt>
      <trkpt lat="43.3582040" lon="-90.3885620">
        <ele>224.1200000</ele>
        <time>2009-05-03T16:15:26Z</time>
      </trkpt>
      <trkpt lat="43.3597140" lon="-90.3892940">
        <ele>224.6100000</ele>
        <time>2009-05-03T16:15:33Z</time>
      </trkpt>
      <trkpt lat="43.3610190" lon="-90.3907690">
        <ele>223.1600000</ele>
        <time>2009-05-03T16:15:40Z</time>
      </trkpt>
      <trkpt lat="43.3625110" lon="-90.3934540">
        <ele>223.6400000</ele>
        <time>2009-05-03T16:15:50Z</time>
      </trkpt>
      <trkpt lat="43.3638290" lon="-90.3953370">
        <ele>225.5700000</ele>
        <time>2009-05-03T16:15:58Z</time>
      </trkpt>
      <trkpt lat="43.3654670" lon="-90.3967070">
        <ele>227.0100000</ele>
        <time>2009-05-03T16:16:06Z</time>
      </trkpt>
      <trkpt lat="43.3673460" lon="-90.3975180">
        <ele>227.0100000</ele>
        <time>2009-05-03T16:16:14Z</time>
      </trkpt>
      <trkpt lat="43.3690270" lon="-90.3975090">
        <ele>226.5300000</ele>
        <time>2009-05-03T16:16:21Z</time>
      </trkpt>
      <trkpt lat="43.3703980" lon="-90.3968940">
        <ele>227.4900000</ele>
        <time>2009-05-03T16:16:27Z</time>
      </trkpt>
      <trkpt lat="43.3718210" lon="-90.3954400">
        <ele>231.3300000</ele>
        <time>2009-05-03T16:16:34Z</time>
      </trkpt>
      <trkpt lat="43.3738640" lon="-90.3923950">
        <ele>228.4500000</ele>
        <time>2009-05-03T16:16:46Z</time>
      </trkpt>
      <trkpt lat="43.3760410" lon="-90.3896290">
        <ele>226.5300000</ele>
        <time>2009-05-03T16:16:58Z</time>
      </trkpt>
      <trkpt lat="43.3774300" lon="-90.3889420">
        <ele>229.8900000</ele>
        <time>2009-05-03T16:17:04Z</time>
      </trkpt>
      <trkpt lat="43.3789120" lon="-90.3888950">
        <ele>232.3000000</ele>
        <time>2009-05-03T16:17:10Z</time>
      </trkpt>
      <trkpt lat="43.3818570" lon="-90.3896650">
        <ele>231.8100000</ele>
        <time>2009-05-03T16:17:22Z</time>
      </trkpt>
      <trkpt lat="43.3840910" lon="-90.3897610">
        <ele>230.8500000</ele>
        <time>2009-05-03T16:17:31Z</time>
      </trkpt>
      <trkpt lat="43.3861140" lon="-90.3894520">
        <ele>232.3000000</ele>
        <time>2009-05-03T16:17:40Z</time>
      </trkpt>
      <trkpt lat="43.3874490" lon="-90.3890010">
        <ele>234.7000000</ele>
        <time>2009-05-03T16:17:48Z</time>
      </trkpt>
      <trkpt lat="43.3876950" lon="-90.3889410">
        <ele>235.6600000</ele>
        <time>2009-05-03T16:17:50Z</time>
      </trkpt>
      <trkpt lat="43.3877350" lon="-90.3890070">
        <ele>235.6600000</ele>
        <time>2009-05-03T16:17:51Z</time>
      </trkpt>
      <trkpt lat="43.3877970" lon="-90.3891100">
        <ele>235.6600000</ele>
        <time>2009-05-03T16:17:52Z</time>
      </trkpt>
      <trkpt lat="43.3878860" lon="-90.3892190">
        <ele>235.1800000</ele>
        <time>2009-05-03T16:17:53Z</time>
      </trkpt>
      <trkpt lat="43.3879880" lon="-90.3893440">
        <ele>234.7000000</ele>
        <time>2009-05-03T16:17:54Z</time>
      </trkpt>
      <trkpt lat="43.3881000" lon="-90.3894810">
        <ele>234.7000000</ele>
        <time>2009-05-03T16:17:55Z</time>
      </trkpt>
      <trkpt lat="43.3882350" lon="-90.3896110">
        <ele>234.2200000</ele>
        <time>2009-05-03T16:17:56Z</time>
      </trkpt>
      <trkpt lat="43.3883920" lon="-90.3896900">
        <ele>233.7400000</ele>
        <time>2009-05-03T16:17:57Z</time>
      </trkpt>
      <trkpt lat="43.3885510" lon="-90.3897690">
        <ele>233.2600000</ele>
        <time>2009-05-03T16:17:58Z</time>
      </trkpt>
      <trkpt lat="43.3887090" lon="-90.3898480">
        <ele>232.7800000</ele>
        <time>2009-05-03T16:17:59Z</time>
      </trkpt>
      <trkpt lat="43.3903050" lon="-90.3904020">
        <ele>231.3300000</ele>
        <time>2009-05-03T16:18:09Z</time>
      </trkpt>
      <trkpt lat="43.3924840" lon="-90.3913710">
        <ele>233.2600000</ele>
        <time>2009-05-03T16:18:22Z</time>
      </trkpt>
      <trkpt lat="43.3945830" lon="-90.3934430">
        <ele>237.5800000</ele>
        <time>2009-05-03T16:18:36Z</time>
      </trkpt>
      <trkpt lat="43.3947050" lon="-90.3936720">
        <ele>237.5800000</ele>
        <time>2009-05-03T16:18:37Z</time>
      </trkpt>
      <trkpt lat="43.3948380" lon="-90.3939210">
        <ele>237.1000000</ele>
        <time>2009-05-03T16:18:38Z</time>
      </trkpt>
      <trkpt lat="43.3958030" lon="-90.3957710">
        <ele>231.3300000</ele>
        <time>2009-05-03T16:18:46Z</time>
      </trkpt>
      <trkpt lat="43.3974880" lon="-90.3985460">
        <ele>231.8100000</ele>
        <time>2009-05-03T16:18:59Z</time>
      </trkpt>
      <trkpt lat="43.3976430" lon="-90.3987010">
        <ele>232.3000000</ele>
        <time>2009-05-03T16:19:00Z</time>
      </trkpt>
      <trkpt lat="43.3978000" lon="-90.3988350">
        <ele>232.7800000</ele>
        <time>2009-05-03T16:19:01Z</time>
      </trkpt>
      <trkpt lat="43.3979760" lon="-90.3989230">
        <ele>232.7800000</ele>
        <time>2009-05-03T16:19:02Z</time>
      </trkpt>
      <trkpt lat="43.3981520" lon="-90.3990110">
        <ele>233.2600000</ele>
        <time>2009-05-03T16:19:03Z</time>
      </trkpt>
      <trkpt lat="43.3996900" lon="-90.4000910">
        <ele>233.7400000</ele>
        <time>2009-05-03T16:19:12Z</time>
      </trkpt>
      <trkpt lat="43.4010270" lon="-90.4012350">
        <ele>235.6600000</ele>
        <time>2009-05-03T16:19:21Z</time>
      </trkpt>
      <trkpt lat="43.4011490" lon="-90.4014020">
        <ele>236.1400000</ele>
        <time>2009-05-03T16:19:22Z</time>
      </trkpt>
      <trkpt lat="43.4012590" lon="-90.4015750">
        <ele>236.6200000</ele>
        <time>2009-05-03T16:19:23Z</time>
      </trkpt>
      <trkpt lat="43.4013530" lon="-90.4017780">
        <ele>236.6200000</ele>
        <time>2009-05-03T16:19:24Z</time>
      </trkpt>
      <trkpt lat="43.4014470" lon="-90.4019830">
        <ele>237.1000000</ele>
        <time>2009-05-03T16:19:25Z</time>
      </trkpt>
      <trkpt lat="43.4015100" lon="-90.4022020">
        <ele>237.1000000</ele>
        <time>2009-05-03T16:19:26Z</time>
      </trkpt>
      <trkpt lat="43.4015480" lon="-90.4024430">
        <ele>236.6200000</ele>
        <time>2009-05-03T16:19:27Z</time>
      </trkpt>
      <trkpt lat="43.4015870" lon="-90.4026890">
        <ele>236.6200000</ele>
        <time>2009-05-03T16:19:28Z</time>
      </trkpt>
      <trkpt lat="43.4016190" lon="-90.4029280">
        <ele>236.1400000</ele>
        <time>2009-05-03T16:19:29Z</time>
      </trkpt>
      <trkpt lat="43.4016190" lon="-90.4031860">
        <ele>235.6600000</ele>
        <time>2009-05-03T16:19:30Z</time>
      </trkpt>
      <trkpt lat="43.4016190" lon="-90.4034460">
        <ele>235.1800000</ele>
        <time>2009-05-03T16:19:31Z</time>
      </trkpt>
      <trkpt lat="43.4017890" lon="-90.4060270">
        <ele>232.3000000</ele>
        <time>2009-05-03T16:19:40Z</time>
      </trkpt>
      <trkpt lat="43.4021720" lon="-90.4084920">
        <ele>234.7000000</ele>
        <time>2009-05-03T16:19:48Z</time>
      </trkpt>
      <trkpt lat="43.4022740" lon="-90.4087720">
        <ele>235.1800000</ele>
        <time>2009-05-03T16:19:49Z</time>
      </trkpt>
      <trkpt lat="43.4024040" lon="-90.4090240">
        <ele>235.6600000</ele>
        <time>2009-05-03T16:19:50Z</time>
      </trkpt>
      <trkpt lat="43.4025500" lon="-90.4092720">
        <ele>236.1400000</ele>
        <time>2009-05-03T16:19:51Z</time>
      </trkpt>
      <trkpt lat="43.4026950" lon="-90.4095190">
        <ele>235.6600000</ele>
        <time>2009-05-03T16:19:52Z</time>
      </trkpt>
      <trkpt lat="43.4028610" lon="-90.4097370">
        <ele>235.6600000</ele>
        <time>2009-05-03T16:19:53Z</time>
      </trkpt>
      <trkpt lat="43.4030380" lon="-90.4099500">
        <ele>235.6600000</ele>
        <time>2009-05-03T16:19:54Z</time>
      </trkpt>
      <trkpt lat="43.4046310" lon="-90.4117460">
        <ele>234.2200000</ele>
        <time>2009-05-03T16:20:03Z</time>
      </trkpt>
      <trkpt lat="43.4047660" lon="-90.4119810">
        <ele>234.2200000</ele>
        <time>2009-05-03T16:20:04Z</time>
      </trkpt>
      <trkpt lat="43.4061370" lon="-90.4147610">
        <ele>233.7400000</ele>
        <time>2009-05-03T16:20:15Z</time>
      </trkpt>
      <trkpt lat="43.4082040" lon="-90.4185900">
        <ele>234.7000000</ele>
        <time>2009-05-03T16:20:30Z</time>
      </trkpt>
      <trkpt lat="43.4083870" lon="-90.4187830">
        <ele>234.7000000</ele>
        <time>2009-05-03T16:20:31Z</time>
      </trkpt>
      <trkpt lat="43.4085880" lon="-90.4189510">
        <ele>234.7000000</ele>
        <time>2009-05-03T16:20:32Z</time>
      </trkpt>
      <trkpt lat="43.4088090" lon="-90.4190820">
        <ele>235.1800000</ele>
        <time>2009-05-03T16:20:33Z</time>
      </trkpt>
      <trkpt lat="43.4090310" lon="-90.4192140">
        <ele>234.7000000</ele>
        <time>2009-05-03T16:20:34Z</time>
      </trkpt>
      <trkpt lat="43.4110890" lon="-90.4208290">
        <ele>237.1000000</ele>
        <time>2009-05-03T16:20:44Z</time>
      </trkpt>
      <trkpt lat="43.4129170" lon="-90.4232060">
        <ele>236.1400000</ele>
        <time>2009-05-03T16:20:55Z</time>
      </trkpt>
      <trkpt lat="43.4149020" lon="-90.4262290">
        <ele>237.5800000</ele>
        <time>2009-05-03T16:21:08Z</time>
      </trkpt>
      <trkpt lat="43.4166600" lon="-90.4295300">
        <ele>239.9900000</ele>
        <time>2009-05-03T16:21:21Z</time>
      </trkpt>
      <trkpt lat="43.4173210" lon="-90.4320100">
        <ele>240.4700000</ele>
        <time>2009-05-03T16:21:29Z</time>
      </trkpt>
      <trkpt lat="43.4182930" lon="-90.4349150">
        <ele>241.4300000</ele>
        <time>2009-05-03T16:21:39Z</time>
      </trkpt>
      <trkpt lat="43.4198930" lon="-90.4371600">
        <ele>239.9900000</ele>
        <time>2009-05-03T16:21:49Z</time>
      </trkpt>
      <trkpt lat="43.4223930" lon="-90.4408470">
        <ele>240.4700000</ele>
        <time>2009-05-03T16:22:05Z</time>
      </trkpt>
      <trkpt lat="43.4242870" lon="-90.4439110">
        <ele>243.8300000</ele>
        <time>2009-05-03T16:22:18Z</time>
      </trkpt>
      <trkpt lat="43.4244520" lon="-90.4440300">
        <ele>245.2700000</ele>
        <time>2009-05-03T16:22:19Z</time>
      </trkpt>
      <trkpt lat="43.4246090" lon="-90.4441310">
        <ele>246.7200000</ele>
        <time>2009-05-03T16:22:20Z</time>
      </trkpt>
      <trkpt lat="43.4247640" lon="-90.4442200">
        <ele>247.2000000</ele>
        <time>2009-05-03T16:22:21Z</time>
      </trkpt>
      <trkpt lat="43.4249140" lon="-90.4443050">
        <ele>247.6800000</ele>
        <time>2009-05-03T16:22:22Z</time>
      </trkpt>
      <trkpt lat="43.4266450" lon="-90.4454110">
        <ele>243.3500000</ele>
        <time>2009-05-03T16:22:33Z</time>
      </trkpt>
      <trkpt lat="43.4267870" lon="-90.4455790">
        <ele>243.3500000</ele>
        <time>2009-05-03T16:22:34Z</time>
      </trkpt>
      <trkpt lat="43.4269160" lon="-90.4457720">
        <ele>243.3500000</ele>
        <time>2009-05-03T16:22:35Z</time>
      </trkpt>
      <trkpt lat="43.4270190" lon="-90.4459830">
        <ele>243.3500000</ele>
        <time>2009-05-03T16:22:36Z</time>
      </trkpt>
      <trkpt lat="43.4271220" lon="-90.4462060">
        <ele>243.3500000</ele>
        <time>2009-05-03T16:22:37Z</time>
      </trkpt>
      <trkpt lat="43.4272240" lon="-90.4464290">
        <ele>243.3500000</ele>
        <time>2009-05-03T16:22:38Z</time>
      </trkpt>
      <trkpt lat="43.4285780" lon="-90.4493250">
        <ele>249.1200000</ele>
        <time>2009-05-03T16:22:52Z</time>
      </trkpt>
      <trkpt lat="43.4298080" lon="-90.4512560">
        <ele>252.4800000</ele>
        <time>2009-05-03T16:23:03Z</time>
      </trkpt>
      <trkpt lat="43.4319290" lon="-90.4540640">
        <ele>247.6800000</ele>
        <time>2009-05-03T16:23:20Z</time>
      </trkpt>
      <trkpt lat="43.4338670" lon="-90.4565740">
        <ele>250.5600000</ele>
        <time>2009-05-03T16:23:33Z</time>
      </trkpt>
      <trkpt lat="43.4364960" lon="-90.4598200">
        <ele>252.9600000</ele>
        <time>2009-05-03T16:23:50Z</time>
      </trkpt>
      <trkpt lat="43.4384590" lon="-90.4617090">
        <ele>253.4400000</ele>
        <time>2009-05-03T16:24:02Z</time>
      </trkpt>
      <trkpt lat="43.4395630" lon="-90.4635170">
        <ele>256.8100000</ele>
        <time>2009-05-03T16:24:10Z</time>
      </trkpt>
      <trkpt lat="43.4413410" lon="-90.4668610">
        <ele>260.6500000</ele>
        <time>2009-05-03T16:24:24Z</time>
      </trkpt>
      <trkpt lat="43.4429860" lon="-90.4695040">
        <ele>261.1400000</ele>
        <time>2009-05-03T16:24:36Z</time>
      </trkpt>
      <trkpt lat="43.4438210" lon="-90.4716420">
        <ele>260.1700000</ele>
        <time>2009-05-03T16:24:44Z</time>
      </trkpt>
      <trkpt lat="43.4444360" lon="-90.4742360">
        <ele>262.5800000</ele>
        <time>2009-05-03T16:24:53Z</time>
      </trkpt>
      <trkpt lat="43.4446940" lon="-90.4773580">
        <ele>264.5000000</ele>
        <time>2009-05-03T16:25:03Z</time>
      </trkpt>
      <trkpt lat="43.4451840" lon="-90.4794660">
        <ele>267.8600000</ele>
        <time>2009-05-03T16:25:10Z</time>
      </trkpt>
      <trkpt lat="43.4465000" lon="-90.4828020">
        <ele>270.7500000</ele>
        <time>2009-05-03T16:25:23Z</time>
      </trkpt>
      <trkpt lat="43.4482770" lon="-90.4867890">
        <ele>275.5600000</ele>
        <time>2009-05-03T16:25:39Z</time>
      </trkpt>
      <trkpt lat="43.4503130" lon="-90.4903940">
        <ele>277.0000000</ele>
        <time>2009-05-03T16:25:55Z</time>
      </trkpt>
      <trkpt lat="43.4523860" lon="-90.4937730">
        <ele>278.9200000</ele>
        <time>2009-05-03T16:26:11Z</time>
      </trkpt>
      <trkpt lat="43.4535430" lon="-90.4958800">
        <ele>280.8400000</ele>
        <time>2009-05-03T16:26:20Z</time>
      </trkpt>
      <trkpt lat="43.4547450" lon="-90.4981260">
        <ele>285.1700000</ele>
        <time>2009-05-03T16:26:30Z</time>
      </trkpt>
      <trkpt lat="43.4559680" lon="-90.4994310">
        <ele>281.8000000</ele>
        <time>2009-05-03T16:26:38Z</time>
      </trkpt>
      <trkpt lat="43.4572720" lon="-90.4998860">
        <ele>280.8400000</ele>
        <time>2009-05-03T16:26:45Z</time>
      </trkpt>
      <trkpt lat="43.4596130" lon="-90.5003670">
        <ele>283.7300000</ele>
        <time>2009-05-03T16:26:56Z</time>
      </trkpt>
      <trkpt lat="43.4608430" lon="-90.5011890">
        <ele>290.9400000</ele>
        <time>2009-05-03T16:27:03Z</time>
      </trkpt>
      <trkpt lat="43.4622170" lon="-90.5030560">
        <ele>290.4600000</ele>
        <time>2009-05-03T16:27:13Z</time>
      </trkpt>
      <trkpt lat="43.4636020" lon="-90.5053740">
        <ele>298.6300000</ele>
        <time>2009-05-03T16:27:24Z</time>
      </trkpt>
      <trkpt lat="43.4650780" lon="-90.5067860">
        <ele>301.5100000</ele>
        <time>2009-05-03T16:27:33Z</time>
      </trkpt>
      <trkpt lat="43.4664680" lon="-90.5082870">
        <ele>299.1100000</ele>
        <time>2009-05-03T16:27:42Z</time>
      </trkpt>
      <trkpt lat="43.4665630" lon="-90.5085380">
        <ele>299.5900000</ele>
        <time>2009-05-03T16:27:43Z</time>
      </trkpt>
      <trkpt lat="43.4666580" lon="-90.5087880">
        <ele>300.0700000</ele>
        <time>2009-05-03T16:27:44Z</time>
      </trkpt>
      <trkpt lat="43.4678280" lon="-90.5110380">
        <ele>302.9500000</ele>
        <time>2009-05-03T16:27:54Z</time>
      </trkpt>
      <trkpt lat="43.4696750" lon="-90.5138720">
        <ele>312.5700000</ele>
        <time>2009-05-03T16:28:09Z</time>
      </trkpt>
      <trkpt lat="43.4706100" lon="-90.5158100">
        <ele>314.9700000</ele>
        <time>2009-05-03T16:28:18Z</time>
      </trkpt>
      <trkpt lat="43.4716750" lon="-90.5175880">
        <ele>319.3000000</ele>
        <time>2009-05-03T16:28:27Z</time>
      </trkpt>
      <trkpt lat="43.4729930" lon="-90.5184690">
        <ele>322.1800000</ele>
        <time>2009-05-03T16:28:35Z</time>
      </trkpt>
      <trkpt lat="43.4744560" lon="-90.5191100">
        <ele>325.5400000</ele>
        <time>2009-05-03T16:28:43Z</time>
      </trkpt>
      <trkpt lat="43.4746190" lon="-90.5192530">
        <ele>326.0200000</ele>
        <time>2009-05-03T16:28:44Z</time>
      </trkpt>
      <trkpt lat="43.4747680" lon="-90.5194370">
        <ele>326.5000000</ele>
        <time>2009-05-03T16:28:45Z</time>
      </trkpt>
      <trkpt lat="43.4749100" lon="-90.5196520">
        <ele>327.4700000</ele>
        <time>2009-05-03T16:28:46Z</time>
      </trkpt>
      <trkpt lat="43.4749800" lon="-90.5199240">
        <ele>328.4300000</ele>
        <time>2009-05-03T16:28:47Z</time>
      </trkpt>
      <trkpt lat="43.4750520" lon="-90.5202250">
        <ele>329.3900000</ele>
        <time>2009-05-03T16:28:48Z</time>
      </trkpt>
      <trkpt lat="43.4751240" lon="-90.5205290">
        <ele>330.3500000</ele>
        <time>2009-05-03T16:28:49Z</time>
      </trkpt>
      <trkpt lat="43.4751780" lon="-90.5208380">
        <ele>331.3100000</ele>
        <time>2009-05-03T16:28:50Z</time>
      </trkpt>
      <trkpt lat="43.4758540" lon="-90.5246260">
        <ele>343.3300000</ele>
        <time>2009-05-03T16:29:03Z</time>
      </trkpt>
      <trkpt lat="43.4765170" lon="-90.5275820">
        <ele>353.9000000</ele>
        <time>2009-05-03T16:29:14Z</time>
      </trkpt>
      <trkpt lat="43.4766360" lon="-90.5278200">
        <ele>354.8600000</ele>
        <time>2009-05-03T16:29:15Z</time>
      </trkpt>
      <trkpt lat="43.4767650" lon="-90.5280420">
        <ele>355.3400000</ele>
        <time>2009-05-03T16:29:16Z</time>
      </trkpt>
      <trkpt lat="43.4780560" lon="-90.5302690">
        <ele>364.4800000</ele>
        <time>2009-05-03T16:29:26Z</time>
      </trkpt>
      <trkpt lat="43.4793370" lon="-90.5329770">
        <ele>379.3800000</ele>
        <time>2009-05-03T16:29:38Z</time>
      </trkpt>
      <trkpt lat="43.4806550" lon="-90.5349700">
        <ele>388.0300000</ele>
        <time>2009-05-03T16:29:48Z</time>
      </trkpt>
      <trkpt lat="43.4808320" lon="-90.5354650">
        <ele>388.9900000</ele>
        <time>2009-05-03T16:29:50Z</time>
      </trkpt>
      <trkpt lat="43.4808760" lon="-90.5357360">
        <ele>389.4700000</ele>
        <time>2009-05-03T16:29:51Z</time>
      </trkpt>
      <trkpt lat="43.4809180" lon="-90.5360160">
        <ele>389.9500000</ele>
        <time>2009-05-03T16:29:52Z</time>
      </trkpt>
      <trkpt lat="43.4809600" lon="-90.5362960">
        <ele>390.4300000</ele>
        <time>2009-05-03T16:29:53Z</time>
      </trkpt>
      <trkpt lat="43.4809690" lon="-90.5365720">
        <ele>390.9100000</ele>
        <time>2009-05-03T16:29:54Z</time>
      </trkpt>
      <trkpt lat="43.4809690" lon="-90.5368570">
        <ele>391.3900000</ele>
        <time>2009-05-03T16:29:55Z</time>
      </trkpt>
      <trkpt lat="43.4811200" lon="-90.5400520">
        <ele>392.8400000</ele>
        <time>2009-05-03T16:30:06Z</time>
      </trkpt>
      <trkpt lat="43.4819200" lon="-90.5426840">
        <ele>381.7800000</ele>
        <time>2009-05-03T16:30:16Z</time>
      </trkpt>
      <trkpt lat="43.4823820" lon="-90.5446580">
        <ele>372.6500000</ele>
        <time>2009-05-03T16:30:23Z</time>
      </trkpt>
      <trkpt lat="43.4830240" lon="-90.5486890">
        <ele>355.8300000</ele>
        <time>2009-05-03T16:30:37Z</time>
      </trkpt>
      <trkpt lat="43.4837620" lon="-90.5501220">
        <ele>346.6900000</ele>
        <time>2009-05-03T16:30:43Z</time>
      </trkpt>
      <trkpt lat="43.4849730" lon="-90.5512770">
        <ele>335.1600000</ele>
        <time>2009-05-03T16:30:50Z</time>
      </trkpt>
      <trkpt lat="43.4864250" lon="-90.5519190">
        <ele>328.9100000</ele>
        <time>2009-05-03T16:30:57Z</time>
      </trkpt>
      <trkpt lat="43.4879390" lon="-90.5529150">
        <ele>323.6200000</ele>
        <time>2009-05-03T16:31:05Z</time>
      </trkpt>
      <trkpt lat="43.4880950" lon="-90.5530980">
        <ele>323.1400000</ele>
        <time>2009-05-03T16:31:06Z</time>
      </trkpt>
      <trkpt lat="43.4882130" lon="-90.5533340">
        <ele>322.6600000</ele>
        <time>2009-05-03T16:31:07Z</time>
      </trkpt>
      <trkpt lat="43.4883330" lon="-90.5535740">
        <ele>322.1800000</ele>
        <time>2009-05-03T16:31:08Z</time>
      </trkpt>
      <trkpt lat="43.4884150" lon="-90.5538190">
        <ele>321.7000000</ele>
        <time>2009-05-03T16:31:09Z</time>
      </trkpt>
      <trkpt lat="43.4884640" lon="-90.5540980">
        <ele>321.2200000</ele>
        <time>2009-05-03T16:31:10Z</time>
      </trkpt>
      <trkpt lat="43.4885140" lon="-90.5543770">
        <ele>320.7400000</ele>
        <time>2009-05-03T16:31:11Z</time>
      </trkpt>
      <trkpt lat="43.4891920" lon="-90.5565340">
        <ele>316.4100000</ele>
        <time>2009-05-03T16:31:19Z</time>
      </trkpt>
      <trkpt lat="43.4903340" lon="-90.5593390">
        <ele>313.0500000</ele>
        <time>2009-05-03T16:31:30Z</time>
      </trkpt>
      <trkpt lat="43.4913180" lon="-90.5611710">
        <ele>309.6800000</ele>
        <time>2009-05-03T16:31:38Z</time>
      </trkpt>
      <trkpt lat="43.4926370" lon="-90.5624350">
        <ele>305.3600000</ele>
        <time>2009-05-03T16:31:46Z</time>
      </trkpt>
      <trkpt lat="43.4941060" lon="-90.5639070">
        <ele>300.0700000</ele>
        <time>2009-05-03T16:31:55Z</time>
      </trkpt>
      <trkpt lat="43.4942300" lon="-90.5641230">
        <ele>299.5900000</ele>
        <time>2009-05-03T16:31:56Z</time>
      </trkpt>
      <trkpt lat="43.4943280" lon="-90.5643580">
        <ele>299.5900000</ele>
        <time>2009-05-03T16:31:57Z</time>
      </trkpt>
      <trkpt lat="43.4944300" lon="-90.5645980">
        <ele>299.1100000</ele>
        <time>2009-05-03T16:31:58Z</time>
      </trkpt>
      <trkpt lat="43.4945730" lon="-90.5649390">
        <ele>298.6300000</ele>
        <time>2009-05-03T16:31:59Z</time>
      </trkpt>
      <trkpt lat="43.4946000" lon="-90.5650810">
        <ele>298.6300000</ele>
        <time>2009-05-03T16:32:00Z</time>
      </trkpt>
      <trkpt lat="43.4946520" lon="-90.5653510">
        <ele>298.1500000</ele>
        <time>2009-05-03T16:32:01Z</time>
      </trkpt>
      <trkpt lat="43.4947040" lon="-90.5656240">
        <ele>298.1500000</ele>
        <time>2009-05-03T16:32:02Z</time>
      </trkpt>
      <trkpt lat="43.4947500" lon="-90.5658960">
        <ele>298.1500000</ele>
        <time>2009-05-03T16:32:03Z</time>
      </trkpt>
      <trkpt lat="43.4951110" lon="-90.5699370">
        <ele>291.4200000</ele>
        <time>2009-05-03T16:32:17Z</time>
      </trkpt>
      <trkpt lat="43.4950820" lon="-90.5724260">
        <ele>287.0900000</ele>
        <time>2009-05-03T16:32:25Z</time>
      </trkpt>
      <trkpt lat="43.4950270" lon="-90.5746540">
        <ele>284.6900000</ele>
        <time>2009-05-03T16:32:32Z</time>
      </trkpt>
      <trkpt lat="43.4950710" lon="-90.5749630">
        <ele>284.2100000</ele>
        <time>2009-05-03T16:32:33Z</time>
      </trkpt>
      <trkpt lat="43.4951740" lon="-90.5754100">
        <ele>283.7300000</ele>
        <time>2009-05-03T16:32:34Z</time>
      </trkpt>
      <trkpt lat="43.4952340" lon="-90.5755390">
        <ele>283.7300000</ele>
        <time>2009-05-03T16:32:35Z</time>
      </trkpt>
      <trkpt lat="43.4953580" lon="-90.5758050">
        <ele>283.2500000</ele>
        <time>2009-05-03T16:32:36Z</time>
      </trkpt>
      <trkpt lat="43.4954770" lon="-90.5760580">
        <ele>283.2500000</ele>
        <time>2009-05-03T16:32:37Z</time>
      </trkpt>
      <trkpt lat="43.4956290" lon="-90.5762890">
        <ele>283.2500000</ele>
        <time>2009-05-03T16:32:38Z</time>
      </trkpt>
      <trkpt lat="43.4957790" lon="-90.5765180">
        <ele>282.7700000</ele>
        <time>2009-05-03T16:32:39Z</time>
      </trkpt>
      <trkpt lat="43.4970600" lon="-90.5788620">
        <ele>280.8400000</ele>
        <time>2009-05-03T16:32:49Z</time>
      </trkpt>
      <trkpt lat="43.4977850" lon="-90.5815770">
        <ele>274.5900000</ele>
        <time>2009-05-03T16:32:59Z</time>
      </trkpt>
      <trkpt lat="43.4981350" lon="-90.5832520">
        <ele>272.1900000</ele>
        <time>2009-05-03T16:33:05Z</time>
      </trkpt>
      <trkpt lat="43.4981350" lon="-90.5835560">
        <ele>272.1900000</ele>
        <time>2009-05-03T16:33:06Z</time>
      </trkpt>
      <trkpt lat="43.4981350" lon="-90.5838640">
        <ele>271.7100000</ele>
        <time>2009-05-03T16:33:07Z</time>
      </trkpt>
      <trkpt lat="43.4981260" lon="-90.5841720">
        <ele>272.1900000</ele>
        <time>2009-05-03T16:33:08Z</time>
      </trkpt>
      <trkpt lat="43.4980960" lon="-90.5844850">
        <ele>272.1900000</ele>
        <time>2009-05-03T16:33:09Z</time>
      </trkpt>
      <trkpt lat="43.4980520" lon="-90.5879270">
        <ele>269.7900000</ele>
        <time>2009-05-03T16:33:20Z</time>
      </trkpt>
      <trkpt lat="43.4981240" lon="-90.5885400">
        <ele>269.3100000</ele>
        <time>2009-05-03T16:33:22Z</time>
      </trkpt>
      <trkpt lat="43.4981970" lon="-90.5888330">
        <ele>268.8300000</ele>
        <time>2009-05-03T16:33:23Z</time>
      </trkpt>
      <trkpt lat="43.4982860" lon="-90.5891070">
        <ele>268.8300000</ele>
        <time>2009-05-03T16:33:24Z</time>
      </trkpt>
      <trkpt lat="43.4983860" lon="-90.5893820">
        <ele>268.8300000</ele>
        <time>2009-05-03T16:33:25Z</time>
      </trkpt>
      <trkpt lat="43.4984970" lon="-90.5896450">
        <ele>268.3500000</ele>
        <time>2009-05-03T16:33:26Z</time>
      </trkpt>
      <trkpt lat="43.4998770" lon="-90.5930710">
        <ele>264.5000000</ele>
        <time>2009-05-03T16:33:39Z</time>
      </trkpt>
      <trkpt lat="43.5004400" lon="-90.5952460">
        <ele>260.6500000</ele>
        <time>2009-05-03T16:33:47Z</time>
      </trkpt>
      <trkpt lat="43.5003090" lon="-90.5971810">
        <ele>261.6200000</ele>
        <time>2009-05-03T16:33:54Z</time>
      </trkpt>
      <trkpt lat="43.4997270" lon="-90.5990140">
        <ele>263.0600000</ele>
        <time>2009-05-03T16:34:01Z</time>
      </trkpt>
      <trkpt lat="43.4996350" lon="-90.5992810">
        <ele>263.5400000</ele>
        <time>2009-05-03T16:34:02Z</time>
      </trkpt>
      <trkpt lat="43.4995640" lon="-90.5995650">
        <ele>263.5400000</ele>
        <time>2009-05-03T16:34:03Z</time>
      </trkpt>
      <trkpt lat="43.4995510" lon="-90.5998670">
        <ele>263.5400000</ele>
        <time>2009-05-03T16:34:04Z</time>
      </trkpt>
      <trkpt lat="43.4995620" lon="-90.6001680">
        <ele>264.0200000</ele>
        <time>2009-05-03T16:34:05Z</time>
      </trkpt>
      <trkpt lat="43.4996030" lon="-90.6004560">
        <ele>264.0200000</ele>
        <time>2009-05-03T16:34:06Z</time>
      </trkpt>
      <trkpt lat="43.4996910" lon="-90.6007210">
        <ele>264.9800000</ele>
        <time>2009-05-03T16:34:07Z</time>
      </trkpt>
      <trkpt lat="43.4997780" lon="-90.6009820">
        <ele>265.9400000</ele>
        <time>2009-05-03T16:34:08Z</time>
      </trkpt>
      <trkpt lat="43.4998830" lon="-90.6012090">
        <ele>266.4200000</ele>
        <time>2009-05-03T16:34:09Z</time>
      </trkpt>
      <trkpt lat="43.5000110" lon="-90.6014420">
        <ele>266.4200000</ele>
        <time>2009-05-03T16:34:10Z</time>
      </trkpt>
      <trkpt lat="43.5001410" lon="-90.6016770">
        <ele>266.9000000</ele>
        <time>2009-05-03T16:34:11Z</time>
      </trkpt>
      <trkpt lat="43.5019840" lon="-90.6046210">
        <ele>259.6900000</ele>
        <time>2009-05-03T16:34:24Z</time>
      </trkpt>
      <trkpt lat="43.5028570" lon="-90.6061630">
        <ele>254.4100000</ele>
        <time>2009-05-03T16:34:31Z</time>
      </trkpt>
      <trkpt lat="43.5029110" lon="-90.6063960">
        <ele>253.9300000</ele>
        <time>2009-05-03T16:34:32Z</time>
      </trkpt>
      <trkpt lat="43.5029340" lon="-90.6066520">
        <ele>253.9300000</ele>
        <time>2009-05-03T16:34:33Z</time>
      </trkpt>
      <trkpt lat="43.5029030" lon="-90.6068910">
        <ele>254.4100000</ele>
        <time>2009-05-03T16:34:34Z</time>
      </trkpt>
      <trkpt lat="43.5028440" lon="-90.6071300">
        <ele>253.9300000</ele>
        <time>2009-05-03T16:34:35Z</time>
      </trkpt>
      <trkpt lat="43.5027840" lon="-90.6073690">
        <ele>253.9300000</ele>
        <time>2009-05-03T16:34:36Z</time>
      </trkpt>
      <trkpt lat="43.5027230" lon="-90.6076120">
        <ele>253.9300000</ele>
        <time>2009-05-03T16:34:37Z</time>
      </trkpt>
      <trkpt lat="43.5024180" lon="-90.6096810">
        <ele>255.3700000</ele>
        <time>2009-05-03T16:34:45Z</time>
      </trkpt>
      <trkpt lat="43.5023420" lon="-90.6130090">
        <ele>255.8500000</ele>
        <time>2009-05-03T16:34:57Z</time>
      </trkpt>
      <trkpt lat="43.5021370" lon="-90.6151700">
        <ele>258.7300000</ele>
        <time>2009-05-03T16:35:05Z</time>
      </trkpt>
      <trkpt lat="43.5021350" lon="-90.6154170">
        <ele>259.6900000</ele>
        <time>2009-05-03T16:35:06Z</time>
      </trkpt>
      <trkpt lat="43.5022550" lon="-90.6180680">
        <ele>256.3300000</ele>
        <time>2009-05-03T16:35:16Z</time>
      </trkpt>
      <trkpt lat="43.5022060" lon="-90.6220780">
        <ele>244.7900000</ele>
        <time>2009-05-03T16:35:30Z</time>
      </trkpt>
      <trkpt lat="43.5020720" lon="-90.6260870">
        <ele>242.8700000</ele>
        <time>2009-05-03T16:35:44Z</time>
      </trkpt>
      <trkpt lat="43.5015550" lon="-90.6282120">
        <ele>247.2000000</ele>
        <time>2009-05-03T16:35:52Z</time>
      </trkpt>
      <trkpt lat="43.5008930" lon="-90.6317980">
        <ele>249.6000000</ele>
        <time>2009-05-03T16:36:06Z</time>
      </trkpt>
      <trkpt lat="43.5011320" lon="-90.6334220">
        <ele>241.9100000</ele>
        <time>2009-05-03T16:36:12Z</time>
      </trkpt>
      <trkpt lat="43.5013560" lon="-90.6355980">
        <ele>239.0200000</ele>
        <time>2009-05-03T16:36:20Z</time>
      </trkpt>
      <trkpt lat="43.5013620" lon="-90.6394240">
        <ele>241.4300000</ele>
        <time>2009-05-03T16:36:34Z</time>
      </trkpt>
      <trkpt lat="43.5013030" lon="-90.6396740">
        <ele>241.9100000</ele>
        <time>2009-05-03T16:36:35Z</time>
      </trkpt>
      <trkpt lat="43.5012120" lon="-90.6399170">
        <ele>242.3900000</ele>
        <time>2009-05-03T16:36:36Z</time>
      </trkpt>
      <trkpt lat="43.5011210" lon="-90.6401600">
        <ele>243.3500000</ele>
        <time>2009-05-03T16:36:37Z</time>
      </trkpt>
      <trkpt lat="43.5010320" lon="-90.6403980">
        <ele>243.3500000</ele>
        <time>2009-05-03T16:36:38Z</time>
      </trkpt>
      <trkpt lat="43.5008820" lon="-90.6408980">
        <ele>243.8300000</ele>
        <time>2009-05-03T16:36:40Z</time>
      </trkpt>
      <trkpt lat="43.5008340" lon="-90.6411610">
        <ele>243.8300000</ele>
        <time>2009-05-03T16:36:41Z</time>
      </trkpt>
      <trkpt lat="43.5008060" lon="-90.6414410">
        <ele>244.3100000</ele>
        <time>2009-05-03T16:36:42Z</time>
      </trkpt>
      <trkpt lat="43.5008050" lon="-90.6417140">
        <ele>244.3100000</ele>
        <time>2009-05-03T16:36:43Z</time>
      </trkpt>
      <trkpt lat="43.5008210" lon="-90.6420050">
        <ele>244.3100000</ele>
        <time>2009-05-03T16:36:44Z</time>
      </trkpt>
      <trkpt lat="43.5008370" lon="-90.6422990">
        <ele>244.3100000</ele>
        <time>2009-05-03T16:36:45Z</time>
      </trkpt>
      <trkpt lat="43.5012120" lon="-90.6467820">
        <ele>234.7000000</ele>
        <time>2009-05-03T16:37:00Z</time>
      </trkpt>
      <trkpt lat="43.5017020" lon="-90.6493040">
        <ele>232.3000000</ele>
        <time>2009-05-03T16:37:09Z</time>
      </trkpt>
      <trkpt lat="43.5018990" lon="-90.6520590">
        <ele>230.3700000</ele>
        <time>2009-05-03T16:37:18Z</time>
      </trkpt>
      <trkpt lat="43.5019060" lon="-90.6574320">
        <ele>229.4100000</ele>
        <time>2009-05-03T16:37:35Z</time>
      </trkpt>
      <trkpt lat="43.5022110" lon="-90.6603400">
        <ele>229.4100000</ele>
        <time>2009-05-03T16:37:44Z</time>
      </trkpt>
      <trkpt lat="43.5029420" lon="-90.6628230">
        <ele>227.9700000</ele>
        <time>2009-05-03T16:37:54Z</time>
      </trkpt>
      <trkpt lat="43.5036310" lon="-90.6646870">
        <ele>227.4900000</ele>
        <time>2009-05-03T16:38:03Z</time>
      </trkpt>
      <trkpt lat="43.5042650" lon="-90.6655640">
        <ele>227.0100000</ele>
        <time>2009-05-03T16:38:12Z</time>
      </trkpt>
      <trkpt lat="43.5051960" lon="-90.6669000">
        <ele>228.9300000</ele>
        <time>2009-05-03T16:38:27Z</time>
      </trkpt>
      <trkpt lat="43.5057680" lon="-90.6678400">
        <ele>229.8900000</ele>
        <time>2009-05-03T16:38:42Z</time>
      </trkpt>
      <trkpt lat="43.5059920" lon="-90.6681900">
        <ele>229.8900000</ele>
        <time>2009-05-03T16:38:56Z</time>
      </trkpt>
      <trkpt lat="43.5061060" lon="-90.6683490">
        <ele>229.8900000</ele>
        <time>2009-05-03T16:39:04Z</time>
      </trkpt>
      <trkpt lat="43.5061170" lon="-90.6683650">
        <ele>230.8500000</ele>
        <time>2009-05-03T16:39:14Z</time>
      </trkpt>
      <trkpt lat="43.5061170" lon="-90.6683650">
        <ele>231.8100000</ele>
        <time>2009-05-03T16:39:29Z</time>
      </trkpt>
      <trkpt lat="43.5061170" lon="-90.6683650">
        <ele>232.7800000</ele>
        <time>2009-05-03T16:39:32Z</time>
      </trkpt>
      <trkpt lat="43.5067960" lon="-90.6683650">
        <ele>233.7400000</ele>
        <time>2009-05-03T16:39:41Z</time>
      </trkpt>
      <trkpt lat="43.5068080" lon="-90.6684910">
        <ele>233.7400000</ele>
        <time>2009-05-03T16:39:42Z</time>
      </trkpt>
      <trkpt lat="43.5068100" lon="-90.6685430">
        <ele>233.7400000</ele>
        <time>2009-05-03T16:39:43Z</time>
      </trkpt>
      <trkpt lat="43.5068220" lon="-90.6689080">
        <ele>233.2600000</ele>
        <time>2009-05-03T16:39:55Z</time>
      </trkpt>
      <trkpt lat="43.5068230" lon="-90.6689460">
        <ele>233.2600000</ele>
        <time>2009-05-03T16:39:57Z</time>
      </trkpt>
      <trkpt lat="43.5068650" lon="-90.6683650">
        <ele>233.2600000</ele>
        <time>2009-05-03T16:39:58Z</time>
      </trkpt>
      <trkpt lat="43.5068830" lon="-90.6683650">
        <ele>232.7800000</ele>
        <time>2009-05-03T16:39:59Z</time>
      </trkpt>
      <trkpt lat="43.5068970" lon="-90.6683650">
        <ele>232.7800000</ele>
        <time>2009-05-03T16:40:00Z</time>
      </trkpt>
      <trkpt lat="43.5068970" lon="-90.6683650">
        <ele>232.7800000</ele>
        <time>2009-05-03T16:40:14Z</time>
      </trkpt>
      <trkpt lat="43.5068970" lon="-90.6683650">
        <ele>233.2600000</ele>
        <time>2009-05-03T16:40:40Z</time>
      </trkpt>
      <trkpt lat="43.5084790" lon="-90.6850540">
        <ele>223.6400000</ele>
        <time>2009-05-03T17:06:13Z</time>
      </trkpt>
      <trkpt lat="43.5080570" lon="-90.6893220">
        <ele>233.2600000</ele>
        <time>2009-05-03T17:06:25Z</time>
      </trkpt>
      <trkpt lat="43.5083130" lon="-90.6924590">
        <ele>243.8300000</ele>
        <time>2009-05-03T17:06:34Z</time>
      </trkpt>
      <trkpt lat="43.5087360" lon="-90.6951750">
        <ele>251.0400000</ele>
        <time>2009-05-03T17:06:43Z</time>
      </trkpt>
      <trkpt lat="43.5097220" lon="-90.7009480">
        <ele>276.5200000</ele>
        <time>2009-05-03T17:07:04Z</time>
      </trkpt>
      <trkpt lat="43.5105310" lon="-90.7025370">
        <ele>285.1700000</ele>
        <time>2009-05-03T17:07:11Z</time>
      </trkpt>
      <trkpt lat="43.5121490" lon="-90.7044610">
        <ele>297.1800000</ele>
        <time>2009-05-03T17:07:22Z</time>
      </trkpt>
      <trkpt lat="43.5136070" lon="-90.7053430">
        <ele>311.6000000</ele>
        <time>2009-05-03T17:07:30Z</time>
      </trkpt>
      <trkpt lat="43.5144730" lon="-90.7065980">
        <ele>319.7800000</ele>
        <time>2009-05-03T17:07:36Z</time>
      </trkpt>
      <trkpt lat="43.5149030" lon="-90.7082550">
        <ele>328.4300000</ele>
        <time>2009-05-03T17:07:42Z</time>
      </trkpt>
      <trkpt lat="43.5148440" lon="-90.7099370">
        <ele>339.0000000</ele>
        <time>2009-05-03T17:07:48Z</time>
      </trkpt>
      <trkpt lat="43.5143150" lon="-90.7118020">
        <ele>347.6500000</ele>
        <time>2009-05-03T17:07:55Z</time>
      </trkpt>
      <trkpt lat="43.5133160" lon="-90.7152990">
        <ele>333.2300000</ele>
        <time>2009-05-03T17:08:08Z</time>
      </trkpt>
      <trkpt lat="43.5132860" lon="-90.7155960">
        <ele>331.7900000</ele>
        <time>2009-05-03T17:08:09Z</time>
      </trkpt>
      <trkpt lat="43.5133070" lon="-90.7158960">
        <ele>329.8700000</ele>
        <time>2009-05-03T17:08:10Z</time>
      </trkpt>
      <trkpt lat="43.5133300" lon="-90.7161980">
        <ele>327.9500000</ele>
        <time>2009-05-03T17:08:11Z</time>
      </trkpt>
      <trkpt lat="43.5133600" lon="-90.7165050">
        <ele>326.5000000</ele>
        <time>2009-05-03T17:08:12Z</time>
      </trkpt>
      <trkpt lat="43.5134360" lon="-90.7167790">
        <ele>324.5800000</ele>
        <time>2009-05-03T17:08:13Z</time>
      </trkpt>
      <trkpt lat="43.5135430" lon="-90.7170620">
        <ele>323.6200000</ele>
        <time>2009-05-03T17:08:14Z</time>
      </trkpt>
      <trkpt lat="43.5136490" lon="-90.7173390">
        <ele>321.2200000</ele>
        <time>2009-05-03T17:08:15Z</time>
      </trkpt>
      <trkpt lat="43.5137660" lon="-90.7176160">
        <ele>319.3000000</ele>
        <time>2009-05-03T17:08:16Z</time>
      </trkpt>
      <trkpt lat="43.5144410" lon="-90.7196590">
        <ele>306.8000000</ele>
        <time>2009-05-03T17:08:23Z</time>
      </trkpt>
      <trkpt lat="43.5145290" lon="-90.7215070">
        <ele>297.6700000</ele>
        <time>2009-05-03T17:08:29Z</time>
      </trkpt>
      <trkpt lat="43.5147640" lon="-90.7231450">
        <ele>289.4900000</ele>
        <time>2009-05-03T17:08:35Z</time>
      </trkpt>
      <trkpt lat="43.5153640" lon="-90.7246220">
        <ele>279.8800000</ele>
        <time>2009-05-03T17:08:41Z</time>
      </trkpt>
      <trkpt lat="43.5157730" lon="-90.7265400">
        <ele>269.7900000</ele>
        <time>2009-05-03T17:08:48Z</time>
      </trkpt>
      <trkpt lat="43.5158070" lon="-90.7286510">
        <ele>259.6900000</ele>
        <time>2009-05-03T17:08:55Z</time>
      </trkpt>
      <trkpt lat="43.5162270" lon="-90.7310290">
        <ele>248.1600000</ele>
        <time>2009-05-03T17:09:03Z</time>
      </trkpt>
      <trkpt lat="43.5168260" lon="-90.7342780">
        <ele>234.2200000</ele>
        <time>2009-05-03T17:09:14Z</time>
      </trkpt>
      <trkpt lat="43.5168790" lon="-90.7377520">
        <ele>232.3000000</ele>
        <time>2009-05-03T17:09:25Z</time>
      </trkpt>
      <trkpt lat="43.5170000" lon="-90.7446340">
        <ele>236.1400000</ele>
        <time>2009-05-03T17:09:47Z</time>
      </trkpt>
      <trkpt lat="43.5173670" lon="-90.7469670">
        <ele>240.9500000</ele>
        <time>2009-05-03T17:09:55Z</time>
      </trkpt>
      <trkpt lat="43.5183010" lon="-90.7487900">
        <ele>243.8300000</ele>
        <time>2009-05-03T17:10:02Z</time>
      </trkpt>
      <trkpt lat="43.5193880" lon="-90.7507600">
        <ele>243.8300000</ele>
        <time>2009-05-03T17:10:11Z</time>
      </trkpt>
      <trkpt lat="43.5208480" lon="-90.7533820">
        <ele>242.3900000</ele>
        <time>2009-05-03T17:10:22Z</time>
      </trkpt>
      <trkpt lat="43.5219380" lon="-90.7560520">
        <ele>242.3900000</ele>
        <time>2009-05-03T17:10:32Z</time>
      </trkpt>
      <trkpt lat="43.5225340" lon="-90.7591270">
        <ele>241.4300000</ele>
        <time>2009-05-03T17:10:42Z</time>
      </trkpt>
      <trkpt lat="43.5234740" lon="-90.7627940">
        <ele>241.9100000</ele>
        <time>2009-05-03T17:10:54Z</time>
      </trkpt>
      <trkpt lat="43.5245850" lon="-90.7645350">
        <ele>242.8700000</ele>
        <time>2009-05-03T17:11:01Z</time>
      </trkpt>
      <trkpt lat="43.5262300" lon="-90.7660030">
        <ele>245.7500000</ele>
        <time>2009-05-03T17:11:09Z</time>
      </trkpt>
      <trkpt lat="43.5290740" lon="-90.7683440">
        <ele>252.9600000</ele>
        <time>2009-05-03T17:11:24Z</time>
      </trkpt>
      <trkpt lat="43.5322210" lon="-90.7711040">
        <ele>252.9600000</ele>
        <time>2009-05-03T17:11:41Z</time>
      </trkpt>
      <trkpt lat="43.5338870" lon="-90.7733340">
        <ele>254.4100000</ele>
        <time>2009-05-03T17:11:51Z</time>
      </trkpt>
      <trkpt lat="43.5362750" lon="-90.7762420">
        <ele>258.2500000</ele>
        <time>2009-05-03T17:12:05Z</time>
      </trkpt>
      <trkpt lat="43.5385690" lon="-90.7781930">
        <ele>258.7300000</ele>
        <time>2009-05-03T17:12:17Z</time>
      </trkpt>
      <trkpt lat="43.5395920" lon="-90.7796350">
        <ele>259.2100000</ele>
        <time>2009-05-03T17:12:24Z</time>
      </trkpt>
      <trkpt lat="43.5401800" lon="-90.7814130">
        <ele>256.3300000</ele>
        <time>2009-05-03T17:12:31Z</time>
      </trkpt>
      <trkpt lat="43.5404500" lon="-90.7837870">
        <ele>256.8100000</ele>
        <time>2009-05-03T17:12:39Z</time>
      </trkpt>
      <trkpt lat="43.5402490" lon="-90.7862420">
        <ele>258.7300000</ele>
        <time>2009-05-03T17:12:47Z</time>
      </trkpt>
      <trkpt lat="43.5396820" lon="-90.7902240">
        <ele>260.1700000</ele>
        <time>2009-05-03T17:13:00Z</time>
      </trkpt>
      <trkpt lat="43.5397200" lon="-90.7945480">
        <ele>261.6200000</ele>
        <time>2009-05-03T17:13:14Z</time>
      </trkpt>
      <trkpt lat="43.5402950" lon="-90.7968180">
        <ele>262.5800000</ele>
        <time>2009-05-03T17:13:22Z</time>
      </trkpt>
      <trkpt lat="43.5411690" lon="-90.7981420">
        <ele>262.5800000</ele>
        <time>2009-05-03T17:13:28Z</time>
      </trkpt>
      <trkpt lat="43.5434900" lon="-90.8007790">
        <ele>263.0600000</ele>
        <time>2009-05-03T17:13:42Z</time>
      </trkpt>
      <trkpt lat="43.5448360" lon="-90.8030560">
        <ele>265.9400000</ele>
        <time>2009-05-03T17:13:52Z</time>
      </trkpt>
      <trkpt lat="43.5471120" lon="-90.8082510">
        <ele>268.8300000</ele>
        <time>2009-05-03T17:14:12Z</time>
      </trkpt>
      <trkpt lat="43.5480030" lon="-90.8119590">
        <ele>269.3100000</ele>
        <time>2009-05-03T17:14:25Z</time>
      </trkpt>
      <trkpt lat="43.5483540" lon="-90.8152670">
        <ele>274.5900000</ele>
        <time>2009-05-03T17:14:37Z</time>
      </trkpt>
      <trkpt lat="43.5486200" lon="-90.8184500">
        <ele>276.5200000</ele>
        <time>2009-05-03T17:14:49Z</time>
      </trkpt>
      <trkpt lat="43.5484880" lon="-90.8203880">
        <ele>277.4800000</ele>
        <time>2009-05-03T17:14:57Z</time>
      </trkpt>
      <trkpt lat="43.5478290" lon="-90.8221350">
        <ele>278.9200000</ele>
        <time>2009-05-03T17:15:04Z</time>
      </trkpt>
      <trkpt lat="43.5469700" lon="-90.8249040">
        <ele>283.2500000</ele>
        <time>2009-05-03T17:15:14Z</time>
      </trkpt>
      <trkpt lat="43.5460990" lon="-90.8297950">
        <ele>290.4600000</ele>
        <time>2009-05-03T17:15:31Z</time>
      </trkpt>
      <trkpt lat="43.5453730" lon="-90.8337670">
        <ele>292.8600000</ele>
        <time>2009-05-03T17:15:45Z</time>
      </trkpt>
      <trkpt lat="43.5452710" lon="-90.8340320">
        <ele>293.3400000</ele>
        <time>2009-05-03T17:15:46Z</time>
      </trkpt>
      <trkpt lat="43.5451690" lon="-90.8342960">
        <ele>293.8200000</ele>
        <time>2009-05-03T17:15:47Z</time>
      </trkpt>
      <trkpt lat="43.5441680" lon="-90.8362300">
        <ele>297.1800000</ele>
        <time>2009-05-03T17:15:55Z</time>
      </trkpt>
      <trkpt lat="43.5439300" lon="-90.8379550">
        <ele>300.5500000</ele>
        <time>2009-05-03T17:16:01Z</time>
      </trkpt>
      <trkpt lat="43.5442510" lon="-90.8399170">
        <ele>304.3900000</ele>
        <time>2009-05-03T17:16:08Z</time>
      </trkpt>
      <trkpt lat="43.5446930" lon="-90.8427690">
        <ele>309.2000000</ele>
        <time>2009-05-03T17:16:18Z</time>
      </trkpt>
      <trkpt lat="43.5446510" lon="-90.8430590">
        <ele>309.6800000</ele>
        <time>2009-05-03T17:16:19Z</time>
      </trkpt>
      <trkpt lat="43.5446060" lon="-90.8433480">
        <ele>310.1600000</ele>
        <time>2009-05-03T17:16:20Z</time>
      </trkpt>
      <trkpt lat="43.5445080" lon="-90.8436130">
        <ele>310.6400000</ele>
        <time>2009-05-03T17:16:21Z</time>
      </trkpt>
      <trkpt lat="43.5444090" lon="-90.8438830">
        <ele>311.6000000</ele>
        <time>2009-05-03T17:16:22Z</time>
      </trkpt>
      <trkpt lat="43.5443120" lon="-90.8441460">
        <ele>311.6000000</ele>
        <time>2009-05-03T17:16:23Z</time>
      </trkpt>
      <trkpt lat="43.5441670" lon="-90.8443450">
        <ele>311.1200000</ele>
        <time>2009-05-03T17:16:24Z</time>
      </trkpt>
      <trkpt lat="43.5440110" lon="-90.8445600">
        <ele>311.6000000</ele>
        <time>2009-05-03T17:16:25Z</time>
      </trkpt>
      <trkpt lat="43.5438450" lon="-90.8447210">
        <ele>311.6000000</ele>
        <time>2009-05-03T17:16:26Z</time>
      </trkpt>
      <trkpt lat="43.5436600" lon="-90.8448750">
        <ele>312.0900000</ele>
        <time>2009-05-03T17:16:27Z</time>
      </trkpt>
      <trkpt lat="43.5434760" lon="-90.8450280">
        <ele>311.6000000</ele>
        <time>2009-05-03T17:16:28Z</time>
      </trkpt>
      <trkpt lat="43.5431020" lon="-90.8453790">
        <ele>311.6000000</ele>
        <time>2009-05-03T17:16:30Z</time>
      </trkpt>
      <trkpt lat="43.5429400" lon="-90.8455820">
        <ele>312.0900000</ele>
        <time>2009-05-03T17:16:31Z</time>
      </trkpt>
      <trkpt lat="43.5428010" lon="-90.8458320">
        <ele>313.0500000</ele>
        <time>2009-05-03T17:16:32Z</time>
      </trkpt>
      <trkpt lat="43.5427030" lon="-90.8461040">
        <ele>313.5300000</ele>
        <time>2009-05-03T17:16:33Z</time>
      </trkpt>
      <trkpt lat="43.5426260" lon="-90.8463850">
        <ele>314.0100000</ele>
        <time>2009-05-03T17:16:34Z</time>
      </trkpt>
      <trkpt lat="43.5425540" lon="-90.8466730">
        <ele>314.4900000</ele>
        <time>2009-05-03T17:16:35Z</time>
      </trkpt>
      <trkpt lat="43.5425370" lon="-90.8469700">
        <ele>314.9700000</ele>
        <time>2009-05-03T17:16:36Z</time>
      </trkpt>
      <trkpt lat="43.5425210" lon="-90.8472740">
        <ele>315.4500000</ele>
        <time>2009-05-03T17:16:37Z</time>
      </trkpt>
      <trkpt lat="43.5425130" lon="-90.8475730">
        <ele>316.4100000</ele>
        <time>2009-05-03T17:16:38Z</time>
      </trkpt>
      <trkpt lat="43.5425260" lon="-90.8478790">
        <ele>316.8900000</ele>
        <time>2009-05-03T17:16:39Z</time>
      </trkpt>
      <trkpt lat="43.5428040" lon="-90.8524110">
        <ele>327.4700000</ele>
        <time>2009-05-03T17:16:54Z</time>
      </trkpt>
      <trkpt lat="43.5428990" lon="-90.8526940">
        <ele>328.4300000</ele>
        <time>2009-05-03T17:16:55Z</time>
      </trkpt>
      <trkpt lat="43.5430050" lon="-90.8529630">
        <ele>329.8700000</ele>
        <time>2009-05-03T17:16:56Z</time>
      </trkpt>
      <trkpt lat="43.5431260" lon="-90.8532360">
        <ele>331.3100000</ele>
        <time>2009-05-03T17:16:57Z</time>
      </trkpt>
      <trkpt lat="43.5432480" lon="-90.8535100">
        <ele>332.7500000</ele>
        <time>2009-05-03T17:16:58Z</time>
      </trkpt>
      <trkpt lat="43.5439270" lon="-90.8555670">
        <ele>341.4100000</ele>
        <time>2009-05-03T17:17:05Z</time>
      </trkpt>
      <trkpt lat="43.5443250" lon="-90.8588670">
        <ele>342.8500000</ele>
        <time>2009-05-03T17:17:15Z</time>
      </trkpt>
      <trkpt lat="43.5443980" lon="-90.8630980">
        <ele>343.3300000</ele>
        <time>2009-05-03T17:17:28Z</time>
      </trkpt>
      <trkpt lat="43.5445790" lon="-90.8646680">
        <ele>344.7700000</ele>
        <time>2009-05-03T17:17:33Z</time>
      </trkpt>
      <trkpt lat="43.5446680" lon="-90.8649570">
        <ele>344.7700000</ele>
        <time>2009-05-03T17:17:34Z</time>
      </trkpt>
      <trkpt lat="43.5448180" lon="-90.8651990">
        <ele>344.7700000</ele>
        <time>2009-05-03T17:17:35Z</time>
      </trkpt>
      <trkpt lat="43.5449480" lon="-90.8654600">
        <ele>344.7700000</ele>
        <time>2009-05-03T17:17:36Z</time>
      </trkpt>
      <trkpt lat="43.5450950" lon="-90.8656830">
        <ele>345.2500000</ele>
        <time>2009-05-03T17:17:37Z</time>
      </trkpt>
      <trkpt lat="43.5452640" lon="-90.8658980">
        <ele>345.2500000</ele>
        <time>2009-05-03T17:17:38Z</time>
      </trkpt>
      <trkpt lat="43.5454340" lon="-90.8661140">
        <ele>345.2500000</ele>
        <time>2009-05-03T17:17:39Z</time>
      </trkpt>
      <trkpt lat="43.5487290" lon="-90.8702490">
        <ele>350.5400000</ele>
        <time>2009-05-03T17:17:59Z</time>
      </trkpt>
      <trkpt lat="43.5510660" lon="-90.8727290">
        <ele>354.8600000</ele>
        <time>2009-05-03T17:18:13Z</time>
      </trkpt>
      <trkpt lat="43.5527550" lon="-90.8736530">
        <ele>361.5900000</ele>
        <time>2009-05-03T17:18:23Z</time>
      </trkpt>
      <trkpt lat="43.5552210" lon="-90.8746830">
        <ele>369.7600000</ele>
        <time>2009-05-03T17:18:38Z</time>
      </trkpt>
      <trkpt lat="43.5570060" lon="-90.8752960">
        <ele>377.9400000</ele>
        <time>2009-05-03T17:18:51Z</time>
      </trkpt>
      <trkpt lat="43.5574730" lon="-90.8755120">
        <ele>380.8200000</ele>
        <time>2009-05-03T17:18:56Z</time>
      </trkpt>
      <trkpt lat="43.5575410" lon="-90.8756030">
        <ele>381.7800000</ele>
        <time>2009-05-03T17:18:57Z</time>
      </trkpt>
      <trkpt lat="43.5575970" lon="-90.8757030">
        <ele>382.2600000</ele>
        <time>2009-05-03T17:18:58Z</time>
      </trkpt>
      <trkpt lat="43.5576450" lon="-90.8758150">
        <ele>382.7400000</ele>
        <time>2009-05-03T17:18:59Z</time>
      </trkpt>
      <trkpt lat="43.5576940" lon="-90.8759280">
        <ele>383.2200000</ele>
        <time>2009-05-03T17:19:00Z</time>
      </trkpt>
      <trkpt lat="43.5577130" lon="-90.8760350">
        <ele>383.2200000</ele>
        <time>2009-05-03T17:19:01Z</time>
      </trkpt>
      <trkpt lat="43.5577290" lon="-90.8761620">
        <ele>383.7000000</ele>
        <time>2009-05-03T17:19:02Z</time>
      </trkpt>
      <trkpt lat="43.5577450" lon="-90.8762890">
        <ele>384.1800000</ele>
        <time>2009-05-03T17:19:03Z</time>
      </trkpt>
      <trkpt lat="43.5577540" lon="-90.8764070">
        <ele>383.7000000</ele>
        <time>2009-05-03T17:19:04Z</time>
      </trkpt>
      <trkpt lat="43.5578300" lon="-90.8773150">
        <ele>385.1500000</ele>
        <time>2009-05-03T17:19:13Z</time>
      </trkpt>
      <trkpt lat="43.5578650" lon="-90.8785570">
        <ele>384.6600000</ele>
        <time>2009-05-03T17:19:25Z</time>
      </trkpt>
      <trkpt lat="43.5578080" lon="-90.8807900">
        <ele>385.1500000</ele>
        <time>2009-05-03T17:19:41Z</time>
      </trkpt>
      <trkpt lat="43.5575340" lon="-90.8822860">
        <ele>387.0700000</ele>
        <time>2009-05-03T17:19:53Z</time>
      </trkpt>
      <trkpt lat="43.5573110" lon="-90.8833970">
        <ele>389.4700000</ele>
        <time>2009-05-03T17:20:04Z</time>
      </trkpt>
      <trkpt lat="43.5572220" lon="-90.8841070">
        <ele>388.9900000</ele>
        <time>2009-05-03T17:20:09Z</time>
      </trkpt>
      <trkpt lat="43.5572170" lon="-90.8842620">
        <ele>388.9900000</ele>
        <time>2009-05-03T17:20:10Z</time>
      </trkpt>
      <trkpt lat="43.5571590" lon="-90.8863940">
        <ele>384.1800000</ele>
        <time>2009-05-03T17:20:24Z</time>
      </trkpt>
      <trkpt lat="43.5571440" lon="-90.8871720">
        <ele>384.1800000</ele>
        <time>2009-05-03T17:20:36Z</time>
      </trkpt>
      <trkpt lat="43.5571440" lon="-90.8873870">
        <ele>384.6600000</ele>
        <time>2009-05-03T17:20:42Z</time>
      </trkpt>
      <trkpt lat="43.5571440" lon="-90.8879870">
        <ele>386.1100000</ele>
        <time>2009-05-03T17:20:49Z</time>
      </trkpt>
      <trkpt lat="43.5571440" lon="-90.8882470">
        <ele>386.5900000</ele>
        <time>2009-05-03T17:20:57Z</time>
      </trkpt>
      <trkpt lat="43.5571440" lon="-90.8887730">
        <ele>388.0300000</ele>
        <time>2009-05-03T17:21:08Z</time>
      </trkpt>
      <trkpt lat="43.5571440" lon="-90.8889040">
        <ele>387.0700000</ele>
        <time>2009-05-03T17:21:20Z</time>
      </trkpt>
      <trkpt lat="43.5571440" lon="-90.8891370">
        <ele>389.9500000</ele>
        <time>2009-05-03T17:21:41Z</time>
      </trkpt>
      <trkpt lat="43.5571440" lon="-90.8892110">
        <ele>389.9500000</ele>
        <time>2009-05-03T17:21:42Z</time>
      </trkpt>
      <trkpt lat="43.5572110" lon="-90.8893390">
        <ele>389.9500000</ele>
        <time>2009-05-03T17:21:43Z</time>
      </trkpt>
      <trkpt lat="43.5572580" lon="-90.8893420">
        <ele>389.9500000</ele>
        <time>2009-05-03T17:21:44Z</time>
      </trkpt>
      <trkpt lat="43.5573300" lon="-90.8893450">
        <ele>388.9900000</ele>
        <time>2009-05-03T17:21:45Z</time>
      </trkpt>
      <trkpt lat="43.5574190" lon="-90.8893500">
        <ele>388.5100000</ele>
        <time>2009-05-03T17:21:46Z</time>
      </trkpt>
      <trkpt lat="43.5575310" lon="-90.8893560">
        <ele>388.0300000</ele>
        <time>2009-05-03T17:21:47Z</time>
      </trkpt>
      <trkpt lat="43.5576630" lon="-90.8893630">
        <ele>387.5500000</ele>
        <time>2009-05-03T17:21:48Z</time>
      </trkpt>
      <trkpt lat="43.5593540" lon="-90.8893790">
        <ele>374.5700000</ele>
        <time>2009-05-03T17:22:00Z</time>
      </trkpt>
      <trkpt lat="43.5606720" lon="-90.8892660">
        <ele>369.2800000</ele>
        <time>2009-05-03T17:22:11Z</time>
      </trkpt>
      <trkpt lat="43.5623990" lon="-90.8889790">
        <ele>370.7300000</ele>
        <time>2009-05-03T17:22:24Z</time>
      </trkpt>
      <trkpt lat="43.5652530" lon="-90.8889530">
        <ele>370.7300000</ele>
        <time>2009-05-03T17:22:45Z</time>
      </trkpt>
      <trkpt lat="43.5679600" lon="-90.8889920">
        <ele>368.8000000</ele>
        <time>2009-05-03T17:23:04Z</time>
      </trkpt>
      <trkpt lat="43.5697910" lon="-90.8889500">
        <ele>373.6100000</ele>
        <time>2009-05-03T17:23:15Z</time>
      </trkpt>
      <trkpt lat="43.5732790" lon="-90.8889500">
        <ele>384.1800000</ele>
        <time>2009-05-03T17:23:35Z</time>
      </trkpt>
      <trkpt lat="43.5753350" lon="-90.8889500">
        <ele>386.1100000</ele>
        <time>2009-05-03T17:23:49Z</time>
      </trkpt>
      <trkpt lat="43.5770280" lon="-90.8889500">
        <ele>384.6600000</ele>
        <time>2009-05-03T17:23:58Z</time>
      </trkpt>
      <trkpt lat="43.5788520" lon="-90.8889600">
        <ele>380.3400000</ele>
        <time>2009-05-03T17:24:06Z</time>
      </trkpt>
      <trkpt lat="43.5815670" lon="-90.8889880">
        <ele>373.1300000</ele>
        <time>2009-05-03T17:24:19Z</time>
      </trkpt>
      <trkpt lat="43.5855490" lon="-90.8890350">
        <ele>370.2400000</ele>
        <time>2009-05-03T17:24:38Z</time>
      </trkpt>
      <trkpt lat="43.5901790" lon="-90.8890350">
        <ele>374.0900000</ele>
        <time>2009-05-03T17:24:59Z</time>
      </trkpt>
      <trkpt lat="43.5929960" lon="-90.8890350">
        <ele>376.9700000</ele>
        <time>2009-05-03T17:25:10Z</time>
      </trkpt>
      <trkpt lat="43.5951290" lon="-90.8890520">
        <ele>379.3800000</ele>
        <time>2009-05-03T17:25:17Z</time>
      </trkpt>
      <trkpt lat="43.5986380" lon="-90.8891010">
        <ele>385.6300000</ele>
        <time>2009-05-03T17:25:30Z</time>
      </trkpt>
      <trkpt lat="43.6035990" lon="-90.8891210">
        <ele>391.3900000</ele>
        <time>2009-05-03T17:25:49Z</time>
      </trkpt>
      <trkpt lat="43.6060320" lon="-90.8888190">
        <ele>393.8000000</ele>
        <time>2009-05-03T17:25:59Z</time>
      </trkpt>
      <trkpt lat="43.6077470" lon="-90.8877950">
        <ele>393.3200000</ele>
        <time>2009-05-03T17:26:07Z</time>
      </trkpt>
      <trkpt lat="43.6106470" lon="-90.8858430">
        <ele>390.4300000</ele>
        <time>2009-05-03T17:26:21Z</time>
      </trkpt>
      <trkpt lat="43.6155310" lon="-90.8825390">
        <ele>384.1800000</ele>
        <time>2009-05-03T17:26:43Z</time>
      </trkpt>
      <trkpt lat="43.6207440" lon="-90.8790120">
        <ele>377.4500000</ele>
        <time>2009-05-03T17:27:07Z</time>
      </trkpt>
      <trkpt lat="43.6241120" lon="-90.8767340">
        <ele>369.7600000</ele>
        <time>2009-05-03T17:27:24Z</time>
      </trkpt>
      <trkpt lat="43.6287090" lon="-90.8736030">
        <ele>369.2800000</ele>
        <time>2009-05-03T17:27:45Z</time>
      </trkpt>
      <trkpt lat="43.6352630" lon="-90.8691860">
        <ele>364.9600000</ele>
        <time>2009-05-03T17:28:13Z</time>
      </trkpt>
      <trkpt lat="43.6380260" lon="-90.8673960">
        <ele>363.0400000</ele>
        <time>2009-05-03T17:28:26Z</time>
      </trkpt>
      <trkpt lat="43.6410140" lon="-90.8654600">
        <ele>369.7600000</ele>
        <time>2009-05-03T17:28:42Z</time>
      </trkpt>
      <trkpt lat="43.6431480" lon="-90.8640690">
        <ele>377.9400000</ele>
        <time>2009-05-03T17:28:56Z</time>
      </trkpt>
      <trkpt lat="43.6444610" lon="-90.8631810">
        <ele>383.7000000</ele>
        <time>2009-05-03T17:29:09Z</time>
      </trkpt>
      <trkpt lat="43.6460490" lon="-90.8621520">
        <ele>391.8700000</ele>
        <time>2009-05-03T17:29:25Z</time>
      </trkpt>
      <trkpt lat="43.6477200" lon="-90.8610880">
        <ele>395.2400000</ele>
        <time>2009-05-03T17:29:41Z</time>
      </trkpt>
      <trkpt lat="43.6497750" lon="-90.8597240">
        <ele>397.1600000</ele>
        <time>2009-05-03T17:30:01Z</time>
      </trkpt>
      <trkpt lat="43.6514880" lon="-90.8585960">
        <ele>391.8700000</ele>
        <time>2009-05-03T17:30:19Z</time>
      </trkpt>
      <trkpt lat="43.6529830" lon="-90.8576440">
        <ele>392.3600000</ele>
        <time>2009-05-03T17:30:36Z</time>
      </trkpt>
      <trkpt lat="43.6549710" lon="-90.8563780">
        <ele>396.6800000</ele>
        <time>2009-05-03T17:30:58Z</time>
      </trkpt>
      <trkpt lat="43.6557530" lon="-90.8559030">
        <ele>399.0800000</ele>
        <time>2009-05-03T17:31:05Z</time>
      </trkpt>
      <trkpt lat="43.6558900" lon="-90.8558970">
        <ele>399.0800000</ele>
        <time>2009-05-03T17:31:06Z</time>
      </trkpt>
      <trkpt lat="43.6560320" lon="-90.8558910">
        <ele>399.5700000</ele>
        <time>2009-05-03T17:31:07Z</time>
      </trkpt>
      <trkpt lat="43.6581050" lon="-90.8560900">
        <ele>404.8500000</ele>
        <time>2009-05-03T17:31:22Z</time>
      </trkpt>
      <trkpt lat="43.6591110" lon="-90.8568060">
        <ele>408.2200000</ele>
        <time>2009-05-03T17:31:30Z</time>
      </trkpt>
      <trkpt lat="43.6599680" lon="-90.8582400">
        <ele>408.7000000</ele>
        <time>2009-05-03T17:31:38Z</time>
      </trkpt>
      <trkpt lat="43.6609740" lon="-90.8601350">
        <ele>410.1400000</ele>
        <time>2009-05-03T17:31:46Z</time>
      </trkpt>
      <trkpt lat="43.6626130" lon="-90.8632580">
        <ele>413.0200000</ele>
        <time>2009-05-03T17:31:58Z</time>
      </trkpt>
      <trkpt lat="43.6660100" lon="-90.8697180">
        <ele>412.5400000</ele>
        <time>2009-05-03T17:32:22Z</time>
      </trkpt>
      <trkpt lat="43.6675000" lon="-90.8728770">
        <ele>411.1000000</ele>
        <time>2009-05-03T17:32:34Z</time>
      </trkpt>
      <trkpt lat="43.6677350" lon="-90.8747330">
        <ele>408.2200000</ele>
        <time>2009-05-03T17:32:40Z</time>
      </trkpt>
      <trkpt lat="43.6680460" lon="-90.8791200">
        <ele>402.9300000</ele>
        <time>2009-05-03T17:32:54Z</time>
      </trkpt>
      <trkpt lat="43.6680710" lon="-90.8824650">
        <ele>400.0500000</ele>
        <time>2009-05-03T17:33:05Z</time>
      </trkpt>
      <trkpt lat="43.6675520" lon="-90.8841690">
        <ele>401.0100000</ele>
        <time>2009-05-03T17:33:11Z</time>
      </trkpt>
      <trkpt lat="43.6658590" lon="-90.8880640">
        <ele>403.8900000</ele>
        <time>2009-05-03T17:33:26Z</time>
      </trkpt>
      <trkpt lat="43.6644200" lon="-90.8914430">
        <ele>405.3300000</ele>
        <time>2009-05-03T17:33:37Z</time>
      </trkpt>
      <trkpt lat="43.6639330" lon="-90.8938710">
        <ele>404.3700000</ele>
        <time>2009-05-03T17:33:44Z</time>
      </trkpt>
      <trkpt lat="43.6629840" lon="-90.8983930">
        <ele>401.9700000</ele>
        <time>2009-05-03T17:33:57Z</time>
      </trkpt>
      <trkpt lat="43.6619590" lon="-90.9000000">
        <ele>401.4900000</ele>
        <time>2009-05-03T17:34:03Z</time>
      </trkpt>
      <trkpt lat="43.6602110" lon="-90.9025270">
        <ele>400.5300000</ele>
        <time>2009-05-03T17:34:14Z</time>
      </trkpt>
      <trkpt lat="43.6586330" lon="-90.9052360">
        <ele>399.0800000</ele>
        <time>2009-05-03T17:34:25Z</time>
      </trkpt>
      <trkpt lat="43.6581880" lon="-90.9072900">
        <ele>399.0800000</ele>
        <time>2009-05-03T17:34:32Z</time>
      </trkpt>
      <trkpt lat="43.6572570" lon="-90.9125880">
        <ele>400.5300000</ele>
        <time>2009-05-03T17:34:50Z</time>
      </trkpt>
      <trkpt lat="43.6573740" lon="-90.9147100">
        <ele>401.0100000</ele>
        <time>2009-05-03T17:34:57Z</time>
      </trkpt>
      <trkpt lat="43.6580320" lon="-90.9170430">
        <ele>400.5300000</ele>
        <time>2009-05-03T17:35:05Z</time>
      </trkpt>
      <trkpt lat="43.6587230" lon="-90.9191150">
        <ele>399.0800000</ele>
        <time>2009-05-03T17:35:11Z</time>
      </trkpt>
      <trkpt lat="43.6598140" lon="-90.9223890">
        <ele>393.3200000</ele>
        <time>2009-05-03T17:35:19Z</time>
      </trkpt>
      <trkpt lat="43.6611920" lon="-90.9265230">
        <ele>389.4700000</ele>
        <time>2009-05-03T17:35:30Z</time>
      </trkpt>
      <trkpt lat="43.6623020" lon="-90.9298910">
        <ele>388.0300000</ele>
        <time>2009-05-03T17:35:40Z</time>
      </trkpt>
      <trkpt lat="43.6640430" lon="-90.9351620">
        <ele>389.4700000</ele>
        <time>2009-05-03T17:35:57Z</time>
      </trkpt>
      <trkpt lat="43.6660030" lon="-90.9410980">
        <ele>391.3900000</ele>
        <time>2009-05-03T17:36:16Z</time>
      </trkpt>
      <trkpt lat="43.6680710" lon="-90.9469560">
        <ele>389.4700000</ele>
        <time>2009-05-03T17:36:36Z</time>
      </trkpt>
      <trkpt lat="43.6691590" lon="-90.9491260">
        <ele>389.4700000</ele>
        <time>2009-05-03T17:36:45Z</time>
      </trkpt>
      <trkpt lat="43.6708490" lon="-90.9517610">
        <ele>391.3900000</ele>
        <time>2009-05-03T17:36:58Z</time>
      </trkpt>
      <trkpt lat="43.6737410" lon="-90.9560190">
        <ele>395.2400000</ele>
        <time>2009-05-03T17:37:17Z</time>
      </trkpt>
      <trkpt lat="43.6763430" lon="-90.9600180">
        <ele>391.3900000</ele>
        <time>2009-05-03T17:37:34Z</time>
      </trkpt>
      <trkpt lat="43.6778610" lon="-90.9631280">
        <ele>375.0500000</ele>
        <time>2009-05-03T17:37:46Z</time>
      </trkpt>
      <trkpt lat="43.6799180" lon="-90.9683580">
        <ele>346.2100000</ele>
        <time>2009-05-03T17:38:05Z</time>
      </trkpt>
      <trkpt lat="43.6805340" lon="-90.9708320">
        <ele>335.1600000</ele>
        <time>2009-05-03T17:38:13Z</time>
      </trkpt>
      <trkpt lat="43.6806790" lon="-90.9734430">
        <ele>322.6600000</ele>
        <time>2009-05-03T17:38:21Z</time>
      </trkpt>
      <trkpt lat="43.6811860" lon="-90.9752550">
        <ele>313.5300000</ele>
        <time>2009-05-03T17:38:27Z</time>
      </trkpt>
      <trkpt lat="43.6820530" lon="-90.9766030">
        <ele>301.9900000</ele>
        <time>2009-05-03T17:38:33Z</time>
      </trkpt>
      <trkpt lat="43.6833580" lon="-90.9776130">
        <ele>289.9700000</ele>
        <time>2009-05-03T17:38:40Z</time>
      </trkpt>
      <trkpt lat="43.6864380" lon="-90.9791100">
        <ele>277.4800000</ele>
        <time>2009-05-03T17:38:54Z</time>
      </trkpt>
      <trkpt lat="43.6885730" lon="-90.9805690">
        <ele>273.6300000</ele>
        <time>2009-05-03T17:39:04Z</time>
      </trkpt>
      <trkpt lat="43.6902460" lon="-90.9825990">
        <ele>268.3500000</ele>
        <time>2009-05-03T17:39:13Z</time>
      </trkpt>
      <trkpt lat="43.6925680" lon="-90.9860520">
        <ele>259.6900000</ele>
        <time>2009-05-03T17:39:27Z</time>
      </trkpt>
      <trkpt lat="43.6942760" lon="-90.9897200">
        <ele>250.0800000</ele>
        <time>2009-05-03T17:39:40Z</time>
      </trkpt>
      <trkpt lat="43.6969100" lon="-90.9961870">
        <ele>244.3100000</ele>
        <time>2009-05-03T17:40:02Z</time>
      </trkpt>
      <trkpt lat="43.6989680" lon="-91.0014070">
        <ele>247.2000000</ele>
        <time>2009-05-03T17:40:20Z</time>
      </trkpt>
      <trkpt lat="43.6996310" lon="-91.0028920">
        <ele>247.2000000</ele>
        <time>2009-05-03T17:40:27Z</time>
      </trkpt>
      <trkpt lat="43.7004020" lon="-91.0043170">
        <ele>245.2700000</ele>
        <time>2009-05-03T17:40:38Z</time>
      </trkpt>
      <trkpt lat="43.7016800" lon="-91.0063620">
        <ele>233.7400000</ele>
        <time>2009-05-03T17:40:54Z</time>
      </trkpt>
      <trkpt lat="43.7023280" lon="-91.0076390">
        <ele>229.8900000</ele>
        <time>2009-05-03T17:41:03Z</time>
      </trkpt>
      <trkpt lat="43.7023710" lon="-91.0077710">
        <ele>229.8900000</ele>
        <time>2009-05-03T17:41:04Z</time>
      </trkpt>
      <trkpt lat="43.7023780" lon="-91.0079320">
        <ele>229.8900000</ele>
        <time>2009-05-03T17:41:05Z</time>
      </trkpt>
      <trkpt lat="43.7023850" lon="-91.0080920">
        <ele>229.8900000</ele>
        <time>2009-05-03T17:41:06Z</time>
      </trkpt>
      <trkpt lat="43.7023910" lon="-91.0082480">
        <ele>229.4100000</ele>
        <time>2009-05-03T17:41:07Z</time>
      </trkpt>
      <trkpt lat="43.7023980" lon="-91.0084040">
        <ele>228.9300000</ele>
        <time>2009-05-03T17:41:08Z</time>
      </trkpt>
      <trkpt lat="43.7023690" lon="-91.0103370">
        <ele>227.9700000</ele>
        <time>2009-05-03T17:41:22Z</time>
      </trkpt>
      <trkpt lat="43.7023690" lon="-91.0128840">
        <ele>226.0500000</ele>
        <time>2009-05-03T17:41:40Z</time>
      </trkpt>
      <trkpt lat="43.7023690" lon="-91.0142110">
        <ele>223.6400000</ele>
        <time>2009-05-03T17:41:52Z</time>
      </trkpt>
      <trkpt lat="43.7024120" lon="-91.0167610">
        <ele>221.7200000</ele>
        <time>2009-05-03T17:42:11Z</time>
      </trkpt>
      <trkpt lat="43.7024120" lon="-91.0191670">
        <ele>218.3600000</ele>
        <time>2009-05-03T17:42:27Z</time>
      </trkpt>
      <trkpt lat="43.7023900" lon="-91.0218730">
        <ele>217.8800000</ele>
        <time>2009-05-03T17:42:41Z</time>
      </trkpt>
      <trkpt lat="43.7023610" lon="-91.0240020">
        <ele>218.8400000</ele>
        <time>2009-05-03T17:42:48Z</time>
      </trkpt>
      <trkpt lat="43.7022990" lon="-91.0284810">
        <ele>220.7600000</ele>
        <time>2009-05-03T17:43:01Z</time>
      </trkpt>
      <trkpt lat="43.7020370" lon="-91.0317860">
        <ele>225.0900000</ele>
        <time>2009-05-03T17:43:11Z</time>
      </trkpt>
      <trkpt lat="43.7012700" lon="-91.0352100">
        <ele>226.5300000</ele>
        <time>2009-05-03T17:43:22Z</time>
      </trkpt>
      <trkpt lat="43.7010040" lon="-91.0376240">
        <ele>226.5300000</ele>
        <time>2009-05-03T17:43:29Z</time>
      </trkpt>
      <trkpt lat="43.7012260" lon="-91.0400580">
        <ele>226.0500000</ele>
        <time>2009-05-03T17:43:36Z</time>
      </trkpt>
      <trkpt lat="43.7019990" lon="-91.0422740">
        <ele>229.8900000</ele>
        <time>2009-05-03T17:43:43Z</time>
      </trkpt>
      <trkpt lat="43.7033450" lon="-91.0447940">
        <ele>237.5800000</ele>
        <time>2009-05-03T17:43:52Z</time>
      </trkpt>
      <trkpt lat="43.7048240" lon="-91.0465230">
        <ele>249.1200000</ele>
        <time>2009-05-03T17:44:00Z</time>
      </trkpt>
      <trkpt lat="43.7070460" lon="-91.0491990">
        <ele>272.6700000</ele>
        <time>2009-05-03T17:44:12Z</time>
      </trkpt>
      <trkpt lat="43.7079110" lon="-91.0513200">
        <ele>285.1700000</ele>
        <time>2009-05-03T17:44:19Z</time>
      </trkpt>
      <trkpt lat="43.7083370" lon="-91.0539140">
        <ele>298.6300000</ele>
        <time>2009-05-03T17:44:27Z</time>
      </trkpt>
      <trkpt lat="43.7092480" lon="-91.0590670">
        <ele>326.9900000</ele>
        <time>2009-05-03T17:44:43Z</time>
      </trkpt>
      <trkpt lat="43.7101260" lon="-91.0616300">
        <ele>342.8500000</ele>
        <time>2009-05-03T17:44:52Z</time>
      </trkpt>
      <trkpt lat="43.7113110" lon="-91.0639080">
        <ele>357.2700000</ele>
        <time>2009-05-03T17:45:02Z</time>
      </trkpt>
      <trkpt lat="43.7128230" lon="-91.0668920">
        <ele>375.5300000</ele>
        <time>2009-05-03T17:45:17Z</time>
      </trkpt>
      <trkpt lat="43.7142260" lon="-91.0699420">
        <ele>382.2600000</ele>
        <time>2009-05-03T17:45:30Z</time>
      </trkpt>
      <trkpt lat="43.7156920" lon="-91.0734210">
        <ele>383.7000000</ele>
        <time>2009-05-03T17:45:43Z</time>
      </trkpt>
      <trkpt lat="43.7172090" lon="-91.0760960">
        <ele>385.1500000</ele>
        <time>2009-05-03T17:45:53Z</time>
      </trkpt>
      <trkpt lat="43.7188310" lon="-91.0785170">
        <ele>386.5900000</ele>
        <time>2009-05-03T17:46:04Z</time>
      </trkpt>
      <trkpt lat="43.7212050" lon="-91.0820970">
        <ele>387.0700000</ele>
        <time>2009-05-03T17:46:20Z</time>
      </trkpt>
      <trkpt lat="43.7238540" lon="-91.0856970">
        <ele>390.4300000</ele>
        <time>2009-05-03T17:46:36Z</time>
      </trkpt>
      <trkpt lat="43.7256650" lon="-91.0870730">
        <ele>389.9500000</ele>
        <time>2009-05-03T17:46:45Z</time>
      </trkpt>
      <trkpt lat="43.7280000" lon="-91.0883350">
        <ele>388.5100000</ele>
        <time>2009-05-03T17:46:56Z</time>
      </trkpt>
      <trkpt lat="43.7292570" lon="-91.0897030">
        <ele>387.5500000</ele>
        <time>2009-05-03T17:47:03Z</time>
      </trkpt>
      <trkpt lat="43.7309790" lon="-91.0925930">
        <ele>387.5500000</ele>
        <time>2009-05-03T17:47:15Z</time>
      </trkpt>
      <trkpt lat="43.7318700" lon="-91.0948180">
        <ele>388.9900000</ele>
        <time>2009-05-03T17:47:24Z</time>
      </trkpt>
      <trkpt lat="43.7321140" lon="-91.0969950">
        <ele>389.4700000</ele>
        <time>2009-05-03T17:47:32Z</time>
      </trkpt>
      <trkpt lat="43.7321500" lon="-91.1023380">
        <ele>385.1500000</ele>
        <time>2009-05-03T17:47:49Z</time>
      </trkpt>
      <trkpt lat="43.7324980" lon="-91.1052730">
        <ele>382.7400000</ele>
        <time>2009-05-03T17:47:58Z</time>
      </trkpt>
      <trkpt lat="43.7333560" lon="-91.1072450">
        <ele>383.7000000</ele>
        <time>2009-05-03T17:48:05Z</time>
      </trkpt>
      <trkpt lat="43.7345710" lon="-91.1087640">
        <ele>382.7400000</ele>
        <time>2009-05-03T17:48:12Z</time>
      </trkpt>
      <trkpt lat="43.7362740" lon="-91.1098770">
        <ele>377.4500000</ele>
        <time>2009-05-03T17:48:20Z</time>
      </trkpt>
      <trkpt lat="43.7387340" lon="-91.1109680">
        <ele>361.5900000</ele>
        <time>2009-05-03T17:48:31Z</time>
      </trkpt>
      <trkpt lat="43.7409680" lon="-91.1113420">
        <ele>344.7700000</ele>
        <time>2009-05-03T17:48:41Z</time>
      </trkpt>
      <trkpt lat="43.7438480" lon="-91.1117190">
        <ele>324.1000000</ele>
        <time>2009-05-03T17:48:54Z</time>
      </trkpt>
      <trkpt lat="43.7475990" lon="-91.1127400">
        <ele>295.7400000</ele>
        <time>2009-05-03T17:49:10Z</time>
      </trkpt>
      <trkpt lat="43.7505530" lon="-91.1141250">
        <ele>270.7500000</ele>
        <time>2009-05-03T17:49:23Z</time>
      </trkpt>
      <trkpt lat="43.7518450" lon="-91.1157010">
        <ele>255.8500000</ele>
        <time>2009-05-03T17:49:30Z</time>
      </trkpt>
      <trkpt lat="43.7533820" lon="-91.1187340">
        <ele>237.5800000</ele>
        <time>2009-05-03T17:49:41Z</time>
      </trkpt>
      <trkpt lat="43.7544160" lon="-91.1208460">
        <ele>235.1800000</ele>
        <time>2009-05-03T17:49:50Z</time>
      </trkpt>
      <trkpt lat="43.7562030" lon="-91.1244190">
        <ele>235.6600000</ele>
        <time>2009-05-03T17:50:06Z</time>
      </trkpt>
      <trkpt lat="43.7575510" lon="-91.1271140">
        <ele>235.6600000</ele>
        <time>2009-05-03T17:50:19Z</time>
      </trkpt>
      <trkpt lat="43.7590940" lon="-91.1304660">
        <ele>234.2200000</ele>
        <time>2009-05-03T17:50:35Z</time>
      </trkpt>
      <trkpt lat="43.7608090" lon="-91.1342840">
        <ele>233.7400000</ele>
        <time>2009-05-03T17:50:52Z</time>
      </trkpt>
      <trkpt lat="43.7627030" lon="-91.1384980">
        <ele>234.7000000</ele>
        <time>2009-05-03T17:51:12Z</time>
      </trkpt>
      <trkpt lat="43.7641730" lon="-91.1418960">
        <ele>232.7800000</ele>
        <time>2009-05-03T17:51:27Z</time>
      </trkpt>
      <trkpt lat="43.7653270" lon="-91.1444510">
        <ele>230.8500000</ele>
        <time>2009-05-03T17:51:37Z</time>
      </trkpt>
      <trkpt lat="43.7664930" lon="-91.1465140">
        <ele>230.8500000</ele>
        <time>2009-05-03T17:51:46Z</time>
      </trkpt>
      <trkpt lat="43.7670700" lon="-91.1483780">
        <ele>231.8100000</ele>
        <time>2009-05-03T17:51:54Z</time>
      </trkpt>
      <trkpt lat="43.7672540" lon="-91.1506520">
        <ele>231.3300000</ele>
        <time>2009-05-03T17:52:02Z</time>
      </trkpt>
      <trkpt lat="43.7675400" lon="-91.1540340">
        <ele>227.4900000</ele>
        <time>2009-05-03T17:52:13Z</time>
      </trkpt>
      <trkpt lat="43.7682360" lon="-91.1565870">
        <ele>221.2400000</ele>
        <time>2009-05-03T17:52:22Z</time>
      </trkpt>
      <trkpt lat="43.7690100" lon="-91.1591960">
        <ele>218.8400000</ele>
        <time>2009-05-03T17:52:31Z</time>
      </trkpt>
      <trkpt lat="43.7690060" lon="-91.1612690">
        <ele>218.3600000</ele>
        <time>2009-05-03T17:52:38Z</time>
      </trkpt>
      <trkpt lat="43.7683990" lon="-91.1632650">
        <ele>220.7600000</ele>
        <time>2009-05-03T17:52:45Z</time>
      </trkpt>
      <trkpt lat="43.7670940" lon="-91.1661310">
        <ele>225.5700000</ele>
        <time>2009-05-03T17:52:55Z</time>
      </trkpt>
      <trkpt lat="43.7664650" lon="-91.1686370">
        <ele>227.0100000</ele>
        <time>2009-05-03T17:53:03Z</time>
      </trkpt>
      <trkpt lat="43.7658680" lon="-91.1730060">
        <ele>224.1200000</ele>
        <time>2009-05-03T17:53:16Z</time>
      </trkpt>
      <trkpt lat="43.7653840" lon="-91.1762290">
        <ele>220.7600000</ele>
        <time>2009-05-03T17:53:27Z</time>
      </trkpt>
      <trkpt lat="43.7646440" lon="-91.1782260">
        <ele>218.8400000</ele>
        <time>2009-05-03T17:53:34Z</time>
      </trkpt>
      <trkpt lat="43.7634080" lon="-91.1801850">
        <ele>218.3600000</ele>
        <time>2009-05-03T17:53:42Z</time>
      </trkpt>
      <trkpt lat="43.7615710" lon="-91.1829800">
        <ele>217.8800000</ele>
        <time>2009-05-03T17:53:53Z</time>
      </trkpt>
      <trkpt lat="43.7603220" lon="-91.1855630">
        <ele>218.3600000</ele>
        <time>2009-05-03T17:54:03Z</time>
      </trkpt>
      <trkpt lat="43.7579460" lon="-91.1900800">
        <ele>219.3200000</ele>
        <time>2009-05-03T17:54:22Z</time>
      </trkpt>
      <trkpt lat="43.7557210" lon="-91.1936380">
        <ele>222.6800000</ele>
        <time>2009-05-03T17:54:37Z</time>
      </trkpt>
      <trkpt lat="43.7529650" lon="-91.1977800">
        <ele>213.0700000</ele>
        <time>2009-05-03T17:54:55Z</time>
      </trkpt>
      <trkpt lat="43.7523370" lon="-91.1990320">
        <ele>206.8200000</ele>
        <time>2009-05-03T17:55:00Z</time>
      </trkpt>
      <trkpt lat="43.7522650" lon="-91.1992950">
        <ele>206.3400000</ele>
        <time>2009-05-03T17:55:01Z</time>
      </trkpt>
      <trkpt lat="43.7522260" lon="-91.1995890">
        <ele>205.8600000</ele>
        <time>2009-05-03T17:55:02Z</time>
      </trkpt>
      <trkpt lat="43.7521970" lon="-91.1998580">
        <ele>204.4200000</ele>
        <time>2009-05-03T17:55:03Z</time>
      </trkpt>
      <trkpt lat="43.7522320" lon="-91.2001490">
        <ele>203.4600000</ele>
        <time>2009-05-03T17:55:04Z</time>
      </trkpt>
      <trkpt lat="43.7522660" lon="-91.2004400">
        <ele>202.4900000</ele>
        <time>2009-05-03T17:55:05Z</time>
      </trkpt>
      <trkpt lat="43.7523110" lon="-91.2006640">
        <ele>201.5300000</ele>
        <time>2009-05-03T17:55:06Z</time>
      </trkpt>
      <trkpt lat="43.7523920" lon="-91.2009330">
        <ele>201.5300000</ele>
        <time>2009-05-03T17:55:07Z</time>
      </trkpt>
      <trkpt lat="43.7524970" lon="-91.2011380">
        <ele>202.0100000</ele>
        <time>2009-05-03T17:55:08Z</time>
      </trkpt>
      <trkpt lat="43.7526220" lon="-91.2013540">
        <ele>202.9800000</ele>
        <time>2009-05-03T17:55:09Z</time>
      </trkpt>
      <trkpt lat="43.7527440" lon="-91.2015360">
        <ele>203.4600000</ele>
        <time>2009-05-03T17:55:10Z</time>
      </trkpt>
      <trkpt lat="43.7529100" lon="-91.2016950">
        <ele>203.4600000</ele>
        <time>2009-05-03T17:55:11Z</time>
      </trkpt>
      <trkpt lat="43.7530780" lon="-91.2018560">
        <ele>203.4600000</ele>
        <time>2009-05-03T17:55:12Z</time>
      </trkpt>
      <trkpt lat="43.7532470" lon="-91.2020190">
        <ele>202.9800000</ele>
        <time>2009-05-03T17:55:13Z</time>
      </trkpt>
      <trkpt lat="43.7550000" lon="-91.2033500">
        <ele>200.5700000</ele>
        <time>2009-05-03T17:55:23Z</time>
      </trkpt>
    </trkseg>
  </trk>

</gpx>
